<?xml version="1.0" encoding="UTF-8" standalone="no" ?>
<gpx xmlns="http://www.topografix.com/GPX/1/1" xmlns:xsi="http://www.w3.org/2001/XMLSchema-instance" xsi:schemaLocation="http://www.topografix.com/GPX/1/1 http://www.topografix.com/GPX/1/1/gpx.xsd" version="1.1" creator="VisuGPX - https://www.visugpx.com">
  <metadata>
    <name>Tour d'Europe: étape 037</name>
    <desc><![CDATA[Étape 037]]></desc>
  </metadata>
  <trk>
    <name><![CDATA[Tour d'Europe: étape 037]]></name>
    <trkseg>
      <trkpt lat="63.1112" lon="7.83202">
        <ele>86.606309</ele>
        <time>2020-08-04T07:12:13.443Z</time>
      </trkpt>
      <trkpt lat="63.1112" lon="7.83156">
        <ele>86.606309</ele>
        <time>2020-08-04T07:14:12.421Z</time>
      </trkpt>
      <trkpt lat="63.11119" lon="7.83133">
        <ele>86.606309</ele>
        <time>2020-08-04T07:14:16.461Z</time>
      </trkpt>
      <trkpt lat="63.11115" lon="7.83109">
        <ele>86.606309</ele>
        <time>2020-08-04T07:14:20.415Z</time>
      </trkpt>
      <trkpt lat="63.11112" lon="7.83089">
        <ele>86.606309</ele>
        <time>2020-08-04T07:14:24.426Z</time>
      </trkpt>
      <trkpt lat="63.1111" lon="7.83064">
        <ele>86.606309</ele>
        <time>2020-08-04T07:14:29.421Z</time>
      </trkpt>
      <trkpt lat="63.11113" lon="7.8304">
        <ele>86.606309</ele>
        <time>2020-08-04T07:14:33.451Z</time>
      </trkpt>
      <trkpt lat="63.11111" lon="7.8302">
        <ele>86.606309</ele>
        <time>2020-08-04T07:14:36.429Z</time>
      </trkpt>
      <trkpt lat="63.11107" lon="7.82997">
        <ele>86.441975</ele>
        <time>2020-08-04T07:14:39.423Z</time>
      </trkpt>
      <trkpt lat="63.11101" lon="7.82971">
        <ele>86.037642</ele>
        <time>2020-08-04T07:14:42.443Z</time>
      </trkpt>
      <trkpt lat="63.11094" lon="7.8295">
        <ele>85.684762</ele>
        <time>2020-08-04T07:14:44.443Z</time>
      </trkpt>
      <trkpt lat="63.11086" lon="7.82925">
        <ele>85.268869</ele>
        <time>2020-08-04T07:14:46.429Z</time>
      </trkpt>
      <trkpt lat="63.11077" lon="7.82894">
        <ele>84.762348</ele>
        <time>2020-08-04T07:14:48.434Z</time>
      </trkpt>
      <trkpt lat="63.11066" lon="7.82864">
        <ele>84.247478</ele>
        <time>2020-08-04T07:14:50.436Z</time>
      </trkpt>
      <trkpt lat="63.11056" lon="7.82839">
        <ele>83.792523</ele>
        <time>2020-08-04T07:14:52.433Z</time>
      </trkpt>
      <trkpt lat="63.11046" lon="7.82815">
        <ele>83.351594</ele>
        <time>2020-08-04T07:14:54.447Z</time>
      </trkpt>
      <trkpt lat="63.11037" lon="7.82792">
        <ele>82.932952</ele>
        <time>2020-08-04T07:14:56.454Z</time>
      </trkpt>
      <trkpt lat="63.11028" lon="7.82772">
        <ele>82.551667</ele>
        <time>2020-08-04T07:14:58.437Z</time>
      </trkpt>
      <trkpt lat="63.11019" lon="7.82752">
        <ele>82.178673</ele>
        <time>2020-08-04T07:15:00.431Z</time>
      </trkpt>
      <trkpt lat="63.11011" lon="7.82733">
        <ele>81.806625</ele>
        <time>2020-08-04T07:15:02.403Z</time>
      </trkpt>
      <trkpt lat="63.10998" lon="7.82708">
        <ele>81.300127</ele>
        <time>2020-08-04T07:15:05.441Z</time>
      </trkpt>
      <trkpt lat="63.1099" lon="7.82695">
        <ele>81.00165</ele>
        <time>2020-08-04T07:15:07.452Z</time>
      </trkpt>
      <trkpt lat="63.10982" lon="7.82681">
        <ele>80.697735</ele>
        <time>2020-08-04T07:15:09.429Z</time>
      </trkpt>
      <trkpt lat="63.10974" lon="7.82665">
        <ele>80.378819</ele>
        <time>2020-08-04T07:15:11.404Z</time>
      </trkpt>
      <trkpt lat="63.10966" lon="7.82647">
        <ele>80.039635</ele>
        <time>2020-08-04T07:15:13.428Z</time>
      </trkpt>
      <trkpt lat="63.10958" lon="7.82627">
        <ele>79.673783</ele>
        <time>2020-08-04T07:15:15.426Z</time>
      </trkpt>
      <trkpt lat="63.1095" lon="7.82604">
        <ele>79.287729</ele>
        <time>2020-08-04T07:15:17.442Z</time>
      </trkpt>
      <trkpt lat="63.10944" lon="7.82577">
        <ele>78.873767</ele>
        <time>2020-08-04T07:15:19.430Z</time>
      </trkpt>
      <trkpt lat="63.10939" lon="7.82544">
        <ele>78.410387</ele>
        <time>2020-08-04T07:15:21.435Z</time>
      </trkpt>
      <trkpt lat="63.10937" lon="7.82506">
        <ele>77.898577</ele>
        <time>2020-08-04T07:15:23.423Z</time>
      </trkpt>
      <trkpt lat="63.10935" lon="7.8247">
        <ele>77.398634</ele>
        <time>2020-08-04T07:15:25.436Z</time>
      </trkpt>
      <trkpt lat="63.10931" lon="7.82435">
        <ele>76.927179</ele>
        <time>2020-08-04T07:15:27.416Z</time>
      </trkpt>
      <trkpt lat="63.10928" lon="7.82402">
        <ele>76.470808</ele>
        <time>2020-08-04T07:15:29.426Z</time>
      </trkpt>
      <trkpt lat="63.10923" lon="7.82372">
        <ele>76.036736</ele>
        <time>2020-08-04T07:15:31.406Z</time>
      </trkpt>
      <trkpt lat="63.10918" lon="7.82345">
        <ele>75.534617</ele>
        <time>2020-08-04T07:15:33.468Z</time>
      </trkpt>
      <trkpt lat="63.10913" lon="7.8232">
        <ele>74.967289</ele>
        <time>2020-08-04T07:15:35.418Z</time>
      </trkpt>
      <trkpt lat="63.10908" lon="7.82297">
        <ele>74.450728</ele>
        <time>2020-08-04T07:15:37.404Z</time>
      </trkpt>
      <trkpt lat="63.10903" lon="7.82276">
        <ele>73.946042</ele>
        <time>2020-08-04T07:15:39.430Z</time>
      </trkpt>
      <trkpt lat="63.10895" lon="7.82253">
        <ele>73.34957</ele>
        <time>2020-08-04T07:15:41.441Z</time>
      </trkpt>
      <trkpt lat="63.10882" lon="7.82234">
        <ele>72.638656</ele>
        <time>2020-08-04T07:15:43.440Z</time>
      </trkpt>
      <trkpt lat="63.10866" lon="7.82219">
        <ele>71.861472</ele>
        <time>2020-08-04T07:15:45.420Z</time>
      </trkpt>
      <trkpt lat="63.1085" lon="7.82207">
        <ele>71.083101</ele>
        <time>2020-08-04T07:15:47.421Z</time>
      </trkpt>
      <trkpt lat="63.10835" lon="7.82194">
        <ele>70.342002</ele>
        <time>2020-08-04T07:15:49.438Z</time>
      </trkpt>
      <trkpt lat="63.10822" lon="7.82183">
        <ele>69.698854</ele>
        <time>2020-08-04T07:15:51.423Z</time>
      </trkpt>
      <trkpt lat="63.10811" lon="7.82175">
        <ele>69.19818</ele>
        <time>2020-08-04T07:15:53.424Z</time>
      </trkpt>
      <trkpt lat="63.10802" lon="7.82164">
        <ele>68.695773</ele>
        <time>2020-08-04T07:15:57.462Z</time>
      </trkpt>
      <trkpt lat="63.10793" lon="7.82177">
        <ele>68.207088</ele>
        <time>2020-08-04T07:16:02.427Z</time>
      </trkpt>
      <trkpt lat="63.10788" lon="7.82196">
        <ele>67.741791</ele>
        <time>2020-08-04T07:16:05.408Z</time>
      </trkpt>
      <trkpt lat="63.10783" lon="7.82215">
        <ele>67.963071</ele>
        <time>2020-08-04T07:16:08.419Z</time>
      </trkpt>
      <trkpt lat="63.10778" lon="7.82235">
        <ele>68.488469</ele>
        <time>2020-08-04T07:16:11.451Z</time>
      </trkpt>
      <trkpt lat="63.10773" lon="7.82255">
        <ele>68.998328</ele>
        <time>2020-08-04T07:16:14.443Z</time>
      </trkpt>
      <trkpt lat="63.10768" lon="7.82274">
        <ele>69.47539</ele>
        <time>2020-08-04T07:16:17.424Z</time>
      </trkpt>
      <trkpt lat="63.10764" lon="7.82292">
        <ele>69.942956</ele>
        <time>2020-08-04T07:16:20.419Z</time>
      </trkpt>
      <trkpt lat="63.10759" lon="7.8231">
        <ele>70.410048</ele>
        <time>2020-08-04T07:16:23.429Z</time>
      </trkpt>
      <trkpt lat="63.10755" lon="7.82328">
        <ele>70.889511</ele>
        <time>2020-08-04T07:16:26.509Z</time>
      </trkpt>
      <trkpt lat="63.10749" lon="7.82346">
        <ele>71.379098</ele>
        <time>2020-08-04T07:16:29.438Z</time>
      </trkpt>
      <trkpt lat="63.10744" lon="7.82364">
        <ele>71.849755</ele>
        <time>2020-08-04T07:16:32.413Z</time>
      </trkpt>
      <trkpt lat="63.1074" lon="7.82383">
        <ele>72.342329</ele>
        <time>2020-08-04T07:16:35.469Z</time>
      </trkpt>
      <trkpt lat="63.10736" lon="7.82403">
        <ele>72.832806</ele>
        <time>2020-08-04T07:16:38.439Z</time>
      </trkpt>
      <trkpt lat="63.10733" lon="7.82423">
        <ele>73.313501</ele>
        <time>2020-08-04T07:16:41.442Z</time>
      </trkpt>
      <trkpt lat="63.10729" lon="7.82442">
        <ele>73.777333</ele>
        <time>2020-08-04T07:16:44.421Z</time>
      </trkpt>
      <trkpt lat="63.10726" lon="7.82465">
        <ele>74.344613</ele>
        <time>2020-08-04T07:16:48.448Z</time>
      </trkpt>
      <trkpt lat="63.10721" lon="7.82489">
        <ele>74.916146</ele>
        <time>2020-08-04T07:16:52.456Z</time>
      </trkpt>
      <trkpt lat="63.10719" lon="7.82511">
        <ele>75.428184</ele>
        <time>2020-08-04T07:16:56.443Z</time>
      </trkpt>
      <trkpt lat="63.10716" lon="7.82536">
        <ele>76.010847</ele>
        <time>2020-08-04T07:17:00.427Z</time>
      </trkpt>
      <trkpt lat="63.10714" lon="7.82561">
        <ele>76.605653</ele>
        <time>2020-08-04T07:17:04.477Z</time>
      </trkpt>
      <trkpt lat="63.10712" lon="7.82587">
        <ele>77.277709</ele>
        <time>2020-08-04T07:17:08.438Z</time>
      </trkpt>
      <trkpt lat="63.10709" lon="7.82612">
        <ele>77.935154</ele>
        <time>2020-08-04T07:17:12.442Z</time>
      </trkpt>
      <trkpt lat="63.10707" lon="7.82636">
        <ele>78.568645</ele>
        <time>2020-08-04T07:17:16.487Z</time>
      </trkpt>
      <trkpt lat="63.10706" lon="7.8266">
        <ele>79.195413</ele>
        <time>2020-08-04T07:17:20.479Z</time>
      </trkpt>
      <trkpt lat="63.10705" lon="7.82683">
        <ele>79.796268</ele>
        <time>2020-08-04T07:17:24.454Z</time>
      </trkpt>
      <trkpt lat="63.10705" lon="7.82706">
        <ele>80.380921</ele>
        <time>2020-08-04T07:17:28.475Z</time>
      </trkpt>
      <trkpt lat="63.10705" lon="7.82728">
        <ele>80.965825</ele>
        <time>2020-08-04T07:17:32.427Z</time>
      </trkpt>
      <trkpt lat="63.10705" lon="7.82751">
        <ele>81.548003</ele>
        <time>2020-08-04T07:17:36.459Z</time>
      </trkpt>
      <trkpt lat="63.10706" lon="7.82772">
        <ele>82.097511</ele>
        <time>2020-08-04T07:17:40.453Z</time>
      </trkpt>
      <trkpt lat="63.10706" lon="7.82792">
        <ele>82.610526</ele>
        <time>2020-08-04T07:17:44.445Z</time>
      </trkpt>
      <trkpt lat="63.10708" lon="7.82816">
        <ele>83.243538</ele>
        <time>2020-08-04T07:17:49.438Z</time>
      </trkpt>
      <trkpt lat="63.1071" lon="7.82836">
        <ele>83.773495</ele>
        <time>2020-08-04T07:17:53.450Z</time>
      </trkpt>
      <trkpt lat="63.10713" lon="7.82856">
        <ele>84.31682</ele>
        <time>2020-08-04T07:17:57.483Z</time>
      </trkpt>
      <trkpt lat="63.10715" lon="7.82877">
        <ele>84.869631</ele>
        <time>2020-08-04T07:18:01.436Z</time>
      </trkpt>
      <trkpt lat="63.10716" lon="7.82898">
        <ele>85.415391</ele>
        <time>2020-08-04T07:18:05.440Z</time>
      </trkpt>
      <trkpt lat="63.10719" lon="7.82917">
        <ele>85.938007</ele>
        <time>2020-08-04T07:18:09.421Z</time>
      </trkpt>
      <trkpt lat="63.10721" lon="7.82941">
        <ele>86.573408</ele>
        <time>2020-08-04T07:18:14.427Z</time>
      </trkpt>
      <trkpt lat="63.10723" lon="7.82965">
        <ele>87.021035</ele>
        <time>2020-08-04T07:18:19.465Z</time>
      </trkpt>
      <trkpt lat="63.10726" lon="7.82984">
        <ele>87.206407</ele>
        <time>2020-08-04T07:18:23.466Z</time>
      </trkpt>
      <trkpt lat="63.10729" lon="7.83003">
        <ele>87.387819</ele>
        <time>2020-08-04T07:18:27.465Z</time>
      </trkpt>
      <trkpt lat="63.10732" lon="7.83022">
        <ele>87.56826</ele>
        <time>2020-08-04T07:18:31.474Z</time>
      </trkpt>
      <trkpt lat="63.10736" lon="7.83045">
        <ele>87.788375</ele>
        <time>2020-08-04T07:18:36.445Z</time>
      </trkpt>
      <trkpt lat="63.10741" lon="7.83064">
        <ele>87.981361</ele>
        <time>2020-08-04T07:18:40.448Z</time>
      </trkpt>
      <trkpt lat="63.10745" lon="7.83084">
        <ele>88.172957</ele>
        <time>2020-08-04T07:18:44.449Z</time>
      </trkpt>
      <trkpt lat="63.10749" lon="7.83103">
        <ele>88.368834</ele>
        <time>2020-08-04T07:18:48.459Z</time>
      </trkpt>
      <trkpt lat="63.10755" lon="7.83124">
        <ele>88.589489</ele>
        <time>2020-08-04T07:18:52.455Z</time>
      </trkpt>
      <trkpt lat="63.10761" lon="7.83144">
        <ele>88.800562</ele>
        <time>2020-08-04T07:18:56.451Z</time>
      </trkpt>
      <trkpt lat="63.10766" lon="7.83163">
        <ele>89.005425</ele>
        <time>2020-08-04T07:19:00.432Z</time>
      </trkpt>
      <trkpt lat="63.10772" lon="7.83182">
        <ele>89.204129</ele>
        <time>2020-08-04T07:19:04.438Z</time>
      </trkpt>
      <trkpt lat="63.10777" lon="7.83204">
        <ele>89.425326</ele>
        <time>2020-08-04T07:19:08.435Z</time>
      </trkpt>
      <trkpt lat="63.10783" lon="7.83226">
        <ele>89.651869</ele>
        <time>2020-08-04T07:19:12.445Z</time>
      </trkpt>
      <trkpt lat="63.10788" lon="7.83249">
        <ele>89.88071</ele>
        <time>2020-08-04T07:19:16.462Z</time>
      </trkpt>
      <trkpt lat="63.10792" lon="7.83267">
        <ele>90.060882</ele>
        <time>2020-08-04T07:19:19.449Z</time>
      </trkpt>
      <trkpt lat="63.10796" lon="7.83284">
        <ele>90.239079</ele>
        <time>2020-08-04T07:19:22.451Z</time>
      </trkpt>
      <trkpt lat="63.10801" lon="7.83308">
        <ele>90.475639</ele>
        <time>2020-08-04T07:19:26.441Z</time>
      </trkpt>
      <trkpt lat="63.10805" lon="7.83329">
        <ele>90.298477</ele>
        <time>2020-08-04T07:19:29.446Z</time>
      </trkpt>
      <trkpt lat="63.10808" lon="7.83349">
        <ele>90.098944</ele>
        <time>2020-08-04T07:19:32.473Z</time>
      </trkpt>
      <trkpt lat="63.10811" lon="7.83371">
        <ele>89.885558</ele>
        <time>2020-08-04T07:19:35.441Z</time>
      </trkpt>
      <trkpt lat="63.10814" lon="7.83393">
        <ele>89.672415</ele>
        <time>2020-08-04T07:19:38.441Z</time>
      </trkpt>
      <trkpt lat="63.10817" lon="7.83418">
        <ele>89.442209</ele>
        <time>2020-08-04T07:19:41.457Z</time>
      </trkpt>
      <trkpt lat="63.1082" lon="7.83445">
        <ele>89.180344</ele>
        <time>2020-08-04T07:19:44.425Z</time>
      </trkpt>
      <trkpt lat="63.10821" lon="7.83465">
        <ele>88.992384</ele>
        <time>2020-08-04T07:19:46.447Z</time>
      </trkpt>
      <trkpt lat="63.10822" lon="7.83486">
        <ele>88.800294</ele>
        <time>2020-08-04T07:19:48.433Z</time>
      </trkpt>
      <trkpt lat="63.10823" lon="7.83508">
        <ele>88.596505</ele>
        <time>2020-08-04T07:19:50.436Z</time>
      </trkpt>
      <trkpt lat="63.10823" lon="7.83531">
        <ele>88.384643</ele>
        <time>2020-08-04T07:19:52.439Z</time>
      </trkpt>
      <trkpt lat="63.10822" lon="7.83555">
        <ele>88.167871</ele>
        <time>2020-08-04T07:19:54.448Z</time>
      </trkpt>
      <trkpt lat="63.10821" lon="7.83579">
        <ele>87.943827</ele>
        <time>2020-08-04T07:19:56.468Z</time>
      </trkpt>
      <trkpt lat="63.10819" lon="7.83604">
        <ele>87.708828</ele>
        <time>2020-08-04T07:19:58.476Z</time>
      </trkpt>
      <trkpt lat="63.10817" lon="7.8363">
        <ele>87.46718</ele>
        <time>2020-08-04T07:20:00.484Z</time>
      </trkpt>
      <trkpt lat="63.10815" lon="7.83656">
        <ele>87.225902</ele>
        <time>2020-08-04T07:20:02.461Z</time>
      </trkpt>
      <trkpt lat="63.10814" lon="7.83682">
        <ele>86.985907</ele>
        <time>2020-08-04T07:20:04.454Z</time>
      </trkpt>
      <trkpt lat="63.10812" lon="7.83708">
        <ele>86.67776</ele>
        <time>2020-08-04T07:20:06.453Z</time>
      </trkpt>
      <trkpt lat="63.10811" lon="7.83735">
        <ele>86.233139</ele>
        <time>2020-08-04T07:20:08.443Z</time>
      </trkpt>
      <trkpt lat="63.1081" lon="7.83762">
        <ele>85.780741</ele>
        <time>2020-08-04T07:20:10.473Z</time>
      </trkpt>
      <trkpt lat="63.1081" lon="7.8379">
        <ele>85.32409</ele>
        <time>2020-08-04T07:20:12.456Z</time>
      </trkpt>
      <trkpt lat="63.10811" lon="7.83818">
        <ele>84.848354</ele>
        <time>2020-08-04T07:20:14.459Z</time>
      </trkpt>
      <trkpt lat="63.10813" lon="7.83847">
        <ele>84.36078</ele>
        <time>2020-08-04T07:20:16.451Z</time>
      </trkpt>
      <trkpt lat="63.10815" lon="7.83877">
        <ele>83.855408</ele>
        <time>2020-08-04T07:20:18.442Z</time>
      </trkpt>
      <trkpt lat="63.10819" lon="7.83908">
        <ele>83.328163</ele>
        <time>2020-08-04T07:20:20.430Z</time>
      </trkpt>
      <trkpt lat="63.10824" lon="7.83939">
        <ele>82.797804</ele>
        <time>2020-08-04T07:20:22.435Z</time>
      </trkpt>
      <trkpt lat="63.10829" lon="7.83969">
        <ele>82.254732</ele>
        <time>2020-08-04T07:20:24.443Z</time>
      </trkpt>
      <trkpt lat="63.10835" lon="7.84001">
        <ele>81.695582</ele>
        <time>2020-08-04T07:20:26.457Z</time>
      </trkpt>
      <trkpt lat="63.10841" lon="7.84034">
        <ele>81.105424</ele>
        <time>2020-08-04T07:20:28.439Z</time>
      </trkpt>
      <trkpt lat="63.10846" lon="7.84069">
        <ele>80.494638</ele>
        <time>2020-08-04T07:20:30.457Z</time>
      </trkpt>
      <trkpt lat="63.10852" lon="7.84105">
        <ele>79.739339</ele>
        <time>2020-08-04T07:20:32.439Z</time>
      </trkpt>
      <trkpt lat="63.10855" lon="7.84124">
        <ele>79.314233</ele>
        <time>2020-08-04T07:20:33.484Z</time>
      </trkpt>
      <trkpt lat="63.10858" lon="7.84144">
        <ele>78.877055</ele>
        <time>2020-08-04T07:20:34.454Z</time>
      </trkpt>
      <trkpt lat="63.10861" lon="7.84164">
        <ele>78.427772</ele>
        <time>2020-08-04T07:20:35.444Z</time>
      </trkpt>
      <trkpt lat="63.10864" lon="7.84184">
        <ele>77.983936</ele>
        <time>2020-08-04T07:20:36.488Z</time>
      </trkpt>
      <trkpt lat="63.10866" lon="7.84205">
        <ele>77.532586</ele>
        <time>2020-08-04T07:20:37.429Z</time>
      </trkpt>
      <trkpt lat="63.10868" lon="7.84225">
        <ele>77.081784</ele>
        <time>2020-08-04T07:20:38.464Z</time>
      </trkpt>
      <trkpt lat="63.1087" lon="7.84247">
        <ele>76.62196</ele>
        <time>2020-08-04T07:20:39.437Z</time>
      </trkpt>
      <trkpt lat="63.10872" lon="7.84269">
        <ele>76.153768</ele>
        <time>2020-08-04T07:20:40.490Z</time>
      </trkpt>
      <trkpt lat="63.10873" lon="7.8429">
        <ele>75.684887</ele>
        <time>2020-08-04T07:20:41.489Z</time>
      </trkpt>
      <trkpt lat="63.10874" lon="7.84313">
        <ele>75.204597</ele>
        <time>2020-08-04T07:20:42.456Z</time>
      </trkpt>
      <trkpt lat="63.10875" lon="7.84336">
        <ele>74.717685</ele>
        <time>2020-08-04T07:20:43.437Z</time>
      </trkpt>
      <trkpt lat="63.10876" lon="7.84359">
        <ele>74.218421</ele>
        <time>2020-08-04T07:20:44.476Z</time>
      </trkpt>
      <trkpt lat="63.10876" lon="7.84383">
        <ele>73.717568</ele>
        <time>2020-08-04T07:20:45.468Z</time>
      </trkpt>
      <trkpt lat="63.10876" lon="7.84407">
        <ele>73.208697</ele>
        <time>2020-08-04T07:20:46.492Z</time>
      </trkpt>
      <trkpt lat="63.10876" lon="7.84431">
        <ele>72.691412</ele>
        <time>2020-08-04T07:20:47.447Z</time>
      </trkpt>
      <trkpt lat="63.10876" lon="7.84456">
        <ele>72.163464</ele>
        <time>2020-08-04T07:20:48.420Z</time>
      </trkpt>
      <trkpt lat="63.10876" lon="7.84481">
        <ele>71.633046</ele>
        <time>2020-08-04T07:20:49.482Z</time>
      </trkpt>
      <trkpt lat="63.10877" lon="7.84506">
        <ele>71.106023</ele>
        <time>2020-08-04T07:20:50.443Z</time>
      </trkpt>
      <trkpt lat="63.10877" lon="7.84531">
        <ele>70.576938</ele>
        <time>2020-08-04T07:20:51.516Z</time>
      </trkpt>
      <trkpt lat="63.10877" lon="7.84556">
        <ele>70.043603</ele>
        <time>2020-08-04T07:20:52.496Z</time>
      </trkpt>
      <trkpt lat="63.10877" lon="7.84581">
        <ele>69.514018</ele>
        <time>2020-08-04T07:20:53.458Z</time>
      </trkpt>
      <trkpt lat="63.10878" lon="7.84605">
        <ele>68.993857</ele>
        <time>2020-08-04T07:20:54.425Z</time>
      </trkpt>
      <trkpt lat="63.1088" lon="7.84629">
        <ele>68.483906</ele>
        <time>2020-08-04T07:20:55.433Z</time>
      </trkpt>
      <trkpt lat="63.10881" lon="7.84653">
        <ele>67.975434</ele>
        <time>2020-08-04T07:20:56.453Z</time>
      </trkpt>
      <trkpt lat="63.10883" lon="7.84676">
        <ele>67.466913</ele>
        <time>2020-08-04T07:20:57.456Z</time>
      </trkpt>
      <trkpt lat="63.10885" lon="7.847">
        <ele>66.959681</ele>
        <time>2020-08-04T07:20:58.470Z</time>
      </trkpt>
      <trkpt lat="63.10887" lon="7.84723">
        <ele>66.458724</ele>
        <time>2020-08-04T07:20:59.428Z</time>
      </trkpt>
      <trkpt lat="63.10889" lon="7.84746">
        <ele>65.967341</ele>
        <time>2020-08-04T07:21:00.469Z</time>
      </trkpt>
      <trkpt lat="63.10891" lon="7.84768">
        <ele>65.476152</ele>
        <time>2020-08-04T07:21:01.498Z</time>
      </trkpt>
      <trkpt lat="63.10893" lon="7.84791">
        <ele>64.99327</ele>
        <time>2020-08-04T07:21:02.460Z</time>
      </trkpt>
      <trkpt lat="63.10895" lon="7.84812">
        <ele>64.523842</ele>
        <time>2020-08-04T07:21:03.465Z</time>
      </trkpt>
      <trkpt lat="63.10897" lon="7.84833">
        <ele>64.066871</ele>
        <time>2020-08-04T07:21:04.448Z</time>
      </trkpt>
      <trkpt lat="63.109" lon="7.84854">
        <ele>63.616036</ele>
        <time>2020-08-04T07:21:05.456Z</time>
      </trkpt>
      <trkpt lat="63.10902" lon="7.84874">
        <ele>63.305154</ele>
        <time>2020-08-04T07:21:06.452Z</time>
      </trkpt>
      <trkpt lat="63.10904" lon="7.84895">
        <ele>63.166982</ele>
        <time>2020-08-04T07:21:07.452Z</time>
      </trkpt>
      <trkpt lat="63.10906" lon="7.84916">
        <ele>63.032323</ele>
        <time>2020-08-04T07:21:08.449Z</time>
      </trkpt>
      <trkpt lat="63.10908" lon="7.84935">
        <ele>62.902402</ele>
        <time>2020-08-04T07:21:09.455Z</time>
      </trkpt>
      <trkpt lat="63.10912" lon="7.84974">
        <ele>62.646999</ele>
        <time>2020-08-04T07:21:11.472Z</time>
      </trkpt>
      <trkpt lat="63.10914" lon="7.84993">
        <ele>62.518034</ele>
        <time>2020-08-04T07:21:12.504Z</time>
      </trkpt>
      <trkpt lat="63.10918" lon="7.85031">
        <ele>62.268005</ele>
        <time>2020-08-04T07:21:14.473Z</time>
      </trkpt>
      <trkpt lat="63.10921" lon="7.85067">
        <ele>62.028077</ele>
        <time>2020-08-04T07:21:16.475Z</time>
      </trkpt>
      <trkpt lat="63.10924" lon="7.85102">
        <ele>61.796495</ele>
        <time>2020-08-04T07:21:18.442Z</time>
      </trkpt>
      <trkpt lat="63.10925" lon="7.85136">
        <ele>61.576226</ele>
        <time>2020-08-04T07:21:20.445Z</time>
      </trkpt>
      <trkpt lat="63.10927" lon="7.85168">
        <ele>61.364113</ele>
        <time>2020-08-04T07:21:22.448Z</time>
      </trkpt>
      <trkpt lat="63.10927" lon="7.85199">
        <ele>61.163422</ele>
        <time>2020-08-04T07:21:24.446Z</time>
      </trkpt>
      <trkpt lat="63.10928" lon="7.85228">
        <ele>60.977965</ele>
        <time>2020-08-04T07:21:26.427Z</time>
      </trkpt>
      <trkpt lat="63.10928" lon="7.85254">
        <ele>60.807288</ele>
        <time>2020-08-04T07:21:28.453Z</time>
      </trkpt>
      <trkpt lat="63.10929" lon="7.85279">
        <ele>61.005839</ele>
        <time>2020-08-04T07:21:30.458Z</time>
      </trkpt>
      <trkpt lat="63.10929" lon="7.85301">
        <ele>61.238081</ele>
        <time>2020-08-04T07:21:32.433Z</time>
      </trkpt>
      <trkpt lat="63.10928" lon="7.85324">
        <ele>61.466311</ele>
        <time>2020-08-04T07:21:34.452Z</time>
      </trkpt>
      <trkpt lat="63.10928" lon="7.85346">
        <ele>61.685472</ele>
        <time>2020-08-04T07:21:36.444Z</time>
      </trkpt>
      <trkpt lat="63.10928" lon="7.85366">
        <ele>61.896525</ele>
        <time>2020-08-04T07:21:38.528Z</time>
      </trkpt>
      <trkpt lat="63.10928" lon="7.85396">
        <ele>62.194688</ele>
        <time>2020-08-04T07:21:41.468Z</time>
      </trkpt>
      <trkpt lat="63.10927" lon="7.85424">
        <ele>62.482848</ele>
        <time>2020-08-04T07:21:44.433Z</time>
      </trkpt>
      <trkpt lat="63.10928" lon="7.85453">
        <ele>62.770948</ele>
        <time>2020-08-04T07:21:47.441Z</time>
      </trkpt>
      <trkpt lat="63.10928" lon="7.85481">
        <ele>63.058384</ele>
        <time>2020-08-04T07:21:50.431Z</time>
      </trkpt>
      <trkpt lat="63.10929" lon="7.85508">
        <ele>63.33295</ele>
        <time>2020-08-04T07:21:53.462Z</time>
      </trkpt>
      <trkpt lat="63.10931" lon="7.85533">
        <ele>63.594206</ele>
        <time>2020-08-04T07:21:56.423Z</time>
      </trkpt>
      <trkpt lat="63.10932" lon="7.85559">
        <ele>63.856948</ele>
        <time>2020-08-04T07:21:59.464Z</time>
      </trkpt>
      <trkpt lat="63.10935" lon="7.85584">
        <ele>64.116116</ele>
        <time>2020-08-04T07:22:02.433Z</time>
      </trkpt>
      <trkpt lat="63.10938" lon="7.85609">
        <ele>64.378285</ele>
        <time>2020-08-04T07:22:05.460Z</time>
      </trkpt>
      <trkpt lat="63.10942" lon="7.85633">
        <ele>64.639781</ele>
        <time>2020-08-04T07:22:08.473Z</time>
      </trkpt>
      <trkpt lat="63.10947" lon="7.85658">
        <ele>64.885848</ele>
        <time>2020-08-04T07:22:11.449Z</time>
      </trkpt>
      <trkpt lat="63.10952" lon="7.85682">
        <ele>65.080071</ele>
        <time>2020-08-04T07:22:14.464Z</time>
      </trkpt>
      <trkpt lat="63.10958" lon="7.85705">
        <ele>65.272384</ele>
        <time>2020-08-04T07:22:17.454Z</time>
      </trkpt>
      <trkpt lat="63.10965" lon="7.85728">
        <ele>65.468144</ele>
        <time>2020-08-04T07:22:20.524Z</time>
      </trkpt>
      <trkpt lat="63.10969" lon="7.85745">
        <ele>65.615891</ele>
        <time>2020-08-04T07:22:22.461Z</time>
      </trkpt>
      <trkpt lat="63.10976" lon="7.85769">
        <ele>65.822301</ele>
        <time>2020-08-04T07:22:25.453Z</time>
      </trkpt>
      <trkpt lat="63.10983" lon="7.85792">
        <ele>66.020622</ele>
        <time>2020-08-04T07:22:28.428Z</time>
      </trkpt>
      <trkpt lat="63.1099" lon="7.85814">
        <ele>66.213207</ele>
        <time>2020-08-04T07:22:31.447Z</time>
      </trkpt>
      <trkpt lat="63.10996" lon="7.85837">
        <ele>66.410664</ele>
        <time>2020-08-04T07:22:34.459Z</time>
      </trkpt>
      <trkpt lat="63.11003" lon="7.85861">
        <ele>66.611384</ele>
        <time>2020-08-04T07:22:37.449Z</time>
      </trkpt>
      <trkpt lat="63.11008" lon="7.85886">
        <ele>66.811611</ele>
        <time>2020-08-04T07:22:40.450Z</time>
      </trkpt>
      <trkpt lat="63.11014" lon="7.85912">
        <ele>67.019027</ele>
        <time>2020-08-04T07:22:43.441Z</time>
      </trkpt>
      <trkpt lat="63.11019" lon="7.85937">
        <ele>67.219173</ele>
        <time>2020-08-04T07:22:46.442Z</time>
      </trkpt>
      <trkpt lat="63.11022" lon="7.85963">
        <ele>67.417459</ele>
        <time>2020-08-04T07:22:49.457Z</time>
      </trkpt>
      <trkpt lat="63.11025" lon="7.8599">
        <ele>67.614187</ele>
        <time>2020-08-04T07:22:52.434Z</time>
      </trkpt>
      <trkpt lat="63.11028" lon="7.86016">
        <ele>67.610059</ele>
        <time>2020-08-04T07:22:55.458Z</time>
      </trkpt>
      <trkpt lat="63.11031" lon="7.86043">
        <ele>67.440793</ele>
        <time>2020-08-04T07:22:58.455Z</time>
      </trkpt>
      <trkpt lat="63.11033" lon="7.8607">
        <ele>67.265737</ele>
        <time>2020-08-04T07:23:01.444Z</time>
      </trkpt>
      <trkpt lat="63.11035" lon="7.86097">
        <ele>67.091517</ele>
        <time>2020-08-04T07:23:04.452Z</time>
      </trkpt>
      <trkpt lat="63.11038" lon="7.86124">
        <ele>66.917298</ele>
        <time>2020-08-04T07:23:07.441Z</time>
      </trkpt>
      <trkpt lat="63.11041" lon="7.86153">
        <ele>66.734818</ele>
        <time>2020-08-04T07:23:10.456Z</time>
      </trkpt>
      <trkpt lat="63.11044" lon="7.86181">
        <ele>66.548285</ele>
        <time>2020-08-04T07:23:13.473Z</time>
      </trkpt>
      <trkpt lat="63.11046" lon="7.86201">
        <ele>66.419243</ele>
        <time>2020-08-04T07:23:15.442Z</time>
      </trkpt>
      <trkpt lat="63.11049" lon="7.86221">
        <ele>66.290966</ele>
        <time>2020-08-04T07:23:17.459Z</time>
      </trkpt>
      <trkpt lat="63.11052" lon="7.86241">
        <ele>66.155244</ele>
        <time>2020-08-04T07:23:19.473Z</time>
      </trkpt>
      <trkpt lat="63.11055" lon="7.86263">
        <ele>66.008743</ele>
        <time>2020-08-04T07:23:21.446Z</time>
      </trkpt>
      <trkpt lat="63.11059" lon="7.86285">
        <ele>65.862663</ele>
        <time>2020-08-04T07:23:23.466Z</time>
      </trkpt>
      <trkpt lat="63.11064" lon="7.86307">
        <ele>65.706548</ele>
        <time>2020-08-04T07:23:25.449Z</time>
      </trkpt>
      <trkpt lat="63.11069" lon="7.86331">
        <ele>65.540097</ele>
        <time>2020-08-04T07:23:27.462Z</time>
      </trkpt>
      <trkpt lat="63.11074" lon="7.86357">
        <ele>65.360434</ele>
        <time>2020-08-04T07:23:29.436Z</time>
      </trkpt>
      <trkpt lat="63.1108" lon="7.86385">
        <ele>65.124503</ele>
        <time>2020-08-04T07:23:31.442Z</time>
      </trkpt>
      <trkpt lat="63.11086" lon="7.86412">
        <ele>64.635021</ele>
        <time>2020-08-04T07:23:33.447Z</time>
      </trkpt>
      <trkpt lat="63.11092" lon="7.86441">
        <ele>64.127141</ele>
        <time>2020-08-04T07:23:35.498Z</time>
      </trkpt>
      <trkpt lat="63.11098" lon="7.8647">
        <ele>63.614911</ele>
        <time>2020-08-04T07:23:37.474Z</time>
      </trkpt>
      <trkpt lat="63.11104" lon="7.86498">
        <ele>63.116519</ele>
        <time>2020-08-04T07:23:39.464Z</time>
      </trkpt>
      <trkpt lat="63.1111" lon="7.86527">
        <ele>62.619942</ele>
        <time>2020-08-04T07:23:41.453Z</time>
      </trkpt>
      <trkpt lat="63.11114" lon="7.86555">
        <ele>62.134241</ele>
        <time>2020-08-04T07:23:43.425Z</time>
      </trkpt>
      <trkpt lat="63.11119" lon="7.86581">
        <ele>61.691826</ele>
        <time>2020-08-04T07:23:45.436Z</time>
      </trkpt>
      <trkpt lat="63.11123" lon="7.86604">
        <ele>61.299533</ele>
        <time>2020-08-04T07:23:47.461Z</time>
      </trkpt>
      <trkpt lat="63.11127" lon="7.86624">
        <ele>60.953811</ele>
        <time>2020-08-04T07:23:49.482Z</time>
      </trkpt>
      <trkpt lat="63.1113" lon="7.86643">
        <ele>60.626717</ele>
        <time>2020-08-04T07:23:51.451Z</time>
      </trkpt>
      <trkpt lat="63.11134" lon="7.86672">
        <ele>60.156243</ele>
        <time>2020-08-04T07:23:54.451Z</time>
      </trkpt>
      <trkpt lat="63.11137" lon="7.86699">
        <ele>59.693435</ele>
        <time>2020-08-04T07:23:57.448Z</time>
      </trkpt>
      <trkpt lat="63.11141" lon="7.86727">
        <ele>59.23411</ele>
        <time>2020-08-04T07:24:00.478Z</time>
      </trkpt>
      <trkpt lat="63.11145" lon="7.86753">
        <ele>58.768453</ele>
        <time>2020-08-04T07:24:03.460Z</time>
      </trkpt>
      <trkpt lat="63.11148" lon="7.86773">
        <ele>58.215613</ele>
        <time>2020-08-04T07:24:06.488Z</time>
      </trkpt>
      <trkpt lat="63.11152" lon="7.86823">
        <ele>56.895291</ele>
        <time>2020-08-04T07:26:52.436Z</time>
      </trkpt>
      <trkpt lat="63.11156" lon="7.86845">
        <ele>56.292144</ele>
        <time>2020-08-04T07:26:56.462Z</time>
      </trkpt>
      <trkpt lat="63.11159" lon="7.86864">
        <ele>55.765459</ele>
        <time>2020-08-04T07:27:00.426Z</time>
      </trkpt>
      <trkpt lat="63.11161" lon="7.86884">
        <ele>55.215389</ele>
        <time>2020-08-04T07:27:05.441Z</time>
      </trkpt>
      <trkpt lat="63.11163" lon="7.86906">
        <ele>54.637334</ele>
        <time>2020-08-04T07:27:09.479Z</time>
      </trkpt>
      <trkpt lat="63.11166" lon="7.86931">
        <ele>53.964591</ele>
        <time>2020-08-04T07:27:13.422Z</time>
      </trkpt>
      <trkpt lat="63.11169" lon="7.8695">
        <ele>53.429129</ele>
        <time>2020-08-04T07:27:17.448Z</time>
      </trkpt>
      <trkpt lat="63.11172" lon="7.86969">
        <ele>52.903634</ele>
        <time>2020-08-04T07:27:22.445Z</time>
      </trkpt>
      <trkpt lat="63.11176" lon="7.8699">
        <ele>52.319507</ele>
        <time>2020-08-04T07:27:27.446Z</time>
      </trkpt>
      <trkpt lat="63.11181" lon="7.87012">
        <ele>51.684402</ele>
        <time>2020-08-04T07:27:32.451Z</time>
      </trkpt>
      <trkpt lat="63.11185" lon="7.87029">
        <ele>51.169189</ele>
        <time>2020-08-04T07:27:38.449Z</time>
      </trkpt>
      <trkpt lat="63.11186" lon="7.8705">
        <ele>50.628876</ele>
        <time>2020-08-04T07:27:50.450Z</time>
      </trkpt>
      <trkpt lat="63.11241" lon="7.8736">
        <ele>43.41087</ele>
        <time>2020-08-04T07:32:41.436Z</time>
      </trkpt>
      <trkpt lat="63.11257" lon="7.87407">
        <ele>42.199033</ele>
        <time>2020-08-04T07:32:42.433Z</time>
      </trkpt>
      <trkpt lat="63.11276" lon="7.87448">
        <ele>41.025348</ele>
        <time>2020-08-04T07:32:44.441Z</time>
      </trkpt>
      <trkpt lat="63.11292" lon="7.8748">
        <ele>40.463068</ele>
        <time>2020-08-04T07:32:47.435Z</time>
      </trkpt>
      <trkpt lat="63.11306" lon="7.8751">
        <ele>40.536742</ele>
        <time>2020-08-04T07:32:51.425Z</time>
      </trkpt>
      <trkpt lat="63.1254" lon="7.89657">
        <ele>39.630981</ele>
        <time>2020-08-04T07:38:26.523Z</time>
      </trkpt>
      <trkpt lat="63.12555" lon="7.89669">
        <ele>39.014499</ele>
        <time>2020-08-04T07:38:28.604Z</time>
      </trkpt>
      <trkpt lat="63.12579" lon="7.89653">
        <ele>37.332982</ele>
        <time>2020-08-04T07:38:29.599Z</time>
      </trkpt>
      <trkpt lat="63.1259" lon="7.89673">
        <ele>36.375034</ele>
        <time>2020-08-04T07:38:31.633Z</time>
      </trkpt>
      <trkpt lat="63.126" lon="7.89694">
        <ele>35.36888</ele>
        <time>2020-08-04T07:38:33.601Z</time>
      </trkpt>
      <trkpt lat="63.1261" lon="7.89714">
        <ele>34.376733</ele>
        <time>2020-08-04T07:38:35.584Z</time>
      </trkpt>
      <trkpt lat="63.12622" lon="7.89732">
        <ele>33.381514</ele>
        <time>2020-08-04T07:38:37.568Z</time>
      </trkpt>
      <trkpt lat="63.12633" lon="7.89756">
        <ele>32.252063</ele>
        <time>2020-08-04T07:38:39.603Z</time>
      </trkpt>
      <trkpt lat="63.12647" lon="7.89776">
        <ele>31.069033</ele>
        <time>2020-08-04T07:38:41.568Z</time>
      </trkpt>
      <trkpt lat="63.12661" lon="7.89797">
        <ele>29.850195</ele>
        <time>2020-08-04T07:38:43.586Z</time>
      </trkpt>
      <trkpt lat="63.12669" lon="7.8981">
        <ele>29.171093</ele>
        <time>2020-08-04T07:38:44.607Z</time>
      </trkpt>
      <trkpt lat="63.12677" lon="7.89822">
        <ele>28.514893</ele>
        <time>2020-08-04T07:38:45.585Z</time>
      </trkpt>
      <trkpt lat="63.12684" lon="7.89834">
        <ele>27.835792</ele>
        <time>2020-08-04T07:38:46.614Z</time>
      </trkpt>
      <trkpt lat="63.12692" lon="7.89846">
        <ele>27.192406</ele>
        <time>2020-08-04T07:38:47.599Z</time>
      </trkpt>
      <trkpt lat="63.12706" lon="7.89862">
        <ele>26.063064</ele>
        <time>2020-08-04T07:38:49.627Z</time>
      </trkpt>
      <trkpt lat="63.1272" lon="7.8988">
        <ele>27.030729</ele>
        <time>2020-08-04T07:38:51.587Z</time>
      </trkpt>
      <trkpt lat="63.12731" lon="7.89896">
        <ele>27.985167</ele>
        <time>2020-08-04T07:38:53.577Z</time>
      </trkpt>
      <trkpt lat="63.12741" lon="7.89915">
        <ele>28.856394</ele>
        <time>2020-08-04T07:38:55.614Z</time>
      </trkpt>
      <trkpt lat="63.12753" lon="7.89934">
        <ele>29.856385</ele>
        <time>2020-08-04T07:38:57.606Z</time>
      </trkpt>
      <trkpt lat="63.12761" lon="7.89946">
        <ele>30.55034</ele>
        <time>2020-08-04T07:38:59.596Z</time>
      </trkpt>
      <trkpt lat="63.1277" lon="7.89964">
        <ele>31.368291</ele>
        <time>2020-08-04T07:39:01.605Z</time>
      </trkpt>
      <trkpt lat="63.12778" lon="7.89981">
        <ele>32.153084</ele>
        <time>2020-08-04T07:39:03.608Z</time>
      </trkpt>
      <trkpt lat="63.12788" lon="7.89996">
        <ele>32.9697</ele>
        <time>2020-08-04T07:39:05.590Z</time>
      </trkpt>
      <trkpt lat="63.12798" lon="7.9001">
        <ele>33.790302</ele>
        <time>2020-08-04T07:39:07.614Z</time>
      </trkpt>
      <trkpt lat="63.12808" lon="7.90025">
        <ele>34.595579</ele>
        <time>2020-08-04T07:39:09.620Z</time>
      </trkpt>
      <trkpt lat="63.12817" lon="7.90039">
        <ele>35.373415</ele>
        <time>2020-08-04T07:39:11.605Z</time>
      </trkpt>
      <trkpt lat="63.12826" lon="7.90053">
        <ele>36.123152</ele>
        <time>2020-08-04T07:39:13.616Z</time>
      </trkpt>
      <trkpt lat="63.12835" lon="7.90067">
        <ele>36.851338</ele>
        <time>2020-08-04T07:39:15.594Z</time>
      </trkpt>
      <trkpt lat="63.12844" lon="7.90078">
        <ele>37.585616</ele>
        <time>2020-08-04T07:39:17.605Z</time>
      </trkpt>
      <trkpt lat="63.12853" lon="7.90093">
        <ele>38.297125</ele>
        <time>2020-08-04T07:39:19.567Z</time>
      </trkpt>
      <trkpt lat="63.12861" lon="7.90108">
        <ele>38.000272</ele>
        <time>2020-08-04T07:39:21.591Z</time>
      </trkpt>
      <trkpt lat="63.12869" lon="7.90123">
        <ele>37.687839</ele>
        <time>2020-08-04T07:39:23.616Z</time>
      </trkpt>
      <trkpt lat="63.12877" lon="7.90138">
        <ele>37.374184</ele>
        <time>2020-08-04T07:39:25.608Z</time>
      </trkpt>
      <trkpt lat="63.12885" lon="7.90154">
        <ele>37.047528</ele>
        <time>2020-08-04T07:39:27.610Z</time>
      </trkpt>
      <trkpt lat="63.12894" lon="7.90169">
        <ele>36.719638</ele>
        <time>2020-08-04T07:39:29.605Z</time>
      </trkpt>
      <trkpt lat="63.12903" lon="7.90185">
        <ele>36.385015</ele>
        <time>2020-08-04T07:39:31.615Z</time>
      </trkpt>
      <trkpt lat="63.12912" lon="7.90199">
        <ele>36.060474</ele>
        <time>2020-08-04T07:39:33.612Z</time>
      </trkpt>
      <trkpt lat="63.1292" lon="7.90215">
        <ele>35.737087</ele>
        <time>2020-08-04T07:39:35.602Z</time>
      </trkpt>
      <trkpt lat="63.12928" lon="7.9023">
        <ele>35.421956</ele>
        <time>2020-08-04T07:39:37.619Z</time>
      </trkpt>
      <trkpt lat="63.12937" lon="7.90245">
        <ele>35.103509</ele>
        <time>2020-08-04T07:39:39.584Z</time>
      </trkpt>
      <trkpt lat="63.12946" lon="7.90261">
        <ele>34.742471</ele>
        <time>2020-08-04T07:39:41.606Z</time>
      </trkpt>
      <trkpt lat="63.12956" lon="7.90275">
        <ele>34.394713</ele>
        <time>2020-08-04T07:39:43.606Z</time>
      </trkpt>
      <trkpt lat="63.12965" lon="7.9029">
        <ele>34.062921</ele>
        <time>2020-08-04T07:39:45.585Z</time>
      </trkpt>
      <trkpt lat="63.12974" lon="7.90303">
        <ele>33.748217</ele>
        <time>2020-08-04T07:39:47.586Z</time>
      </trkpt>
      <trkpt lat="63.12983" lon="7.90316">
        <ele>33.419457</ele>
        <time>2020-08-04T07:39:49.661Z</time>
      </trkpt>
      <trkpt lat="63.12992" lon="7.9033">
        <ele>33.101959</ele>
        <time>2020-08-04T07:39:51.612Z</time>
      </trkpt>
      <trkpt lat="63.13001" lon="7.90343">
        <ele>33.004869</ele>
        <time>2020-08-04T07:39:53.595Z</time>
      </trkpt>
      <trkpt lat="63.13011" lon="7.90356">
        <ele>33.027048</ele>
        <time>2020-08-04T07:39:55.600Z</time>
      </trkpt>
      <trkpt lat="63.13021" lon="7.9037">
        <ele>33.050205</ele>
        <time>2020-08-04T07:39:57.590Z</time>
      </trkpt>
      <trkpt lat="63.13029" lon="7.90383">
        <ele>33.071037</ele>
        <time>2020-08-04T07:39:59.597Z</time>
      </trkpt>
      <trkpt lat="63.13039" lon="7.90395">
        <ele>33.09404</ele>
        <time>2020-08-04T07:40:01.603Z</time>
      </trkpt>
      <trkpt lat="63.13048" lon="7.90408">
        <ele>33.115556</ele>
        <time>2020-08-04T07:40:03.597Z</time>
      </trkpt>
      <trkpt lat="63.13057" lon="7.90422">
        <ele>33.136217</ele>
        <time>2020-08-04T07:40:05.612Z</time>
      </trkpt>
      <trkpt lat="63.13064" lon="7.90435">
        <ele>33.155384</ele>
        <time>2020-08-04T07:40:07.600Z</time>
      </trkpt>
      <trkpt lat="63.13072" lon="7.90449">
        <ele>33.17571</ele>
        <time>2020-08-04T07:40:09.606Z</time>
      </trkpt>
      <trkpt lat="63.1308" lon="7.90463">
        <ele>33.195998</ele>
        <time>2020-08-04T07:40:11.598Z</time>
      </trkpt>
      <trkpt lat="63.13089" lon="7.90475">
        <ele>33.217539</ele>
        <time>2020-08-04T07:40:13.624Z</time>
      </trkpt>
      <trkpt lat="63.13098" lon="7.90489">
        <ele>33.238416</ele>
        <time>2020-08-04T07:40:15.601Z</time>
      </trkpt>
      <trkpt lat="63.13107" lon="7.905">
        <ele>33.258946</ele>
        <time>2020-08-04T07:40:17.618Z</time>
      </trkpt>
      <trkpt lat="63.13116" lon="7.90512">
        <ele>33.279505</ele>
        <time>2020-08-04T07:40:19.609Z</time>
      </trkpt>
      <trkpt lat="63.13124" lon="7.90524">
        <ele>33.300301</ele>
        <time>2020-08-04T07:40:21.597Z</time>
      </trkpt>
      <trkpt lat="63.13134" lon="7.90537">
        <ele>33.322106</ele>
        <time>2020-08-04T07:40:24.582Z</time>
      </trkpt>
      <trkpt lat="63.13143" lon="7.90549">
        <ele>33.3438</ele>
        <time>2020-08-04T07:40:26.619Z</time>
      </trkpt>
      <trkpt lat="63.13152" lon="7.9056">
        <ele>33.779279</ele>
        <time>2020-08-04T07:40:28.610Z</time>
      </trkpt>
      <trkpt lat="63.13161" lon="7.90572">
        <ele>34.347254</ele>
        <time>2020-08-04T07:40:30.590Z</time>
      </trkpt>
      <trkpt lat="63.13169" lon="7.90585">
        <ele>34.912695</ele>
        <time>2020-08-04T07:40:32.604Z</time>
      </trkpt>
      <trkpt lat="63.13177" lon="7.90599">
        <ele>35.518197</ele>
        <time>2020-08-04T07:40:34.632Z</time>
      </trkpt>
      <trkpt lat="63.13186" lon="7.90611">
        <ele>36.120148</ele>
        <time>2020-08-04T07:40:37.609Z</time>
      </trkpt>
      <trkpt lat="63.13196" lon="7.90624">
        <ele>36.782304</ele>
        <time>2020-08-04T07:40:39.595Z</time>
      </trkpt>
      <trkpt lat="63.13207" lon="7.90635">
        <ele>37.468378</ele>
        <time>2020-08-04T07:40:41.598Z</time>
      </trkpt>
      <trkpt lat="63.13217" lon="7.90648">
        <ele>38.175828</ele>
        <time>2020-08-04T07:40:43.591Z</time>
      </trkpt>
      <trkpt lat="63.13228" lon="7.9066">
        <ele>38.864734</ele>
        <time>2020-08-04T07:40:45.610Z</time>
      </trkpt>
      <trkpt lat="63.13238" lon="7.90672">
        <ele>39.505492</ele>
        <time>2020-08-04T07:40:47.613Z</time>
      </trkpt>
      <trkpt lat="63.13248" lon="7.9068">
        <ele>40.132388</ele>
        <time>2020-08-04T07:40:49.582Z</time>
      </trkpt>
      <trkpt lat="63.13259" lon="7.90691">
        <ele>40.819351</ele>
        <time>2020-08-04T07:40:51.592Z</time>
      </trkpt>
      <trkpt lat="63.1327" lon="7.90702">
        <ele>41.495663</ele>
        <time>2020-08-04T07:40:53.591Z</time>
      </trkpt>
      <trkpt lat="63.13281" lon="7.90712">
        <ele>42.183928</ele>
        <time>2020-08-04T07:40:55.616Z</time>
      </trkpt>
      <trkpt lat="63.1329" lon="7.90723">
        <ele>42.801805</ele>
        <time>2020-08-04T07:40:57.629Z</time>
      </trkpt>
      <trkpt lat="63.133" lon="7.90734">
        <ele>43.442724</ele>
        <time>2020-08-04T07:40:59.602Z</time>
      </trkpt>
      <trkpt lat="63.1331" lon="7.90745">
        <ele>43.668432</ele>
        <time>2020-08-04T07:41:02.619Z</time>
      </trkpt>
      <trkpt lat="63.13321" lon="7.90756">
        <ele>43.650791</ele>
        <time>2020-08-04T07:41:04.605Z</time>
      </trkpt>
      <trkpt lat="63.13331" lon="7.90766">
        <ele>43.63376</ele>
        <time>2020-08-04T07:41:06.617Z</time>
      </trkpt>
      <trkpt lat="63.13342" lon="7.90775">
        <ele>43.616753</ele>
        <time>2020-08-04T07:41:08.583Z</time>
      </trkpt>
      <trkpt lat="63.13352" lon="7.90782">
        <ele>43.600256</ele>
        <time>2020-08-04T07:41:10.604Z</time>
      </trkpt>
      <trkpt lat="63.13363" lon="7.9079">
        <ele>43.583167</ele>
        <time>2020-08-04T07:41:12.628Z</time>
      </trkpt>
      <trkpt lat="63.13373" lon="7.90799">
        <ele>43.566648</ele>
        <time>2020-08-04T07:41:14.606Z</time>
      </trkpt>
      <trkpt lat="63.13384" lon="7.90809">
        <ele>43.549115</ele>
        <time>2020-08-04T07:41:17.619Z</time>
      </trkpt>
      <trkpt lat="63.13395" lon="7.90819">
        <ele>43.531369</ele>
        <time>2020-08-04T07:41:19.607Z</time>
      </trkpt>
      <trkpt lat="63.13406" lon="7.90831">
        <ele>43.512874</ele>
        <time>2020-08-04T07:41:21.594Z</time>
      </trkpt>
      <trkpt lat="63.13416" lon="7.90841">
        <ele>43.495899</ele>
        <time>2020-08-04T07:41:23.597Z</time>
      </trkpt>
      <trkpt lat="63.13427" lon="7.9085">
        <ele>43.478539</ele>
        <time>2020-08-04T07:41:25.590Z</time>
      </trkpt>
      <trkpt lat="63.13438" lon="7.90859">
        <ele>43.461438</ele>
        <time>2020-08-04T07:41:27.617Z</time>
      </trkpt>
      <trkpt lat="63.13449" lon="7.90869">
        <ele>43.443105</ele>
        <time>2020-08-04T07:41:29.632Z</time>
      </trkpt>
      <trkpt lat="63.13461" lon="7.90878">
        <ele>43.423639</ele>
        <time>2020-08-04T07:41:31.604Z</time>
      </trkpt>
      <trkpt lat="63.13475" lon="7.90889">
        <ele>43.511269</ele>
        <time>2020-08-04T07:41:33.596Z</time>
      </trkpt>
      <trkpt lat="63.13485" lon="7.90899">
        <ele>43.820893</ele>
        <time>2020-08-04T07:41:35.596Z</time>
      </trkpt>
      <trkpt lat="63.13496" lon="7.9091">
        <ele>44.141099</ele>
        <time>2020-08-04T07:41:37.626Z</time>
      </trkpt>
      <trkpt lat="63.13509" lon="7.90921">
        <ele>44.485573</ele>
        <time>2020-08-04T07:41:39.592Z</time>
      </trkpt>
      <trkpt lat="63.1352" lon="7.90931">
        <ele>44.813147</ele>
        <time>2020-08-04T07:41:41.613Z</time>
      </trkpt>
      <trkpt lat="63.13531" lon="7.9094">
        <ele>45.133929</ele>
        <time>2020-08-04T07:41:43.594Z</time>
      </trkpt>
      <trkpt lat="63.13543" lon="7.90951">
        <ele>45.463335</ele>
        <time>2020-08-04T07:41:45.640Z</time>
      </trkpt>
      <trkpt lat="63.13554" lon="7.9096">
        <ele>45.764326</ele>
        <time>2020-08-04T07:41:47.588Z</time>
      </trkpt>
      <trkpt lat="63.13565" lon="7.9097">
        <ele>46.083059</ele>
        <time>2020-08-04T07:41:49.612Z</time>
      </trkpt>
      <trkpt lat="63.13576" lon="7.90979">
        <ele>46.402208</ele>
        <time>2020-08-04T07:41:51.607Z</time>
      </trkpt>
      <trkpt lat="63.13586" lon="7.90985">
        <ele>46.670966</ele>
        <time>2020-08-04T07:41:53.615Z</time>
      </trkpt>
      <trkpt lat="63.13596" lon="7.90992">
        <ele>46.942866</ele>
        <time>2020-08-04T07:41:55.608Z</time>
      </trkpt>
      <trkpt lat="63.13609" lon="7.91003">
        <ele>47.316056</ele>
        <time>2020-08-04T07:41:57.611Z</time>
      </trkpt>
      <trkpt lat="63.13621" lon="7.91014">
        <ele>47.659196</ele>
        <time>2020-08-04T07:41:59.613Z</time>
      </trkpt>
      <trkpt lat="63.13632" lon="7.91022">
        <ele>47.963533</ele>
        <time>2020-08-04T07:42:01.597Z</time>
      </trkpt>
      <trkpt lat="63.13642" lon="7.91029">
        <ele>48.405983</ele>
        <time>2020-08-04T07:42:03.614Z</time>
      </trkpt>
      <trkpt lat="63.13652" lon="7.91044">
        <ele>49.363812</ele>
        <time>2020-08-04T07:42:06.588Z</time>
      </trkpt>
      <trkpt lat="63.13666" lon="7.91055">
        <ele>50.526103</ele>
        <time>2020-08-04T07:42:09.623Z</time>
      </trkpt>
      <trkpt lat="63.13678" lon="7.91061">
        <ele>51.485557</ele>
        <time>2020-08-04T07:42:11.590Z</time>
      </trkpt>
      <trkpt lat="63.13688" lon="7.91071">
        <ele>52.295688</ele>
        <time>2020-08-04T07:42:13.586Z</time>
      </trkpt>
      <trkpt lat="63.13697" lon="7.91079">
        <ele>53.071946</ele>
        <time>2020-08-04T07:42:15.599Z</time>
      </trkpt>
      <trkpt lat="63.13707" lon="7.91087">
        <ele>53.936053</ele>
        <time>2020-08-04T07:42:17.590Z</time>
      </trkpt>
      <trkpt lat="63.13719" lon="7.91093">
        <ele>54.849051</ele>
        <time>2020-08-04T07:42:19.603Z</time>
      </trkpt>
      <trkpt lat="63.13729" lon="7.911">
        <ele>55.68577</ele>
        <time>2020-08-04T07:42:21.602Z</time>
      </trkpt>
      <trkpt lat="63.13738" lon="7.91106">
        <ele>56.456863</ele>
        <time>2020-08-04T07:42:23.597Z</time>
      </trkpt>
      <trkpt lat="63.13749" lon="7.91114">
        <ele>57.317398</ele>
        <time>2020-08-04T07:42:25.588Z</time>
      </trkpt>
      <trkpt lat="63.13759" lon="7.91123">
        <ele>58.141548</ele>
        <time>2020-08-04T07:42:27.600Z</time>
      </trkpt>
      <trkpt lat="63.13769" lon="7.91131">
        <ele>58.989782</ele>
        <time>2020-08-04T07:42:29.576Z</time>
      </trkpt>
      <trkpt lat="63.13781" lon="7.9114">
        <ele>59.982796</ele>
        <time>2020-08-04T07:42:31.588Z</time>
      </trkpt>
      <trkpt lat="63.13791" lon="7.91148">
        <ele>60.795662</ele>
        <time>2020-08-04T07:42:33.590Z</time>
      </trkpt>
      <trkpt lat="63.13801" lon="7.91156">
        <ele>61.637808</ele>
        <time>2020-08-04T07:42:35.601Z</time>
      </trkpt>
      <trkpt lat="63.13809" lon="7.91164">
        <ele>62.070284</ele>
        <time>2020-08-04T07:42:37.604Z</time>
      </trkpt>
      <trkpt lat="63.1382" lon="7.91171">
        <ele>61.470152</ele>
        <time>2020-08-04T07:42:39.588Z</time>
      </trkpt>
      <trkpt lat="63.13831" lon="7.9118">
        <ele>60.843248</ele>
        <time>2020-08-04T07:42:41.588Z</time>
      </trkpt>
      <trkpt lat="63.13841" lon="7.91188">
        <ele>60.230037</ele>
        <time>2020-08-04T07:42:43.604Z</time>
      </trkpt>
      <trkpt lat="63.13852" lon="7.91198">
        <ele>59.598795</ele>
        <time>2020-08-04T07:42:45.601Z</time>
      </trkpt>
      <trkpt lat="63.13863" lon="7.91207">
        <ele>58.97793</ele>
        <time>2020-08-04T07:42:47.582Z</time>
      </trkpt>
      <trkpt lat="63.13874" lon="7.91216">
        <ele>58.344299</ele>
        <time>2020-08-04T07:42:49.595Z</time>
      </trkpt>
      <trkpt lat="63.13884" lon="7.91225">
        <ele>57.769147</ele>
        <time>2020-08-04T07:42:51.594Z</time>
      </trkpt>
      <trkpt lat="63.13894" lon="7.91235">
        <ele>57.158044</ele>
        <time>2020-08-04T07:42:53.603Z</time>
      </trkpt>
      <trkpt lat="63.13904" lon="7.91244">
        <ele>56.558357</ele>
        <time>2020-08-04T07:42:55.601Z</time>
      </trkpt>
      <trkpt lat="63.13913" lon="7.91254">
        <ele>56.022452</ele>
        <time>2020-08-04T07:42:57.604Z</time>
      </trkpt>
      <trkpt lat="63.13921" lon="7.91263">
        <ele>55.531635</ele>
        <time>2020-08-04T07:42:59.620Z</time>
      </trkpt>
      <trkpt lat="63.13931" lon="7.91273">
        <ele>54.945494</ele>
        <time>2020-08-04T07:43:01.638Z</time>
      </trkpt>
      <trkpt lat="63.13941" lon="7.91282">
        <ele>54.346306</ele>
        <time>2020-08-04T07:43:03.603Z</time>
      </trkpt>
      <trkpt lat="63.13949" lon="7.91292">
        <ele>53.848067</ele>
        <time>2020-08-04T07:43:05.641Z</time>
      </trkpt>
      <trkpt lat="63.13957" lon="7.91301">
        <ele>53.357251</ele>
        <time>2020-08-04T07:43:07.604Z</time>
      </trkpt>
      <trkpt lat="63.1397" lon="7.91313">
        <ele>52.577135</ele>
        <time>2020-08-04T07:43:10.601Z</time>
      </trkpt>
      <trkpt lat="63.13981" lon="7.91319">
        <ele>52.564013</ele>
        <time>2020-08-04T07:43:12.585Z</time>
      </trkpt>
      <trkpt lat="63.13993" lon="7.91327">
        <ele>52.766188</ele>
        <time>2020-08-04T07:43:14.591Z</time>
      </trkpt>
      <trkpt lat="63.14004" lon="7.91336">
        <ele>52.97049</ele>
        <time>2020-08-04T07:43:16.585Z</time>
      </trkpt>
      <trkpt lat="63.14015" lon="7.91344">
        <ele>53.174422</ele>
        <time>2020-08-04T07:43:18.608Z</time>
      </trkpt>
      <trkpt lat="63.14026" lon="7.9135">
        <ele>53.364145</ele>
        <time>2020-08-04T07:43:20.590Z</time>
      </trkpt>
      <trkpt lat="63.14036" lon="7.91358">
        <ele>53.540915</ele>
        <time>2020-08-04T07:43:22.612Z</time>
      </trkpt>
      <trkpt lat="63.14046" lon="7.91364">
        <ele>53.72684</ele>
        <time>2020-08-04T07:43:24.589Z</time>
      </trkpt>
      <trkpt lat="63.14056" lon="7.91371">
        <ele>53.895554</ele>
        <time>2020-08-04T07:43:26.643Z</time>
      </trkpt>
      <trkpt lat="63.14065" lon="7.91378">
        <ele>54.070429</ele>
        <time>2020-08-04T07:43:28.600Z</time>
      </trkpt>
      <trkpt lat="63.14075" lon="7.91386">
        <ele>54.244485</ele>
        <time>2020-08-04T07:43:30.591Z</time>
      </trkpt>
      <trkpt lat="63.14085" lon="7.91396">
        <ele>54.430907</ele>
        <time>2020-08-04T07:43:32.601Z</time>
      </trkpt>
      <trkpt lat="63.14094" lon="7.91404">
        <ele>54.605265</ele>
        <time>2020-08-04T07:43:34.614Z</time>
      </trkpt>
      <trkpt lat="63.14105" lon="7.91412">
        <ele>54.799446</ele>
        <time>2020-08-04T07:43:36.613Z</time>
      </trkpt>
      <trkpt lat="63.14117" lon="7.91421">
        <ele>55.01413</ele>
        <time>2020-08-04T07:43:38.596Z</time>
      </trkpt>
      <trkpt lat="63.14127" lon="7.91431">
        <ele>55.199907</ele>
        <time>2020-08-04T07:43:40.611Z</time>
      </trkpt>
      <trkpt lat="63.14137" lon="7.91441">
        <ele>55.388858</ele>
        <time>2020-08-04T07:43:42.597Z</time>
      </trkpt>
      <trkpt lat="63.14146" lon="7.91451">
        <ele>55.5115</ele>
        <time>2020-08-04T07:43:44.589Z</time>
      </trkpt>
      <trkpt lat="63.14156" lon="7.91459">
        <ele>55.560908</ele>
        <time>2020-08-04T07:43:46.607Z</time>
      </trkpt>
      <trkpt lat="63.14165" lon="7.91468">
        <ele>55.605551</ele>
        <time>2020-08-04T07:43:48.618Z</time>
      </trkpt>
      <trkpt lat="63.14173" lon="7.91477">
        <ele>55.651095</ele>
        <time>2020-08-04T07:43:50.681Z</time>
      </trkpt>
      <trkpt lat="63.14183" lon="7.91486">
        <ele>55.702021</ele>
        <time>2020-08-04T07:43:52.625Z</time>
      </trkpt>
      <trkpt lat="63.14193" lon="7.91494">
        <ele>55.752916</ele>
        <time>2020-08-04T07:43:54.608Z</time>
      </trkpt>
      <trkpt lat="63.14203" lon="7.91504">
        <ele>55.805305</ele>
        <time>2020-08-04T07:43:56.638Z</time>
      </trkpt>
      <trkpt lat="63.14214" lon="7.91512">
        <ele>55.860084</ele>
        <time>2020-08-04T07:43:58.596Z</time>
      </trkpt>
      <trkpt lat="63.14226" lon="7.91521">
        <ele>55.921594</ele>
        <time>2020-08-04T07:44:00.625Z</time>
      </trkpt>
      <trkpt lat="63.14238" lon="7.91531">
        <ele>55.980522</ele>
        <time>2020-08-04T07:44:02.592Z</time>
      </trkpt>
      <trkpt lat="63.1425" lon="7.9154">
        <ele>56.041542</ele>
        <time>2020-08-04T07:44:04.599Z</time>
      </trkpt>
      <trkpt lat="63.14262" lon="7.91549">
        <ele>56.101592</ele>
        <time>2020-08-04T07:44:06.605Z</time>
      </trkpt>
      <trkpt lat="63.14273" lon="7.91557">
        <ele>56.158044</ele>
        <time>2020-08-04T07:44:08.603Z</time>
      </trkpt>
      <trkpt lat="63.14286" lon="7.91567">
        <ele>56.220412</ele>
        <time>2020-08-04T07:44:10.604Z</time>
      </trkpt>
      <trkpt lat="63.14298" lon="7.91577">
        <ele>56.282096</ele>
        <time>2020-08-04T07:44:12.660Z</time>
      </trkpt>
      <trkpt lat="63.14311" lon="7.91579">
        <ele>56.343321</ele>
        <time>2020-08-04T07:44:14.595Z</time>
      </trkpt>
      <trkpt lat="63.14322" lon="7.91587">
        <ele>56.370603</ele>
        <time>2020-08-04T07:44:16.620Z</time>
      </trkpt>
      <trkpt lat="63.14332" lon="7.91593">
        <ele>56.394932</ele>
        <time>2020-08-04T07:44:18.598Z</time>
      </trkpt>
      <trkpt lat="63.14343" lon="7.91598">
        <ele>56.418467</ele>
        <time>2020-08-04T07:44:20.592Z</time>
      </trkpt>
      <trkpt lat="63.14353" lon="7.91604">
        <ele>56.442696</ele>
        <time>2020-08-04T07:44:22.614Z</time>
      </trkpt>
      <trkpt lat="63.14363" lon="7.91612">
        <ele>56.4664</ele>
        <time>2020-08-04T07:44:24.616Z</time>
      </trkpt>
      <trkpt lat="63.14373" lon="7.91619">
        <ele>56.489765</ele>
        <time>2020-08-04T07:44:26.623Z</time>
      </trkpt>
      <trkpt lat="63.14383" lon="7.91626">
        <ele>56.513191</ele>
        <time>2020-08-04T07:44:28.601Z</time>
      </trkpt>
      <trkpt lat="63.14393" lon="7.91634">
        <ele>56.536785</ele>
        <time>2020-08-04T07:44:30.606Z</time>
      </trkpt>
      <trkpt lat="63.14404" lon="7.91642">
        <ele>56.56133</ele>
        <time>2020-08-04T07:44:32.593Z</time>
      </trkpt>
      <trkpt lat="63.14415" lon="7.9165">
        <ele>56.586416</ele>
        <time>2020-08-04T07:44:34.679Z</time>
      </trkpt>
      <trkpt lat="63.14425" lon="7.9166">
        <ele>56.612023</ele>
        <time>2020-08-04T07:44:36.592Z</time>
      </trkpt>
      <trkpt lat="63.14436" lon="7.91669">
        <ele>56.638329</ele>
        <time>2020-08-04T07:44:38.604Z</time>
      </trkpt>
      <trkpt lat="63.14447" lon="7.91676">
        <ele>56.663144</ele>
        <time>2020-08-04T07:44:40.616Z</time>
      </trkpt>
      <trkpt lat="63.14458" lon="7.91684">
        <ele>56.688626</ele>
        <time>2020-08-04T07:44:42.598Z</time>
      </trkpt>
      <trkpt lat="63.1447" lon="7.91692">
        <ele>56.71635</ele>
        <time>2020-08-04T07:44:44.601Z</time>
      </trkpt>
      <trkpt lat="63.14481" lon="7.917">
        <ele>56.742948</ele>
        <time>2020-08-04T07:44:46.617Z</time>
      </trkpt>
      <trkpt lat="63.14493" lon="7.91708">
        <ele>56.353038</ele>
        <time>2020-08-04T07:44:48.602Z</time>
      </trkpt>
      <trkpt lat="63.14503" lon="7.91716">
        <ele>55.928005</ele>
        <time>2020-08-04T07:44:50.608Z</time>
      </trkpt>
      <trkpt lat="63.14513" lon="7.91725">
        <ele>55.515424</ele>
        <time>2020-08-04T07:44:52.614Z</time>
      </trkpt>
      <trkpt lat="63.14523" lon="7.91734">
        <ele>55.109039</ele>
        <time>2020-08-04T07:44:54.608Z</time>
      </trkpt>
      <trkpt lat="63.14534" lon="7.91744">
        <ele>54.679181</ele>
        <time>2020-08-04T07:44:56.672Z</time>
      </trkpt>
      <trkpt lat="63.14544" lon="7.91752">
        <ele>54.255165</ele>
        <time>2020-08-04T07:44:58.612Z</time>
      </trkpt>
      <trkpt lat="63.14555" lon="7.91761">
        <ele>53.821831</ele>
        <time>2020-08-04T07:45:00.612Z</time>
      </trkpt>
      <trkpt lat="63.14565" lon="7.91771">
        <ele>53.416176</ele>
        <time>2020-08-04T07:45:02.632Z</time>
      </trkpt>
      <trkpt lat="63.14575" lon="7.91778">
        <ele>53.004084</ele>
        <time>2020-08-04T07:45:04.640Z</time>
      </trkpt>
      <trkpt lat="63.14586" lon="7.91785">
        <ele>52.570178</ele>
        <time>2020-08-04T07:45:06.611Z</time>
      </trkpt>
      <trkpt lat="63.14597" lon="7.91792">
        <ele>52.149328</ele>
        <time>2020-08-04T07:45:08.589Z</time>
      </trkpt>
      <trkpt lat="63.14607" lon="7.918">
        <ele>51.716481</ele>
        <time>2020-08-04T07:45:10.615Z</time>
      </trkpt>
      <trkpt lat="63.14619" lon="7.91807">
        <ele>51.266942</ele>
        <time>2020-08-04T07:45:12.574Z</time>
      </trkpt>
      <trkpt lat="63.14631" lon="7.91812">
        <ele>50.815198</ele>
        <time>2020-08-04T07:45:14.576Z</time>
      </trkpt>
      <trkpt lat="63.14641" lon="7.91816">
        <ele>50.400965</ele>
        <time>2020-08-04T07:45:16.585Z</time>
      </trkpt>
      <trkpt lat="63.14652" lon="7.91822">
        <ele>49.980835</ele>
        <time>2020-08-04T07:45:18.584Z</time>
      </trkpt>
      <trkpt lat="63.14663" lon="7.91827">
        <ele>49.386807</ele>
        <time>2020-08-04T07:45:20.595Z</time>
      </trkpt>
      <trkpt lat="63.14673" lon="7.91835">
        <ele>48.826222</ele>
        <time>2020-08-04T07:45:22.602Z</time>
      </trkpt>
      <trkpt lat="63.14683" lon="7.91842">
        <ele>48.265638</ele>
        <time>2020-08-04T07:45:25.598Z</time>
      </trkpt>
      <trkpt lat="63.14694" lon="7.9185">
        <ele>47.675698</ele>
        <time>2020-08-04T07:45:27.563Z</time>
      </trkpt>
      <trkpt lat="63.14705" lon="7.91857">
        <ele>47.082162</ele>
        <time>2020-08-04T07:45:29.588Z</time>
      </trkpt>
      <trkpt lat="63.14715" lon="7.91866">
        <ele>46.482643</ele>
        <time>2020-08-04T07:45:31.623Z</time>
      </trkpt>
      <trkpt lat="63.14725" lon="7.91874">
        <ele>45.922981</ele>
        <time>2020-08-04T07:45:33.588Z</time>
      </trkpt>
      <trkpt lat="63.14735" lon="7.91881">
        <ele>45.374154</ele>
        <time>2020-08-04T07:45:35.588Z</time>
      </trkpt>
      <trkpt lat="63.14745" lon="7.91889">
        <ele>44.797938</ele>
        <time>2020-08-04T07:45:37.590Z</time>
      </trkpt>
      <trkpt lat="63.14756" lon="7.91897">
        <ele>44.201016</ele>
        <time>2020-08-04T07:45:39.587Z</time>
      </trkpt>
      <trkpt lat="63.14766" lon="7.91907">
        <ele>43.612048</ele>
        <time>2020-08-04T07:45:41.582Z</time>
      </trkpt>
      <trkpt lat="63.14775" lon="7.91918">
        <ele>43.065401</ele>
        <time>2020-08-04T07:45:43.575Z</time>
      </trkpt>
      <trkpt lat="63.14785" lon="7.9193">
        <ele>42.475879</ele>
        <time>2020-08-04T07:45:45.595Z</time>
      </trkpt>
      <trkpt lat="63.14795" lon="7.91941">
        <ele>41.899124</ele>
        <time>2020-08-04T07:45:47.614Z</time>
      </trkpt>
      <trkpt lat="63.14804" lon="7.91957">
        <ele>41.305432</ele>
        <time>2020-08-04T07:45:49.591Z</time>
      </trkpt>
      <trkpt lat="63.14814" lon="7.9197">
        <ele>40.667288</ele>
        <time>2020-08-04T07:45:51.588Z</time>
      </trkpt>
      <trkpt lat="63.14824" lon="7.91985">
        <ele>40.062499</ele>
        <time>2020-08-04T07:45:53.639Z</time>
      </trkpt>
      <trkpt lat="63.14833" lon="7.91999">
        <ele>39.492522</ele>
        <time>2020-08-04T07:45:55.595Z</time>
      </trkpt>
      <trkpt lat="63.14843" lon="7.92012">
        <ele>38.950443</ele>
        <time>2020-08-04T07:45:57.589Z</time>
      </trkpt>
      <trkpt lat="63.14852" lon="7.92026">
        <ele>38.411236</ele>
        <time>2020-08-04T07:45:59.624Z</time>
      </trkpt>
      <trkpt lat="63.14861" lon="7.92041">
        <ele>37.863325</ele>
        <time>2020-08-04T07:46:01.612Z</time>
      </trkpt>
      <trkpt lat="63.14874" lon="7.92065">
        <ele>37.025835</ele>
        <time>2020-08-04T07:46:04.598Z</time>
      </trkpt>
      <trkpt lat="63.14882" lon="7.92083">
        <ele>36.455476</ele>
        <time>2020-08-04T07:46:06.609Z</time>
      </trkpt>
      <trkpt lat="63.1489" lon="7.921">
        <ele>35.893296</ele>
        <time>2020-08-04T07:46:08.570Z</time>
      </trkpt>
      <trkpt lat="63.14898" lon="7.92118">
        <ele>35.342096</ele>
        <time>2020-08-04T07:46:10.592Z</time>
      </trkpt>
      <trkpt lat="63.14905" lon="7.92139">
        <ele>34.781307</ele>
        <time>2020-08-04T07:46:12.555Z</time>
      </trkpt>
      <trkpt lat="63.14911" lon="7.92159">
        <ele>34.225293</ele>
        <time>2020-08-04T07:46:14.610Z</time>
      </trkpt>
      <trkpt lat="63.14918" lon="7.9218">
        <ele>33.642519</ele>
        <time>2020-08-04T07:46:16.589Z</time>
      </trkpt>
      <trkpt lat="63.14925" lon="7.922">
        <ele>33.087728</ele>
        <time>2020-08-04T07:46:18.584Z</time>
      </trkpt>
      <trkpt lat="63.14931" lon="7.92221">
        <ele>32.53476</ele>
        <time>2020-08-04T07:46:20.597Z</time>
      </trkpt>
      <trkpt lat="63.14936" lon="7.92242">
        <ele>32.01713</ele>
        <time>2020-08-04T07:46:22.577Z</time>
      </trkpt>
      <trkpt lat="63.1494" lon="7.92261">
        <ele>31.538596</ele>
        <time>2020-08-04T07:46:24.592Z</time>
      </trkpt>
      <trkpt lat="63.14945" lon="7.92282">
        <ele>31.016268</ele>
        <time>2020-08-04T07:46:26.608Z</time>
      </trkpt>
      <trkpt lat="63.1495" lon="7.92304">
        <ele>30.436252</ele>
        <time>2020-08-04T07:46:28.566Z</time>
      </trkpt>
      <trkpt lat="63.14954" lon="7.92326">
        <ele>29.887953</ele>
        <time>2020-08-04T07:46:30.591Z</time>
      </trkpt>
      <trkpt lat="63.14958" lon="7.92348">
        <ele>29.349621</ele>
        <time>2020-08-04T07:46:32.611Z</time>
      </trkpt>
      <trkpt lat="63.14961" lon="7.92372">
        <ele>28.780967</ele>
        <time>2020-08-04T07:46:36.711Z</time>
      </trkpt>
      <trkpt lat="63.14965" lon="7.92396">
        <ele>28.204237</ele>
        <time>2020-08-04T07:46:37.445Z</time>
      </trkpt>
      <trkpt lat="63.14968" lon="7.92419">
        <ele>27.642119</ele>
        <time>2020-08-04T07:46:38.633Z</time>
      </trkpt>
      <trkpt lat="63.14972" lon="7.92443">
        <ele>27.075166</ele>
        <time>2020-08-04T07:46:40.588Z</time>
      </trkpt>
      <trkpt lat="63.14975" lon="7.92463">
        <ele>26.581795</ele>
        <time>2020-08-04T07:46:42.590Z</time>
      </trkpt>
      <trkpt lat="63.14978" lon="7.92484">
        <ele>26.087658</ele>
        <time>2020-08-04T07:46:44.593Z</time>
      </trkpt>
      <trkpt lat="63.14981" lon="7.92506">
        <ele>25.549909</ele>
        <time>2020-08-04T07:46:46.639Z</time>
      </trkpt>
      <trkpt lat="63.14983" lon="7.92527">
        <ele>25.063599</ele>
        <time>2020-08-04T07:46:48.609Z</time>
      </trkpt>
      <trkpt lat="63.14982" lon="7.9255">
        <ele>24.55126</ele>
        <time>2020-08-04T07:46:50.609Z</time>
      </trkpt>
      <trkpt lat="63.14985" lon="7.92572">
        <ele>24.014729</ele>
        <time>2020-08-04T07:46:52.592Z</time>
      </trkpt>
      <trkpt lat="63.14989" lon="7.92595">
        <ele>23.454685</ele>
        <time>2020-08-04T07:46:54.615Z</time>
      </trkpt>
      <trkpt lat="63.14992" lon="7.9262">
        <ele>22.866104</ele>
        <time>2020-08-04T07:46:56.624Z</time>
      </trkpt>
      <trkpt lat="63.14996" lon="7.92643">
        <ele>22.279185</ele>
        <time>2020-08-04T07:46:58.599Z</time>
      </trkpt>
      <trkpt lat="63.14999" lon="7.92665">
        <ele>21.568226</ele>
        <time>2020-08-04T07:47:00.607Z</time>
      </trkpt>
      <trkpt lat="63.15004" lon="7.92689">
        <ele>20.783793</ele>
        <time>2020-08-04T07:47:02.619Z</time>
      </trkpt>
      <trkpt lat="63.15008" lon="7.92714">
        <ele>19.983424</ele>
        <time>2020-08-04T07:47:04.615Z</time>
      </trkpt>
      <trkpt lat="63.15011" lon="7.92738">
        <ele>19.198524</ele>
        <time>2020-08-04T07:47:07.602Z</time>
      </trkpt>
      <trkpt lat="63.15014" lon="7.92762">
        <ele>18.436775</ele>
        <time>2020-08-04T07:47:09.598Z</time>
      </trkpt>
      <trkpt lat="63.15018" lon="7.92788">
        <ele>17.630558</ele>
        <time>2020-08-04T07:47:11.633Z</time>
      </trkpt>
      <trkpt lat="63.15022" lon="7.92811">
        <ele>16.884157</ele>
        <time>2020-08-04T07:47:13.628Z</time>
      </trkpt>
      <trkpt lat="63.15026" lon="7.92833">
        <ele>16.158031</ele>
        <time>2020-08-04T07:47:15.603Z</time>
      </trkpt>
      <trkpt lat="63.1503" lon="7.92857">
        <ele>15.409846</ele>
        <time>2020-08-04T07:47:17.609Z</time>
      </trkpt>
      <trkpt lat="63.15032" lon="7.92879">
        <ele>14.693089</ele>
        <time>2020-08-04T07:47:19.603Z</time>
      </trkpt>
      <trkpt lat="63.15035" lon="7.92901">
        <ele>14.006712</ele>
        <time>2020-08-04T07:47:21.597Z</time>
      </trkpt>
      <trkpt lat="63.15039" lon="7.92922">
        <ele>13.333344</ele>
        <time>2020-08-04T07:47:23.599Z</time>
      </trkpt>
      <trkpt lat="63.15042" lon="7.92946">
        <ele>12.5832</ele>
        <time>2020-08-04T07:47:26.614Z</time>
      </trkpt>
      <trkpt lat="63.15045" lon="7.92972">
        <ele>11.761248</ele>
        <time>2020-08-04T07:47:28.620Z</time>
      </trkpt>
      <trkpt lat="63.15048" lon="7.92997">
        <ele>10.971492</ele>
        <time>2020-08-04T07:47:30.593Z</time>
      </trkpt>
      <trkpt lat="63.15052" lon="7.93019">
        <ele>10.364182</ele>
        <time>2020-08-04T07:47:32.627Z</time>
      </trkpt>
      <trkpt lat="63.15055" lon="7.9304">
        <ele>10.260378</ele>
        <time>2020-08-04T07:47:35.604Z</time>
      </trkpt>
      <trkpt lat="63.1506" lon="7.93064">
        <ele>10.141104</ele>
        <time>2020-08-04T07:47:37.748Z</time>
      </trkpt>
      <trkpt lat="63.15064" lon="7.93088">
        <ele>10.022623</ele>
        <time>2020-08-04T07:47:39.617Z</time>
      </trkpt>
      <trkpt lat="63.15067" lon="7.93113">
        <ele>9.903346</ele>
        <time>2020-08-04T07:47:41.650Z</time>
      </trkpt>
      <trkpt lat="63.1507" lon="7.93138">
        <ele>9.786908</ele>
        <time>2020-08-04T07:47:43.616Z</time>
      </trkpt>
      <trkpt lat="63.15074" lon="7.93161">
        <ele>9.671557</ele>
        <time>2020-08-04T07:47:45.639Z</time>
      </trkpt>
      <trkpt lat="63.15078" lon="7.93183">
        <ele>9.562291</ele>
        <time>2020-08-04T07:47:48.613Z</time>
      </trkpt>
      <trkpt lat="63.15082" lon="7.93209">
        <ele>9.434973</ele>
        <time>2020-08-04T07:47:50.618Z</time>
      </trkpt>
      <trkpt lat="63.15087" lon="7.9323">
        <ele>9.324436</ele>
        <time>2020-08-04T07:47:53.651Z</time>
      </trkpt>
      <trkpt lat="63.15091" lon="7.93251">
        <ele>9.21946</ele>
        <time>2020-08-04T07:47:56.603Z</time>
      </trkpt>
      <trkpt lat="63.15097" lon="7.93276">
        <ele>9.092636</ele>
        <time>2020-08-04T07:47:58.619Z</time>
      </trkpt>
      <trkpt lat="63.15101" lon="7.93301">
        <ele>8.969875</ele>
        <time>2020-08-04T07:48:01.625Z</time>
      </trkpt>
      <trkpt lat="63.15106" lon="7.93329">
        <ele>8.829302</ele>
        <time>2020-08-04T07:48:04.620Z</time>
      </trkpt>
      <trkpt lat="63.15111" lon="7.9336">
        <ele>8.679026</ele>
        <time>2020-08-04T07:48:06.634Z</time>
      </trkpt>
      <trkpt lat="63.15116" lon="7.93387">
        <ele>8.560761</ele>
        <time>2020-08-04T07:48:09.601Z</time>
      </trkpt>
      <trkpt lat="63.15121" lon="7.93413">
        <ele>9.087757</ele>
        <time>2020-08-04T07:48:12.622Z</time>
      </trkpt>
      <trkpt lat="63.15127" lon="7.9344">
        <ele>9.633191</ele>
        <time>2020-08-04T07:48:14.606Z</time>
      </trkpt>
      <trkpt lat="63.15131" lon="7.93469">
        <ele>10.197496</ele>
        <time>2020-08-04T07:48:17.610Z</time>
      </trkpt>
      <trkpt lat="63.15134" lon="7.93495">
        <ele>10.692808</ele>
        <time>2020-08-04T07:48:20.600Z</time>
      </trkpt>
      <trkpt lat="63.15138" lon="7.93522">
        <ele>11.227554</ele>
        <time>2020-08-04T07:48:22.614Z</time>
      </trkpt>
      <trkpt lat="63.15141" lon="7.93551">
        <ele>11.781763</ele>
        <time>2020-08-04T07:48:25.635Z</time>
      </trkpt>
      <trkpt lat="63.15145" lon="7.93577">
        <ele>12.270632</ele>
        <time>2020-08-04T07:48:28.629Z</time>
      </trkpt>
      <trkpt lat="63.15149" lon="7.93604">
        <ele>12.804692</ele>
        <time>2020-08-04T07:48:30.608Z</time>
      </trkpt>
      <trkpt lat="63.15152" lon="7.93632">
        <ele>13.337779</ele>
        <time>2020-08-04T07:48:33.598Z</time>
      </trkpt>
      <trkpt lat="63.15156" lon="7.9366">
        <ele>13.873348</ele>
        <time>2020-08-04T07:48:36.615Z</time>
      </trkpt>
      <trkpt lat="63.15158" lon="7.9369">
        <ele>14.429582</ele>
        <time>2020-08-04T07:48:38.602Z</time>
      </trkpt>
      <trkpt lat="63.15161" lon="7.93718">
        <ele>14.971632</ele>
        <time>2020-08-04T07:48:41.610Z</time>
      </trkpt>
      <trkpt lat="63.15164" lon="7.93744">
        <ele>15.463385</ele>
        <time>2020-08-04T07:48:44.610Z</time>
      </trkpt>
      <trkpt lat="63.15168" lon="7.93772">
        <ele>15.9127</ele>
        <time>2020-08-04T07:48:46.605Z</time>
      </trkpt>
      <trkpt lat="63.15172" lon="7.93799">
        <ele>15.958555</ele>
        <time>2020-08-04T07:48:49.635Z</time>
      </trkpt>
      <trkpt lat="63.15176" lon="7.93826">
        <ele>16.00274</ele>
        <time>2020-08-04T07:48:52.642Z</time>
      </trkpt>
      <trkpt lat="63.15179" lon="7.93852">
        <ele>16.04558</ele>
        <time>2020-08-04T07:48:54.614Z</time>
      </trkpt>
      <trkpt lat="63.1518" lon="7.93879">
        <ele>16.09016</ele>
        <time>2020-08-04T07:48:57.608Z</time>
      </trkpt>
      <trkpt lat="63.15181" lon="7.93908">
        <ele>16.136438</ele>
        <time>2020-08-04T07:49:00.633Z</time>
      </trkpt>
      <trkpt lat="63.15184" lon="7.93938">
        <ele>16.184248</ele>
        <time>2020-08-04T07:49:02.608Z</time>
      </trkpt>
      <trkpt lat="63.15187" lon="7.93964">
        <ele>16.227473</ele>
        <time>2020-08-04T07:49:05.611Z</time>
      </trkpt>
      <trkpt lat="63.15188" lon="7.93991">
        <ele>16.270758</ele>
        <time>2020-08-04T07:49:08.625Z</time>
      </trkpt>
      <trkpt lat="63.1519" lon="7.9402">
        <ele>16.316808</ele>
        <time>2020-08-04T07:49:10.624Z</time>
      </trkpt>
      <trkpt lat="63.15192" lon="7.94047">
        <ele>16.359659</ele>
        <time>2020-08-04T07:49:13.612Z</time>
      </trkpt>
      <trkpt lat="63.15192" lon="7.94077">
        <ele>16.407393</ele>
        <time>2020-08-04T07:49:16.609Z</time>
      </trkpt>
      <trkpt lat="63.15191" lon="7.94108">
        <ele>16.458115</ele>
        <time>2020-08-04T07:49:18.593Z</time>
      </trkpt>
      <trkpt lat="63.15191" lon="7.94139">
        <ele>16.507283</ele>
        <time>2020-08-04T07:49:21.597Z</time>
      </trkpt>
      <trkpt lat="63.15192" lon="7.94169">
        <ele>16.472433</ele>
        <time>2020-08-04T07:49:24.614Z</time>
      </trkpt>
      <trkpt lat="63.15194" lon="7.94199">
        <ele>16.293963</ele>
        <time>2020-08-04T07:49:26.671Z</time>
      </trkpt>
      <trkpt lat="63.15195" lon="7.94228">
        <ele>16.112106</ele>
        <time>2020-08-04T07:49:29.612Z</time>
      </trkpt>
      <trkpt lat="63.15196" lon="7.94256">
        <ele>15.944188</ele>
        <time>2020-08-04T07:49:32.606Z</time>
      </trkpt>
      <trkpt lat="63.15197" lon="7.94285">
        <ele>15.767181</ele>
        <time>2020-08-04T07:49:34.614Z</time>
      </trkpt>
      <trkpt lat="63.15199" lon="7.94313">
        <ele>15.595836</ele>
        <time>2020-08-04T07:49:37.628Z</time>
      </trkpt>
      <trkpt lat="63.15199" lon="7.94341">
        <ele>15.424664</ele>
        <time>2020-08-04T07:49:40.606Z</time>
      </trkpt>
      <trkpt lat="63.152" lon="7.9437">
        <ele>15.247587</ele>
        <time>2020-08-04T07:49:42.648Z</time>
      </trkpt>
      <trkpt lat="63.15201" lon="7.94398">
        <ele>15.078672</ele>
        <time>2020-08-04T07:49:45.592Z</time>
      </trkpt>
      <trkpt lat="63.15201" lon="7.94426">
        <ele>14.907712</ele>
        <time>2020-08-04T07:49:48.613Z</time>
      </trkpt>
      <trkpt lat="63.15201" lon="7.94456">
        <ele>14.723374</ele>
        <time>2020-08-04T07:49:50.627Z</time>
      </trkpt>
      <trkpt lat="63.15202" lon="7.94482">
        <ele>14.564056</ele>
        <time>2020-08-04T07:49:53.615Z</time>
      </trkpt>
      <trkpt lat="63.15204" lon="7.94507">
        <ele>14.411684</ele>
        <time>2020-08-04T07:49:56.617Z</time>
      </trkpt>
      <trkpt lat="63.15205" lon="7.94532">
        <ele>14.257932</ele>
        <time>2020-08-04T07:49:58.624Z</time>
      </trkpt>
      <trkpt lat="63.15207" lon="7.94557">
        <ele>14.145559</ele>
        <time>2020-08-04T07:50:01.630Z</time>
      </trkpt>
      <trkpt lat="63.15208" lon="7.94585">
        <ele>14.629608</ele>
        <time>2020-08-04T07:50:03.605Z</time>
      </trkpt>
      <trkpt lat="63.15208" lon="7.94614">
        <ele>15.128504</ele>
        <time>2020-08-04T07:50:05.621Z</time>
      </trkpt>
      <trkpt lat="63.15209" lon="7.94642">
        <ele>15.603725</ele>
        <time>2020-08-04T07:50:07.625Z</time>
      </trkpt>
      <trkpt lat="63.15209" lon="7.94668">
        <ele>16.044388</ele>
        <time>2020-08-04T07:50:09.617Z</time>
      </trkpt>
      <trkpt lat="63.15209" lon="7.94695">
        <ele>16.505494</ele>
        <time>2020-08-04T07:50:11.606Z</time>
      </trkpt>
      <trkpt lat="63.15209" lon="7.94722">
        <ele>16.971662</ele>
        <time>2020-08-04T07:50:13.611Z</time>
      </trkpt>
      <trkpt lat="63.15288" lon="7.95488">
        <ele>35.463497</ele>
        <time>2020-08-04T07:52:52.873Z</time>
      </trkpt>
      <trkpt lat="63.15306" lon="7.95467">
        <ele>38.12693</ele>
        <time>2020-08-04T07:54:34.838Z</time>
      </trkpt>
      <trkpt lat="63.15313" lon="7.95488">
        <ele>39.684223</ele>
        <time>2020-08-04T07:54:37.839Z</time>
      </trkpt>
      <trkpt lat="63.15319" lon="7.95503">
        <ele>40.892404</ele>
        <time>2020-08-04T07:54:39.840Z</time>
      </trkpt>
      <trkpt lat="63.15327" lon="7.95525">
        <ele>42.597984</ele>
        <time>2020-08-04T07:54:42.860Z</time>
      </trkpt>
      <trkpt lat="63.15334" lon="7.95542">
        <ele>44.012022</ele>
        <time>2020-08-04T07:54:45.863Z</time>
      </trkpt>
      <trkpt lat="63.1534" lon="7.95558">
        <ele>45.229366</ele>
        <time>2020-08-04T07:54:48.860Z</time>
      </trkpt>
      <trkpt lat="63.15347" lon="7.95577">
        <ele>46.711278</ele>
        <time>2020-08-04T07:54:52.839Z</time>
      </trkpt>
      <trkpt lat="63.15354" lon="7.95593">
        <ele>48.062394</ele>
        <time>2020-08-04T07:54:56.820Z</time>
      </trkpt>
      <trkpt lat="63.15359" lon="7.95609">
        <ele>49.263633</ele>
        <time>2020-08-04T07:55:00.857Z</time>
      </trkpt>
      <trkpt lat="63.15367" lon="7.95623">
        <ele>50.184757</ele>
        <time>2020-08-04T07:55:04.826Z</time>
      </trkpt>
      <trkpt lat="63.15376" lon="7.95638">
        <ele>50.468716</ele>
        <time>2020-08-04T07:55:08.838Z</time>
      </trkpt>
      <trkpt lat="63.15385" lon="7.9565">
        <ele>50.714243</ele>
        <time>2020-08-04T07:55:12.819Z</time>
      </trkpt>
      <trkpt lat="63.15395" lon="7.95661">
        <ele>50.990162</ele>
        <time>2020-08-04T07:55:17.831Z</time>
      </trkpt>
      <trkpt lat="63.15404" lon="7.95669">
        <ele>51.230823</ele>
        <time>2020-08-04T07:55:21.822Z</time>
      </trkpt>
      <trkpt lat="63.15412" lon="7.95677">
        <ele>51.458664</ele>
        <time>2020-08-04T07:55:25.821Z</time>
      </trkpt>
      <trkpt lat="63.15422" lon="7.95685">
        <ele>51.708913</ele>
        <time>2020-08-04T07:55:29.827Z</time>
      </trkpt>
      <trkpt lat="63.15432" lon="7.95691">
        <ele>51.973249</ele>
        <time>2020-08-04T07:55:33.861Z</time>
      </trkpt>
      <trkpt lat="63.15443" lon="7.95694">
        <ele>52.253211</ele>
        <time>2020-08-04T07:55:37.832Z</time>
      </trkpt>
      <trkpt lat="63.15454" lon="7.95693">
        <ele>52.516853</ele>
        <time>2020-08-04T07:55:41.831Z</time>
      </trkpt>
      <trkpt lat="63.15465" lon="7.9569">
        <ele>52.794369</ele>
        <time>2020-08-04T07:55:45.871Z</time>
      </trkpt>
      <trkpt lat="63.15477" lon="7.95688">
        <ele>53.078573</ele>
        <time>2020-08-04T07:55:49.819Z</time>
      </trkpt>
      <trkpt lat="63.15486" lon="7.95687">
        <ele>53.313155</ele>
        <time>2020-08-04T07:55:52.815Z</time>
      </trkpt>
      <trkpt lat="63.15497" lon="7.95685">
        <ele>53.577544</ele>
        <time>2020-08-04T07:55:55.844Z</time>
      </trkpt>
      <trkpt lat="63.15508" lon="7.95681">
        <ele>53.839153</ele>
        <time>2020-08-04T07:55:58.817Z</time>
      </trkpt>
      <trkpt lat="63.15518" lon="7.95678">
        <ele>54.088089</ele>
        <time>2020-08-04T07:56:01.818Z</time>
      </trkpt>
      <trkpt lat="63.15528" lon="7.95675">
        <ele>54.338709</ele>
        <time>2020-08-04T07:56:04.823Z</time>
      </trkpt>
      <trkpt lat="63.15538" lon="7.95671">
        <ele>54.474733</ele>
        <time>2020-08-04T07:56:07.850Z</time>
      </trkpt>
      <trkpt lat="63.15549" lon="7.95667">
        <ele>54.347024</ele>
        <time>2020-08-04T07:56:10.818Z</time>
      </trkpt>
      <trkpt lat="63.15561" lon="7.95662">
        <ele>54.20989</ele>
        <time>2020-08-04T07:56:13.836Z</time>
      </trkpt>
      <trkpt lat="63.15573" lon="7.95657">
        <ele>54.059676</ele>
        <time>2020-08-04T07:56:16.878Z</time>
      </trkpt>
      <trkpt lat="63.15582" lon="7.95653">
        <ele>53.948997</ele>
        <time>2020-08-04T07:56:18.852Z</time>
      </trkpt>
      <trkpt lat="63.15592" lon="7.95647">
        <ele>53.836039</ele>
        <time>2020-08-04T07:56:20.844Z</time>
      </trkpt>
      <trkpt lat="63.15601" lon="7.95641">
        <ele>53.720257</ele>
        <time>2020-08-04T07:56:22.827Z</time>
      </trkpt>
      <trkpt lat="63.15611" lon="7.95634">
        <ele>53.60482</ele>
        <time>2020-08-04T07:56:24.851Z</time>
      </trkpt>
      <trkpt lat="63.15621" lon="7.95626">
        <ele>53.474687</ele>
        <time>2020-08-04T07:56:26.835Z</time>
      </trkpt>
      <trkpt lat="63.15632" lon="7.95618">
        <ele>53.34129</ele>
        <time>2020-08-04T07:56:28.819Z</time>
      </trkpt>
      <trkpt lat="63.15642" lon="7.95607">
        <ele>53.204378</ele>
        <time>2020-08-04T07:56:30.862Z</time>
      </trkpt>
      <trkpt lat="63.15653" lon="7.95595">
        <ele>53.066271</ele>
        <time>2020-08-04T07:56:32.835Z</time>
      </trkpt>
      <trkpt lat="63.15663" lon="7.95582">
        <ele>52.929714</ele>
        <time>2020-08-04T07:56:34.856Z</time>
      </trkpt>
      <trkpt lat="63.15672" lon="7.95568">
        <ele>52.795512</ele>
        <time>2020-08-04T07:56:36.820Z</time>
      </trkpt>
      <trkpt lat="63.15682" lon="7.95553">
        <ele>52.65437</ele>
        <time>2020-08-04T07:56:38.881Z</time>
      </trkpt>
      <trkpt lat="63.15691" lon="7.95538">
        <ele>52.52558</ele>
        <time>2020-08-04T07:56:40.839Z</time>
      </trkpt>
      <trkpt lat="63.15699" lon="7.95522">
        <ele>52.433493</ele>
        <time>2020-08-04T07:56:42.824Z</time>
      </trkpt>
      <trkpt lat="63.15705" lon="7.95506">
        <ele>53.127813</ele>
        <time>2020-08-04T07:56:44.827Z</time>
      </trkpt>
      <trkpt lat="63.15712" lon="7.95481">
        <ele>54.019838</ele>
        <time>2020-08-04T07:56:47.812Z</time>
      </trkpt>
      <trkpt lat="63.15718" lon="7.95461">
        <ele>54.79438</ele>
        <time>2020-08-04T07:56:50.843Z</time>
      </trkpt>
      <trkpt lat="63.15727" lon="7.95452">
        <ele>55.491076</ele>
        <time>2020-08-04T07:56:53.860Z</time>
      </trkpt>
      <trkpt lat="63.15737" lon="7.95449">
        <ele>56.150454</ele>
        <time>2020-08-04T07:56:56.817Z</time>
      </trkpt>
      <trkpt lat="63.15746" lon="7.95446">
        <ele>56.818031</ele>
        <time>2020-08-04T07:56:59.835Z</time>
      </trkpt>
      <trkpt lat="63.15756" lon="7.95433">
        <ele>57.621393</ele>
        <time>2020-08-04T07:57:03.835Z</time>
      </trkpt>
      <trkpt lat="63.15764" lon="7.9542">
        <ele>58.335627</ele>
        <time>2020-08-04T07:57:07.834Z</time>
      </trkpt>
      <trkpt lat="63.15773" lon="7.95408">
        <ele>59.02301</ele>
        <time>2020-08-04T07:57:11.840Z</time>
      </trkpt>
      <trkpt lat="63.15782" lon="7.95394">
        <ele>59.778317</ele>
        <time>2020-08-04T07:57:16.819Z</time>
      </trkpt>
      <trkpt lat="63.15789" lon="7.95381">
        <ele>60.440203</ele>
        <time>2020-08-04T07:57:21.831Z</time>
      </trkpt>
      <trkpt lat="63.15797" lon="7.95368">
        <ele>61.115552</ele>
        <time>2020-08-04T07:57:27.843Z</time>
      </trkpt>
      <trkpt lat="63.15804" lon="7.95354">
        <ele>61.794201</ele>
        <time>2020-08-04T07:57:34.827Z</time>
      </trkpt>
      <trkpt lat="63.15813" lon="7.95341">
        <ele>62.504835</ele>
        <time>2020-08-04T07:57:41.846Z</time>
      </trkpt>
      <trkpt lat="63.15822" lon="7.95332">
        <ele>63.206688</ele>
        <time>2020-08-04T07:57:47.823Z</time>
      </trkpt>
      <trkpt lat="63.15831" lon="7.95327">
        <ele>63.845017</ele>
        <time>2020-08-04T07:57:52.815Z</time>
      </trkpt>
      <trkpt lat="63.1584" lon="7.95324">
        <ele>64.519932</ele>
        <time>2020-08-04T07:57:58.835Z</time>
      </trkpt>
      <trkpt lat="63.15849" lon="7.95317">
        <ele>65.035075</ele>
        <time>2020-08-04T07:58:04.845Z</time>
      </trkpt>
      <trkpt lat="63.15858" lon="7.95309">
        <ele>65.388042</ele>
        <time>2020-08-04T07:58:11.849Z</time>
      </trkpt>
      <trkpt lat="63.15866" lon="7.95301">
        <ele>65.710826</ele>
        <time>2020-08-04T07:58:17.835Z</time>
      </trkpt>
      <trkpt lat="63.15875" lon="7.95294">
        <ele>66.03195</ele>
        <time>2020-08-04T07:58:23.850Z</time>
      </trkpt>
      <trkpt lat="63.15884" lon="7.95286">
        <ele>66.385365</ele>
        <time>2020-08-04T07:58:29.816Z</time>
      </trkpt>
      <trkpt lat="63.15893" lon="7.95275">
        <ele>66.756591</ele>
        <time>2020-08-04T07:58:35.829Z</time>
      </trkpt>
      <trkpt lat="63.15903" lon="7.95265">
        <ele>67.136567</ele>
        <time>2020-08-04T07:58:41.839Z</time>
      </trkpt>
      <trkpt lat="63.15911" lon="7.95258">
        <ele>67.457165</ele>
        <time>2020-08-04T07:58:46.831Z</time>
      </trkpt>
      <trkpt lat="63.1592" lon="7.95253">
        <ele>67.791434</ele>
        <time>2020-08-04T07:58:51.810Z</time>
      </trkpt>
      <trkpt lat="63.15929" lon="7.95241">
        <ele>68.152548</ele>
        <time>2020-08-04T07:58:57.816Z</time>
      </trkpt>
      <trkpt lat="63.15939" lon="7.95228">
        <ele>68.551845</ele>
        <time>2020-08-04T07:59:02.815Z</time>
      </trkpt>
      <trkpt lat="63.15948" lon="7.95221">
        <ele>68.918672</ele>
        <time>2020-08-04T07:59:06.826Z</time>
      </trkpt>
      <trkpt lat="63.15958" lon="7.95215">
        <ele>69.27564</ele>
        <time>2020-08-04T07:59:10.830Z</time>
      </trkpt>
      <trkpt lat="63.15967" lon="7.95205">
        <ele>69.649208</ele>
        <time>2020-08-04T07:59:14.829Z</time>
      </trkpt>
      <trkpt lat="63.15977" lon="7.95196">
        <ele>70.024778</ele>
        <time>2020-08-04T07:59:18.823Z</time>
      </trkpt>
      <trkpt lat="63.15988" lon="7.95185">
        <ele>70.458323</ele>
        <time>2020-08-04T07:59:22.843Z</time>
      </trkpt>
      <trkpt lat="63.15998" lon="7.95177">
        <ele>70.820308</ele>
        <time>2020-08-04T07:59:25.813Z</time>
      </trkpt>
      <trkpt lat="63.16007" lon="7.95168">
        <ele>71.192216</ele>
        <time>2020-08-04T07:59:28.827Z</time>
      </trkpt>
      <trkpt lat="63.16017" lon="7.95159">
        <ele>71.245046</ele>
        <time>2020-08-04T07:59:31.840Z</time>
      </trkpt>
      <trkpt lat="63.16027" lon="7.95151">
        <ele>71.124799</ele>
        <time>2020-08-04T07:59:34.851Z</time>
      </trkpt>
      <trkpt lat="63.16037" lon="7.95142">
        <ele>71.006525</ele>
        <time>2020-08-04T07:59:37.831Z</time>
      </trkpt>
      <trkpt lat="63.16047" lon="7.95134">
        <ele>70.88665</ele>
        <time>2020-08-04T07:59:40.821Z</time>
      </trkpt>
      <trkpt lat="63.16057" lon="7.95123">
        <ele>70.762282</ele>
        <time>2020-08-04T07:59:43.827Z</time>
      </trkpt>
      <trkpt lat="63.16066" lon="7.95111">
        <ele>70.636845</ele>
        <time>2020-08-04T07:59:46.829Z</time>
      </trkpt>
      <trkpt lat="63.16076" lon="7.95098">
        <ele>70.508734</ele>
        <time>2020-08-04T07:59:49.821Z</time>
      </trkpt>
      <trkpt lat="63.16086" lon="7.95086">
        <ele>70.384281</ele>
        <time>2020-08-04T07:59:52.849Z</time>
      </trkpt>
      <trkpt lat="63.16095" lon="7.95074">
        <ele>70.263276</ele>
        <time>2020-08-04T07:59:55.855Z</time>
      </trkpt>
      <trkpt lat="63.16104" lon="7.95061">
        <ele>70.139389</ele>
        <time>2020-08-04T07:59:58.844Z</time>
      </trkpt>
      <trkpt lat="63.16113" lon="7.95047">
        <ele>70.013442</ele>
        <time>2020-08-04T08:00:01.841Z</time>
      </trkpt>
      <trkpt lat="63.16123" lon="7.95032">
        <ele>69.884406</ele>
        <time>2020-08-04T08:00:04.851Z</time>
      </trkpt>
      <trkpt lat="63.16133" lon="7.95019">
        <ele>69.748054</ele>
        <time>2020-08-04T08:00:07.839Z</time>
      </trkpt>
      <trkpt lat="63.16144" lon="7.95005">
        <ele>69.610985</ele>
        <time>2020-08-04T08:00:10.834Z</time>
      </trkpt>
      <trkpt lat="63.16154" lon="7.94992">
        <ele>69.474191</ele>
        <time>2020-08-04T08:00:13.830Z</time>
      </trkpt>
      <trkpt lat="63.16164" lon="7.94978">
        <ele>69.339806</ele>
        <time>2020-08-04T08:00:16.818Z</time>
      </trkpt>
      <trkpt lat="63.16174" lon="7.94964">
        <ele>69.3833</ele>
        <time>2020-08-04T08:00:19.838Z</time>
      </trkpt>
      <trkpt lat="63.16184" lon="7.9495">
        <ele>69.53061</ele>
        <time>2020-08-04T08:00:22.822Z</time>
      </trkpt>
      <trkpt lat="63.16194" lon="7.94936">
        <ele>69.676139</ele>
        <time>2020-08-04T08:00:25.851Z</time>
      </trkpt>
      <trkpt lat="63.16205" lon="7.94921">
        <ele>69.826526</ele>
        <time>2020-08-04T08:00:28.851Z</time>
      </trkpt>
      <trkpt lat="63.16214" lon="7.94906">
        <ele>69.972003</ele>
        <time>2020-08-04T08:00:31.850Z</time>
      </trkpt>
      <trkpt lat="63.16225" lon="7.94892">
        <ele>70.120352</ele>
        <time>2020-08-04T08:00:34.811Z</time>
      </trkpt>
      <trkpt lat="63.16236" lon="7.94877">
        <ele>70.276485</ele>
        <time>2020-08-04T08:00:37.840Z</time>
      </trkpt>
      <trkpt lat="63.16246" lon="7.94862">
        <ele>70.432167</ele>
        <time>2020-08-04T08:00:40.832Z</time>
      </trkpt>
      <trkpt lat="63.16255" lon="7.94851">
        <ele>70.5479</ele>
        <time>2020-08-04T08:00:42.889Z</time>
      </trkpt>
      <trkpt lat="63.16262" lon="7.9484">
        <ele>70.659291</ele>
        <time>2020-08-04T08:00:44.831Z</time>
      </trkpt>
      <trkpt lat="63.1627" lon="7.9483">
        <ele>70.769513</ele>
        <time>2020-08-04T08:00:46.830Z</time>
      </trkpt>
      <trkpt lat="63.16281" lon="7.94814">
        <ele>70.929169</ele>
        <time>2020-08-04T08:00:49.809Z</time>
      </trkpt>
      <trkpt lat="63.16292" lon="7.948">
        <ele>71.087097</ele>
        <time>2020-08-04T08:00:52.816Z</time>
      </trkpt>
      <trkpt lat="63.16303" lon="7.94786">
        <ele>71.241745</ele>
        <time>2020-08-04T08:00:55.820Z</time>
      </trkpt>
      <trkpt lat="63.16316" lon="7.94775">
        <ele>71.402726</ele>
        <time>2020-08-04T08:00:58.832Z</time>
      </trkpt>
      <trkpt lat="63.16328" lon="7.94764">
        <ele>71.638245</ele>
        <time>2020-08-04T08:01:01.821Z</time>
      </trkpt>
      <trkpt lat="63.16338" lon="7.94754">
        <ele>71.934457</ele>
        <time>2020-08-04T08:01:04.877Z</time>
      </trkpt>
      <trkpt lat="63.16349" lon="7.94743">
        <ele>72.223743</ele>
        <time>2020-08-04T08:01:07.840Z</time>
      </trkpt>
      <trkpt lat="63.16358" lon="7.94734">
        <ele>72.486318</ele>
        <time>2020-08-04T08:01:10.846Z</time>
      </trkpt>
      <trkpt lat="63.16368" lon="7.94725">
        <ele>72.748271</ele>
        <time>2020-08-04T08:01:13.828Z</time>
      </trkpt>
      <trkpt lat="63.16377" lon="7.94717">
        <ele>72.991498</ele>
        <time>2020-08-04T08:01:16.837Z</time>
      </trkpt>
      <trkpt lat="63.16385" lon="7.94709">
        <ele>73.226034</ele>
        <time>2020-08-04T08:01:19.846Z</time>
      </trkpt>
      <trkpt lat="63.16394" lon="7.94701">
        <ele>73.452282</ele>
        <time>2020-08-04T08:01:22.887Z</time>
      </trkpt>
      <trkpt lat="63.16404" lon="7.94692">
        <ele>73.744182</ele>
        <time>2020-08-04T08:01:26.834Z</time>
      </trkpt>
      <trkpt lat="63.16415" lon="7.94684">
        <ele>74.032158</ele>
        <time>2020-08-04T08:01:30.831Z</time>
      </trkpt>
      <trkpt lat="63.16426" lon="7.94674">
        <ele>74.326818</ele>
        <time>2020-08-04T08:01:34.833Z</time>
      </trkpt>
      <trkpt lat="63.16436" lon="7.94665">
        <ele>74.597882</ele>
        <time>2020-08-04T08:01:38.849Z</time>
      </trkpt>
      <trkpt lat="63.16446" lon="7.94656">
        <ele>74.872889</ele>
        <time>2020-08-04T08:01:42.826Z</time>
      </trkpt>
      <trkpt lat="63.16457" lon="7.94648">
        <ele>75.15905</ele>
        <time>2020-08-04T08:01:46.839Z</time>
      </trkpt>
      <trkpt lat="63.16468" lon="7.9464">
        <ele>75.445925</ele>
        <time>2020-08-04T08:01:50.819Z</time>
      </trkpt>
      <trkpt lat="63.16478" lon="7.9463">
        <ele>75.715404</ele>
        <time>2020-08-04T08:01:54.836Z</time>
      </trkpt>
      <trkpt lat="63.16488" lon="7.9462">
        <ele>76.00885</ele>
        <time>2020-08-04T08:01:58.827Z</time>
      </trkpt>
      <trkpt lat="63.16499" lon="7.94609">
        <ele>76.061366</ele>
        <time>2020-08-04T08:02:02.832Z</time>
      </trkpt>
      <trkpt lat="63.16507" lon="7.94599">
        <ele>76.097354</ele>
        <time>2020-08-04T08:02:05.814Z</time>
      </trkpt>
      <trkpt lat="63.16515" lon="7.94588">
        <ele>76.133445</ele>
        <time>2020-08-04T08:02:08.837Z</time>
      </trkpt>
      <trkpt lat="63.16523" lon="7.94577">
        <ele>76.169993</ele>
        <time>2020-08-04T08:02:11.839Z</time>
      </trkpt>
      <trkpt lat="63.16531" lon="7.94566">
        <ele>76.207422</ele>
        <time>2020-08-04T08:02:14.873Z</time>
      </trkpt>
      <trkpt lat="63.16539" lon="7.94554">
        <ele>76.243873</ele>
        <time>2020-08-04T08:02:17.810Z</time>
      </trkpt>
      <trkpt lat="63.16547" lon="7.94541">
        <ele>76.282825</ele>
        <time>2020-08-04T08:02:20.830Z</time>
      </trkpt>
      <trkpt lat="63.16555" lon="7.94524">
        <ele>76.32437</ele>
        <time>2020-08-04T08:02:23.820Z</time>
      </trkpt>
      <trkpt lat="63.16562" lon="7.94505">
        <ele>76.369005</ele>
        <time>2020-08-04T08:02:26.833Z</time>
      </trkpt>
      <trkpt lat="63.16571" lon="7.94483">
        <ele>76.419365</ele>
        <time>2020-08-04T08:02:29.818Z</time>
      </trkpt>
      <trkpt lat="63.16576" lon="7.94466">
        <ele>76.455331</ele>
        <time>2020-08-04T08:02:31.831Z</time>
      </trkpt>
      <trkpt lat="63.16581" lon="7.94446">
        <ele>76.494963</ele>
        <time>2020-08-04T08:02:33.868Z</time>
      </trkpt>
      <trkpt lat="63.16586" lon="7.94425">
        <ele>76.537566</ele>
        <time>2020-08-04T08:02:35.819Z</time>
      </trkpt>
      <trkpt lat="63.16591" lon="7.944">
        <ele>76.584399</ele>
        <time>2020-08-04T08:02:37.874Z</time>
      </trkpt>
      <trkpt lat="63.16596" lon="7.94373">
        <ele>76.635464</ele>
        <time>2020-08-04T08:02:39.838Z</time>
      </trkpt>
      <trkpt lat="63.16601" lon="7.94345">
        <ele>76.688558</ele>
        <time>2020-08-04T08:02:41.825Z</time>
      </trkpt>
      <trkpt lat="63.16606" lon="7.94315">
        <ele>76.505375</ele>
        <time>2020-08-04T08:02:43.835Z</time>
      </trkpt>
      <trkpt lat="63.16612" lon="7.94285">
        <ele>76.107139</ele>
        <time>2020-08-04T08:02:45.827Z</time>
      </trkpt>
      <trkpt lat="63.16617" lon="7.94253">
        <ele>75.703557</ele>
        <time>2020-08-04T08:02:47.836Z</time>
      </trkpt>
      <trkpt lat="63.16623" lon="7.94222">
        <ele>75.294454</ele>
        <time>2020-08-04T08:02:49.820Z</time>
      </trkpt>
      <trkpt lat="63.16629" lon="7.94191">
        <ele>74.896108</ele>
        <time>2020-08-04T08:02:51.816Z</time>
      </trkpt>
      <trkpt lat="63.16634" lon="7.94161">
        <ele>74.512776</ele>
        <time>2020-08-04T08:02:53.824Z</time>
      </trkpt>
      <trkpt lat="63.16639" lon="7.94133">
        <ele>74.149782</ele>
        <time>2020-08-04T08:02:55.818Z</time>
      </trkpt>
      <trkpt lat="63.16643" lon="7.94106">
        <ele>73.806771</ele>
        <time>2020-08-04T08:02:57.832Z</time>
      </trkpt>
      <trkpt lat="63.16648" lon="7.94079">
        <ele>73.464179</ele>
        <time>2020-08-04T08:02:59.831Z</time>
      </trkpt>
      <trkpt lat="63.16653" lon="7.94054">
        <ele>73.145398</ele>
        <time>2020-08-04T08:03:01.829Z</time>
      </trkpt>
      <trkpt lat="63.16657" lon="7.94031">
        <ele>72.849566</ele>
        <time>2020-08-04T08:03:03.836Z</time>
      </trkpt>
      <trkpt lat="63.16661" lon="7.9401">
        <ele>72.573345</ele>
        <time>2020-08-04T08:03:05.821Z</time>
      </trkpt>
      <trkpt lat="63.16664" lon="7.9399">
        <ele>72.317676</ele>
        <time>2020-08-04T08:03:07.831Z</time>
      </trkpt>
      <trkpt lat="63.16667" lon="7.93971">
        <ele>72.072827</ele>
        <time>2020-08-04T08:03:09.819Z</time>
      </trkpt>
      <trkpt lat="63.16672" lon="7.93944">
        <ele>72.215335</ele>
        <time>2020-08-04T08:03:12.813Z</time>
      </trkpt>
      <trkpt lat="63.16678" lon="7.93919">
        <ele>72.605651</ele>
        <time>2020-08-04T08:03:15.815Z</time>
      </trkpt>
      <trkpt lat="63.16683" lon="7.93899">
        <ele>72.950332</ele>
        <time>2020-08-04T08:03:18.816Z</time>
      </trkpt>
      <trkpt lat="63.16689" lon="7.9388">
        <ele>73.276564</ele>
        <time>2020-08-04T08:03:21.809Z</time>
      </trkpt>
      <trkpt lat="63.16694" lon="7.93863">
        <ele>73.580041</ele>
        <time>2020-08-04T08:03:24.826Z</time>
      </trkpt>
      <trkpt lat="63.16701" lon="7.93844">
        <ele>73.938467</ele>
        <time>2020-08-04T08:03:28.845Z</time>
      </trkpt>
      <trkpt lat="63.16709" lon="7.93824">
        <ele>74.3165</ele>
        <time>2020-08-04T08:03:32.848Z</time>
      </trkpt>
      <trkpt lat="63.16715" lon="7.93809">
        <ele>74.606166</ele>
        <time>2020-08-04T08:03:35.822Z</time>
      </trkpt>
      <trkpt lat="63.16721" lon="7.93795">
        <ele>74.894973</ele>
        <time>2020-08-04T08:03:38.832Z</time>
      </trkpt>
      <trkpt lat="63.16728" lon="7.93781">
        <ele>75.197905</ele>
        <time>2020-08-04T08:03:41.853Z</time>
      </trkpt>
      <trkpt lat="63.16735" lon="7.93766">
        <ele>75.509069</ele>
        <time>2020-08-04T08:03:44.831Z</time>
      </trkpt>
      <trkpt lat="63.16744" lon="7.93749">
        <ele>75.87766</ele>
        <time>2020-08-04T08:03:48.825Z</time>
      </trkpt>
      <trkpt lat="63.16752" lon="7.93738">
        <ele>76.177629</ele>
        <time>2020-08-04T08:03:51.838Z</time>
      </trkpt>
      <trkpt lat="63.1676" lon="7.93726">
        <ele>76.48515</ele>
        <time>2020-08-04T08:03:54.821Z</time>
      </trkpt>
      <trkpt lat="63.16768" lon="7.93714">
        <ele>76.81182</ele>
        <time>2020-08-04T08:03:57.856Z</time>
      </trkpt>
      <trkpt lat="63.16777" lon="7.93702">
        <ele>77.150418</ele>
        <time>2020-08-04T08:04:00.814Z</time>
      </trkpt>
      <trkpt lat="63.16788" lon="7.93689">
        <ele>77.522957</ele>
        <time>2020-08-04T08:04:03.848Z</time>
      </trkpt>
      <trkpt lat="63.16799" lon="7.93677">
        <ele>77.46575</ele>
        <time>2020-08-04T08:04:06.832Z</time>
      </trkpt>
      <trkpt lat="63.16808" lon="7.9367">
        <ele>77.142951</ele>
        <time>2020-08-04T08:04:08.844Z</time>
      </trkpt>
      <trkpt lat="63.16817" lon="7.93663">
        <ele>76.810485</ele>
        <time>2020-08-04T08:04:10.828Z</time>
      </trkpt>
      <trkpt lat="63.16827" lon="7.93656">
        <ele>76.446916</ele>
        <time>2020-08-04T08:04:12.839Z</time>
      </trkpt>
      <trkpt lat="63.16838" lon="7.93651">
        <ele>76.027919</ele>
        <time>2020-08-04T08:04:14.840Z</time>
      </trkpt>
      <trkpt lat="63.16851" lon="7.93646">
        <ele>75.601202</ele>
        <time>2020-08-04T08:04:16.864Z</time>
      </trkpt>
      <trkpt lat="63.16863" lon="7.93643">
        <ele>75.148731</ele>
        <time>2020-08-04T08:04:18.840Z</time>
      </trkpt>
      <trkpt lat="63.16877" lon="7.9364">
        <ele>74.6743</ele>
        <time>2020-08-04T08:04:20.822Z</time>
      </trkpt>
      <trkpt lat="63.16892" lon="7.93639">
        <ele>74.165922</ele>
        <time>2020-08-04T08:04:22.835Z</time>
      </trkpt>
      <trkpt lat="63.16907" lon="7.93639">
        <ele>73.615997</ele>
        <time>2020-08-04T08:04:24.834Z</time>
      </trkpt>
      <trkpt lat="63.16925" lon="7.93638">
        <ele>73.006975</ele>
        <time>2020-08-04T08:04:26.875Z</time>
      </trkpt>
      <trkpt lat="63.16934" lon="7.93638">
        <ele>72.679852</ele>
        <time>2020-08-04T08:04:27.829Z</time>
      </trkpt>
      <trkpt lat="63.16944" lon="7.93639">
        <ele>72.338752</ele>
        <time>2020-08-04T08:04:28.832Z</time>
      </trkpt>
      <trkpt lat="63.16954" lon="7.9364">
        <ele>71.983369</ele>
        <time>2020-08-04T08:04:29.830Z</time>
      </trkpt>
      <trkpt lat="63.16965" lon="7.93641">
        <ele>71.617845</ele>
        <time>2020-08-04T08:04:30.834Z</time>
      </trkpt>
      <trkpt lat="63.16975" lon="7.93641">
        <ele>71.183306</ele>
        <time>2020-08-04T08:04:31.821Z</time>
      </trkpt>
      <trkpt lat="63.16986" lon="7.9364">
        <ele>70.682689</ele>
        <time>2020-08-04T08:04:32.835Z</time>
      </trkpt>
      <trkpt lat="63.16997" lon="7.9364">
        <ele>70.181867</ele>
        <time>2020-08-04T08:04:33.855Z</time>
      </trkpt>
      <trkpt lat="63.17007" lon="7.93638">
        <ele>69.685217</ele>
        <time>2020-08-04T08:04:34.834Z</time>
      </trkpt>
      <trkpt lat="63.17017" lon="7.93637">
        <ele>69.192567</ele>
        <time>2020-08-04T08:04:35.830Z</time>
      </trkpt>
      <trkpt lat="63.17028" lon="7.93635">
        <ele>68.708784</ele>
        <time>2020-08-04T08:04:36.816Z</time>
      </trkpt>
      <trkpt lat="63.17038" lon="7.93632">
        <ele>68.237714</ele>
        <time>2020-08-04T08:04:37.816Z</time>
      </trkpt>
      <trkpt lat="63.17047" lon="7.93629">
        <ele>67.766105</ele>
        <time>2020-08-04T08:04:38.816Z</time>
      </trkpt>
      <trkpt lat="63.17057" lon="7.93626">
        <ele>67.304138</ele>
        <time>2020-08-04T08:04:39.837Z</time>
      </trkpt>
      <trkpt lat="63.17067" lon="7.93623">
        <ele>66.846571</ele>
        <time>2020-08-04T08:04:40.813Z</time>
      </trkpt>
      <trkpt lat="63.17076" lon="7.9362">
        <ele>66.392441</ele>
        <time>2020-08-04T08:04:41.842Z</time>
      </trkpt>
      <trkpt lat="63.17086" lon="7.93616">
        <ele>65.945037</ele>
        <time>2020-08-04T08:04:42.836Z</time>
      </trkpt>
      <trkpt lat="63.17094" lon="7.93612">
        <ele>65.514846</ele>
        <time>2020-08-04T08:04:43.846Z</time>
      </trkpt>
      <trkpt lat="63.17112" lon="7.93602">
        <ele>64.675593</ele>
        <time>2020-08-04T08:04:45.848Z</time>
      </trkpt>
      <trkpt lat="63.17129" lon="7.93592">
        <ele>63.83927</ele>
        <time>2020-08-04T08:04:47.829Z</time>
      </trkpt>
      <trkpt lat="63.17145" lon="7.93583">
        <ele>63.028097</ele>
        <time>2020-08-04T08:04:49.834Z</time>
      </trkpt>
      <trkpt lat="63.17161" lon="7.93575">
        <ele>63.352729</ele>
        <time>2020-08-04T08:04:51.837Z</time>
      </trkpt>
      <trkpt lat="63.17175" lon="7.93568">
        <ele>63.759984</ele>
        <time>2020-08-04T08:04:53.822Z</time>
      </trkpt>
      <trkpt lat="63.17188" lon="7.93564">
        <ele>64.120651</ele>
        <time>2020-08-04T08:04:55.817Z</time>
      </trkpt>
      <trkpt lat="63.17199" lon="7.9356">
        <ele>64.447028</ele>
        <time>2020-08-04T08:04:57.852Z</time>
      </trkpt>
      <trkpt lat="63.17209" lon="7.93555">
        <ele>64.733693</ele>
        <time>2020-08-04T08:04:59.828Z</time>
      </trkpt>
      <trkpt lat="63.17218" lon="7.93549">
        <ele>64.99927</ele>
        <time>2020-08-04T08:05:01.831Z</time>
      </trkpt>
      <trkpt lat="63.1723" lon="7.93543">
        <ele>65.361539</ele>
        <time>2020-08-04T08:05:04.840Z</time>
      </trkpt>
      <trkpt lat="63.17242" lon="7.93536">
        <ele>65.694839</ele>
        <time>2020-08-04T08:05:07.824Z</time>
      </trkpt>
      <trkpt lat="63.17253" lon="7.9353">
        <ele>66.018334</ele>
        <time>2020-08-04T08:05:10.893Z</time>
      </trkpt>
      <trkpt lat="63.17264" lon="7.93524">
        <ele>66.328475</ele>
        <time>2020-08-04T08:05:13.844Z</time>
      </trkpt>
      <trkpt lat="63.17274" lon="7.93519">
        <ele>66.626182</ele>
        <time>2020-08-04T08:05:16.863Z</time>
      </trkpt>
      <trkpt lat="63.17283" lon="7.93515">
        <ele>66.899941</ele>
        <time>2020-08-04T08:05:19.814Z</time>
      </trkpt>
      <trkpt lat="63.17292" lon="7.93513">
        <ele>67.157723</ele>
        <time>2020-08-04T08:05:22.830Z</time>
      </trkpt>
      <trkpt lat="63.17301" lon="7.93513">
        <ele>67.412175</ele>
        <time>2020-08-04T08:05:25.837Z</time>
      </trkpt>
      <trkpt lat="63.17313" lon="7.93514">
        <ele>67.745933</ele>
        <time>2020-08-04T08:05:29.809Z</time>
      </trkpt>
      <trkpt lat="63.17325" lon="7.93516">
        <ele>68.101562</ele>
        <time>2020-08-04T08:05:33.835Z</time>
      </trkpt>
      <trkpt lat="63.17334" lon="7.93516">
        <ele>68.458438</ele>
        <time>2020-08-04T08:05:36.815Z</time>
      </trkpt>
      <trkpt lat="63.17344" lon="7.93515">
        <ele>68.819282</ele>
        <time>2020-08-04T08:05:39.835Z</time>
      </trkpt>
      <trkpt lat="63.17353" lon="7.93517">
        <ele>69.177853</ele>
        <time>2020-08-04T08:05:42.820Z</time>
      </trkpt>
      <trkpt lat="63.17365" lon="7.9352">
        <ele>69.637997</ele>
        <time>2020-08-04T08:05:46.820Z</time>
      </trkpt>
      <trkpt lat="63.17376" lon="7.93524">
        <ele>70.08082</ele>
        <time>2020-08-04T08:05:50.843Z</time>
      </trkpt>
      <trkpt lat="63.17387" lon="7.93531">
        <ele>70.514071</ele>
        <time>2020-08-04T08:05:54.818Z</time>
      </trkpt>
      <trkpt lat="63.17398" lon="7.93538">
        <ele>70.957042</ele>
        <time>2020-08-04T08:05:58.831Z</time>
      </trkpt>
      <trkpt lat="63.17408" lon="7.93546">
        <ele>71.378523</ele>
        <time>2020-08-04T08:06:02.825Z</time>
      </trkpt>
      <trkpt lat="63.17418" lon="7.93555">
        <ele>71.8021</ele>
        <time>2020-08-04T08:06:06.879Z</time>
      </trkpt>
      <trkpt lat="63.17428" lon="7.93565">
        <ele>72.224126</ele>
        <time>2020-08-04T08:06:10.858Z</time>
      </trkpt>
      <trkpt lat="63.17438" lon="7.93576">
        <ele>72.656087</ele>
        <time>2020-08-04T08:06:14.848Z</time>
      </trkpt>
      <trkpt lat="63.17447" lon="7.93587">
        <ele>73.070579</ele>
        <time>2020-08-04T08:06:18.851Z</time>
      </trkpt>
      <trkpt lat="63.17457" lon="7.93598">
        <ele>73.48456</ele>
        <time>2020-08-04T08:06:22.842Z</time>
      </trkpt>
      <trkpt lat="63.17464" lon="7.93609">
        <ele>73.842794</ele>
        <time>2020-08-04T08:06:26.813Z</time>
      </trkpt>
      <trkpt lat="63.17472" lon="7.93621">
        <ele>74.207521</ele>
        <time>2020-08-04T08:06:30.857Z</time>
      </trkpt>
      <trkpt lat="63.1748" lon="7.93633">
        <ele>74.588228</ele>
        <time>2020-08-04T08:06:34.838Z</time>
      </trkpt>
      <trkpt lat="63.17488" lon="7.93646">
        <ele>74.960554</ele>
        <time>2020-08-04T08:06:38.839Z</time>
      </trkpt>
      <trkpt lat="63.17495" lon="7.93659">
        <ele>75.218811</ele>
        <time>2020-08-04T08:06:42.811Z</time>
      </trkpt>
      <trkpt lat="63.17503" lon="7.93674">
        <ele>75.472835</ele>
        <time>2020-08-04T08:06:46.839Z</time>
      </trkpt>
      <trkpt lat="63.17511" lon="7.9369">
        <ele>75.748108</ele>
        <time>2020-08-04T08:06:50.843Z</time>
      </trkpt>
      <trkpt lat="63.17518" lon="7.93706">
        <ele>76.003655</ele>
        <time>2020-08-04T08:06:54.830Z</time>
      </trkpt>
      <trkpt lat="63.17525" lon="7.9372">
        <ele>76.244809</ele>
        <time>2020-08-04T08:06:58.848Z</time>
      </trkpt>
      <trkpt lat="63.17532" lon="7.93735">
        <ele>76.483626</ele>
        <time>2020-08-04T08:07:02.851Z</time>
      </trkpt>
      <trkpt lat="63.17538" lon="7.93752">
        <ele>76.732427</ele>
        <time>2020-08-04T08:07:06.841Z</time>
      </trkpt>
      <trkpt lat="63.17543" lon="7.93769">
        <ele>76.971435</ele>
        <time>2020-08-04T08:07:10.826Z</time>
      </trkpt>
      <trkpt lat="63.17549" lon="7.93787">
        <ele>77.225597</ele>
        <time>2020-08-04T08:07:14.833Z</time>
      </trkpt>
      <trkpt lat="63.17555" lon="7.93805">
        <ele>77.47407</ele>
        <time>2020-08-04T08:07:18.829Z</time>
      </trkpt>
      <trkpt lat="63.1756" lon="7.93826">
        <ele>77.742433</ele>
        <time>2020-08-04T08:07:22.819Z</time>
      </trkpt>
      <trkpt lat="63.17565" lon="7.93847">
        <ele>78.026684</ele>
        <time>2020-08-04T08:07:26.824Z</time>
      </trkpt>
      <trkpt lat="63.17571" lon="7.9387">
        <ele>78.320621</ele>
        <time>2020-08-04T08:07:30.827Z</time>
      </trkpt>
      <trkpt lat="63.17577" lon="7.9389">
        <ele>78.595507</ele>
        <time>2020-08-04T08:07:34.843Z</time>
      </trkpt>
      <trkpt lat="63.17581" lon="7.93912">
        <ele>78.869516</ele>
        <time>2020-08-04T08:07:38.828Z</time>
      </trkpt>
      <trkpt lat="63.17585" lon="7.93937">
        <ele>79.164819</ele>
        <time>2020-08-04T08:07:42.820Z</time>
      </trkpt>
      <trkpt lat="63.17589" lon="7.93959">
        <ele>79.44195</ele>
        <time>2020-08-04T08:07:46.837Z</time>
      </trkpt>
      <trkpt lat="63.17594" lon="7.93977">
        <ele>79.411748</ele>
        <time>2020-08-04T08:07:49.841Z</time>
      </trkpt>
      <trkpt lat="63.17599" lon="7.93999">
        <ele>79.046052</ele>
        <time>2020-08-04T08:07:53.817Z</time>
      </trkpt>
      <trkpt lat="63.17609" lon="7.94041">
        <ele>78.306145</ele>
        <time>2020-08-04T08:10:03.854Z</time>
      </trkpt>
      <trkpt lat="63.17613" lon="7.94062">
        <ele>77.964314</ele>
        <time>2020-08-04T08:10:06.850Z</time>
      </trkpt>
      <trkpt lat="63.17617" lon="7.94086">
        <ele>77.56086</ele>
        <time>2020-08-04T08:10:09.821Z</time>
      </trkpt>
      <trkpt lat="63.17622" lon="7.94112">
        <ele>77.121091</ele>
        <time>2020-08-04T08:10:12.818Z</time>
      </trkpt>
      <trkpt lat="63.17627" lon="7.94131">
        <ele>76.79963</ele>
        <time>2020-08-04T08:10:14.853Z</time>
      </trkpt>
      <trkpt lat="63.17632" lon="7.94152">
        <ele>76.436503</ele>
        <time>2020-08-04T08:10:16.833Z</time>
      </trkpt>
      <trkpt lat="63.17636" lon="7.94173">
        <ele>76.07081</ele>
        <time>2020-08-04T08:10:18.832Z</time>
      </trkpt>
      <trkpt lat="63.17642" lon="7.94196">
        <ele>75.65909</ele>
        <time>2020-08-04T08:10:20.829Z</time>
      </trkpt>
      <trkpt lat="63.17649" lon="7.94221">
        <ele>75.22825</ele>
        <time>2020-08-04T08:10:22.823Z</time>
      </trkpt>
      <trkpt lat="63.17656" lon="7.94247">
        <ele>74.763218</ele>
        <time>2020-08-04T08:10:24.831Z</time>
      </trkpt>
      <trkpt lat="63.17663" lon="7.94275">
        <ele>74.250363</ele>
        <time>2020-08-04T08:10:26.855Z</time>
      </trkpt>
      <trkpt lat="63.17672" lon="7.94306">
        <ele>73.688601</ele>
        <time>2020-08-04T08:10:28.858Z</time>
      </trkpt>
      <trkpt lat="63.17683" lon="7.94338">
        <ele>72.758043</ele>
        <time>2020-08-04T08:10:30.815Z</time>
      </trkpt>
      <trkpt lat="63.17689" lon="7.94355">
        <ele>72.157379</ele>
        <time>2020-08-04T08:10:31.827Z</time>
      </trkpt>
      <trkpt lat="63.17695" lon="7.94372">
        <ele>71.542136</ele>
        <time>2020-08-04T08:10:32.821Z</time>
      </trkpt>
      <trkpt lat="63.17702" lon="7.94389">
        <ele>70.895769</ele>
        <time>2020-08-04T08:10:33.831Z</time>
      </trkpt>
      <trkpt lat="63.17708" lon="7.94407">
        <ele>70.234412</ele>
        <time>2020-08-04T08:10:34.823Z</time>
      </trkpt>
      <trkpt lat="63.17715" lon="7.94425">
        <ele>69.567041</ele>
        <time>2020-08-04T08:10:35.842Z</time>
      </trkpt>
      <trkpt lat="63.17721" lon="7.94444">
        <ele>68.877367</ele>
        <time>2020-08-04T08:10:36.831Z</time>
      </trkpt>
      <trkpt lat="63.17729" lon="7.94463">
        <ele>68.182267</ele>
        <time>2020-08-04T08:10:37.820Z</time>
      </trkpt>
      <trkpt lat="63.17736" lon="7.94482">
        <ele>67.482803</ele>
        <time>2020-08-04T08:10:38.823Z</time>
      </trkpt>
      <trkpt lat="63.17743" lon="7.94501">
        <ele>66.78334</ele>
        <time>2020-08-04T08:10:39.836Z</time>
      </trkpt>
      <trkpt lat="63.1775" lon="7.94519">
        <ele>66.085716</ele>
        <time>2020-08-04T08:10:40.839Z</time>
      </trkpt>
      <trkpt lat="63.17757" lon="7.94538">
        <ele>65.382179</ele>
        <time>2020-08-04T08:10:41.847Z</time>
      </trkpt>
      <trkpt lat="63.17764" lon="7.94557">
        <ele>64.68676</ele>
        <time>2020-08-04T08:10:42.829Z</time>
      </trkpt>
      <trkpt lat="63.17771" lon="7.94576">
        <ele>63.993541</ele>
        <time>2020-08-04T08:10:43.822Z</time>
      </trkpt>
      <trkpt lat="63.17778" lon="7.94594">
        <ele>63.31124</ele>
        <time>2020-08-04T08:10:44.817Z</time>
      </trkpt>
      <trkpt lat="63.17785" lon="7.94612">
        <ele>62.633414</ele>
        <time>2020-08-04T08:10:45.827Z</time>
      </trkpt>
      <trkpt lat="63.17792" lon="7.94629">
        <ele>61.989893</ele>
        <time>2020-08-04T08:10:46.848Z</time>
      </trkpt>
      <trkpt lat="63.178" lon="7.94645">
        <ele>61.507547</ele>
        <time>2020-08-04T08:10:47.838Z</time>
      </trkpt>
      <trkpt lat="63.17807" lon="7.94662">
        <ele>61.026926</ele>
        <time>2020-08-04T08:10:48.837Z</time>
      </trkpt>
      <trkpt lat="63.17814" lon="7.94679">
        <ele>60.543088</ele>
        <time>2020-08-04T08:10:49.842Z</time>
      </trkpt>
      <trkpt lat="63.17822" lon="7.94695">
        <ele>60.066294</ele>
        <time>2020-08-04T08:10:50.887Z</time>
      </trkpt>
      <trkpt lat="63.17829" lon="7.9471">
        <ele>59.600067</ele>
        <time>2020-08-04T08:10:51.872Z</time>
      </trkpt>
      <trkpt lat="63.17836" lon="7.94725">
        <ele>59.138962</ele>
        <time>2020-08-04T08:10:52.832Z</time>
      </trkpt>
      <trkpt lat="63.17844" lon="7.94739">
        <ele>58.689639</ele>
        <time>2020-08-04T08:10:53.835Z</time>
      </trkpt>
      <trkpt lat="63.17851" lon="7.94753">
        <ele>58.235461</ele>
        <time>2020-08-04T08:10:54.838Z</time>
      </trkpt>
      <trkpt lat="63.17858" lon="7.94767">
        <ele>57.792955</ele>
        <time>2020-08-04T08:10:55.830Z</time>
      </trkpt>
      <trkpt lat="63.17866" lon="7.9478">
        <ele>57.358712</ele>
        <time>2020-08-04T08:10:56.816Z</time>
      </trkpt>
      <trkpt lat="63.17873" lon="7.94792">
        <ele>56.939448</ele>
        <time>2020-08-04T08:10:57.832Z</time>
      </trkpt>
      <trkpt lat="63.1788" lon="7.94804">
        <ele>56.5227</ele>
        <time>2020-08-04T08:10:58.828Z</time>
      </trkpt>
      <trkpt lat="63.17895" lon="7.94826">
        <ele>55.690092</ele>
        <time>2020-08-04T08:11:00.847Z</time>
      </trkpt>
      <trkpt lat="63.1791" lon="7.94847">
        <ele>54.891679</ele>
        <time>2020-08-04T08:11:02.819Z</time>
      </trkpt>
      <trkpt lat="63.17923" lon="7.94866">
        <ele>54.14014</ele>
        <time>2020-08-04T08:11:04.820Z</time>
      </trkpt>
      <trkpt lat="63.17936" lon="7.94884">
        <ele>54.069695</ele>
        <time>2020-08-04T08:11:06.822Z</time>
      </trkpt>
      <trkpt lat="63.17949" lon="7.94899">
        <ele>54.731635</ele>
        <time>2020-08-04T08:11:08.844Z</time>
      </trkpt>
      <trkpt lat="63.1796" lon="7.94915">
        <ele>55.354297</ele>
        <time>2020-08-04T08:11:10.837Z</time>
      </trkpt>
      <trkpt lat="63.17971" lon="7.94929">
        <ele>55.943858</ele>
        <time>2020-08-04T08:11:12.839Z</time>
      </trkpt>
      <trkpt lat="63.17981" lon="7.94943">
        <ele>56.478122</ele>
        <time>2020-08-04T08:11:14.819Z</time>
      </trkpt>
      <trkpt lat="63.17989" lon="7.94954">
        <ele>56.903687</ele>
        <time>2020-08-04T08:11:16.816Z</time>
      </trkpt>
      <trkpt lat="63.18004" lon="7.94975">
        <ele>57.74168</ele>
        <time>2020-08-04T08:13:21.844Z</time>
      </trkpt>
      <trkpt lat="63.18012" lon="7.94988">
        <ele>58.193876</ele>
        <time>2020-08-04T08:13:25.832Z</time>
      </trkpt>
      <trkpt lat="63.18021" lon="7.95005">
        <ele>58.722896</ele>
        <time>2020-08-04T08:13:29.848Z</time>
      </trkpt>
      <trkpt lat="63.18028" lon="7.95025">
        <ele>59.259202</ele>
        <time>2020-08-04T08:13:33.839Z</time>
      </trkpt>
      <trkpt lat="63.18035" lon="7.95047">
        <ele>59.808246</ele>
        <time>2020-08-04T08:13:37.868Z</time>
      </trkpt>
      <trkpt lat="63.18041" lon="7.95069">
        <ele>60.368745</ele>
        <time>2020-08-04T08:13:41.813Z</time>
      </trkpt>
      <trkpt lat="63.18047" lon="7.95087">
        <ele>60.828123</ele>
        <time>2020-08-04T08:13:44.828Z</time>
      </trkpt>
      <trkpt lat="63.18052" lon="7.95105">
        <ele>61.279493</ele>
        <time>2020-08-04T08:13:47.823Z</time>
      </trkpt>
      <trkpt lat="63.18056" lon="7.95125">
        <ele>61.722821</ele>
        <time>2020-08-04T08:13:50.828Z</time>
      </trkpt>
      <trkpt lat="63.18059" lon="7.95144">
        <ele>62.075728</ele>
        <time>2020-08-04T08:13:53.874Z</time>
      </trkpt>
      <trkpt lat="63.18062" lon="7.9517">
        <ele>62.160262</ele>
        <time>2020-08-04T08:13:57.834Z</time>
      </trkpt>
      <trkpt lat="63.18065" lon="7.95191">
        <ele>62.230244</ele>
        <time>2020-08-04T08:14:00.852Z</time>
      </trkpt>
      <trkpt lat="63.18068" lon="7.95214">
        <ele>62.307827</ele>
        <time>2020-08-04T08:14:03.825Z</time>
      </trkpt>
      <trkpt lat="63.18071" lon="7.9524">
        <ele>62.391674</ele>
        <time>2020-08-04T08:14:06.830Z</time>
      </trkpt>
      <trkpt lat="63.18075" lon="7.95265">
        <ele>62.476568</ele>
        <time>2020-08-04T08:14:09.842Z</time>
      </trkpt>
      <trkpt lat="63.18079" lon="7.9529">
        <ele>62.562668</ele>
        <time>2020-08-04T08:14:12.845Z</time>
      </trkpt>
      <trkpt lat="63.18082" lon="7.95315">
        <ele>62.644754</ele>
        <time>2020-08-04T08:14:15.865Z</time>
      </trkpt>
      <trkpt lat="63.18084" lon="7.9534">
        <ele>62.725974</ele>
        <time>2020-08-04T08:14:18.826Z</time>
      </trkpt>
      <trkpt lat="63.18086" lon="7.95365">
        <ele>62.80638</ele>
        <time>2020-08-04T08:14:21.828Z</time>
      </trkpt>
      <trkpt lat="63.18089" lon="7.95388">
        <ele>62.882077</ele>
        <time>2020-08-04T08:14:24.813Z</time>
      </trkpt>
      <trkpt lat="63.18092" lon="7.9541">
        <ele>62.95634</ele>
        <time>2020-08-04T08:14:27.823Z</time>
      </trkpt>
      <trkpt lat="63.18096" lon="7.95431">
        <ele>63.02581</ele>
        <time>2020-08-04T08:14:30.831Z</time>
      </trkpt>
      <trkpt lat="63.18102" lon="7.95451">
        <ele>63.104479</ele>
        <time>2020-08-04T08:14:33.820Z</time>
      </trkpt>
      <trkpt lat="63.18108" lon="7.95468">
        <ele>63.176186</ele>
        <time>2020-08-04T08:14:36.837Z</time>
      </trkpt>
      <trkpt lat="63.18117" lon="7.95487">
        <ele>63.259436</ele>
        <time>2020-08-04T08:14:39.855Z</time>
      </trkpt>
      <trkpt lat="63.18125" lon="7.95501">
        <ele>63.332829</ele>
        <time>2020-08-04T08:14:42.842Z</time>
      </trkpt>
      <trkpt lat="63.18133" lon="7.95516">
        <ele>63.696268</ele>
        <time>2020-08-04T08:14:45.846Z</time>
      </trkpt>
      <trkpt lat="63.18142" lon="7.9553">
        <ele>64.10962</ele>
        <time>2020-08-04T08:14:48.836Z</time>
      </trkpt>
      <trkpt lat="63.18152" lon="7.95544">
        <ele>64.521019</ele>
        <time>2020-08-04T08:14:51.827Z</time>
      </trkpt>
      <trkpt lat="63.18161" lon="7.95558">
        <ele>64.90446</ele>
        <time>2020-08-04T08:14:54.825Z</time>
      </trkpt>
      <trkpt lat="63.18171" lon="7.9557">
        <ele>65.293091</ele>
        <time>2020-08-04T08:14:57.832Z</time>
      </trkpt>
      <trkpt lat="63.1818" lon="7.95583">
        <ele>65.665105</ele>
        <time>2020-08-04T08:15:00.864Z</time>
      </trkpt>
      <trkpt lat="63.18189" lon="7.95594">
        <ele>66.04362</ele>
        <time>2020-08-04T08:15:03.828Z</time>
      </trkpt>
      <trkpt lat="63.18198" lon="7.95607">
        <ele>66.424882</ele>
        <time>2020-08-04T08:15:06.813Z</time>
      </trkpt>
      <trkpt lat="63.18207" lon="7.95621">
        <ele>66.793651</ele>
        <time>2020-08-04T08:15:09.830Z</time>
      </trkpt>
      <trkpt lat="63.18214" lon="7.95635">
        <ele>67.142737</ele>
        <time>2020-08-04T08:15:12.833Z</time>
      </trkpt>
      <trkpt lat="63.1822" lon="7.95651">
        <ele>67.475067</ele>
        <time>2020-08-04T08:15:15.827Z</time>
      </trkpt>
      <trkpt lat="63.18227" lon="7.95666">
        <ele>67.811187</ele>
        <time>2020-08-04T08:15:18.844Z</time>
      </trkpt>
      <trkpt lat="63.18234" lon="7.95685">
        <ele>68.203639</ele>
        <time>2020-08-04T08:15:22.838Z</time>
      </trkpt>
      <trkpt lat="63.18242" lon="7.95703">
        <ele>68.577153</ele>
        <time>2020-08-04T08:15:27.837Z</time>
      </trkpt>
      <trkpt lat="63.18246" lon="7.95721">
        <ele>68.913082</ele>
        <time>2020-08-04T08:15:32.820Z</time>
      </trkpt>
      <trkpt lat="63.18251" lon="7.9574">
        <ele>69.257653</ele>
        <time>2020-08-04T08:15:37.824Z</time>
      </trkpt>
      <trkpt lat="63.18258" lon="7.95756">
        <ele>69.631105</ele>
        <time>2020-08-04T08:15:42.862Z</time>
      </trkpt>
      <trkpt lat="63.18266" lon="7.95772">
        <ele>70.457086</ele>
        <time>2020-08-04T08:15:47.831Z</time>
      </trkpt>
      <trkpt lat="63.18273" lon="7.95786">
        <ele>71.258625</ele>
        <time>2020-08-04T08:15:52.849Z</time>
      </trkpt>
      <trkpt lat="63.18281" lon="7.95801">
        <ele>72.163729</ele>
        <time>2020-08-04T08:15:57.832Z</time>
      </trkpt>
      <trkpt lat="63.18288" lon="7.95816">
        <ele>72.97275</ele>
        <time>2020-08-04T08:16:03.835Z</time>
      </trkpt>
      <trkpt lat="63.18294" lon="7.95831">
        <ele>73.761359</ele>
        <time>2020-08-04T08:16:09.843Z</time>
      </trkpt>
      <trkpt lat="63.183" lon="7.95848">
        <ele>74.531241</ele>
        <time>2020-08-04T08:16:15.814Z</time>
      </trkpt>
      <trkpt lat="63.18305" lon="7.95864">
        <ele>75.294366</ele>
        <time>2020-08-04T08:16:21.815Z</time>
      </trkpt>
      <trkpt lat="63.18311" lon="7.95883">
        <ele>76.183995</ele>
        <time>2020-08-04T08:16:27.858Z</time>
      </trkpt>
      <trkpt lat="63.18316" lon="7.95902">
        <ele>77.00727</ele>
        <time>2020-08-04T08:16:33.838Z</time>
      </trkpt>
      <trkpt lat="63.18322" lon="7.9592">
        <ele>77.863285</ele>
        <time>2020-08-04T08:16:40.847Z</time>
      </trkpt>
      <trkpt lat="63.18329" lon="7.95934">
        <ele>78.663105</ele>
        <time>2020-08-04T08:16:46.836Z</time>
      </trkpt>
      <trkpt lat="63.18335" lon="7.9595">
        <ele>79.480229</ele>
        <time>2020-08-04T08:16:52.833Z</time>
      </trkpt>
      <trkpt lat="63.18342" lon="7.95966">
        <ele>80.294287</ele>
        <time>2020-08-04T08:16:58.848Z</time>
      </trkpt>
      <trkpt lat="63.18349" lon="7.95981">
        <ele>81.14672</ele>
        <time>2020-08-04T08:17:03.823Z</time>
      </trkpt>
      <trkpt lat="63.18357" lon="7.95996">
        <ele>81.992905</ele>
        <time>2020-08-04T08:17:08.822Z</time>
      </trkpt>
      <trkpt lat="63.18364" lon="7.96013">
        <ele>82.866811</ele>
        <time>2020-08-04T08:17:14.829Z</time>
      </trkpt>
      <trkpt lat="63.1837" lon="7.96029">
        <ele>83.695009</ele>
        <time>2020-08-04T08:17:19.840Z</time>
      </trkpt>
      <trkpt lat="63.18377" lon="7.96047">
        <ele>84.605242</ele>
        <time>2020-08-04T08:17:25.848Z</time>
      </trkpt>
      <trkpt lat="63.18385" lon="7.96064">
        <ele>84.781227</ele>
        <time>2020-08-04T08:17:30.827Z</time>
      </trkpt>
      <trkpt lat="63.18392" lon="7.96081">
        <ele>84.702923</ele>
        <time>2020-08-04T08:17:35.909Z</time>
      </trkpt>
      <trkpt lat="63.18398" lon="7.96099">
        <ele>84.62745</ele>
        <time>2020-08-04T08:17:40.821Z</time>
      </trkpt>
      <trkpt lat="63.18406" lon="7.96119">
        <ele>84.542539</ele>
        <time>2020-08-04T08:17:44.831Z</time>
      </trkpt>
      <trkpt lat="63.18411" lon="7.96135">
        <ele>84.476893</ele>
        <time>2020-08-04T08:17:47.820Z</time>
      </trkpt>
      <trkpt lat="63.18417" lon="7.96152">
        <ele>84.404133</ele>
        <time>2020-08-04T08:17:50.848Z</time>
      </trkpt>
      <trkpt lat="63.18424" lon="7.9617">
        <ele>84.33002</ele>
        <time>2020-08-04T08:17:53.839Z</time>
      </trkpt>
      <trkpt lat="63.18431" lon="7.96187">
        <ele>84.250947</ele>
        <time>2020-08-04T08:17:56.835Z</time>
      </trkpt>
      <trkpt lat="63.18439" lon="7.96207">
        <ele>84.164767</ele>
        <time>2020-08-04T08:17:59.853Z</time>
      </trkpt>
      <trkpt lat="63.18447" lon="7.96229">
        <ele>84.06908</ele>
        <time>2020-08-04T08:18:02.830Z</time>
      </trkpt>
      <trkpt lat="63.18453" lon="7.96245">
        <ele>84.002149</ele>
        <time>2020-08-04T08:18:04.855Z</time>
      </trkpt>
      <trkpt lat="63.1846" lon="7.96261">
        <ele>83.930699</ele>
        <time>2020-08-04T08:18:06.817Z</time>
      </trkpt>
      <trkpt lat="63.18466" lon="7.96278">
        <ele>83.85558</ele>
        <time>2020-08-04T08:18:08.828Z</time>
      </trkpt>
      <trkpt lat="63.18473" lon="7.96295">
        <ele>83.781434</ele>
        <time>2020-08-04T08:18:10.847Z</time>
      </trkpt>
      <trkpt lat="63.1848" lon="7.96311">
        <ele>83.706804</ele>
        <time>2020-08-04T08:18:12.823Z</time>
      </trkpt>
      <trkpt lat="63.18487" lon="7.96328">
        <ele>83.634338</ele>
        <time>2020-08-04T08:18:14.817Z</time>
      </trkpt>
      <trkpt lat="63.18494" lon="7.96351">
        <ele>83.541442</ele>
        <time>2020-08-04T08:18:17.822Z</time>
      </trkpt>
      <trkpt lat="63.18501" lon="7.9637">
        <ele>83.885569</ele>
        <time>2020-08-04T08:18:20.836Z</time>
      </trkpt>
      <trkpt lat="63.18507" lon="7.96386">
        <ele>84.275985</ele>
        <time>2020-08-04T08:18:23.813Z</time>
      </trkpt>
      <trkpt lat="63.18514" lon="7.96406">
        <ele>84.754698</ele>
        <time>2020-08-04T08:18:27.822Z</time>
      </trkpt>
      <trkpt lat="63.1852" lon="7.96425">
        <ele>85.209538</ele>
        <time>2020-08-04T08:18:31.823Z</time>
      </trkpt>
      <trkpt lat="63.18526" lon="7.96441">
        <ele>85.605584</ele>
        <time>2020-08-04T08:18:35.824Z</time>
      </trkpt>
      <trkpt lat="63.18532" lon="7.96459">
        <ele>86.048151</ele>
        <time>2020-08-04T08:18:39.852Z</time>
      </trkpt>
      <trkpt lat="63.18539" lon="7.96473">
        <ele>86.441485</ele>
        <time>2020-08-04T08:18:43.842Z</time>
      </trkpt>
      <trkpt lat="63.18546" lon="7.96487">
        <ele>86.826799</ele>
        <time>2020-08-04T08:18:47.836Z</time>
      </trkpt>
      <trkpt lat="63.18553" lon="7.96502">
        <ele>87.240983</ele>
        <time>2020-08-04T08:18:52.834Z</time>
      </trkpt>
      <trkpt lat="63.18558" lon="7.96518">
        <ele>87.624625</ele>
        <time>2020-08-04T08:18:56.842Z</time>
      </trkpt>
      <trkpt lat="63.18564" lon="7.96535">
        <ele>88.04053</ele>
        <time>2020-08-04T08:19:00.834Z</time>
      </trkpt>
      <trkpt lat="63.1857" lon="7.96551">
        <ele>88.436908</ele>
        <time>2020-08-04T08:19:04.853Z</time>
      </trkpt>
      <trkpt lat="63.18576" lon="7.96567">
        <ele>88.828201</ele>
        <time>2020-08-04T08:19:08.859Z</time>
      </trkpt>
      <trkpt lat="63.18582" lon="7.96583">
        <ele>89.218611</ele>
        <time>2020-08-04T08:19:12.830Z</time>
      </trkpt>
      <trkpt lat="63.18588" lon="7.96603">
        <ele>89.665827</ele>
        <time>2020-08-04T08:19:16.853Z</time>
      </trkpt>
      <trkpt lat="63.18594" lon="7.96623">
        <ele>90.152256</ele>
        <time>2020-08-04T08:19:20.832Z</time>
      </trkpt>
      <trkpt lat="63.18601" lon="7.96643">
        <ele>90.616716</ele>
        <time>2020-08-04T08:19:24.862Z</time>
      </trkpt>
      <trkpt lat="63.18607" lon="7.96662">
        <ele>91.057153</ele>
        <time>2020-08-04T08:19:28.816Z</time>
      </trkpt>
      <trkpt lat="63.18612" lon="7.96681">
        <ele>91.288611</ele>
        <time>2020-08-04T08:19:32.821Z</time>
      </trkpt>
      <trkpt lat="63.18617" lon="7.96701">
        <ele>91.473098</ele>
        <time>2020-08-04T08:19:36.817Z</time>
      </trkpt>
      <trkpt lat="63.1862" lon="7.96722">
        <ele>91.661399</ele>
        <time>2020-08-04T08:19:40.822Z</time>
      </trkpt>
      <trkpt lat="63.18624" lon="7.96743">
        <ele>91.850209</ele>
        <time>2020-08-04T08:19:44.834Z</time>
      </trkpt>
      <trkpt lat="63.18629" lon="7.96764">
        <ele>92.043717</ele>
        <time>2020-08-04T08:19:48.820Z</time>
      </trkpt>
      <trkpt lat="63.18634" lon="7.96784">
        <ele>92.225749</ele>
        <time>2020-08-04T08:19:52.852Z</time>
      </trkpt>
      <trkpt lat="63.18638" lon="7.96805">
        <ele>92.416604</ele>
        <time>2020-08-04T08:19:56.836Z</time>
      </trkpt>
      <trkpt lat="63.18642" lon="7.96828">
        <ele>92.6182</ele>
        <time>2020-08-04T08:20:00.843Z</time>
      </trkpt>
      <trkpt lat="63.18646" lon="7.96852">
        <ele>92.834363</ele>
        <time>2020-08-04T08:20:04.824Z</time>
      </trkpt>
      <trkpt lat="63.18649" lon="7.96876">
        <ele>93.042797</ele>
        <time>2020-08-04T08:20:08.854Z</time>
      </trkpt>
      <trkpt lat="63.18653" lon="7.96895">
        <ele>93.211037</ele>
        <time>2020-08-04T08:20:11.839Z</time>
      </trkpt>
      <trkpt lat="63.18655" lon="7.96914">
        <ele>93.376139</ele>
        <time>2020-08-04T08:20:14.827Z</time>
      </trkpt>
      <trkpt lat="63.18657" lon="7.96939">
        <ele>93.587651</ele>
        <time>2020-08-04T08:20:18.819Z</time>
      </trkpt>
      <trkpt lat="63.18659" lon="7.96964">
        <ele>93.795438</ele>
        <time>2020-08-04T08:20:22.826Z</time>
      </trkpt>
      <trkpt lat="63.18662" lon="7.96989">
        <ele>94.009739</ele>
        <time>2020-08-04T08:20:26.823Z</time>
      </trkpt>
      <trkpt lat="63.18664" lon="7.97014">
        <ele>94.215937</ele>
        <time>2020-08-04T08:20:30.831Z</time>
      </trkpt>
      <trkpt lat="63.18665" lon="7.97034">
        <ele>94.385323</ele>
        <time>2020-08-04T08:20:33.822Z</time>
      </trkpt>
      <trkpt lat="63.18667" lon="7.97059">
        <ele>94.441099</ele>
        <time>2020-08-04T08:20:37.837Z</time>
      </trkpt>
      <trkpt lat="63.18666" lon="7.97085">
        <ele>94.449052</ele>
        <time>2020-08-04T08:20:41.831Z</time>
      </trkpt>
      <trkpt lat="63.18667" lon="7.97111">
        <ele>94.456925</ele>
        <time>2020-08-04T08:20:45.851Z</time>
      </trkpt>
      <trkpt lat="63.18669" lon="7.97135">
        <ele>94.464564</ele>
        <time>2020-08-04T08:20:49.829Z</time>
      </trkpt>
      <trkpt lat="63.18671" lon="7.9716">
        <ele>94.472141</ele>
        <time>2020-08-04T08:20:53.856Z</time>
      </trkpt>
      <trkpt lat="63.18674" lon="7.97185">
        <ele>94.479953</ele>
        <time>2020-08-04T08:20:57.840Z</time>
      </trkpt>
      <trkpt lat="63.18676" lon="7.97204">
        <ele>94.486043</ele>
        <time>2020-08-04T08:21:00.827Z</time>
      </trkpt>
      <trkpt lat="63.18677" lon="7.97225">
        <ele>94.492476</ele>
        <time>2020-08-04T08:21:03.826Z</time>
      </trkpt>
      <trkpt lat="63.18679" lon="7.97248">
        <ele>94.49968</ele>
        <time>2020-08-04T08:21:06.826Z</time>
      </trkpt>
      <trkpt lat="63.18681" lon="7.97272">
        <ele>94.507133</ele>
        <time>2020-08-04T08:21:09.851Z</time>
      </trkpt>
      <trkpt lat="63.18682" lon="7.97299">
        <ele>94.515448</ele>
        <time>2020-08-04T08:21:12.831Z</time>
      </trkpt>
      <trkpt lat="63.18684" lon="7.97328">
        <ele>94.524442</ele>
        <time>2020-08-04T08:21:15.832Z</time>
      </trkpt>
      <trkpt lat="63.18685" lon="7.97348">
        <ele>94.530584</ele>
        <time>2020-08-04T08:21:17.811Z</time>
      </trkpt>
      <trkpt lat="63.18686" lon="7.97368">
        <ele>94.53675</ele>
        <time>2020-08-04T08:21:19.817Z</time>
      </trkpt>
      <trkpt lat="63.18687" lon="7.97388">
        <ele>94.54313</ele>
        <time>2020-08-04T08:21:21.831Z</time>
      </trkpt>
      <trkpt lat="63.18688" lon="7.97409">
        <ele>94.549673</ele>
        <time>2020-08-04T08:21:23.836Z</time>
      </trkpt>
      <trkpt lat="63.1869" lon="7.9743">
        <ele>94.555984</ele>
        <time>2020-08-04T08:21:25.832Z</time>
      </trkpt>
      <trkpt lat="63.18691" lon="7.9745">
        <ele>94.474821</ele>
        <time>2020-08-04T08:21:27.838Z</time>
      </trkpt>
      <trkpt lat="63.18693" lon="7.97472">
        <ele>94.366255</ele>
        <time>2020-08-04T08:21:29.820Z</time>
      </trkpt>
      <trkpt lat="63.18695" lon="7.97491">
        <ele>94.263347</ele>
        <time>2020-08-04T08:21:31.829Z</time>
      </trkpt>
      <trkpt lat="63.18697" lon="7.97512">
        <ele>94.156487</ele>
        <time>2020-08-04T08:21:33.823Z</time>
      </trkpt>
      <trkpt lat="63.18699" lon="7.97533">
        <ele>94.048255</ele>
        <time>2020-08-04T08:21:35.851Z</time>
      </trkpt>
      <trkpt lat="63.187" lon="7.97554">
        <ele>93.942506</ele>
        <time>2020-08-04T08:21:37.840Z</time>
      </trkpt>
      <trkpt lat="63.18702" lon="7.97575">
        <ele>93.836756</ele>
        <time>2020-08-04T08:21:39.842Z</time>
      </trkpt>
      <trkpt lat="63.18704" lon="7.97595">
        <ele>93.730883</ele>
        <time>2020-08-04T08:21:41.833Z</time>
      </trkpt>
      <trkpt lat="63.18707" lon="7.97624">
        <ele>93.584263</ele>
        <time>2020-08-04T08:21:44.817Z</time>
      </trkpt>
      <trkpt lat="63.1871" lon="7.97643">
        <ele>93.483851</ele>
        <time>2020-08-04T08:21:46.832Z</time>
      </trkpt>
      <trkpt lat="63.18713" lon="7.97663">
        <ele>93.376768</ele>
        <time>2020-08-04T08:21:48.851Z</time>
      </trkpt>
      <trkpt lat="63.18718" lon="7.97689">
        <ele>93.235375</ele>
        <time>2020-08-04T08:21:51.824Z</time>
      </trkpt>
      <trkpt lat="63.18725" lon="7.97714">
        <ele>93.085784</ele>
        <time>2020-08-04T08:21:54.836Z</time>
      </trkpt>
      <trkpt lat="63.18731" lon="7.9774">
        <ele>92.935561</ele>
        <time>2020-08-04T08:21:57.832Z</time>
      </trkpt>
      <trkpt lat="63.18737" lon="7.97757">
        <ele>92.832661</ele>
        <time>2020-08-04T08:21:59.833Z</time>
      </trkpt>
      <trkpt lat="63.18744" lon="7.97772">
        <ele>92.723789</ele>
        <time>2020-08-04T08:22:01.864Z</time>
      </trkpt>
      <trkpt lat="63.18749" lon="7.97788">
        <ele>92.619648</ele>
        <time>2020-08-04T08:22:03.836Z</time>
      </trkpt>
      <trkpt lat="63.18756" lon="7.97805">
        <ele>92.523238</ele>
        <time>2020-08-04T08:22:05.824Z</time>
      </trkpt>
      <trkpt lat="63.18763" lon="7.97823">
        <ele>92.445535</ele>
        <time>2020-08-04T08:22:07.822Z</time>
      </trkpt>
      <trkpt lat="63.18771" lon="7.97841">
        <ele>92.365904</ele>
        <time>2020-08-04T08:22:09.829Z</time>
      </trkpt>
      <trkpt lat="63.18779" lon="7.97859">
        <ele>92.282647</ele>
        <time>2020-08-04T08:22:11.836Z</time>
      </trkpt>
      <trkpt lat="63.18789" lon="7.97878">
        <ele>92.191281</ele>
        <time>2020-08-04T08:22:13.836Z</time>
      </trkpt>
      <trkpt lat="63.188" lon="7.97896">
        <ele>92.09398</ele>
        <time>2020-08-04T08:22:15.848Z</time>
      </trkpt>
      <trkpt lat="63.18811" lon="7.97916">
        <ele>91.992239</ele>
        <time>2020-08-04T08:22:17.828Z</time>
      </trkpt>
      <trkpt lat="63.18823" lon="7.97937">
        <ele>91.886312</ele>
        <time>2020-08-04T08:22:19.834Z</time>
      </trkpt>
      <trkpt lat="63.18836" lon="7.97958">
        <ele>91.770122</ele>
        <time>2020-08-04T08:22:21.820Z</time>
      </trkpt>
      <trkpt lat="63.18849" lon="7.97981">
        <ele>91.649351</ele>
        <time>2020-08-04T08:22:23.855Z</time>
      </trkpt>
      <trkpt lat="63.18863" lon="7.98004">
        <ele>91.52325</ele>
        <time>2020-08-04T08:22:25.841Z</time>
      </trkpt>
      <trkpt lat="63.18871" lon="7.98017">
        <ele>91.459325</ele>
        <time>2020-08-04T08:22:26.870Z</time>
      </trkpt>
      <trkpt lat="63.18878" lon="7.98029">
        <ele>91.393488</ele>
        <time>2020-08-04T08:22:27.818Z</time>
      </trkpt>
      <trkpt lat="63.18885" lon="7.98042">
        <ele>91.327255</ele>
        <time>2020-08-04T08:22:28.837Z</time>
      </trkpt>
      <trkpt lat="63.18892" lon="7.98055">
        <ele>91.231868</ele>
        <time>2020-08-04T08:22:29.846Z</time>
      </trkpt>
      <trkpt lat="63.18899" lon="7.98068">
        <ele>90.966032</ele>
        <time>2020-08-04T08:22:30.859Z</time>
      </trkpt>
      <trkpt lat="63.18907" lon="7.98081">
        <ele>90.691168</ele>
        <time>2020-08-04T08:22:31.820Z</time>
      </trkpt>
      <trkpt lat="63.18914" lon="7.98094">
        <ele>90.417118</ele>
        <time>2020-08-04T08:22:32.842Z</time>
      </trkpt>
      <trkpt lat="63.18922" lon="7.98107">
        <ele>90.143068</ele>
        <time>2020-08-04T08:22:33.823Z</time>
      </trkpt>
      <trkpt lat="63.18929" lon="7.9812">
        <ele>89.875214</ele>
        <time>2020-08-04T08:22:34.830Z</time>
      </trkpt>
      <trkpt lat="63.18936" lon="7.98133">
        <ele>89.593143</ele>
        <time>2020-08-04T08:22:35.856Z</time>
      </trkpt>
      <trkpt lat="63.18945" lon="7.98147">
        <ele>89.286375</ele>
        <time>2020-08-04T08:22:36.826Z</time>
      </trkpt>
      <trkpt lat="63.18953" lon="7.9816">
        <ele>88.98511</ele>
        <time>2020-08-04T08:22:37.844Z</time>
      </trkpt>
      <trkpt lat="63.18962" lon="7.98174">
        <ele>88.681527</ele>
        <time>2020-08-04T08:22:38.837Z</time>
      </trkpt>
      <trkpt lat="63.1897" lon="7.98187">
        <ele>88.389635</ele>
        <time>2020-08-04T08:22:39.841Z</time>
      </trkpt>
      <trkpt lat="63.18977" lon="7.982">
        <ele>88.114095</ele>
        <time>2020-08-04T08:22:40.835Z</time>
      </trkpt>
      <trkpt lat="63.18984" lon="7.98213">
        <ele>87.845424</ele>
        <time>2020-08-04T08:22:41.818Z</time>
      </trkpt>
      <trkpt lat="63.18992" lon="7.98226">
        <ele>87.570684</ele>
        <time>2020-08-04T08:22:42.849Z</time>
      </trkpt>
      <trkpt lat="63.19" lon="7.98238">
        <ele>87.290509</ele>
        <time>2020-08-04T08:22:43.823Z</time>
      </trkpt>
      <trkpt lat="63.19007" lon="7.98251">
        <ele>87.008779</ele>
        <time>2020-08-04T08:22:44.825Z</time>
      </trkpt>
      <trkpt lat="63.19015" lon="7.98263">
        <ele>86.734777</ele>
        <time>2020-08-04T08:22:45.861Z</time>
      </trkpt>
      <trkpt lat="63.19022" lon="7.98275">
        <ele>86.469361</ele>
        <time>2020-08-04T08:22:46.850Z</time>
      </trkpt>
      <trkpt lat="63.19029" lon="7.98288">
        <ele>86.206604</ele>
        <time>2020-08-04T08:22:47.862Z</time>
      </trkpt>
      <trkpt lat="63.19043" lon="7.98312">
        <ele>85.193121</ele>
        <time>2020-08-04T08:22:49.826Z</time>
      </trkpt>
      <trkpt lat="63.19056" lon="7.98336">
        <ele>83.898673</ele>
        <time>2020-08-04T08:22:51.843Z</time>
      </trkpt>
      <trkpt lat="63.19064" lon="7.98348">
        <ele>83.230598</ele>
        <time>2020-08-04T08:22:52.830Z</time>
      </trkpt>
      <trkpt lat="63.19071" lon="7.9836">
        <ele>82.554721</ele>
        <time>2020-08-04T08:22:53.855Z</time>
      </trkpt>
      <trkpt lat="63.19078" lon="7.98373">
        <ele>81.858903</ele>
        <time>2020-08-04T08:22:54.861Z</time>
      </trkpt>
      <trkpt lat="63.19086" lon="7.98385">
        <ele>81.172528</ele>
        <time>2020-08-04T08:22:55.841Z</time>
      </trkpt>
      <trkpt lat="63.19093" lon="7.98398">
        <ele>80.482659</ele>
        <time>2020-08-04T08:22:56.815Z</time>
      </trkpt>
      <trkpt lat="63.191" lon="7.9841">
        <ele>79.790832</ele>
        <time>2020-08-04T08:22:57.852Z</time>
      </trkpt>
      <trkpt lat="63.19108" lon="7.98422">
        <ele>79.075044</ele>
        <time>2020-08-04T08:22:58.826Z</time>
      </trkpt>
      <trkpt lat="63.19116" lon="7.98435">
        <ele>78.385177</ele>
        <time>2020-08-04T08:22:59.894Z</time>
      </trkpt>
      <trkpt lat="63.19123" lon="7.98448">
        <ele>77.68126</ele>
        <time>2020-08-04T08:23:00.821Z</time>
      </trkpt>
      <trkpt lat="63.1913" lon="7.98461">
        <ele>76.992785</ele>
        <time>2020-08-04T08:23:01.838Z</time>
      </trkpt>
      <trkpt lat="63.19138" lon="7.98474">
        <ele>76.29431</ele>
        <time>2020-08-04T08:23:02.860Z</time>
      </trkpt>
      <trkpt lat="63.19145" lon="7.98487">
        <ele>75.580041</ele>
        <time>2020-08-04T08:23:03.825Z</time>
      </trkpt>
      <trkpt lat="63.19152" lon="7.985">
        <ele>74.887333</ele>
        <time>2020-08-04T08:23:04.829Z</time>
      </trkpt>
      <trkpt lat="63.1916" lon="7.98513">
        <ele>74.171379</ele>
        <time>2020-08-04T08:23:05.829Z</time>
      </trkpt>
      <trkpt lat="63.19168" lon="7.98526">
        <ele>73.423735</ele>
        <time>2020-08-04T08:23:06.821Z</time>
      </trkpt>
      <trkpt lat="63.19176" lon="7.98539">
        <ele>72.661859</ele>
        <time>2020-08-04T08:23:07.843Z</time>
      </trkpt>
      <trkpt lat="63.19185" lon="7.98553">
        <ele>72.223104</ele>
        <time>2020-08-04T08:23:08.847Z</time>
      </trkpt>
      <trkpt lat="63.19193" lon="7.98566">
        <ele>71.785507</ele>
        <time>2020-08-04T08:23:09.837Z</time>
      </trkpt>
      <trkpt lat="63.192" lon="7.9858">
        <ele>71.360326</ele>
        <time>2020-08-04T08:23:10.839Z</time>
      </trkpt>
      <trkpt lat="63.19208" lon="7.98594">
        <ele>70.935146</ele>
        <time>2020-08-04T08:23:11.874Z</time>
      </trkpt>
      <trkpt lat="63.19216" lon="7.98607">
        <ele>70.506817</ele>
        <time>2020-08-04T08:23:12.855Z</time>
      </trkpt>
      <trkpt lat="63.19223" lon="7.98621">
        <ele>70.081637</ele>
        <time>2020-08-04T08:23:13.844Z</time>
      </trkpt>
      <trkpt lat="63.19231" lon="7.98635">
        <ele>69.660639</ele>
        <time>2020-08-04T08:23:14.859Z</time>
      </trkpt>
      <trkpt lat="63.19238" lon="7.98648">
        <ele>69.240903</ele>
        <time>2020-08-04T08:23:15.839Z</time>
      </trkpt>
      <trkpt lat="63.19245" lon="7.98662">
        <ele>68.821563</ele>
        <time>2020-08-04T08:23:16.854Z</time>
      </trkpt>
      <trkpt lat="63.19253" lon="7.98675">
        <ele>68.393236</ele>
        <time>2020-08-04T08:23:17.837Z</time>
      </trkpt>
      <trkpt lat="63.19261" lon="7.98689">
        <ele>67.971739</ele>
        <time>2020-08-04T08:23:18.835Z</time>
      </trkpt>
      <trkpt lat="63.19268" lon="7.98702">
        <ele>67.552668</ele>
        <time>2020-08-04T08:23:19.834Z</time>
      </trkpt>
      <trkpt lat="63.19276" lon="7.98715">
        <ele>67.134916</ele>
        <time>2020-08-04T08:23:20.844Z</time>
      </trkpt>
      <trkpt lat="63.19283" lon="7.98728">
        <ele>66.733965</ele>
        <time>2020-08-04T08:23:21.820Z</time>
      </trkpt>
      <trkpt lat="63.1929" lon="7.98741">
        <ele>66.338855</ele>
        <time>2020-08-04T08:23:22.838Z</time>
      </trkpt>
      <trkpt lat="63.19304" lon="7.98766">
        <ele>65.573249</ele>
        <time>2020-08-04T08:23:24.852Z</time>
      </trkpt>
      <trkpt lat="63.19317" lon="7.98789">
        <ele>64.858137</ele>
        <time>2020-08-04T08:23:26.833Z</time>
      </trkpt>
      <trkpt lat="63.19331" lon="7.98811">
        <ele>65.190052</ele>
        <time>2020-08-04T08:23:28.872Z</time>
      </trkpt>
      <trkpt lat="63.19342" lon="7.98832">
        <ele>65.487618</ele>
        <time>2020-08-04T08:23:30.857Z</time>
      </trkpt>
      <trkpt lat="63.19353" lon="7.98852">
        <ele>65.765685</ele>
        <time>2020-08-04T08:23:32.873Z</time>
      </trkpt>
      <trkpt lat="63.19364" lon="7.98872">
        <ele>66.035593</ele>
        <time>2020-08-04T08:23:34.844Z</time>
      </trkpt>
      <trkpt lat="63.19373" lon="7.9889">
        <ele>66.286576</ele>
        <time>2020-08-04T08:23:36.831Z</time>
      </trkpt>
      <trkpt lat="63.19382" lon="7.98906">
        <ele>66.516198</ele>
        <time>2020-08-04T08:23:38.827Z</time>
      </trkpt>
      <trkpt lat="63.1939" lon="7.98923">
        <ele>66.737731</ele>
        <time>2020-08-04T08:23:40.821Z</time>
      </trkpt>
      <trkpt lat="63.19398" lon="7.98939">
        <ele>66.949586</ele>
        <time>2020-08-04T08:23:42.888Z</time>
      </trkpt>
      <trkpt lat="63.19406" lon="7.98956">
        <ele>67.161896</ele>
        <time>2020-08-04T08:23:44.852Z</time>
      </trkpt>
      <trkpt lat="63.19413" lon="7.98973">
        <ele>67.378137</ele>
        <time>2020-08-04T08:23:46.827Z</time>
      </trkpt>
      <trkpt lat="63.1942" lon="7.98991">
        <ele>67.590117</ele>
        <time>2020-08-04T08:23:48.839Z</time>
      </trkpt>
      <trkpt lat="63.19427" lon="7.99008">
        <ele>67.798805</ele>
        <time>2020-08-04T08:23:50.838Z</time>
      </trkpt>
      <trkpt lat="63.19434" lon="7.99026">
        <ele>68.011497</ele>
        <time>2020-08-04T08:23:52.841Z</time>
      </trkpt>
      <trkpt lat="63.19441" lon="7.99044">
        <ele>68.222809</ele>
        <time>2020-08-04T08:23:54.846Z</time>
      </trkpt>
      <trkpt lat="63.19448" lon="7.99062">
        <ele>68.418041</ele>
        <time>2020-08-04T08:23:56.851Z</time>
      </trkpt>
      <trkpt lat="63.19454" lon="7.99081">
        <ele>68.430833</ele>
        <time>2020-08-04T08:23:58.834Z</time>
      </trkpt>
      <trkpt lat="63.1946" lon="7.99102">
        <ele>68.443634</ele>
        <time>2020-08-04T08:24:00.844Z</time>
      </trkpt>
      <trkpt lat="63.19465" lon="7.99124">
        <ele>68.457283</ele>
        <time>2020-08-04T08:24:02.835Z</time>
      </trkpt>
      <trkpt lat="63.19471" lon="7.99146">
        <ele>68.471051</ele>
        <time>2020-08-04T08:24:04.829Z</time>
      </trkpt>
      <trkpt lat="63.19476" lon="7.99169">
        <ele>68.485144</ele>
        <time>2020-08-04T08:24:06.839Z</time>
      </trkpt>
      <trkpt lat="63.19482" lon="7.99194">
        <ele>68.49981</ele>
        <time>2020-08-04T08:24:08.833Z</time>
      </trkpt>
      <trkpt lat="63.19486" lon="7.9922">
        <ele>68.514721</ele>
        <time>2020-08-04T08:24:10.821Z</time>
      </trkpt>
      <trkpt lat="63.19491" lon="7.99245">
        <ele>68.529437</ele>
        <time>2020-08-04T08:24:12.846Z</time>
      </trkpt>
      <trkpt lat="63.19496" lon="7.9927">
        <ele>68.544395</ele>
        <time>2020-08-04T08:24:14.854Z</time>
      </trkpt>
      <trkpt lat="63.19501" lon="7.99297">
        <ele>68.559898</ele>
        <time>2020-08-04T08:24:16.832Z</time>
      </trkpt>
      <trkpt lat="63.19506" lon="7.99324">
        <ele>68.575599</ele>
        <time>2020-08-04T08:24:18.848Z</time>
      </trkpt>
      <trkpt lat="63.19511" lon="7.99351">
        <ele>68.591106</ele>
        <time>2020-08-04T08:24:20.833Z</time>
      </trkpt>
      <trkpt lat="63.19516" lon="7.99378">
        <ele>68.606718</ele>
        <time>2020-08-04T08:24:22.842Z</time>
      </trkpt>
      <trkpt lat="63.19521" lon="7.99406">
        <ele>68.623296</ele>
        <time>2020-08-04T08:24:24.835Z</time>
      </trkpt>
      <trkpt lat="63.19527" lon="7.99434">
        <ele>68.381994</ele>
        <time>2020-08-04T08:24:26.836Z</time>
      </trkpt>
      <trkpt lat="63.19533" lon="7.99462">
        <ele>67.868625</ele>
        <time>2020-08-04T08:24:28.841Z</time>
      </trkpt>
      <trkpt lat="63.19538" lon="7.99489">
        <ele>67.371376</ele>
        <time>2020-08-04T08:24:30.843Z</time>
      </trkpt>
      <trkpt lat="63.19543" lon="7.99518">
        <ele>66.858668</ele>
        <time>2020-08-04T08:24:32.849Z</time>
      </trkpt>
      <trkpt lat="63.19549" lon="7.99546">
        <ele>66.339156</ele>
        <time>2020-08-04T08:24:34.842Z</time>
      </trkpt>
      <trkpt lat="63.19554" lon="7.99575">
        <ele>65.808963</ele>
        <time>2020-08-04T08:24:36.819Z</time>
      </trkpt>
      <trkpt lat="63.1956" lon="7.99604">
        <ele>65.27877</ele>
        <time>2020-08-04T08:24:38.840Z</time>
      </trkpt>
      <trkpt lat="63.19566" lon="7.99633">
        <ele>64.748391</ele>
        <time>2020-08-04T08:24:40.840Z</time>
      </trkpt>
      <trkpt lat="63.19571" lon="7.99662">
        <ele>64.205822</ele>
        <time>2020-08-04T08:24:42.835Z</time>
      </trkpt>
      <trkpt lat="63.19577" lon="7.99692">
        <ele>63.658494</ele>
        <time>2020-08-04T08:24:44.830Z</time>
      </trkpt>
      <trkpt lat="63.19582" lon="7.99722">
        <ele>63.124517</ele>
        <time>2020-08-04T08:24:46.847Z</time>
      </trkpt>
      <trkpt lat="63.19587" lon="7.99752">
        <ele>62.5866</ele>
        <time>2020-08-04T08:24:48.855Z</time>
      </trkpt>
      <trkpt lat="63.19593" lon="7.99781">
        <ele>62.047218</ele>
        <time>2020-08-04T08:24:50.828Z</time>
      </trkpt>
      <trkpt lat="63.19599" lon="7.99809">
        <ele>61.712275</ele>
        <time>2020-08-04T08:24:52.824Z</time>
      </trkpt>
      <trkpt lat="63.19605" lon="7.99837">
        <ele>61.442275</ele>
        <time>2020-08-04T08:24:54.827Z</time>
      </trkpt>
      <trkpt lat="63.19612" lon="7.99863">
        <ele>61.171181</ele>
        <time>2020-08-04T08:24:56.840Z</time>
      </trkpt>
      <trkpt lat="63.19622" lon="7.99887">
        <ele>60.883464</ele>
        <time>2020-08-04T08:24:58.830Z</time>
      </trkpt>
      <trkpt lat="63.1963" lon="7.99915">
        <ele>60.597677</ele>
        <time>2020-08-04T08:25:00.856Z</time>
      </trkpt>
      <trkpt lat="63.19634" lon="7.99944">
        <ele>60.324462</ele>
        <time>2020-08-04T08:25:02.822Z</time>
      </trkpt>
      <trkpt lat="63.1964" lon="7.9997">
        <ele>60.062553</ele>
        <time>2020-08-04T08:25:04.817Z</time>
      </trkpt>
      <trkpt lat="63.19646" lon="7.99997">
        <ele>59.796169</ele>
        <time>2020-08-04T08:25:06.829Z</time>
      </trkpt>
      <trkpt lat="63.19653" lon="8.00024">
        <ele>59.525854</ele>
        <time>2020-08-04T08:25:08.844Z</time>
      </trkpt>
      <trkpt lat="63.1966" lon="8.0005">
        <ele>59.260141</ele>
        <time>2020-08-04T08:25:10.857Z</time>
      </trkpt>
      <trkpt lat="63.19667" lon="8.00074">
        <ele>58.996414</ele>
        <time>2020-08-04T08:25:12.817Z</time>
      </trkpt>
      <trkpt lat="63.19675" lon="8.00098">
        <ele>58.738647</ele>
        <time>2020-08-04T08:25:14.835Z</time>
      </trkpt>
      <trkpt lat="63.19682" lon="8.00121">
        <ele>58.482976</ele>
        <time>2020-08-04T08:25:16.826Z</time>
      </trkpt>
      <trkpt lat="63.1969" lon="8.00145">
        <ele>58.299306</ele>
        <time>2020-08-04T08:25:18.833Z</time>
      </trkpt>
      <trkpt lat="63.19699" lon="8.00168">
        <ele>58.149532</ele>
        <time>2020-08-04T08:25:20.871Z</time>
      </trkpt>
      <trkpt lat="63.19708" lon="8.00191">
        <ele>58.004779</ele>
        <time>2020-08-04T08:25:22.829Z</time>
      </trkpt>
      <trkpt lat="63.19716" lon="8.00212">
        <ele>57.869721</ele>
        <time>2020-08-04T08:25:24.839Z</time>
      </trkpt>
      <trkpt lat="63.19724" lon="8.00234">
        <ele>57.730129</ele>
        <time>2020-08-04T08:25:26.832Z</time>
      </trkpt>
      <trkpt lat="63.19732" lon="8.00255">
        <ele>57.598911</ele>
        <time>2020-08-04T08:25:28.828Z</time>
      </trkpt>
      <trkpt lat="63.19739" lon="8.00275">
        <ele>57.471414</ele>
        <time>2020-08-04T08:25:30.849Z</time>
      </trkpt>
      <trkpt lat="63.19747" lon="8.00296">
        <ele>57.342395</ele>
        <time>2020-08-04T08:25:32.834Z</time>
      </trkpt>
      <trkpt lat="63.19754" lon="8.00317">
        <ele>57.212762</ele>
        <time>2020-08-04T08:25:34.827Z</time>
      </trkpt>
      <trkpt lat="63.1976" lon="8.00339">
        <ele>57.086902</ele>
        <time>2020-08-04T08:25:36.859Z</time>
      </trkpt>
      <trkpt lat="63.19766" lon="8.00361">
        <ele>56.961551</ele>
        <time>2020-08-04T08:25:38.872Z</time>
      </trkpt>
      <trkpt lat="63.19772" lon="8.00382">
        <ele>56.840649</ele>
        <time>2020-08-04T08:25:40.821Z</time>
      </trkpt>
      <trkpt lat="63.19778" lon="8.00403">
        <ele>56.722538</ele>
        <time>2020-08-04T08:25:42.822Z</time>
      </trkpt>
      <trkpt lat="63.19783" lon="8.00423">
        <ele>56.607467</ele>
        <time>2020-08-04T08:25:44.858Z</time>
      </trkpt>
      <trkpt lat="63.19788" lon="8.00443">
        <ele>56.499494</ele>
        <time>2020-08-04T08:25:46.821Z</time>
      </trkpt>
      <trkpt lat="63.19793" lon="8.00463">
        <ele>56.521528</ele>
        <time>2020-08-04T08:25:48.831Z</time>
      </trkpt>
      <trkpt lat="63.19798" lon="8.00482">
        <ele>56.655794</ele>
        <time>2020-08-04T08:25:50.866Z</time>
      </trkpt>
      <trkpt lat="63.19802" lon="8.005">
        <ele>56.781295</ele>
        <time>2020-08-04T08:25:52.834Z</time>
      </trkpt>
      <trkpt lat="63.19806" lon="8.00519">
        <ele>56.907264</ele>
        <time>2020-08-04T08:25:54.871Z</time>
      </trkpt>
      <trkpt lat="63.19811" lon="8.00537">
        <ele>57.032227</ele>
        <time>2020-08-04T08:25:56.856Z</time>
      </trkpt>
      <trkpt lat="63.19815" lon="8.00556">
        <ele>57.155971</ele>
        <time>2020-08-04T08:25:58.820Z</time>
      </trkpt>
      <trkpt lat="63.19819" lon="8.00574">
        <ele>57.282434</ele>
        <time>2020-08-04T08:26:00.849Z</time>
      </trkpt>
      <trkpt lat="63.19823" lon="8.00593">
        <ele>57.405006</ele>
        <time>2020-08-04T08:26:02.819Z</time>
      </trkpt>
      <trkpt lat="63.19826" lon="8.00611">
        <ele>57.528111</ele>
        <time>2020-08-04T08:26:04.835Z</time>
      </trkpt>
      <trkpt lat="63.19832" lon="8.00637">
        <ele>57.702571</ele>
        <time>2020-08-04T08:26:07.849Z</time>
      </trkpt>
      <trkpt lat="63.19837" lon="8.00664">
        <ele>57.879784</ele>
        <time>2020-08-04T08:26:10.845Z</time>
      </trkpt>
      <trkpt lat="63.19843" lon="8.00691">
        <ele>58.059893</ele>
        <time>2020-08-04T08:26:13.847Z</time>
      </trkpt>
      <trkpt lat="63.19848" lon="8.00718">
        <ele>58.237684</ele>
        <time>2020-08-04T08:26:16.830Z</time>
      </trkpt>
      <trkpt lat="63.19853" lon="8.00745">
        <ele>58.41427</ele>
        <time>2020-08-04T08:26:19.820Z</time>
      </trkpt>
      <trkpt lat="63.19858" lon="8.00772">
        <ele>58.58982</ele>
        <time>2020-08-04T08:26:22.826Z</time>
      </trkpt>
      <trkpt lat="63.19862" lon="8.00797">
        <ele>58.755354</ele>
        <time>2020-08-04T08:26:25.815Z</time>
      </trkpt>
      <trkpt lat="63.19867" lon="8.00822">
        <ele>58.991609</ele>
        <time>2020-08-04T08:26:28.833Z</time>
      </trkpt>
      <trkpt lat="63.1987" lon="8.00848">
        <ele>59.391549</ele>
        <time>2020-08-04T08:26:31.847Z</time>
      </trkpt>
      <trkpt lat="63.19873" lon="8.00872">
        <ele>59.776937</ele>
        <time>2020-08-04T08:26:34.823Z</time>
      </trkpt>
      <trkpt lat="63.19875" lon="8.00896">
        <ele>60.152288</ele>
        <time>2020-08-04T08:26:37.850Z</time>
      </trkpt>
      <trkpt lat="63.19878" lon="8.0092">
        <ele>60.514077</ele>
        <time>2020-08-04T08:26:40.832Z</time>
      </trkpt>
      <trkpt lat="63.19881" lon="8.00942">
        <ele>60.871508</ele>
        <time>2020-08-04T08:26:43.823Z</time>
      </trkpt>
      <trkpt lat="63.19883" lon="8.00965">
        <ele>61.211833</ele>
        <time>2020-08-04T08:26:46.858Z</time>
      </trkpt>
      <trkpt lat="63.19885" lon="8.00987">
        <ele>61.551833</ele>
        <time>2020-08-04T08:26:49.858Z</time>
      </trkpt>
      <trkpt lat="63.19887" lon="8.01007">
        <ele>61.871243</ele>
        <time>2020-08-04T08:26:52.854Z</time>
      </trkpt>
      <trkpt lat="63.1989" lon="8.01032">
        <ele>62.260113</ele>
        <time>2020-08-04T08:26:56.833Z</time>
      </trkpt>
      <trkpt lat="63.19893" lon="8.01056">
        <ele>62.639993</ele>
        <time>2020-08-04T08:27:00.849Z</time>
      </trkpt>
      <trkpt lat="63.19895" lon="8.0108">
        <ele>63.00407</ele>
        <time>2020-08-04T08:27:04.839Z</time>
      </trkpt>
      <trkpt lat="63.19897" lon="8.01103">
        <ele>63.352416</ele>
        <time>2020-08-04T08:27:08.835Z</time>
      </trkpt>
      <trkpt lat="63.19898" lon="8.01124">
        <ele>63.668802</ele>
        <time>2020-08-04T08:27:12.824Z</time>
      </trkpt>
      <trkpt lat="63.19898" lon="8.01147">
        <ele>64.01924</ele>
        <time>2020-08-04T08:27:16.833Z</time>
      </trkpt>
      <trkpt lat="63.199" lon="8.01171">
        <ele>64.380945</ele>
        <time>2020-08-04T08:27:20.835Z</time>
      </trkpt>
      <trkpt lat="63.19902" lon="8.01193">
        <ele>64.73198</ele>
        <time>2020-08-04T08:27:24.847Z</time>
      </trkpt>
      <trkpt lat="63.19905" lon="8.01215">
        <ele>64.980211</ele>
        <time>2020-08-04T08:27:28.852Z</time>
      </trkpt>
      <trkpt lat="63.19913" lon="8.01233">
        <ele>65.171619</ele>
        <time>2020-08-04T08:27:32.835Z</time>
      </trkpt>
      <trkpt lat="63.19923" lon="8.01245">
        <ele>65.368345</ele>
        <time>2020-08-04T08:27:35.875Z</time>
      </trkpt>
      <trkpt lat="63.19933" lon="8.01261">
        <ele>65.587822</ele>
        <time>2020-08-04T08:27:38.885Z</time>
      </trkpt>
      <trkpt lat="63.19941" lon="8.0128">
        <ele>65.789111</ele>
        <time>2020-08-04T08:27:41.840Z</time>
      </trkpt>
      <trkpt lat="63.19949" lon="8.013">
        <ele>65.996198</ele>
        <time>2020-08-04T08:27:44.849Z</time>
      </trkpt>
      <trkpt lat="63.19956" lon="8.0132">
        <ele>66.190154</ele>
        <time>2020-08-04T08:27:47.854Z</time>
      </trkpt>
      <trkpt lat="63.19962" lon="8.01337">
        <ele>66.364525</ele>
        <time>2020-08-04T08:27:50.817Z</time>
      </trkpt>
      <trkpt lat="63.19968" lon="8.01354">
        <ele>66.532188</ele>
        <time>2020-08-04T08:27:53.821Z</time>
      </trkpt>
      <trkpt lat="63.19974" lon="8.01371">
        <ele>66.690314</ele>
        <time>2020-08-04T08:27:56.819Z</time>
      </trkpt>
      <trkpt lat="63.1998" lon="8.01387">
        <ele>66.853223</ele>
        <time>2020-08-04T08:27:59.836Z</time>
      </trkpt>
      <trkpt lat="63.19988" lon="8.01403">
        <ele>67.043137</ele>
        <time>2020-08-04T08:28:02.874Z</time>
      </trkpt>
      <trkpt lat="63.19997" lon="8.01425">
        <ele>67.273321</ele>
        <time>2020-08-04T08:28:05.870Z</time>
      </trkpt>
      <trkpt lat="63.20006" lon="8.01445">
        <ele>67.487954</ele>
        <time>2020-08-04T08:28:08.859Z</time>
      </trkpt>
      <trkpt lat="63.20013" lon="8.0147">
        <ele>67.722229</ele>
        <time>2020-08-04T08:28:11.841Z</time>
      </trkpt>
      <trkpt lat="63.20018" lon="8.01492">
        <ele>67.913026</ele>
        <time>2020-08-04T08:28:13.826Z</time>
      </trkpt>
      <trkpt lat="63.20023" lon="8.01513">
        <ele>67.779455</ele>
        <time>2020-08-04T08:28:15.878Z</time>
      </trkpt>
      <trkpt lat="63.20027" lon="8.01538">
        <ele>67.399473</ele>
        <time>2020-08-04T08:28:17.831Z</time>
      </trkpt>
      <trkpt lat="63.20027" lon="8.01563">
        <ele>67.040999</ele>
        <time>2020-08-04T08:28:19.819Z</time>
      </trkpt>
      <trkpt lat="63.20028" lon="8.01589">
        <ele>66.672626</ele>
        <time>2020-08-04T08:28:21.855Z</time>
      </trkpt>
      <trkpt lat="63.20028" lon="8.01617">
        <ele>66.27156</ele>
        <time>2020-08-04T08:28:23.821Z</time>
      </trkpt>
      <trkpt lat="63.20028" lon="8.01644">
        <ele>65.873186</ele>
        <time>2020-08-04T08:28:25.828Z</time>
      </trkpt>
      <trkpt lat="63.20028" lon="8.01672">
        <ele>65.474813</ele>
        <time>2020-08-04T08:28:27.882Z</time>
      </trkpt>
      <trkpt lat="63.20026" lon="8.01699">
        <ele>65.085219</ele>
        <time>2020-08-04T08:28:29.831Z</time>
      </trkpt>
      <trkpt lat="63.20025" lon="8.01724">
        <ele>64.710014</ele>
        <time>2020-08-04T08:28:31.848Z</time>
      </trkpt>
      <trkpt lat="63.20023" lon="8.0175">
        <ele>64.335287</ele>
        <time>2020-08-04T08:28:33.819Z</time>
      </trkpt>
      <trkpt lat="63.20022" lon="8.01774">
        <ele>63.99014</ele>
        <time>2020-08-04T08:28:35.860Z</time>
      </trkpt>
      <trkpt lat="63.20021" lon="8.01796">
        <ele>63.673681</ele>
        <time>2020-08-04T08:28:37.837Z</time>
      </trkpt>
      <trkpt lat="63.20021" lon="8.01818">
        <ele>63.353415</ele>
        <time>2020-08-04T08:28:39.861Z</time>
      </trkpt>
      <trkpt lat="63.20021" lon="8.0184">
        <ele>63.030927</ele>
        <time>2020-08-04T08:28:41.843Z</time>
      </trkpt>
      <trkpt lat="63.20023" lon="8.01862">
        <ele>62.712621</ele>
        <time>2020-08-04T08:28:43.848Z</time>
      </trkpt>
      <trkpt lat="63.20025" lon="8.01883">
        <ele>62.393842</ele>
        <time>2020-08-04T08:28:45.828Z</time>
      </trkpt>
      <trkpt lat="63.2003" lon="8.01905">
        <ele>62.014169</ele>
        <time>2020-08-04T08:28:47.832Z</time>
      </trkpt>
      <trkpt lat="63.20036" lon="8.01928">
        <ele>61.541923</ele>
        <time>2020-08-04T08:28:49.829Z</time>
      </trkpt>
      <trkpt lat="63.20043" lon="8.01953">
        <ele>61.016731</ele>
        <time>2020-08-04T08:28:51.845Z</time>
      </trkpt>
      <trkpt lat="63.20052" lon="8.01983">
        <ele>60.37936</ele>
        <time>2020-08-04T08:28:53.821Z</time>
      </trkpt>
      <trkpt lat="63.20062" lon="8.02017">
        <ele>59.664334</ele>
        <time>2020-08-04T08:28:55.831Z</time>
      </trkpt>
      <trkpt lat="63.20067" lon="8.02036">
        <ele>59.282331</ele>
        <time>2020-08-04T08:28:56.841Z</time>
      </trkpt>
      <trkpt lat="63.20072" lon="8.02055">
        <ele>58.884761</ele>
        <time>2020-08-04T08:28:57.831Z</time>
      </trkpt>
      <trkpt lat="63.20077" lon="8.02074">
        <ele>58.495781</ele>
        <time>2020-08-04T08:28:58.823Z</time>
      </trkpt>
      <trkpt lat="63.20082" lon="8.02093">
        <ele>58.116155</ele>
        <time>2020-08-04T08:28:59.852Z</time>
      </trkpt>
      <trkpt lat="63.20086" lon="8.02111">
        <ele>57.738706</ele>
        <time>2020-08-04T08:29:00.868Z</time>
      </trkpt>
      <trkpt lat="63.20091" lon="8.0213">
        <ele>57.374279</ele>
        <time>2020-08-04T08:29:01.838Z</time>
      </trkpt>
      <trkpt lat="63.20099" lon="8.02164">
        <ele>56.699019</ele>
        <time>2020-08-04T08:29:03.876Z</time>
      </trkpt>
      <trkpt lat="63.20106" lon="8.02194">
        <ele>56.090509</ele>
        <time>2020-08-04T08:29:05.863Z</time>
      </trkpt>
      <trkpt lat="63.20113" lon="8.02222">
        <ele>55.517376</ele>
        <time>2020-08-04T08:29:07.823Z</time>
      </trkpt>
      <trkpt lat="63.2012" lon="8.02248">
        <ele>55.096364</ele>
        <time>2020-08-04T08:29:09.846Z</time>
      </trkpt>
      <trkpt lat="63.20126" lon="8.02271">
        <ele>54.87395</ele>
        <time>2020-08-04T08:29:11.853Z</time>
      </trkpt>
      <trkpt lat="63.20131" lon="8.02292">
        <ele>54.670686</ele>
        <time>2020-08-04T08:29:13.838Z</time>
      </trkpt>
      <trkpt lat="63.20134" lon="8.02314">
        <ele>54.482525</ele>
        <time>2020-08-04T08:29:15.839Z</time>
      </trkpt>
      <trkpt lat="63.20138" lon="8.02333">
        <ele>54.304026</ele>
        <time>2020-08-04T08:29:17.858Z</time>
      </trkpt>
      <trkpt lat="63.20141" lon="8.02353">
        <ele>54.124396</ele>
        <time>2020-08-04T08:29:19.836Z</time>
      </trkpt>
      <trkpt lat="63.20145" lon="8.02373">
        <ele>53.945192</ele>
        <time>2020-08-04T08:29:21.848Z</time>
      </trkpt>
      <trkpt lat="63.2015" lon="8.02391">
        <ele>53.769757</ele>
        <time>2020-08-04T08:29:23.823Z</time>
      </trkpt>
      <trkpt lat="63.20153" lon="8.02411">
        <ele>53.589853</ele>
        <time>2020-08-04T08:29:25.853Z</time>
      </trkpt>
      <trkpt lat="63.20157" lon="8.02431">
        <ele>53.404503</ele>
        <time>2020-08-04T08:29:27.821Z</time>
      </trkpt>
      <trkpt lat="63.20161" lon="8.02452">
        <ele>53.215843</ele>
        <time>2020-08-04T08:29:29.833Z</time>
      </trkpt>
      <trkpt lat="63.20164" lon="8.02475">
        <ele>53.016574</ele>
        <time>2020-08-04T08:29:31.878Z</time>
      </trkpt>
      <trkpt lat="63.20168" lon="8.02498">
        <ele>52.809547</ele>
        <time>2020-08-04T08:29:33.838Z</time>
      </trkpt>
      <trkpt lat="63.20172" lon="8.02523">
        <ele>52.591981</ele>
        <time>2020-08-04T08:29:35.835Z</time>
      </trkpt>
      <trkpt lat="63.20176" lon="8.02549">
        <ele>52.353795</ele>
        <time>2020-08-04T08:29:37.826Z</time>
      </trkpt>
      <trkpt lat="63.20181" lon="8.02578">
        <ele>52.090721</ele>
        <time>2020-08-04T08:29:39.816Z</time>
      </trkpt>
      <trkpt lat="63.20186" lon="8.02608">
        <ele>51.852779</ele>
        <time>2020-08-04T08:29:41.860Z</time>
      </trkpt>
      <trkpt lat="63.20192" lon="8.02635">
        <ele>52.103936</ele>
        <time>2020-08-04T08:29:43.833Z</time>
      </trkpt>
      <trkpt lat="63.20196" lon="8.02659">
        <ele>52.324241</ele>
        <time>2020-08-04T08:29:45.831Z</time>
      </trkpt>
      <trkpt lat="63.20199" lon="8.02682">
        <ele>52.53471</ele>
        <time>2020-08-04T08:29:47.856Z</time>
      </trkpt>
      <trkpt lat="63.20203" lon="8.02707">
        <ele>52.757416</ele>
        <time>2020-08-04T08:29:49.835Z</time>
      </trkpt>
      <trkpt lat="63.20207" lon="8.02731">
        <ele>52.975156</ele>
        <time>2020-08-04T08:29:51.834Z</time>
      </trkpt>
      <trkpt lat="63.20211" lon="8.02752">
        <ele>53.170131</ele>
        <time>2020-08-04T08:29:53.821Z</time>
      </trkpt>
      <trkpt lat="63.20215" lon="8.02772">
        <ele>53.361282</ele>
        <time>2020-08-04T08:29:56.833Z</time>
      </trkpt>
      <trkpt lat="63.20219" lon="8.02794">
        <ele>53.557991</ele>
        <time>2020-08-04T08:30:01.850Z</time>
      </trkpt>
      <trkpt lat="63.20222" lon="8.02813">
        <ele>53.738291</ele>
        <time>2020-08-04T08:30:05.845Z</time>
      </trkpt>
      <trkpt lat="63.20226" lon="8.02839">
        <ele>53.967639</ele>
        <time>2020-08-04T08:30:09.838Z</time>
      </trkpt>
      <trkpt lat="63.2023" lon="8.02863">
        <ele>54.189309</ele>
        <time>2020-08-04T08:30:13.815Z</time>
      </trkpt>
      <trkpt lat="63.20234" lon="8.02886">
        <ele>54.399151</ele>
        <time>2020-08-04T08:30:17.828Z</time>
      </trkpt>
      <trkpt lat="63.20237" lon="8.02909">
        <ele>54.601729</ele>
        <time>2020-08-04T08:30:21.841Z</time>
      </trkpt>
      <trkpt lat="63.20242" lon="8.0293">
        <ele>54.800559</ele>
        <time>2020-08-04T08:30:25.847Z</time>
      </trkpt>
      <trkpt lat="63.20246" lon="8.02952">
        <ele>55.013494</ele>
        <time>2020-08-04T08:30:29.859Z</time>
      </trkpt>
      <trkpt lat="63.20251" lon="8.02975">
        <ele>55.231807</ele>
        <time>2020-08-04T08:30:33.854Z</time>
      </trkpt>
      <trkpt lat="63.20255" lon="8.02998">
        <ele>56.062299</ele>
        <time>2020-08-04T08:30:37.835Z</time>
      </trkpt>
      <trkpt lat="63.20259" lon="8.03019">
        <ele>56.932183</ele>
        <time>2020-08-04T08:30:41.837Z</time>
      </trkpt>
      <trkpt lat="63.20264" lon="8.0304">
        <ele>57.758005</ele>
        <time>2020-08-04T08:30:45.861Z</time>
      </trkpt>
      <trkpt lat="63.20267" lon="8.03061">
        <ele>58.590632</ele>
        <time>2020-08-04T08:30:49.843Z</time>
      </trkpt>
      <trkpt lat="63.20269" lon="8.03081">
        <ele>59.35897</ele>
        <time>2020-08-04T08:30:53.825Z</time>
      </trkpt>
      <trkpt lat="63.20273" lon="8.03103">
        <ele>60.241126</ele>
        <time>2020-08-04T08:30:58.841Z</time>
      </trkpt>
      <trkpt lat="63.20276" lon="8.03125">
        <ele>61.081371</ele>
        <time>2020-08-04T08:31:03.848Z</time>
      </trkpt>
      <trkpt lat="63.20279" lon="8.03145">
        <ele>61.85054</ele>
        <time>2020-08-04T08:31:07.848Z</time>
      </trkpt>
      <trkpt lat="63.2028" lon="8.03168">
        <ele>62.74053</ele>
        <time>2020-08-04T08:31:12.831Z</time>
      </trkpt>
      <trkpt lat="63.20284" lon="8.03188">
        <ele>63.501141</ele>
        <time>2020-08-04T08:31:16.847Z</time>
      </trkpt>
      <trkpt lat="63.20286" lon="8.03207">
        <ele>64.274016</ele>
        <time>2020-08-04T08:31:20.840Z</time>
      </trkpt>
      <trkpt lat="63.2029" lon="8.03227">
        <ele>65.066286</ele>
        <time>2020-08-04T08:31:24.866Z</time>
      </trkpt>
      <trkpt lat="63.20295" lon="8.03249">
        <ele>65.966527</ele>
        <time>2020-08-04T08:31:29.838Z</time>
      </trkpt>
      <trkpt lat="63.20299" lon="8.03267">
        <ele>66.714859</ele>
        <time>2020-08-04T08:31:33.829Z</time>
      </trkpt>
      <trkpt lat="63.20304" lon="8.03286">
        <ele>67.535946</ele>
        <time>2020-08-04T08:31:38.832Z</time>
      </trkpt>
      <trkpt lat="63.20309" lon="8.03304">
        <ele>68.322317</ele>
        <time>2020-08-04T08:31:43.830Z</time>
      </trkpt>
      <trkpt lat="63.20315" lon="8.03324">
        <ele>69.209542</ele>
        <time>2020-08-04T08:31:48.830Z</time>
      </trkpt>
      <trkpt lat="63.20321" lon="8.03345">
        <ele>70.061771</ele>
        <time>2020-08-04T08:31:53.823Z</time>
      </trkpt>
      <trkpt lat="63.20326" lon="8.03362">
        <ele>70.059439</ele>
        <time>2020-08-04T08:31:57.855Z</time>
      </trkpt>
      <trkpt lat="63.20332" lon="8.03382">
        <ele>70.056587</ele>
        <time>2020-08-04T08:32:01.831Z</time>
      </trkpt>
      <trkpt lat="63.20338" lon="8.03399">
        <ele>70.054061</ele>
        <time>2020-08-04T08:32:04.842Z</time>
      </trkpt>
      <trkpt lat="63.20345" lon="8.03419">
        <ele>70.051252</ele>
        <time>2020-08-04T08:32:07.826Z</time>
      </trkpt>
      <trkpt lat="63.20352" lon="8.03441">
        <ele>70.048083</ele>
        <time>2020-08-04T08:32:10.844Z</time>
      </trkpt>
      <trkpt lat="63.20359" lon="8.03463">
        <ele>70.044969</ele>
        <time>2020-08-04T08:32:13.839Z</time>
      </trkpt>
      <trkpt lat="63.20365" lon="8.03485">
        <ele>70.042127</ele>
        <time>2020-08-04T08:32:16.842Z</time>
      </trkpt>
      <trkpt lat="63.20371" lon="8.03506">
        <ele>70.039223</ele>
        <time>2020-08-04T08:32:19.839Z</time>
      </trkpt>
      <trkpt lat="63.20377" lon="8.03529">
        <ele>70.036143</ele>
        <time>2020-08-04T08:32:22.863Z</time>
      </trkpt>
      <trkpt lat="63.20383" lon="8.03551">
        <ele>70.033222</ele>
        <time>2020-08-04T08:32:25.835Z</time>
      </trkpt>
      <trkpt lat="63.20388" lon="8.03571">
        <ele>70.030584</ele>
        <time>2020-08-04T08:32:28.824Z</time>
      </trkpt>
      <trkpt lat="63.20394" lon="8.03591">
        <ele>70.027694</ele>
        <time>2020-08-04T08:32:32.819Z</time>
      </trkpt>
      <trkpt lat="63.204" lon="8.03611">
        <ele>70.024908</ele>
        <time>2020-08-04T08:32:37.835Z</time>
      </trkpt>
      <trkpt lat="63.20406" lon="8.03633">
        <ele>70.022102</ele>
        <time>2020-08-04T08:32:42.848Z</time>
      </trkpt>
      <trkpt lat="63.20412" lon="8.03653">
        <ele>70.019222</ele>
        <time>2020-08-04T08:32:47.822Z</time>
      </trkpt>
      <trkpt lat="63.20417" lon="8.03671">
        <ele>70.016844</ele>
        <time>2020-08-04T08:32:51.841Z</time>
      </trkpt>
      <trkpt lat="63.20423" lon="8.03692">
        <ele>70.229012</ele>
        <time>2020-08-04T08:32:56.863Z</time>
      </trkpt>
      <trkpt lat="63.20428" lon="8.03709">
        <ele>70.470705</ele>
        <time>2020-08-04T08:33:00.828Z</time>
      </trkpt>
      <trkpt lat="63.20433" lon="8.03731">
        <ele>70.769672</ele>
        <time>2020-08-04T08:33:05.839Z</time>
      </trkpt>
      <trkpt lat="63.20439" lon="8.03749">
        <ele>71.036883</ele>
        <time>2020-08-04T08:33:09.847Z</time>
      </trkpt>
      <trkpt lat="63.20447" lon="8.03767">
        <ele>71.323489</ele>
        <time>2020-08-04T08:33:13.869Z</time>
      </trkpt>
      <trkpt lat="63.20454" lon="8.03784">
        <ele>71.619028</ele>
        <time>2020-08-04T08:33:17.859Z</time>
      </trkpt>
      <trkpt lat="63.20461" lon="8.03803">
        <ele>71.90323</ele>
        <time>2020-08-04T08:33:21.825Z</time>
      </trkpt>
      <trkpt lat="63.20467" lon="8.03823">
        <ele>72.198102</ele>
        <time>2020-08-04T08:33:25.852Z</time>
      </trkpt>
      <trkpt lat="63.20473" lon="8.03843">
        <ele>72.479156</ele>
        <time>2020-08-04T08:33:29.831Z</time>
      </trkpt>
      <trkpt lat="63.2048" lon="8.03862">
        <ele>72.762466</ele>
        <time>2020-08-04T08:33:33.841Z</time>
      </trkpt>
      <trkpt lat="63.20486" lon="8.03881">
        <ele>73.042505</ele>
        <time>2020-08-04T08:33:37.840Z</time>
      </trkpt>
      <trkpt lat="63.20492" lon="8.03899">
        <ele>73.321332</ele>
        <time>2020-08-04T08:33:41.837Z</time>
      </trkpt>
      <trkpt lat="63.20498" lon="8.03916">
        <ele>73.581803</ele>
        <time>2020-08-04T08:33:45.847Z</time>
      </trkpt>
      <trkpt lat="63.20505" lon="8.03932">
        <ele>73.831115</ele>
        <time>2020-08-04T08:33:49.847Z</time>
      </trkpt>
      <trkpt lat="63.20513" lon="8.0395">
        <ele>74.135948</ele>
        <time>2020-08-04T08:33:54.839Z</time>
      </trkpt>
      <trkpt lat="63.2052" lon="8.03967">
        <ele>74.421608</ele>
        <time>2020-08-04T08:33:58.828Z</time>
      </trkpt>
      <trkpt lat="63.20528" lon="8.03984">
        <ele>74.715757</ele>
        <time>2020-08-04T08:34:02.832Z</time>
      </trkpt>
      <trkpt lat="63.20536" lon="8.04001">
        <ele>75.077392</ele>
        <time>2020-08-04T08:34:06.820Z</time>
      </trkpt>
      <trkpt lat="63.20544" lon="8.04019">
        <ele>75.439617</ele>
        <time>2020-08-04T08:34:10.863Z</time>
      </trkpt>
      <trkpt lat="63.20551" lon="8.04035">
        <ele>75.808122</ele>
        <time>2020-08-04T08:34:14.843Z</time>
      </trkpt>
      <trkpt lat="63.20559" lon="8.04052">
        <ele>76.16776</ele>
        <time>2020-08-04T08:34:18.851Z</time>
      </trkpt>
      <trkpt lat="63.20566" lon="8.04069">
        <ele>76.531172</ele>
        <time>2020-08-04T08:34:22.844Z</time>
      </trkpt>
      <trkpt lat="63.20573" lon="8.04087">
        <ele>76.892515</ele>
        <time>2020-08-04T08:34:26.840Z</time>
      </trkpt>
      <trkpt lat="63.20579" lon="8.04106">
        <ele>77.247605</ele>
        <time>2020-08-04T08:34:30.874Z</time>
      </trkpt>
      <trkpt lat="63.20585" lon="8.04125">
        <ele>77.600782</ele>
        <time>2020-08-04T08:34:34.859Z</time>
      </trkpt>
      <trkpt lat="63.20591" lon="8.04145">
        <ele>77.960948</ele>
        <time>2020-08-04T08:34:38.867Z</time>
      </trkpt>
      <trkpt lat="63.20597" lon="8.04164">
        <ele>78.332997</ele>
        <time>2020-08-04T08:34:42.842Z</time>
      </trkpt>
      <trkpt lat="63.20604" lon="8.04181">
        <ele>78.676211</ele>
        <time>2020-08-04T08:34:46.848Z</time>
      </trkpt>
      <trkpt lat="63.20611" lon="8.04199">
        <ele>79.030663</ele>
        <time>2020-08-04T08:34:50.843Z</time>
      </trkpt>
      <trkpt lat="63.20618" lon="8.04217">
        <ele>79.408884</ele>
        <time>2020-08-04T08:34:54.838Z</time>
      </trkpt>
      <trkpt lat="63.20626" lon="8.04235">
        <ele>79.80134</ele>
        <time>2020-08-04T08:34:58.860Z</time>
      </trkpt>
      <trkpt lat="63.20633" lon="8.04252">
        <ele>80.15444</ele>
        <time>2020-08-04T08:35:02.850Z</time>
      </trkpt>
      <trkpt lat="63.2064" lon="8.04272">
        <ele>80.549361</ele>
        <time>2020-08-04T08:35:06.860Z</time>
      </trkpt>
      <trkpt lat="63.20648" lon="8.04292">
        <ele>80.975946</ele>
        <time>2020-08-04T08:35:10.822Z</time>
      </trkpt>
      <trkpt lat="63.20654" lon="8.04311">
        <ele>81.765031</ele>
        <time>2020-08-04T08:35:14.819Z</time>
      </trkpt>
      <trkpt lat="63.20661" lon="8.04331">
        <ele>82.565267</ele>
        <time>2020-08-04T08:35:18.821Z</time>
      </trkpt>
      <trkpt lat="63.20668" lon="8.04353">
        <ele>83.382532</ele>
        <time>2020-08-04T08:35:22.856Z</time>
      </trkpt>
      <trkpt lat="63.20672" lon="8.04372">
        <ele>84.084547</ele>
        <time>2020-08-04T08:35:26.868Z</time>
      </trkpt>
      <trkpt lat="63.20679" lon="8.04391">
        <ele>84.863456</ele>
        <time>2020-08-04T08:35:30.839Z</time>
      </trkpt>
      <trkpt lat="63.20684" lon="8.04409">
        <ele>85.545564</ele>
        <time>2020-08-04T08:35:34.836Z</time>
      </trkpt>
      <trkpt lat="63.20689" lon="8.04426">
        <ele>86.210758</ele>
        <time>2020-08-04T08:35:38.839Z</time>
      </trkpt>
      <trkpt lat="63.20694" lon="8.04445">
        <ele>86.886987</ele>
        <time>2020-08-04T08:35:42.831Z</time>
      </trkpt>
      <trkpt lat="63.207" lon="8.04466">
        <ele>87.672664</ele>
        <time>2020-08-04T08:35:47.849Z</time>
      </trkpt>
      <trkpt lat="63.20705" lon="8.04486">
        <ele>88.422772</ele>
        <time>2020-08-04T08:35:52.861Z</time>
      </trkpt>
      <trkpt lat="63.20711" lon="8.04502">
        <ele>89.076781</ele>
        <time>2020-08-04T08:35:56.867Z</time>
      </trkpt>
      <trkpt lat="63.20718" lon="8.04522">
        <ele>89.877082</ele>
        <time>2020-08-04T08:36:01.845Z</time>
      </trkpt>
      <trkpt lat="63.20723" lon="8.04539">
        <ele>90.522273</ele>
        <time>2020-08-04T08:36:05.863Z</time>
      </trkpt>
      <trkpt lat="63.20728" lon="8.04556">
        <ele>91.176528</ele>
        <time>2020-08-04T08:36:09.829Z</time>
      </trkpt>
      <trkpt lat="63.20735" lon="8.04572">
        <ele>91.889012</ele>
        <time>2020-08-04T08:36:13.856Z</time>
      </trkpt>
      <trkpt lat="63.20741" lon="8.04589">
        <ele>92.575377</ele>
        <time>2020-08-04T08:36:17.842Z</time>
      </trkpt>
      <trkpt lat="63.20748" lon="8.04608">
        <ele>93.374384</ele>
        <time>2020-08-04T08:36:22.852Z</time>
      </trkpt>
      <trkpt lat="63.20754" lon="8.04623">
        <ele>93.69895</ele>
        <time>2020-08-04T08:36:26.829Z</time>
      </trkpt>
      <trkpt lat="63.20761" lon="8.04639">
        <ele>93.76832</ele>
        <time>2020-08-04T08:36:30.874Z</time>
      </trkpt>
      <trkpt lat="63.20766" lon="8.04656">
        <ele>93.837195</ele>
        <time>2020-08-04T08:36:34.842Z</time>
      </trkpt>
      <trkpt lat="63.20772" lon="8.04672">
        <ele>93.904805</ele>
        <time>2020-08-04T08:36:38.841Z</time>
      </trkpt>
      <trkpt lat="63.20779" lon="8.0469">
        <ele>93.985242</ele>
        <time>2020-08-04T08:36:42.875Z</time>
      </trkpt>
      <trkpt lat="63.20786" lon="8.04709">
        <ele>94.067447</ele>
        <time>2020-08-04T08:36:46.845Z</time>
      </trkpt>
      <trkpt lat="63.20795" lon="8.04728">
        <ele>94.155022</ele>
        <time>2020-08-04T08:36:50.840Z</time>
      </trkpt>
      <trkpt lat="63.20801" lon="8.04743">
        <ele>94.225306</ele>
        <time>2020-08-04T08:36:53.852Z</time>
      </trkpt>
      <trkpt lat="63.20808" lon="8.04761">
        <ele>94.301598</ele>
        <time>2020-08-04T08:36:56.841Z</time>
      </trkpt>
      <trkpt lat="63.20816" lon="8.04777">
        <ele>94.38147</ele>
        <time>2020-08-04T08:36:59.857Z</time>
      </trkpt>
      <trkpt lat="63.20823" lon="8.04794">
        <ele>94.458749</ele>
        <time>2020-08-04T08:37:02.865Z</time>
      </trkpt>
      <trkpt lat="63.20831" lon="8.04811">
        <ele>94.536067</ele>
        <time>2020-08-04T08:37:05.842Z</time>
      </trkpt>
      <trkpt lat="63.20838" lon="8.04828">
        <ele>94.614137</ele>
        <time>2020-08-04T08:37:08.865Z</time>
      </trkpt>
      <trkpt lat="63.20846" lon="8.04843">
        <ele>94.68922</ele>
        <time>2020-08-04T08:37:11.895Z</time>
      </trkpt>
      <trkpt lat="63.20854" lon="8.04859">
        <ele>94.770222</ele>
        <time>2020-08-04T08:37:14.862Z</time>
      </trkpt>
      <trkpt lat="63.20862" lon="8.04874">
        <ele>94.847678</ele>
        <time>2020-08-04T08:37:17.853Z</time>
      </trkpt>
      <trkpt lat="63.2087" lon="8.04889">
        <ele>94.923403</ele>
        <time>2020-08-04T08:37:20.848Z</time>
      </trkpt>
      <trkpt lat="63.20877" lon="8.04904">
        <ele>94.940839</ele>
        <time>2020-08-04T08:37:23.873Z</time>
      </trkpt>
      <trkpt lat="63.20881" lon="8.04922">
        <ele>94.726398</ele>
        <time>2020-08-04T08:37:28.839Z</time>
      </trkpt>
      <trkpt lat="63.20887" lon="8.04944">
        <ele>94.461668</ele>
        <time>2020-08-04T08:37:32.852Z</time>
      </trkpt>
      <trkpt lat="63.20896" lon="8.04961">
        <ele>94.192073</ele>
        <time>2020-08-04T08:37:35.852Z</time>
      </trkpt>
      <trkpt lat="63.20906" lon="8.04981">
        <ele>93.891394</ele>
        <time>2020-08-04T08:37:38.823Z</time>
      </trkpt>
      <trkpt lat="63.20917" lon="8.04997">
        <ele>93.589257</ele>
        <time>2020-08-04T08:37:41.839Z</time>
      </trkpt>
      <trkpt lat="63.20924" lon="8.0501">
        <ele>93.376091</ele>
        <time>2020-08-04T08:37:43.832Z</time>
      </trkpt>
      <trkpt lat="63.20932" lon="8.05023">
        <ele>93.149543</ele>
        <time>2020-08-04T08:37:45.839Z</time>
      </trkpt>
      <trkpt lat="63.20941" lon="8.05036">
        <ele>92.911969</ele>
        <time>2020-08-04T08:37:47.859Z</time>
      </trkpt>
      <trkpt lat="63.20949" lon="8.0505">
        <ele>92.67257</ele>
        <time>2020-08-04T08:37:49.826Z</time>
      </trkpt>
      <trkpt lat="63.20957" lon="8.05064">
        <ele>92.434976</ele>
        <time>2020-08-04T08:37:51.872Z</time>
      </trkpt>
      <trkpt lat="63.20965" lon="8.05079">
        <ele>92.200322</ele>
        <time>2020-08-04T08:37:53.837Z</time>
      </trkpt>
      <trkpt lat="63.20974" lon="8.05094">
        <ele>91.94918</ele>
        <time>2020-08-04T08:37:55.846Z</time>
      </trkpt>
      <trkpt lat="63.20982" lon="8.0511">
        <ele>91.69083</ele>
        <time>2020-08-04T08:37:57.859Z</time>
      </trkpt>
      <trkpt lat="63.2099" lon="8.05127">
        <ele>91.445379</ele>
        <time>2020-08-04T08:37:59.837Z</time>
      </trkpt>
      <trkpt lat="63.20999" lon="8.05144">
        <ele>91.184292</ele>
        <time>2020-08-04T08:38:01.868Z</time>
      </trkpt>
      <trkpt lat="63.21007" lon="8.05161">
        <ele>90.919141</ele>
        <time>2020-08-04T08:38:03.842Z</time>
      </trkpt>
      <trkpt lat="63.21015" lon="8.05178">
        <ele>90.971786</ele>
        <time>2020-08-04T08:38:05.842Z</time>
      </trkpt>
      <trkpt lat="63.21023" lon="8.05194">
        <ele>91.0874</ele>
        <time>2020-08-04T08:38:07.894Z</time>
      </trkpt>
      <trkpt lat="63.21031" lon="8.0521">
        <ele>91.201007</ele>
        <time>2020-08-04T08:38:09.832Z</time>
      </trkpt>
      <trkpt lat="63.21038" lon="8.05225">
        <ele>91.310737</ele>
        <time>2020-08-04T08:38:11.846Z</time>
      </trkpt>
      <trkpt lat="63.21044" lon="8.05241">
        <ele>91.415359</ele>
        <time>2020-08-04T08:38:13.865Z</time>
      </trkpt>
      <trkpt lat="63.21051" lon="8.05258">
        <ele>91.52407</ele>
        <time>2020-08-04T08:38:15.831Z</time>
      </trkpt>
      <trkpt lat="63.21058" lon="8.05274">
        <ele>91.632377</ele>
        <time>2020-08-04T08:38:17.846Z</time>
      </trkpt>
      <trkpt lat="63.21064" lon="8.05289">
        <ele>91.739576</ele>
        <time>2020-08-04T08:38:19.867Z</time>
      </trkpt>
      <trkpt lat="63.21071" lon="8.05304">
        <ele>91.838727</ele>
        <time>2020-08-04T08:38:21.837Z</time>
      </trkpt>
      <trkpt lat="63.21079" lon="8.05326">
        <ele>91.980024</ele>
        <time>2020-08-04T08:38:24.856Z</time>
      </trkpt>
      <trkpt lat="63.21087" lon="8.05347">
        <ele>92.113608</ele>
        <time>2020-08-04T08:38:27.859Z</time>
      </trkpt>
      <trkpt lat="63.21095" lon="8.05367">
        <ele>92.2442</ele>
        <time>2020-08-04T08:38:30.855Z</time>
      </trkpt>
      <trkpt lat="63.21103" lon="8.05385">
        <ele>92.371893</ele>
        <time>2020-08-04T08:38:33.831Z</time>
      </trkpt>
      <trkpt lat="63.21109" lon="8.05402">
        <ele>92.482022</ele>
        <time>2020-08-04T08:38:36.842Z</time>
      </trkpt>
      <trkpt lat="63.21115" lon="8.05419">
        <ele>92.5873</ele>
        <time>2020-08-04T08:38:39.859Z</time>
      </trkpt>
      <trkpt lat="63.2112" lon="8.05437">
        <ele>92.689932</ele>
        <time>2020-08-04T08:38:42.858Z</time>
      </trkpt>
      <trkpt lat="63.21127" lon="8.05458">
        <ele>92.818079</ele>
        <time>2020-08-04T08:38:46.851Z</time>
      </trkpt>
      <trkpt lat="63.21134" lon="8.05477">
        <ele>93.100102</ele>
        <time>2020-08-04T08:38:50.853Z</time>
      </trkpt>
      <trkpt lat="63.21139" lon="8.05499">
        <ele>93.42026</ele>
        <time>2020-08-04T08:38:54.843Z</time>
      </trkpt>
      <trkpt lat="63.21145" lon="8.05521">
        <ele>93.759916</ele>
        <time>2020-08-04T08:38:58.837Z</time>
      </trkpt>
      <trkpt lat="63.21152" lon="8.05544">
        <ele>94.106907</ele>
        <time>2020-08-04T08:39:02.836Z</time>
      </trkpt>
      <trkpt lat="63.21157" lon="8.05561">
        <ele>94.367562</ele>
        <time>2020-08-04T08:39:05.850Z</time>
      </trkpt>
      <trkpt lat="63.21161" lon="8.05578">
        <ele>94.624282</ele>
        <time>2020-08-04T08:39:08.858Z</time>
      </trkpt>
      <trkpt lat="63.21168" lon="8.056">
        <ele>94.965032</ele>
        <time>2020-08-04T08:39:12.828Z</time>
      </trkpt>
      <trkpt lat="63.21172" lon="8.05617">
        <ele>95.227323</ele>
        <time>2020-08-04T08:39:15.876Z</time>
      </trkpt>
      <trkpt lat="63.21178" lon="8.0564">
        <ele>95.571083</ele>
        <time>2020-08-04T08:39:19.841Z</time>
      </trkpt>
      <trkpt lat="63.21183" lon="8.05657">
        <ele>95.830805</ele>
        <time>2020-08-04T08:39:22.881Z</time>
      </trkpt>
      <trkpt lat="63.21189" lon="8.05681">
        <ele>96.174042</ele>
        <time>2020-08-04T08:39:26.858Z</time>
      </trkpt>
      <trkpt lat="63.21193" lon="8.05699">
        <ele>96.432558</ele>
        <time>2020-08-04T08:39:29.837Z</time>
      </trkpt>
      <trkpt lat="63.21198" lon="8.05721">
        <ele>96.765089</ele>
        <time>2020-08-04T08:39:33.854Z</time>
      </trkpt>
      <trkpt lat="63.21203" lon="8.05743">
        <ele>97.081775</ele>
        <time>2020-08-04T08:39:37.847Z</time>
      </trkpt>
      <trkpt lat="63.21208" lon="8.05766">
        <ele>97.405304</ele>
        <time>2020-08-04T08:39:41.854Z</time>
      </trkpt>
      <trkpt lat="63.21213" lon="8.05789">
        <ele>97.73591</ele>
        <time>2020-08-04T08:39:45.826Z</time>
      </trkpt>
      <trkpt lat="63.21218" lon="8.05811">
        <ele>98.028665</ele>
        <time>2020-08-04T08:39:49.843Z</time>
      </trkpt>
      <trkpt lat="63.21223" lon="8.05834">
        <ele>98.171262</ele>
        <time>2020-08-04T08:39:53.869Z</time>
      </trkpt>
      <trkpt lat="63.21227" lon="8.05855">
        <ele>98.298985</ele>
        <time>2020-08-04T08:39:57.873Z</time>
      </trkpt>
      <trkpt lat="63.21231" lon="8.05877">
        <ele>98.432368</ele>
        <time>2020-08-04T08:40:01.847Z</time>
      </trkpt>
      <trkpt lat="63.21236" lon="8.05898">
        <ele>98.566575</ele>
        <time>2020-08-04T08:40:05.846Z</time>
      </trkpt>
      <trkpt lat="63.21241" lon="8.05918">
        <ele>98.698705</ele>
        <time>2020-08-04T08:40:09.878Z</time>
      </trkpt>
      <trkpt lat="63.21247" lon="8.0594">
        <ele>98.838898</ele>
        <time>2020-08-04T08:40:13.850Z</time>
      </trkpt>
      <trkpt lat="63.21252" lon="8.05963">
        <ele>98.979966</ele>
        <time>2020-08-04T08:40:17.847Z</time>
      </trkpt>
      <trkpt lat="63.21258" lon="8.05986">
        <ele>99.130324</ele>
        <time>2020-08-04T08:40:21.850Z</time>
      </trkpt>
      <trkpt lat="63.21262" lon="8.06005">
        <ele>99.251407</ele>
        <time>2020-08-04T08:40:24.846Z</time>
      </trkpt>
      <trkpt lat="63.21265" lon="8.06025">
        <ele>99.368885</ele>
        <time>2020-08-04T08:40:27.834Z</time>
      </trkpt>
      <trkpt lat="63.21269" lon="8.06043">
        <ele>99.484831</ele>
        <time>2020-08-04T08:40:30.876Z</time>
      </trkpt>
      <trkpt lat="63.21273" lon="8.06062">
        <ele>99.599761</ele>
        <time>2020-08-04T08:40:33.912Z</time>
      </trkpt>
      <trkpt lat="63.21278" lon="8.0608">
        <ele>99.716249</ele>
        <time>2020-08-04T08:40:36.872Z</time>
      </trkpt>
      <trkpt lat="63.21282" lon="8.06101">
        <ele>99.844533</ele>
        <time>2020-08-04T08:40:39.858Z</time>
      </trkpt>
      <trkpt lat="63.21287" lon="8.06121">
        <ele>99.970294</ele>
        <time>2020-08-04T08:40:42.842Z</time>
      </trkpt>
      <trkpt lat="63.21292" lon="8.06142">
        <ele>100.105096</ele>
        <time>2020-08-04T08:40:45.842Z</time>
      </trkpt>
      <trkpt lat="63.21297" lon="8.06164">
        <ele>100.246696</ele>
        <time>2020-08-04T08:40:48.863Z</time>
      </trkpt>
      <trkpt lat="63.21302" lon="8.06188">
        <ele>100.538376</ele>
        <time>2020-08-04T08:40:51.831Z</time>
      </trkpt>
      <trkpt lat="63.21308" lon="8.06213">
        <ele>100.858348</ele>
        <time>2020-08-04T08:40:54.877Z</time>
      </trkpt>
      <trkpt lat="63.21314" lon="8.06238">
        <ele>101.178052</ele>
        <time>2020-08-04T08:40:57.857Z</time>
      </trkpt>
      <trkpt lat="63.21319" lon="8.06263">
        <ele>101.491703</ele>
        <time>2020-08-04T08:41:00.857Z</time>
      </trkpt>
      <trkpt lat="63.21325" lon="8.06288">
        <ele>101.809278</ele>
        <time>2020-08-04T08:41:03.868Z</time>
      </trkpt>
      <trkpt lat="63.21331" lon="8.06312">
        <ele>102.123251</ele>
        <time>2020-08-04T08:41:06.878Z</time>
      </trkpt>
      <trkpt lat="63.21336" lon="8.06336">
        <ele>102.424712</ele>
        <time>2020-08-04T08:41:09.847Z</time>
      </trkpt>
      <trkpt lat="63.21342" lon="8.06359">
        <ele>102.71884</ele>
        <time>2020-08-04T08:41:12.839Z</time>
      </trkpt>
      <trkpt lat="63.21347" lon="8.06381">
        <ele>102.998027</ele>
        <time>2020-08-04T08:41:15.856Z</time>
      </trkpt>
      <trkpt lat="63.21352" lon="8.06402">
        <ele>103.267862</ele>
        <time>2020-08-04T08:41:18.831Z</time>
      </trkpt>
      <trkpt lat="63.21357" lon="8.06421">
        <ele>103.512142</ele>
        <time>2020-08-04T08:41:21.839Z</time>
      </trkpt>
      <trkpt lat="63.21362" lon="8.06444">
        <ele>103.795606</ele>
        <time>2020-08-04T08:41:25.855Z</time>
      </trkpt>
      <trkpt lat="63.21367" lon="8.06466">
        <ele>104.079396</ele>
        <time>2020-08-04T08:41:29.838Z</time>
      </trkpt>
      <trkpt lat="63.21372" lon="8.06488">
        <ele>104.360178</ele>
        <time>2020-08-04T08:41:33.864Z</time>
      </trkpt>
      <trkpt lat="63.21377" lon="8.0651">
        <ele>104.643545</ele>
        <time>2020-08-04T08:41:37.837Z</time>
      </trkpt>
      <trkpt lat="63.21383" lon="8.06531">
        <ele>105.050774</ele>
        <time>2020-08-04T08:41:41.841Z</time>
      </trkpt>
      <trkpt lat="63.21387" lon="8.06552">
        <ele>105.556629</ele>
        <time>2020-08-04T08:41:45.878Z</time>
      </trkpt>
      <trkpt lat="63.21392" lon="8.06572">
        <ele>106.039164</ele>
        <time>2020-08-04T08:41:49.846Z</time>
      </trkpt>
      <trkpt lat="63.21397" lon="8.06592">
        <ele>106.509349</ele>
        <time>2020-08-04T08:41:53.858Z</time>
      </trkpt>
      <trkpt lat="63.21401" lon="8.06612">
        <ele>106.997633</ele>
        <time>2020-08-04T08:41:58.836Z</time>
      </trkpt>
      <trkpt lat="63.21406" lon="8.06633">
        <ele>107.499498</ele>
        <time>2020-08-04T08:42:03.839Z</time>
      </trkpt>
      <trkpt lat="63.21411" lon="8.06655">
        <ele>108.017009</ele>
        <time>2020-08-04T08:42:08.856Z</time>
      </trkpt>
      <trkpt lat="63.21415" lon="8.06674">
        <ele>108.455038</ele>
        <time>2020-08-04T08:42:12.846Z</time>
      </trkpt>
      <trkpt lat="63.21419" lon="8.06695">
        <ele>108.950932</ele>
        <time>2020-08-04T08:42:17.828Z</time>
      </trkpt>
      <trkpt lat="63.21423" lon="8.06715">
        <ele>109.433189</ele>
        <time>2020-08-04T08:42:22.833Z</time>
      </trkpt>
      <trkpt lat="63.21428" lon="8.06735">
        <ele>109.890217</ele>
        <time>2020-08-04T08:42:27.874Z</time>
      </trkpt>
      <trkpt lat="63.21433" lon="8.06756">
        <ele>110.410664</ele>
        <time>2020-08-04T08:42:33.830Z</time>
      </trkpt>
      <trkpt lat="63.21437" lon="8.06776">
        <ele>110.881251</ele>
        <time>2020-08-04T08:42:38.838Z</time>
      </trkpt>
      <trkpt lat="63.2144" lon="8.06796">
        <ele>111.321257</ele>
        <time>2020-08-04T08:42:43.851Z</time>
      </trkpt>
      <trkpt lat="63.21443" lon="8.06815">
        <ele>111.757291</ele>
        <time>2020-08-04T08:42:48.885Z</time>
      </trkpt>
      <trkpt lat="63.21446" lon="8.06836">
        <ele>112.22644</ele>
        <time>2020-08-04T08:42:53.834Z</time>
      </trkpt>
      <trkpt lat="63.21451" lon="8.06857">
        <ele>112.734385</ele>
        <time>2020-08-04T08:42:58.836Z</time>
      </trkpt>
      <trkpt lat="63.21455" lon="8.06879">
        <ele>113.238106</ele>
        <time>2020-08-04T08:43:03.822Z</time>
      </trkpt>
      <trkpt lat="63.21459" lon="8.06902">
        <ele>113.825909</ele>
        <time>2020-08-04T08:43:08.846Z</time>
      </trkpt>
      <trkpt lat="63.21462" lon="8.06924">
        <ele>114.405632</ele>
        <time>2020-08-04T08:43:13.861Z</time>
      </trkpt>
      <trkpt lat="63.21465" lon="8.06945">
        <ele>114.950628</ele>
        <time>2020-08-04T08:43:18.828Z</time>
      </trkpt>
      <trkpt lat="63.21469" lon="8.06965">
        <ele>115.485673</ele>
        <time>2020-08-04T08:43:23.835Z</time>
      </trkpt>
      <trkpt lat="63.21473" lon="8.06987">
        <ele>116.049781</ele>
        <time>2020-08-04T08:43:28.831Z</time>
      </trkpt>
      <trkpt lat="63.21478" lon="8.07007">
        <ele>116.589318</ele>
        <time>2020-08-04T08:43:33.827Z</time>
      </trkpt>
      <trkpt lat="63.2148" lon="8.07026">
        <ele>117.080446</ele>
        <time>2020-08-04T08:43:38.829Z</time>
      </trkpt>
      <trkpt lat="63.21484" lon="8.07047">
        <ele>117.634821</ele>
        <time>2020-08-04T08:43:43.831Z</time>
      </trkpt>
      <trkpt lat="63.21488" lon="8.07069">
        <ele>118.212894</ele>
        <time>2020-08-04T08:43:48.850Z</time>
      </trkpt>
      <trkpt lat="63.21492" lon="8.07089">
        <ele>118.752498</ele>
        <time>2020-08-04T08:43:53.840Z</time>
      </trkpt>
      <trkpt lat="63.21496" lon="8.0711">
        <ele>119.312065</ele>
        <time>2020-08-04T08:43:58.843Z</time>
      </trkpt>
      <trkpt lat="63.215" lon="8.0713">
        <ele>119.858257</ele>
        <time>2020-08-04T08:44:03.882Z</time>
      </trkpt>
      <trkpt lat="63.21504" lon="8.07149">
        <ele>120.367246</ele>
        <time>2020-08-04T08:44:08.843Z</time>
      </trkpt>
      <trkpt lat="63.21509" lon="8.0717">
        <ele>120.940233</ele>
        <time>2020-08-04T08:44:13.827Z</time>
      </trkpt>
      <trkpt lat="63.21512" lon="8.07193">
        <ele>121.532352</ele>
        <time>2020-08-04T08:44:18.842Z</time>
      </trkpt>
      <trkpt lat="63.21516" lon="8.07213">
        <ele>122.062923</ele>
        <time>2020-08-04T08:44:23.845Z</time>
      </trkpt>
      <trkpt lat="63.2152" lon="8.07234">
        <ele>122.614265</ele>
        <time>2020-08-04T08:44:28.855Z</time>
      </trkpt>
      <trkpt lat="63.21523" lon="8.07258">
        <ele>123.175834</ele>
        <time>2020-08-04T08:44:33.851Z</time>
      </trkpt>
      <trkpt lat="63.21527" lon="8.07279">
        <ele>123.573682</ele>
        <time>2020-08-04T08:44:37.849Z</time>
      </trkpt>
      <trkpt lat="63.21531" lon="8.07301">
        <ele>124.014731</ele>
        <time>2020-08-04T08:44:42.839Z</time>
      </trkpt>
      <trkpt lat="63.21536" lon="8.07323">
        <ele>124.454002</ele>
        <time>2020-08-04T08:44:47.831Z</time>
      </trkpt>
      <trkpt lat="63.2154" lon="8.07342">
        <ele>124.842032</ele>
        <time>2020-08-04T08:44:51.876Z</time>
      </trkpt>
      <trkpt lat="63.21545" lon="8.07361">
        <ele>125.220333</ele>
        <time>2020-08-04T08:44:55.837Z</time>
      </trkpt>
      <trkpt lat="63.21549" lon="8.07381">
        <ele>125.608453</ele>
        <time>2020-08-04T08:44:59.846Z</time>
      </trkpt>
      <trkpt lat="63.21553" lon="8.07404">
        <ele>126.056808</ele>
        <time>2020-08-04T08:45:03.842Z</time>
      </trkpt>
      <trkpt lat="63.21556" lon="8.07429">
        <ele>126.523417</ele>
        <time>2020-08-04T08:45:07.831Z</time>
      </trkpt>
      <trkpt lat="63.2156" lon="8.07451">
        <ele>126.939066</ele>
        <time>2020-08-04T08:45:10.845Z</time>
      </trkpt>
      <trkpt lat="63.21563" lon="8.07475">
        <ele>127.395477</ele>
        <time>2020-08-04T08:45:13.860Z</time>
      </trkpt>
      <trkpt lat="63.21567" lon="8.07498">
        <ele>127.834034</ele>
        <time>2020-08-04T08:45:16.852Z</time>
      </trkpt>
      <trkpt lat="63.21572" lon="8.07522">
        <ele>128.309155</ele>
        <time>2020-08-04T08:45:19.848Z</time>
      </trkpt>
      <trkpt lat="63.21578" lon="8.07549">
        <ele>128.862683</ele>
        <time>2020-08-04T08:45:22.846Z</time>
      </trkpt>
      <trkpt lat="63.21582" lon="8.0757">
        <ele>129.268741</ele>
        <time>2020-08-04T08:45:24.863Z</time>
      </trkpt>
      <trkpt lat="63.21586" lon="8.07591">
        <ele>129.678672</ele>
        <time>2020-08-04T08:45:26.833Z</time>
      </trkpt>
      <trkpt lat="63.2159" lon="8.07613">
        <ele>130.104532</ele>
        <time>2020-08-04T08:45:28.857Z</time>
      </trkpt>
      <trkpt lat="63.21595" lon="8.07636">
        <ele>129.51397</ele>
        <time>2020-08-04T08:45:30.853Z</time>
      </trkpt>
      <trkpt lat="63.216" lon="8.0766">
        <ele>128.595114</ele>
        <time>2020-08-04T08:45:32.848Z</time>
      </trkpt>
      <trkpt lat="63.21604" lon="8.07686">
        <ele>127.618199</ele>
        <time>2020-08-04T08:45:34.851Z</time>
      </trkpt>
      <trkpt lat="63.2161" lon="8.07714">
        <ele>126.546735</ele>
        <time>2020-08-04T08:45:36.844Z</time>
      </trkpt>
      <trkpt lat="63.21616" lon="8.07744">
        <ele>125.40146</ele>
        <time>2020-08-04T08:45:38.847Z</time>
      </trkpt>
      <trkpt lat="63.21622" lon="8.07776">
        <ele>124.199529</ele>
        <time>2020-08-04T08:45:40.847Z</time>
      </trkpt>
      <trkpt lat="63.2163" lon="8.07808">
        <ele>122.905056</ele>
        <time>2020-08-04T08:45:42.862Z</time>
      </trkpt>
      <trkpt lat="63.21639" lon="8.07843">
        <ele>121.505851</ele>
        <time>2020-08-04T08:45:44.844Z</time>
      </trkpt>
      <trkpt lat="63.21643" lon="8.07861">
        <ele>120.78347</ele>
        <time>2020-08-04T08:45:45.840Z</time>
      </trkpt>
      <trkpt lat="63.21648" lon="8.07881">
        <ele>120.039209</ele>
        <time>2020-08-04T08:45:46.839Z</time>
      </trkpt>
      <trkpt lat="63.21652" lon="8.079">
        <ele>119.276072</ele>
        <time>2020-08-04T08:45:47.845Z</time>
      </trkpt>
      <trkpt lat="63.21656" lon="8.07921">
        <ele>118.497125</ele>
        <time>2020-08-04T08:45:48.854Z</time>
      </trkpt>
      <trkpt lat="63.2166" lon="8.07942">
        <ele>117.705294</ele>
        <time>2020-08-04T08:45:49.835Z</time>
      </trkpt>
      <trkpt lat="63.21664" lon="8.07963">
        <ele>116.897598</ele>
        <time>2020-08-04T08:45:50.871Z</time>
      </trkpt>
      <trkpt lat="63.21668" lon="8.07984">
        <ele>116.12837</ele>
        <time>2020-08-04T08:45:51.855Z</time>
      </trkpt>
      <trkpt lat="63.21673" lon="8.08006">
        <ele>115.469403</ele>
        <time>2020-08-04T08:45:52.852Z</time>
      </trkpt>
      <trkpt lat="63.21677" lon="8.08027">
        <ele>114.805366</ele>
        <time>2020-08-04T08:45:53.866Z</time>
      </trkpt>
      <trkpt lat="63.21682" lon="8.0805">
        <ele>114.123518</ele>
        <time>2020-08-04T08:45:54.845Z</time>
      </trkpt>
      <trkpt lat="63.21686" lon="8.08073">
        <ele>113.423853</ele>
        <time>2020-08-04T08:45:55.848Z</time>
      </trkpt>
      <trkpt lat="63.2169" lon="8.08096">
        <ele>112.73103</ele>
        <time>2020-08-04T08:45:56.852Z</time>
      </trkpt>
      <trkpt lat="63.21695" lon="8.08119">
        <ele>112.02555</ele>
        <time>2020-08-04T08:45:57.854Z</time>
      </trkpt>
      <trkpt lat="63.21699" lon="8.08142">
        <ele>111.310623</ele>
        <time>2020-08-04T08:45:58.827Z</time>
      </trkpt>
      <trkpt lat="63.21704" lon="8.08165">
        <ele>110.603302</ele>
        <time>2020-08-04T08:45:59.837Z</time>
      </trkpt>
      <trkpt lat="63.21709" lon="8.08189">
        <ele>109.898316</ele>
        <time>2020-08-04T08:46:00.828Z</time>
      </trkpt>
      <trkpt lat="63.21713" lon="8.08212">
        <ele>109.188181</ele>
        <time>2020-08-04T08:46:01.855Z</time>
      </trkpt>
      <trkpt lat="63.21717" lon="8.08236">
        <ele>108.478215</ele>
        <time>2020-08-04T08:46:02.848Z</time>
      </trkpt>
      <trkpt lat="63.21722" lon="8.08259">
        <ele>107.745433</ele>
        <time>2020-08-04T08:46:03.863Z</time>
      </trkpt>
      <trkpt lat="63.21727" lon="8.08283">
        <ele>107.042219</ele>
        <time>2020-08-04T08:46:04.873Z</time>
      </trkpt>
      <trkpt lat="63.21731" lon="8.08307">
        <ele>106.323368</ele>
        <time>2020-08-04T08:46:05.870Z</time>
      </trkpt>
      <trkpt lat="63.21735" lon="8.08331">
        <ele>105.616671</ele>
        <time>2020-08-04T08:46:06.873Z</time>
      </trkpt>
      <trkpt lat="63.21738" lon="8.08354">
        <ele>105.034637</ele>
        <time>2020-08-04T08:46:07.841Z</time>
      </trkpt>
      <trkpt lat="63.21742" lon="8.08377">
        <ele>104.6793</ele>
        <time>2020-08-04T08:46:08.850Z</time>
      </trkpt>
      <trkpt lat="63.21745" lon="8.084">
        <ele>104.337555</ele>
        <time>2020-08-04T08:46:09.887Z</time>
      </trkpt>
      <trkpt lat="63.21748" lon="8.08422">
        <ele>103.997186</ele>
        <time>2020-08-04T08:46:10.835Z</time>
      </trkpt>
      <trkpt lat="63.21752" lon="8.08444">
        <ele>103.666796</ele>
        <time>2020-08-04T08:46:11.867Z</time>
      </trkpt>
      <trkpt lat="63.21755" lon="8.08466">
        <ele>103.336044</ele>
        <time>2020-08-04T08:46:12.859Z</time>
      </trkpt>
      <trkpt lat="63.21758" lon="8.08487">
        <ele>103.011805</ele>
        <time>2020-08-04T08:46:13.848Z</time>
      </trkpt>
      <trkpt lat="63.2176" lon="8.08509">
        <ele>102.691724</ele>
        <time>2020-08-04T08:46:14.844Z</time>
      </trkpt>
      <trkpt lat="63.21763" lon="8.0853">
        <ele>102.374412</ele>
        <time>2020-08-04T08:46:15.873Z</time>
      </trkpt>
      <trkpt lat="63.21766" lon="8.0855">
        <ele>102.070459</ele>
        <time>2020-08-04T08:46:16.852Z</time>
      </trkpt>
      <trkpt lat="63.21769" lon="8.0857">
        <ele>101.771559</ele>
        <time>2020-08-04T08:46:17.856Z</time>
      </trkpt>
      <trkpt lat="63.21771" lon="8.08589">
        <ele>101.484962</ele>
        <time>2020-08-04T08:46:18.832Z</time>
      </trkpt>
      <trkpt lat="63.21776" lon="8.08627">
        <ele>100.921706</ele>
        <time>2020-08-04T08:46:20.854Z</time>
      </trkpt>
      <trkpt lat="63.2178" lon="8.08662">
        <ele>100.388834</ele>
        <time>2020-08-04T08:46:22.855Z</time>
      </trkpt>
      <trkpt lat="63.21785" lon="8.08697">
        <ele>99.864277</ele>
        <time>2020-08-04T08:46:24.874Z</time>
      </trkpt>
      <trkpt lat="63.21789" lon="8.0873">
        <ele>99.379019</ele>
        <time>2020-08-04T08:46:26.866Z</time>
      </trkpt>
      <trkpt lat="63.21793" lon="8.08761">
        <ele>99.174795</ele>
        <time>2020-08-04T08:46:28.836Z</time>
      </trkpt>
      <trkpt lat="63.21798" lon="8.08792">
        <ele>98.978129</ele>
        <time>2020-08-04T08:46:30.854Z</time>
      </trkpt>
      <trkpt lat="63.21802" lon="8.08821">
        <ele>98.7882</ele>
        <time>2020-08-04T08:46:32.840Z</time>
      </trkpt>
      <trkpt lat="63.21806" lon="8.08848">
        <ele>98.610268</ele>
        <time>2020-08-04T08:46:34.848Z</time>
      </trkpt>
      <trkpt lat="63.2181" lon="8.08875">
        <ele>98.429452</ele>
        <time>2020-08-04T08:46:36.840Z</time>
      </trkpt>
      <trkpt lat="63.21815" lon="8.08902">
        <ele>98.254508</ele>
        <time>2020-08-04T08:46:38.837Z</time>
      </trkpt>
      <trkpt lat="63.2182" lon="8.08927">
        <ele>98.080296</ele>
        <time>2020-08-04T08:46:40.856Z</time>
      </trkpt>
      <trkpt lat="63.21825" lon="8.08953">
        <ele>97.904959</ele>
        <time>2020-08-04T08:46:42.837Z</time>
      </trkpt>
      <trkpt lat="63.2183" lon="8.08979">
        <ele>97.728474</ele>
        <time>2020-08-04T08:46:44.836Z</time>
      </trkpt>
      <trkpt lat="63.21836" lon="8.09005">
        <ele>97.553092</ele>
        <time>2020-08-04T08:46:46.842Z</time>
      </trkpt>
      <trkpt lat="63.21842" lon="8.0903">
        <ele>97.375947</ele>
        <time>2020-08-04T08:46:48.847Z</time>
      </trkpt>
      <trkpt lat="63.21848" lon="8.09057">
        <ele>97.191064</ele>
        <time>2020-08-04T08:46:50.898Z</time>
      </trkpt>
      <trkpt lat="63.21855" lon="8.09084">
        <ele>96.998636</ele>
        <time>2020-08-04T08:46:52.853Z</time>
      </trkpt>
      <trkpt lat="63.21862" lon="8.0911">
        <ele>96.742217</ele>
        <time>2020-08-04T08:46:54.843Z</time>
      </trkpt>
      <trkpt lat="63.21869" lon="8.09136">
        <ele>96.418798</ele>
        <time>2020-08-04T08:46:56.830Z</time>
      </trkpt>
      <trkpt lat="63.21876" lon="8.09164">
        <ele>96.088855</ele>
        <time>2020-08-04T08:46:58.861Z</time>
      </trkpt>
      <trkpt lat="63.21884" lon="8.09191">
        <ele>95.755075</ele>
        <time>2020-08-04T08:47:00.879Z</time>
      </trkpt>
      <trkpt lat="63.21892" lon="8.09219">
        <ele>95.41832</ele>
        <time>2020-08-04T08:47:02.892Z</time>
      </trkpt>
      <trkpt lat="63.219" lon="8.09248">
        <ele>95.06974</ele>
        <time>2020-08-04T08:47:04.852Z</time>
      </trkpt>
      <trkpt lat="63.21908" lon="8.09278">
        <ele>94.707217</ele>
        <time>2020-08-04T08:47:06.844Z</time>
      </trkpt>
      <trkpt lat="63.21915" lon="8.09309">
        <ele>94.341604</ele>
        <time>2020-08-04T08:47:08.831Z</time>
      </trkpt>
      <trkpt lat="63.21923" lon="8.09339">
        <ele>93.973052</ele>
        <time>2020-08-04T08:47:10.880Z</time>
      </trkpt>
      <trkpt lat="63.21932" lon="8.09371">
        <ele>93.591213</ele>
        <time>2020-08-04T08:47:12.847Z</time>
      </trkpt>
      <trkpt lat="63.21941" lon="8.09403">
        <ele>93.204397</ele>
        <time>2020-08-04T08:47:14.838Z</time>
      </trkpt>
      <trkpt lat="63.2195" lon="8.09436">
        <ele>92.804541</ele>
        <time>2020-08-04T08:47:16.847Z</time>
      </trkpt>
      <trkpt lat="63.21959" lon="8.0947">
        <ele>92.080544</ele>
        <time>2020-08-04T08:47:18.837Z</time>
      </trkpt>
      <trkpt lat="63.21963" lon="8.09488">
        <ele>91.691285</ele>
        <time>2020-08-04T08:47:19.841Z</time>
      </trkpt>
      <trkpt lat="63.21968" lon="8.09506">
        <ele>91.301659</ele>
        <time>2020-08-04T08:47:20.852Z</time>
      </trkpt>
      <trkpt lat="63.21972" lon="8.09524">
        <ele>90.904621</ele>
        <time>2020-08-04T08:47:21.870Z</time>
      </trkpt>
      <trkpt lat="63.21977" lon="8.09542">
        <ele>90.510898</ele>
        <time>2020-08-04T08:47:22.835Z</time>
      </trkpt>
      <trkpt lat="63.21981" lon="8.0956">
        <ele>90.114241</ele>
        <time>2020-08-04T08:47:23.840Z</time>
      </trkpt>
      <trkpt lat="63.21986" lon="8.09578">
        <ele>89.719589</ele>
        <time>2020-08-04T08:47:24.845Z</time>
      </trkpt>
      <trkpt lat="63.2199" lon="8.09596">
        <ele>89.328696</ele>
        <time>2020-08-04T08:47:25.852Z</time>
      </trkpt>
      <trkpt lat="63.21995" lon="8.09615">
        <ele>88.920401</ele>
        <time>2020-08-04T08:47:26.870Z</time>
      </trkpt>
      <trkpt lat="63.22" lon="8.09633">
        <ele>88.516321</ele>
        <time>2020-08-04T08:47:27.846Z</time>
      </trkpt>
      <trkpt lat="63.22005" lon="8.09652">
        <ele>88.107619</ele>
        <time>2020-08-04T08:47:28.843Z</time>
      </trkpt>
      <trkpt lat="63.22009" lon="8.09671">
        <ele>87.70354</ele>
        <time>2020-08-04T08:47:29.840Z</time>
      </trkpt>
      <trkpt lat="63.22014" lon="8.0969">
        <ele>87.287018</ele>
        <time>2020-08-04T08:47:30.849Z</time>
      </trkpt>
      <trkpt lat="63.22019" lon="8.09708">
        <ele>86.877085</ele>
        <time>2020-08-04T08:47:31.881Z</time>
      </trkpt>
      <trkpt lat="63.22024" lon="8.09726">
        <ele>86.469896</ele>
        <time>2020-08-04T08:47:32.849Z</time>
      </trkpt>
      <trkpt lat="63.22029" lon="8.09745">
        <ele>86.057816</ele>
        <time>2020-08-04T08:47:33.829Z</time>
      </trkpt>
      <trkpt lat="63.22034" lon="8.09764">
        <ele>85.644101</ele>
        <time>2020-08-04T08:47:34.868Z</time>
      </trkpt>
      <trkpt lat="63.22039" lon="8.09782">
        <ele>85.238539</ele>
        <time>2020-08-04T08:47:35.839Z</time>
      </trkpt>
      <trkpt lat="63.22044" lon="8.098">
        <ele>84.971976</ele>
        <time>2020-08-04T08:47:36.832Z</time>
      </trkpt>
      <trkpt lat="63.22049" lon="8.09819">
        <ele>84.737765</ele>
        <time>2020-08-04T08:47:37.866Z</time>
      </trkpt>
      <trkpt lat="63.22054" lon="8.09836">
        <ele>84.511748</ele>
        <time>2020-08-04T08:47:38.845Z</time>
      </trkpt>
      <trkpt lat="63.22059" lon="8.09853">
        <ele>84.28905</ele>
        <time>2020-08-04T08:47:39.848Z</time>
      </trkpt>
      <trkpt lat="63.22064" lon="8.09869">
        <ele>84.067274</ele>
        <time>2020-08-04T08:47:40.872Z</time>
      </trkpt>
      <trkpt lat="63.22069" lon="8.09886">
        <ele>83.844576</ele>
        <time>2020-08-04T08:47:41.841Z</time>
      </trkpt>
      <trkpt lat="63.22079" lon="8.09919">
        <ele>83.413392</ele>
        <time>2020-08-04T08:47:43.880Z</time>
      </trkpt>
      <trkpt lat="63.22088" lon="8.0995">
        <ele>82.992722</ele>
        <time>2020-08-04T08:47:45.835Z</time>
      </trkpt>
      <trkpt lat="63.22098" lon="8.09981">
        <ele>82.579879</ele>
        <time>2020-08-04T08:47:47.848Z</time>
      </trkpt>
      <trkpt lat="63.22108" lon="8.1001">
        <ele>82.17657</ele>
        <time>2020-08-04T08:47:49.862Z</time>
      </trkpt>
      <trkpt lat="63.22117" lon="8.10039">
        <ele>81.782865</ele>
        <time>2020-08-04T08:47:51.853Z</time>
      </trkpt>
      <trkpt lat="63.22127" lon="8.10068">
        <ele>81.39042</ele>
        <time>2020-08-04T08:47:53.861Z</time>
      </trkpt>
      <trkpt lat="63.22136" lon="8.10095">
        <ele>81.010001</ele>
        <time>2020-08-04T08:47:55.840Z</time>
      </trkpt>
      <trkpt lat="63.22146" lon="8.1012">
        <ele>80.753589</ele>
        <time>2020-08-04T08:47:57.832Z</time>
      </trkpt>
      <trkpt lat="63.22155" lon="8.10145">
        <ele>80.742008</ele>
        <time>2020-08-04T08:47:59.857Z</time>
      </trkpt>
      <trkpt lat="63.22165" lon="8.10169">
        <ele>80.730588</ele>
        <time>2020-08-04T08:48:01.856Z</time>
      </trkpt>
      <trkpt lat="63.22175" lon="8.10195">
        <ele>80.718648</ele>
        <time>2020-08-04T08:48:03.852Z</time>
      </trkpt>
      <trkpt lat="63.22185" lon="8.10217">
        <ele>80.707856</ele>
        <time>2020-08-04T08:48:05.828Z</time>
      </trkpt>
      <trkpt lat="63.22194" lon="8.10241">
        <ele>80.696514</ele>
        <time>2020-08-04T08:48:07.856Z</time>
      </trkpt>
      <trkpt lat="63.22204" lon="8.10264">
        <ele>80.685586</ele>
        <time>2020-08-04T08:48:09.834Z</time>
      </trkpt>
      <trkpt lat="63.22214" lon="8.10288">
        <ele>80.674246</ele>
        <time>2020-08-04T08:48:11.894Z</time>
      </trkpt>
      <trkpt lat="63.22224" lon="8.10311">
        <ele>80.663059</ele>
        <time>2020-08-04T08:48:13.855Z</time>
      </trkpt>
      <trkpt lat="63.22234" lon="8.10334">
        <ele>80.651664</ele>
        <time>2020-08-04T08:48:15.870Z</time>
      </trkpt>
      <trkpt lat="63.22244" lon="8.10358">
        <ele>80.640296</ele>
        <time>2020-08-04T08:48:17.868Z</time>
      </trkpt>
      <trkpt lat="63.22254" lon="8.10381">
        <ele>80.629213</ele>
        <time>2020-08-04T08:48:19.862Z</time>
      </trkpt>
      <trkpt lat="63.22264" lon="8.10403">
        <ele>80.618197</ele>
        <time>2020-08-04T08:48:21.899Z</time>
      </trkpt>
      <trkpt lat="63.22273" lon="8.10427">
        <ele>80.941112</ele>
        <time>2020-08-04T08:48:23.859Z</time>
      </trkpt>
      <trkpt lat="63.22282" lon="8.10449">
        <ele>81.303112</ele>
        <time>2020-08-04T08:48:25.879Z</time>
      </trkpt>
      <trkpt lat="63.22292" lon="8.10472">
        <ele>81.659948</ele>
        <time>2020-08-04T08:48:27.848Z</time>
      </trkpt>
      <trkpt lat="63.22301" lon="8.10493">
        <ele>82.008919</ele>
        <time>2020-08-04T08:48:29.857Z</time>
      </trkpt>
      <trkpt lat="63.2231" lon="8.10514">
        <ele>82.345983</ele>
        <time>2020-08-04T08:48:31.853Z</time>
      </trkpt>
      <trkpt lat="63.22319" lon="8.10535">
        <ele>82.671583</ele>
        <time>2020-08-04T08:48:33.846Z</time>
      </trkpt>
      <trkpt lat="63.22327" lon="8.10554">
        <ele>82.988772</ele>
        <time>2020-08-04T08:48:35.880Z</time>
      </trkpt>
      <trkpt lat="63.22335" lon="8.10572">
        <ele>83.282301</ele>
        <time>2020-08-04T08:48:37.854Z</time>
      </trkpt>
      <trkpt lat="63.22343" lon="8.1059">
        <ele>83.563905</ele>
        <time>2020-08-04T08:48:39.878Z</time>
      </trkpt>
      <trkpt lat="63.2235" lon="8.10606">
        <ele>83.83161</ele>
        <time>2020-08-04T08:48:41.856Z</time>
      </trkpt>
      <trkpt lat="63.22356" lon="8.10623">
        <ele>84.092263</ele>
        <time>2020-08-04T08:48:43.871Z</time>
      </trkpt>
      <trkpt lat="63.22363" lon="8.10639">
        <ele>84.336452</ele>
        <time>2020-08-04T08:48:45.834Z</time>
      </trkpt>
      <trkpt lat="63.2237" lon="8.10656">
        <ele>84.603996</ele>
        <time>2020-08-04T08:48:47.859Z</time>
      </trkpt>
      <trkpt lat="63.22376" lon="8.10672">
        <ele>84.85248</ele>
        <time>2020-08-04T08:48:49.867Z</time>
      </trkpt>
      <trkpt lat="63.22382" lon="8.10688">
        <ele>85.086766</ele>
        <time>2020-08-04T08:48:51.836Z</time>
      </trkpt>
      <trkpt lat="63.2239" lon="8.1071">
        <ele>85.458431</ele>
        <time>2020-08-04T08:48:54.840Z</time>
      </trkpt>
      <trkpt lat="63.22398" lon="8.10732">
        <ele>85.846482</ele>
        <time>2020-08-04T08:48:57.880Z</time>
      </trkpt>
      <trkpt lat="63.22405" lon="8.10752">
        <ele>86.200941</ele>
        <time>2020-08-04T08:49:00.848Z</time>
      </trkpt>
      <trkpt lat="63.22412" lon="8.10773">
        <ele>86.559407</ele>
        <time>2020-08-04T08:49:03.829Z</time>
      </trkpt>
      <trkpt lat="63.22419" lon="8.10794">
        <ele>86.93159</ele>
        <time>2020-08-04T08:49:06.869Z</time>
      </trkpt>
      <trkpt lat="63.22426" lon="8.10816">
        <ele>87.303101</ele>
        <time>2020-08-04T08:49:09.842Z</time>
      </trkpt>
      <trkpt lat="63.22433" lon="8.10839">
        <ele>87.681404</ele>
        <time>2020-08-04T08:49:12.841Z</time>
      </trkpt>
      <trkpt lat="63.2244" lon="8.10862">
        <ele>88.058009</ele>
        <time>2020-08-04T08:49:15.852Z</time>
      </trkpt>
      <trkpt lat="63.22446" lon="8.10886">
        <ele>88.449492</ele>
        <time>2020-08-04T08:49:18.832Z</time>
      </trkpt>
      <trkpt lat="63.22452" lon="8.1091">
        <ele>88.842869</ele>
        <time>2020-08-04T08:49:21.848Z</time>
      </trkpt>
      <trkpt lat="63.22459" lon="8.10935">
        <ele>89.226484</ele>
        <time>2020-08-04T08:49:24.850Z</time>
      </trkpt>
      <trkpt lat="63.22464" lon="8.10958">
        <ele>89.597117</ele>
        <time>2020-08-04T08:49:27.850Z</time>
      </trkpt>
      <trkpt lat="63.2247" lon="8.10981">
        <ele>89.967496</ele>
        <time>2020-08-04T08:49:30.837Z</time>
      </trkpt>
      <trkpt lat="63.22476" lon="8.11007">
        <ele>90.376218</ele>
        <time>2020-08-04T08:49:33.859Z</time>
      </trkpt>
      <trkpt lat="63.22481" lon="8.11025">
        <ele>90.657729</ele>
        <time>2020-08-04T08:49:35.836Z</time>
      </trkpt>
      <trkpt lat="63.22485" lon="8.11043">
        <ele>90.732249</ele>
        <time>2020-08-04T08:49:37.832Z</time>
      </trkpt>
      <trkpt lat="63.22491" lon="8.11067">
        <ele>90.50216</ele>
        <time>2020-08-04T08:49:40.846Z</time>
      </trkpt>
      <trkpt lat="63.22497" lon="8.11092">
        <ele>90.258778</ele>
        <time>2020-08-04T08:49:43.860Z</time>
      </trkpt>
      <trkpt lat="63.22503" lon="8.11119">
        <ele>90.010481</ele>
        <time>2020-08-04T08:49:46.840Z</time>
      </trkpt>
      <trkpt lat="63.22509" lon="8.11145">
        <ele>89.766198</ele>
        <time>2020-08-04T08:49:49.909Z</time>
      </trkpt>
      <trkpt lat="63.22513" lon="8.11163">
        <ele>89.595396</ele>
        <time>2020-08-04T08:49:51.838Z</time>
      </trkpt>
      <trkpt lat="63.22517" lon="8.11182">
        <ele>89.421666</ele>
        <time>2020-08-04T08:49:53.830Z</time>
      </trkpt>
      <trkpt lat="63.22521" lon="8.11201">
        <ele>89.24641</ele>
        <time>2020-08-04T08:49:55.846Z</time>
      </trkpt>
      <trkpt lat="63.22525" lon="8.11219">
        <ele>89.079555</ele>
        <time>2020-08-04T08:49:57.850Z</time>
      </trkpt>
      <trkpt lat="63.22528" lon="8.11238">
        <ele>88.909585</ele>
        <time>2020-08-04T08:49:59.859Z</time>
      </trkpt>
      <trkpt lat="63.22532" lon="8.11256">
        <ele>88.737342</ele>
        <time>2020-08-04T08:50:01.854Z</time>
      </trkpt>
      <trkpt lat="63.22536" lon="8.11274">
        <ele>88.568872</ele>
        <time>2020-08-04T08:50:03.852Z</time>
      </trkpt>
      <trkpt lat="63.22541" lon="8.11292">
        <ele>88.401696</ele>
        <time>2020-08-04T08:50:05.859Z</time>
      </trkpt>
      <trkpt lat="63.22547" lon="8.11318">
        <ele>88.150412</ele>
        <time>2020-08-04T08:50:08.833Z</time>
      </trkpt>
      <trkpt lat="63.22553" lon="8.11344">
        <ele>87.903487</ele>
        <time>2020-08-04T08:50:11.848Z</time>
      </trkpt>
      <trkpt lat="63.22558" lon="8.11371">
        <ele>87.657047</ele>
        <time>2020-08-04T08:50:14.844Z</time>
      </trkpt>
      <trkpt lat="63.22562" lon="8.1139">
        <ele>87.486303</ele>
        <time>2020-08-04T08:50:16.869Z</time>
      </trkpt>
      <trkpt lat="63.22566" lon="8.11418">
        <ele>87.580212</ele>
        <time>2020-08-04T08:50:19.836Z</time>
      </trkpt>
      <trkpt lat="63.22569" lon="8.11446">
        <ele>87.717561</ele>
        <time>2020-08-04T08:50:22.848Z</time>
      </trkpt>
      <trkpt lat="63.22573" lon="8.11474">
        <ele>87.854219</ele>
        <time>2020-08-04T08:50:25.864Z</time>
      </trkpt>
      <trkpt lat="63.22576" lon="8.11501">
        <ele>87.985722</ele>
        <time>2020-08-04T08:50:28.849Z</time>
      </trkpt>
      <trkpt lat="63.22578" lon="8.11529">
        <ele>88.116825</ele>
        <time>2020-08-04T08:50:31.862Z</time>
      </trkpt>
      <trkpt lat="63.2258" lon="8.11555">
        <ele>88.245424</ele>
        <time>2020-08-04T08:50:34.841Z</time>
      </trkpt>
      <trkpt lat="63.22582" lon="8.11583">
        <ele>88.377024</ele>
        <time>2020-08-04T08:50:37.845Z</time>
      </trkpt>
      <trkpt lat="63.22584" lon="8.11604">
        <ele>88.474107</ele>
        <time>2020-08-04T08:50:39.866Z</time>
      </trkpt>
      <trkpt lat="63.22585" lon="8.11624">
        <ele>88.571538</ele>
        <time>2020-08-04T08:50:41.842Z</time>
      </trkpt>
      <trkpt lat="63.22585" lon="8.11646">
        <ele>88.673591</ele>
        <time>2020-08-04T08:50:43.862Z</time>
      </trkpt>
      <trkpt lat="63.22586" lon="8.11669">
        <ele>88.782406</ele>
        <time>2020-08-04T08:50:45.852Z</time>
      </trkpt>
      <trkpt lat="63.22587" lon="8.11692">
        <ele>88.891869</ele>
        <time>2020-08-04T08:50:47.862Z</time>
      </trkpt>
      <trkpt lat="63.22588" lon="8.11715">
        <ele>88.999204</ele>
        <time>2020-08-04T08:50:49.834Z</time>
      </trkpt>
      <trkpt lat="63.22588" lon="8.11739">
        <ele>89.111631</ele>
        <time>2020-08-04T08:50:51.878Z</time>
      </trkpt>
      <trkpt lat="63.22589" lon="8.11764">
        <ele>89.230008</ele>
        <time>2020-08-04T08:50:53.847Z</time>
      </trkpt>
      <trkpt lat="63.22589" lon="8.11791">
        <ele>89.274235</ele>
        <time>2020-08-04T08:50:55.844Z</time>
      </trkpt>
      <trkpt lat="63.22588" lon="8.11819">
        <ele>88.92289</ele>
        <time>2020-08-04T08:50:57.833Z</time>
      </trkpt>
      <trkpt lat="63.22587" lon="8.11849">
        <ele>88.545723</ele>
        <time>2020-08-04T08:50:59.879Z</time>
      </trkpt>
      <trkpt lat="63.22586" lon="8.11881">
        <ele>88.133433</ele>
        <time>2020-08-04T08:51:01.850Z</time>
      </trkpt>
      <trkpt lat="63.22584" lon="8.11914">
        <ele>87.711693</ele>
        <time>2020-08-04T08:51:03.846Z</time>
      </trkpt>
      <trkpt lat="63.22581" lon="8.11949">
        <ele>87.269606</ele>
        <time>2020-08-04T08:51:05.841Z</time>
      </trkpt>
      <trkpt lat="63.22579" lon="8.11985">
        <ele>86.815303</ele>
        <time>2020-08-04T08:51:07.852Z</time>
      </trkpt>
      <trkpt lat="63.22577" lon="8.12019">
        <ele>86.375283</ele>
        <time>2020-08-04T08:51:09.861Z</time>
      </trkpt>
      <trkpt lat="63.22575" lon="8.12054">
        <ele>85.927323</ele>
        <time>2020-08-04T08:51:11.842Z</time>
      </trkpt>
      <trkpt lat="63.22572" lon="8.12091">
        <ele>85.458268</ele>
        <time>2020-08-04T08:51:13.856Z</time>
      </trkpt>
      <trkpt lat="63.22569" lon="8.12126">
        <ele>84.999411</ele>
        <time>2020-08-04T08:51:15.835Z</time>
      </trkpt>
      <trkpt lat="63.22566" lon="8.12162">
        <ele>84.54752</ele>
        <time>2020-08-04T08:51:17.835Z</time>
      </trkpt>
      <trkpt lat="63.22563" lon="8.12197">
        <ele>84.16926</ele>
        <time>2020-08-04T08:51:19.851Z</time>
      </trkpt>
      <trkpt lat="63.2256" lon="8.12232">
        <ele>83.892535</ele>
        <time>2020-08-04T08:51:21.860Z</time>
      </trkpt>
      <trkpt lat="63.22557" lon="8.12267">
        <ele>83.619792</ele>
        <time>2020-08-04T08:51:23.836Z</time>
      </trkpt>
      <trkpt lat="63.22555" lon="8.12299">
        <ele>83.366328</ele>
        <time>2020-08-04T08:51:25.852Z</time>
      </trkpt>
      <trkpt lat="63.22552" lon="8.1233">
        <ele>83.116992</ele>
        <time>2020-08-04T08:51:27.838Z</time>
      </trkpt>
      <trkpt lat="63.2255" lon="8.12361">
        <ele>82.877139</ele>
        <time>2020-08-04T08:51:29.864Z</time>
      </trkpt>
      <trkpt lat="63.22548" lon="8.12391">
        <ele>82.641965</ele>
        <time>2020-08-04T08:51:31.834Z</time>
      </trkpt>
      <trkpt lat="63.22545" lon="8.1242">
        <ele>82.407468</ele>
        <time>2020-08-04T08:51:33.894Z</time>
      </trkpt>
      <trkpt lat="63.22543" lon="8.12449">
        <ele>82.180454</ele>
        <time>2020-08-04T08:51:35.838Z</time>
      </trkpt>
      <trkpt lat="63.22541" lon="8.12477">
        <ele>81.964159</ele>
        <time>2020-08-04T08:51:37.856Z</time>
      </trkpt>
      <trkpt lat="63.22539" lon="8.12504">
        <ele>81.745862</ele>
        <time>2020-08-04T08:51:39.856Z</time>
      </trkpt>
      <trkpt lat="63.22537" lon="8.12532">
        <ele>81.527076</ele>
        <time>2020-08-04T08:51:41.859Z</time>
      </trkpt>
      <trkpt lat="63.22535" lon="8.12559">
        <ele>81.313423</ele>
        <time>2020-08-04T08:51:43.849Z</time>
      </trkpt>
      <trkpt lat="63.22533" lon="8.12586">
        <ele>81.194278</ele>
        <time>2020-08-04T08:51:45.848Z</time>
      </trkpt>
      <trkpt lat="63.22531" lon="8.12611">
        <ele>81.205715</ele>
        <time>2020-08-04T08:51:47.837Z</time>
      </trkpt>
      <trkpt lat="63.22529" lon="8.12638">
        <ele>81.217644</ele>
        <time>2020-08-04T08:51:49.852Z</time>
      </trkpt>
      <trkpt lat="63.22527" lon="8.12662">
        <ele>81.228879</ele>
        <time>2020-08-04T08:51:51.847Z</time>
      </trkpt>
      <trkpt lat="63.22525" lon="8.12688">
        <ele>81.240465</ele>
        <time>2020-08-04T08:51:53.872Z</time>
      </trkpt>
      <trkpt lat="63.22523" lon="8.12713">
        <ele>81.251727</ele>
        <time>2020-08-04T08:51:55.872Z</time>
      </trkpt>
      <trkpt lat="63.2252" lon="8.12738">
        <ele>81.262957</ele>
        <time>2020-08-04T08:51:57.853Z</time>
      </trkpt>
      <trkpt lat="63.22518" lon="8.12764">
        <ele>81.274774</ele>
        <time>2020-08-04T08:51:59.838Z</time>
      </trkpt>
      <trkpt lat="63.22516" lon="8.12789">
        <ele>81.286484</ele>
        <time>2020-08-04T08:52:01.866Z</time>
      </trkpt>
      <trkpt lat="63.22513" lon="8.12813">
        <ele>81.297453</ele>
        <time>2020-08-04T08:52:03.829Z</time>
      </trkpt>
      <trkpt lat="63.22511" lon="8.12838">
        <ele>81.308408</ele>
        <time>2020-08-04T08:52:05.884Z</time>
      </trkpt>
      <trkpt lat="63.22509" lon="8.12861">
        <ele>81.319159</ele>
        <time>2020-08-04T08:52:07.847Z</time>
      </trkpt>
      <trkpt lat="63.22507" lon="8.12885">
        <ele>81.329997</ele>
        <time>2020-08-04T08:52:09.812Z</time>
      </trkpt>
      <trkpt lat="63.22504" lon="8.12909">
        <ele>81.340857</ele>
        <time>2020-08-04T08:52:11.829Z</time>
      </trkpt>
      <trkpt lat="63.22502" lon="8.12932">
        <ele>81.351456</ele>
        <time>2020-08-04T08:52:13.825Z</time>
      </trkpt>
      <trkpt lat="63.22499" lon="8.12954">
        <ele>81.361566</ele>
        <time>2020-08-04T08:52:15.857Z</time>
      </trkpt>
      <trkpt lat="63.22496" lon="8.12975">
        <ele>81.455116</ele>
        <time>2020-08-04T08:52:17.843Z</time>
      </trkpt>
      <trkpt lat="63.22492" lon="8.12995">
        <ele>81.654952</ele>
        <time>2020-08-04T08:52:19.838Z</time>
      </trkpt>
      <trkpt lat="63.22486" lon="8.13014">
        <ele>81.857909</ele>
        <time>2020-08-04T08:52:21.861Z</time>
      </trkpt>
      <trkpt lat="63.2248" lon="8.1303">
        <ele>82.055538</ele>
        <time>2020-08-04T08:52:23.861Z</time>
      </trkpt>
      <trkpt lat="63.22472" lon="8.13045">
        <ele>82.256477</ele>
        <time>2020-08-04T08:52:25.834Z</time>
      </trkpt>
      <trkpt lat="63.22464" lon="8.13057">
        <ele>82.457094</ele>
        <time>2020-08-04T08:52:27.842Z</time>
      </trkpt>
      <trkpt lat="63.22456" lon="8.13067">
        <ele>82.641096</ele>
        <time>2020-08-04T08:52:29.834Z</time>
      </trkpt>
      <trkpt lat="63.22445" lon="8.13079">
        <ele>82.892956</ele>
        <time>2020-08-04T08:52:32.856Z</time>
      </trkpt>
      <trkpt lat="63.22432" lon="8.1309">
        <ele>83.16216</ele>
        <time>2020-08-04T08:52:35.826Z</time>
      </trkpt>
      <trkpt lat="63.2242" lon="8.13099">
        <ele>83.423612</ele>
        <time>2020-08-04T08:52:38.835Z</time>
      </trkpt>
      <trkpt lat="63.22408" lon="8.13107">
        <ele>83.674125</ele>
        <time>2020-08-04T08:52:41.850Z</time>
      </trkpt>
      <trkpt lat="63.22397" lon="8.13116">
        <ele>83.915852</ele>
        <time>2020-08-04T08:52:44.851Z</time>
      </trkpt>
      <trkpt lat="63.22385" lon="8.13125">
        <ele>84.154896</ele>
        <time>2020-08-04T08:52:47.873Z</time>
      </trkpt>
      <trkpt lat="63.22374" lon="8.13134">
        <ele>84.40418</ele>
        <time>2020-08-04T08:52:50.828Z</time>
      </trkpt>
      <trkpt lat="63.22361" lon="8.13143">
        <ele>84.666032</ele>
        <time>2020-08-04T08:52:53.857Z</time>
      </trkpt>
      <trkpt lat="63.22349" lon="8.13153">
        <ele>84.932993</ele>
        <time>2020-08-04T08:52:56.867Z</time>
      </trkpt>
      <trkpt lat="63.2234" lon="8.13159">
        <ele>85.239628</ele>
        <time>2020-08-04T08:52:58.873Z</time>
      </trkpt>
      <trkpt lat="63.22328" lon="8.13168">
        <ele>85.749368</ele>
        <time>2020-08-04T08:53:01.863Z</time>
      </trkpt>
      <trkpt lat="63.22315" lon="8.13178">
        <ele>86.256119</ele>
        <time>2020-08-04T08:53:04.843Z</time>
      </trkpt>
      <trkpt lat="63.22303" lon="8.13187">
        <ele>86.757391</ele>
        <time>2020-08-04T08:53:07.855Z</time>
      </trkpt>
      <trkpt lat="63.22291" lon="8.13195">
        <ele>87.241216</ele>
        <time>2020-08-04T08:53:10.851Z</time>
      </trkpt>
      <trkpt lat="63.2228" lon="8.13203">
        <ele>87.701207</ele>
        <time>2020-08-04T08:53:13.844Z</time>
      </trkpt>
      <trkpt lat="63.22269" lon="8.13211">
        <ele>88.145313</ele>
        <time>2020-08-04T08:53:16.850Z</time>
      </trkpt>
      <trkpt lat="63.22259" lon="8.13217">
        <ele>88.559691</ele>
        <time>2020-08-04T08:53:19.837Z</time>
      </trkpt>
      <trkpt lat="63.22249" lon="8.13223">
        <ele>88.964237</ele>
        <time>2020-08-04T08:53:22.852Z</time>
      </trkpt>
      <trkpt lat="63.2224" lon="8.13229">
        <ele>89.33106</ele>
        <time>2020-08-04T08:53:25.873Z</time>
      </trkpt>
      <trkpt lat="63.22229" lon="8.13237">
        <ele>89.782077</ele>
        <time>2020-08-04T08:53:29.869Z</time>
      </trkpt>
      <trkpt lat="63.22218" lon="8.13244">
        <ele>90.212461</ele>
        <time>2020-08-04T08:53:33.832Z</time>
      </trkpt>
      <trkpt lat="63.22208" lon="8.1325">
        <ele>90.610463</ele>
        <time>2020-08-04T08:53:37.868Z</time>
      </trkpt>
      <trkpt lat="63.22199" lon="8.13256">
        <ele>90.983194</ele>
        <time>2020-08-04T08:53:41.828Z</time>
      </trkpt>
      <trkpt lat="63.2219" lon="8.13262">
        <ele>91.34898</ele>
        <time>2020-08-04T08:53:45.850Z</time>
      </trkpt>
      <trkpt lat="63.22181" lon="8.13268">
        <ele>91.702083</ele>
        <time>2020-08-04T08:53:49.854Z</time>
      </trkpt>
      <trkpt lat="63.22172" lon="8.13274">
        <ele>92.097532</ele>
        <time>2020-08-04T08:53:54.840Z</time>
      </trkpt>
      <trkpt lat="63.22163" lon="8.1328">
        <ele>92.558178</ele>
        <time>2020-08-04T08:53:59.844Z</time>
      </trkpt>
      <trkpt lat="63.22153" lon="8.13286">
        <ele>93.093242</ele>
        <time>2020-08-04T08:54:05.838Z</time>
      </trkpt>
      <trkpt lat="63.22144" lon="8.13291">
        <ele>93.566567</ele>
        <time>2020-08-04T08:54:10.876Z</time>
      </trkpt>
      <trkpt lat="63.22134" lon="8.13298">
        <ele>94.047654</ele>
        <time>2020-08-04T08:54:15.875Z</time>
      </trkpt>
      <trkpt lat="63.22124" lon="8.13303">
        <ele>94.587469</ele>
        <time>2020-08-04T08:54:21.845Z</time>
      </trkpt>
      <trkpt lat="63.22114" lon="8.13308">
        <ele>95.055464</ele>
        <time>2020-08-04T08:54:27.843Z</time>
      </trkpt>
      <trkpt lat="63.22105" lon="8.13311">
        <ele>95.517432</ele>
        <time>2020-08-04T08:54:33.855Z</time>
      </trkpt>
      <trkpt lat="63.22096" lon="8.13316">
        <ele>96.003649</ele>
        <time>2020-08-04T08:54:38.833Z</time>
      </trkpt>
      <trkpt lat="63.22086" lon="8.13322">
        <ele>96.513227</ele>
        <time>2020-08-04T08:54:44.847Z</time>
      </trkpt>
      <trkpt lat="63.22077" lon="8.13326">
        <ele>96.9628</ele>
        <time>2020-08-04T08:54:49.831Z</time>
      </trkpt>
      <trkpt lat="63.22067" lon="8.13331">
        <ele>97.463488</ele>
        <time>2020-08-04T08:54:55.871Z</time>
      </trkpt>
      <trkpt lat="63.22058" lon="8.13336">
        <ele>97.931483</ele>
        <time>2020-08-04T08:55:01.854Z</time>
      </trkpt>
      <trkpt lat="63.22048" lon="8.13341">
        <ele>98.438453</ele>
        <time>2020-08-04T08:55:07.834Z</time>
      </trkpt>
      <trkpt lat="63.22038" lon="8.13345">
        <ele>98.920267</ele>
        <time>2020-08-04T08:55:13.878Z</time>
      </trkpt>
      <trkpt lat="63.22029" lon="8.1335">
        <ele>99.373338</ele>
        <time>2020-08-04T08:55:18.869Z</time>
      </trkpt>
      <trkpt lat="63.2202" lon="8.13356">
        <ele>99.851248</ele>
        <time>2020-08-04T08:55:23.832Z</time>
      </trkpt>
      <trkpt lat="63.2201" lon="8.13362">
        <ele>100.374375</ele>
        <time>2020-08-04T08:55:29.845Z</time>
      </trkpt>
      <trkpt lat="63.22" lon="8.13366">
        <ele>100.843747</ele>
        <time>2020-08-04T08:55:34.844Z</time>
      </trkpt>
      <trkpt lat="63.2199" lon="8.13372">
        <ele>101.452273</ele>
        <time>2020-08-04T08:55:40.858Z</time>
      </trkpt>
      <trkpt lat="63.21981" lon="8.13377">
        <ele>101.960034</ele>
        <time>2020-08-04T08:55:45.837Z</time>
      </trkpt>
      <trkpt lat="63.21972" lon="8.13381">
        <ele>102.47748</ele>
        <time>2020-08-04T08:55:51.837Z</time>
      </trkpt>
      <trkpt lat="63.21963" lon="8.13387">
        <ele>103.010065</ele>
        <time>2020-08-04T08:55:57.855Z</time>
      </trkpt>
      <trkpt lat="63.21953" lon="8.13394">
        <ele>103.564708</ele>
        <time>2020-08-04T08:56:03.854Z</time>
      </trkpt>
      <trkpt lat="63.21945" lon="8.13403">
        <ele>104.073167</ele>
        <time>2020-08-04T08:56:09.827Z</time>
      </trkpt>
      <trkpt lat="63.21936" lon="8.13412">
        <ele>104.623061</ele>
        <time>2020-08-04T08:56:15.873Z</time>
      </trkpt>
      <trkpt lat="63.21928" lon="8.13425">
        <ele>105.18161</ele>
        <time>2020-08-04T08:56:21.870Z</time>
      </trkpt>
      <trkpt lat="63.21921" lon="8.13437">
        <ele>105.693544</ele>
        <time>2020-08-04T08:56:26.844Z</time>
      </trkpt>
      <trkpt lat="63.21913" lon="8.13453">
        <ele>106.259559</ele>
        <time>2020-08-04T08:56:32.852Z</time>
      </trkpt>
      <trkpt lat="63.21907" lon="8.13473">
        <ele>106.876093</ele>
        <time>2020-08-04T08:56:38.854Z</time>
      </trkpt>
      <trkpt lat="63.21902" lon="8.1349">
        <ele>107.401799</ele>
        <time>2020-08-04T08:56:43.907Z</time>
      </trkpt>
      <trkpt lat="63.21898" lon="8.13509">
        <ele>107.932928</ele>
        <time>2020-08-04T08:56:49.843Z</time>
      </trkpt>
      <trkpt lat="63.21895" lon="8.13531">
        <ele>108.511838</ele>
        <time>2020-08-04T08:56:55.828Z</time>
      </trkpt>
      <trkpt lat="63.21893" lon="8.13555">
        <ele>109.135783</ele>
        <time>2020-08-04T08:57:00.842Z</time>
      </trkpt>
      <trkpt lat="63.21893" lon="8.13576">
        <ele>109.658528</ele>
        <time>2020-08-04T08:57:04.870Z</time>
      </trkpt>
      <trkpt lat="63.21894" lon="8.13601">
        <ele>110.307015</ele>
        <time>2020-08-04T08:57:09.850Z</time>
      </trkpt>
      <trkpt lat="63.21896" lon="8.13623">
        <ele>110.85232</ele>
        <time>2020-08-04T08:57:13.837Z</time>
      </trkpt>
      <trkpt lat="63.21899" lon="8.13643">
        <ele>110.817978</ele>
        <time>2020-08-04T08:57:18.842Z</time>
      </trkpt>
      <trkpt lat="63.21902" lon="8.13665">
        <ele>110.689877</ele>
        <time>2020-08-04T08:57:21.862Z</time>
      </trkpt>
      <trkpt lat="63.21906" lon="8.13689">
        <ele>110.540414</ele>
        <time>2020-08-04T08:57:25.855Z</time>
      </trkpt>
      <trkpt lat="63.2191" lon="8.13709">
        <ele>110.418311</ele>
        <time>2020-08-04T08:57:28.877Z</time>
      </trkpt>
      <trkpt lat="63.21916" lon="8.13731">
        <ele>110.280009</ele>
        <time>2020-08-04T08:57:31.827Z</time>
      </trkpt>
      <trkpt lat="63.2192" lon="8.13753">
        <ele>110.141925</ele>
        <time>2020-08-04T08:57:34.840Z</time>
      </trkpt>
      <trkpt lat="63.21925" lon="8.13777">
        <ele>109.993032</ele>
        <time>2020-08-04T08:57:37.858Z</time>
      </trkpt>
      <trkpt lat="63.21929" lon="8.13804">
        <ele>109.831946</ele>
        <time>2020-08-04T08:57:40.839Z</time>
      </trkpt>
      <trkpt lat="63.21932" lon="8.13825">
        <ele>109.709521</ele>
        <time>2020-08-04T08:57:42.838Z</time>
      </trkpt>
      <trkpt lat="63.21932" lon="8.13847">
        <ele>109.585609</ele>
        <time>2020-08-04T08:57:44.855Z</time>
      </trkpt>
      <trkpt lat="63.21933" lon="8.13875">
        <ele>109.426177</ele>
        <time>2020-08-04T08:57:46.853Z</time>
      </trkpt>
      <trkpt lat="63.21933" lon="8.13905">
        <ele>109.257779</ele>
        <time>2020-08-04T08:57:48.872Z</time>
      </trkpt>
      <trkpt lat="63.2193" lon="8.13929">
        <ele>109.114443</ele>
        <time>2020-08-04T08:57:50.874Z</time>
      </trkpt>
      <trkpt lat="63.21926" lon="8.13953">
        <ele>108.966579</ele>
        <time>2020-08-04T08:57:52.832Z</time>
      </trkpt>
      <trkpt lat="63.2192" lon="8.1398">
        <ele>108.798535</ele>
        <time>2020-08-04T08:57:54.855Z</time>
      </trkpt>
      <trkpt lat="63.21912" lon="8.14003">
        <ele>108.538004</ele>
        <time>2020-08-04T08:57:56.838Z</time>
      </trkpt>
      <trkpt lat="63.21903" lon="8.14025">
        <ele>107.675947</ele>
        <time>2020-08-04T08:57:58.840Z</time>
      </trkpt>
      <trkpt lat="63.21892" lon="8.14043">
        <ele>106.810806</ele>
        <time>2020-08-04T08:58:00.836Z</time>
      </trkpt>
      <trkpt lat="63.21878" lon="8.14058">
        <ele>105.88227</ele>
        <time>2020-08-04T08:58:02.880Z</time>
      </trkpt>
      <trkpt lat="63.21865" lon="8.14067">
        <ele>104.998577</ele>
        <time>2020-08-04T08:58:04.860Z</time>
      </trkpt>
      <trkpt lat="63.21849" lon="8.1407">
        <ele>104.033174</ele>
        <time>2020-08-04T08:58:06.842Z</time>
      </trkpt>
      <trkpt lat="63.21835" lon="8.14068">
        <ele>103.146206</ele>
        <time>2020-08-04T08:58:08.856Z</time>
      </trkpt>
      <trkpt lat="63.21822" lon="8.14063">
        <ele>102.303534</ele>
        <time>2020-08-04T08:58:10.869Z</time>
      </trkpt>
      <trkpt lat="63.21809" lon="8.14054">
        <ele>101.481947</ele>
        <time>2020-08-04T08:58:12.876Z</time>
      </trkpt>
      <trkpt lat="63.21799" lon="8.14044">
        <ele>100.751652</ele>
        <time>2020-08-04T08:58:14.839Z</time>
      </trkpt>
      <trkpt lat="63.21788" lon="8.14032">
        <ele>100.014281</ele>
        <time>2020-08-04T08:58:16.856Z</time>
      </trkpt>
      <trkpt lat="63.21778" lon="8.1402">
        <ele>99.306791</ele>
        <time>2020-08-04T08:58:18.861Z</time>
      </trkpt>
      <trkpt lat="63.21769" lon="8.1401">
        <ele>98.656478</ele>
        <time>2020-08-04T08:58:20.879Z</time>
      </trkpt>
      <trkpt lat="63.21757" lon="8.13996">
        <ele>97.859295</ele>
        <time>2020-08-04T08:58:23.845Z</time>
      </trkpt>
      <trkpt lat="63.21749" lon="8.13987">
        <ele>97.485624</ele>
        <time>2020-08-04T08:58:25.833Z</time>
      </trkpt>
      <trkpt lat="63.2174" lon="8.13977">
        <ele>97.568332</ele>
        <time>2020-08-04T08:58:27.842Z</time>
      </trkpt>
      <trkpt lat="63.21731" lon="8.13967">
        <ele>97.654708</ele>
        <time>2020-08-04T08:58:29.832Z</time>
      </trkpt>
      <trkpt lat="63.21723" lon="8.13958">
        <ele>97.733684</ele>
        <time>2020-08-04T08:58:31.875Z</time>
      </trkpt>
      <trkpt lat="63.21714" lon="8.13948">
        <ele>97.813182</ele>
        <time>2020-08-04T08:58:33.844Z</time>
      </trkpt>
      <trkpt lat="63.21706" lon="8.13939">
        <ele>97.89165</ele>
        <time>2020-08-04T08:58:35.843Z</time>
      </trkpt>
      <trkpt lat="63.21698" lon="8.1393">
        <ele>97.968351</ele>
        <time>2020-08-04T08:58:37.823Z</time>
      </trkpt>
      <trkpt lat="63.2169" lon="8.13921">
        <ele>98.044787</ele>
        <time>2020-08-04T08:58:39.850Z</time>
      </trkpt>
      <trkpt lat="63.21678" lon="8.13909">
        <ele>98.155658</ele>
        <time>2020-08-04T08:58:42.851Z</time>
      </trkpt>
      <trkpt lat="63.21667" lon="8.13896">
        <ele>98.264663</ele>
        <time>2020-08-04T08:58:45.863Z</time>
      </trkpt>
      <trkpt lat="63.21659" lon="8.13888">
        <ele>98.341693</ele>
        <time>2020-08-04T08:58:47.872Z</time>
      </trkpt>
      <trkpt lat="63.2165" lon="8.13881">
        <ele>98.419937</ele>
        <time>2020-08-04T08:58:49.832Z</time>
      </trkpt>
      <trkpt lat="63.21637" lon="8.13872">
        <ele>98.532966</ele>
        <time>2020-08-04T08:58:52.882Z</time>
      </trkpt>
      <trkpt lat="63.21625" lon="8.13866">
        <ele>98.63738</ele>
        <time>2020-08-04T08:58:55.846Z</time>
      </trkpt>
      <trkpt lat="63.21612" lon="8.13861">
        <ele>98.751063</ele>
        <time>2020-08-04T08:58:58.844Z</time>
      </trkpt>
      <trkpt lat="63.21599" lon="8.13859">
        <ele>98.863869</ele>
        <time>2020-08-04T08:59:01.854Z</time>
      </trkpt>
      <trkpt lat="63.21586" lon="8.13858">
        <ele>98.971151</ele>
        <time>2020-08-04T08:59:04.855Z</time>
      </trkpt>
      <trkpt lat="63.21574" lon="8.13859">
        <ele>99.099652</ele>
        <time>2020-08-04T08:59:07.853Z</time>
      </trkpt>
      <trkpt lat="63.21562" lon="8.1386">
        <ele>99.226329</ele>
        <time>2020-08-04T08:59:10.837Z</time>
      </trkpt>
      <trkpt lat="63.21549" lon="8.1386">
        <ele>99.360241</ele>
        <time>2020-08-04T08:59:13.848Z</time>
      </trkpt>
      <trkpt lat="63.21536" lon="8.13858">
        <ele>99.49452</ele>
        <time>2020-08-04T08:59:16.827Z</time>
      </trkpt>
      <trkpt lat="63.21523" lon="8.13851">
        <ele>99.637509</ele>
        <time>2020-08-04T08:59:19.838Z</time>
      </trkpt>
      <trkpt lat="63.21515" lon="8.13845">
        <ele>99.732282</ele>
        <time>2020-08-04T08:59:21.827Z</time>
      </trkpt>
      <trkpt lat="63.21506" lon="8.13838">
        <ele>99.830062</ele>
        <time>2020-08-04T08:59:23.856Z</time>
      </trkpt>
      <trkpt lat="63.21498" lon="8.13829">
        <ele>99.926249</ele>
        <time>2020-08-04T08:59:25.857Z</time>
      </trkpt>
      <trkpt lat="63.21486" lon="8.13817">
        <ele>100.064867</ele>
        <time>2020-08-04T08:59:28.856Z</time>
      </trkpt>
      <trkpt lat="63.21473" lon="8.13804">
        <ele>100.210423</ele>
        <time>2020-08-04T08:59:31.844Z</time>
      </trkpt>
      <trkpt lat="63.21465" lon="8.13795">
        <ele>100.309522</ele>
        <time>2020-08-04T08:59:33.867Z</time>
      </trkpt>
      <trkpt lat="63.21456" lon="8.13787">
        <ele>100.41077</ele>
        <time>2020-08-04T08:59:35.843Z</time>
      </trkpt>
      <trkpt lat="63.21447" lon="8.13781">
        <ele>100.510419</ele>
        <time>2020-08-04T08:59:37.867Z</time>
      </trkpt>
      <trkpt lat="63.21438" lon="8.13776">
        <ele>100.606881</ele>
        <time>2020-08-04T08:59:39.873Z</time>
      </trkpt>
      <trkpt lat="63.21428" lon="8.13773">
        <ele>100.709168</ele>
        <time>2020-08-04T08:59:41.837Z</time>
      </trkpt>
      <trkpt lat="63.21417" lon="8.13771">
        <ele>100.824381</ele>
        <time>2020-08-04T08:59:43.864Z</time>
      </trkpt>
      <trkpt lat="63.21407" lon="8.13772">
        <ele>100.821892</ele>
        <time>2020-08-04T08:59:45.838Z</time>
      </trkpt>
      <trkpt lat="63.21397" lon="8.13774">
        <ele>100.678801</ele>
        <time>2020-08-04T08:59:47.914Z</time>
      </trkpt>
      <trkpt lat="63.21387" lon="8.13778">
        <ele>100.533065</ele>
        <time>2020-08-04T08:59:49.871Z</time>
      </trkpt>
      <trkpt lat="63.21377" lon="8.13784">
        <ele>100.37948</ele>
        <time>2020-08-04T08:59:51.846Z</time>
      </trkpt>
      <trkpt lat="63.21366" lon="8.13793">
        <ele>100.215441</ele>
        <time>2020-08-04T08:59:53.850Z</time>
      </trkpt>
      <trkpt lat="63.21355" lon="8.13803">
        <ele>100.042236</ele>
        <time>2020-08-04T08:59:55.897Z</time>
      </trkpt>
      <trkpt lat="63.21344" lon="8.13816">
        <ele>99.859443</ele>
        <time>2020-08-04T08:59:57.862Z</time>
      </trkpt>
      <trkpt lat="63.21332" lon="8.1383">
        <ele>99.667414</ele>
        <time>2020-08-04T08:59:59.848Z</time>
      </trkpt>
      <trkpt lat="63.2132" lon="8.13846">
        <ele>99.471861</ele>
        <time>2020-08-04T09:00:01.841Z</time>
      </trkpt>
      <trkpt lat="63.21309" lon="8.13861">
        <ele>99.275976</ele>
        <time>2020-08-04T09:00:03.846Z</time>
      </trkpt>
      <trkpt lat="63.21297" lon="8.13877">
        <ele>99.081722</ele>
        <time>2020-08-04T09:00:05.832Z</time>
      </trkpt>
      <trkpt lat="63.21285" lon="8.13894">
        <ele>98.877919</ele>
        <time>2020-08-04T09:00:07.854Z</time>
      </trkpt>
      <trkpt lat="63.21274" lon="8.1391">
        <ele>98.682595</ele>
        <time>2020-08-04T09:00:09.873Z</time>
      </trkpt>
      <trkpt lat="63.21261" lon="8.13926">
        <ele>98.476434</ele>
        <time>2020-08-04T09:00:11.887Z</time>
      </trkpt>
      <trkpt lat="63.21249" lon="8.13944">
        <ele>98.220418</ele>
        <time>2020-08-04T09:00:13.843Z</time>
      </trkpt>
      <trkpt lat="63.21236" lon="8.13961">
        <ele>97.804573</ele>
        <time>2020-08-04T09:00:15.877Z</time>
      </trkpt>
      <trkpt lat="63.21223" lon="8.1398">
        <ele>97.366798</ele>
        <time>2020-08-04T09:00:17.840Z</time>
      </trkpt>
      <trkpt lat="63.2121" lon="8.13999">
        <ele>96.940623</ele>
        <time>2020-08-04T09:00:19.831Z</time>
      </trkpt>
      <trkpt lat="63.21198" lon="8.14015">
        <ele>96.550713</ele>
        <time>2020-08-04T09:00:21.846Z</time>
      </trkpt>
      <trkpt lat="63.21185" lon="8.14032">
        <ele>96.12751</ele>
        <time>2020-08-04T09:00:23.851Z</time>
      </trkpt>
      <trkpt lat="63.21173" lon="8.14048">
        <ele>95.724989</ele>
        <time>2020-08-04T09:00:25.874Z</time>
      </trkpt>
      <trkpt lat="63.21161" lon="8.14066">
        <ele>95.323945</ele>
        <time>2020-08-04T09:00:27.889Z</time>
      </trkpt>
      <trkpt lat="63.21148" lon="8.14084">
        <ele>94.898681</ele>
        <time>2020-08-04T09:00:29.834Z</time>
      </trkpt>
      <trkpt lat="63.21136" lon="8.14101">
        <ele>94.494318</ele>
        <time>2020-08-04T09:00:31.835Z</time>
      </trkpt>
      <trkpt lat="63.21125" lon="8.14119">
        <ele>94.114826</ele>
        <time>2020-08-04T09:00:33.852Z</time>
      </trkpt>
      <trkpt lat="63.21114" lon="8.14139">
        <ele>93.716274</ele>
        <time>2020-08-04T09:00:35.829Z</time>
      </trkpt>
      <trkpt lat="63.21102" lon="8.14159">
        <ele>93.317113</ele>
        <time>2020-08-04T09:00:37.836Z</time>
      </trkpt>
      <trkpt lat="63.21092" lon="8.1418">
        <ele>92.987967</ele>
        <time>2020-08-04T09:00:39.901Z</time>
      </trkpt>
      <trkpt lat="63.21084" lon="8.14201">
        <ele>92.691745</ele>
        <time>2020-08-04T09:00:41.867Z</time>
      </trkpt>
      <trkpt lat="63.21077" lon="8.14216">
        <ele>92.459707</ele>
        <time>2020-08-04T09:00:42.859Z</time>
      </trkpt>
      <trkpt lat="63.21068" lon="8.14238">
        <ele>92.152442</ele>
        <time>2020-08-04T09:00:44.842Z</time>
      </trkpt>
      <trkpt lat="63.21059" lon="8.14259">
        <ele>91.860759</ele>
        <time>2020-08-04T09:00:46.860Z</time>
      </trkpt>
      <trkpt lat="63.2105" lon="8.14284">
        <ele>91.526863</ele>
        <time>2020-08-04T09:00:48.872Z</time>
      </trkpt>
      <trkpt lat="63.21042" lon="8.14306">
        <ele>91.23019</ele>
        <time>2020-08-04T09:00:50.844Z</time>
      </trkpt>
      <trkpt lat="63.21034" lon="8.14328">
        <ele>90.921308</ele>
        <time>2020-08-04T09:00:52.839Z</time>
      </trkpt>
      <trkpt lat="63.21024" lon="8.1435">
        <ele>90.59263</ele>
        <time>2020-08-04T09:00:54.878Z</time>
      </trkpt>
      <trkpt lat="63.21014" lon="8.14373">
        <ele>90.262878</ele>
        <time>2020-08-04T09:00:56.831Z</time>
      </trkpt>
      <trkpt lat="63.21004" lon="8.14394">
        <ele>89.936327</ele>
        <time>2020-08-04T09:00:58.867Z</time>
      </trkpt>
      <trkpt lat="63.20992" lon="8.14413">
        <ele>89.611454</ele>
        <time>2020-08-04T09:01:00.871Z</time>
      </trkpt>
      <trkpt lat="63.2098" lon="8.14433">
        <ele>89.261032</ele>
        <time>2020-08-04T09:01:02.845Z</time>
      </trkpt>
      <trkpt lat="63.2097" lon="8.14446">
        <ele>88.893869</ele>
        <time>2020-08-04T09:01:04.856Z</time>
      </trkpt>
      <trkpt lat="63.20958" lon="8.14461">
        <ele>88.290775</ele>
        <time>2020-08-04T09:01:06.839Z</time>
      </trkpt>
      <trkpt lat="63.20944" lon="8.14476">
        <ele>87.634813</ele>
        <time>2020-08-04T09:01:08.839Z</time>
      </trkpt>
      <trkpt lat="63.2093" lon="8.14489">
        <ele>86.991481</ele>
        <time>2020-08-04T09:01:10.831Z</time>
      </trkpt>
      <trkpt lat="63.20915" lon="8.14499">
        <ele>86.346519</ele>
        <time>2020-08-04T09:01:12.852Z</time>
      </trkpt>
      <trkpt lat="63.209" lon="8.14507">
        <ele>85.69457</ele>
        <time>2020-08-04T09:01:14.840Z</time>
      </trkpt>
      <trkpt lat="63.20885" lon="8.14514">
        <ele>85.053929</ele>
        <time>2020-08-04T09:01:16.833Z</time>
      </trkpt>
      <trkpt lat="63.20871" lon="8.1452">
        <ele>84.415103</ele>
        <time>2020-08-04T09:01:18.839Z</time>
      </trkpt>
      <trkpt lat="63.20856" lon="8.14527">
        <ele>83.77912</ele>
        <time>2020-08-04T09:01:20.889Z</time>
      </trkpt>
      <trkpt lat="63.20841" lon="8.14535">
        <ele>83.104625</ele>
        <time>2020-08-04T09:01:22.835Z</time>
      </trkpt>
      <trkpt lat="63.20825" lon="8.14544">
        <ele>82.417883</ele>
        <time>2020-08-04T09:01:24.861Z</time>
      </trkpt>
      <trkpt lat="63.20809" lon="8.14553">
        <ele>81.730343</ele>
        <time>2020-08-04T09:01:26.845Z</time>
      </trkpt>
      <trkpt lat="63.20795" lon="8.14566">
        <ele>81.018903</ele>
        <time>2020-08-04T09:01:28.853Z</time>
      </trkpt>
      <trkpt lat="63.2078" lon="8.14581">
        <ele>80.217558</ele>
        <time>2020-08-04T09:01:30.852Z</time>
      </trkpt>
      <trkpt lat="63.20766" lon="8.14598">
        <ele>79.405322</ele>
        <time>2020-08-04T09:01:32.856Z</time>
      </trkpt>
      <trkpt lat="63.20752" lon="8.14617">
        <ele>78.587124</ele>
        <time>2020-08-04T09:01:34.860Z</time>
      </trkpt>
      <trkpt lat="63.20743" lon="8.14628">
        <ele>78.103107</ele>
        <time>2020-08-04T09:01:35.842Z</time>
      </trkpt>
      <trkpt lat="63.20729" lon="8.1465">
        <ele>77.256162</ele>
        <time>2020-08-04T09:01:37.838Z</time>
      </trkpt>
      <trkpt lat="63.20717" lon="8.14675">
        <ele>76.422637</ele>
        <time>2020-08-04T09:01:39.854Z</time>
      </trkpt>
      <trkpt lat="63.2071" lon="8.14688">
        <ele>75.956604</ele>
        <time>2020-08-04T09:01:40.878Z</time>
      </trkpt>
      <trkpt lat="63.20703" lon="8.14703">
        <ele>75.491026</ele>
        <time>2020-08-04T09:01:41.858Z</time>
      </trkpt>
      <trkpt lat="63.20697" lon="8.14718">
        <ele>75.035041</ele>
        <time>2020-08-04T09:01:42.899Z</time>
      </trkpt>
      <trkpt lat="63.20691" lon="8.14734">
        <ele>74.57062</ele>
        <time>2020-08-04T09:01:43.840Z</time>
      </trkpt>
      <trkpt lat="63.20684" lon="8.14751">
        <ele>74.077583</ele>
        <time>2020-08-04T09:01:44.852Z</time>
      </trkpt>
      <trkpt lat="63.20678" lon="8.14767">
        <ele>73.608701</ele>
        <time>2020-08-04T09:01:45.843Z</time>
      </trkpt>
      <trkpt lat="63.20673" lon="8.14784">
        <ele>73.156524</ele>
        <time>2020-08-04T09:01:46.841Z</time>
      </trkpt>
      <trkpt lat="63.20665" lon="8.14818">
        <ele>72.234732</ele>
        <time>2020-08-04T09:01:48.868Z</time>
      </trkpt>
      <trkpt lat="63.20657" lon="8.14852">
        <ele>71.209476</ele>
        <time>2020-08-04T09:01:50.849Z</time>
      </trkpt>
      <trkpt lat="63.20653" lon="8.1487">
        <ele>70.657194</ele>
        <time>2020-08-04T09:01:51.839Z</time>
      </trkpt>
      <trkpt lat="63.20645" lon="8.14906">
        <ele>69.587091</ele>
        <time>2020-08-04T09:01:53.839Z</time>
      </trkpt>
      <trkpt lat="63.20636" lon="8.14938">
        <ele>68.598988</ele>
        <time>2020-08-04T09:01:55.837Z</time>
      </trkpt>
      <trkpt lat="63.20631" lon="8.14955">
        <ele>68.027223</ele>
        <time>2020-08-04T09:01:56.846Z</time>
      </trkpt>
      <trkpt lat="63.20626" lon="8.14972">
        <ele>67.469829</ele>
        <time>2020-08-04T09:01:57.842Z</time>
      </trkpt>
      <trkpt lat="63.2062" lon="8.14988">
        <ele>66.925715</ele>
        <time>2020-08-04T09:01:58.841Z</time>
      </trkpt>
      <trkpt lat="63.20614" lon="8.15005">
        <ele>66.335623</ele>
        <time>2020-08-04T09:01:59.852Z</time>
      </trkpt>
      <trkpt lat="63.20607" lon="8.15025">
        <ele>65.650765</ele>
        <time>2020-08-04T09:02:00.878Z</time>
      </trkpt>
      <trkpt lat="63.20601" lon="8.15041">
        <ele>65.098975</ele>
        <time>2020-08-04T09:02:01.829Z</time>
      </trkpt>
      <trkpt lat="63.20596" lon="8.15066">
        <ele>64.369903</ele>
        <time>2020-08-04T09:02:04.833Z</time>
      </trkpt>
      <trkpt lat="63.20596" lon="8.15098">
        <ele>63.514208</ele>
        <time>2020-08-04T09:02:05.837Z</time>
      </trkpt>
      <trkpt lat="63.20597" lon="8.15125">
        <ele>62.782563</ele>
        <time>2020-08-04T09:02:06.850Z</time>
      </trkpt>
      <trkpt lat="63.20599" lon="8.15149">
        <ele>62.137469</ele>
        <time>2020-08-04T09:02:07.883Z</time>
      </trkpt>
      <trkpt lat="63.20599" lon="8.15171">
        <ele>61.69882</ele>
        <time>2020-08-04T09:02:08.837Z</time>
      </trkpt>
      <trkpt lat="63.206" lon="8.15193">
        <ele>61.435784</ele>
        <time>2020-08-04T09:02:09.858Z</time>
      </trkpt>
      <trkpt lat="63.20601" lon="8.15216">
        <ele>61.169204</ele>
        <time>2020-08-04T09:02:10.878Z</time>
      </trkpt>
      <trkpt lat="63.20602" lon="8.15239">
        <ele>60.899141</ele>
        <time>2020-08-04T09:02:11.839Z</time>
      </trkpt>
      <trkpt lat="63.20602" lon="8.15262">
        <ele>60.631302</ele>
        <time>2020-08-04T09:02:12.868Z</time>
      </trkpt>
      <trkpt lat="63.20603" lon="8.15286">
        <ele>60.355302</ele>
        <time>2020-08-04T09:02:13.861Z</time>
      </trkpt>
      <trkpt lat="63.20604" lon="8.15309">
        <ele>60.083485</ele>
        <time>2020-08-04T09:02:14.838Z</time>
      </trkpt>
      <trkpt lat="63.20606" lon="8.15333">
        <ele>59.801535</ele>
        <time>2020-08-04T09:02:15.868Z</time>
      </trkpt>
      <trkpt lat="63.20607" lon="8.15356">
        <ele>59.522765</ele>
        <time>2020-08-04T09:02:16.883Z</time>
      </trkpt>
      <trkpt lat="63.20608" lon="8.15378">
        <ele>59.265746</ele>
        <time>2020-08-04T09:02:17.881Z</time>
      </trkpt>
      <trkpt lat="63.20609" lon="8.154">
        <ele>59.007564</ele>
        <time>2020-08-04T09:02:18.889Z</time>
      </trkpt>
      <trkpt lat="63.2061" lon="8.15421">
        <ele>58.764687</ele>
        <time>2020-08-04T09:02:19.838Z</time>
      </trkpt>
      <trkpt lat="63.20613" lon="8.15453">
        <ele>58.388472</ele>
        <time>2020-08-04T09:02:21.899Z</time>
      </trkpt>
      <trkpt lat="63.20616" lon="8.15488">
        <ele>57.96951</ele>
        <time>2020-08-04T09:02:23.886Z</time>
      </trkpt>
      <trkpt lat="63.20618" lon="8.15516">
        <ele>57.636906</ele>
        <time>2020-08-04T09:02:25.868Z</time>
      </trkpt>
      <trkpt lat="63.20621" lon="8.15535">
        <ele>57.401063</ele>
        <time>2020-08-04T09:02:27.854Z</time>
      </trkpt>
      <trkpt lat="63.20624" lon="8.1556">
        <ele>57.391229</ele>
        <time>2020-08-04T09:02:30.871Z</time>
      </trkpt>
      <trkpt lat="63.20628" lon="8.15581">
        <ele>58.324243</ele>
        <time>2020-08-04T09:02:33.845Z</time>
      </trkpt>
      <trkpt lat="63.20632" lon="8.15606">
        <ele>59.393964</ele>
        <time>2020-08-04T09:02:37.836Z</time>
      </trkpt>
      <trkpt lat="63.20636" lon="8.15628">
        <ele>60.37164</ele>
        <time>2020-08-04T09:02:41.871Z</time>
      </trkpt>
      <trkpt lat="63.20639" lon="8.15647">
        <ele>61.2186</ele>
        <time>2020-08-04T09:02:45.860Z</time>
      </trkpt>
      <trkpt lat="63.20643" lon="8.15666">
        <ele>62.064467</ele>
        <time>2020-08-04T09:02:49.832Z</time>
      </trkpt>
      <trkpt lat="63.20647" lon="8.15686">
        <ele>62.973848</ele>
        <time>2020-08-04T09:02:53.883Z</time>
      </trkpt>
      <trkpt lat="63.20653" lon="8.15707">
        <ele>63.953165</ele>
        <time>2020-08-04T09:02:58.837Z</time>
      </trkpt>
      <trkpt lat="63.20658" lon="8.15728">
        <ele>64.920268</ele>
        <time>2020-08-04T09:03:03.843Z</time>
      </trkpt>
      <trkpt lat="63.20663" lon="8.15747">
        <ele>65.82266</ele>
        <time>2020-08-04T09:03:07.858Z</time>
      </trkpt>
      <trkpt lat="63.20668" lon="8.15763">
        <ele>66.643756</ele>
        <time>2020-08-04T09:03:11.822Z</time>
      </trkpt>
      <trkpt lat="63.20673" lon="8.15781">
        <ele>67.481044</ele>
        <time>2020-08-04T09:03:15.868Z</time>
      </trkpt>
      <trkpt lat="63.20678" lon="8.15798">
        <ele>68.317168</ele>
        <time>2020-08-04T09:03:19.866Z</time>
      </trkpt>
      <trkpt lat="63.20683" lon="8.15816">
        <ele>69.218196</ele>
        <time>2020-08-04T09:03:23.855Z</time>
      </trkpt>
      <trkpt lat="63.20689" lon="8.15833">
        <ele>70.103904</ele>
        <time>2020-08-04T09:03:27.838Z</time>
      </trkpt>
      <trkpt lat="63.20695" lon="8.1585">
        <ele>70.936862</ele>
        <time>2020-08-04T09:03:31.833Z</time>
      </trkpt>
      <trkpt lat="63.207" lon="8.15866">
        <ele>71.762534</ele>
        <time>2020-08-04T09:03:35.853Z</time>
      </trkpt>
      <trkpt lat="63.20706" lon="8.15884">
        <ele>72.640486</ele>
        <time>2020-08-04T09:03:39.840Z</time>
      </trkpt>
      <trkpt lat="63.20712" lon="8.15899">
        <ele>73.475145</ele>
        <time>2020-08-04T09:03:43.876Z</time>
      </trkpt>
      <trkpt lat="63.20717" lon="8.15915">
        <ele>73.674281</ele>
        <time>2020-08-04T09:03:46.872Z</time>
      </trkpt>
      <trkpt lat="63.20724" lon="8.15931">
        <ele>73.884331</ele>
        <time>2020-08-04T09:03:50.840Z</time>
      </trkpt>
      <trkpt lat="63.2073" lon="8.15946">
        <ele>74.089224</ele>
        <time>2020-08-04T09:03:54.877Z</time>
      </trkpt>
      <trkpt lat="63.20737" lon="8.15963">
        <ele>74.308121</ele>
        <time>2020-08-04T09:03:58.872Z</time>
      </trkpt>
      <trkpt lat="63.20743" lon="8.15978">
        <ele>74.518907</ele>
        <time>2020-08-04T09:04:02.834Z</time>
      </trkpt>
      <trkpt lat="63.2075" lon="8.15995">
        <ele>74.740753</ele>
        <time>2020-08-04T09:04:06.851Z</time>
      </trkpt>
      <trkpt lat="63.20756" lon="8.16012">
        <ele>74.960447</ele>
        <time>2020-08-04T09:04:10.844Z</time>
      </trkpt>
      <trkpt lat="63.20763" lon="8.1603">
        <ele>75.195672</ele>
        <time>2020-08-04T09:04:14.851Z</time>
      </trkpt>
      <trkpt lat="63.2077" lon="8.16047">
        <ele>75.427096</ele>
        <time>2020-08-04T09:04:18.843Z</time>
      </trkpt>
      <trkpt lat="63.20777" lon="8.16065">
        <ele>75.662995</ele>
        <time>2020-08-04T09:04:22.838Z</time>
      </trkpt>
      <trkpt lat="63.20784" lon="8.16083">
        <ele>75.886477</ele>
        <time>2020-08-04T09:04:26.859Z</time>
      </trkpt>
      <trkpt lat="63.2079" lon="8.161">
        <ele>76.115827</ele>
        <time>2020-08-04T09:04:30.837Z</time>
      </trkpt>
      <trkpt lat="63.20798" lon="8.16119">
        <ele>76.359961</ele>
        <time>2020-08-04T09:04:34.871Z</time>
      </trkpt>
      <trkpt lat="63.20805" lon="8.16138">
        <ele>76.604683</ele>
        <time>2020-08-04T09:04:38.884Z</time>
      </trkpt>
      <trkpt lat="63.20812" lon="8.16157">
        <ele>76.856005</ele>
        <time>2020-08-04T09:04:42.852Z</time>
      </trkpt>
      <trkpt lat="63.2082" lon="8.16177">
        <ele>77.122124</ele>
        <time>2020-08-04T09:04:46.875Z</time>
      </trkpt>
      <trkpt lat="63.20827" lon="8.16195">
        <ele>77.354329</ele>
        <time>2020-08-04T09:04:49.830Z</time>
      </trkpt>
      <trkpt lat="63.20834" lon="8.16213">
        <ele>77.284502</ele>
        <time>2020-08-04T09:04:52.865Z</time>
      </trkpt>
      <trkpt lat="63.20842" lon="8.16231">
        <ele>77.067135</ele>
        <time>2020-08-04T09:04:55.848Z</time>
      </trkpt>
      <trkpt lat="63.20849" lon="8.16249">
        <ele>76.847764</ele>
        <time>2020-08-04T09:04:58.884Z</time>
      </trkpt>
      <trkpt lat="63.20856" lon="8.16267">
        <ele>76.640361</ele>
        <time>2020-08-04T09:05:01.832Z</time>
      </trkpt>
      <trkpt lat="63.20863" lon="8.16284">
        <ele>76.430973</ele>
        <time>2020-08-04T09:05:04.890Z</time>
      </trkpt>
      <trkpt lat="63.2087" lon="8.16302">
        <ele>76.219569</ele>
        <time>2020-08-04T09:05:07.849Z</time>
      </trkpt>
      <trkpt lat="63.20878" lon="8.1632">
        <ele>76.00221</ele>
        <time>2020-08-04T09:05:10.844Z</time>
      </trkpt>
      <trkpt lat="63.20885" lon="8.16339">
        <ele>75.77477</ele>
        <time>2020-08-04T09:05:13.848Z</time>
      </trkpt>
      <trkpt lat="63.20893" lon="8.1636">
        <ele>75.530824</ele>
        <time>2020-08-04T09:05:16.853Z</time>
      </trkpt>
      <trkpt lat="63.20902" lon="8.16382">
        <ele>75.267595</ele>
        <time>2020-08-04T09:05:19.861Z</time>
      </trkpt>
      <trkpt lat="63.20908" lon="8.16397">
        <ele>75.08808</ele>
        <time>2020-08-04T09:05:21.865Z</time>
      </trkpt>
      <trkpt lat="63.20914" lon="8.16413">
        <ele>74.892644</ele>
        <time>2020-08-04T09:05:23.842Z</time>
      </trkpt>
      <trkpt lat="63.20921" lon="8.1643">
        <ele>74.699807</ele>
        <time>2020-08-04T09:05:25.865Z</time>
      </trkpt>
      <trkpt lat="63.20928" lon="8.16449">
        <ele>74.471761</ele>
        <time>2020-08-04T09:05:28.845Z</time>
      </trkpt>
      <trkpt lat="63.20934" lon="8.16465">
        <ele>74.286186</ele>
        <time>2020-08-04T09:05:30.859Z</time>
      </trkpt>
      <trkpt lat="63.20941" lon="8.16482">
        <ele>74.083356</ele>
        <time>2020-08-04T09:05:32.836Z</time>
      </trkpt>
      <trkpt lat="63.20948" lon="8.165">
        <ele>73.875906</ele>
        <time>2020-08-04T09:05:34.876Z</time>
      </trkpt>
      <trkpt lat="63.20954" lon="8.16517">
        <ele>73.700648</ele>
        <time>2020-08-04T09:05:36.860Z</time>
      </trkpt>
      <trkpt lat="63.20961" lon="8.16535">
        <ele>73.523041</ele>
        <time>2020-08-04T09:05:38.862Z</time>
      </trkpt>
      <trkpt lat="63.20968" lon="8.16552">
        <ele>73.343702</ele>
        <time>2020-08-04T09:05:40.854Z</time>
      </trkpt>
      <trkpt lat="63.20974" lon="8.16569">
        <ele>73.17513</ele>
        <time>2020-08-04T09:05:42.834Z</time>
      </trkpt>
      <trkpt lat="63.2098" lon="8.16584">
        <ele>73.018016</ele>
        <time>2020-08-04T09:05:44.857Z</time>
      </trkpt>
      <trkpt lat="63.20989" lon="8.16606">
        <ele>72.793728</ele>
        <time>2020-08-04T09:05:47.830Z</time>
      </trkpt>
      <trkpt lat="63.20995" lon="8.16622">
        <ele>72.637762</ele>
        <time>2020-08-04T09:05:49.834Z</time>
      </trkpt>
      <trkpt lat="63.21004" lon="8.16642">
        <ele>72.425446</ele>
        <time>2020-08-04T09:05:52.834Z</time>
      </trkpt>
      <trkpt lat="63.2101" lon="8.1666">
        <ele>72.245836</ele>
        <time>2020-08-04T09:05:55.850Z</time>
      </trkpt>
      <trkpt lat="63.21017" lon="8.16678">
        <ele>72.073826</ele>
        <time>2020-08-04T09:05:58.886Z</time>
      </trkpt>
      <trkpt lat="63.21022" lon="8.16695">
        <ele>71.910602</ele>
        <time>2020-08-04T09:06:01.861Z</time>
      </trkpt>
      <trkpt lat="63.21027" lon="8.16712">
        <ele>71.752187</ele>
        <time>2020-08-04T09:06:04.877Z</time>
      </trkpt>
      <trkpt lat="63.21033" lon="8.16729">
        <ele>71.596639</ele>
        <time>2020-08-04T09:06:07.834Z</time>
      </trkpt>
      <trkpt lat="63.21039" lon="8.16749">
        <ele>71.407763</ele>
        <time>2020-08-04T09:06:11.831Z</time>
      </trkpt>
      <trkpt lat="63.21045" lon="8.1677">
        <ele>71.223829</ele>
        <time>2020-08-04T09:06:15.848Z</time>
      </trkpt>
      <trkpt lat="63.21051" lon="8.1679">
        <ele>71.033368</ele>
        <time>2020-08-04T09:06:19.844Z</time>
      </trkpt>
      <trkpt lat="63.21056" lon="8.16812">
        <ele>70.845422</ele>
        <time>2020-08-04T09:06:23.857Z</time>
      </trkpt>
      <trkpt lat="63.21061" lon="8.16833">
        <ele>70.689143</ele>
        <time>2020-08-04T09:06:27.833Z</time>
      </trkpt>
      <trkpt lat="63.21066" lon="8.16854">
        <ele>70.54545</ele>
        <time>2020-08-04T09:06:31.843Z</time>
      </trkpt>
      <trkpt lat="63.2107" lon="8.16873">
        <ele>70.425527</ele>
        <time>2020-08-04T09:06:34.852Z</time>
      </trkpt>
      <trkpt lat="63.21074" lon="8.16895">
        <ele>70.280764</ele>
        <time>2020-08-04T09:06:38.847Z</time>
      </trkpt>
      <trkpt lat="63.21078" lon="8.16916">
        <ele>70.144631</ele>
        <time>2020-08-04T09:06:42.850Z</time>
      </trkpt>
      <trkpt lat="63.21081" lon="8.16938">
        <ele>70.006324</ele>
        <time>2020-08-04T09:06:46.836Z</time>
      </trkpt>
      <trkpt lat="63.21083" lon="8.16961">
        <ele>69.862796</ele>
        <time>2020-08-04T09:06:50.864Z</time>
      </trkpt>
      <trkpt lat="63.21087" lon="8.16983">
        <ele>69.720026</ele>
        <time>2020-08-04T09:06:54.866Z</time>
      </trkpt>
      <trkpt lat="63.2109" lon="8.17008">
        <ele>69.566347</ele>
        <time>2020-08-04T09:06:58.839Z</time>
      </trkpt>
      <trkpt lat="63.21092" lon="8.17028">
        <ele>69.44447</ele>
        <time>2020-08-04T09:07:01.852Z</time>
      </trkpt>
      <trkpt lat="63.21094" lon="8.17049">
        <ele>69.314894</ele>
        <time>2020-08-04T09:07:04.843Z</time>
      </trkpt>
      <trkpt lat="63.21096" lon="8.17071">
        <ele>69.178884</ele>
        <time>2020-08-04T09:07:07.842Z</time>
      </trkpt>
      <trkpt lat="63.21098" lon="8.17092">
        <ele>69.049382</ele>
        <time>2020-08-04T09:07:10.849Z</time>
      </trkpt>
      <trkpt lat="63.21099" lon="8.17114">
        <ele>68.914104</ele>
        <time>2020-08-04T09:07:13.840Z</time>
      </trkpt>
      <trkpt lat="63.21101" lon="8.17138">
        <ele>68.766887</ele>
        <time>2020-08-04T09:07:16.870Z</time>
      </trkpt>
      <trkpt lat="63.21103" lon="8.17166">
        <ele>68.595631</ele>
        <time>2020-08-04T09:07:19.843Z</time>
      </trkpt>
      <trkpt lat="63.21104" lon="8.17186">
        <ele>68.471662</ele>
        <time>2020-08-04T09:07:21.847Z</time>
      </trkpt>
      <trkpt lat="63.21105" lon="8.17208">
        <ele>68.327521</ele>
        <time>2020-08-04T09:07:23.856Z</time>
      </trkpt>
      <trkpt lat="63.21105" lon="8.1723">
        <ele>68.164577</ele>
        <time>2020-08-04T09:07:25.827Z</time>
      </trkpt>
      <trkpt lat="63.21106" lon="8.17253">
        <ele>67.995292</ele>
        <time>2020-08-04T09:07:27.843Z</time>
      </trkpt>
      <trkpt lat="63.21106" lon="8.17276">
        <ele>67.820822</ele>
        <time>2020-08-04T09:07:29.843Z</time>
      </trkpt>
      <trkpt lat="63.21107" lon="8.17301">
        <ele>67.640425</ele>
        <time>2020-08-04T09:07:31.834Z</time>
      </trkpt>
      <trkpt lat="63.21107" lon="8.17327">
        <ele>67.446755</ele>
        <time>2020-08-04T09:07:33.841Z</time>
      </trkpt>
      <trkpt lat="63.21107" lon="8.17354">
        <ele>67.242066</ele>
        <time>2020-08-04T09:07:35.845Z</time>
      </trkpt>
      <trkpt lat="63.21107" lon="8.17383">
        <ele>67.027643</ele>
        <time>2020-08-04T09:07:37.842Z</time>
      </trkpt>
      <trkpt lat="63.21107" lon="8.17412">
        <ele>66.81183</ele>
        <time>2020-08-04T09:07:39.848Z</time>
      </trkpt>
      <trkpt lat="63.21107" lon="8.17442">
        <ele>66.588602</ele>
        <time>2020-08-04T09:07:41.876Z</time>
      </trkpt>
      <trkpt lat="63.21107" lon="8.17474">
        <ele>66.353509</ele>
        <time>2020-08-04T09:07:43.843Z</time>
      </trkpt>
      <trkpt lat="63.21108" lon="8.17509">
        <ele>66.096783</ele>
        <time>2020-08-04T09:07:45.832Z</time>
      </trkpt>
      <trkpt lat="63.21109" lon="8.17543">
        <ele>65.841373</ele>
        <time>2020-08-04T09:07:47.871Z</time>
      </trkpt>
      <trkpt lat="63.21111" lon="8.17578">
        <ele>65.577359</ele>
        <time>2020-08-04T09:07:49.853Z</time>
      </trkpt>
      <trkpt lat="63.21115" lon="8.17615">
        <ele>65.497923</ele>
        <time>2020-08-04T09:07:51.849Z</time>
      </trkpt>
      <trkpt lat="63.21119" lon="8.17653">
        <ele>65.626599</ele>
        <time>2020-08-04T09:07:53.861Z</time>
      </trkpt>
      <trkpt lat="63.21125" lon="8.1769">
        <ele>65.752692</ele>
        <time>2020-08-04T09:07:55.834Z</time>
      </trkpt>
      <trkpt lat="63.21132" lon="8.17724">
        <ele>65.876189</ele>
        <time>2020-08-04T09:07:57.872Z</time>
      </trkpt>
      <trkpt lat="63.21139" lon="8.17756">
        <ele>65.993221</ele>
        <time>2020-08-04T09:07:59.847Z</time>
      </trkpt>
      <trkpt lat="63.21146" lon="8.17786">
        <ele>66.105614</ele>
        <time>2020-08-04T09:08:01.840Z</time>
      </trkpt>
      <trkpt lat="63.21154" lon="8.17812">
        <ele>66.206564</ele>
        <time>2020-08-04T09:08:03.848Z</time>
      </trkpt>
      <trkpt lat="63.2116" lon="8.17832">
        <ele>66.289519</ele>
        <time>2020-08-04T09:08:05.880Z</time>
      </trkpt>
      <trkpt lat="63.21166" lon="8.17852">
        <ele>66.36672</ele>
        <time>2020-08-04T09:08:07.847Z</time>
      </trkpt>
      <trkpt lat="63.21172" lon="8.17868">
        <ele>66.43609</ele>
        <time>2020-08-04T09:08:09.840Z</time>
      </trkpt>
      <trkpt lat="63.2118" lon="8.17891">
        <ele>66.53139</ele>
        <time>2020-08-04T09:08:12.863Z</time>
      </trkpt>
      <trkpt lat="63.21188" lon="8.17911">
        <ele>66.617111</ele>
        <time>2020-08-04T09:08:15.839Z</time>
      </trkpt>
      <trkpt lat="63.21196" lon="8.1793">
        <ele>66.699622</ele>
        <time>2020-08-04T09:08:18.841Z</time>
      </trkpt>
      <trkpt lat="63.21203" lon="8.17946">
        <ele>66.855361</ele>
        <time>2020-08-04T09:08:21.855Z</time>
      </trkpt>
      <trkpt lat="63.2121" lon="8.17963">
        <ele>67.145121</ele>
        <time>2020-08-04T09:08:24.868Z</time>
      </trkpt>
      <trkpt lat="63.21217" lon="8.17979">
        <ele>67.424453</ele>
        <time>2020-08-04T09:08:27.845Z</time>
      </trkpt>
      <trkpt lat="63.21224" lon="8.17994">
        <ele>67.690257</ele>
        <time>2020-08-04T09:08:30.833Z</time>
      </trkpt>
      <trkpt lat="63.21231" lon="8.18011">
        <ele>67.987865</ele>
        <time>2020-08-04T09:08:33.870Z</time>
      </trkpt>
      <trkpt lat="63.21239" lon="8.18028">
        <ele>68.277501</ele>
        <time>2020-08-04T09:08:36.840Z</time>
      </trkpt>
      <trkpt lat="63.21246" lon="8.18045">
        <ele>68.568154</ele>
        <time>2020-08-04T09:08:39.873Z</time>
      </trkpt>
      <trkpt lat="63.21253" lon="8.18062">
        <ele>68.855836</ele>
        <time>2020-08-04T09:08:42.847Z</time>
      </trkpt>
      <trkpt lat="63.2126" lon="8.18079">
        <ele>69.158557</ele>
        <time>2020-08-04T09:08:45.868Z</time>
      </trkpt>
      <trkpt lat="63.21268" lon="8.18098">
        <ele>69.472216</ele>
        <time>2020-08-04T09:08:48.841Z</time>
      </trkpt>
      <trkpt lat="63.21276" lon="8.18117">
        <ele>69.787761</ele>
        <time>2020-08-04T09:08:51.847Z</time>
      </trkpt>
      <trkpt lat="63.21282" lon="8.18135">
        <ele>70.08873</ele>
        <time>2020-08-04T09:08:54.831Z</time>
      </trkpt>
      <trkpt lat="63.21289" lon="8.18152">
        <ele>70.371773</ele>
        <time>2020-08-04T09:08:57.845Z</time>
      </trkpt>
      <trkpt lat="63.21296" lon="8.18169">
        <ele>70.663161</ele>
        <time>2020-08-04T09:09:00.849Z</time>
      </trkpt>
      <trkpt lat="63.21304" lon="8.18188">
        <ele>70.97218</ele>
        <time>2020-08-04T09:09:03.875Z</time>
      </trkpt>
      <trkpt lat="63.21311" lon="8.18205">
        <ele>71.264501</ele>
        <time>2020-08-04T09:09:06.857Z</time>
      </trkpt>
      <trkpt lat="63.21318" lon="8.18222">
        <ele>71.555893</ele>
        <time>2020-08-04T09:09:09.854Z</time>
      </trkpt>
      <trkpt lat="63.21325" lon="8.1824">
        <ele>71.753536</ele>
        <time>2020-08-04T09:09:12.850Z</time>
      </trkpt>
      <trkpt lat="63.21332" lon="8.18259">
        <ele>71.800054</ele>
        <time>2020-08-04T09:09:15.870Z</time>
      </trkpt>
      <trkpt lat="63.21339" lon="8.18277">
        <ele>71.846234</ele>
        <time>2020-08-04T09:09:18.880Z</time>
      </trkpt>
      <trkpt lat="63.21345" lon="8.18295">
        <ele>71.893588</ele>
        <time>2020-08-04T09:09:21.847Z</time>
      </trkpt>
      <trkpt lat="63.21352" lon="8.18314">
        <ele>71.941671</ele>
        <time>2020-08-04T09:09:24.864Z</time>
      </trkpt>
      <trkpt lat="63.21359" lon="8.18333">
        <ele>71.987914</ele>
        <time>2020-08-04T09:09:27.873Z</time>
      </trkpt>
      <trkpt lat="63.21364" lon="8.1835">
        <ele>72.031187</ele>
        <time>2020-08-04T09:09:30.828Z</time>
      </trkpt>
      <trkpt lat="63.2137" lon="8.18368">
        <ele>72.074941</ele>
        <time>2020-08-04T09:09:33.866Z</time>
      </trkpt>
      <trkpt lat="63.21376" lon="8.18386">
        <ele>72.120537</ele>
        <time>2020-08-04T09:09:36.842Z</time>
      </trkpt>
      <trkpt lat="63.21382" lon="8.18405">
        <ele>72.165031</ele>
        <time>2020-08-04T09:09:39.844Z</time>
      </trkpt>
      <trkpt lat="63.21388" lon="8.18423">
        <ele>72.208685</ele>
        <time>2020-08-04T09:09:42.869Z</time>
      </trkpt>
      <trkpt lat="63.21393" lon="8.18441">
        <ele>72.252586</ele>
        <time>2020-08-04T09:09:45.866Z</time>
      </trkpt>
      <trkpt lat="63.21399" lon="8.18461">
        <ele>72.29912</ele>
        <time>2020-08-04T09:09:48.847Z</time>
      </trkpt>
      <trkpt lat="63.21405" lon="8.1848">
        <ele>72.343868</ele>
        <time>2020-08-04T09:09:51.874Z</time>
      </trkpt>
      <trkpt lat="63.2141" lon="8.18499">
        <ele>72.388113</ele>
        <time>2020-08-04T09:09:54.856Z</time>
      </trkpt>
      <trkpt lat="63.21415" lon="8.18516">
        <ele>72.428714</ele>
        <time>2020-08-04T09:09:57.857Z</time>
      </trkpt>
      <trkpt lat="63.2142" lon="8.18537">
        <ele>72.47697</ele>
        <time>2020-08-04T09:10:00.839Z</time>
      </trkpt>
      <trkpt lat="63.21426" lon="8.18557">
        <ele>72.523638</ele>
        <time>2020-08-04T09:10:03.852Z</time>
      </trkpt>
      <trkpt lat="63.21431" lon="8.18578">
        <ele>72.551367</ele>
        <time>2020-08-04T09:10:06.834Z</time>
      </trkpt>
      <trkpt lat="63.21436" lon="8.18598">
        <ele>72.576797</ele>
        <time>2020-08-04T09:10:09.836Z</time>
      </trkpt>
      <trkpt lat="63.2144" lon="8.18618">
        <ele>72.602864</ele>
        <time>2020-08-04T09:10:12.847Z</time>
      </trkpt>
      <trkpt lat="63.21444" lon="8.18639">
        <ele>72.628619</ele>
        <time>2020-08-04T09:10:15.836Z</time>
      </trkpt>
      <trkpt lat="63.21449" lon="8.1866">
        <ele>72.655204</ele>
        <time>2020-08-04T09:10:18.882Z</time>
      </trkpt>
      <trkpt lat="63.21452" lon="8.18682">
        <ele>72.681496</ele>
        <time>2020-08-04T09:10:21.836Z</time>
      </trkpt>
      <trkpt lat="63.21456" lon="8.18703">
        <ele>72.707893</ele>
        <time>2020-08-04T09:10:24.858Z</time>
      </trkpt>
      <trkpt lat="63.2146" lon="8.18726">
        <ele>72.73498</ele>
        <time>2020-08-04T09:10:27.850Z</time>
      </trkpt>
      <trkpt lat="63.21464" lon="8.18751">
        <ele>72.765655</ele>
        <time>2020-08-04T09:10:30.858Z</time>
      </trkpt>
      <trkpt lat="63.21468" lon="8.18775">
        <ele>72.795142</ele>
        <time>2020-08-04T09:10:33.852Z</time>
      </trkpt>
      <trkpt lat="63.21472" lon="8.18796">
        <ele>72.820188</ele>
        <time>2020-08-04T09:10:36.838Z</time>
      </trkpt>
      <trkpt lat="63.21475" lon="8.18817">
        <ele>72.84579</ele>
        <time>2020-08-04T09:10:39.837Z</time>
      </trkpt>
      <trkpt lat="63.21479" lon="8.18841">
        <ele>72.874465</ele>
        <time>2020-08-04T09:10:42.824Z</time>
      </trkpt>
      <trkpt lat="63.21482" lon="8.18863">
        <ele>72.901446</ele>
        <time>2020-08-04T09:10:45.824Z</time>
      </trkpt>
      <trkpt lat="63.21484" lon="8.18884">
        <ele>72.926295</ele>
        <time>2020-08-04T09:10:48.881Z</time>
      </trkpt>
      <trkpt lat="63.21487" lon="8.18909">
        <ele>72.955211</ele>
        <time>2020-08-04T09:10:51.852Z</time>
      </trkpt>
      <trkpt lat="63.2149" lon="8.18935">
        <ele>73.031135</ele>
        <time>2020-08-04T09:10:54.833Z</time>
      </trkpt>
      <trkpt lat="63.21493" lon="8.18958">
        <ele>73.299933</ele>
        <time>2020-08-04T09:10:57.838Z</time>
      </trkpt>
      <trkpt lat="63.21496" lon="8.18983">
        <ele>73.589943</ele>
        <time>2020-08-04T09:11:00.837Z</time>
      </trkpt>
      <trkpt lat="63.21499" lon="8.19008">
        <ele>73.886736</ele>
        <time>2020-08-04T09:11:03.873Z</time>
      </trkpt>
      <trkpt lat="63.21502" lon="8.19031">
        <ele>74.15394</ele>
        <time>2020-08-04T09:11:06.879Z</time>
      </trkpt>
      <trkpt lat="63.21505" lon="8.19055">
        <ele>74.431759</ele>
        <time>2020-08-04T09:11:09.839Z</time>
      </trkpt>
      <trkpt lat="63.21507" lon="8.19078">
        <ele>74.703337</ele>
        <time>2020-08-04T09:11:12.839Z</time>
      </trkpt>
      <trkpt lat="63.2151" lon="8.19102">
        <ele>74.983106</ele>
        <time>2020-08-04T09:11:15.880Z</time>
      </trkpt>
      <trkpt lat="63.21512" lon="8.19126">
        <ele>75.255188</ele>
        <time>2020-08-04T09:11:18.872Z</time>
      </trkpt>
      <trkpt lat="63.21515" lon="8.1915">
        <ele>75.533334</ele>
        <time>2020-08-04T09:11:21.847Z</time>
      </trkpt>
      <trkpt lat="63.21517" lon="8.19174">
        <ele>75.81645</ele>
        <time>2020-08-04T09:11:24.848Z</time>
      </trkpt>
      <trkpt lat="63.21521" lon="8.19198">
        <ele>76.09274</ele>
        <time>2020-08-04T09:11:27.859Z</time>
      </trkpt>
      <trkpt lat="63.21525" lon="8.19222">
        <ele>76.389555</ele>
        <time>2020-08-04T09:11:30.833Z</time>
      </trkpt>
      <trkpt lat="63.21529" lon="8.19247">
        <ele>76.689888</ele>
        <time>2020-08-04T09:11:33.859Z</time>
      </trkpt>
      <trkpt lat="63.21534" lon="8.19268">
        <ele>76.963075</ele>
        <time>2020-08-04T09:11:36.874Z</time>
      </trkpt>
      <trkpt lat="63.21541" lon="8.19289">
        <ele>77.242767</ele>
        <time>2020-08-04T09:11:39.866Z</time>
      </trkpt>
      <trkpt lat="63.21548" lon="8.19306">
        <ele>77.587353</ele>
        <time>2020-08-04T09:11:42.859Z</time>
      </trkpt>
      <trkpt lat="63.21555" lon="8.19322">
        <ele>78.498156</ele>
        <time>2020-08-04T09:11:45.840Z</time>
      </trkpt>
      <trkpt lat="63.21563" lon="8.19336">
        <ele>79.417085</ele>
        <time>2020-08-04T09:11:49.848Z</time>
      </trkpt>
      <trkpt lat="63.21572" lon="8.1935">
        <ele>80.432483</ele>
        <time>2020-08-04T09:11:53.843Z</time>
      </trkpt>
      <trkpt lat="63.21581" lon="8.19362">
        <ele>81.343335</ele>
        <time>2020-08-04T09:11:57.832Z</time>
      </trkpt>
      <trkpt lat="63.2159" lon="8.1937">
        <ele>82.23299</ele>
        <time>2020-08-04T09:12:01.853Z</time>
      </trkpt>
      <trkpt lat="63.21599" lon="8.19376">
        <ele>83.055322</ele>
        <time>2020-08-04T09:12:05.838Z</time>
      </trkpt>
      <trkpt lat="63.2161" lon="8.19381">
        <ele>84.02923</ele>
        <time>2020-08-04T09:12:10.848Z</time>
      </trkpt>
      <trkpt lat="63.21619" lon="8.19382">
        <ele>84.859283</ele>
        <time>2020-08-04T09:12:15.852Z</time>
      </trkpt>
      <trkpt lat="63.21629" lon="8.19383">
        <ele>85.776889</ele>
        <time>2020-08-04T09:12:20.823Z</time>
      </trkpt>
      <trkpt lat="63.21638" lon="8.19382">
        <ele>86.623181</ele>
        <time>2020-08-04T09:12:25.850Z</time>
      </trkpt>
      <trkpt lat="63.21649" lon="8.19382">
        <ele>87.531658</ele>
        <time>2020-08-04T09:12:30.868Z</time>
      </trkpt>
      <trkpt lat="63.21659" lon="8.1938">
        <ele>88.43515</ele>
        <time>2020-08-04T09:12:36.840Z</time>
      </trkpt>
      <trkpt lat="63.21669" lon="8.1938">
        <ele>89.352694</ele>
        <time>2020-08-04T09:12:42.853Z</time>
      </trkpt>
      <trkpt lat="63.21678" lon="8.19379">
        <ele>90.180845</ele>
        <time>2020-08-04T09:12:47.864Z</time>
      </trkpt>
      <trkpt lat="63.21687" lon="8.19381">
        <ele>91.011224</ele>
        <time>2020-08-04T09:12:53.896Z</time>
      </trkpt>
      <trkpt lat="63.21697" lon="8.19383">
        <ele>91.906569</ele>
        <time>2020-08-04T09:12:57.842Z</time>
      </trkpt>
      <trkpt lat="63.21707" lon="8.19388">
        <ele>92.801377</ele>
        <time>2020-08-04T09:13:03.841Z</time>
      </trkpt>
      <trkpt lat="63.21716" lon="8.19393">
        <ele>93.671303</ele>
        <time>2020-08-04T09:13:08.842Z</time>
      </trkpt>
      <trkpt lat="63.21725" lon="8.194">
        <ele>94.595402</ele>
        <time>2020-08-04T09:13:14.850Z</time>
      </trkpt>
      <trkpt lat="63.21733" lon="8.19411">
        <ele>95.567984</ele>
        <time>2020-08-04T09:13:21.870Z</time>
      </trkpt>
      <trkpt lat="63.21741" lon="8.19424">
        <ele>96.517885</ele>
        <time>2020-08-04T09:13:28.891Z</time>
      </trkpt>
      <trkpt lat="63.21748" lon="8.19438">
        <ele>97.451156</ele>
        <time>2020-08-04T09:13:34.855Z</time>
      </trkpt>
      <trkpt lat="63.21755" lon="8.19454">
        <ele>98.426306</ele>
        <time>2020-08-04T09:13:41.870Z</time>
      </trkpt>
      <trkpt lat="63.21759" lon="8.19472">
        <ele>99.341799</ele>
        <time>2020-08-04T09:13:47.837Z</time>
      </trkpt>
      <trkpt lat="63.21763" lon="8.19491">
        <ele>100.265341</ele>
        <time>2020-08-04T09:13:53.902Z</time>
      </trkpt>
      <trkpt lat="63.21767" lon="8.1951">
        <ele>101.172603</ele>
        <time>2020-08-04T09:13:59.848Z</time>
      </trkpt>
      <trkpt lat="63.2177" lon="8.19531">
        <ele>102.172511</ele>
        <time>2020-08-04T09:14:06.844Z</time>
      </trkpt>
      <trkpt lat="63.21773" lon="8.19552">
        <ele>103.175654</ele>
        <time>2020-08-04T09:14:13.881Z</time>
      </trkpt>
      <trkpt lat="63.21777" lon="8.19572">
        <ele>104.135825</ele>
        <time>2020-08-04T09:14:20.876Z</time>
      </trkpt>
      <trkpt lat="63.21781" lon="8.19592">
        <ele>105.136601</ele>
        <time>2020-08-04T09:14:27.841Z</time>
      </trkpt>
      <trkpt lat="63.21785" lon="8.19612">
        <ele>106.080377</ele>
        <time>2020-08-04T09:14:33.893Z</time>
      </trkpt>
      <trkpt lat="63.21789" lon="8.19631">
        <ele>107.048962</ele>
        <time>2020-08-04T09:14:40.866Z</time>
      </trkpt>
      <trkpt lat="63.21793" lon="8.19653">
        <ele>108.098544</ele>
        <time>2020-08-04T09:14:49.831Z</time>
      </trkpt>
      <trkpt lat="63.21797" lon="8.19672">
        <ele>108.999329</ele>
        <time>2020-08-04T09:14:55.911Z</time>
      </trkpt>
      <trkpt lat="63.21801" lon="8.19691">
        <ele>109.989898</ele>
        <time>2020-08-04T09:15:02.839Z</time>
      </trkpt>
      <trkpt lat="63.21805" lon="8.19711">
        <ele>110.933874</ele>
        <time>2020-08-04T09:15:09.853Z</time>
      </trkpt>
      <trkpt lat="63.21809" lon="8.19731">
        <ele>111.857237</ele>
        <time>2020-08-04T09:15:17.848Z</time>
      </trkpt>
      <trkpt lat="63.21813" lon="8.19751">
        <ele>112.700965</ele>
        <time>2020-08-04T09:15:25.869Z</time>
      </trkpt>
      <trkpt lat="63.21817" lon="8.1977">
        <ele>113.485561</ele>
        <time>2020-08-04T09:15:31.827Z</time>
      </trkpt>
      <trkpt lat="63.21822" lon="8.19789">
        <ele>114.275231</ele>
        <time>2020-08-04T09:15:37.902Z</time>
      </trkpt>
      <trkpt lat="63.21826" lon="8.19807">
        <ele>115.083646</ele>
        <time>2020-08-04T09:15:44.851Z</time>
      </trkpt>
      <trkpt lat="63.21831" lon="8.19825">
        <ele>115.875594</ele>
        <time>2020-08-04T09:15:50.838Z</time>
      </trkpt>
      <trkpt lat="63.21837" lon="8.19843">
        <ele>116.741572</ele>
        <time>2020-08-04T09:15:58.848Z</time>
      </trkpt>
      <trkpt lat="63.21844" lon="8.19863">
        <ele>117.666647</ele>
        <time>2020-08-04T09:16:06.867Z</time>
      </trkpt>
      <trkpt lat="63.21849" lon="8.19883">
        <ele>118.532158</ele>
        <time>2020-08-04T09:16:13.848Z</time>
      </trkpt>
      <trkpt lat="63.21854" lon="8.19901">
        <ele>119.315293</ele>
        <time>2020-08-04T09:16:20.834Z</time>
      </trkpt>
      <trkpt lat="63.21858" lon="8.1992">
        <ele>120.13364</ele>
        <time>2020-08-04T09:16:27.859Z</time>
      </trkpt>
      <trkpt lat="63.21863" lon="8.19938">
        <ele>120.935239</ele>
        <time>2020-08-04T09:16:34.848Z</time>
      </trkpt>
      <trkpt lat="63.21869" lon="8.19955">
        <ele>121.757727</ele>
        <time>2020-08-04T09:16:41.850Z</time>
      </trkpt>
      <trkpt lat="63.21876" lon="8.19971">
        <ele>122.619886</ele>
        <time>2020-08-04T09:16:48.843Z</time>
      </trkpt>
      <trkpt lat="63.21883" lon="8.1999">
        <ele>123.524222</ele>
        <time>2020-08-04T09:16:55.831Z</time>
      </trkpt>
      <trkpt lat="63.21889" lon="8.20005">
        <ele>124.30184</ele>
        <time>2020-08-04T09:17:01.834Z</time>
      </trkpt>
      <trkpt lat="63.21895" lon="8.20022">
        <ele>125.095149</ele>
        <time>2020-08-04T09:17:08.843Z</time>
      </trkpt>
      <trkpt lat="63.21901" lon="8.20038">
        <ele>125.875196</ele>
        <time>2020-08-04T09:17:15.829Z</time>
      </trkpt>
      <trkpt lat="63.21906" lon="8.20054">
        <ele>126.600189</ele>
        <time>2020-08-04T09:17:21.831Z</time>
      </trkpt>
      <trkpt lat="63.21911" lon="8.20073">
        <ele>126.648038</ele>
        <time>2020-08-04T09:17:27.837Z</time>
      </trkpt>
      <trkpt lat="63.21916" lon="8.20093">
        <ele>126.699724</ele>
        <time>2020-08-04T09:17:34.835Z</time>
      </trkpt>
      <trkpt lat="63.21922" lon="8.20112">
        <ele>126.750075</ele>
        <time>2020-08-04T09:17:40.851Z</time>
      </trkpt>
      <trkpt lat="63.21927" lon="8.20132">
        <ele>126.802291</ele>
        <time>2020-08-04T09:17:47.844Z</time>
      </trkpt>
      <trkpt lat="63.21932" lon="8.20154">
        <ele>126.85761</ele>
        <time>2020-08-04T09:17:52.855Z</time>
      </trkpt>
      <trkpt lat="63.21937" lon="8.20172">
        <ele>126.905344</ele>
        <time>2020-08-04T09:17:57.860Z</time>
      </trkpt>
      <trkpt lat="63.21941" lon="8.20193">
        <ele>126.955565</ele>
        <time>2020-08-04T09:18:03.849Z</time>
      </trkpt>
      <trkpt lat="63.21945" lon="8.20211">
        <ele>127.000675</ele>
        <time>2020-08-04T09:18:06.837Z</time>
      </trkpt>
      <trkpt lat="63.2195" lon="8.20233">
        <ele>127.054972</ele>
        <time>2020-08-04T09:18:09.849Z</time>
      </trkpt>
      <trkpt lat="63.21952" lon="8.20252">
        <ele>127.100705</ele>
        <time>2020-08-04T09:18:13.899Z</time>
      </trkpt>
      <trkpt lat="63.21956" lon="8.20276">
        <ele>127.157232</ele>
        <time>2020-08-04T09:18:17.847Z</time>
      </trkpt>
      <trkpt lat="63.21959" lon="8.203">
        <ele>127.212756</ele>
        <time>2020-08-04T09:18:21.852Z</time>
      </trkpt>
      <trkpt lat="63.21962" lon="8.20323">
        <ele>127.264966</ele>
        <time>2020-08-04T09:18:25.846Z</time>
      </trkpt>
      <trkpt lat="63.21964" lon="8.20348">
        <ele>127.323816</ele>
        <time>2020-08-04T09:18:28.851Z</time>
      </trkpt>
      <trkpt lat="63.21967" lon="8.20373">
        <ele>127.379938</ele>
        <time>2020-08-04T09:18:31.852Z</time>
      </trkpt>
      <trkpt lat="63.2197" lon="8.20402">
        <ele>127.445885</ele>
        <time>2020-08-04T09:18:34.878Z</time>
      </trkpt>
      <trkpt lat="63.21972" lon="8.20422">
        <ele>127.469175</ele>
        <time>2020-08-04T09:18:36.841Z</time>
      </trkpt>
      <trkpt lat="63.21974" lon="8.20446">
        <ele>126.897732</ele>
        <time>2020-08-04T09:18:38.853Z</time>
      </trkpt>
      <trkpt lat="63.21977" lon="8.20472">
        <ele>126.266484</ele>
        <time>2020-08-04T09:18:40.875Z</time>
      </trkpt>
      <trkpt lat="63.2198" lon="8.20503">
        <ele>125.510281</ele>
        <time>2020-08-04T09:18:42.843Z</time>
      </trkpt>
      <trkpt lat="63.21984" lon="8.20537">
        <ele>124.680686</ele>
        <time>2020-08-04T09:18:44.849Z</time>
      </trkpt>
      <trkpt lat="63.21989" lon="8.20575">
        <ele>123.768751</ele>
        <time>2020-08-04T09:18:46.869Z</time>
      </trkpt>
      <trkpt lat="63.21995" lon="8.20596">
        <ele>123.173296</ele>
        <time>2020-08-04T09:18:47.855Z</time>
      </trkpt>
      <trkpt lat="63.21999" lon="8.20614">
        <ele>122.69571</ele>
        <time>2020-08-04T09:18:48.872Z</time>
      </trkpt>
      <trkpt lat="63.22005" lon="8.20652">
        <ele>121.752827</ele>
        <time>2020-08-04T09:18:50.842Z</time>
      </trkpt>
      <trkpt lat="63.22008" lon="8.20672">
        <ele>121.257131</ele>
        <time>2020-08-04T09:18:51.857Z</time>
      </trkpt>
      <trkpt lat="63.22011" lon="8.20694">
        <ele>120.735234</ele>
        <time>2020-08-04T09:18:52.843Z</time>
      </trkpt>
      <trkpt lat="63.22014" lon="8.20715">
        <ele>120.205086</ele>
        <time>2020-08-04T09:18:53.853Z</time>
      </trkpt>
      <trkpt lat="63.22016" lon="8.20738">
        <ele>119.655441</ele>
        <time>2020-08-04T09:18:54.892Z</time>
      </trkpt>
      <trkpt lat="63.2202" lon="8.2076">
        <ele>119.109572</ele>
        <time>2020-08-04T09:18:55.832Z</time>
      </trkpt>
      <trkpt lat="63.22023" lon="8.20783">
        <ele>118.531053</ele>
        <time>2020-08-04T09:18:56.886Z</time>
      </trkpt>
      <trkpt lat="63.22027" lon="8.20807">
        <ele>117.94083</ele>
        <time>2020-08-04T09:18:57.871Z</time>
      </trkpt>
      <trkpt lat="63.22032" lon="8.20831">
        <ele>117.35189</ele>
        <time>2020-08-04T09:18:58.836Z</time>
      </trkpt>
      <trkpt lat="63.22038" lon="8.20857">
        <ele>116.730556</ele>
        <time>2020-08-04T09:18:59.870Z</time>
      </trkpt>
      <trkpt lat="63.22043" lon="8.20882">
        <ele>116.101015</ele>
        <time>2020-08-04T09:19:00.855Z</time>
      </trkpt>
      <trkpt lat="63.22049" lon="8.20908">
        <ele>115.46916</ele>
        <time>2020-08-04T09:19:01.849Z</time>
      </trkpt>
      <trkpt lat="63.22055" lon="8.20934">
        <ele>114.822974</ele>
        <time>2020-08-04T09:19:02.836Z</time>
      </trkpt>
      <trkpt lat="63.22061" lon="8.2096">
        <ele>114.162676</ele>
        <time>2020-08-04T09:19:03.895Z</time>
      </trkpt>
      <trkpt lat="63.22067" lon="8.20987">
        <ele>113.49818</ele>
        <time>2020-08-04T09:19:04.854Z</time>
      </trkpt>
      <trkpt lat="63.22073" lon="8.21014">
        <ele>112.821293</ele>
        <time>2020-08-04T09:19:05.853Z</time>
      </trkpt>
      <trkpt lat="63.2208" lon="8.21042">
        <ele>112.134258</ele>
        <time>2020-08-04T09:19:06.848Z</time>
      </trkpt>
      <trkpt lat="63.22086" lon="8.21069">
        <ele>111.434453</ele>
        <time>2020-08-04T09:19:07.857Z</time>
      </trkpt>
      <trkpt lat="63.22093" lon="8.21097">
        <ele>110.749667</ele>
        <time>2020-08-04T09:19:08.847Z</time>
      </trkpt>
      <trkpt lat="63.22099" lon="8.21124">
        <ele>110.058059</ele>
        <time>2020-08-04T09:19:09.833Z</time>
      </trkpt>
      <trkpt lat="63.22106" lon="8.2115">
        <ele>109.388274</ele>
        <time>2020-08-04T09:19:10.881Z</time>
      </trkpt>
      <trkpt lat="63.22113" lon="8.21174">
        <ele>108.339426</ele>
        <time>2020-08-04T09:19:11.855Z</time>
      </trkpt>
      <trkpt lat="63.22121" lon="8.21197">
        <ele>107.128482</ele>
        <time>2020-08-04T09:19:12.853Z</time>
      </trkpt>
      <trkpt lat="63.22129" lon="8.21218">
        <ele>105.909622</ele>
        <time>2020-08-04T09:19:13.863Z</time>
      </trkpt>
      <trkpt lat="63.22139" lon="8.21241">
        <ele>104.576563</ele>
        <time>2020-08-04T09:19:14.898Z</time>
      </trkpt>
      <trkpt lat="63.2215" lon="8.2126">
        <ele>103.298335</ele>
        <time>2020-08-04T09:19:15.850Z</time>
      </trkpt>
      <trkpt lat="63.22161" lon="8.21277">
        <ele>102.017558</ele>
        <time>2020-08-04T09:19:16.855Z</time>
      </trkpt>
      <trkpt lat="63.22174" lon="8.21291">
        <ele>100.712899</ele>
        <time>2020-08-04T09:19:17.849Z</time>
      </trkpt>
      <trkpt lat="63.22186" lon="8.21302">
        <ele>99.457801</ele>
        <time>2020-08-04T09:19:18.867Z</time>
      </trkpt>
      <trkpt lat="63.22201" lon="8.2131">
        <ele>98.091445</ele>
        <time>2020-08-04T09:19:19.861Z</time>
      </trkpt>
      <trkpt lat="63.22215" lon="8.21317">
        <ele>96.69864</ele>
        <time>2020-08-04T09:19:20.857Z</time>
      </trkpt>
      <trkpt lat="63.2223" lon="8.21322">
        <ele>95.302175</ele>
        <time>2020-08-04T09:19:21.876Z</time>
      </trkpt>
      <trkpt lat="63.22245" lon="8.21325">
        <ele>93.921392</ele>
        <time>2020-08-04T09:19:22.857Z</time>
      </trkpt>
      <trkpt lat="63.22258" lon="8.21329">
        <ele>92.643131</ele>
        <time>2020-08-04T09:19:23.839Z</time>
      </trkpt>
      <trkpt lat="63.22271" lon="8.21333">
        <ele>91.582195</ele>
        <time>2020-08-04T09:19:24.846Z</time>
      </trkpt>
      <trkpt lat="63.22285" lon="8.21339">
        <ele>90.448971</ele>
        <time>2020-08-04T09:19:25.866Z</time>
      </trkpt>
      <trkpt lat="63.223" lon="8.21345">
        <ele>89.258715</ele>
        <time>2020-08-04T09:19:26.839Z</time>
      </trkpt>
      <trkpt lat="63.22315" lon="8.21351">
        <ele>88.074931</ele>
        <time>2020-08-04T09:19:27.872Z</time>
      </trkpt>
      <trkpt lat="63.22329" lon="8.21358">
        <ele>86.943366</ele>
        <time>2020-08-04T09:19:28.846Z</time>
      </trkpt>
      <trkpt lat="63.22343" lon="8.21365">
        <ele>85.789402</ele>
        <time>2020-08-04T09:19:29.872Z</time>
      </trkpt>
      <trkpt lat="63.22356" lon="8.21373">
        <ele>84.682097</ele>
        <time>2020-08-04T09:19:30.854Z</time>
      </trkpt>
      <trkpt lat="63.2237" lon="8.21383">
        <ele>83.555192</ele>
        <time>2020-08-04T09:19:31.831Z</time>
      </trkpt>
      <trkpt lat="63.22384" lon="8.21393">
        <ele>82.411987</ele>
        <time>2020-08-04T09:19:32.842Z</time>
      </trkpt>
      <trkpt lat="63.22397" lon="8.21404">
        <ele>81.311314</ele>
        <time>2020-08-04T09:19:33.853Z</time>
      </trkpt>
      <trkpt lat="63.2241" lon="8.21416">
        <ele>80.176835</ele>
        <time>2020-08-04T09:19:34.890Z</time>
      </trkpt>
      <trkpt lat="63.22422" lon="8.21428">
        <ele>79.103777</ele>
        <time>2020-08-04T09:19:35.856Z</time>
      </trkpt>
      <trkpt lat="63.22435" lon="8.21442">
        <ele>78.039757</ele>
        <time>2020-08-04T09:19:36.897Z</time>
      </trkpt>
      <trkpt lat="63.22447" lon="8.21457">
        <ele>77.049607</ele>
        <time>2020-08-04T09:19:37.849Z</time>
      </trkpt>
      <trkpt lat="63.22459" lon="8.21472">
        <ele>76.101975</ele>
        <time>2020-08-04T09:19:38.846Z</time>
      </trkpt>
      <trkpt lat="63.22471" lon="8.21487">
        <ele>75.166171</ele>
        <time>2020-08-04T09:19:39.875Z</time>
      </trkpt>
      <trkpt lat="63.22482" lon="8.21502">
        <ele>74.280083</ele>
        <time>2020-08-04T09:19:40.853Z</time>
      </trkpt>
      <trkpt lat="63.22493" lon="8.21519">
        <ele>73.37151</ele>
        <time>2020-08-04T09:19:41.874Z</time>
      </trkpt>
      <trkpt lat="63.22503" lon="8.21536">
        <ele>72.457735</ele>
        <time>2020-08-04T09:19:42.875Z</time>
      </trkpt>
      <trkpt lat="63.22514" lon="8.21554">
        <ele>71.549493</ele>
        <time>2020-08-04T09:19:43.866Z</time>
      </trkpt>
      <trkpt lat="63.22523" lon="8.2157">
        <ele>70.749044</ele>
        <time>2020-08-04T09:19:44.827Z</time>
      </trkpt>
      <trkpt lat="63.22533" lon="8.21588">
        <ele>69.876309</ele>
        <time>2020-08-04T09:19:45.866Z</time>
      </trkpt>
      <trkpt lat="63.22541" lon="8.21605">
        <ele>69.111826</ele>
        <time>2020-08-04T09:19:46.855Z</time>
      </trkpt>
      <trkpt lat="63.22549" lon="8.21623">
        <ele>68.325043</ele>
        <time>2020-08-04T09:19:47.857Z</time>
      </trkpt>
      <trkpt lat="63.22557" lon="8.21641">
        <ele>67.534613</ele>
        <time>2020-08-04T09:19:48.853Z</time>
      </trkpt>
      <trkpt lat="63.22564" lon="8.2166">
        <ele>66.756032</ele>
        <time>2020-08-04T09:19:49.834Z</time>
      </trkpt>
      <trkpt lat="63.22571" lon="8.21678">
        <ele>66.000279</ele>
        <time>2020-08-04T09:19:50.835Z</time>
      </trkpt>
      <trkpt lat="63.22578" lon="8.21696">
        <ele>65.427282</ele>
        <time>2020-08-04T09:19:51.854Z</time>
      </trkpt>
      <trkpt lat="63.22584" lon="8.21713">
        <ele>64.911139</ele>
        <time>2020-08-04T09:19:52.861Z</time>
      </trkpt>
      <trkpt lat="63.2259" lon="8.21731">
        <ele>64.384523</ele>
        <time>2020-08-04T09:19:53.871Z</time>
      </trkpt>
      <trkpt lat="63.22596" lon="8.2175">
        <ele>63.861674</ele>
        <time>2020-08-04T09:19:54.843Z</time>
      </trkpt>
      <trkpt lat="63.22602" lon="8.21768">
        <ele>63.354509</ele>
        <time>2020-08-04T09:19:55.854Z</time>
      </trkpt>
      <trkpt lat="63.22607" lon="8.21787">
        <ele>62.84307</ele>
        <time>2020-08-04T09:19:56.848Z</time>
      </trkpt>
      <trkpt lat="63.22612" lon="8.21805">
        <ele>62.350846</ele>
        <time>2020-08-04T09:19:57.846Z</time>
      </trkpt>
      <trkpt lat="63.22617" lon="8.21823">
        <ele>61.849319</ele>
        <time>2020-08-04T09:19:58.841Z</time>
      </trkpt>
      <trkpt lat="63.22622" lon="8.21842">
        <ele>61.350362</ele>
        <time>2020-08-04T09:19:59.877Z</time>
      </trkpt>
      <trkpt lat="63.22626" lon="8.21861">
        <ele>60.859994</ele>
        <time>2020-08-04T09:20:00.859Z</time>
      </trkpt>
      <trkpt lat="63.22631" lon="8.21878">
        <ele>60.390836</ele>
        <time>2020-08-04T09:20:01.850Z</time>
      </trkpt>
      <trkpt lat="63.22635" lon="8.21897">
        <ele>59.90047</ele>
        <time>2020-08-04T09:20:02.889Z</time>
      </trkpt>
      <trkpt lat="63.2264" lon="8.21914">
        <ele>59.427739</ele>
        <time>2020-08-04T09:20:03.859Z</time>
      </trkpt>
      <trkpt lat="63.22649" lon="8.21948">
        <ele>58.521243</ele>
        <time>2020-08-04T09:20:05.848Z</time>
      </trkpt>
      <trkpt lat="63.22653" lon="8.21966">
        <ele>58.050548</ele>
        <time>2020-08-04T09:20:06.875Z</time>
      </trkpt>
      <trkpt lat="63.22661" lon="8.22">
        <ele>57.157184</ele>
        <time>2020-08-04T09:20:08.841Z</time>
      </trkpt>
      <trkpt lat="63.22668" lon="8.22034">
        <ele>56.388052</ele>
        <time>2020-08-04T09:20:10.836Z</time>
      </trkpt>
      <trkpt lat="63.22672" lon="8.2207">
        <ele>55.833948</ele>
        <time>2020-08-04T09:20:12.854Z</time>
      </trkpt>
      <trkpt lat="63.22675" lon="8.22106">
        <ele>55.278882</ele>
        <time>2020-08-04T09:20:14.865Z</time>
      </trkpt>
      <trkpt lat="63.22676" lon="8.22141">
        <ele>54.739009</ele>
        <time>2020-08-04T09:20:16.842Z</time>
      </trkpt>
      <trkpt lat="63.22674" lon="8.22176">
        <ele>54.215945</ele>
        <time>2020-08-04T09:20:18.835Z</time>
      </trkpt>
      <trkpt lat="63.22671" lon="8.22211">
        <ele>53.669251</ele>
        <time>2020-08-04T09:20:20.880Z</time>
      </trkpt>
      <trkpt lat="63.22667" lon="8.22245">
        <ele>53.136401</ele>
        <time>2020-08-04T09:20:22.857Z</time>
      </trkpt>
      <trkpt lat="63.22662" lon="8.22278">
        <ele>52.612744</ele>
        <time>2020-08-04T09:20:24.887Z</time>
      </trkpt>
      <trkpt lat="63.22659" lon="8.22309">
        <ele>52.129377</ele>
        <time>2020-08-04T09:20:26.829Z</time>
      </trkpt>
      <trkpt lat="63.22656" lon="8.2234">
        <ele>51.661547</ele>
        <time>2020-08-04T09:20:28.860Z</time>
      </trkpt>
      <trkpt lat="63.22653" lon="8.22368">
        <ele>51.232816</ele>
        <time>2020-08-04T09:20:30.897Z</time>
      </trkpt>
      <trkpt lat="63.22652" lon="8.22395">
        <ele>50.811812</ele>
        <time>2020-08-04T09:20:32.852Z</time>
      </trkpt>
      <trkpt lat="63.22652" lon="8.22423">
        <ele>50.569956</ele>
        <time>2020-08-04T09:20:34.882Z</time>
      </trkpt>
      <trkpt lat="63.22652" lon="8.22452">
        <ele>50.703474</ele>
        <time>2020-08-04T09:20:36.877Z</time>
      </trkpt>
      <trkpt lat="63.22654" lon="8.22479">
        <ele>50.834339</ele>
        <time>2020-08-04T09:20:38.855Z</time>
      </trkpt>
      <trkpt lat="63.22657" lon="8.22507">
        <ele>50.967478</ele>
        <time>2020-08-04T09:20:40.852Z</time>
      </trkpt>
      <trkpt lat="63.2266" lon="8.22533">
        <ele>51.095002</ele>
        <time>2020-08-04T09:20:42.890Z</time>
      </trkpt>
      <trkpt lat="63.22664" lon="8.22558">
        <ele>51.218664</ele>
        <time>2020-08-04T09:20:44.864Z</time>
      </trkpt>
      <trkpt lat="63.22669" lon="8.22582">
        <ele>51.343328</ele>
        <time>2020-08-04T09:20:46.889Z</time>
      </trkpt>
      <trkpt lat="63.22674" lon="8.22605">
        <ele>51.466903</ele>
        <time>2020-08-04T09:20:48.839Z</time>
      </trkpt>
      <trkpt lat="63.2268" lon="8.22628">
        <ele>51.58799</ele>
        <time>2020-08-04T09:20:50.823Z</time>
      </trkpt>
      <trkpt lat="63.22686" lon="8.22648">
        <ele>51.705547</ele>
        <time>2020-08-04T09:20:52.837Z</time>
      </trkpt>
      <trkpt lat="63.22693" lon="8.22667">
        <ele>51.818259</ele>
        <time>2020-08-04T09:20:54.869Z</time>
      </trkpt>
      <trkpt lat="63.22699" lon="8.22686">
        <ele>51.928094</ele>
        <time>2020-08-04T09:20:56.857Z</time>
      </trkpt>
      <trkpt lat="63.22706" lon="8.22706">
        <ele>52.045881</ele>
        <time>2020-08-04T09:20:58.863Z</time>
      </trkpt>
      <trkpt lat="63.22713" lon="8.22726">
        <ele>52.167256</ele>
        <time>2020-08-04T09:21:00.867Z</time>
      </trkpt>
      <trkpt lat="63.22721" lon="8.22747">
        <ele>52.291399</ele>
        <time>2020-08-04T09:21:02.863Z</time>
      </trkpt>
      <trkpt lat="63.22728" lon="8.22767">
        <ele>52.414289</ele>
        <time>2020-08-04T09:21:04.868Z</time>
      </trkpt>
      <trkpt lat="63.22734" lon="8.22787">
        <ele>52.587128</ele>
        <time>2020-08-04T09:21:06.878Z</time>
      </trkpt>
      <trkpt lat="63.2274" lon="8.22808">
        <ele>52.759989</ele>
        <time>2020-08-04T09:21:08.851Z</time>
      </trkpt>
      <trkpt lat="63.22746" lon="8.22831">
        <ele>52.940243</ele>
        <time>2020-08-04T09:21:10.848Z</time>
      </trkpt>
      <trkpt lat="63.22751" lon="8.22851">
        <ele>53.102128</ele>
        <time>2020-08-04T09:21:12.875Z</time>
      </trkpt>
      <trkpt lat="63.22755" lon="8.2287">
        <ele>53.253485</ele>
        <time>2020-08-04T09:21:14.858Z</time>
      </trkpt>
      <trkpt lat="63.22759" lon="8.2289">
        <ele>53.40208</ele>
        <time>2020-08-04T09:21:16.866Z</time>
      </trkpt>
      <trkpt lat="63.22764" lon="8.2291">
        <ele>53.555753</ele>
        <time>2020-08-04T09:21:18.858Z</time>
      </trkpt>
      <trkpt lat="63.22767" lon="8.22929">
        <ele>53.701836</ele>
        <time>2020-08-04T09:21:20.848Z</time>
      </trkpt>
      <trkpt lat="63.22772" lon="8.22955">
        <ele>53.89437</ele>
        <time>2020-08-04T09:21:23.852Z</time>
      </trkpt>
      <trkpt lat="63.22775" lon="8.22978">
        <ele>54.067599</ele>
        <time>2020-08-04T09:21:26.837Z</time>
      </trkpt>
      <trkpt lat="63.22779" lon="8.23002">
        <ele>54.238581</ele>
        <time>2020-08-04T09:21:29.896Z</time>
      </trkpt>
      <trkpt lat="63.22781" lon="8.23025">
        <ele>54.40576</ele>
        <time>2020-08-04T09:21:32.834Z</time>
      </trkpt>
      <trkpt lat="63.22783" lon="8.23045">
        <ele>54.549802</ele>
        <time>2020-08-04T09:21:35.838Z</time>
      </trkpt>
      <trkpt lat="63.22786" lon="8.23069">
        <ele>54.720363</ele>
        <time>2020-08-04T09:21:39.848Z</time>
      </trkpt>
      <trkpt lat="63.22788" lon="8.23092">
        <ele>54.881758</ele>
        <time>2020-08-04T09:21:43.851Z</time>
      </trkpt>
      <trkpt lat="63.2279" lon="8.23116">
        <ele>55.054483</ele>
        <time>2020-08-04T09:21:47.868Z</time>
      </trkpt>
      <trkpt lat="63.22791" lon="8.23137">
        <ele>55.22846</ele>
        <time>2020-08-04T09:21:51.854Z</time>
      </trkpt>
      <trkpt lat="63.22792" lon="8.23158">
        <ele>55.627169</ele>
        <time>2020-08-04T09:21:55.841Z</time>
      </trkpt>
      <trkpt lat="63.22792" lon="8.23178">
        <ele>56.026019</ele>
        <time>2020-08-04T09:21:59.838Z</time>
      </trkpt>
      <trkpt lat="63.22792" lon="8.23203">
        <ele>56.512479</ele>
        <time>2020-08-04T09:22:04.869Z</time>
      </trkpt>
      <trkpt lat="63.22791" lon="8.23224">
        <ele>56.927897</ele>
        <time>2020-08-04T09:22:08.840Z</time>
      </trkpt>
      <trkpt lat="63.2279" lon="8.23248">
        <ele>57.385535</ele>
        <time>2020-08-04T09:22:13.858Z</time>
      </trkpt>
      <trkpt lat="63.22788" lon="8.2327">
        <ele>57.830536</ele>
        <time>2020-08-04T09:22:18.846Z</time>
      </trkpt>
      <trkpt lat="63.22787" lon="8.2329">
        <ele>58.219746</ele>
        <time>2020-08-04T09:22:23.868Z</time>
      </trkpt>
      <trkpt lat="63.22785" lon="8.23312">
        <ele>58.649381</ele>
        <time>2020-08-04T09:22:28.872Z</time>
      </trkpt>
      <trkpt lat="63.22783" lon="8.23333">
        <ele>59.066895</ele>
        <time>2020-08-04T09:22:33.838Z</time>
      </trkpt>
      <trkpt lat="63.22781" lon="8.23355">
        <ele>59.508139</ele>
        <time>2020-08-04T09:22:38.861Z</time>
      </trkpt>
      <trkpt lat="63.22779" lon="8.23378">
        <ele>59.968727</ele>
        <time>2020-08-04T09:22:44.853Z</time>
      </trkpt>
      <trkpt lat="63.22776" lon="8.23399">
        <ele>60.399137</ele>
        <time>2020-08-04T09:22:49.858Z</time>
      </trkpt>
      <trkpt lat="63.22773" lon="8.23421">
        <ele>60.827291</ele>
        <time>2020-08-04T09:22:54.832Z</time>
      </trkpt>
      <trkpt lat="63.2277" lon="8.23442">
        <ele>61.266965</ele>
        <time>2020-08-04T09:22:59.842Z</time>
      </trkpt>
      <trkpt lat="63.22768" lon="8.23463">
        <ele>61.686849</ele>
        <time>2020-08-04T09:23:04.858Z</time>
      </trkpt>
      <trkpt lat="63.22765" lon="8.23486">
        <ele>62.1557</ele>
        <time>2020-08-04T09:23:09.844Z</time>
      </trkpt>
      <trkpt lat="63.22762" lon="8.23508">
        <ele>62.608405</ele>
        <time>2020-08-04T09:23:14.841Z</time>
      </trkpt>
      <trkpt lat="63.22759" lon="8.23531">
        <ele>62.96439</ele>
        <time>2020-08-04T09:23:19.852Z</time>
      </trkpt>
      <trkpt lat="63.22757" lon="8.23551">
        <ele>63.006974</ele>
        <time>2020-08-04T09:23:23.834Z</time>
      </trkpt>
      <trkpt lat="63.22754" lon="8.2357">
        <ele>63.049184</ele>
        <time>2020-08-04T09:23:27.886Z</time>
      </trkpt>
      <trkpt lat="63.22752" lon="8.23591">
        <ele>63.09407</ele>
        <time>2020-08-04T09:23:31.896Z</time>
      </trkpt>
      <trkpt lat="63.22749" lon="8.23615">
        <ele>63.14536</ele>
        <time>2020-08-04T09:23:36.841Z</time>
      </trkpt>
      <trkpt lat="63.22746" lon="8.23634">
        <ele>63.188502</ele>
        <time>2020-08-04T09:23:40.838Z</time>
      </trkpt>
      <trkpt lat="63.22744" lon="8.23653">
        <ele>63.230435</ele>
        <time>2020-08-04T09:23:44.835Z</time>
      </trkpt>
      <trkpt lat="63.22741" lon="8.23674">
        <ele>63.276004</ele>
        <time>2020-08-04T09:23:48.857Z</time>
      </trkpt>
      <trkpt lat="63.22737" lon="8.23698">
        <ele>63.327582</ele>
        <time>2020-08-04T09:23:52.850Z</time>
      </trkpt>
      <trkpt lat="63.22735" lon="8.23717">
        <ele>63.369725</ele>
        <time>2020-08-04T09:23:55.884Z</time>
      </trkpt>
      <trkpt lat="63.22731" lon="8.2374">
        <ele>63.421435</ele>
        <time>2020-08-04T09:23:59.840Z</time>
      </trkpt>
      <trkpt lat="63.22728" lon="8.23764">
        <ele>63.473819</ele>
        <time>2020-08-04T09:24:03.859Z</time>
      </trkpt>
      <trkpt lat="63.22726" lon="8.23783">
        <ele>63.515482</ele>
        <time>2020-08-04T09:24:06.856Z</time>
      </trkpt>
      <trkpt lat="63.22723" lon="8.23804">
        <ele>63.559964</ele>
        <time>2020-08-04T09:24:09.870Z</time>
      </trkpt>
      <trkpt lat="63.2272" lon="8.23824">
        <ele>63.60518</ele>
        <time>2020-08-04T09:24:12.849Z</time>
      </trkpt>
      <trkpt lat="63.22718" lon="8.23845">
        <ele>63.649724</ele>
        <time>2020-08-04T09:24:15.858Z</time>
      </trkpt>
      <trkpt lat="63.22715" lon="8.23865">
        <ele>63.694486</ele>
        <time>2020-08-04T09:24:18.855Z</time>
      </trkpt>
      <trkpt lat="63.22712" lon="8.23887">
        <ele>63.74245</ele>
        <time>2020-08-04T09:24:21.855Z</time>
      </trkpt>
      <trkpt lat="63.22709" lon="8.23912">
        <ele>63.758959</ele>
        <time>2020-08-04T09:24:24.861Z</time>
      </trkpt>
      <trkpt lat="63.22705" lon="8.23936">
        <ele>63.531106</ele>
        <time>2020-08-04T09:24:27.880Z</time>
      </trkpt>
      <trkpt lat="63.22702" lon="8.23961">
        <ele>63.300149</ele>
        <time>2020-08-04T09:24:30.835Z</time>
      </trkpt>
      <trkpt lat="63.22698" lon="8.23987">
        <ele>63.05234</ele>
        <time>2020-08-04T09:24:33.861Z</time>
      </trkpt>
      <trkpt lat="63.22695" lon="8.24015">
        <ele>62.799156</ele>
        <time>2020-08-04T09:24:36.872Z</time>
      </trkpt>
      <trkpt lat="63.22693" lon="8.24036">
        <ele>62.603113</ele>
        <time>2020-08-04T09:24:38.855Z</time>
      </trkpt>
      <trkpt lat="63.22691" lon="8.24057">
        <ele>62.417824</ele>
        <time>2020-08-04T09:24:40.863Z</time>
      </trkpt>
      <trkpt lat="63.2269" lon="8.24077">
        <ele>62.233811</ele>
        <time>2020-08-04T09:24:42.865Z</time>
      </trkpt>
      <trkpt lat="63.22689" lon="8.24097">
        <ele>62.052704</ele>
        <time>2020-08-04T09:24:44.893Z</time>
      </trkpt>
      <trkpt lat="63.22689" lon="8.24118">
        <ele>61.87202</ele>
        <time>2020-08-04T09:24:46.852Z</time>
      </trkpt>
      <trkpt lat="63.22688" lon="8.24139">
        <ele>61.679629</ele>
        <time>2020-08-04T09:24:48.882Z</time>
      </trkpt>
      <trkpt lat="63.22688" lon="8.24161">
        <ele>61.485567</ele>
        <time>2020-08-04T09:24:50.847Z</time>
      </trkpt>
      <trkpt lat="63.22688" lon="8.24183">
        <ele>61.290855</ele>
        <time>2020-08-04T09:24:52.848Z</time>
      </trkpt>
      <trkpt lat="63.22688" lon="8.24205">
        <ele>61.091332</ele>
        <time>2020-08-04T09:24:54.843Z</time>
      </trkpt>
      <trkpt lat="63.22689" lon="8.24227">
        <ele>60.890477</ele>
        <time>2020-08-04T09:24:56.857Z</time>
      </trkpt>
      <trkpt lat="63.2269" lon="8.24249">
        <ele>60.699406</ele>
        <time>2020-08-04T09:24:58.856Z</time>
      </trkpt>
      <trkpt lat="63.22692" lon="8.2427">
        <ele>60.506543</ele>
        <time>2020-08-04T09:25:00.861Z</time>
      </trkpt>
      <trkpt lat="63.22694" lon="8.24293">
        <ele>60.298577</ele>
        <time>2020-08-04T09:25:02.842Z</time>
      </trkpt>
      <trkpt lat="63.22696" lon="8.24316">
        <ele>60.459702</ele>
        <time>2020-08-04T09:25:04.856Z</time>
      </trkpt>
      <trkpt lat="63.22698" lon="8.24338">
        <ele>60.822486</ele>
        <time>2020-08-04T09:25:06.832Z</time>
      </trkpt>
      <trkpt lat="63.22702" lon="8.2436">
        <ele>61.196128</ele>
        <time>2020-08-04T09:25:08.839Z</time>
      </trkpt>
      <trkpt lat="63.22705" lon="8.24382">
        <ele>61.548247</ele>
        <time>2020-08-04T09:25:10.846Z</time>
      </trkpt>
      <trkpt lat="63.22708" lon="8.24402">
        <ele>61.885066</ele>
        <time>2020-08-04T09:25:12.843Z</time>
      </trkpt>
      <trkpt lat="63.22711" lon="8.24421">
        <ele>62.214296</ele>
        <time>2020-08-04T09:25:14.851Z</time>
      </trkpt>
      <trkpt lat="63.22714" lon="8.2444">
        <ele>62.528839</ele>
        <time>2020-08-04T09:25:16.852Z</time>
      </trkpt>
      <trkpt lat="63.2272" lon="8.24465">
        <ele>62.975874</ele>
        <time>2020-08-04T09:25:19.854Z</time>
      </trkpt>
      <trkpt lat="63.22725" lon="8.24489">
        <ele>63.388699</ele>
        <time>2020-08-04T09:25:22.891Z</time>
      </trkpt>
      <trkpt lat="63.22731" lon="8.24511">
        <ele>63.791465</ele>
        <time>2020-08-04T09:25:25.887Z</time>
      </trkpt>
      <trkpt lat="63.22736" lon="8.24531">
        <ele>64.160715</ele>
        <time>2020-08-04T09:25:28.856Z</time>
      </trkpt>
      <trkpt lat="63.22742" lon="8.2455">
        <ele>64.524393</ele>
        <time>2020-08-04T09:25:31.846Z</time>
      </trkpt>
      <trkpt lat="63.22748" lon="8.24569">
        <ele>64.888071</ele>
        <time>2020-08-04T09:25:34.840Z</time>
      </trkpt>
      <trkpt lat="63.22754" lon="8.24587">
        <ele>65.246852</ele>
        <time>2020-08-04T09:25:37.849Z</time>
      </trkpt>
      <trkpt lat="63.2276" lon="8.24604">
        <ele>65.587517</ele>
        <time>2020-08-04T09:25:40.852Z</time>
      </trkpt>
      <trkpt lat="63.22766" lon="8.2462">
        <ele>65.909671</ele>
        <time>2020-08-04T09:25:43.853Z</time>
      </trkpt>
      <trkpt lat="63.22772" lon="8.24635">
        <ele>66.235154</ele>
        <time>2020-08-04T09:25:46.871Z</time>
      </trkpt>
      <trkpt lat="63.22779" lon="8.24651">
        <ele>66.595902</ele>
        <time>2020-08-04T09:25:49.838Z</time>
      </trkpt>
      <trkpt lat="63.22786" lon="8.24669">
        <ele>67.095437</ele>
        <time>2020-08-04T09:25:52.843Z</time>
      </trkpt>
      <trkpt lat="63.22793" lon="8.24683">
        <ele>67.536627</ele>
        <time>2020-08-04T09:25:55.867Z</time>
      </trkpt>
      <trkpt lat="63.22801" lon="8.247">
        <ele>68.063576</ele>
        <time>2020-08-04T09:25:59.835Z</time>
      </trkpt>
      <trkpt lat="63.2281" lon="8.24718">
        <ele>68.614952</ele>
        <time>2020-08-04T09:26:03.866Z</time>
      </trkpt>
      <trkpt lat="63.22817" lon="8.24731">
        <ele>69.037601</ele>
        <time>2020-08-04T09:26:06.842Z</time>
      </trkpt>
      <trkpt lat="63.22824" lon="8.24746">
        <ele>69.483214</ele>
        <time>2020-08-04T09:26:09.869Z</time>
      </trkpt>
      <trkpt lat="63.22831" lon="8.2476">
        <ele>69.9434</ele>
        <time>2020-08-04T09:26:12.872Z</time>
      </trkpt>
      <trkpt lat="63.22839" lon="8.24775">
        <ele>70.400814</ele>
        <time>2020-08-04T09:26:15.849Z</time>
      </trkpt>
      <trkpt lat="63.22846" lon="8.24792">
        <ele>70.901863</ele>
        <time>2020-08-04T09:26:18.883Z</time>
      </trkpt>
      <trkpt lat="63.22853" lon="8.24808">
        <ele>71.379596</ele>
        <time>2020-08-04T09:26:21.874Z</time>
      </trkpt>
      <trkpt lat="63.22861" lon="8.24824">
        <ele>71.854358</ele>
        <time>2020-08-04T09:26:24.870Z</time>
      </trkpt>
      <trkpt lat="63.22867" lon="8.24841">
        <ele>72.317244</ele>
        <time>2020-08-04T09:26:27.860Z</time>
      </trkpt>
      <trkpt lat="63.22873" lon="8.24861">
        <ele>72.829623</ele>
        <time>2020-08-04T09:26:30.853Z</time>
      </trkpt>
      <trkpt lat="63.2288" lon="8.24881">
        <ele>73.354281</ele>
        <time>2020-08-04T09:26:33.845Z</time>
      </trkpt>
      <trkpt lat="63.22887" lon="8.24901">
        <ele>73.861147</ele>
        <time>2020-08-04T09:26:36.850Z</time>
      </trkpt>
      <trkpt lat="63.22893" lon="8.24921">
        <ele>74.393617</ele>
        <time>2020-08-04T09:26:39.846Z</time>
      </trkpt>
      <trkpt lat="63.22898" lon="8.24939">
        <ele>74.837563</ele>
        <time>2020-08-04T09:26:42.856Z</time>
      </trkpt>
      <trkpt lat="63.22903" lon="8.24959">
        <ele>74.744466</ele>
        <time>2020-08-04T09:26:45.845Z</time>
      </trkpt>
      <trkpt lat="63.22908" lon="8.24982">
        <ele>74.554713</ele>
        <time>2020-08-04T09:26:48.880Z</time>
      </trkpt>
      <trkpt lat="63.22912" lon="8.25003">
        <ele>74.374046</ele>
        <time>2020-08-04T09:26:51.837Z</time>
      </trkpt>
      <trkpt lat="63.22916" lon="8.25025">
        <ele>74.196081</ele>
        <time>2020-08-04T09:26:54.844Z</time>
      </trkpt>
      <trkpt lat="63.2292" lon="8.25048">
        <ele>74.010281</ele>
        <time>2020-08-04T09:26:57.877Z</time>
      </trkpt>
      <trkpt lat="63.22924" lon="8.25071">
        <ele>73.820993</ele>
        <time>2020-08-04T09:27:00.842Z</time>
      </trkpt>
      <trkpt lat="63.22927" lon="8.25095">
        <ele>73.629579</ele>
        <time>2020-08-04T09:27:03.862Z</time>
      </trkpt>
      <trkpt lat="63.2293" lon="8.25119">
        <ele>73.440364</ele>
        <time>2020-08-04T09:27:06.847Z</time>
      </trkpt>
      <trkpt lat="63.22933" lon="8.25144">
        <ele>73.242062</ele>
        <time>2020-08-04T09:27:09.871Z</time>
      </trkpt>
      <trkpt lat="63.22936" lon="8.25168">
        <ele>73.0518</ele>
        <time>2020-08-04T09:27:12.844Z</time>
      </trkpt>
      <trkpt lat="63.22939" lon="8.25192">
        <ele>72.861031</ele>
        <time>2020-08-04T09:27:15.851Z</time>
      </trkpt>
      <trkpt lat="63.22941" lon="8.25216">
        <ele>72.674878</ele>
        <time>2020-08-04T09:27:18.844Z</time>
      </trkpt>
      <trkpt lat="63.22943" lon="8.25242">
        <ele>72.475995</ele>
        <time>2020-08-04T09:27:21.859Z</time>
      </trkpt>
      <trkpt lat="63.22946" lon="8.25266">
        <ele>72.282756</ele>
        <time>2020-08-04T09:27:24.903Z</time>
      </trkpt>
      <trkpt lat="63.22948" lon="8.25291">
        <ele>72.091705</ele>
        <time>2020-08-04T09:27:27.838Z</time>
      </trkpt>
      <trkpt lat="63.2295" lon="8.25315">
        <ele>71.899905</ele>
        <time>2020-08-04T09:27:30.853Z</time>
      </trkpt>
      <trkpt lat="63.22953" lon="8.25339">
        <ele>71.844674</ele>
        <time>2020-08-04T09:27:33.839Z</time>
      </trkpt>
      <trkpt lat="63.22955" lon="8.25361">
        <ele>71.844051</ele>
        <time>2020-08-04T09:27:36.882Z</time>
      </trkpt>
      <trkpt lat="63.22958" lon="8.25386">
        <ele>71.84337</ele>
        <time>2020-08-04T09:27:39.865Z</time>
      </trkpt>
      <trkpt lat="63.2296" lon="8.25411">
        <ele>71.842697</ele>
        <time>2020-08-04T09:27:42.854Z</time>
      </trkpt>
      <trkpt lat="63.22964" lon="8.25435">
        <ele>71.842015</ele>
        <time>2020-08-04T09:27:45.844Z</time>
      </trkpt>
      <trkpt lat="63.22967" lon="8.25461">
        <ele>71.841292</ele>
        <time>2020-08-04T09:27:48.867Z</time>
      </trkpt>
      <trkpt lat="63.22971" lon="8.25485">
        <ele>71.840619</ele>
        <time>2020-08-04T09:27:51.873Z</time>
      </trkpt>
      <trkpt lat="63.22974" lon="8.25507">
        <ele>71.840019</ele>
        <time>2020-08-04T09:27:54.837Z</time>
      </trkpt>
      <trkpt lat="63.22978" lon="8.25527">
        <ele>71.839435</ele>
        <time>2020-08-04T09:27:57.877Z</time>
      </trkpt>
      <trkpt lat="63.22981" lon="8.25546">
        <ele>71.838891</ele>
        <time>2020-08-04T09:28:00.872Z</time>
      </trkpt>
      <trkpt lat="63.22984" lon="8.25569">
        <ele>71.838244</ele>
        <time>2020-08-04T09:28:04.854Z</time>
      </trkpt>
      <trkpt lat="63.22988" lon="8.25588">
        <ele>71.837705</ele>
        <time>2020-08-04T09:28:07.841Z</time>
      </trkpt>
      <trkpt lat="63.22993" lon="8.25611">
        <ele>71.837022</ele>
        <time>2020-08-04T09:28:11.831Z</time>
      </trkpt>
      <trkpt lat="63.22997" lon="8.25633">
        <ele>71.836383</ele>
        <time>2020-08-04T09:28:15.858Z</time>
      </trkpt>
      <trkpt lat="63.23002" lon="8.25655">
        <ele>71.835745</ele>
        <time>2020-08-04T09:28:19.887Z</time>
      </trkpt>
      <trkpt lat="63.23006" lon="8.25674">
        <ele>71.835166</ele>
        <time>2020-08-04T09:28:23.840Z</time>
      </trkpt>
      <trkpt lat="63.2301" lon="8.25692">
        <ele>71.834636</ele>
        <time>2020-08-04T09:28:26.837Z</time>
      </trkpt>
      <trkpt lat="63.23015" lon="8.25713">
        <ele>72.324406</ele>
        <time>2020-08-04T09:28:30.880Z</time>
      </trkpt>
      <trkpt lat="63.2302" lon="8.25734">
        <ele>73.013331</ele>
        <time>2020-08-04T09:28:35.847Z</time>
      </trkpt>
      <trkpt lat="63.23024" lon="8.25754">
        <ele>73.654012</ele>
        <time>2020-08-04T09:28:40.840Z</time>
      </trkpt>
      <trkpt lat="63.23029" lon="8.25774">
        <ele>74.315443</ele>
        <time>2020-08-04T09:28:46.874Z</time>
      </trkpt>
      <trkpt lat="63.23035" lon="8.25792">
        <ele>74.926664</ele>
        <time>2020-08-04T09:28:52.863Z</time>
      </trkpt>
      <trkpt lat="63.23039" lon="8.25812">
        <ele>75.582679</ele>
        <time>2020-08-04T09:28:57.884Z</time>
      </trkpt>
      <trkpt lat="63.23044" lon="8.2583">
        <ele>76.186938</ele>
        <time>2020-08-04T09:29:03.850Z</time>
      </trkpt>
      <trkpt lat="63.2305" lon="8.25848">
        <ele>76.825383</ele>
        <time>2020-08-04T09:29:08.899Z</time>
      </trkpt>
      <trkpt lat="63.23054" lon="8.25867">
        <ele>77.414051</ele>
        <time>2020-08-04T09:29:14.846Z</time>
      </trkpt>
      <trkpt lat="63.23059" lon="8.25886">
        <ele>78.041874</ele>
        <time>2020-08-04T09:29:19.882Z</time>
      </trkpt>
      <trkpt lat="63.23064" lon="8.25903">
        <ele>78.628753</ele>
        <time>2020-08-04T09:29:24.839Z</time>
      </trkpt>
      <trkpt lat="63.23069" lon="8.25921">
        <ele>79.233627</ele>
        <time>2020-08-04T09:29:30.863Z</time>
      </trkpt>
      <trkpt lat="63.23074" lon="8.25942">
        <ele>79.916322</ele>
        <time>2020-08-04T09:29:37.836Z</time>
      </trkpt>
      <trkpt lat="63.2308" lon="8.25959">
        <ele>80.523356</ele>
        <time>2020-08-04T09:29:43.876Z</time>
      </trkpt>
      <trkpt lat="63.23085" lon="8.25978">
        <ele>81.169278</ele>
        <time>2020-08-04T09:29:49.843Z</time>
      </trkpt>
      <trkpt lat="63.23091" lon="8.25997">
        <ele>81.816191</ele>
        <time>2020-08-04T09:29:55.840Z</time>
      </trkpt>
      <trkpt lat="63.23096" lon="8.26013">
        <ele>82.387377</ele>
        <time>2020-08-04T09:30:01.848Z</time>
      </trkpt>
      <trkpt lat="63.23102" lon="8.26032">
        <ele>83.040591</ele>
        <time>2020-08-04T09:30:07.848Z</time>
      </trkpt>
      <trkpt lat="63.23107" lon="8.26051">
        <ele>83.728832</ele>
        <time>2020-08-04T09:30:13.877Z</time>
      </trkpt>
      <trkpt lat="63.23113" lon="8.26069">
        <ele>84.395387</ele>
        <time>2020-08-04T09:30:20.867Z</time>
      </trkpt>
      <trkpt lat="63.23118" lon="8.26087">
        <ele>85.086615</ele>
        <time>2020-08-04T09:30:26.841Z</time>
      </trkpt>
      <trkpt lat="63.23122" lon="8.26106">
        <ele>85.719458</ele>
        <time>2020-08-04T09:30:32.884Z</time>
      </trkpt>
      <trkpt lat="63.23127" lon="8.26123">
        <ele>86.350951</ele>
        <time>2020-08-04T09:30:38.875Z</time>
      </trkpt>
      <trkpt lat="63.23131" lon="8.26142">
        <ele>86.992499</ele>
        <time>2020-08-04T09:30:44.858Z</time>
      </trkpt>
      <trkpt lat="63.23135" lon="8.2616">
        <ele>87.63828</ele>
        <time>2020-08-04T09:30:51.867Z</time>
      </trkpt>
      <trkpt lat="63.23139" lon="8.26178">
        <ele>88.26205</ele>
        <time>2020-08-04T09:30:57.843Z</time>
      </trkpt>
      <trkpt lat="63.23143" lon="8.26199">
        <ele>88.980001</ele>
        <time>2020-08-04T09:31:04.849Z</time>
      </trkpt>
      <trkpt lat="63.23147" lon="8.26218">
        <ele>89.661256</ele>
        <time>2020-08-04T09:31:11.845Z</time>
      </trkpt>
      <trkpt lat="63.23151" lon="8.26238">
        <ele>90.319194</ele>
        <time>2020-08-04T09:31:18.852Z</time>
      </trkpt>
      <trkpt lat="63.23155" lon="8.26258">
        <ele>91.008705</ele>
        <time>2020-08-04T09:31:24.892Z</time>
      </trkpt>
      <trkpt lat="63.23159" lon="8.26276">
        <ele>91.639774</ele>
        <time>2020-08-04T09:31:30.863Z</time>
      </trkpt>
      <trkpt lat="63.23164" lon="8.26299">
        <ele>92.409203</ele>
        <time>2020-08-04T09:31:37.838Z</time>
      </trkpt>
      <trkpt lat="63.23169" lon="8.26319">
        <ele>93.137985</ele>
        <time>2020-08-04T09:31:45.859Z</time>
      </trkpt>
      <trkpt lat="63.23173" lon="8.26338">
        <ele>93.832104</ele>
        <time>2020-08-04T09:31:50.843Z</time>
      </trkpt>
      <trkpt lat="63.23179" lon="8.26356">
        <ele>94.516599</ele>
        <time>2020-08-04T09:31:57.893Z</time>
      </trkpt>
      <trkpt lat="63.23185" lon="8.26375">
        <ele>95.237452</ele>
        <time>2020-08-04T09:32:03.838Z</time>
      </trkpt>
      <trkpt lat="63.23192" lon="8.26392">
        <ele>95.767734</ele>
        <time>2020-08-04T09:32:09.854Z</time>
      </trkpt>
      <trkpt lat="63.23197" lon="8.26409">
        <ele>95.840203</ele>
        <time>2020-08-04T09:32:15.891Z</time>
      </trkpt>
      <trkpt lat="63.23203" lon="8.26425">
        <ele>95.91032</ele>
        <time>2020-08-04T09:32:20.828Z</time>
      </trkpt>
      <trkpt lat="63.23209" lon="8.26444">
        <ele>95.989738</ele>
        <time>2020-08-04T09:32:26.877Z</time>
      </trkpt>
      <trkpt lat="63.23214" lon="8.2646">
        <ele>96.060968</ele>
        <time>2020-08-04T09:32:31.854Z</time>
      </trkpt>
      <trkpt lat="63.2322" lon="8.26477">
        <ele>96.136207</ele>
        <time>2020-08-04T09:32:36.850Z</time>
      </trkpt>
      <trkpt lat="63.23226" lon="8.26495">
        <ele>96.21637</ele>
        <time>2020-08-04T09:32:41.854Z</time>
      </trkpt>
      <trkpt lat="63.23233" lon="8.26513">
        <ele>96.292909</ele>
        <time>2020-08-04T09:32:45.856Z</time>
      </trkpt>
      <trkpt lat="63.23239" lon="8.26529">
        <ele>96.369295</ele>
        <time>2020-08-04T09:32:49.856Z</time>
      </trkpt>
      <trkpt lat="63.23247" lon="8.26547">
        <ele>96.456562</ele>
        <time>2020-08-04T09:32:53.828Z</time>
      </trkpt>
      <trkpt lat="63.23253" lon="8.26564">
        <ele>96.533437</ele>
        <time>2020-08-04T09:32:56.839Z</time>
      </trkpt>
      <trkpt lat="63.23262" lon="8.26582">
        <ele>96.623318</ele>
        <time>2020-08-04T09:32:59.866Z</time>
      </trkpt>
      <trkpt lat="63.23271" lon="8.266">
        <ele>96.718516</ele>
        <time>2020-08-04T09:33:02.842Z</time>
      </trkpt>
      <trkpt lat="63.23278" lon="8.26613">
        <ele>96.789857</ele>
        <time>2020-08-04T09:33:04.852Z</time>
      </trkpt>
      <trkpt lat="63.23286" lon="8.26627">
        <ele>96.864976</ele>
        <time>2020-08-04T09:33:06.858Z</time>
      </trkpt>
      <trkpt lat="63.23294" lon="8.26641">
        <ele>96.944372</ele>
        <time>2020-08-04T09:33:08.868Z</time>
      </trkpt>
      <trkpt lat="63.23303" lon="8.26656">
        <ele>97.03122</ele>
        <time>2020-08-04T09:33:10.842Z</time>
      </trkpt>
      <trkpt lat="63.23312" lon="8.26672">
        <ele>97.125311</ele>
        <time>2020-08-04T09:33:12.859Z</time>
      </trkpt>
      <trkpt lat="63.23322" lon="8.26689">
        <ele>96.966306</ele>
        <time>2020-08-04T09:33:14.886Z</time>
      </trkpt>
      <trkpt lat="63.23332" lon="8.26706">
        <ele>96.771284</ele>
        <time>2020-08-04T09:33:16.855Z</time>
      </trkpt>
      <trkpt lat="63.23341" lon="8.26724">
        <ele>96.573145</ele>
        <time>2020-08-04T09:33:18.851Z</time>
      </trkpt>
      <trkpt lat="63.23351" lon="8.2674">
        <ele>96.380685</ele>
        <time>2020-08-04T09:33:20.842Z</time>
      </trkpt>
      <trkpt lat="63.23361" lon="8.26759">
        <ele>96.177747</ele>
        <time>2020-08-04T09:33:22.847Z</time>
      </trkpt>
      <trkpt lat="63.2337" lon="8.26776">
        <ele>95.992813</ele>
        <time>2020-08-04T09:33:24.865Z</time>
      </trkpt>
      <trkpt lat="63.23378" lon="8.2679">
        <ele>95.825767</ele>
        <time>2020-08-04T09:33:26.857Z</time>
      </trkpt>
      <trkpt lat="63.23386" lon="8.26804">
        <ele>95.666832</ele>
        <time>2020-08-04T09:33:28.856Z</time>
      </trkpt>
      <trkpt lat="63.23393" lon="8.26817">
        <ele>95.517019</ele>
        <time>2020-08-04T09:33:30.865Z</time>
      </trkpt>
      <trkpt lat="63.23403" lon="8.26835">
        <ele>95.314481</ele>
        <time>2020-08-04T09:33:33.884Z</time>
      </trkpt>
      <trkpt lat="63.23413" lon="8.26851">
        <ele>95.116121</ele>
        <time>2020-08-04T09:33:36.848Z</time>
      </trkpt>
      <trkpt lat="63.23423" lon="8.26868">
        <ele>94.923297</ele>
        <time>2020-08-04T09:33:39.855Z</time>
      </trkpt>
      <trkpt lat="63.23433" lon="8.26883">
        <ele>94.735981</ele>
        <time>2020-08-04T09:33:42.869Z</time>
      </trkpt>
      <trkpt lat="63.23442" lon="8.26899">
        <ele>94.553316</ele>
        <time>2020-08-04T09:33:45.878Z</time>
      </trkpt>
      <trkpt lat="63.23451" lon="8.26914">
        <ele>94.375321</ele>
        <time>2020-08-04T09:33:48.871Z</time>
      </trkpt>
      <trkpt lat="63.2346" lon="8.26929">
        <ele>94.216897</ele>
        <time>2020-08-04T09:33:51.848Z</time>
      </trkpt>
      <trkpt lat="63.23469" lon="8.26946">
        <ele>94.069631</ele>
        <time>2020-08-04T09:33:54.857Z</time>
      </trkpt>
      <trkpt lat="63.23478" lon="8.26961">
        <ele>93.93324</ele>
        <time>2020-08-04T09:33:57.882Z</time>
      </trkpt>
      <trkpt lat="63.23487" lon="8.26977">
        <ele>93.781242</ele>
        <time>2020-08-04T09:34:00.874Z</time>
      </trkpt>
      <trkpt lat="63.23497" lon="8.26993">
        <ele>93.629244</ele>
        <time>2020-08-04T09:34:03.848Z</time>
      </trkpt>
      <trkpt lat="63.23507" lon="8.2701">
        <ele>93.482857</ele>
        <time>2020-08-04T09:34:06.847Z</time>
      </trkpt>
      <trkpt lat="63.23516" lon="8.27027">
        <ele>93.327443</ele>
        <time>2020-08-04T09:34:09.882Z</time>
      </trkpt>
      <trkpt lat="63.23527" lon="8.27046">
        <ele>93.157718</ele>
        <time>2020-08-04T09:34:12.890Z</time>
      </trkpt>
      <trkpt lat="63.23534" lon="8.27059">
        <ele>93.042874</ele>
        <time>2020-08-04T09:34:14.847Z</time>
      </trkpt>
      <trkpt lat="63.23542" lon="8.27073">
        <ele>92.915641</ele>
        <time>2020-08-04T09:34:16.851Z</time>
      </trkpt>
      <trkpt lat="63.23551" lon="8.27089">
        <ele>92.780063</ele>
        <time>2020-08-04T09:34:18.850Z</time>
      </trkpt>
      <trkpt lat="63.2356" lon="8.27106">
        <ele>92.628739</ele>
        <time>2020-08-04T09:34:20.849Z</time>
      </trkpt>
      <trkpt lat="63.2357" lon="8.27125">
        <ele>92.469645</ele>
        <time>2020-08-04T09:34:22.847Z</time>
      </trkpt>
      <trkpt lat="63.23581" lon="8.27147">
        <ele>92.285874</ele>
        <time>2020-08-04T09:34:24.871Z</time>
      </trkpt>
      <trkpt lat="63.23592" lon="8.27172">
        <ele>92.085088</ele>
        <time>2020-08-04T09:34:26.840Z</time>
      </trkpt>
      <trkpt lat="63.23605" lon="8.27198">
        <ele>90.886887</ele>
        <time>2020-08-04T09:34:28.845Z</time>
      </trkpt>
      <trkpt lat="63.23612" lon="8.27213">
        <ele>90.187483</ele>
        <time>2020-08-04T09:34:29.847Z</time>
      </trkpt>
      <trkpt lat="63.23619" lon="8.27226">
        <ele>89.494974</ele>
        <time>2020-08-04T09:34:30.876Z</time>
      </trkpt>
      <trkpt lat="63.23626" lon="8.27241">
        <ele>88.7823</ele>
        <time>2020-08-04T09:34:31.842Z</time>
      </trkpt>
      <trkpt lat="63.23633" lon="8.27255">
        <ele>88.060772</ele>
        <time>2020-08-04T09:34:32.847Z</time>
      </trkpt>
      <trkpt lat="63.23641" lon="8.2727">
        <ele>87.305597</ele>
        <time>2020-08-04T09:34:33.852Z</time>
      </trkpt>
      <trkpt lat="63.23648" lon="8.27283">
        <ele>86.564196</ele>
        <time>2020-08-04T09:34:34.832Z</time>
      </trkpt>
      <trkpt lat="63.23656" lon="8.27297">
        <ele>85.799353</ele>
        <time>2020-08-04T09:34:35.856Z</time>
      </trkpt>
      <trkpt lat="63.23665" lon="8.2731">
        <ele>85.001765</ele>
        <time>2020-08-04T09:34:36.884Z</time>
      </trkpt>
      <trkpt lat="63.23675" lon="8.27323">
        <ele>84.178374</ele>
        <time>2020-08-04T09:34:37.871Z</time>
      </trkpt>
      <trkpt lat="63.23684" lon="8.27336">
        <ele>83.33975</ele>
        <time>2020-08-04T09:34:38.847Z</time>
      </trkpt>
      <trkpt lat="63.23694" lon="8.27347">
        <ele>82.496863</ele>
        <time>2020-08-04T09:34:39.864Z</time>
      </trkpt>
      <trkpt lat="63.23705" lon="8.27356">
        <ele>81.666268</ele>
        <time>2020-08-04T09:34:40.913Z</time>
      </trkpt>
      <trkpt lat="63.23716" lon="8.27365">
        <ele>80.778526</ele>
        <time>2020-08-04T09:34:41.837Z</time>
      </trkpt>
      <trkpt lat="63.23727" lon="8.27373">
        <ele>79.875562</ele>
        <time>2020-08-04T09:34:42.877Z</time>
      </trkpt>
      <trkpt lat="63.23739" lon="8.2738">
        <ele>78.962125</ele>
        <time>2020-08-04T09:34:43.844Z</time>
      </trkpt>
      <trkpt lat="63.23751" lon="8.27385">
        <ele>78.220745</ele>
        <time>2020-08-04T09:34:44.870Z</time>
      </trkpt>
      <trkpt lat="63.23763" lon="8.27389">
        <ele>77.586184</ele>
        <time>2020-08-04T09:34:45.838Z</time>
      </trkpt>
      <trkpt lat="63.23775" lon="8.27393">
        <ele>76.931024</ele>
        <time>2020-08-04T09:34:46.874Z</time>
      </trkpt>
      <trkpt lat="63.23788" lon="8.27397">
        <ele>76.267602</ele>
        <time>2020-08-04T09:34:47.848Z</time>
      </trkpt>
      <trkpt lat="63.238" lon="8.27401">
        <ele>75.613859</ele>
        <time>2020-08-04T09:34:48.845Z</time>
      </trkpt>
      <trkpt lat="63.23812" lon="8.27405">
        <ele>74.969738</ele>
        <time>2020-08-04T09:34:49.852Z</time>
      </trkpt>
      <trkpt lat="63.23825" lon="8.2741">
        <ele>74.312206</ele>
        <time>2020-08-04T09:34:50.873Z</time>
      </trkpt>
      <trkpt lat="63.23837" lon="8.27417">
        <ele>73.669402</ele>
        <time>2020-08-04T09:34:51.877Z</time>
      </trkpt>
      <trkpt lat="63.23849" lon="8.27424">
        <ele>72.998264</ele>
        <time>2020-08-04T09:34:52.878Z</time>
      </trkpt>
      <trkpt lat="63.23861" lon="8.27433">
        <ele>72.360525</ele>
        <time>2020-08-04T09:34:53.841Z</time>
      </trkpt>
      <trkpt lat="63.23872" lon="8.27444">
        <ele>71.697648</ele>
        <time>2020-08-04T09:34:54.842Z</time>
      </trkpt>
      <trkpt lat="63.23884" lon="8.27457">
        <ele>71.006117</ele>
        <time>2020-08-04T09:34:55.868Z</time>
      </trkpt>
      <trkpt lat="63.23896" lon="8.2747">
        <ele>70.338878</ele>
        <time>2020-08-04T09:34:56.856Z</time>
      </trkpt>
      <trkpt lat="63.23907" lon="8.27485">
        <ele>69.673544</ele>
        <time>2020-08-04T09:34:57.853Z</time>
      </trkpt>
      <trkpt lat="63.23918" lon="8.27502">
        <ele>68.976166</ele>
        <time>2020-08-04T09:34:58.864Z</time>
      </trkpt>
      <trkpt lat="63.23928" lon="8.2752">
        <ele>68.276596</ele>
        <time>2020-08-04T09:34:59.851Z</time>
      </trkpt>
      <trkpt lat="63.23939" lon="8.27541">
        <ele>67.57134</ele>
        <time>2020-08-04T09:35:00.890Z</time>
      </trkpt>
      <trkpt lat="63.23949" lon="8.27563">
        <ele>66.832693</ele>
        <time>2020-08-04T09:35:01.852Z</time>
      </trkpt>
      <trkpt lat="63.23959" lon="8.27587">
        <ele>66.089982</ele>
        <time>2020-08-04T09:35:02.874Z</time>
      </trkpt>
      <trkpt lat="63.23967" lon="8.27611">
        <ele>65.384916</ele>
        <time>2020-08-04T09:35:03.859Z</time>
      </trkpt>
      <trkpt lat="63.23975" lon="8.27638">
        <ele>64.636223</ele>
        <time>2020-08-04T09:35:04.848Z</time>
      </trkpt>
      <trkpt lat="63.23983" lon="8.27665">
        <ele>63.88462</ele>
        <time>2020-08-04T09:35:05.851Z</time>
      </trkpt>
      <trkpt lat="63.23991" lon="8.27692">
        <ele>63.151403</ele>
        <time>2020-08-04T09:35:06.847Z</time>
      </trkpt>
      <trkpt lat="63.23998" lon="8.27719">
        <ele>62.414875</ele>
        <time>2020-08-04T09:35:07.874Z</time>
      </trkpt>
      <trkpt lat="63.24005" lon="8.27747">
        <ele>61.687534</ele>
        <time>2020-08-04T09:35:08.846Z</time>
      </trkpt>
      <trkpt lat="63.24012" lon="8.27774">
        <ele>60.957603</ele>
        <time>2020-08-04T09:35:09.838Z</time>
      </trkpt>
      <trkpt lat="63.2402" lon="8.27801">
        <ele>60.233649</ele>
        <time>2020-08-04T09:35:10.846Z</time>
      </trkpt>
      <trkpt lat="63.24027" lon="8.27827">
        <ele>59.585003</ele>
        <time>2020-08-04T09:35:11.844Z</time>
      </trkpt>
      <trkpt lat="63.24034" lon="8.27854">
        <ele>58.968373</ele>
        <time>2020-08-04T09:35:12.890Z</time>
      </trkpt>
      <trkpt lat="63.24041" lon="8.27879">
        <ele>58.379602</ele>
        <time>2020-08-04T09:35:13.881Z</time>
      </trkpt>
      <trkpt lat="63.24049" lon="8.27904">
        <ele>57.800742</ele>
        <time>2020-08-04T09:35:14.838Z</time>
      </trkpt>
      <trkpt lat="63.24056" lon="8.27929">
        <ele>57.230814</ele>
        <time>2020-08-04T09:35:15.855Z</time>
      </trkpt>
      <trkpt lat="63.24062" lon="8.27952">
        <ele>56.699881</ele>
        <time>2020-08-04T09:35:16.855Z</time>
      </trkpt>
      <trkpt lat="63.24069" lon="8.27974">
        <ele>56.185163</ele>
        <time>2020-08-04T09:35:17.849Z</time>
      </trkpt>
      <trkpt lat="63.24075" lon="8.27994">
        <ele>55.697202</ele>
        <time>2020-08-04T09:35:18.849Z</time>
      </trkpt>
      <trkpt lat="63.24081" lon="8.28014">
        <ele>55.223056</ele>
        <time>2020-08-04T09:35:19.873Z</time>
      </trkpt>
      <trkpt lat="63.24087" lon="8.28033">
        <ele>54.787004</ele>
        <time>2020-08-04T09:35:20.851Z</time>
      </trkpt>
      <trkpt lat="63.24092" lon="8.28051">
        <ele>54.364668</ele>
        <time>2020-08-04T09:35:21.857Z</time>
      </trkpt>
      <trkpt lat="63.24097" lon="8.28067">
        <ele>53.973184</ele>
        <time>2020-08-04T09:35:22.850Z</time>
      </trkpt>
      <trkpt lat="63.24107" lon="8.28096">
        <ele>53.277983</ele>
        <time>2020-08-04T09:35:24.895Z</time>
      </trkpt>
      <trkpt lat="63.24115" lon="8.28122">
        <ele>52.652951</ele>
        <time>2020-08-04T09:35:26.854Z</time>
      </trkpt>
      <trkpt lat="63.24123" lon="8.28145">
        <ele>52.173826</ele>
        <time>2020-08-04T09:35:28.858Z</time>
      </trkpt>
      <trkpt lat="63.24129" lon="8.28164">
        <ele>52.544758</ele>
        <time>2020-08-04T09:35:30.842Z</time>
      </trkpt>
      <trkpt lat="63.24137" lon="8.28187">
        <ele>52.99806</ele>
        <time>2020-08-04T09:35:33.867Z</time>
      </trkpt>
      <trkpt lat="63.24142" lon="8.28204">
        <ele>53.332078</ele>
        <time>2020-08-04T09:35:36.850Z</time>
      </trkpt>
      <trkpt lat="63.24149" lon="8.28224">
        <ele>53.729294</ele>
        <time>2020-08-04T09:35:40.862Z</time>
      </trkpt>
      <trkpt lat="63.24155" lon="8.28242">
        <ele>54.084458</ele>
        <time>2020-08-04T09:35:43.843Z</time>
      </trkpt>
      <trkpt lat="63.24162" lon="8.28262">
        <ele>54.483387</ele>
        <time>2020-08-04T09:35:46.877Z</time>
      </trkpt>
      <trkpt lat="63.24169" lon="8.2828">
        <ele>54.852457</ele>
        <time>2020-08-04T09:35:49.852Z</time>
      </trkpt>
      <trkpt lat="63.24176" lon="8.28299">
        <ele>55.235112</ele>
        <time>2020-08-04T09:35:52.854Z</time>
      </trkpt>
      <trkpt lat="63.24183" lon="8.28316">
        <ele>55.588093</ele>
        <time>2020-08-04T09:35:55.850Z</time>
      </trkpt>
      <trkpt lat="63.24191" lon="8.28337">
        <ele>56.018907</ele>
        <time>2020-08-04T09:35:58.870Z</time>
      </trkpt>
      <trkpt lat="63.24197" lon="8.28352">
        <ele>56.336253</ele>
        <time>2020-08-04T09:36:00.847Z</time>
      </trkpt>
      <trkpt lat="63.24205" lon="8.28374">
        <ele>56.791233</ele>
        <time>2020-08-04T09:36:03.863Z</time>
      </trkpt>
      <trkpt lat="63.24212" lon="8.28388">
        <ele>57.109452</ele>
        <time>2020-08-04T09:36:05.879Z</time>
      </trkpt>
      <trkpt lat="63.24219" lon="8.28403">
        <ele>57.456897</ele>
        <time>2020-08-04T09:36:07.851Z</time>
      </trkpt>
      <trkpt lat="63.24227" lon="8.28418">
        <ele>57.809551</ele>
        <time>2020-08-04T09:36:09.862Z</time>
      </trkpt>
      <trkpt lat="63.24235" lon="8.28432">
        <ele>58.171139</ele>
        <time>2020-08-04T09:36:11.873Z</time>
      </trkpt>
      <trkpt lat="63.24243" lon="8.28445">
        <ele>58.377162</ele>
        <time>2020-08-04T09:36:13.854Z</time>
      </trkpt>
      <trkpt lat="63.24252" lon="8.28459">
        <ele>58.256757</ele>
        <time>2020-08-04T09:36:15.857Z</time>
      </trkpt>
      <trkpt lat="63.24261" lon="8.28472">
        <ele>58.135416</ele>
        <time>2020-08-04T09:36:17.846Z</time>
      </trkpt>
      <trkpt lat="63.2427" lon="8.28486">
        <ele>58.010584</ele>
        <time>2020-08-04T09:36:19.919Z</time>
      </trkpt>
      <trkpt lat="63.2428" lon="8.285">
        <ele>57.874032</ele>
        <time>2020-08-04T09:36:21.855Z</time>
      </trkpt>
      <trkpt lat="63.2429" lon="8.28512">
        <ele>57.741586</ele>
        <time>2020-08-04T09:36:23.852Z</time>
      </trkpt>
      <trkpt lat="63.24301" lon="8.28524">
        <ele>57.603517</ele>
        <time>2020-08-04T09:36:25.844Z</time>
      </trkpt>
      <trkpt lat="63.24312" lon="8.28536">
        <ele>57.460753</ele>
        <time>2020-08-04T09:36:27.847Z</time>
      </trkpt>
      <trkpt lat="63.24324" lon="8.28548">
        <ele>57.311721</ele>
        <time>2020-08-04T09:36:29.843Z</time>
      </trkpt>
      <trkpt lat="63.24336" lon="8.28562">
        <ele>57.157135</ele>
        <time>2020-08-04T09:36:31.855Z</time>
      </trkpt>
      <trkpt lat="63.24349" lon="8.28575">
        <ele>56.99856</ele>
        <time>2020-08-04T09:36:33.872Z</time>
      </trkpt>
      <trkpt lat="63.24362" lon="8.2859">
        <ele>56.829617</ele>
        <time>2020-08-04T09:36:35.861Z</time>
      </trkpt>
      <trkpt lat="63.24375" lon="8.28605">
        <ele>56.658663</ele>
        <time>2020-08-04T09:36:37.857Z</time>
      </trkpt>
      <trkpt lat="63.24388" lon="8.28623">
        <ele>56.485571</ele>
        <time>2020-08-04T09:36:39.891Z</time>
      </trkpt>
      <trkpt lat="63.24401" lon="8.28643">
        <ele>56.232941</ele>
        <time>2020-08-04T09:36:41.837Z</time>
      </trkpt>
      <trkpt lat="63.24414" lon="8.28663">
        <ele>55.799649</ele>
        <time>2020-08-04T09:36:43.856Z</time>
      </trkpt>
      <trkpt lat="63.24427" lon="8.28684">
        <ele>55.364939</ele>
        <time>2020-08-04T09:36:45.868Z</time>
      </trkpt>
      <trkpt lat="63.24439" lon="8.28708">
        <ele>54.922119</ele>
        <time>2020-08-04T09:36:47.838Z</time>
      </trkpt>
      <trkpt lat="63.24451" lon="8.28732">
        <ele>54.485015</ele>
        <time>2020-08-04T09:36:49.851Z</time>
      </trkpt>
      <trkpt lat="63.24463" lon="8.28756">
        <ele>54.041986</ele>
        <time>2020-08-04T09:36:51.847Z</time>
      </trkpt>
      <trkpt lat="63.24474" lon="8.28784">
        <ele>53.591251</ele>
        <time>2020-08-04T09:36:53.850Z</time>
      </trkpt>
      <trkpt lat="63.24485" lon="8.2881">
        <ele>53.148728</ele>
        <time>2020-08-04T09:36:55.880Z</time>
      </trkpt>
      <trkpt lat="63.24495" lon="8.28838">
        <ele>52.712573</ele>
        <time>2020-08-04T09:36:57.873Z</time>
      </trkpt>
      <trkpt lat="63.24504" lon="8.28867">
        <ele>52.26964</ele>
        <time>2020-08-04T09:36:59.852Z</time>
      </trkpt>
      <trkpt lat="63.24513" lon="8.28896">
        <ele>51.840072</ele>
        <time>2020-08-04T09:37:01.842Z</time>
      </trkpt>
      <trkpt lat="63.24521" lon="8.28924">
        <ele>51.46071</ele>
        <time>2020-08-04T09:37:03.846Z</time>
      </trkpt>
      <trkpt lat="63.24529" lon="8.28953">
        <ele>51.568673</ele>
        <time>2020-08-04T09:37:05.854Z</time>
      </trkpt>
      <trkpt lat="63.24535" lon="8.28981">
        <ele>51.6698</ele>
        <time>2020-08-04T09:37:07.866Z</time>
      </trkpt>
      <trkpt lat="63.2454" lon="8.29009">
        <ele>51.765291</ele>
        <time>2020-08-04T09:37:09.861Z</time>
      </trkpt>
      <trkpt lat="63.24545" lon="8.29035">
        <ele>51.858165</ele>
        <time>2020-08-04T09:37:11.916Z</time>
      </trkpt>
      <trkpt lat="63.24549" lon="8.2906">
        <ele>51.942384</ele>
        <time>2020-08-04T09:37:13.881Z</time>
      </trkpt>
      <trkpt lat="63.24552" lon="8.29083">
        <ele>52.020838</ele>
        <time>2020-08-04T09:37:15.860Z</time>
      </trkpt>
      <trkpt lat="63.24555" lon="8.29104">
        <ele>52.094406</ele>
        <time>2020-08-04T09:37:17.846Z</time>
      </trkpt>
      <trkpt lat="63.24558" lon="8.29126">
        <ele>52.166426</ele>
        <time>2020-08-04T09:37:19.908Z</time>
      </trkpt>
      <trkpt lat="63.24561" lon="8.29146">
        <ele>52.233891</ele>
        <time>2020-08-04T09:37:21.855Z</time>
      </trkpt>
      <trkpt lat="63.24563" lon="8.29165">
        <ele>52.299179</ele>
        <time>2020-08-04T09:37:23.850Z</time>
      </trkpt>
      <trkpt lat="63.24567" lon="8.29192">
        <ele>52.390438</ele>
        <time>2020-08-04T09:37:26.851Z</time>
      </trkpt>
      <trkpt lat="63.2457" lon="8.29216">
        <ele>52.471889</ele>
        <time>2020-08-04T09:37:29.845Z</time>
      </trkpt>
      <trkpt lat="63.24574" lon="8.2924">
        <ele>52.554356</ele>
        <time>2020-08-04T09:37:32.861Z</time>
      </trkpt>
      <trkpt lat="63.24577" lon="8.29263">
        <ele>52.631233</ele>
        <time>2020-08-04T09:37:35.902Z</time>
      </trkpt>
      <trkpt lat="63.2458" lon="8.29284">
        <ele>52.703561</ele>
        <time>2020-08-04T09:37:38.890Z</time>
      </trkpt>
      <trkpt lat="63.24583" lon="8.29305">
        <ele>52.966057</ele>
        <time>2020-08-04T09:37:41.882Z</time>
      </trkpt>
      <trkpt lat="63.24586" lon="8.29328">
        <ele>53.585566</ele>
        <time>2020-08-04T09:37:44.859Z</time>
      </trkpt>
      <trkpt lat="63.24588" lon="8.29347">
        <ele>54.11443</ele>
        <time>2020-08-04T09:37:47.845Z</time>
      </trkpt>
      <trkpt lat="63.24591" lon="8.29368">
        <ele>54.705106</ele>
        <time>2020-08-04T09:37:51.884Z</time>
      </trkpt>
      <trkpt lat="63.24594" lon="8.2939">
        <ele>55.314514</ele>
        <time>2020-08-04T09:37:54.857Z</time>
      </trkpt>
      <trkpt lat="63.24597" lon="8.29415">
        <ele>55.995036</ele>
        <time>2020-08-04T09:37:58.841Z</time>
      </trkpt>
      <trkpt lat="63.24601" lon="8.29438">
        <ele>56.656897</ele>
        <time>2020-08-04T09:38:02.870Z</time>
      </trkpt>
      <trkpt lat="63.24604" lon="8.29461">
        <ele>57.291636</ele>
        <time>2020-08-04T09:38:06.857Z</time>
      </trkpt>
      <trkpt lat="63.24607" lon="8.29484">
        <ele>57.936737</ele>
        <time>2020-08-04T09:38:10.874Z</time>
      </trkpt>
      <trkpt lat="63.24611" lon="8.29508">
        <ele>58.603185</ele>
        <time>2020-08-04T09:38:14.878Z</time>
      </trkpt>
      <trkpt lat="63.24615" lon="8.29529">
        <ele>59.213339</ele>
        <time>2020-08-04T09:38:18.862Z</time>
      </trkpt>
      <trkpt lat="63.24618" lon="8.29552">
        <ele>59.851664</ele>
        <time>2020-08-04T09:38:22.862Z</time>
      </trkpt>
      <trkpt lat="63.24622" lon="8.29572">
        <ele>60.428073</ele>
        <time>2020-08-04T09:38:26.852Z</time>
      </trkpt>
      <trkpt lat="63.24626" lon="8.29594">
        <ele>61.038699</ele>
        <time>2020-08-04T09:38:30.849Z</time>
      </trkpt>
      <trkpt lat="63.2463" lon="8.29615">
        <ele>61.670426</ele>
        <time>2020-08-04T09:38:34.857Z</time>
      </trkpt>
      <trkpt lat="63.24634" lon="8.29635">
        <ele>62.23947</ele>
        <time>2020-08-04T09:38:38.849Z</time>
      </trkpt>
      <trkpt lat="63.24638" lon="8.29654">
        <ele>62.813448</ele>
        <time>2020-08-04T09:38:43.857Z</time>
      </trkpt>
      <trkpt lat="63.24643" lon="8.29675">
        <ele>63.455572</ele>
        <time>2020-08-04T09:38:49.847Z</time>
      </trkpt>
      <trkpt lat="63.24647" lon="8.29694">
        <ele>64.370618</ele>
        <time>2020-08-04T09:38:55.840Z</time>
      </trkpt>
      <trkpt lat="63.24651" lon="8.29712">
        <ele>65.236059</ele>
        <time>2020-08-04T09:39:01.841Z</time>
      </trkpt>
      <trkpt lat="63.24656" lon="8.29733">
        <ele>66.26814</ele>
        <time>2020-08-04T09:39:07.867Z</time>
      </trkpt>
      <trkpt lat="63.2466" lon="8.29752">
        <ele>67.183403</ele>
        <time>2020-08-04T09:39:12.846Z</time>
      </trkpt>
      <trkpt lat="63.24664" lon="8.29772">
        <ele>68.134614</ele>
        <time>2020-08-04T09:39:18.851Z</time>
      </trkpt>
      <trkpt lat="63.24669" lon="8.29791">
        <ele>69.071559</ele>
        <time>2020-08-04T09:39:24.890Z</time>
      </trkpt>
      <trkpt lat="63.24673" lon="8.2981">
        <ele>69.999591</ele>
        <time>2020-08-04T09:39:30.854Z</time>
      </trkpt>
      <trkpt lat="63.24678" lon="8.29827">
        <ele>70.859047</ele>
        <time>2020-08-04T09:39:35.853Z</time>
      </trkpt>
      <trkpt lat="63.24682" lon="8.29845">
        <ele>71.728117</ele>
        <time>2020-08-04T09:39:40.858Z</time>
      </trkpt>
      <trkpt lat="63.24687" lon="8.29862">
        <ele>72.62464</ele>
        <time>2020-08-04T09:39:45.839Z</time>
      </trkpt>
      <trkpt lat="63.24694" lon="8.29882">
        <ele>73.657248</ele>
        <time>2020-08-04T09:39:51.894Z</time>
      </trkpt>
      <trkpt lat="63.24699" lon="8.299">
        <ele>74.606646</ele>
        <time>2020-08-04T09:39:56.880Z</time>
      </trkpt>
      <trkpt lat="63.24704" lon="8.29918">
        <ele>75.55148</ele>
        <time>2020-08-04T09:40:02.840Z</time>
      </trkpt>
      <trkpt lat="63.2471" lon="8.29936">
        <ele>76.485305</ele>
        <time>2020-08-04T09:40:08.852Z</time>
      </trkpt>
      <trkpt lat="63.24715" lon="8.29952">
        <ele>77.373341</ele>
        <time>2020-08-04T09:40:14.854Z</time>
      </trkpt>
      <trkpt lat="63.24721" lon="8.29969">
        <ele>78.253371</ele>
        <time>2020-08-04T09:40:20.850Z</time>
      </trkpt>
      <trkpt lat="63.24726" lon="8.29989">
        <ele>79.225083</ele>
        <time>2020-08-04T09:40:26.850Z</time>
      </trkpt>
      <trkpt lat="63.24731" lon="8.30008">
        <ele>80.190548</ele>
        <time>2020-08-04T09:40:32.840Z</time>
      </trkpt>
      <trkpt lat="63.24736" lon="8.30026">
        <ele>80.708687</ele>
        <time>2020-08-04T09:40:38.840Z</time>
      </trkpt>
      <trkpt lat="63.24741" lon="8.30046">
        <ele>80.849263</ele>
        <time>2020-08-04T09:40:44.849Z</time>
      </trkpt>
      <trkpt lat="63.24745" lon="8.30063">
        <ele>80.979438</ele>
        <time>2020-08-04T09:40:49.848Z</time>
      </trkpt>
      <trkpt lat="63.2475" lon="8.30082">
        <ele>81.1171</ele>
        <time>2020-08-04T09:40:55.875Z</time>
      </trkpt>
      <trkpt lat="63.24755" lon="8.30102">
        <ele>81.263104</ele>
        <time>2020-08-04T09:41:01.852Z</time>
      </trkpt>
      <trkpt lat="63.2476" lon="8.30121">
        <ele>81.400896</ele>
        <time>2020-08-04T09:41:07.875Z</time>
      </trkpt>
      <trkpt lat="63.24764" lon="8.30139">
        <ele>81.532476</ele>
        <time>2020-08-04T09:41:13.854Z</time>
      </trkpt>
      <trkpt lat="63.24768" lon="8.30158">
        <ele>81.667356</ele>
        <time>2020-08-04T09:41:18.843Z</time>
      </trkpt>
      <trkpt lat="63.24773" lon="8.30177">
        <ele>81.801549</ele>
        <time>2020-08-04T09:41:23.866Z</time>
      </trkpt>
      <trkpt lat="63.24778" lon="8.30195">
        <ele>81.934801</ele>
        <time>2020-08-04T09:41:29.860Z</time>
      </trkpt>
      <trkpt lat="63.24783" lon="8.30213">
        <ele>82.072462</ele>
        <time>2020-08-04T09:41:35.863Z</time>
      </trkpt>
      <trkpt lat="63.24788" lon="8.30232">
        <ele>82.21154</ele>
        <time>2020-08-04T09:41:41.852Z</time>
      </trkpt>
      <trkpt lat="63.24792" lon="8.30252">
        <ele>82.355802</ele>
        <time>2020-08-04T09:41:47.852Z</time>
      </trkpt>
      <trkpt lat="63.24798" lon="8.30271">
        <ele>82.495605</ele>
        <time>2020-08-04T09:41:53.832Z</time>
      </trkpt>
      <trkpt lat="63.24803" lon="8.30291">
        <ele>82.644521</ele>
        <time>2020-08-04T09:41:59.885Z</time>
      </trkpt>
      <trkpt lat="63.24808" lon="8.3031">
        <ele>82.782735</ele>
        <time>2020-08-04T09:42:05.847Z</time>
      </trkpt>
      <trkpt lat="63.24812" lon="8.30329">
        <ele>82.911692</ele>
        <time>2020-08-04T09:42:10.831Z</time>
      </trkpt>
      <trkpt lat="63.24815" lon="8.30347">
        <ele>83.040629</ele>
        <time>2020-08-04T09:42:15.844Z</time>
      </trkpt>
      <trkpt lat="63.2482" lon="8.30365">
        <ele>83.169968</ele>
        <time>2020-08-04T09:42:20.836Z</time>
      </trkpt>
      <trkpt lat="63.24825" lon="8.30382">
        <ele>83.204483</ele>
        <time>2020-08-04T09:42:25.858Z</time>
      </trkpt>
      <trkpt lat="63.2483" lon="8.304">
        <ele>83.231115</ele>
        <time>2020-08-04T09:42:30.871Z</time>
      </trkpt>
      <trkpt lat="63.24835" lon="8.30419">
        <ele>83.258349</ele>
        <time>2020-08-04T09:42:35.863Z</time>
      </trkpt>
      <trkpt lat="63.2484" lon="8.30438">
        <ele>83.285826</ele>
        <time>2020-08-04T09:42:40.842Z</time>
      </trkpt>
      <trkpt lat="63.24844" lon="8.30459">
        <ele>83.315088</ele>
        <time>2020-08-04T09:42:45.892Z</time>
      </trkpt>
      <trkpt lat="63.24849" lon="8.3048">
        <ele>83.344103</ele>
        <time>2020-08-04T09:42:50.863Z</time>
      </trkpt>
      <trkpt lat="63.24853" lon="8.30499">
        <ele>83.370037</ele>
        <time>2020-08-04T09:42:54.859Z</time>
      </trkpt>
      <trkpt lat="63.24857" lon="8.30518">
        <ele>83.39711</ele>
        <time>2020-08-04T09:42:58.843Z</time>
      </trkpt>
      <trkpt lat="63.24861" lon="8.30538">
        <ele>83.424064</ele>
        <time>2020-08-04T09:43:02.849Z</time>
      </trkpt>
      <trkpt lat="63.24865" lon="8.30557">
        <ele>83.450456</ele>
        <time>2020-08-04T09:43:06.854Z</time>
      </trkpt>
      <trkpt lat="63.24869" lon="8.30576">
        <ele>83.476842</ele>
        <time>2020-08-04T09:43:10.843Z</time>
      </trkpt>
      <trkpt lat="63.24873" lon="8.30597">
        <ele>83.503925</ele>
        <time>2020-08-04T09:43:14.838Z</time>
      </trkpt>
      <trkpt lat="63.24877" lon="8.30618">
        <ele>83.533609</ele>
        <time>2020-08-04T09:43:18.892Z</time>
      </trkpt>
      <trkpt lat="63.24881" lon="8.30638">
        <ele>83.560903</ele>
        <time>2020-08-04T09:43:22.871Z</time>
      </trkpt>
      <trkpt lat="63.24886" lon="8.30657">
        <ele>83.587414</ele>
        <time>2020-08-04T09:43:26.846Z</time>
      </trkpt>
      <trkpt lat="63.24889" lon="8.30676">
        <ele>83.613364</ele>
        <time>2020-08-04T09:43:29.873Z</time>
      </trkpt>
      <trkpt lat="63.24893" lon="8.30695">
        <ele>83.639524</ele>
        <time>2020-08-04T09:43:32.854Z</time>
      </trkpt>
      <trkpt lat="63.24897" lon="8.30715">
        <ele>83.665909</ele>
        <time>2020-08-04T09:43:35.878Z</time>
      </trkpt>
      <trkpt lat="63.24901" lon="8.30735">
        <ele>83.607625</ele>
        <time>2020-08-04T09:43:38.874Z</time>
      </trkpt>
      <trkpt lat="63.24906" lon="8.30757">
        <ele>83.463386</ele>
        <time>2020-08-04T09:43:41.863Z</time>
      </trkpt>
      <trkpt lat="63.24911" lon="8.30778">
        <ele>83.318976</ele>
        <time>2020-08-04T09:43:44.856Z</time>
      </trkpt>
      <trkpt lat="63.24916" lon="8.30802">
        <ele>83.164828</ele>
        <time>2020-08-04T09:43:47.842Z</time>
      </trkpt>
      <trkpt lat="63.24921" lon="8.30826">
        <ele>83.004605</ele>
        <time>2020-08-04T09:43:50.855Z</time>
      </trkpt>
      <trkpt lat="63.24926" lon="8.30851">
        <ele>82.836148</ele>
        <time>2020-08-04T09:43:53.860Z</time>
      </trkpt>
      <trkpt lat="63.24932" lon="8.30876">
        <ele>82.666425</ele>
        <time>2020-08-04T09:43:56.899Z</time>
      </trkpt>
      <trkpt lat="63.24936" lon="8.30895">
        <ele>82.539222</ele>
        <time>2020-08-04T09:43:58.863Z</time>
      </trkpt>
      <trkpt lat="63.2494" lon="8.30915">
        <ele>82.409215</ele>
        <time>2020-08-04T09:44:00.861Z</time>
      </trkpt>
      <trkpt lat="63.24944" lon="8.30934">
        <ele>82.275953</ele>
        <time>2020-08-04T09:44:02.846Z</time>
      </trkpt>
      <trkpt lat="63.24949" lon="8.30956">
        <ele>82.12885</ele>
        <time>2020-08-04T09:44:04.856Z</time>
      </trkpt>
      <trkpt lat="63.24954" lon="8.30978">
        <ele>81.980972</ele>
        <time>2020-08-04T09:44:06.856Z</time>
      </trkpt>
      <trkpt lat="63.2496" lon="8.31001">
        <ele>81.826668</ele>
        <time>2020-08-04T09:44:08.859Z</time>
      </trkpt>
      <trkpt lat="63.24965" lon="8.31023">
        <ele>81.675184</ele>
        <time>2020-08-04T09:44:10.853Z</time>
      </trkpt>
      <trkpt lat="63.2497" lon="8.31048">
        <ele>81.508604</ele>
        <time>2020-08-04T09:44:12.890Z</time>
      </trkpt>
      <trkpt lat="63.24976" lon="8.31075">
        <ele>81.324064</ele>
        <time>2020-08-04T09:44:14.877Z</time>
      </trkpt>
      <trkpt lat="63.24983" lon="8.31103">
        <ele>80.902219</ele>
        <time>2020-08-04T09:44:16.840Z</time>
      </trkpt>
      <trkpt lat="63.2499" lon="8.31132">
        <ele>80.35611</ele>
        <time>2020-08-04T09:44:18.868Z</time>
      </trkpt>
      <trkpt lat="63.24997" lon="8.31159">
        <ele>79.813979</ele>
        <time>2020-08-04T09:44:20.869Z</time>
      </trkpt>
      <trkpt lat="63.25005" lon="8.31189">
        <ele>79.238771</ele>
        <time>2020-08-04T09:44:22.870Z</time>
      </trkpt>
      <trkpt lat="63.25013" lon="8.31219">
        <ele>78.655307</ele>
        <time>2020-08-04T09:44:24.850Z</time>
      </trkpt>
      <trkpt lat="63.25021" lon="8.31249">
        <ele>78.05801</ele>
        <time>2020-08-04T09:44:26.868Z</time>
      </trkpt>
      <trkpt lat="63.25029" lon="8.31279">
        <ele>77.46051</ele>
        <time>2020-08-04T09:44:28.849Z</time>
      </trkpt>
      <trkpt lat="63.25038" lon="8.31309">
        <ele>76.861779</ele>
        <time>2020-08-04T09:44:30.882Z</time>
      </trkpt>
      <trkpt lat="63.25047" lon="8.31339">
        <ele>76.268657</ele>
        <time>2020-08-04T09:44:32.885Z</time>
      </trkpt>
      <trkpt lat="63.25056" lon="8.31368">
        <ele>75.662324</ele>
        <time>2020-08-04T09:44:34.850Z</time>
      </trkpt>
      <trkpt lat="63.25066" lon="8.31399">
        <ele>75.043381</ele>
        <time>2020-08-04T09:44:36.853Z</time>
      </trkpt>
      <trkpt lat="63.25075" lon="8.31429">
        <ele>74.542953</ele>
        <time>2020-08-04T09:44:38.864Z</time>
      </trkpt>
      <trkpt lat="63.25084" lon="8.31457">
        <ele>74.490485</ele>
        <time>2020-08-04T09:44:40.852Z</time>
      </trkpt>
      <trkpt lat="63.25093" lon="8.31483">
        <ele>74.442654</ele>
        <time>2020-08-04T09:44:42.887Z</time>
      </trkpt>
      <trkpt lat="63.25101" lon="8.31507">
        <ele>74.39705</ele>
        <time>2020-08-04T09:44:44.841Z</time>
      </trkpt>
      <trkpt lat="63.25109" lon="8.3153">
        <ele>74.354061</ele>
        <time>2020-08-04T09:44:46.883Z</time>
      </trkpt>
      <trkpt lat="63.25116" lon="8.3155">
        <ele>74.31593</ele>
        <time>2020-08-04T09:44:48.842Z</time>
      </trkpt>
      <trkpt lat="63.25123" lon="8.31569">
        <ele>74.279664</ele>
        <time>2020-08-04T09:44:50.853Z</time>
      </trkpt>
      <trkpt lat="63.2513" lon="8.31588">
        <ele>74.244582</ele>
        <time>2020-08-04T09:44:52.856Z</time>
      </trkpt>
      <trkpt lat="63.25136" lon="8.31605">
        <ele>74.21098</ele>
        <time>2020-08-04T09:44:54.837Z</time>
      </trkpt>
      <trkpt lat="63.25142" lon="8.31621">
        <ele>74.179372</ele>
        <time>2020-08-04T09:44:56.907Z</time>
      </trkpt>
      <trkpt lat="63.25149" lon="8.31637">
        <ele>74.14822</ele>
        <time>2020-08-04T09:44:58.852Z</time>
      </trkpt>
      <trkpt lat="63.25155" lon="8.31653">
        <ele>74.116626</ele>
        <time>2020-08-04T09:45:00.900Z</time>
      </trkpt>
      <trkpt lat="63.25163" lon="8.31675">
        <ele>74.074069</ele>
        <time>2020-08-04T09:45:03.852Z</time>
      </trkpt>
      <trkpt lat="63.25173" lon="8.31698">
        <ele>74.027636</ele>
        <time>2020-08-04T09:45:06.855Z</time>
      </trkpt>
      <trkpt lat="63.25179" lon="8.31712">
        <ele>73.997033</ele>
        <time>2020-08-04T09:45:08.852Z</time>
      </trkpt>
      <trkpt lat="63.25188" lon="8.31733">
        <ele>73.977101</ele>
        <time>2020-08-04T09:45:11.848Z</time>
      </trkpt>
      <trkpt lat="63.25196" lon="8.31752">
        <ele>74.209064</ele>
        <time>2020-08-04T09:45:14.864Z</time>
      </trkpt>
      <trkpt lat="63.25205" lon="8.31773">
        <ele>74.460399</ele>
        <time>2020-08-04T09:45:17.852Z</time>
      </trkpt>
      <trkpt lat="63.25214" lon="8.31793">
        <ele>74.704846</ele>
        <time>2020-08-04T09:45:20.858Z</time>
      </trkpt>
      <trkpt lat="63.25223" lon="8.31813">
        <ele>74.95521</ele>
        <time>2020-08-04T09:45:23.844Z</time>
      </trkpt>
      <trkpt lat="63.25234" lon="8.31833">
        <ele>75.214969</ele>
        <time>2020-08-04T09:45:26.854Z</time>
      </trkpt>
      <trkpt lat="63.2524" lon="8.31846">
        <ele>75.389775</ele>
        <time>2020-08-04T09:45:28.855Z</time>
      </trkpt>
      <trkpt lat="63.25247" lon="8.31862">
        <ele>75.580486</ele>
        <time>2020-08-04T09:45:30.868Z</time>
      </trkpt>
      <trkpt lat="63.25255" lon="8.31875">
        <ele>75.76547</ele>
        <time>2020-08-04T09:45:32.850Z</time>
      </trkpt>
      <trkpt lat="63.25262" lon="8.31889">
        <ele>75.953245</ele>
        <time>2020-08-04T09:45:34.869Z</time>
      </trkpt>
      <trkpt lat="63.2527" lon="8.31903">
        <ele>76.135639</ele>
        <time>2020-08-04T09:45:36.863Z</time>
      </trkpt>
      <trkpt lat="63.25277" lon="8.31917">
        <ele>76.331753</ele>
        <time>2020-08-04T09:45:38.882Z</time>
      </trkpt>
      <trkpt lat="63.25285" lon="8.31933">
        <ele>76.537665</ele>
        <time>2020-08-04T09:45:40.836Z</time>
      </trkpt>
      <trkpt lat="63.25294" lon="8.31948">
        <ele>76.74392</ele>
        <time>2020-08-04T09:45:42.849Z</time>
      </trkpt>
      <trkpt lat="63.25302" lon="8.31963">
        <ele>76.945247</ele>
        <time>2020-08-04T09:45:44.877Z</time>
      </trkpt>
      <trkpt lat="63.25309" lon="8.31979">
        <ele>77.149506</ele>
        <time>2020-08-04T09:45:46.854Z</time>
      </trkpt>
      <trkpt lat="63.25318" lon="8.31994">
        <ele>77.359829</ele>
        <time>2020-08-04T09:45:48.846Z</time>
      </trkpt>
      <trkpt lat="63.25327" lon="8.32012">
        <ele>77.296482</ele>
        <time>2020-08-04T09:45:50.848Z</time>
      </trkpt>
      <trkpt lat="63.25335" lon="8.32029">
        <ele>77.121921</ele>
        <time>2020-08-04T09:45:52.858Z</time>
      </trkpt>
      <trkpt lat="63.25344" lon="8.32047">
        <ele>76.945422</ele>
        <time>2020-08-04T09:45:54.842Z</time>
      </trkpt>
      <trkpt lat="63.25351" lon="8.32066">
        <ele>76.775095</ele>
        <time>2020-08-04T09:45:56.832Z</time>
      </trkpt>
      <trkpt lat="63.25359" lon="8.32086">
        <ele>76.600063</ele>
        <time>2020-08-04T09:45:58.847Z</time>
      </trkpt>
      <trkpt lat="63.25365" lon="8.32108">
        <ele>76.426837</ele>
        <time>2020-08-04T09:46:00.879Z</time>
      </trkpt>
      <trkpt lat="63.25371" lon="8.32131">
        <ele>76.249213</ele>
        <time>2020-08-04T09:46:02.839Z</time>
      </trkpt>
      <trkpt lat="63.25376" lon="8.32155">
        <ele>76.072679</ele>
        <time>2020-08-04T09:46:04.858Z</time>
      </trkpt>
      <trkpt lat="63.2538" lon="8.3218">
        <ele>75.888941</ele>
        <time>2020-08-04T09:46:06.856Z</time>
      </trkpt>
      <trkpt lat="63.25384" lon="8.32207">
        <ele>75.701826</ele>
        <time>2020-08-04T09:46:08.842Z</time>
      </trkpt>
      <trkpt lat="63.25386" lon="8.32235">
        <ele>75.513294</ele>
        <time>2020-08-04T09:46:10.847Z</time>
      </trkpt>
      <trkpt lat="63.25387" lon="8.32261">
        <ele>75.334828</ele>
        <time>2020-08-04T09:46:12.849Z</time>
      </trkpt>
      <trkpt lat="63.25388" lon="8.32287">
        <ele>75.162791</ele>
        <time>2020-08-04T09:46:14.851Z</time>
      </trkpt>
      <trkpt lat="63.25387" lon="8.32312">
        <ele>74.994626</ele>
        <time>2020-08-04T09:46:16.867Z</time>
      </trkpt>
      <trkpt lat="63.25386" lon="8.32336">
        <ele>74.833517</ele>
        <time>2020-08-04T09:46:18.845Z</time>
      </trkpt>
      <trkpt lat="63.25384" lon="8.32359">
        <ele>74.56212</ele>
        <time>2020-08-04T09:46:20.860Z</time>
      </trkpt>
      <trkpt lat="63.25382" lon="8.32382">
        <ele>74.13093</ele>
        <time>2020-08-04T09:46:22.861Z</time>
      </trkpt>
      <trkpt lat="63.25379" lon="8.32404">
        <ele>73.729634</ele>
        <time>2020-08-04T09:46:24.842Z</time>
      </trkpt>
      <trkpt lat="63.25376" lon="8.32429">
        <ele>73.260014</ele>
        <time>2020-08-04T09:46:26.869Z</time>
      </trkpt>
      <trkpt lat="63.25373" lon="8.32453">
        <ele>72.791726</ele>
        <time>2020-08-04T09:46:28.851Z</time>
      </trkpt>
      <trkpt lat="63.25369" lon="8.32479">
        <ele>72.308876</ele>
        <time>2020-08-04T09:46:30.851Z</time>
      </trkpt>
      <trkpt lat="63.25365" lon="8.32504">
        <ele>71.819116</ele>
        <time>2020-08-04T09:46:32.854Z</time>
      </trkpt>
      <trkpt lat="63.25361" lon="8.3253">
        <ele>71.321208</ele>
        <time>2020-08-04T09:46:34.859Z</time>
      </trkpt>
      <trkpt lat="63.25358" lon="8.32557">
        <ele>70.822795</ele>
        <time>2020-08-04T09:46:36.878Z</time>
      </trkpt>
      <trkpt lat="63.25354" lon="8.32583">
        <ele>70.319702</ele>
        <time>2020-08-04T09:46:38.896Z</time>
      </trkpt>
      <trkpt lat="63.2535" lon="8.32607">
        <ele>69.854848</ele>
        <time>2020-08-04T09:46:40.862Z</time>
      </trkpt>
      <trkpt lat="63.25345" lon="8.32636">
        <ele>69.304923</ele>
        <time>2020-08-04T09:46:42.850Z</time>
      </trkpt>
      <trkpt lat="63.25341" lon="8.32669">
        <ele>68.663336</ele>
        <time>2020-08-04T09:46:44.861Z</time>
      </trkpt>
      <trkpt lat="63.25336" lon="8.32705">
        <ele>67.996294</ele>
        <time>2020-08-04T09:46:46.845Z</time>
      </trkpt>
      <trkpt lat="63.25331" lon="8.3274">
        <ele>67.273234</ele>
        <time>2020-08-04T09:46:48.869Z</time>
      </trkpt>
      <trkpt lat="63.25326" lon="8.32778">
        <ele>66.350162</ele>
        <time>2020-08-04T09:46:50.848Z</time>
      </trkpt>
      <trkpt lat="63.25324" lon="8.32798">
        <ele>65.8655</ele>
        <time>2020-08-04T09:46:51.857Z</time>
      </trkpt>
      <trkpt lat="63.25321" lon="8.3284">
        <ele>64.85606</ele>
        <time>2020-08-04T09:46:53.841Z</time>
      </trkpt>
      <trkpt lat="63.2532" lon="8.32864">
        <ele>64.287046</ele>
        <time>2020-08-04T09:46:54.855Z</time>
      </trkpt>
      <trkpt lat="63.25319" lon="8.3289">
        <ele>63.673037</ele>
        <time>2020-08-04T09:46:55.848Z</time>
      </trkpt>
      <trkpt lat="63.2532" lon="8.32915">
        <ele>63.079897</ele>
        <time>2020-08-04T09:46:56.849Z</time>
      </trkpt>
      <trkpt lat="63.25322" lon="8.32941">
        <ele>62.466653</ele>
        <time>2020-08-04T09:46:57.867Z</time>
      </trkpt>
      <trkpt lat="63.25324" lon="8.32967">
        <ele>61.840181</ele>
        <time>2020-08-04T09:46:58.844Z</time>
      </trkpt>
      <trkpt lat="63.25328" lon="8.32993">
        <ele>61.182901</ele>
        <time>2020-08-04T09:46:59.862Z</time>
      </trkpt>
      <trkpt lat="63.25333" lon="8.33019">
        <ele>60.521431</ele>
        <time>2020-08-04T09:47:00.893Z</time>
      </trkpt>
      <trkpt lat="63.25338" lon="8.33045">
        <ele>59.844808</ele>
        <time>2020-08-04T09:47:01.858Z</time>
      </trkpt>
      <trkpt lat="63.25345" lon="8.3307">
        <ele>59.157214</ele>
        <time>2020-08-04T09:47:02.901Z</time>
      </trkpt>
      <trkpt lat="63.25353" lon="8.33094">
        <ele>58.454738</ele>
        <time>2020-08-04T09:47:03.859Z</time>
      </trkpt>
      <trkpt lat="63.25361" lon="8.33117">
        <ele>57.902676</ele>
        <time>2020-08-04T09:47:04.864Z</time>
      </trkpt>
      <trkpt lat="63.2537" lon="8.33139">
        <ele>57.546159</ele>
        <time>2020-08-04T09:47:05.862Z</time>
      </trkpt>
      <trkpt lat="63.25378" lon="8.33161">
        <ele>57.183212</ele>
        <time>2020-08-04T09:47:06.852Z</time>
      </trkpt>
      <trkpt lat="63.25386" lon="8.33183">
        <ele>56.839748</ele>
        <time>2020-08-04T09:47:07.844Z</time>
      </trkpt>
      <trkpt lat="63.25394" lon="8.33207">
        <ele>56.471131</ele>
        <time>2020-08-04T09:47:08.894Z</time>
      </trkpt>
      <trkpt lat="63.25403" lon="8.3323">
        <ele>56.103987</ele>
        <time>2020-08-04T09:47:09.861Z</time>
      </trkpt>
      <trkpt lat="63.2541" lon="8.33251">
        <ele>55.767233</ele>
        <time>2020-08-04T09:47:10.849Z</time>
      </trkpt>
      <trkpt lat="63.25418" lon="8.33271">
        <ele>55.448822</ele>
        <time>2020-08-04T09:47:11.852Z</time>
      </trkpt>
      <trkpt lat="63.25425" lon="8.33289">
        <ele>55.159808</ele>
        <time>2020-08-04T09:47:12.867Z</time>
      </trkpt>
      <trkpt lat="63.25431" lon="8.33307">
        <ele>54.880583</ele>
        <time>2020-08-04T09:47:13.847Z</time>
      </trkpt>
      <trkpt lat="63.25437" lon="8.33324">
        <ele>54.614346</ele>
        <time>2020-08-04T09:47:14.884Z</time>
      </trkpt>
      <trkpt lat="63.25448" lon="8.33352">
        <ele>54.157095</ele>
        <time>2020-08-04T09:47:16.840Z</time>
      </trkpt>
      <trkpt lat="63.25457" lon="8.33377">
        <ele>53.767747</ele>
        <time>2020-08-04T09:47:18.856Z</time>
      </trkpt>
      <trkpt lat="63.25464" lon="8.33398">
        <ele>53.43709</ele>
        <time>2020-08-04T09:47:20.855Z</time>
      </trkpt>
      <trkpt lat="63.25471" lon="8.33418">
        <ele>53.150504</ele>
        <time>2020-08-04T09:47:22.864Z</time>
      </trkpt>
      <trkpt lat="63.25478" lon="8.33438">
        <ele>53.580256</ele>
        <time>2020-08-04T09:47:24.868Z</time>
      </trkpt>
      <trkpt lat="63.25483" lon="8.33455">
        <ele>53.953116</ele>
        <time>2020-08-04T09:47:26.840Z</time>
      </trkpt>
      <trkpt lat="63.25489" lon="8.33476">
        <ele>54.39179</ele>
        <time>2020-08-04T09:47:29.862Z</time>
      </trkpt>
      <trkpt lat="63.25495" lon="8.33495">
        <ele>54.795167</ele>
        <time>2020-08-04T09:47:32.905Z</time>
      </trkpt>
      <trkpt lat="63.255" lon="8.33511">
        <ele>55.150348</ele>
        <time>2020-08-04T09:47:35.851Z</time>
      </trkpt>
      <trkpt lat="63.25505" lon="8.3353">
        <ele>55.541711</ele>
        <time>2020-08-04T09:47:39.864Z</time>
      </trkpt>
      <trkpt lat="63.25511" lon="8.33552">
        <ele>55.98697</ele>
        <time>2020-08-04T09:47:43.857Z</time>
      </trkpt>
      <trkpt lat="63.25516" lon="8.33574">
        <ele>56.432625</ele>
        <time>2020-08-04T09:47:48.846Z</time>
      </trkpt>
      <trkpt lat="63.2552" lon="8.33593">
        <ele>56.81136</ele>
        <time>2020-08-04T09:47:51.851Z</time>
      </trkpt>
      <trkpt lat="63.25524" lon="8.33614">
        <ele>57.217607</ele>
        <time>2020-08-04T09:47:55.847Z</time>
      </trkpt>
      <trkpt lat="63.25528" lon="8.33633">
        <ele>57.586405</ele>
        <time>2020-08-04T09:47:59.890Z</time>
      </trkpt>
      <trkpt lat="63.25532" lon="8.33652">
        <ele>57.96015</ele>
        <time>2020-08-04T09:48:03.849Z</time>
      </trkpt>
      <trkpt lat="63.25535" lon="8.33673">
        <ele>58.367833</ele>
        <time>2020-08-04T09:48:07.862Z</time>
      </trkpt>
      <trkpt lat="63.25538" lon="8.33693">
        <ele>58.737592</ele>
        <time>2020-08-04T09:48:11.856Z</time>
      </trkpt>
      <trkpt lat="63.25541" lon="8.33714">
        <ele>59.125624</ele>
        <time>2020-08-04T09:48:15.859Z</time>
      </trkpt>
      <trkpt lat="63.25543" lon="8.33736">
        <ele>59.522805</ele>
        <time>2020-08-04T09:48:19.847Z</time>
      </trkpt>
      <trkpt lat="63.25545" lon="8.33759">
        <ele>59.945297</ele>
        <time>2020-08-04T09:48:23.849Z</time>
      </trkpt>
      <trkpt lat="63.25547" lon="8.33782">
        <ele>60.294727</ele>
        <time>2020-08-04T09:48:27.874Z</time>
      </trkpt>
      <trkpt lat="63.25549" lon="8.33802">
        <ele>60.420858</ele>
        <time>2020-08-04T09:48:30.862Z</time>
      </trkpt>
      <trkpt lat="63.25551" lon="8.33827">
        <ele>60.583199</ele>
        <time>2020-08-04T09:48:34.862Z</time>
      </trkpt>
      <trkpt lat="63.25553" lon="8.33852">
        <ele>60.74579</ele>
        <time>2020-08-04T09:48:38.853Z</time>
      </trkpt>
      <trkpt lat="63.25554" lon="8.33874">
        <ele>60.885302</ele>
        <time>2020-08-04T09:48:41.874Z</time>
      </trkpt>
      <trkpt lat="63.25555" lon="8.33895">
        <ele>61.017271</ele>
        <time>2020-08-04T09:48:44.882Z</time>
      </trkpt>
      <trkpt lat="63.25557" lon="8.33922">
        <ele>61.191488</ele>
        <time>2020-08-04T09:48:48.898Z</time>
      </trkpt>
      <trkpt lat="63.25558" lon="8.33945">
        <ele>61.339978</ele>
        <time>2020-08-04T09:48:51.876Z</time>
      </trkpt>
      <trkpt lat="63.2556" lon="8.33968">
        <ele>61.486163</ele>
        <time>2020-08-04T09:48:54.888Z</time>
      </trkpt>
      <trkpt lat="63.25561" lon="8.33991">
        <ele>61.631521</ele>
        <time>2020-08-04T09:48:57.896Z</time>
      </trkpt>
      <trkpt lat="63.25563" lon="8.34012">
        <ele>61.770635</ele>
        <time>2020-08-04T09:49:00.894Z</time>
      </trkpt>
      <trkpt lat="63.25565" lon="8.34034">
        <ele>61.91213</ele>
        <time>2020-08-04T09:49:03.854Z</time>
      </trkpt>
      <trkpt lat="63.25567" lon="8.34055">
        <ele>62.047368</ele>
        <time>2020-08-04T09:49:06.866Z</time>
      </trkpt>
      <trkpt lat="63.25569" lon="8.34076">
        <ele>62.185712</ele>
        <time>2020-08-04T09:49:09.885Z</time>
      </trkpt>
      <trkpt lat="63.25572" lon="8.34095">
        <ele>62.314963</ele>
        <time>2020-08-04T09:49:12.855Z</time>
      </trkpt>
      <trkpt lat="63.25576" lon="8.34115">
        <ele>62.446539</ele>
        <time>2020-08-04T09:49:15.864Z</time>
      </trkpt>
      <trkpt lat="63.25579" lon="8.34136">
        <ele>62.590133</ele>
        <time>2020-08-04T09:49:18.863Z</time>
      </trkpt>
      <trkpt lat="63.25583" lon="8.34155">
        <ele>62.724936</ele>
        <time>2020-08-04T09:49:21.908Z</time>
      </trkpt>
      <trkpt lat="63.25588" lon="8.34176">
        <ele>63.032159</ele>
        <time>2020-08-04T09:49:24.856Z</time>
      </trkpt>
      <trkpt lat="63.25592" lon="8.34193">
        <ele>63.411541</ele>
        <time>2020-08-04T09:49:27.844Z</time>
      </trkpt>
      <trkpt lat="63.25598" lon="8.34216">
        <ele>63.899364</ele>
        <time>2020-08-04T09:49:31.855Z</time>
      </trkpt>
      <trkpt lat="63.25603" lon="8.34233">
        <ele>64.278185</ele>
        <time>2020-08-04T09:49:34.872Z</time>
      </trkpt>
      <trkpt lat="63.25609" lon="8.34255">
        <ele>64.76882</ele>
        <time>2020-08-04T09:49:38.852Z</time>
      </trkpt>
      <trkpt lat="63.25615" lon="8.34277">
        <ele>65.256986</ele>
        <time>2020-08-04T09:49:42.871Z</time>
      </trkpt>
      <trkpt lat="63.25621" lon="8.34294">
        <ele>65.643432</ele>
        <time>2020-08-04T09:49:46.883Z</time>
      </trkpt>
      <trkpt lat="63.25626" lon="8.34312">
        <ele>66.065305</ele>
        <time>2020-08-04T09:49:50.860Z</time>
      </trkpt>
      <trkpt lat="63.25633" lon="8.34333">
        <ele>66.545614</ele>
        <time>2020-08-04T09:49:54.872Z</time>
      </trkpt>
      <trkpt lat="63.25638" lon="8.34355">
        <ele>67.019434</ele>
        <time>2020-08-04T09:49:58.842Z</time>
      </trkpt>
      <trkpt lat="63.25643" lon="8.34372">
        <ele>67.405252</ele>
        <time>2020-08-04T09:50:02.879Z</time>
      </trkpt>
      <trkpt lat="63.25647" lon="8.34392">
        <ele>67.81364</ele>
        <time>2020-08-04T09:50:05.839Z</time>
      </trkpt>
      <trkpt lat="63.25653" lon="8.34414">
        <ele>68.294686</ele>
        <time>2020-08-04T09:50:09.869Z</time>
      </trkpt>
      <trkpt lat="63.25657" lon="8.34436">
        <ele>68.756001</ele>
        <time>2020-08-04T09:50:13.837Z</time>
      </trkpt>
      <trkpt lat="63.25661" lon="8.34459">
        <ele>69.211399</ele>
        <time>2020-08-04T09:50:17.879Z</time>
      </trkpt>
      <trkpt lat="63.25665" lon="8.34483">
        <ele>69.685816</ele>
        <time>2020-08-04T09:50:21.858Z</time>
      </trkpt>
      <trkpt lat="63.25667" lon="8.34505">
        <ele>70.127596</ele>
        <time>2020-08-04T09:50:25.875Z</time>
      </trkpt>
      <trkpt lat="63.2567" lon="8.34529">
        <ele>70.568642</ele>
        <time>2020-08-04T09:50:29.858Z</time>
      </trkpt>
      <trkpt lat="63.25671" lon="8.34551">
        <ele>70.964493</ele>
        <time>2020-08-04T09:50:33.856Z</time>
      </trkpt>
      <trkpt lat="63.25673" lon="8.34573">
        <ele>71.359714</ele>
        <time>2020-08-04T09:50:37.855Z</time>
      </trkpt>
      <trkpt lat="63.25674" lon="8.34594">
        <ele>71.737975</ele>
        <time>2020-08-04T09:50:41.871Z</time>
      </trkpt>
      <trkpt lat="63.25675" lon="8.34617">
        <ele>72.162097</ele>
        <time>2020-08-04T09:50:46.843Z</time>
      </trkpt>
      <trkpt lat="63.25676" lon="8.34638">
        <ele>72.534773</ele>
        <time>2020-08-04T09:50:50.851Z</time>
      </trkpt>
      <trkpt lat="63.25676" lon="8.34658">
        <ele>72.899848</ele>
        <time>2020-08-04T09:50:54.860Z</time>
      </trkpt>
      <trkpt lat="63.25676" lon="8.34679">
        <ele>73.265031</ele>
        <time>2020-08-04T09:50:58.856Z</time>
      </trkpt>
      <trkpt lat="63.25676" lon="8.34699">
        <ele>73.623062</ele>
        <time>2020-08-04T09:51:03.862Z</time>
      </trkpt>
      <trkpt lat="63.25676" lon="8.34723">
        <ele>74.063214</ele>
        <time>2020-08-04T09:51:08.859Z</time>
      </trkpt>
      <trkpt lat="63.25676" lon="8.34747">
        <ele>74.48553</ele>
        <time>2020-08-04T09:51:14.835Z</time>
      </trkpt>
      <trkpt lat="63.25676" lon="8.34769">
        <ele>74.884533</ele>
        <time>2020-08-04T09:51:19.875Z</time>
      </trkpt>
      <trkpt lat="63.25676" lon="8.34789">
        <ele>75.244242</ele>
        <time>2020-08-04T09:51:24.858Z</time>
      </trkpt>
      <trkpt lat="63.25676" lon="8.34812">
        <ele>75.65219</ele>
        <time>2020-08-04T09:51:30.861Z</time>
      </trkpt>
      <trkpt lat="63.25677" lon="8.34833">
        <ele>76.033467</ele>
        <time>2020-08-04T09:51:35.851Z</time>
      </trkpt>
      <trkpt lat="63.25677" lon="8.34856">
        <ele>76.432767</ele>
        <time>2020-08-04T09:51:40.846Z</time>
      </trkpt>
      <trkpt lat="63.25677" lon="8.34876">
        <ele>76.798296</ele>
        <time>2020-08-04T09:51:45.861Z</time>
      </trkpt>
      <trkpt lat="63.25678" lon="8.34896">
        <ele>77.162039</ele>
        <time>2020-08-04T09:51:50.880Z</time>
      </trkpt>
      <trkpt lat="63.25678" lon="8.34919">
        <ele>77.557064</ele>
        <time>2020-08-04T09:51:56.842Z</time>
      </trkpt>
      <trkpt lat="63.25679" lon="8.34939">
        <ele>77.858622</ele>
        <time>2020-08-04T09:52:01.834Z</time>
      </trkpt>
      <trkpt lat="63.25679" lon="8.34962">
        <ele>78.198137</ele>
        <time>2020-08-04T09:52:07.855Z</time>
      </trkpt>
      <trkpt lat="63.2568" lon="8.34985">
        <ele>78.549413</ele>
        <time>2020-08-04T09:52:13.864Z</time>
      </trkpt>
      <trkpt lat="63.2568" lon="8.35008">
        <ele>78.90273</ele>
        <time>2020-08-04T09:52:19.876Z</time>
      </trkpt>
      <trkpt lat="63.25681" lon="8.35031">
        <ele>79.246595</ele>
        <time>2020-08-04T09:52:25.868Z</time>
      </trkpt>
      <trkpt lat="63.25681" lon="8.35055">
        <ele>79.611246</ele>
        <time>2020-08-04T09:52:31.867Z</time>
      </trkpt>
      <trkpt lat="63.25682" lon="8.35076">
        <ele>79.92489</ele>
        <time>2020-08-04T09:52:36.849Z</time>
      </trkpt>
      <trkpt lat="63.25682" lon="8.35099">
        <ele>80.283474</ele>
        <time>2020-08-04T09:52:41.864Z</time>
      </trkpt>
      <trkpt lat="63.25681" lon="8.3512">
        <ele>80.593933</ele>
        <time>2020-08-04T09:52:46.858Z</time>
      </trkpt>
      <trkpt lat="63.25681" lon="8.3514">
        <ele>80.899727</ele>
        <time>2020-08-04T09:52:51.881Z</time>
      </trkpt>
      <trkpt lat="63.25682" lon="8.35162">
        <ele>81.226693</ele>
        <time>2020-08-04T09:52:56.870Z</time>
      </trkpt>
      <trkpt lat="63.25682" lon="8.35183">
        <ele>81.546222</ele>
        <time>2020-08-04T09:53:01.845Z</time>
      </trkpt>
      <trkpt lat="63.25683" lon="8.35203">
        <ele>81.860298</ele>
        <time>2020-08-04T09:53:06.856Z</time>
      </trkpt>
      <trkpt lat="63.25683" lon="8.35224">
        <ele>82.175292</ele>
        <time>2020-08-04T09:53:11.852Z</time>
      </trkpt>
      <trkpt lat="63.25684" lon="8.35246">
        <ele>82.50802</ele>
        <time>2020-08-04T09:53:16.847Z</time>
      </trkpt>
      <trkpt lat="63.25684" lon="8.35269">
        <ele>82.850109</ele>
        <time>2020-08-04T09:53:21.871Z</time>
      </trkpt>
      <trkpt lat="63.25685" lon="8.3529">
        <ele>83.175475</ele>
        <time>2020-08-04T09:53:26.869Z</time>
      </trkpt>
      <trkpt lat="63.25685" lon="8.35312">
        <ele>83.502303</ele>
        <time>2020-08-04T09:53:31.860Z</time>
      </trkpt>
      <trkpt lat="63.25685" lon="8.35333">
        <ele>83.957989</ele>
        <time>2020-08-04T09:53:36.834Z</time>
      </trkpt>
      <trkpt lat="63.25686" lon="8.35356">
        <ele>84.456391</ele>
        <time>2020-08-04T09:53:41.873Z</time>
      </trkpt>
      <trkpt lat="63.25686" lon="8.35378">
        <ele>84.938618</ele>
        <time>2020-08-04T09:53:46.880Z</time>
      </trkpt>
      <trkpt lat="63.25686" lon="8.354">
        <ele>85.416834</ele>
        <time>2020-08-04T09:53:51.874Z</time>
      </trkpt>
      <trkpt lat="63.25687" lon="8.35422">
        <ele>85.907163</ele>
        <time>2020-08-04T09:53:56.870Z</time>
      </trkpt>
      <trkpt lat="63.25688" lon="8.35445">
        <ele>86.404905</ele>
        <time>2020-08-04T09:54:01.843Z</time>
      </trkpt>
      <trkpt lat="63.25689" lon="8.35467">
        <ele>86.903694</ele>
        <time>2020-08-04T09:54:06.858Z</time>
      </trkpt>
      <trkpt lat="63.25691" lon="8.3549">
        <ele>87.413695</ele>
        <time>2020-08-04T09:54:12.833Z</time>
      </trkpt>
      <trkpt lat="63.25693" lon="8.35511">
        <ele>87.874666</ele>
        <time>2020-08-04T09:54:17.911Z</time>
      </trkpt>
      <trkpt lat="63.25695" lon="8.35534">
        <ele>88.396575</ele>
        <time>2020-08-04T09:54:23.847Z</time>
      </trkpt>
      <trkpt lat="63.25698" lon="8.35555">
        <ele>88.873437</ele>
        <time>2020-08-04T09:54:28.863Z</time>
      </trkpt>
      <trkpt lat="63.257" lon="8.35575">
        <ele>89.335361</ele>
        <time>2020-08-04T09:54:33.861Z</time>
      </trkpt>
      <trkpt lat="63.25703" lon="8.35594">
        <ele>89.78318</ele>
        <time>2020-08-04T09:54:38.863Z</time>
      </trkpt>
      <trkpt lat="63.25706" lon="8.35616">
        <ele>90.29056</ele>
        <time>2020-08-04T09:54:43.851Z</time>
      </trkpt>
      <trkpt lat="63.2571" lon="8.35638">
        <ele>90.795086</ele>
        <time>2020-08-04T09:54:48.851Z</time>
      </trkpt>
      <trkpt lat="63.25713" lon="8.35659">
        <ele>91.276422</ele>
        <time>2020-08-04T09:54:53.860Z</time>
      </trkpt>
      <trkpt lat="63.25717" lon="8.3568">
        <ele>91.781673</ele>
        <time>2020-08-04T09:54:58.859Z</time>
      </trkpt>
      <trkpt lat="63.25721" lon="8.35702">
        <ele>92.294419</ele>
        <time>2020-08-04T09:55:03.875Z</time>
      </trkpt>
      <trkpt lat="63.25727" lon="8.35724">
        <ele>92.49732</ele>
        <time>2020-08-04T09:55:08.854Z</time>
      </trkpt>
      <trkpt lat="63.25731" lon="8.35743">
        <ele>92.67303</ele>
        <time>2020-08-04T09:55:12.897Z</time>
      </trkpt>
      <trkpt lat="63.25736" lon="8.35762">
        <ele>92.850695</ele>
        <time>2020-08-04T09:55:17.858Z</time>
      </trkpt>
      <trkpt lat="63.25741" lon="8.35781">
        <ele>93.030428</ele>
        <time>2020-08-04T09:55:22.916Z</time>
      </trkpt>
      <trkpt lat="63.25745" lon="8.358">
        <ele>93.19646</ele>
        <time>2020-08-04T09:55:27.856Z</time>
      </trkpt>
      <trkpt lat="63.25748" lon="8.3582">
        <ele>93.374413</ele>
        <time>2020-08-04T09:55:32.845Z</time>
      </trkpt>
      <trkpt lat="63.25752" lon="8.35841">
        <ele>93.5605</ele>
        <time>2020-08-04T09:55:37.917Z</time>
      </trkpt>
      <trkpt lat="63.25756" lon="8.35862">
        <ele>93.747984</ele>
        <time>2020-08-04T09:55:42.849Z</time>
      </trkpt>
      <trkpt lat="63.2576" lon="8.35883">
        <ele>93.926023</ele>
        <time>2020-08-04T09:55:47.854Z</time>
      </trkpt>
      <trkpt lat="63.25764" lon="8.35901">
        <ele>94.091328</ele>
        <time>2020-08-04T09:55:51.883Z</time>
      </trkpt>
      <trkpt lat="63.25767" lon="8.35921">
        <ele>94.260734</ele>
        <time>2020-08-04T09:55:55.863Z</time>
      </trkpt>
      <trkpt lat="63.2577" lon="8.3594">
        <ele>94.426112</ele>
        <time>2020-08-04T09:55:59.848Z</time>
      </trkpt>
      <trkpt lat="63.25774" lon="8.35962">
        <ele>94.619984</ele>
        <time>2020-08-04T09:56:03.857Z</time>
      </trkpt>
      <trkpt lat="63.25777" lon="8.35988">
        <ele>94.834596</ele>
        <time>2020-08-04T09:56:07.887Z</time>
      </trkpt>
      <trkpt lat="63.25779" lon="8.36009">
        <ele>95.012555</ele>
        <time>2020-08-04T09:56:10.848Z</time>
      </trkpt>
      <trkpt lat="63.25781" lon="8.36033">
        <ele>95.209423</ele>
        <time>2020-08-04T09:56:13.866Z</time>
      </trkpt>
      <trkpt lat="63.25782" lon="8.36058">
        <ele>95.412282</ele>
        <time>2020-08-04T09:56:16.857Z</time>
      </trkpt>
      <trkpt lat="63.25783" lon="8.36084">
        <ele>95.304061</ele>
        <time>2020-08-04T09:56:19.857Z</time>
      </trkpt>
      <trkpt lat="63.25783" lon="8.36113">
        <ele>94.622747</ele>
        <time>2020-08-04T09:56:22.860Z</time>
      </trkpt>
      <trkpt lat="63.25782" lon="8.36143">
        <ele>93.910203</ele>
        <time>2020-08-04T09:56:25.886Z</time>
      </trkpt>
      <trkpt lat="63.25781" lon="8.36165">
        <ele>93.387445</ele>
        <time>2020-08-04T09:56:27.865Z</time>
      </trkpt>
      <trkpt lat="63.25779" lon="8.3619">
        <ele>92.792268</ele>
        <time>2020-08-04T09:56:29.864Z</time>
      </trkpt>
      <trkpt lat="63.25776" lon="8.36217">
        <ele>92.148008</ele>
        <time>2020-08-04T09:56:31.860Z</time>
      </trkpt>
      <trkpt lat="63.25772" lon="8.36249">
        <ele>91.355857</ele>
        <time>2020-08-04T09:56:33.885Z</time>
      </trkpt>
      <trkpt lat="63.25766" lon="8.36283">
        <ele>90.520543</ele>
        <time>2020-08-04T09:56:35.908Z</time>
      </trkpt>
      <trkpt lat="63.25761" lon="8.36319">
        <ele>89.636735</ele>
        <time>2020-08-04T09:56:37.855Z</time>
      </trkpt>
      <trkpt lat="63.25758" lon="8.36338">
        <ele>89.157496</ele>
        <time>2020-08-04T09:56:38.893Z</time>
      </trkpt>
      <trkpt lat="63.25755" lon="8.36357">
        <ele>88.676608</ele>
        <time>2020-08-04T09:56:39.880Z</time>
      </trkpt>
      <trkpt lat="63.25753" lon="8.36377">
        <ele>88.183791</ele>
        <time>2020-08-04T09:56:40.852Z</time>
      </trkpt>
      <trkpt lat="63.2575" lon="8.36399">
        <ele>87.671174</ele>
        <time>2020-08-04T09:56:41.851Z</time>
      </trkpt>
      <trkpt lat="63.25748" lon="8.3642">
        <ele>87.149701</ele>
        <time>2020-08-04T09:56:42.856Z</time>
      </trkpt>
      <trkpt lat="63.25746" lon="8.36443">
        <ele>86.60857</ele>
        <time>2020-08-04T09:56:43.856Z</time>
      </trkpt>
      <trkpt lat="63.25744" lon="8.36466">
        <ele>86.052893</ele>
        <time>2020-08-04T09:56:44.857Z</time>
      </trkpt>
      <trkpt lat="63.25743" lon="8.3649">
        <ele>85.465234</ele>
        <time>2020-08-04T09:56:45.856Z</time>
      </trkpt>
      <trkpt lat="63.25743" lon="8.36514">
        <ele>84.866774</ele>
        <time>2020-08-04T09:56:46.877Z</time>
      </trkpt>
      <trkpt lat="63.25743" lon="8.36538">
        <ele>84.289534</ele>
        <time>2020-08-04T09:56:47.836Z</time>
      </trkpt>
      <trkpt lat="63.25743" lon="8.36564">
        <ele>83.650703</ele>
        <time>2020-08-04T09:56:48.859Z</time>
      </trkpt>
      <trkpt lat="63.25743" lon="8.36591">
        <ele>82.989774</ele>
        <time>2020-08-04T09:56:49.851Z</time>
      </trkpt>
      <trkpt lat="63.25743" lon="8.36617">
        <ele>82.33878</ele>
        <time>2020-08-04T09:56:50.850Z</time>
      </trkpt>
      <trkpt lat="63.25744" lon="8.36644">
        <ele>81.665418</ele>
        <time>2020-08-04T09:56:51.858Z</time>
      </trkpt>
      <trkpt lat="63.25744" lon="8.36672">
        <ele>80.984692</ele>
        <time>2020-08-04T09:56:52.870Z</time>
      </trkpt>
      <trkpt lat="63.25745" lon="8.367">
        <ele>80.289235</ele>
        <time>2020-08-04T09:56:53.890Z</time>
      </trkpt>
      <trkpt lat="63.25745" lon="8.36729">
        <ele>79.591132</ele>
        <time>2020-08-04T09:56:54.894Z</time>
      </trkpt>
      <trkpt lat="63.25746" lon="8.36758">
        <ele>78.87849</ele>
        <time>2020-08-04T09:56:55.894Z</time>
      </trkpt>
      <trkpt lat="63.25746" lon="8.36786">
        <ele>78.189685</ele>
        <time>2020-08-04T09:56:56.880Z</time>
      </trkpt>
      <trkpt lat="63.25747" lon="8.36814">
        <ele>77.485488</ele>
        <time>2020-08-04T09:56:57.886Z</time>
      </trkpt>
      <trkpt lat="63.25749" lon="8.36842">
        <ele>76.797765</ele>
        <time>2020-08-04T09:56:58.878Z</time>
      </trkpt>
      <trkpt lat="63.25751" lon="8.3687">
        <ele>76.218258</ele>
        <time>2020-08-04T09:56:59.850Z</time>
      </trkpt>
      <trkpt lat="63.25754" lon="8.36897">
        <ele>75.867518</ele>
        <time>2020-08-04T09:57:00.899Z</time>
      </trkpt>
      <trkpt lat="63.25757" lon="8.36924">
        <ele>75.507971</ele>
        <time>2020-08-04T09:57:01.871Z</time>
      </trkpt>
      <trkpt lat="63.25762" lon="8.36947">
        <ele>75.180564</ele>
        <time>2020-08-04T09:57:02.891Z</time>
      </trkpt>
      <trkpt lat="63.25767" lon="8.36972">
        <ele>74.83924</ele>
        <time>2020-08-04T09:57:03.856Z</time>
      </trkpt>
      <trkpt lat="63.25773" lon="8.36995">
        <ele>74.48898</ele>
        <time>2020-08-04T09:57:04.856Z</time>
      </trkpt>
      <trkpt lat="63.2578" lon="8.37017">
        <ele>74.151962</ele>
        <time>2020-08-04T09:57:05.862Z</time>
      </trkpt>
      <trkpt lat="63.25786" lon="8.37037">
        <ele>73.838037</ele>
        <time>2020-08-04T09:57:06.851Z</time>
      </trkpt>
      <trkpt lat="63.25793" lon="8.37056">
        <ele>73.541108</ele>
        <time>2020-08-04T09:57:07.876Z</time>
      </trkpt>
      <trkpt lat="63.25799" lon="8.37072">
        <ele>73.276904</ele>
        <time>2020-08-04T09:57:08.899Z</time>
      </trkpt>
      <trkpt lat="63.25804" lon="8.37088">
        <ele>73.020983</ele>
        <time>2020-08-04T09:57:09.888Z</time>
      </trkpt>
      <trkpt lat="63.25814" lon="8.37116">
        <ele>72.562369</ele>
        <time>2020-08-04T09:57:11.870Z</time>
      </trkpt>
      <trkpt lat="63.25822" lon="8.37143">
        <ele>72.154204</ele>
        <time>2020-08-04T09:57:13.851Z</time>
      </trkpt>
      <trkpt lat="63.25829" lon="8.37165">
        <ele>71.803484</ele>
        <time>2020-08-04T09:57:15.858Z</time>
      </trkpt>
      <trkpt lat="63.25835" lon="8.37185">
        <ele>71.509242</ele>
        <time>2020-08-04T09:57:17.856Z</time>
      </trkpt>
      <trkpt lat="63.25839" lon="8.37204">
        <ele>71.251636</ele>
        <time>2020-08-04T09:57:19.882Z</time>
      </trkpt>
      <trkpt lat="63.25843" lon="8.37226">
        <ele>71.753559</ele>
        <time>2020-08-04T09:57:22.871Z</time>
      </trkpt>
      <trkpt lat="63.25846" lon="8.37246">
        <ele>72.185718</ele>
        <time>2020-08-04T09:57:25.872Z</time>
      </trkpt>
      <trkpt lat="63.25849" lon="8.37267">
        <ele>72.672951</ele>
        <time>2020-08-04T09:57:29.856Z</time>
      </trkpt>
      <trkpt lat="63.25853" lon="8.37292">
        <ele>73.21391</ele>
        <time>2020-08-04T09:57:33.863Z</time>
      </trkpt>
      <trkpt lat="63.25856" lon="8.37317">
        <ele>73.770164</ele>
        <time>2020-08-04T09:57:37.850Z</time>
      </trkpt>
      <trkpt lat="63.2586" lon="8.37342">
        <ele>74.317131</ele>
        <time>2020-08-04T09:57:41.875Z</time>
      </trkpt>
      <trkpt lat="63.25863" lon="8.37366">
        <ele>74.853878</ele>
        <time>2020-08-04T09:57:45.874Z</time>
      </trkpt>
      <trkpt lat="63.25867" lon="8.37386">
        <ele>75.2942</ele>
        <time>2020-08-04T09:57:49.860Z</time>
      </trkpt>
      <trkpt lat="63.2587" lon="8.37406">
        <ele>75.755831</ele>
        <time>2020-08-04T09:57:52.888Z</time>
      </trkpt>
      <trkpt lat="63.25875" lon="8.37429">
        <ele>76.284188</ele>
        <time>2020-08-04T09:57:56.852Z</time>
      </trkpt>
      <trkpt lat="63.2588" lon="8.3745">
        <ele>76.797396</ele>
        <time>2020-08-04T09:58:00.856Z</time>
      </trkpt>
      <trkpt lat="63.25886" lon="8.37472">
        <ele>77.331518</ele>
        <time>2020-08-04T09:58:04.852Z</time>
      </trkpt>
      <trkpt lat="63.25892" lon="8.37489">
        <ele>77.773666</ele>
        <time>2020-08-04T09:58:08.880Z</time>
      </trkpt>
      <trkpt lat="63.25899" lon="8.3751">
        <ele>78.330406</ele>
        <time>2020-08-04T09:58:12.851Z</time>
      </trkpt>
      <trkpt lat="63.25905" lon="8.37527">
        <ele>78.797979</ele>
        <time>2020-08-04T09:58:16.879Z</time>
      </trkpt>
      <trkpt lat="63.25913" lon="8.37545">
        <ele>79.314286</ele>
        <time>2020-08-04T09:58:20.858Z</time>
      </trkpt>
      <trkpt lat="63.25921" lon="8.37561">
        <ele>79.621682</ele>
        <time>2020-08-04T09:58:24.900Z</time>
      </trkpt>
      <trkpt lat="63.2593" lon="8.37579">
        <ele>79.472281</ele>
        <time>2020-08-04T09:58:28.860Z</time>
      </trkpt>
      <trkpt lat="63.25938" lon="8.37592">
        <ele>79.352309</ele>
        <time>2020-08-04T09:58:31.887Z</time>
      </trkpt>
      <trkpt lat="63.25946" lon="8.37607">
        <ele>79.219601</ele>
        <time>2020-08-04T09:58:34.854Z</time>
      </trkpt>
      <trkpt lat="63.25954" lon="8.37622">
        <ele>79.091389</ele>
        <time>2020-08-04T09:58:37.862Z</time>
      </trkpt>
      <trkpt lat="63.25962" lon="8.37637">
        <ele>78.960935</ele>
        <time>2020-08-04T09:58:40.846Z</time>
      </trkpt>
      <trkpt lat="63.25971" lon="8.37654">
        <ele>78.8237</ele>
        <time>2020-08-04T09:58:43.872Z</time>
      </trkpt>
      <trkpt lat="63.2598" lon="8.37672">
        <ele>78.672051</ele>
        <time>2020-08-04T09:58:46.880Z</time>
      </trkpt>
      <trkpt lat="63.25989" lon="8.37692">
        <ele>78.517138</ele>
        <time>2020-08-04T09:58:49.897Z</time>
      </trkpt>
      <trkpt lat="63.25997" lon="8.37715">
        <ele>78.351103</ele>
        <time>2020-08-04T09:58:52.890Z</time>
      </trkpt>
      <trkpt lat="63.26003" lon="8.37732">
        <ele>78.233679</ele>
        <time>2020-08-04T09:58:54.875Z</time>
      </trkpt>
      <trkpt lat="63.26008" lon="8.37751">
        <ele>78.112572</ele>
        <time>2020-08-04T09:58:56.885Z</time>
      </trkpt>
      <trkpt lat="63.26014" lon="8.37771">
        <ele>77.980662</ele>
        <time>2020-08-04T09:58:58.863Z</time>
      </trkpt>
      <trkpt lat="63.26019" lon="8.37792">
        <ele>77.842867</ele>
        <time>2020-08-04T09:59:00.859Z</time>
      </trkpt>
      <trkpt lat="63.26024" lon="8.37816">
        <ele>77.694934</ele>
        <time>2020-08-04T09:59:02.917Z</time>
      </trkpt>
      <trkpt lat="63.2603" lon="8.37841">
        <ele>77.539756</ele>
        <time>2020-08-04T09:59:04.880Z</time>
      </trkpt>
      <trkpt lat="63.26036" lon="8.37866">
        <ele>77.276805</ele>
        <time>2020-08-04T09:59:06.852Z</time>
      </trkpt>
      <trkpt lat="63.26043" lon="8.37893">
        <ele>76.816392</ele>
        <time>2020-08-04T09:59:08.881Z</time>
      </trkpt>
      <trkpt lat="63.2605" lon="8.37924">
        <ele>76.317324</ele>
        <time>2020-08-04T09:59:10.879Z</time>
      </trkpt>
      <trkpt lat="63.26057" lon="8.37956">
        <ele>75.785769</ele>
        <time>2020-08-04T09:59:12.904Z</time>
      </trkpt>
      <trkpt lat="63.26063" lon="8.37991">
        <ele>75.237439</ele>
        <time>2020-08-04T09:59:14.895Z</time>
      </trkpt>
      <trkpt lat="63.26068" lon="8.38028">
        <ele>74.678401</ele>
        <time>2020-08-04T09:59:16.879Z</time>
      </trkpt>
      <trkpt lat="63.26071" lon="8.38063">
        <ele>74.158527</ele>
        <time>2020-08-04T09:59:18.849Z</time>
      </trkpt>
      <trkpt lat="63.26071" lon="8.38098">
        <ele>73.645966</ele>
        <time>2020-08-04T09:59:20.918Z</time>
      </trkpt>
      <trkpt lat="63.26068" lon="8.38134">
        <ele>73.109292</ele>
        <time>2020-08-04T09:59:22.850Z</time>
      </trkpt>
      <trkpt lat="63.26064" lon="8.38166">
        <ele>72.620826</ele>
        <time>2020-08-04T09:59:24.874Z</time>
      </trkpt>
      <trkpt lat="63.2606" lon="8.38187">
        <ele>72.28909</ele>
        <time>2020-08-04T09:59:26.863Z</time>
      </trkpt>
      <trkpt lat="63.26063" lon="8.38208">
        <ele>71.960675</ele>
        <time>2020-08-04T09:59:29.856Z</time>
      </trkpt>
      <trkpt lat="63.26064" lon="8.38228">
        <ele>71.668886</ele>
        <time>2020-08-04T09:59:31.874Z</time>
      </trkpt>
      <trkpt lat="63.26056" lon="8.38239">
        <ele>71.310994</ele>
        <time>2020-08-04T09:59:33.871Z</time>
      </trkpt>
      <trkpt lat="63.26051" lon="8.38261">
        <ele>70.848629</ele>
        <time>2020-08-04T09:59:35.875Z</time>
      </trkpt>
      <trkpt lat="63.26053" lon="8.3824">
        <ele>70.457283</ele>
        <time>2020-08-04T10:32:05.886Z</time>
      </trkpt>
      <trkpt lat="63.26057" lon="8.38222">
        <ele>70.070965</ele>
        <time>2020-08-04T10:32:09.877Z</time>
      </trkpt>
      <trkpt lat="63.26048" lon="8.38243">
        <ele>69.539085</ele>
        <time>2020-08-04T10:32:18.855Z</time>
      </trkpt>
      <trkpt lat="63.26044" lon="8.3826">
        <ele>69.155762</ele>
        <time>2020-08-04T10:32:20.861Z</time>
      </trkpt>
      <trkpt lat="63.26039" lon="8.38281">
        <ele>68.718964</ele>
        <time>2020-08-04T10:32:22.882Z</time>
      </trkpt>
      <trkpt lat="63.26033" lon="8.38303">
        <ele>68.233252</ele>
        <time>2020-08-04T10:32:24.860Z</time>
      </trkpt>
      <trkpt lat="63.26028" lon="8.38329">
        <ele>67.701218</ele>
        <time>2020-08-04T10:32:26.903Z</time>
      </trkpt>
      <trkpt lat="63.26023" lon="8.38356">
        <ele>67.15529</ele>
        <time>2020-08-04T10:32:28.855Z</time>
      </trkpt>
      <trkpt lat="63.26021" lon="8.38383">
        <ele>66.635092</ele>
        <time>2020-08-04T10:32:30.893Z</time>
      </trkpt>
      <trkpt lat="63.26019" lon="8.38409">
        <ele>66.133835</ele>
        <time>2020-08-04T10:32:32.855Z</time>
      </trkpt>
      <trkpt lat="63.2602" lon="8.38436">
        <ele>65.625903</ele>
        <time>2020-08-04T10:32:34.864Z</time>
      </trkpt>
      <trkpt lat="63.26022" lon="8.38462">
        <ele>65.125537</ele>
        <time>2020-08-04T10:32:36.883Z</time>
      </trkpt>
      <trkpt lat="63.26024" lon="8.38489">
        <ele>64.618001</ele>
        <time>2020-08-04T10:32:38.854Z</time>
      </trkpt>
      <trkpt lat="63.26028" lon="8.38514">
        <ele>64.114209</ele>
        <time>2020-08-04T10:32:40.862Z</time>
      </trkpt>
      <trkpt lat="63.26033" lon="8.38538">
        <ele>63.381404</ele>
        <time>2020-08-04T10:32:42.873Z</time>
      </trkpt>
      <trkpt lat="63.26039" lon="8.38562">
        <ele>62.580666</ele>
        <time>2020-08-04T10:32:44.879Z</time>
      </trkpt>
      <trkpt lat="63.26044" lon="8.38588">
        <ele>61.765342</ele>
        <time>2020-08-04T10:32:46.871Z</time>
      </trkpt>
      <trkpt lat="63.26049" lon="8.38613">
        <ele>60.984331</ele>
        <time>2020-08-04T10:32:48.895Z</time>
      </trkpt>
      <trkpt lat="63.26053" lon="8.38638">
        <ele>60.195492</ele>
        <time>2020-08-04T10:32:50.876Z</time>
      </trkpt>
      <trkpt lat="63.26057" lon="8.38664">
        <ele>59.404022</ele>
        <time>2020-08-04T10:32:52.886Z</time>
      </trkpt>
      <trkpt lat="63.26059" lon="8.38691">
        <ele>58.628595</ele>
        <time>2020-08-04T10:32:54.913Z</time>
      </trkpt>
      <trkpt lat="63.26058" lon="8.38718">
        <ele>57.826584</ele>
        <time>2020-08-04T10:32:56.852Z</time>
      </trkpt>
      <trkpt lat="63.26053" lon="8.38744">
        <ele>57.014178</ele>
        <time>2020-08-04T10:32:58.880Z</time>
      </trkpt>
      <trkpt lat="63.26046" lon="8.38772">
        <ele>56.098057</ele>
        <time>2020-08-04T10:33:00.895Z</time>
      </trkpt>
      <trkpt lat="63.2604" lon="8.38803">
        <ele>55.121979</ele>
        <time>2020-08-04T10:33:02.884Z</time>
      </trkpt>
      <trkpt lat="63.26034" lon="8.38836">
        <ele>54.09591</ele>
        <time>2020-08-04T10:33:04.859Z</time>
      </trkpt>
      <trkpt lat="63.26025" lon="8.3887">
        <ele>52.969613</ele>
        <time>2020-08-04T10:33:06.872Z</time>
      </trkpt>
      <trkpt lat="63.2602" lon="8.38887">
        <ele>52.468559</ele>
        <time>2020-08-04T10:33:07.859Z</time>
      </trkpt>
      <trkpt lat="63.26016" lon="8.38905">
        <ele>52.361492</ele>
        <time>2020-08-04T10:33:08.866Z</time>
      </trkpt>
      <trkpt lat="63.26011" lon="8.38923">
        <ele>52.256108</ele>
        <time>2020-08-04T10:33:09.853Z</time>
      </trkpt>
      <trkpt lat="63.26003" lon="8.38958">
        <ele>52.053043</ele>
        <time>2020-08-04T10:33:11.875Z</time>
      </trkpt>
      <trkpt lat="63.25997" lon="8.38992">
        <ele>51.864921</ele>
        <time>2020-08-04T10:33:13.904Z</time>
      </trkpt>
      <trkpt lat="63.25995" lon="8.39026">
        <ele>51.688949</ele>
        <time>2020-08-04T10:33:15.875Z</time>
      </trkpt>
      <trkpt lat="63.25994" lon="8.39058">
        <ele>51.52254</ele>
        <time>2020-08-04T10:33:17.862Z</time>
      </trkpt>
      <trkpt lat="63.25992" lon="8.39087">
        <ele>51.374337</ele>
        <time>2020-08-04T10:33:19.861Z</time>
      </trkpt>
      <trkpt lat="63.25991" lon="8.39112">
        <ele>51.239844</ele>
        <time>2020-08-04T10:33:21.877Z</time>
      </trkpt>
      <trkpt lat="63.2599" lon="8.39137">
        <ele>51.110606</ele>
        <time>2020-08-04T10:33:23.879Z</time>
      </trkpt>
      <trkpt lat="63.25988" lon="8.39163">
        <ele>50.975966</ele>
        <time>2020-08-04T10:33:25.877Z</time>
      </trkpt>
      <trkpt lat="63.25987" lon="8.39188">
        <ele>50.847308</ele>
        <time>2020-08-04T10:33:27.876Z</time>
      </trkpt>
      <trkpt lat="63.25985" lon="8.39212">
        <ele>50.724208</ele>
        <time>2020-08-04T10:33:29.882Z</time>
      </trkpt>
      <trkpt lat="63.25983" lon="8.39233">
        <ele>50.611282</ele>
        <time>2020-08-04T10:33:31.853Z</time>
      </trkpt>
      <trkpt lat="63.25979" lon="8.3926">
        <ele>50.464742</ele>
        <time>2020-08-04T10:33:34.868Z</time>
      </trkpt>
      <trkpt lat="63.25977" lon="8.39286">
        <ele>51.253441</ele>
        <time>2020-08-04T10:33:37.909Z</time>
      </trkpt>
      <trkpt lat="63.25975" lon="8.39307">
        <ele>52.190058</ele>
        <time>2020-08-04T10:33:40.884Z</time>
      </trkpt>
      <trkpt lat="63.25973" lon="8.39327">
        <ele>53.084642</ele>
        <time>2020-08-04T10:33:44.880Z</time>
      </trkpt>
      <trkpt lat="63.25969" lon="8.39359">
        <ele>54.557466</ele>
        <time>2020-08-04T10:34:07.897Z</time>
      </trkpt>
      <trkpt lat="63.25967" lon="8.39379">
        <ele>55.484712</ele>
        <time>2020-08-04T10:34:14.856Z</time>
      </trkpt>
      <trkpt lat="63.25965" lon="8.39401">
        <ele>56.445818</ele>
        <time>2020-08-04T10:34:21.874Z</time>
      </trkpt>
      <trkpt lat="63.25964" lon="8.39424">
        <ele>57.46294</ele>
        <time>2020-08-04T10:34:28.912Z</time>
      </trkpt>
      <trkpt lat="63.25965" lon="8.39445">
        <ele>58.387199</ele>
        <time>2020-08-04T10:34:34.880Z</time>
      </trkpt>
      <trkpt lat="63.25964" lon="8.39465">
        <ele>59.282509</ele>
        <time>2020-08-04T10:34:40.876Z</time>
      </trkpt>
      <trkpt lat="63.25962" lon="8.39486">
        <ele>60.254326</ele>
        <time>2020-08-04T10:34:47.864Z</time>
      </trkpt>
      <trkpt lat="63.25961" lon="8.39508">
        <ele>61.21462</ele>
        <time>2020-08-04T10:34:53.848Z</time>
      </trkpt>
      <trkpt lat="63.25962" lon="8.3953">
        <ele>62.20346</ele>
        <time>2020-08-04T10:35:00.894Z</time>
      </trkpt>
      <trkpt lat="63.25964" lon="8.39553">
        <ele>63.20675</ele>
        <time>2020-08-04T10:35:07.857Z</time>
      </trkpt>
      <trkpt lat="63.25965" lon="8.39575">
        <ele>64.19995</ele>
        <time>2020-08-04T10:35:14.874Z</time>
      </trkpt>
      <trkpt lat="63.25968" lon="8.39595">
        <ele>65.083136</ele>
        <time>2020-08-04T10:35:20.887Z</time>
      </trkpt>
      <trkpt lat="63.25972" lon="8.39614">
        <ele>66.021653</ele>
        <time>2020-08-04T10:35:27.880Z</time>
      </trkpt>
      <trkpt lat="63.25975" lon="8.39635">
        <ele>67.017497</ele>
        <time>2020-08-04T10:35:35.892Z</time>
      </trkpt>
      <trkpt lat="63.25978" lon="8.39654">
        <ele>67.895013</ele>
        <time>2020-08-04T10:35:42.877Z</time>
      </trkpt>
      <trkpt lat="63.25981" lon="8.39674">
        <ele>68.821798</ele>
        <time>2020-08-04T10:35:49.895Z</time>
      </trkpt>
      <trkpt lat="63.25987" lon="8.39689">
        <ele>69.764547</ele>
        <time>2020-08-04T10:35:55.882Z</time>
      </trkpt>
      <trkpt lat="63.25993" lon="8.39708">
        <ele>70.789189</ele>
        <time>2020-08-04T10:36:02.886Z</time>
      </trkpt>
      <trkpt lat="63.26" lon="8.39725">
        <ele>71.823442</ele>
        <time>2020-08-04T10:36:08.878Z</time>
      </trkpt>
      <trkpt lat="63.26005" lon="8.39743">
        <ele>72.799071</ele>
        <time>2020-08-04T10:36:14.877Z</time>
      </trkpt>
      <trkpt lat="63.26011" lon="8.39761">
        <ele>73.8333</ele>
        <time>2020-08-04T10:36:20.869Z</time>
      </trkpt>
      <trkpt lat="63.26018" lon="8.39779">
        <ele>74.883929</ele>
        <time>2020-08-04T10:36:26.874Z</time>
      </trkpt>
      <trkpt lat="63.26024" lon="8.39795">
        <ele>75.853456</ele>
        <time>2020-08-04T10:36:32.941Z</time>
      </trkpt>
      <trkpt lat="63.2603" lon="8.39813">
        <ele>76.878814</ele>
        <time>2020-08-04T10:36:38.854Z</time>
      </trkpt>
      <trkpt lat="63.26035" lon="8.39832">
        <ele>77.860184</ele>
        <time>2020-08-04T10:36:44.884Z</time>
      </trkpt>
      <trkpt lat="63.26039" lon="8.39852">
        <ele>78.871918</ele>
        <time>2020-08-04T10:36:51.851Z</time>
      </trkpt>
      <trkpt lat="63.26043" lon="8.3987">
        <ele>79.78395</ele>
        <time>2020-08-04T10:36:57.902Z</time>
      </trkpt>
      <trkpt lat="63.26046" lon="8.39891">
        <ele>80.770045</ele>
        <time>2020-08-04T10:37:04.858Z</time>
      </trkpt>
      <trkpt lat="63.26048" lon="8.39911">
        <ele>81.723316</ele>
        <time>2020-08-04T10:37:11.871Z</time>
      </trkpt>
      <trkpt lat="63.2605" lon="8.39933">
        <ele>82.718698</ele>
        <time>2020-08-04T10:37:18.858Z</time>
      </trkpt>
      <trkpt lat="63.26051" lon="8.39955">
        <ele>83.745096</ele>
        <time>2020-08-04T10:37:25.861Z</time>
      </trkpt>
      <trkpt lat="63.26052" lon="8.39976">
        <ele>84.703757</ele>
        <time>2020-08-04T10:37:33.879Z</time>
      </trkpt>
      <trkpt lat="63.26054" lon="8.39998">
        <ele>85.708994</ele>
        <time>2020-08-04T10:37:41.870Z</time>
      </trkpt>
      <trkpt lat="63.26056" lon="8.40019">
        <ele>86.448376</ele>
        <time>2020-08-04T10:37:48.862Z</time>
      </trkpt>
      <trkpt lat="63.26057" lon="8.40038">
        <ele>86.945031</ele>
        <time>2020-08-04T10:37:54.873Z</time>
      </trkpt>
      <trkpt lat="63.26058" lon="8.4006">
        <ele>87.491092</ele>
        <time>2020-08-04T10:38:00.870Z</time>
      </trkpt>
      <trkpt lat="63.2606" lon="8.40081">
        <ele>88.009868</ele>
        <time>2020-08-04T10:38:06.910Z</time>
      </trkpt>
      <trkpt lat="63.26061" lon="8.40101">
        <ele>88.530341</ele>
        <time>2020-08-04T10:38:12.855Z</time>
      </trkpt>
      <trkpt lat="63.26063" lon="8.40125">
        <ele>89.121027</ele>
        <time>2020-08-04T10:38:19.881Z</time>
      </trkpt>
      <trkpt lat="63.26066" lon="8.40145">
        <ele>89.658535</ele>
        <time>2020-08-04T10:38:25.859Z</time>
      </trkpt>
      <trkpt lat="63.26069" lon="8.40166">
        <ele>90.191321</ele>
        <time>2020-08-04T10:38:31.855Z</time>
      </trkpt>
      <trkpt lat="63.26069" lon="8.40187">
        <ele>90.710349</ele>
        <time>2020-08-04T10:38:37.903Z</time>
      </trkpt>
      <trkpt lat="63.26071" lon="8.40207">
        <ele>91.217201</ele>
        <time>2020-08-04T10:38:42.859Z</time>
      </trkpt>
      <trkpt lat="63.26072" lon="8.40229">
        <ele>91.774003</ele>
        <time>2020-08-04T10:38:48.855Z</time>
      </trkpt>
      <trkpt lat="63.26075" lon="8.40251">
        <ele>92.337061</ele>
        <time>2020-08-04T10:38:54.892Z</time>
      </trkpt>
      <trkpt lat="63.26078" lon="8.40271">
        <ele>92.892396</ele>
        <time>2020-08-04T10:39:00.900Z</time>
      </trkpt>
      <trkpt lat="63.26081" lon="8.40293">
        <ele>93.451275</ele>
        <time>2020-08-04T10:39:06.870Z</time>
      </trkpt>
      <trkpt lat="63.26083" lon="8.40316">
        <ele>94.027343</ele>
        <time>2020-08-04T10:39:12.858Z</time>
      </trkpt>
      <trkpt lat="63.26085" lon="8.40336">
        <ele>94.537633</ele>
        <time>2020-08-04T10:39:17.858Z</time>
      </trkpt>
      <trkpt lat="63.26088" lon="8.40357">
        <ele>95.089623</ele>
        <time>2020-08-04T10:39:22.870Z</time>
      </trkpt>
      <trkpt lat="63.2609" lon="8.40378">
        <ele>95.626588</ele>
        <time>2020-08-04T10:39:27.877Z</time>
      </trkpt>
      <trkpt lat="63.26091" lon="8.40399">
        <ele>96.142916</ele>
        <time>2020-08-04T10:39:32.867Z</time>
      </trkpt>
      <trkpt lat="63.26094" lon="8.40419">
        <ele>96.432208</ele>
        <time>2020-08-04T10:39:37.870Z</time>
      </trkpt>
      <trkpt lat="63.26095" lon="8.40441">
        <ele>96.731613</ele>
        <time>2020-08-04T10:39:42.847Z</time>
      </trkpt>
      <trkpt lat="63.26096" lon="8.40461">
        <ele>97.012838</ele>
        <time>2020-08-04T10:39:47.874Z</time>
      </trkpt>
      <trkpt lat="63.26098" lon="8.40483">
        <ele>97.322713</ele>
        <time>2020-08-04T10:39:52.906Z</time>
      </trkpt>
      <trkpt lat="63.26101" lon="8.40506">
        <ele>97.641293</ele>
        <time>2020-08-04T10:39:57.888Z</time>
      </trkpt>
      <trkpt lat="63.26103" lon="8.40527">
        <ele>97.937114</ele>
        <time>2020-08-04T10:40:02.876Z</time>
      </trkpt>
      <trkpt lat="63.26105" lon="8.40547">
        <ele>98.218256</ele>
        <time>2020-08-04T10:40:07.872Z</time>
      </trkpt>
      <trkpt lat="63.26108" lon="8.40569">
        <ele>98.534961</ele>
        <time>2020-08-04T10:40:12.860Z</time>
      </trkpt>
      <trkpt lat="63.2611" lon="8.4059">
        <ele>98.82275</ele>
        <time>2020-08-04T10:40:16.873Z</time>
      </trkpt>
      <trkpt lat="63.26112" lon="8.4061">
        <ele>99.114562</ele>
        <time>2020-08-04T10:40:20.881Z</time>
      </trkpt>
      <trkpt lat="63.26115" lon="8.4063">
        <ele>99.394064</ele>
        <time>2020-08-04T10:40:24.860Z</time>
      </trkpt>
      <trkpt lat="63.26118" lon="8.40653">
        <ele>99.728475</ele>
        <time>2020-08-04T10:40:29.853Z</time>
      </trkpt>
      <trkpt lat="63.26122" lon="8.40676">
        <ele>100.058428</ele>
        <time>2020-08-04T10:40:34.858Z</time>
      </trkpt>
      <trkpt lat="63.26125" lon="8.40696">
        <ele>100.356893</ele>
        <time>2020-08-04T10:40:39.856Z</time>
      </trkpt>
      <trkpt lat="63.26127" lon="8.40716">
        <ele>100.642765</ele>
        <time>2020-08-04T10:40:44.857Z</time>
      </trkpt>
      <trkpt lat="63.2613" lon="8.40736">
        <ele>100.923586</ele>
        <time>2020-08-04T10:40:49.902Z</time>
      </trkpt>
      <trkpt lat="63.26134" lon="8.40755">
        <ele>101.210146</ele>
        <time>2020-08-04T10:40:54.869Z</time>
      </trkpt>
      <trkpt lat="63.26138" lon="8.40776">
        <ele>101.520442</ele>
        <time>2020-08-04T10:40:59.880Z</time>
      </trkpt>
      <trkpt lat="63.26141" lon="8.40796">
        <ele>101.813321</ele>
        <time>2020-08-04T10:41:04.847Z</time>
      </trkpt>
      <trkpt lat="63.26144" lon="8.40816">
        <ele>102.107506</ele>
        <time>2020-08-04T10:41:09.888Z</time>
      </trkpt>
      <trkpt lat="63.26148" lon="8.40835">
        <ele>102.398762</ele>
        <time>2020-08-04T10:41:14.862Z</time>
      </trkpt>
      <trkpt lat="63.26152" lon="8.40854">
        <ele>102.697522</ele>
        <time>2020-08-04T10:41:19.859Z</time>
      </trkpt>
      <trkpt lat="63.26156" lon="8.40873">
        <ele>102.982362</ele>
        <time>2020-08-04T10:41:24.917Z</time>
      </trkpt>
      <trkpt lat="63.26159" lon="8.40895">
        <ele>103.297482</ele>
        <time>2020-08-04T10:41:30.867Z</time>
      </trkpt>
      <trkpt lat="63.26162" lon="8.40918">
        <ele>103.624563</ele>
        <time>2020-08-04T10:41:36.854Z</time>
      </trkpt>
      <trkpt lat="63.26165" lon="8.40938">
        <ele>103.919735</ele>
        <time>2020-08-04T10:41:41.895Z</time>
      </trkpt>
      <trkpt lat="63.26168" lon="8.40959">
        <ele>104.221612</ele>
        <time>2020-08-04T10:41:46.864Z</time>
      </trkpt>
      <trkpt lat="63.26172" lon="8.40981">
        <ele>104.559603</ele>
        <time>2020-08-04T10:41:51.870Z</time>
      </trkpt>
      <trkpt lat="63.26176" lon="8.41003">
        <ele>104.894505</ele>
        <time>2020-08-04T10:41:56.861Z</time>
      </trkpt>
      <trkpt lat="63.2618" lon="8.41026">
        <ele>105.222915</ele>
        <time>2020-08-04T10:42:01.863Z</time>
      </trkpt>
      <trkpt lat="63.26182" lon="8.41047">
        <ele>105.532506</ele>
        <time>2020-08-04T10:42:05.911Z</time>
      </trkpt>
      <trkpt lat="63.26185" lon="8.41068">
        <ele>105.830574</ele>
        <time>2020-08-04T10:42:09.871Z</time>
      </trkpt>
      <trkpt lat="63.26186" lon="8.41089">
        <ele>106.129488</ele>
        <time>2020-08-04T10:42:13.874Z</time>
      </trkpt>
      <trkpt lat="63.26188" lon="8.41111">
        <ele>106.440308</ele>
        <time>2020-08-04T10:42:17.875Z</time>
      </trkpt>
      <trkpt lat="63.26191" lon="8.41133">
        <ele>106.752831</ele>
        <time>2020-08-04T10:42:21.869Z</time>
      </trkpt>
      <trkpt lat="63.26194" lon="8.41155">
        <ele>107.074729</ele>
        <time>2020-08-04T10:42:25.945Z</time>
      </trkpt>
      <trkpt lat="63.26197" lon="8.41179">
        <ele>107.394266</ele>
        <time>2020-08-04T10:42:29.861Z</time>
      </trkpt>
      <trkpt lat="63.262" lon="8.41204">
        <ele>107.71951</ele>
        <time>2020-08-04T10:42:33.865Z</time>
      </trkpt>
      <trkpt lat="63.26204" lon="8.41223">
        <ele>107.978238</ele>
        <time>2020-08-04T10:42:36.863Z</time>
      </trkpt>
      <trkpt lat="63.26207" lon="8.41242">
        <ele>108.233708</ele>
        <time>2020-08-04T10:42:39.856Z</time>
      </trkpt>
      <trkpt lat="63.2621" lon="8.41261">
        <ele>108.486749</ele>
        <time>2020-08-04T10:42:42.845Z</time>
      </trkpt>
      <trkpt lat="63.26213" lon="8.4128">
        <ele>108.739238</ele>
        <time>2020-08-04T10:42:45.873Z</time>
      </trkpt>
      <trkpt lat="63.26216" lon="8.41305">
        <ele>109.065928</ele>
        <time>2020-08-04T10:42:49.856Z</time>
      </trkpt>
      <trkpt lat="63.2622" lon="8.41329">
        <ele>109.384161</ele>
        <time>2020-08-04T10:42:53.904Z</time>
      </trkpt>
      <trkpt lat="63.26225" lon="8.41351">
        <ele>109.686229</ele>
        <time>2020-08-04T10:42:57.859Z</time>
      </trkpt>
      <trkpt lat="63.26229" lon="8.41374">
        <ele>109.999802</ele>
        <time>2020-08-04T10:43:01.874Z</time>
      </trkpt>
      <trkpt lat="63.26233" lon="8.41395">
        <ele>110.283399</ele>
        <time>2020-08-04T10:43:05.875Z</time>
      </trkpt>
      <trkpt lat="63.26237" lon="8.41415">
        <ele>110.560127</ele>
        <time>2020-08-04T10:43:09.866Z</time>
      </trkpt>
      <trkpt lat="63.26241" lon="8.41436">
        <ele>110.844871</ele>
        <time>2020-08-04T10:43:13.906Z</time>
      </trkpt>
      <trkpt lat="63.26245" lon="8.41456">
        <ele>111.123956</ele>
        <time>2020-08-04T10:43:17.857Z</time>
      </trkpt>
      <trkpt lat="63.26249" lon="8.41476">
        <ele>111.402983</ele>
        <time>2020-08-04T10:43:21.864Z</time>
      </trkpt>
      <trkpt lat="63.26254" lon="8.41499">
        <ele>111.724776</ele>
        <time>2020-08-04T10:43:25.848Z</time>
      </trkpt>
      <trkpt lat="63.26259" lon="8.41522">
        <ele>112.043945</ele>
        <time>2020-08-04T10:43:29.872Z</time>
      </trkpt>
      <trkpt lat="63.26263" lon="8.41541">
        <ele>112.446699</ele>
        <time>2020-08-04T10:43:32.868Z</time>
      </trkpt>
      <trkpt lat="63.26266" lon="8.41564">
        <ele>113.148314</ele>
        <time>2020-08-04T10:43:36.856Z</time>
      </trkpt>
      <trkpt lat="63.2627" lon="8.41585">
        <ele>113.794241</ele>
        <time>2020-08-04T10:43:40.857Z</time>
      </trkpt>
      <trkpt lat="63.26273" lon="8.41605">
        <ele>114.410619</ele>
        <time>2020-08-04T10:43:44.904Z</time>
      </trkpt>
      <trkpt lat="63.26276" lon="8.41626">
        <ele>115.039723</ele>
        <time>2020-08-04T10:43:48.853Z</time>
      </trkpt>
      <trkpt lat="63.26279" lon="8.41646">
        <ele>115.639478</ele>
        <time>2020-08-04T10:43:52.884Z</time>
      </trkpt>
      <trkpt lat="63.26281" lon="8.41666">
        <ele>116.239231</ele>
        <time>2020-08-04T10:43:56.876Z</time>
      </trkpt>
      <trkpt lat="63.26284" lon="8.41685">
        <ele>116.825244</ele>
        <time>2020-08-04T10:44:00.892Z</time>
      </trkpt>
      <trkpt lat="63.26287" lon="8.41705">
        <ele>117.430779</ele>
        <time>2020-08-04T10:44:04.854Z</time>
      </trkpt>
      <trkpt lat="63.26289" lon="8.41728">
        <ele>118.106132</ele>
        <time>2020-08-04T10:44:08.862Z</time>
      </trkpt>
      <trkpt lat="63.26291" lon="8.41751">
        <ele>118.773334</ele>
        <time>2020-08-04T10:44:13.875Z</time>
      </trkpt>
      <trkpt lat="63.26293" lon="8.41771">
        <ele>119.362274</ele>
        <time>2020-08-04T10:44:18.858Z</time>
      </trkpt>
      <trkpt lat="63.26294" lon="8.41794">
        <ele>120.011912</ele>
        <time>2020-08-04T10:44:24.888Z</time>
      </trkpt>
      <trkpt lat="63.26296" lon="8.41814">
        <ele>120.588621</ele>
        <time>2020-08-04T10:44:30.867Z</time>
      </trkpt>
      <trkpt lat="63.26298" lon="8.41834">
        <ele>121.188537</ele>
        <time>2020-08-04T10:44:36.888Z</time>
      </trkpt>
      <trkpt lat="63.263" lon="8.41854">
        <ele>121.775888</ele>
        <time>2020-08-04T10:44:42.870Z</time>
      </trkpt>
      <trkpt lat="63.26303" lon="8.41876">
        <ele>122.448136</ele>
        <time>2020-08-04T10:44:49.863Z</time>
      </trkpt>
      <trkpt lat="63.26306" lon="8.41897">
        <ele>123.077914</ele>
        <time>2020-08-04T10:44:55.844Z</time>
      </trkpt>
      <trkpt lat="63.26308" lon="8.4192">
        <ele>123.655438</ele>
        <time>2020-08-04T10:45:01.852Z</time>
      </trkpt>
      <trkpt lat="63.26308" lon="8.41941">
        <ele>123.642148</ele>
        <time>2020-08-04T10:45:07.866Z</time>
      </trkpt>
      <trkpt lat="63.26309" lon="8.41963">
        <ele>123.628743</ele>
        <time>2020-08-04T10:45:13.848Z</time>
      </trkpt>
      <trkpt lat="63.2631" lon="8.41983">
        <ele>123.616375</ele>
        <time>2020-08-04T10:45:19.862Z</time>
      </trkpt>
      <trkpt lat="63.26311" lon="8.42003">
        <ele>123.603761</ele>
        <time>2020-08-04T10:45:25.862Z</time>
      </trkpt>
      <trkpt lat="63.26313" lon="8.42025">
        <ele>123.58974</ele>
        <time>2020-08-04T10:45:31.872Z</time>
      </trkpt>
      <trkpt lat="63.26315" lon="8.42047">
        <ele>123.575929</ele>
        <time>2020-08-04T10:45:36.880Z</time>
      </trkpt>
      <trkpt lat="63.26317" lon="8.42069">
        <ele>123.562011</ele>
        <time>2020-08-04T10:45:41.857Z</time>
      </trkpt>
      <trkpt lat="63.26318" lon="8.42089">
        <ele>123.549133</ele>
        <time>2020-08-04T10:45:46.883Z</time>
      </trkpt>
      <trkpt lat="63.2632" lon="8.42114">
        <ele>123.533526</ele>
        <time>2020-08-04T10:45:51.880Z</time>
      </trkpt>
      <trkpt lat="63.26322" lon="8.42138">
        <ele>123.518624</ele>
        <time>2020-08-04T10:45:55.880Z</time>
      </trkpt>
      <trkpt lat="63.26324" lon="8.42162">
        <ele>123.503107</ele>
        <time>2020-08-04T10:45:59.898Z</time>
      </trkpt>
      <trkpt lat="63.26326" lon="8.42182">
        <ele>123.490643</ele>
        <time>2020-08-04T10:46:02.874Z</time>
      </trkpt>
      <trkpt lat="63.26328" lon="8.42204">
        <ele>123.476981</ele>
        <time>2020-08-04T10:46:05.846Z</time>
      </trkpt>
      <trkpt lat="63.2633" lon="8.42225">
        <ele>123.463173</ele>
        <time>2020-08-04T10:46:08.859Z</time>
      </trkpt>
      <trkpt lat="63.26331" lon="8.42247">
        <ele>123.449339</ele>
        <time>2020-08-04T10:46:11.856Z</time>
      </trkpt>
      <trkpt lat="63.26334" lon="8.4227">
        <ele>123.435197</ele>
        <time>2020-08-04T10:46:14.868Z</time>
      </trkpt>
      <trkpt lat="63.26336" lon="8.42292">
        <ele>123.420783</ele>
        <time>2020-08-04T10:46:17.895Z</time>
      </trkpt>
      <trkpt lat="63.26338" lon="8.42315">
        <ele>123.400535</ele>
        <time>2020-08-04T10:46:20.869Z</time>
      </trkpt>
      <trkpt lat="63.26342" lon="8.42339">
        <ele>123.357875</ele>
        <time>2020-08-04T10:46:23.891Z</time>
      </trkpt>
      <trkpt lat="63.26345" lon="8.42364">
        <ele>123.314712</ele>
        <time>2020-08-04T10:46:26.863Z</time>
      </trkpt>
      <trkpt lat="63.26347" lon="8.42389">
        <ele>123.271501</ele>
        <time>2020-08-04T10:46:29.867Z</time>
      </trkpt>
      <trkpt lat="63.2635" lon="8.42413">
        <ele>123.228297</ele>
        <time>2020-08-04T10:46:32.865Z</time>
      </trkpt>
      <trkpt lat="63.26354" lon="8.42438">
        <ele>123.183465</ele>
        <time>2020-08-04T10:46:35.891Z</time>
      </trkpt>
      <trkpt lat="63.26358" lon="8.42462">
        <ele>123.13865</ele>
        <time>2020-08-04T10:46:38.895Z</time>
      </trkpt>
      <trkpt lat="63.26363" lon="8.42488">
        <ele>123.091176</ele>
        <time>2020-08-04T10:46:41.859Z</time>
      </trkpt>
      <trkpt lat="63.26367" lon="8.42517">
        <ele>123.0407</ele>
        <time>2020-08-04T10:46:44.867Z</time>
      </trkpt>
      <trkpt lat="63.26371" lon="8.42543">
        <ele>122.993027</ele>
        <time>2020-08-04T10:46:47.878Z</time>
      </trkpt>
      <trkpt lat="63.26375" lon="8.42568">
        <ele>122.94787</ele>
        <time>2020-08-04T10:46:50.864Z</time>
      </trkpt>
      <trkpt lat="63.26379" lon="8.42594">
        <ele>122.901238</ele>
        <time>2020-08-04T10:46:53.904Z</time>
      </trkpt>
      <trkpt lat="63.26382" lon="8.42621">
        <ele>122.854034</ele>
        <time>2020-08-04T10:46:56.872Z</time>
      </trkpt>
      <trkpt lat="63.26385" lon="8.42648">
        <ele>122.806864</ele>
        <time>2020-08-04T10:46:59.870Z</time>
      </trkpt>
      <trkpt lat="63.26389" lon="8.42674">
        <ele>122.760833</ele>
        <time>2020-08-04T10:47:02.895Z</time>
      </trkpt>
      <trkpt lat="63.26392" lon="8.42699">
        <ele>122.799306</ele>
        <time>2020-08-04T10:47:05.873Z</time>
      </trkpt>
      <trkpt lat="63.26396" lon="8.42725">
        <ele>123.028692</ele>
        <time>2020-08-04T10:47:08.880Z</time>
      </trkpt>
      <trkpt lat="63.26399" lon="8.4275">
        <ele>123.247871</ele>
        <time>2020-08-04T10:47:11.883Z</time>
      </trkpt>
      <trkpt lat="63.26401" lon="8.42774">
        <ele>123.461281</ele>
        <time>2020-08-04T10:47:14.870Z</time>
      </trkpt>
      <trkpt lat="63.26404" lon="8.42798">
        <ele>123.672092</ele>
        <time>2020-08-04T10:47:17.857Z</time>
      </trkpt>
      <trkpt lat="63.26406" lon="8.42824">
        <ele>123.892877</ele>
        <time>2020-08-04T10:47:20.868Z</time>
      </trkpt>
      <trkpt lat="63.26408" lon="8.42848">
        <ele>124.099695</ele>
        <time>2020-08-04T10:47:23.860Z</time>
      </trkpt>
      <trkpt lat="63.2641" lon="8.42871">
        <ele>124.297001</ele>
        <time>2020-08-04T10:47:26.858Z</time>
      </trkpt>
      <trkpt lat="63.26412" lon="8.42893">
        <ele>124.491544</ele>
        <time>2020-08-04T10:47:29.881Z</time>
      </trkpt>
      <trkpt lat="63.26414" lon="8.42915">
        <ele>124.682438</ele>
        <time>2020-08-04T10:47:32.866Z</time>
      </trkpt>
      <trkpt lat="63.26416" lon="8.42937">
        <ele>124.87668</ele>
        <time>2020-08-04T10:47:35.874Z</time>
      </trkpt>
      <trkpt lat="63.26418" lon="8.42959">
        <ele>125.063738</ele>
        <time>2020-08-04T10:47:38.861Z</time>
      </trkpt>
      <trkpt lat="63.2642" lon="8.42979">
        <ele>125.239302</ele>
        <time>2020-08-04T10:47:41.862Z</time>
      </trkpt>
      <trkpt lat="63.26423" lon="8.43003">
        <ele>125.457124</ele>
        <time>2020-08-04T10:47:45.860Z</time>
      </trkpt>
      <trkpt lat="63.26425" lon="8.43026">
        <ele>125.654607</ele>
        <time>2020-08-04T10:47:49.876Z</time>
      </trkpt>
      <trkpt lat="63.26426" lon="8.43049">
        <ele>125.853397</ele>
        <time>2020-08-04T10:47:53.867Z</time>
      </trkpt>
      <trkpt lat="63.26428" lon="8.4307">
        <ele>126.036764</ele>
        <time>2020-08-04T10:47:57.882Z</time>
      </trkpt>
      <trkpt lat="63.26429" lon="8.43095">
        <ele>126.403006</ele>
        <time>2020-08-04T10:48:02.851Z</time>
      </trkpt>
      <trkpt lat="63.26429" lon="8.43118">
        <ele>126.904781</ele>
        <time>2020-08-04T10:48:07.860Z</time>
      </trkpt>
      <trkpt lat="63.2643" lon="8.43141">
        <ele>127.392601</ele>
        <time>2020-08-04T10:48:12.848Z</time>
      </trkpt>
      <trkpt lat="63.2643" lon="8.43163">
        <ele>127.858141</ele>
        <time>2020-08-04T10:48:17.871Z</time>
      </trkpt>
      <trkpt lat="63.26429" lon="8.43184">
        <ele>128.313842</ele>
        <time>2020-08-04T10:48:22.891Z</time>
      </trkpt>
      <trkpt lat="63.2643" lon="8.43207">
        <ele>128.799608</ele>
        <time>2020-08-04T10:48:27.852Z</time>
      </trkpt>
      <trkpt lat="63.26431" lon="8.43228">
        <ele>129.254293</ele>
        <time>2020-08-04T10:48:32.863Z</time>
      </trkpt>
      <trkpt lat="63.26431" lon="8.43249">
        <ele>129.701009</ele>
        <time>2020-08-04T10:48:37.906Z</time>
      </trkpt>
      <trkpt lat="63.26432" lon="8.4327">
        <ele>130.144008</ele>
        <time>2020-08-04T10:48:42.878Z</time>
      </trkpt>
      <trkpt lat="63.26433" lon="8.43292">
        <ele>130.608513</ele>
        <time>2020-08-04T10:48:47.870Z</time>
      </trkpt>
      <trkpt lat="63.26434" lon="8.43315">
        <ele>131.105926</ele>
        <time>2020-08-04T10:48:52.855Z</time>
      </trkpt>
      <trkpt lat="63.26436" lon="8.43339">
        <ele>131.6205</ele>
        <time>2020-08-04T10:48:57.880Z</time>
      </trkpt>
      <trkpt lat="63.26437" lon="8.43361">
        <ele>132.097823</ele>
        <time>2020-08-04T10:49:02.882Z</time>
      </trkpt>
      <trkpt lat="63.26438" lon="8.43383">
        <ele>132.560377</ele>
        <time>2020-08-04T10:49:07.881Z</time>
      </trkpt>
      <trkpt lat="63.2644" lon="8.43403">
        <ele>133.002201</ele>
        <time>2020-08-04T10:49:12.863Z</time>
      </trkpt>
      <trkpt lat="63.26441" lon="8.43424">
        <ele>133.436218</ele>
        <time>2020-08-04T10:49:17.872Z</time>
      </trkpt>
      <trkpt lat="63.26442" lon="8.43446">
        <ele>133.918855</ele>
        <time>2020-08-04T10:49:22.882Z</time>
      </trkpt>
      <trkpt lat="63.26443" lon="8.4347">
        <ele>134.428393</ele>
        <time>2020-08-04T10:49:27.875Z</time>
      </trkpt>
      <trkpt lat="63.26444" lon="8.43495">
        <ele>134.568833</ele>
        <time>2020-08-04T10:49:32.858Z</time>
      </trkpt>
      <trkpt lat="63.26445" lon="8.43515">
        <ele>134.483211</ele>
        <time>2020-08-04T10:49:36.848Z</time>
      </trkpt>
      <trkpt lat="63.26445" lon="8.43536">
        <ele>134.390633</ele>
        <time>2020-08-04T10:49:40.851Z</time>
      </trkpt>
      <trkpt lat="63.26446" lon="8.4356">
        <ele>134.290383</ele>
        <time>2020-08-04T10:49:44.855Z</time>
      </trkpt>
      <trkpt lat="63.26446" lon="8.43586">
        <ele>134.177909</ele>
        <time>2020-08-04T10:49:48.861Z</time>
      </trkpt>
      <trkpt lat="63.26447" lon="8.43609">
        <ele>134.082272</ele>
        <time>2020-08-04T10:49:51.863Z</time>
      </trkpt>
      <trkpt lat="63.26447" lon="8.43632">
        <ele>133.981631</ele>
        <time>2020-08-04T10:49:54.877Z</time>
      </trkpt>
      <trkpt lat="63.26446" lon="8.43658">
        <ele>133.873679</ele>
        <time>2020-08-04T10:49:57.899Z</time>
      </trkpt>
      <trkpt lat="63.26446" lon="8.43685">
        <ele>133.757594</ele>
        <time>2020-08-04T10:50:00.862Z</time>
      </trkpt>
      <trkpt lat="63.26446" lon="8.43714">
        <ele>133.630914</ele>
        <time>2020-08-04T10:50:03.888Z</time>
      </trkpt>
      <trkpt lat="63.26446" lon="8.43736">
        <ele>133.537934</ele>
        <time>2020-08-04T10:50:05.876Z</time>
      </trkpt>
      <trkpt lat="63.26446" lon="8.43761">
        <ele>133.433881</ele>
        <time>2020-08-04T10:50:07.863Z</time>
      </trkpt>
      <trkpt lat="63.26445" lon="8.43788">
        <ele>133.316902</ele>
        <time>2020-08-04T10:50:09.882Z</time>
      </trkpt>
      <trkpt lat="63.26444" lon="8.43818">
        <ele>133.188895</ele>
        <time>2020-08-04T10:50:11.861Z</time>
      </trkpt>
      <trkpt lat="63.26443" lon="8.43851">
        <ele>133.045851</ele>
        <time>2020-08-04T10:50:13.895Z</time>
      </trkpt>
      <trkpt lat="63.26441" lon="8.43887">
        <ele>132.844035</ele>
        <time>2020-08-04T10:50:15.890Z</time>
      </trkpt>
      <trkpt lat="63.2644" lon="8.43926">
        <ele>132.429393</ele>
        <time>2020-08-04T10:50:17.854Z</time>
      </trkpt>
      <trkpt lat="63.2644" lon="8.43947">
        <ele>132.20824</ele>
        <time>2020-08-04T10:50:18.864Z</time>
      </trkpt>
      <trkpt lat="63.26439" lon="8.43969">
        <ele>131.974751</ele>
        <time>2020-08-04T10:50:19.878Z</time>
      </trkpt>
      <trkpt lat="63.26438" lon="8.43991">
        <ele>131.740727</ele>
        <time>2020-08-04T10:50:20.870Z</time>
      </trkpt>
      <trkpt lat="63.26437" lon="8.44013">
        <ele>131.506231</ele>
        <time>2020-08-04T10:50:21.856Z</time>
      </trkpt>
      <trkpt lat="63.26436" lon="8.44035">
        <ele>131.266932</ele>
        <time>2020-08-04T10:50:22.853Z</time>
      </trkpt>
      <trkpt lat="63.26435" lon="8.44058">
        <ele>131.021493</ele>
        <time>2020-08-04T10:50:23.858Z</time>
      </trkpt>
      <trkpt lat="63.26434" lon="8.44082">
        <ele>130.770584</ele>
        <time>2020-08-04T10:50:24.892Z</time>
      </trkpt>
      <trkpt lat="63.26433" lon="8.44105">
        <ele>130.52052</ele>
        <time>2020-08-04T10:50:25.872Z</time>
      </trkpt>
      <trkpt lat="63.26433" lon="8.44129">
        <ele>130.265737</ele>
        <time>2020-08-04T10:50:26.902Z</time>
      </trkpt>
      <trkpt lat="63.26432" lon="8.44153">
        <ele>130.016384</ele>
        <time>2020-08-04T10:50:27.857Z</time>
      </trkpt>
      <trkpt lat="63.26432" lon="8.44176">
        <ele>129.771385</ele>
        <time>2020-08-04T10:50:28.879Z</time>
      </trkpt>
      <trkpt lat="63.26431" lon="8.44198">
        <ele>129.538619</ele>
        <time>2020-08-04T10:50:29.866Z</time>
      </trkpt>
      <trkpt lat="63.2643" lon="8.44218">
        <ele>129.318307</ele>
        <time>2020-08-04T10:50:30.894Z</time>
      </trkpt>
      <trkpt lat="63.26428" lon="8.44256">
        <ele>128.914397</ele>
        <time>2020-08-04T10:50:32.847Z</time>
      </trkpt>
      <trkpt lat="63.26428" lon="8.4429">
        <ele>129.073854</ele>
        <time>2020-08-04T10:50:34.861Z</time>
      </trkpt>
      <trkpt lat="63.26427" lon="8.44318">
        <ele>129.896832</ele>
        <time>2020-08-04T10:50:36.880Z</time>
      </trkpt>
      <trkpt lat="63.26427" lon="8.44341">
        <ele>130.578153</ele>
        <time>2020-08-04T10:50:38.893Z</time>
      </trkpt>
      <trkpt lat="63.26427" lon="8.44368">
        <ele>131.383229</ele>
        <time>2020-08-04T10:50:41.858Z</time>
      </trkpt>
      <trkpt lat="63.26428" lon="8.44393">
        <ele>132.104668</ele>
        <time>2020-08-04T10:50:45.872Z</time>
      </trkpt>
      <trkpt lat="63.26427" lon="8.44414">
        <ele>132.736908</ele>
        <time>2020-08-04T10:50:50.878Z</time>
      </trkpt>
      <trkpt lat="63.26424" lon="8.44437">
        <ele>133.421675</ele>
        <time>2020-08-04T10:50:56.915Z</time>
      </trkpt>
      <trkpt lat="63.26421" lon="8.44457">
        <ele>134.04217</ele>
        <time>2020-08-04T10:51:02.869Z</time>
      </trkpt>
      <trkpt lat="63.26418" lon="8.44479">
        <ele>134.720448</ele>
        <time>2020-08-04T10:51:09.849Z</time>
      </trkpt>
      <trkpt lat="63.26415" lon="8.44499">
        <ele>135.355418</ele>
        <time>2020-08-04T10:51:15.859Z</time>
      </trkpt>
      <trkpt lat="63.26412" lon="8.44518">
        <ele>135.949963</ele>
        <time>2020-08-04T10:51:20.855Z</time>
      </trkpt>
      <trkpt lat="63.26409" lon="8.44539">
        <ele>136.616593</ele>
        <time>2020-08-04T10:51:26.855Z</time>
      </trkpt>
      <trkpt lat="63.26405" lon="8.4456">
        <ele>137.281664</ele>
        <time>2020-08-04T10:51:32.879Z</time>
      </trkpt>
      <trkpt lat="63.26402" lon="8.4458">
        <ele>137.896538</ele>
        <time>2020-08-04T10:51:38.875Z</time>
      </trkpt>
      <trkpt lat="63.26398" lon="8.446">
        <ele>138.532547</ele>
        <time>2020-08-04T10:51:44.873Z</time>
      </trkpt>
      <trkpt lat="63.26394" lon="8.44622">
        <ele>139.221369</ele>
        <time>2020-08-04T10:51:50.868Z</time>
      </trkpt>
      <trkpt lat="63.2639" lon="8.44641">
        <ele>139.850684</ele>
        <time>2020-08-04T10:51:56.856Z</time>
      </trkpt>
      <trkpt lat="63.26387" lon="8.44661">
        <ele>140.485049</ele>
        <time>2020-08-04T10:52:02.859Z</time>
      </trkpt>
      <trkpt lat="63.26383" lon="8.44681">
        <ele>141.501741</ele>
        <time>2020-08-04T10:52:08.861Z</time>
      </trkpt>
      <trkpt lat="63.26379" lon="8.44701">
        <ele>142.505719</ele>
        <time>2020-08-04T10:52:14.862Z</time>
      </trkpt>
      <trkpt lat="63.26375" lon="8.4472">
        <ele>143.493097</ele>
        <time>2020-08-04T10:52:20.886Z</time>
      </trkpt>
      <trkpt lat="63.26371" lon="8.44739">
        <ele>144.488417</ele>
        <time>2020-08-04T10:52:26.901Z</time>
      </trkpt>
      <trkpt lat="63.26366" lon="8.44759">
        <ele>145.543863</ele>
        <time>2020-08-04T10:52:33.876Z</time>
      </trkpt>
      <trkpt lat="63.26362" lon="8.44779">
        <ele>146.590056</ele>
        <time>2020-08-04T10:52:39.862Z</time>
      </trkpt>
      <trkpt lat="63.26356" lon="8.44798">
        <ele>147.667541</ele>
        <time>2020-08-04T10:52:45.876Z</time>
      </trkpt>
      <trkpt lat="63.26351" lon="8.44815">
        <ele>148.633031</ele>
        <time>2020-08-04T10:52:51.892Z</time>
      </trkpt>
      <trkpt lat="63.26345" lon="8.44833">
        <ele>149.637435</ele>
        <time>2020-08-04T10:52:57.857Z</time>
      </trkpt>
      <trkpt lat="63.2634" lon="8.44849">
        <ele>150.615579</ele>
        <time>2020-08-04T10:53:03.876Z</time>
      </trkpt>
      <trkpt lat="63.26334" lon="8.44865">
        <ele>151.567132</ele>
        <time>2020-08-04T10:53:09.869Z</time>
      </trkpt>
      <trkpt lat="63.26328" lon="8.44882">
        <ele>152.574723</ele>
        <time>2020-08-04T10:53:15.881Z</time>
      </trkpt>
      <trkpt lat="63.26323" lon="8.44899">
        <ele>153.536247</ele>
        <time>2020-08-04T10:53:21.860Z</time>
      </trkpt>
      <trkpt lat="63.26319" lon="8.44918">
        <ele>154.519073</ele>
        <time>2020-08-04T10:53:27.873Z</time>
      </trkpt>
      <trkpt lat="63.26314" lon="8.44937">
        <ele>155.521486</ele>
        <time>2020-08-04T10:53:33.886Z</time>
      </trkpt>
      <trkpt lat="63.26309" lon="8.44957">
        <ele>156.608735</ele>
        <time>2020-08-04T10:53:39.864Z</time>
      </trkpt>
      <trkpt lat="63.26303" lon="8.44975">
        <ele>157.651309</ele>
        <time>2020-08-04T10:53:45.863Z</time>
      </trkpt>
      <trkpt lat="63.26296" lon="8.44989">
        <ele>158.650233</ele>
        <time>2020-08-04T10:53:50.862Z</time>
      </trkpt>
      <trkpt lat="63.2629" lon="8.45009">
        <ele>159.124146</ele>
        <time>2020-08-04T10:53:56.868Z</time>
      </trkpt>
      <trkpt lat="63.26283" lon="8.45024">
        <ele>158.958323</ele>
        <time>2020-08-04T10:54:01.923Z</time>
      </trkpt>
      <trkpt lat="63.26277" lon="8.45043">
        <ele>158.780024</ele>
        <time>2020-08-04T10:54:06.873Z</time>
      </trkpt>
      <trkpt lat="63.26271" lon="8.4506">
        <ele>158.6242</ele>
        <time>2020-08-04T10:54:10.913Z</time>
      </trkpt>
      <trkpt lat="63.26265" lon="8.45077">
        <ele>158.460935</ele>
        <time>2020-08-04T10:54:14.870Z</time>
      </trkpt>
      <trkpt lat="63.2626" lon="8.45099">
        <ele>158.278834</ele>
        <time>2020-08-04T10:54:18.864Z</time>
      </trkpt>
      <trkpt lat="63.26255" lon="8.45116">
        <ele>158.122534</ele>
        <time>2020-08-04T10:54:21.889Z</time>
      </trkpt>
      <trkpt lat="63.26249" lon="8.45134">
        <ele>157.955315</ele>
        <time>2020-08-04T10:54:24.860Z</time>
      </trkpt>
      <trkpt lat="63.26243" lon="8.45151">
        <ele>157.793077</ele>
        <time>2020-08-04T10:54:27.870Z</time>
      </trkpt>
      <trkpt lat="63.26236" lon="8.45169">
        <ele>157.615851</ele>
        <time>2020-08-04T10:54:30.879Z</time>
      </trkpt>
      <trkpt lat="63.26229" lon="8.4519">
        <ele>157.421304</ele>
        <time>2020-08-04T10:54:33.883Z</time>
      </trkpt>
      <trkpt lat="63.26222" lon="8.45213">
        <ele>157.217565</ele>
        <time>2020-08-04T10:54:36.871Z</time>
      </trkpt>
      <trkpt lat="63.26216" lon="8.4524">
        <ele>156.992864</ele>
        <time>2020-08-04T10:54:39.881Z</time>
      </trkpt>
      <trkpt lat="63.26212" lon="8.4526">
        <ele>156.827063</ele>
        <time>2020-08-04T10:54:41.864Z</time>
      </trkpt>
      <trkpt lat="63.26209" lon="8.45283">
        <ele>156.645738</ele>
        <time>2020-08-04T10:54:43.901Z</time>
      </trkpt>
      <trkpt lat="63.26205" lon="8.45309">
        <ele>156.4434</ele>
        <time>2020-08-04T10:54:45.874Z</time>
      </trkpt>
      <trkpt lat="63.262" lon="8.45335">
        <ele>156.228358</ele>
        <time>2020-08-04T10:54:47.859Z</time>
      </trkpt>
      <trkpt lat="63.26194" lon="8.45365">
        <ele>155.316015</ele>
        <time>2020-08-04T10:54:49.868Z</time>
      </trkpt>
      <trkpt lat="63.26188" lon="8.45398">
        <ele>154.298877</ele>
        <time>2020-08-04T10:54:51.871Z</time>
      </trkpt>
      <trkpt lat="63.26183" lon="8.45433">
        <ele>153.236685</ele>
        <time>2020-08-04T10:54:53.880Z</time>
      </trkpt>
      <trkpt lat="63.26177" lon="8.45468">
        <ele>152.154405</ele>
        <time>2020-08-04T10:54:55.853Z</time>
      </trkpt>
      <trkpt lat="63.26169" lon="8.45503">
        <ele>151.03675</ele>
        <time>2020-08-04T10:54:57.884Z</time>
      </trkpt>
      <trkpt lat="63.26161" lon="8.45537">
        <ele>149.930521</ele>
        <time>2020-08-04T10:54:59.861Z</time>
      </trkpt>
      <trkpt lat="63.26152" lon="8.45571">
        <ele>148.809771</ele>
        <time>2020-08-04T10:55:01.881Z</time>
      </trkpt>
      <trkpt lat="63.26144" lon="8.45604">
        <ele>147.701635</ele>
        <time>2020-08-04T10:55:03.894Z</time>
      </trkpt>
      <trkpt lat="63.26135" lon="8.45638">
        <ele>146.607217</ele>
        <time>2020-08-04T10:55:05.854Z</time>
      </trkpt>
      <trkpt lat="63.26127" lon="8.45669">
        <ele>145.562932</ele>
        <time>2020-08-04T10:55:07.909Z</time>
      </trkpt>
      <trkpt lat="63.26119" lon="8.457">
        <ele>144.629768</ele>
        <time>2020-08-04T10:55:09.885Z</time>
      </trkpt>
      <trkpt lat="63.26112" lon="8.45731">
        <ele>144.109796</ele>
        <time>2020-08-04T10:55:11.871Z</time>
      </trkpt>
      <trkpt lat="63.26104" lon="8.45761">
        <ele>143.598195</ele>
        <time>2020-08-04T10:55:13.870Z</time>
      </trkpt>
      <trkpt lat="63.26097" lon="8.45791">
        <ele>143.092039</ele>
        <time>2020-08-04T10:55:15.874Z</time>
      </trkpt>
      <trkpt lat="63.2609" lon="8.45821">
        <ele>142.604661</ele>
        <time>2020-08-04T10:55:17.884Z</time>
      </trkpt>
      <trkpt lat="63.26084" lon="8.4585">
        <ele>142.120043</ele>
        <time>2020-08-04T10:55:19.882Z</time>
      </trkpt>
      <trkpt lat="63.26079" lon="8.45881">
        <ele>141.638828</ele>
        <time>2020-08-04T10:55:21.867Z</time>
      </trkpt>
      <trkpt lat="63.26073" lon="8.45911">
        <ele>141.152829</ele>
        <time>2020-08-04T10:55:23.870Z</time>
      </trkpt>
      <trkpt lat="63.26068" lon="8.45941">
        <ele>140.67371</ele>
        <time>2020-08-04T10:55:25.864Z</time>
      </trkpt>
      <trkpt lat="63.26063" lon="8.45973">
        <ele>140.16941</ele>
        <time>2020-08-04T10:55:27.856Z</time>
      </trkpt>
      <trkpt lat="63.26057" lon="8.46005">
        <ele>139.664227</ele>
        <time>2020-08-04T10:55:29.876Z</time>
      </trkpt>
      <trkpt lat="63.26051" lon="8.46037">
        <ele>139.150644</ele>
        <time>2020-08-04T10:55:31.911Z</time>
      </trkpt>
      <trkpt lat="63.26045" lon="8.46069">
        <ele>138.834094</ele>
        <time>2020-08-04T10:55:33.893Z</time>
      </trkpt>
      <trkpt lat="63.2604" lon="8.461">
        <ele>138.931224</ele>
        <time>2020-08-04T10:55:35.877Z</time>
      </trkpt>
      <trkpt lat="63.26035" lon="8.46129">
        <ele>139.022075</ele>
        <time>2020-08-04T10:55:37.893Z</time>
      </trkpt>
      <trkpt lat="63.2603" lon="8.46157">
        <ele>139.111042</ele>
        <time>2020-08-04T10:55:39.861Z</time>
      </trkpt>
      <trkpt lat="63.26024" lon="8.46185">
        <ele>139.200031</ele>
        <time>2020-08-04T10:55:41.874Z</time>
      </trkpt>
      <trkpt lat="63.26019" lon="8.46213">
        <ele>139.287122</ele>
        <time>2020-08-04T10:55:43.859Z</time>
      </trkpt>
      <trkpt lat="63.26013" lon="8.4624">
        <ele>139.374747</ele>
        <time>2020-08-04T10:55:45.870Z</time>
      </trkpt>
      <trkpt lat="63.26007" lon="8.46264">
        <ele>139.455462</ele>
        <time>2020-08-04T10:55:47.863Z</time>
      </trkpt>
      <trkpt lat="63.26" lon="8.46282">
        <ele>139.523694</ele>
        <time>2020-08-04T10:55:49.849Z</time>
      </trkpt>
      <trkpt lat="63.25993" lon="8.463">
        <ele>139.59167</ele>
        <time>2020-08-04T10:55:51.901Z</time>
      </trkpt>
      <trkpt lat="63.25987" lon="8.46318">
        <ele>139.659267</ele>
        <time>2020-08-04T10:55:53.872Z</time>
      </trkpt>
      <trkpt lat="63.25981" lon="8.46334">
        <ele>139.720943</ele>
        <time>2020-08-04T10:55:55.857Z</time>
      </trkpt>
      <trkpt lat="63.25975" lon="8.46349">
        <ele>139.780688</ele>
        <time>2020-08-04T10:55:57.856Z</time>
      </trkpt>
      <trkpt lat="63.25966" lon="8.46371">
        <ele>139.864664</ele>
        <time>2020-08-04T10:56:00.874Z</time>
      </trkpt>
      <trkpt lat="63.25959" lon="8.46392">
        <ele>139.937811</ele>
        <time>2020-08-04T10:56:03.855Z</time>
      </trkpt>
      <trkpt lat="63.25951" lon="8.46408">
        <ele>140.362902</ele>
        <time>2020-08-04T10:56:06.862Z</time>
      </trkpt>
      <trkpt lat="63.25943" lon="8.46421">
        <ele>140.967618</ele>
        <time>2020-08-04T10:56:09.868Z</time>
      </trkpt>
      <trkpt lat="63.25934" lon="8.46434">
        <ele>141.606062</ele>
        <time>2020-08-04T10:56:12.868Z</time>
      </trkpt>
      <trkpt lat="63.25925" lon="8.46443">
        <ele>142.196179</ele>
        <time>2020-08-04T10:56:15.853Z</time>
      </trkpt>
      <trkpt lat="63.25916" lon="8.46452">
        <ele>142.794938</ele>
        <time>2020-08-04T10:56:18.870Z</time>
      </trkpt>
      <trkpt lat="63.25907" lon="8.4646">
        <ele>143.368869</ele>
        <time>2020-08-04T10:56:21.932Z</time>
      </trkpt>
      <trkpt lat="63.25898" lon="8.46466">
        <ele>143.938871</ele>
        <time>2020-08-04T10:56:24.880Z</time>
      </trkpt>
      <trkpt lat="63.25889" lon="8.4647">
        <ele>144.508864</ele>
        <time>2020-08-04T10:56:27.856Z</time>
      </trkpt>
      <trkpt lat="63.25878" lon="8.46474">
        <ele>145.138786</ele>
        <time>2020-08-04T10:56:30.890Z</time>
      </trkpt>
      <trkpt lat="63.25866" lon="8.46477">
        <ele>145.852076</ele>
        <time>2020-08-04T10:56:33.867Z</time>
      </trkpt>
      <trkpt lat="63.25856" lon="8.46481">
        <ele>146.501865</ele>
        <time>2020-08-04T10:56:36.886Z</time>
      </trkpt>
      <trkpt lat="63.25846" lon="8.46484">
        <ele>147.091741</ele>
        <time>2020-08-04T10:56:39.869Z</time>
      </trkpt>
      <trkpt lat="63.25836" lon="8.46486">
        <ele>147.700336</ele>
        <time>2020-08-04T10:56:42.892Z</time>
      </trkpt>
      <trkpt lat="63.25826" lon="8.4649">
        <ele>148.294334</ele>
        <time>2020-08-04T10:56:45.895Z</time>
      </trkpt>
      <trkpt lat="63.25816" lon="8.46492">
        <ele>148.872872</ele>
        <time>2020-08-04T10:56:48.866Z</time>
      </trkpt>
      <trkpt lat="63.25805" lon="8.46495">
        <ele>149.542843</ele>
        <time>2020-08-04T10:56:52.868Z</time>
      </trkpt>
      <trkpt lat="63.25794" lon="8.46497">
        <ele>150.24602</ele>
        <time>2020-08-04T10:56:56.852Z</time>
      </trkpt>
      <trkpt lat="63.25782" lon="8.46503">
        <ele>150.744519</ele>
        <time>2020-08-04T10:57:00.870Z</time>
      </trkpt>
      <trkpt lat="63.25773" lon="8.46508">
        <ele>150.761497</ele>
        <time>2020-08-04T10:57:03.859Z</time>
      </trkpt>
      <trkpt lat="63.25765" lon="8.46516">
        <ele>150.777994</ele>
        <time>2020-08-04T10:57:06.870Z</time>
      </trkpt>
      <trkpt lat="63.25755" lon="8.46525">
        <ele>150.79668</ele>
        <time>2020-08-04T10:57:09.871Z</time>
      </trkpt>
      <trkpt lat="63.25746" lon="8.46534">
        <ele>150.814648</ele>
        <time>2020-08-04T10:57:12.891Z</time>
      </trkpt>
      <trkpt lat="63.25738" lon="8.46544">
        <ele>150.832493</ele>
        <time>2020-08-04T10:57:15.859Z</time>
      </trkpt>
      <trkpt lat="63.25729" lon="8.46556">
        <ele>150.851948</ele>
        <time>2020-08-04T10:57:18.864Z</time>
      </trkpt>
      <trkpt lat="63.25719" lon="8.4657">
        <ele>150.872617</ele>
        <time>2020-08-04T10:57:21.895Z</time>
      </trkpt>
      <trkpt lat="63.2571" lon="8.46586">
        <ele>150.894388</ele>
        <time>2020-08-04T10:57:24.868Z</time>
      </trkpt>
      <trkpt lat="63.25701" lon="8.46605">
        <ele>150.917682</ele>
        <time>2020-08-04T10:57:27.871Z</time>
      </trkpt>
      <trkpt lat="63.25694" lon="8.46621">
        <ele>150.935011</ele>
        <time>2020-08-04T10:57:29.877Z</time>
      </trkpt>
      <trkpt lat="63.25687" lon="8.46638">
        <ele>150.954494</ele>
        <time>2020-08-04T10:57:31.899Z</time>
      </trkpt>
      <trkpt lat="63.25679" lon="8.46656">
        <ele>150.974639</ele>
        <time>2020-08-04T10:57:33.863Z</time>
      </trkpt>
      <trkpt lat="63.25673" lon="8.46677">
        <ele>150.995193</ele>
        <time>2020-08-04T10:57:35.876Z</time>
      </trkpt>
      <trkpt lat="63.25667" lon="8.46698">
        <ele>151.016078</ele>
        <time>2020-08-04T10:57:37.901Z</time>
      </trkpt>
      <trkpt lat="63.25661" lon="8.46723">
        <ele>151.038968</ele>
        <time>2020-08-04T10:57:39.875Z</time>
      </trkpt>
      <trkpt lat="63.25655" lon="8.4675">
        <ele>151.064139</ele>
        <time>2020-08-04T10:57:41.881Z</time>
      </trkpt>
      <trkpt lat="63.25649" lon="8.46781">
        <ele>149.983593</ele>
        <time>2020-08-04T10:57:43.885Z</time>
      </trkpt>
      <trkpt lat="63.25642" lon="8.46816">
        <ele>148.56287</ele>
        <time>2020-08-04T10:57:45.865Z</time>
      </trkpt>
      <trkpt lat="63.25639" lon="8.46835">
        <ele>147.798704</ele>
        <time>2020-08-04T10:57:46.882Z</time>
      </trkpt>
      <trkpt lat="63.25634" lon="8.46855">
        <ele>146.986439</ele>
        <time>2020-08-04T10:57:47.869Z</time>
      </trkpt>
      <trkpt lat="63.25629" lon="8.46875">
        <ele>146.120947</ele>
        <time>2020-08-04T10:57:48.871Z</time>
      </trkpt>
      <trkpt lat="63.25624" lon="8.46896">
        <ele>145.247712</ele>
        <time>2020-08-04T10:57:49.869Z</time>
      </trkpt>
      <trkpt lat="63.25619" lon="8.46918">
        <ele>144.352036</ele>
        <time>2020-08-04T10:57:50.870Z</time>
      </trkpt>
      <trkpt lat="63.25615" lon="8.46941">
        <ele>143.422905</ele>
        <time>2020-08-04T10:57:51.876Z</time>
      </trkpt>
      <trkpt lat="63.2561" lon="8.46964">
        <ele>142.490299</ele>
        <time>2020-08-04T10:57:52.856Z</time>
      </trkpt>
      <trkpt lat="63.25606" lon="8.46987">
        <ele>141.551034</ele>
        <time>2020-08-04T10:57:53.853Z</time>
      </trkpt>
      <trkpt lat="63.25601" lon="8.47011">
        <ele>140.601701</ele>
        <time>2020-08-04T10:57:54.860Z</time>
      </trkpt>
      <trkpt lat="63.25596" lon="8.47034">
        <ele>139.641221</ele>
        <time>2020-08-04T10:57:55.875Z</time>
      </trkpt>
      <trkpt lat="63.2559" lon="8.47058">
        <ele>138.670852</ele>
        <time>2020-08-04T10:57:56.898Z</time>
      </trkpt>
      <trkpt lat="63.25585" lon="8.47082">
        <ele>137.68063</ele>
        <time>2020-08-04T10:57:57.871Z</time>
      </trkpt>
      <trkpt lat="63.2558" lon="8.47106">
        <ele>136.690651</ele>
        <time>2020-08-04T10:57:58.871Z</time>
      </trkpt>
      <trkpt lat="63.25575" lon="8.4713">
        <ele>135.571224</ele>
        <time>2020-08-04T10:57:59.886Z</time>
      </trkpt>
      <trkpt lat="63.25569" lon="8.47155">
        <ele>134.3321</ele>
        <time>2020-08-04T10:58:00.869Z</time>
      </trkpt>
      <trkpt lat="63.25563" lon="8.47181">
        <ele>133.067822</ele>
        <time>2020-08-04T10:58:01.890Z</time>
      </trkpt>
      <trkpt lat="63.25557" lon="8.47207">
        <ele>131.770266</ele>
        <time>2020-08-04T10:58:02.890Z</time>
      </trkpt>
      <trkpt lat="63.2555" lon="8.47233">
        <ele>130.459483</ele>
        <time>2020-08-04T10:58:03.895Z</time>
      </trkpt>
      <trkpt lat="63.25544" lon="8.47258">
        <ele>129.13203</ele>
        <time>2020-08-04T10:58:04.900Z</time>
      </trkpt>
      <trkpt lat="63.25536" lon="8.47283">
        <ele>127.803083</ele>
        <time>2020-08-04T10:58:05.892Z</time>
      </trkpt>
      <trkpt lat="63.25528" lon="8.47309">
        <ele>126.428176</ele>
        <time>2020-08-04T10:58:06.865Z</time>
      </trkpt>
      <trkpt lat="63.25519" lon="8.47334">
        <ele>125.030353</ele>
        <time>2020-08-04T10:58:07.865Z</time>
      </trkpt>
      <trkpt lat="63.25511" lon="8.47358">
        <ele>123.671323</ele>
        <time>2020-08-04T10:58:08.862Z</time>
      </trkpt>
      <trkpt lat="63.25502" lon="8.4738">
        <ele>122.326545</ele>
        <time>2020-08-04T10:58:09.867Z</time>
      </trkpt>
      <trkpt lat="63.25492" lon="8.47403">
        <ele>120.947898</ele>
        <time>2020-08-04T10:58:10.886Z</time>
      </trkpt>
      <trkpt lat="63.25481" lon="8.47423">
        <ele>119.585886</ele>
        <time>2020-08-04T10:58:11.896Z</time>
      </trkpt>
      <trkpt lat="63.25471" lon="8.47442">
        <ele>118.296677</ele>
        <time>2020-08-04T10:58:12.877Z</time>
      </trkpt>
      <trkpt lat="63.2546" lon="8.4746">
        <ele>117.150264</ele>
        <time>2020-08-04T10:58:13.870Z</time>
      </trkpt>
      <trkpt lat="63.25447" lon="8.47477">
        <ele>115.942182</ele>
        <time>2020-08-04T10:58:14.915Z</time>
      </trkpt>
      <trkpt lat="63.25435" lon="8.47493">
        <ele>114.71834</ele>
        <time>2020-08-04T10:58:15.908Z</time>
      </trkpt>
      <trkpt lat="63.25422" lon="8.47508">
        <ele>113.492625</ele>
        <time>2020-08-04T10:58:16.859Z</time>
      </trkpt>
      <trkpt lat="63.25409" lon="8.47523">
        <ele>112.25521</ele>
        <time>2020-08-04T10:58:17.873Z</time>
      </trkpt>
      <trkpt lat="63.25395" lon="8.47536">
        <ele>111.018087</ele>
        <time>2020-08-04T10:58:18.882Z</time>
      </trkpt>
      <trkpt lat="63.25382" lon="8.47548">
        <ele>109.807499</ele>
        <time>2020-08-04T10:58:19.885Z</time>
      </trkpt>
      <trkpt lat="63.25368" lon="8.47558">
        <ele>108.591398</ele>
        <time>2020-08-04T10:58:20.894Z</time>
      </trkpt>
      <trkpt lat="63.25354" lon="8.47567">
        <ele>107.361962</ele>
        <time>2020-08-04T10:58:21.883Z</time>
      </trkpt>
      <trkpt lat="63.2534" lon="8.47575">
        <ele>106.118337</ele>
        <time>2020-08-04T10:58:22.915Z</time>
      </trkpt>
      <trkpt lat="63.25325" lon="8.47581">
        <ele>104.860234</ele>
        <time>2020-08-04T10:58:23.880Z</time>
      </trkpt>
      <trkpt lat="63.2531" lon="8.47586">
        <ele>103.597879</ele>
        <time>2020-08-04T10:58:24.869Z</time>
      </trkpt>
      <trkpt lat="63.25296" lon="8.47593">
        <ele>102.262568</ele>
        <time>2020-08-04T10:58:25.853Z</time>
      </trkpt>
      <trkpt lat="63.25282" lon="8.476">
        <ele>100.939503</ele>
        <time>2020-08-04T10:58:26.900Z</time>
      </trkpt>
      <trkpt lat="63.25268" lon="8.47608">
        <ele>99.623239</ele>
        <time>2020-08-04T10:58:27.868Z</time>
      </trkpt>
      <trkpt lat="63.25254" lon="8.47619">
        <ele>98.305213</ele>
        <time>2020-08-04T10:58:28.863Z</time>
      </trkpt>
      <trkpt lat="63.25242" lon="8.47633">
        <ele>97.004124</ele>
        <time>2020-08-04T10:58:29.859Z</time>
      </trkpt>
      <trkpt lat="63.25229" lon="8.47648">
        <ele>95.718914</ele>
        <time>2020-08-04T10:58:30.862Z</time>
      </trkpt>
      <trkpt lat="63.25218" lon="8.47664">
        <ele>94.492357</ele>
        <time>2020-08-04T10:58:31.884Z</time>
      </trkpt>
      <trkpt lat="63.25207" lon="8.47679">
        <ele>93.298955</ele>
        <time>2020-08-04T10:58:32.878Z</time>
      </trkpt>
      <trkpt lat="63.25196" lon="8.47695">
        <ele>92.088808</ele>
        <time>2020-08-04T10:58:33.888Z</time>
      </trkpt>
      <trkpt lat="63.25184" lon="8.47708">
        <ele>90.91355</ele>
        <time>2020-08-04T10:58:34.852Z</time>
      </trkpt>
      <trkpt lat="63.25173" lon="8.4772">
        <ele>89.760261</ele>
        <time>2020-08-04T10:58:35.900Z</time>
      </trkpt>
      <trkpt lat="63.25161" lon="8.47729">
        <ele>88.610681</ele>
        <time>2020-08-04T10:58:36.871Z</time>
      </trkpt>
      <trkpt lat="63.25149" lon="8.47736">
        <ele>87.461878</ele>
        <time>2020-08-04T10:58:37.869Z</time>
      </trkpt>
      <trkpt lat="63.25137" lon="8.47743">
        <ele>86.421268</ele>
        <time>2020-08-04T10:58:38.870Z</time>
      </trkpt>
      <trkpt lat="63.25124" lon="8.47747">
        <ele>85.424294</ele>
        <time>2020-08-04T10:58:39.875Z</time>
      </trkpt>
      <trkpt lat="63.25112" lon="8.47751">
        <ele>84.491729</ele>
        <time>2020-08-04T10:58:40.896Z</time>
      </trkpt>
      <trkpt lat="63.25101" lon="8.47755">
        <ele>83.591914</ele>
        <time>2020-08-04T10:58:41.886Z</time>
      </trkpt>
      <trkpt lat="63.25091" lon="8.4776">
        <ele>82.758876</ele>
        <time>2020-08-04T10:58:42.910Z</time>
      </trkpt>
      <trkpt lat="63.25081" lon="8.47764">
        <ele>81.979877</ele>
        <time>2020-08-04T10:58:43.879Z</time>
      </trkpt>
      <trkpt lat="63.25072" lon="8.47769">
        <ele>81.220945</ele>
        <time>2020-08-04T10:58:44.867Z</time>
      </trkpt>
      <trkpt lat="63.25062" lon="8.47774">
        <ele>80.455169</ele>
        <time>2020-08-04T10:58:45.852Z</time>
      </trkpt>
      <trkpt lat="63.25053" lon="8.47781">
        <ele>79.708299</ele>
        <time>2020-08-04T10:58:46.892Z</time>
      </trkpt>
      <trkpt lat="63.25045" lon="8.47789">
        <ele>78.973305</ele>
        <time>2020-08-04T10:58:47.893Z</time>
      </trkpt>
      <trkpt lat="63.25029" lon="8.47807">
        <ele>77.583151</ele>
        <time>2020-08-04T10:58:49.862Z</time>
      </trkpt>
      <trkpt lat="63.25015" lon="8.47827">
        <ele>76.306712</ele>
        <time>2020-08-04T10:58:51.872Z</time>
      </trkpt>
      <trkpt lat="63.25003" lon="8.47841">
        <ele>75.225027</ele>
        <time>2020-08-04T10:58:53.903Z</time>
      </trkpt>
      <trkpt lat="63.24993" lon="8.47854">
        <ele>74.292661</ele>
        <time>2020-08-04T10:58:55.888Z</time>
      </trkpt>
      <trkpt lat="63.24983" lon="8.47873">
        <ele>73.293712</ele>
        <time>2020-08-04T10:58:57.876Z</time>
      </trkpt>
      <trkpt lat="63.2498" lon="8.47899">
        <ele>72.992175</ele>
        <time>2020-08-04T10:58:59.897Z</time>
      </trkpt>
      <trkpt lat="63.24983" lon="8.47928">
        <ele>73.1476</ele>
        <time>2020-08-04T10:59:01.875Z</time>
      </trkpt>
      <trkpt lat="63.24988" lon="8.47956">
        <ele>73.300584</ele>
        <time>2020-08-04T10:59:03.859Z</time>
      </trkpt>
      <trkpt lat="63.24992" lon="8.47977">
        <ele>73.420127</ele>
        <time>2020-08-04T10:59:05.872Z</time>
      </trkpt>
      <trkpt lat="63.24995" lon="8.48004">
        <ele>73.56247</ele>
        <time>2020-08-04T10:59:08.872Z</time>
      </trkpt>
      <trkpt lat="63.24997" lon="8.48025">
        <ele>73.673497</ele>
        <time>2020-08-04T10:59:11.877Z</time>
      </trkpt>
      <trkpt lat="63.24998" lon="8.48049">
        <ele>73.797455</ele>
        <time>2020-08-04T10:59:15.891Z</time>
      </trkpt>
      <trkpt lat="63.25001" lon="8.48071">
        <ele>73.91482</ele>
        <time>2020-08-04T10:59:20.880Z</time>
      </trkpt>
      <trkpt lat="63.25003" lon="8.4809">
        <ele>74.019303</ele>
        <time>2020-08-04T10:59:25.861Z</time>
      </trkpt>
      <trkpt lat="63.25005" lon="8.48111">
        <ele>74.130281</ele>
        <time>2020-08-04T10:59:30.860Z</time>
      </trkpt>
      <trkpt lat="63.25008" lon="8.48133">
        <ele>74.245641</ele>
        <time>2020-08-04T10:59:35.871Z</time>
      </trkpt>
      <trkpt lat="63.2501" lon="8.48155">
        <ele>74.364735</ele>
        <time>2020-08-04T10:59:40.880Z</time>
      </trkpt>
      <trkpt lat="63.25013" lon="8.48178">
        <ele>74.484338</ele>
        <time>2020-08-04T10:59:45.876Z</time>
      </trkpt>
      <trkpt lat="63.25016" lon="8.482">
        <ele>74.606121</ele>
        <time>2020-08-04T10:59:50.869Z</time>
      </trkpt>
      <trkpt lat="63.25019" lon="8.4822">
        <ele>74.71561</ele>
        <time>2020-08-04T10:59:54.884Z</time>
      </trkpt>
      <trkpt lat="63.25021" lon="8.48242">
        <ele>74.830761</ele>
        <time>2020-08-04T10:59:58.883Z</time>
      </trkpt>
      <trkpt lat="63.25024" lon="8.48264">
        <ele>74.948352</ele>
        <time>2020-08-04T11:00:02.878Z</time>
      </trkpt>
      <trkpt lat="63.25026" lon="8.48288">
        <ele>74.814932</ele>
        <time>2020-08-04T11:00:06.895Z</time>
      </trkpt>
      <trkpt lat="63.25029" lon="8.48312">
        <ele>74.606875</ele>
        <time>2020-08-04T11:00:10.873Z</time>
      </trkpt>
      <trkpt lat="63.25031" lon="8.48336">
        <ele>74.393653</ele>
        <time>2020-08-04T11:00:14.890Z</time>
      </trkpt>
      <trkpt lat="63.25033" lon="8.48357">
        <ele>74.219521</ele>
        <time>2020-08-04T11:00:17.868Z</time>
      </trkpt>
      <trkpt lat="63.25035" lon="8.4838">
        <ele>74.019417</ele>
        <time>2020-08-04T11:00:20.876Z</time>
      </trkpt>
      <trkpt lat="63.25038" lon="8.48407">
        <ele>73.780683</ele>
        <time>2020-08-04T11:00:23.876Z</time>
      </trkpt>
      <trkpt lat="63.25041" lon="8.48428">
        <ele>73.599133</ele>
        <time>2020-08-04T11:00:25.890Z</time>
      </trkpt>
      <trkpt lat="63.25043" lon="8.48451">
        <ele>73.403119</ele>
        <time>2020-08-04T11:00:27.866Z</time>
      </trkpt>
      <trkpt lat="63.25046" lon="8.48475">
        <ele>73.189826</ele>
        <time>2020-08-04T11:00:29.861Z</time>
      </trkpt>
      <trkpt lat="63.25049" lon="8.48502">
        <ele>72.957242</ele>
        <time>2020-08-04T11:00:31.860Z</time>
      </trkpt>
      <trkpt lat="63.25052" lon="8.4853">
        <ele>72.710561</ele>
        <time>2020-08-04T11:00:33.886Z</time>
      </trkpt>
      <trkpt lat="63.25056" lon="8.48559">
        <ele>72.461773</ele>
        <time>2020-08-04T11:00:35.923Z</time>
      </trkpt>
      <trkpt lat="63.25059" lon="8.48587">
        <ele>72.212282</ele>
        <time>2020-08-04T11:00:37.868Z</time>
      </trkpt>
      <trkpt lat="63.25062" lon="8.48614">
        <ele>71.978878</ele>
        <time>2020-08-04T11:00:39.870Z</time>
      </trkpt>
      <trkpt lat="63.25066" lon="8.48636">
        <ele>71.783282</ele>
        <time>2020-08-04T11:00:41.853Z</time>
      </trkpt>
      <trkpt lat="63.25077" lon="8.48647">
        <ele>71.614597</ele>
        <time>2020-08-04T11:00:44.879Z</time>
      </trkpt>
      <trkpt lat="63.25087" lon="8.48657">
        <ele>71.655028</ele>
        <time>2020-08-04T11:00:47.875Z</time>
      </trkpt>
      <trkpt lat="63.25094" lon="8.48677">
        <ele>71.696907</ele>
        <time>2020-08-04T11:00:50.872Z</time>
      </trkpt>
      <trkpt lat="63.251" lon="8.48703">
        <ele>71.747106</ele>
        <time>2020-08-04T11:03:11.876Z</time>
      </trkpt>
      <trkpt lat="63.25094" lon="8.48718">
        <ele>71.780807</ele>
        <time>2020-08-04T11:03:14.873Z</time>
      </trkpt>
      <trkpt lat="63.25089" lon="8.48738">
        <ele>71.820553</ele>
        <time>2020-08-04T11:03:18.887Z</time>
      </trkpt>
      <trkpt lat="63.2509" lon="8.48763">
        <ele>71.862099</ele>
        <time>2020-08-04T11:03:22.856Z</time>
      </trkpt>
      <trkpt lat="63.25092" lon="8.48782">
        <ele>71.89585</ele>
        <time>2020-08-04T11:03:25.886Z</time>
      </trkpt>
      <trkpt lat="63.25095" lon="8.48803">
        <ele>71.932281</ele>
        <time>2020-08-04T11:03:28.877Z</time>
      </trkpt>
      <trkpt lat="63.251" lon="8.48825">
        <ele>71.973044</ele>
        <time>2020-08-04T11:03:31.882Z</time>
      </trkpt>
      <trkpt lat="63.25106" lon="8.48848">
        <ele>72.019738</ele>
        <time>2020-08-04T11:03:34.854Z</time>
      </trkpt>
      <trkpt lat="63.25113" lon="8.48871">
        <ele>72.06483</ele>
        <time>2020-08-04T11:03:37.867Z</time>
      </trkpt>
      <trkpt lat="63.25121" lon="8.48894">
        <ele>72.114262</ele>
        <time>2020-08-04T11:03:40.871Z</time>
      </trkpt>
      <trkpt lat="63.25129" lon="8.48917">
        <ele>72.162748</ele>
        <time>2020-08-04T11:03:43.882Z</time>
      </trkpt>
      <trkpt lat="63.25136" lon="8.4894">
        <ele>72.210035</ele>
        <time>2020-08-04T11:03:46.858Z</time>
      </trkpt>
      <trkpt lat="63.25145" lon="8.48962">
        <ele>72.259839</ele>
        <time>2020-08-04T11:03:49.870Z</time>
      </trkpt>
      <trkpt lat="63.25152" lon="8.48983">
        <ele>72.224057</ele>
        <time>2020-08-04T11:03:52.868Z</time>
      </trkpt>
      <trkpt lat="63.2516" lon="8.49005">
        <ele>72.144479</ele>
        <time>2020-08-04T11:03:55.876Z</time>
      </trkpt>
      <trkpt lat="63.25167" lon="8.4902">
        <ele>72.086647</ele>
        <time>2020-08-04T11:03:57.868Z</time>
      </trkpt>
      <trkpt lat="63.25173" lon="8.49034">
        <ele>72.029467</ele>
        <time>2020-08-04T11:03:59.892Z</time>
      </trkpt>
      <trkpt lat="63.2518" lon="8.49047">
        <ele>71.972165</ele>
        <time>2020-08-04T11:04:01.877Z</time>
      </trkpt>
      <trkpt lat="63.25187" lon="8.49062">
        <ele>71.908425</ele>
        <time>2020-08-04T11:04:03.892Z</time>
      </trkpt>
      <trkpt lat="63.25195" lon="8.49077">
        <ele>71.841039</ele>
        <time>2020-08-04T11:04:05.865Z</time>
      </trkpt>
      <trkpt lat="63.25203" lon="8.49092">
        <ele>71.776259</ele>
        <time>2020-08-04T11:04:07.924Z</time>
      </trkpt>
      <trkpt lat="63.25211" lon="8.49106">
        <ele>71.70995</ele>
        <time>2020-08-04T11:04:09.871Z</time>
      </trkpt>
      <trkpt lat="63.2522" lon="8.49121">
        <ele>71.642309</ele>
        <time>2020-08-04T11:04:11.877Z</time>
      </trkpt>
      <trkpt lat="63.25228" lon="8.49135">
        <ele>71.577526</ele>
        <time>2020-08-04T11:04:13.874Z</time>
      </trkpt>
      <trkpt lat="63.25236" lon="8.49149">
        <ele>71.511918</ele>
        <time>2020-08-04T11:04:15.872Z</time>
      </trkpt>
      <trkpt lat="63.25244" lon="8.49163">
        <ele>71.443407</ele>
        <time>2020-08-04T11:04:17.873Z</time>
      </trkpt>
      <trkpt lat="63.25253" lon="8.49178">
        <ele>71.375216</ele>
        <time>2020-08-04T11:04:19.874Z</time>
      </trkpt>
      <trkpt lat="63.25262" lon="8.49192">
        <ele>71.306034</ele>
        <time>2020-08-04T11:04:21.880Z</time>
      </trkpt>
      <trkpt lat="63.2527" lon="8.49206">
        <ele>71.239077</ele>
        <time>2020-08-04T11:04:23.902Z</time>
      </trkpt>
      <trkpt lat="63.25279" lon="8.4922">
        <ele>71.172602</ele>
        <time>2020-08-04T11:04:25.867Z</time>
      </trkpt>
      <trkpt lat="63.25287" lon="8.49232">
        <ele>71.026349</ele>
        <time>2020-08-04T11:04:27.870Z</time>
      </trkpt>
      <trkpt lat="63.25296" lon="8.49244">
        <ele>70.766717</ele>
        <time>2020-08-04T11:04:29.888Z</time>
      </trkpt>
      <trkpt lat="63.25305" lon="8.49256">
        <ele>70.49992</ele>
        <time>2020-08-04T11:04:31.878Z</time>
      </trkpt>
      <trkpt lat="63.25314" lon="8.49268">
        <ele>70.228138</ele>
        <time>2020-08-04T11:04:33.914Z</time>
      </trkpt>
      <trkpt lat="63.25324" lon="8.49278">
        <ele>69.955694</ele>
        <time>2020-08-04T11:04:35.882Z</time>
      </trkpt>
      <trkpt lat="63.25333" lon="8.4929">
        <ele>69.683378</ele>
        <time>2020-08-04T11:04:37.922Z</time>
      </trkpt>
      <trkpt lat="63.25343" lon="8.49301">
        <ele>69.411064</ele>
        <time>2020-08-04T11:04:39.874Z</time>
      </trkpt>
      <trkpt lat="63.25353" lon="8.49312">
        <ele>69.119563</ele>
        <time>2020-08-04T11:04:41.896Z</time>
      </trkpt>
      <trkpt lat="63.25364" lon="8.49324">
        <ele>68.80771</ele>
        <time>2020-08-04T11:04:43.872Z</time>
      </trkpt>
      <trkpt lat="63.25375" lon="8.49337">
        <ele>68.494548</ele>
        <time>2020-08-04T11:04:45.874Z</time>
      </trkpt>
      <trkpt lat="63.25386" lon="8.4935">
        <ele>68.169241</ele>
        <time>2020-08-04T11:04:47.860Z</time>
      </trkpt>
      <trkpt lat="63.25398" lon="8.49366">
        <ele>67.821471</ele>
        <time>2020-08-04T11:04:49.869Z</time>
      </trkpt>
      <trkpt lat="63.2541" lon="8.49382">
        <ele>67.453055</ele>
        <time>2020-08-04T11:04:51.935Z</time>
      </trkpt>
      <trkpt lat="63.25423" lon="8.494">
        <ele>67.074012</ele>
        <time>2020-08-04T11:04:53.861Z</time>
      </trkpt>
      <trkpt lat="63.25435" lon="8.49421">
        <ele>66.669737</ele>
        <time>2020-08-04T11:04:55.868Z</time>
      </trkpt>
      <trkpt lat="63.25448" lon="8.49446">
        <ele>66.016539</ele>
        <time>2020-08-04T11:04:57.881Z</time>
      </trkpt>
      <trkpt lat="63.25459" lon="8.49471">
        <ele>65.283184</ele>
        <time>2020-08-04T11:04:59.870Z</time>
      </trkpt>
      <trkpt lat="63.2547" lon="8.49498">
        <ele>64.537599</ele>
        <time>2020-08-04T11:05:01.919Z</time>
      </trkpt>
      <trkpt lat="63.25481" lon="8.49528">
        <ele>63.771438</ele>
        <time>2020-08-04T11:05:03.865Z</time>
      </trkpt>
      <trkpt lat="63.25491" lon="8.4956">
        <ele>62.965993</ele>
        <time>2020-08-04T11:05:05.874Z</time>
      </trkpt>
      <trkpt lat="63.25496" lon="8.49577">
        <ele>62.550313</ele>
        <time>2020-08-04T11:05:06.873Z</time>
      </trkpt>
      <trkpt lat="63.25502" lon="8.49594">
        <ele>62.127059</ele>
        <time>2020-08-04T11:05:07.929Z</time>
      </trkpt>
      <trkpt lat="63.25507" lon="8.49612">
        <ele>61.697873</ele>
        <time>2020-08-04T11:05:08.870Z</time>
      </trkpt>
      <trkpt lat="63.25512" lon="8.4963">
        <ele>61.264275</ele>
        <time>2020-08-04T11:05:09.872Z</time>
      </trkpt>
      <trkpt lat="63.25517" lon="8.49648">
        <ele>60.830678</ele>
        <time>2020-08-04T11:05:10.872Z</time>
      </trkpt>
      <trkpt lat="63.25522" lon="8.49665">
        <ele>60.412457</ele>
        <time>2020-08-04T11:05:11.880Z</time>
      </trkpt>
      <trkpt lat="63.25527" lon="8.49682">
        <ele>60.007702</ele>
        <time>2020-08-04T11:05:12.863Z</time>
      </trkpt>
      <trkpt lat="63.25533" lon="8.49698">
        <ele>59.592422</ele>
        <time>2020-08-04T11:05:13.864Z</time>
      </trkpt>
      <trkpt lat="63.25544" lon="8.49729">
        <ele>58.787407</ele>
        <time>2020-08-04T11:05:15.873Z</time>
      </trkpt>
      <trkpt lat="63.25557" lon="8.49756">
        <ele>58.452091</ele>
        <time>2020-08-04T11:05:17.893Z</time>
      </trkpt>
      <trkpt lat="63.2557" lon="8.4978">
        <ele>58.497517</ele>
        <time>2020-08-04T11:05:19.873Z</time>
      </trkpt>
      <trkpt lat="63.25584" lon="8.49802">
        <ele>58.542033</ele>
        <time>2020-08-04T11:05:21.879Z</time>
      </trkpt>
      <trkpt lat="63.25598" lon="8.49819">
        <ele>58.584198</ele>
        <time>2020-08-04T11:05:23.896Z</time>
      </trkpt>
      <trkpt lat="63.25611" lon="8.49833">
        <ele>58.622909</ele>
        <time>2020-08-04T11:05:25.876Z</time>
      </trkpt>
      <trkpt lat="63.25623" lon="8.49846">
        <ele>58.657972</ele>
        <time>2020-08-04T11:05:27.887Z</time>
      </trkpt>
      <trkpt lat="63.25635" lon="8.49856">
        <ele>58.693096</ele>
        <time>2020-08-04T11:05:29.863Z</time>
      </trkpt>
      <trkpt lat="63.25647" lon="8.49862">
        <ele>58.726779</ele>
        <time>2020-08-04T11:05:31.861Z</time>
      </trkpt>
      <trkpt lat="63.2566" lon="8.49867">
        <ele>58.76122</ele>
        <time>2020-08-04T11:05:33.859Z</time>
      </trkpt>
      <trkpt lat="63.25671" lon="8.4987">
        <ele>58.791102</ele>
        <time>2020-08-04T11:05:35.879Z</time>
      </trkpt>
      <trkpt lat="63.25682" lon="8.49872">
        <ele>58.820301</ele>
        <time>2020-08-04T11:05:37.869Z</time>
      </trkpt>
      <trkpt lat="63.25692" lon="8.49872">
        <ele>58.845212</ele>
        <time>2020-08-04T11:05:39.888Z</time>
      </trkpt>
      <trkpt lat="63.25704" lon="8.49871">
        <ele>58.878625</ele>
        <time>2020-08-04T11:05:42.878Z</time>
      </trkpt>
      <trkpt lat="63.25716" lon="8.49868">
        <ele>58.93955</ele>
        <time>2020-08-04T11:05:45.866Z</time>
      </trkpt>
      <trkpt lat="63.25727" lon="8.49864">
        <ele>59.097882</ele>
        <time>2020-08-04T11:05:48.856Z</time>
      </trkpt>
      <trkpt lat="63.25736" lon="8.49859">
        <ele>59.225121</ele>
        <time>2020-08-04T11:05:51.866Z</time>
      </trkpt>
      <trkpt lat="63.25746" lon="8.49853">
        <ele>59.361613</ele>
        <time>2020-08-04T11:05:54.859Z</time>
      </trkpt>
      <trkpt lat="63.25754" lon="8.49848">
        <ele>59.487662</ele>
        <time>2020-08-04T11:05:57.898Z</time>
      </trkpt>
      <trkpt lat="63.25763" lon="8.49844">
        <ele>59.614959</ele>
        <time>2020-08-04T11:06:00.894Z</time>
      </trkpt>
      <trkpt lat="63.25774" lon="8.4984">
        <ele>59.771448</ele>
        <time>2020-08-04T11:06:03.854Z</time>
      </trkpt>
      <trkpt lat="63.25787" lon="8.49836">
        <ele>59.947799</ele>
        <time>2020-08-04T11:06:06.885Z</time>
      </trkpt>
      <trkpt lat="63.258" lon="8.49833">
        <ele>60.130796</ele>
        <time>2020-08-04T11:06:09.885Z</time>
      </trkpt>
      <trkpt lat="63.25809" lon="8.49832">
        <ele>60.26253</ele>
        <time>2020-08-04T11:06:11.881Z</time>
      </trkpt>
      <trkpt lat="63.25821" lon="8.49831">
        <ele>60.426245</ele>
        <time>2020-08-04T11:06:13.883Z</time>
      </trkpt>
      <trkpt lat="63.25835" lon="8.49833">
        <ele>60.618156</ele>
        <time>2020-08-04T11:06:15.875Z</time>
      </trkpt>
      <trkpt lat="63.25849" lon="8.49835">
        <ele>60.827043</ele>
        <time>2020-08-04T11:06:17.886Z</time>
      </trkpt>
      <trkpt lat="63.25864" lon="8.49838">
        <ele>61.026554</ele>
        <time>2020-08-04T11:06:19.892Z</time>
      </trkpt>
      <trkpt lat="63.25878" lon="8.49844">
        <ele>61.231156</ele>
        <time>2020-08-04T11:06:21.882Z</time>
      </trkpt>
      <trkpt lat="63.25892" lon="8.49852">
        <ele>61.382615</ele>
        <time>2020-08-04T11:06:23.856Z</time>
      </trkpt>
      <trkpt lat="63.25906" lon="8.4986">
        <ele>60.752837</ele>
        <time>2020-08-04T11:06:25.881Z</time>
      </trkpt>
      <trkpt lat="63.2592" lon="8.49868">
        <ele>60.122841</ele>
        <time>2020-08-04T11:06:27.870Z</time>
      </trkpt>
      <trkpt lat="63.25933" lon="8.49877">
        <ele>59.506361</ele>
        <time>2020-08-04T11:06:29.894Z</time>
      </trkpt>
      <trkpt lat="63.25947" lon="8.49887">
        <ele>58.894665</ele>
        <time>2020-08-04T11:06:31.875Z</time>
      </trkpt>
      <trkpt lat="63.2596" lon="8.49896">
        <ele>58.280967</ele>
        <time>2020-08-04T11:06:33.861Z</time>
      </trkpt>
      <trkpt lat="63.25973" lon="8.49903">
        <ele>57.683234</ele>
        <time>2020-08-04T11:06:35.859Z</time>
      </trkpt>
      <trkpt lat="63.25986" lon="8.49909">
        <ele>57.115021</ele>
        <time>2020-08-04T11:06:37.864Z</time>
      </trkpt>
      <trkpt lat="63.25998" lon="8.49914">
        <ele>56.569296</ele>
        <time>2020-08-04T11:06:39.894Z</time>
      </trkpt>
      <trkpt lat="63.2601" lon="8.49918">
        <ele>56.033816</ele>
        <time>2020-08-04T11:06:41.870Z</time>
      </trkpt>
      <trkpt lat="63.26022" lon="8.49921">
        <ele>55.515021</ele>
        <time>2020-08-04T11:06:43.880Z</time>
      </trkpt>
      <trkpt lat="63.26034" lon="8.49924">
        <ele>54.983793</ele>
        <time>2020-08-04T11:06:45.916Z</time>
      </trkpt>
      <trkpt lat="63.26047" lon="8.49925">
        <ele>54.441489</ele>
        <time>2020-08-04T11:06:47.893Z</time>
      </trkpt>
      <trkpt lat="63.26059" lon="8.49924">
        <ele>53.912635</ele>
        <time>2020-08-04T11:06:49.872Z</time>
      </trkpt>
      <trkpt lat="63.26071" lon="8.49923">
        <ele>53.636229</ele>
        <time>2020-08-04T11:06:51.911Z</time>
      </trkpt>
      <trkpt lat="63.26083" lon="8.49922">
        <ele>53.867527</ele>
        <time>2020-08-04T11:06:53.868Z</time>
      </trkpt>
      <trkpt lat="63.26094" lon="8.49921">
        <ele>54.092931</ele>
        <time>2020-08-04T11:06:55.881Z</time>
      </trkpt>
      <trkpt lat="63.26106" lon="8.49919">
        <ele>54.311171</ele>
        <time>2020-08-04T11:06:57.864Z</time>
      </trkpt>
      <trkpt lat="63.26116" lon="8.49917">
        <ele>54.523398</ele>
        <time>2020-08-04T11:06:59.909Z</time>
      </trkpt>
      <trkpt lat="63.26127" lon="8.49915">
        <ele>54.729956</ele>
        <time>2020-08-04T11:07:01.891Z</time>
      </trkpt>
      <trkpt lat="63.26137" lon="8.49913">
        <ele>54.923056</ele>
        <time>2020-08-04T11:07:03.880Z</time>
      </trkpt>
      <trkpt lat="63.26146" lon="8.49911">
        <ele>55.10246</ele>
        <time>2020-08-04T11:07:05.876Z</time>
      </trkpt>
      <trkpt lat="63.26155" lon="8.49909">
        <ele>55.283449</ele>
        <time>2020-08-04T11:07:07.858Z</time>
      </trkpt>
      <trkpt lat="63.26168" lon="8.49907">
        <ele>55.534731</ele>
        <time>2020-08-04T11:07:10.877Z</time>
      </trkpt>
      <trkpt lat="63.26181" lon="8.49904">
        <ele>55.780602</ele>
        <time>2020-08-04T11:07:13.883Z</time>
      </trkpt>
      <trkpt lat="63.26193" lon="8.49902">
        <ele>56.018337</ele>
        <time>2020-08-04T11:07:16.861Z</time>
      </trkpt>
      <trkpt lat="63.26205" lon="8.49901">
        <ele>56.239773</ele>
        <time>2020-08-04T11:07:19.855Z</time>
      </trkpt>
      <trkpt lat="63.26215" lon="8.49899">
        <ele>56.436909</ele>
        <time>2020-08-04T11:07:22.866Z</time>
      </trkpt>
      <trkpt lat="63.26224" lon="8.49896">
        <ele>56.62899</ele>
        <time>2020-08-04T11:07:25.854Z</time>
      </trkpt>
      <trkpt lat="63.26234" lon="8.49894">
        <ele>56.820333</ele>
        <time>2020-08-04T11:07:28.900Z</time>
      </trkpt>
      <trkpt lat="63.26244" lon="8.49893">
        <ele>57.00892</ele>
        <time>2020-08-04T11:07:31.882Z</time>
      </trkpt>
      <trkpt lat="63.26255" lon="8.4989">
        <ele>57.929653</ele>
        <time>2020-08-04T11:07:35.896Z</time>
      </trkpt>
      <trkpt lat="63.26266" lon="8.4989">
        <ele>58.949431</ele>
        <time>2020-08-04T11:07:39.908Z</time>
      </trkpt>
      <trkpt lat="63.26276" lon="8.49889">
        <ele>59.883594</ele>
        <time>2020-08-04T11:07:43.873Z</time>
      </trkpt>
      <trkpt lat="63.26285" lon="8.49886">
        <ele>60.77691</ele>
        <time>2020-08-04T11:07:47.882Z</time>
      </trkpt>
      <trkpt lat="63.26294" lon="8.49883">
        <ele>61.661301</ele>
        <time>2020-08-04T11:07:51.905Z</time>
      </trkpt>
      <trkpt lat="63.26303" lon="8.49881">
        <ele>62.591157</ele>
        <time>2020-08-04T11:07:55.865Z</time>
      </trkpt>
      <trkpt lat="63.26312" lon="8.49879">
        <ele>63.460871</ele>
        <time>2020-08-04T11:07:59.880Z</time>
      </trkpt>
      <trkpt lat="63.26323" lon="8.49876">
        <ele>64.524611</ele>
        <time>2020-08-04T11:08:04.875Z</time>
      </trkpt>
      <trkpt lat="63.26333" lon="8.49874">
        <ele>65.41735</ele>
        <time>2020-08-04T11:08:08.862Z</time>
      </trkpt>
      <trkpt lat="63.26342" lon="8.49872">
        <ele>66.305114</ele>
        <time>2020-08-04T11:08:12.901Z</time>
      </trkpt>
      <trkpt lat="63.26352" lon="8.49868">
        <ele>67.325231</ele>
        <time>2020-08-04T11:08:17.927Z</time>
      </trkpt>
      <trkpt lat="63.26362" lon="8.49864">
        <ele>68.320903</ele>
        <time>2020-08-04T11:08:22.885Z</time>
      </trkpt>
      <trkpt lat="63.26372" lon="8.49857">
        <ele>69.311164</ele>
        <time>2020-08-04T11:08:27.883Z</time>
      </trkpt>
      <trkpt lat="63.26382" lon="8.49848">
        <ele>70.366909</ele>
        <time>2020-08-04T11:08:32.879Z</time>
      </trkpt>
      <trkpt lat="63.26393" lon="8.49839">
        <ele>71.428464</ele>
        <time>2020-08-04T11:08:37.859Z</time>
      </trkpt>
      <trkpt lat="63.26402" lon="8.49834">
        <ele>72.361401</ele>
        <time>2020-08-04T11:08:41.894Z</time>
      </trkpt>
      <trkpt lat="63.26469" lon="8.49659">
        <ele>71.98275</ele>
        <time>2020-08-04T11:09:04.921Z</time>
      </trkpt>
      <trkpt lat="63.2649" lon="8.49664">
        <ele>71.36103</ele>
        <time>2020-08-04T11:09:05.876Z</time>
      </trkpt>
      <trkpt lat="63.26508" lon="8.49679">
        <ele>70.805202</ele>
        <time>2020-08-04T11:09:06.916Z</time>
      </trkpt>
      <trkpt lat="63.26518" lon="8.49681">
        <ele>70.520867</ele>
        <time>2020-08-04T11:09:07.892Z</time>
      </trkpt>
      <trkpt lat="63.26528" lon="8.49679">
        <ele>70.23626</ele>
        <time>2020-08-04T11:09:08.864Z</time>
      </trkpt>
      <trkpt lat="63.26541" lon="8.49668">
        <ele>69.822525</ele>
        <time>2020-08-04T11:09:10.879Z</time>
      </trkpt>
      <trkpt lat="63.26552" lon="8.49652">
        <ele>69.440904</ele>
        <time>2020-08-04T11:09:12.879Z</time>
      </trkpt>
      <trkpt lat="63.26564" lon="8.49634">
        <ele>68.989588</ele>
        <time>2020-08-04T11:09:14.875Z</time>
      </trkpt>
      <trkpt lat="63.26576" lon="8.49618">
        <ele>68.444615</ele>
        <time>2020-08-04T11:09:16.877Z</time>
      </trkpt>
      <trkpt lat="63.26588" lon="8.49605">
        <ele>67.911146</ele>
        <time>2020-08-04T11:09:18.856Z</time>
      </trkpt>
      <trkpt lat="63.26601" lon="8.49592">
        <ele>67.371628</ele>
        <time>2020-08-04T11:09:20.863Z</time>
      </trkpt>
      <trkpt lat="63.26613" lon="8.49583">
        <ele>66.884688</ele>
        <time>2020-08-04T11:09:22.891Z</time>
      </trkpt>
      <trkpt lat="63.26624" lon="8.49575">
        <ele>66.4259</ele>
        <time>2020-08-04T11:09:24.899Z</time>
      </trkpt>
      <trkpt lat="63.26635" lon="8.49569">
        <ele>65.977219</ele>
        <time>2020-08-04T11:09:26.894Z</time>
      </trkpt>
      <trkpt lat="63.26646" lon="8.49565">
        <ele>65.555214</ele>
        <time>2020-08-04T11:09:28.890Z</time>
      </trkpt>
      <trkpt lat="63.26656" lon="8.49562">
        <ele>65.138359</ele>
        <time>2020-08-04T11:09:30.895Z</time>
      </trkpt>
      <trkpt lat="63.26667" lon="8.49561">
        <ele>64.721016</ele>
        <time>2020-08-04T11:09:32.878Z</time>
      </trkpt>
      <trkpt lat="63.26677" lon="8.49561">
        <ele>64.335416</ele>
        <time>2020-08-04T11:09:34.871Z</time>
      </trkpt>
      <trkpt lat="63.26687" lon="8.49561">
        <ele>63.961433</ele>
        <time>2020-08-04T11:09:36.868Z</time>
      </trkpt>
      <trkpt lat="63.26696" lon="8.49563">
        <ele>63.601895</ele>
        <time>2020-08-04T11:09:38.865Z</time>
      </trkpt>
      <trkpt lat="63.26709" lon="8.49566">
        <ele>63.088238</ele>
        <time>2020-08-04T11:09:41.896Z</time>
      </trkpt>
      <trkpt lat="63.26721" lon="8.4957">
        <ele>62.620025</ele>
        <time>2020-08-04T11:09:44.858Z</time>
      </trkpt>
      <trkpt lat="63.26732" lon="8.49574">
        <ele>62.189481</ele>
        <time>2020-08-04T11:09:47.859Z</time>
      </trkpt>
      <trkpt lat="63.26742" lon="8.49583">
        <ele>62.415416</ele>
        <time>2020-08-04T11:09:50.894Z</time>
      </trkpt>
      <trkpt lat="63.26752" lon="8.49591">
        <ele>62.680817</ele>
        <time>2020-08-04T11:09:53.871Z</time>
      </trkpt>
      <trkpt lat="63.26762" lon="8.496">
        <ele>62.947599</ele>
        <time>2020-08-04T11:09:57.853Z</time>
      </trkpt>
      <trkpt lat="63.2704" lon="8.49699">
        <ele>65.391876</ele>
        <time>2020-08-04T11:10:41.861Z</time>
      </trkpt>
      <trkpt lat="63.27057" lon="8.49706">
        <ele>65.222948</ele>
        <time>2020-08-04T11:10:42.909Z</time>
      </trkpt>
      <trkpt lat="63.27046" lon="8.49705">
        <ele>65.120046</ele>
        <time>2020-08-04T11:10:43.879Z</time>
      </trkpt>
      <trkpt lat="63.27067" lon="8.4972">
        <ele>64.801591</ele>
        <time>2020-08-04T11:10:45.857Z</time>
      </trkpt>
      <trkpt lat="63.2708" lon="8.49734">
        <ele>64.229221</ele>
        <time>2020-08-04T11:10:47.871Z</time>
      </trkpt>
      <trkpt lat="63.27092" lon="8.49748">
        <ele>63.686762</ele>
        <time>2020-08-04T11:10:49.859Z</time>
      </trkpt>
      <trkpt lat="63.27104" lon="8.49764">
        <ele>63.135139</ele>
        <time>2020-08-04T11:10:51.856Z</time>
      </trkpt>
      <trkpt lat="63.27115" lon="8.4978">
        <ele>62.619435</ele>
        <time>2020-08-04T11:10:53.883Z</time>
      </trkpt>
      <trkpt lat="63.27125" lon="8.49795">
        <ele>62.126732</ele>
        <time>2020-08-04T11:10:55.873Z</time>
      </trkpt>
      <trkpt lat="63.27136" lon="8.49808">
        <ele>61.660771</ele>
        <time>2020-08-04T11:10:57.926Z</time>
      </trkpt>
      <trkpt lat="63.27145" lon="8.49819">
        <ele>61.244254</ele>
        <time>2020-08-04T11:10:59.864Z</time>
      </trkpt>
      <trkpt lat="63.27156" lon="8.49834">
        <ele>60.732791</ele>
        <time>2020-08-04T11:11:02.868Z</time>
      </trkpt>
      <trkpt lat="63.27165" lon="8.49845">
        <ele>60.318624</ele>
        <time>2020-08-04T11:11:05.867Z</time>
      </trkpt>
      <trkpt lat="63.27174" lon="8.49855">
        <ele>59.92643</ele>
        <time>2020-08-04T11:11:09.870Z</time>
      </trkpt>
      <trkpt lat="63.27183" lon="8.49865">
        <ele>59.529285</ele>
        <time>2020-08-04T11:11:14.892Z</time>
      </trkpt>
      <trkpt lat="63.27192" lon="8.49873">
        <ele>59.13804</ele>
        <time>2020-08-04T11:11:19.871Z</time>
      </trkpt>
      <trkpt lat="63.272" lon="8.49881">
        <ele>58.77377</ele>
        <time>2020-08-04T11:11:24.875Z</time>
      </trkpt>
      <trkpt lat="63.2721" lon="8.49888">
        <ele>58.38216</ele>
        <time>2020-08-04T11:11:29.869Z</time>
      </trkpt>
      <trkpt lat="63.27219" lon="8.49896">
        <ele>57.981861</ele>
        <time>2020-08-04T11:11:34.868Z</time>
      </trkpt>
      <trkpt lat="63.27228" lon="8.49905">
        <ele>58.021345</ele>
        <time>2020-08-04T11:11:39.861Z</time>
      </trkpt>
      <trkpt lat="63.27237" lon="8.49912">
        <ele>58.394098</ele>
        <time>2020-08-04T11:11:44.865Z</time>
      </trkpt>
      <trkpt lat="63.27246" lon="8.49919">
        <ele>58.772468</ele>
        <time>2020-08-04T11:11:49.863Z</time>
      </trkpt>
      <trkpt lat="63.27255" lon="8.49928">
        <ele>59.154654</ele>
        <time>2020-08-04T11:11:54.881Z</time>
      </trkpt>
      <trkpt lat="63.27266" lon="8.49934">
        <ele>59.575368</ele>
        <time>2020-08-04T11:11:59.862Z</time>
      </trkpt>
      <trkpt lat="63.27275" lon="8.49942">
        <ele>59.969</ele>
        <time>2020-08-04T11:12:04.871Z</time>
      </trkpt>
      <trkpt lat="63.27285" lon="8.49949">
        <ele>60.371963</ele>
        <time>2020-08-04T11:12:09.863Z</time>
      </trkpt>
      <trkpt lat="63.27293" lon="8.49955">
        <ele>60.730414</ele>
        <time>2020-08-04T11:12:13.857Z</time>
      </trkpt>
      <trkpt lat="63.27302" lon="8.49961">
        <ele>61.086309</ele>
        <time>2020-08-04T11:12:17.861Z</time>
      </trkpt>
      <trkpt lat="63.27313" lon="8.4997">
        <ele>61.530295</ele>
        <time>2020-08-04T11:12:22.907Z</time>
      </trkpt>
      <trkpt lat="63.27322" lon="8.49976">
        <ele>61.912313</ele>
        <time>2020-08-04T11:12:26.895Z</time>
      </trkpt>
      <trkpt lat="63.27333" lon="8.49983">
        <ele>62.35159</ele>
        <time>2020-08-04T11:12:30.857Z</time>
      </trkpt>
      <trkpt lat="63.27342" lon="8.49989">
        <ele>62.722347</ele>
        <time>2020-08-04T11:12:33.909Z</time>
      </trkpt>
      <trkpt lat="63.27351" lon="8.49996">
        <ele>63.106484</ele>
        <time>2020-08-04T11:12:36.864Z</time>
      </trkpt>
      <trkpt lat="63.27361" lon="8.50003">
        <ele>63.50988</ele>
        <time>2020-08-04T11:12:39.895Z</time>
      </trkpt>
      <trkpt lat="63.27371" lon="8.5001">
        <ele>63.938635</ele>
        <time>2020-08-04T11:12:42.907Z</time>
      </trkpt>
      <trkpt lat="63.27383" lon="8.50018">
        <ele>64.411101</ele>
        <time>2020-08-04T11:12:45.867Z</time>
      </trkpt>
      <trkpt lat="63.27391" lon="8.50025">
        <ele>64.769171</ele>
        <time>2020-08-04T11:12:47.913Z</time>
      </trkpt>
      <trkpt lat="63.27401" lon="8.50032">
        <ele>64.580285</ele>
        <time>2020-08-04T11:12:49.849Z</time>
      </trkpt>
      <trkpt lat="63.27411" lon="8.5004">
        <ele>64.163145</ele>
        <time>2020-08-04T11:12:51.913Z</time>
      </trkpt>
      <trkpt lat="63.27422" lon="8.5005">
        <ele>63.706516</ele>
        <time>2020-08-04T11:12:53.897Z</time>
      </trkpt>
      <trkpt lat="63.27434" lon="8.50059">
        <ele>63.209749</ele>
        <time>2020-08-04T11:12:55.871Z</time>
      </trkpt>
      <trkpt lat="63.27447" lon="8.5007">
        <ele>62.662523</ele>
        <time>2020-08-04T11:12:57.858Z</time>
      </trkpt>
      <trkpt lat="63.27461" lon="8.50082">
        <ele>62.088352</ele>
        <time>2020-08-04T11:12:59.877Z</time>
      </trkpt>
      <trkpt lat="63.27475" lon="8.50097">
        <ele>61.458354</ele>
        <time>2020-08-04T11:13:01.871Z</time>
      </trkpt>
      <trkpt lat="63.27491" lon="8.50115">
        <ele>60.780124</ele>
        <time>2020-08-04T11:13:03.900Z</time>
      </trkpt>
      <trkpt lat="63.27499" lon="8.50125">
        <ele>60.416264</ele>
        <time>2020-08-04T11:13:04.862Z</time>
      </trkpt>
      <trkpt lat="63.27507" lon="8.50135">
        <ele>60.042118</ele>
        <time>2020-08-04T11:13:05.869Z</time>
      </trkpt>
      <trkpt lat="63.27516" lon="8.50147">
        <ele>59.656485</ele>
        <time>2020-08-04T11:13:06.863Z</time>
      </trkpt>
      <trkpt lat="63.27524" lon="8.5016">
        <ele>59.262504</ele>
        <time>2020-08-04T11:13:07.873Z</time>
      </trkpt>
      <trkpt lat="63.27533" lon="8.50174">
        <ele>58.841588</ele>
        <time>2020-08-04T11:13:08.884Z</time>
      </trkpt>
      <trkpt lat="63.27542" lon="8.5019">
        <ele>58.407863</ele>
        <time>2020-08-04T11:13:09.872Z</time>
      </trkpt>
      <trkpt lat="63.2755" lon="8.50205">
        <ele>57.986171</ele>
        <time>2020-08-04T11:13:10.871Z</time>
      </trkpt>
      <trkpt lat="63.27558" lon="8.50222">
        <ele>57.590757</ele>
        <time>2020-08-04T11:13:11.877Z</time>
      </trkpt>
      <trkpt lat="63.27565" lon="8.5024">
        <ele>57.188753</ele>
        <time>2020-08-04T11:13:12.885Z</time>
      </trkpt>
      <trkpt lat="63.27573" lon="8.50259">
        <ele>56.786798</ele>
        <time>2020-08-04T11:13:13.882Z</time>
      </trkpt>
      <trkpt lat="63.2758" lon="8.50279">
        <ele>56.38301</ele>
        <time>2020-08-04T11:13:14.856Z</time>
      </trkpt>
      <trkpt lat="63.27587" lon="8.50299">
        <ele>55.983658</ele>
        <time>2020-08-04T11:13:15.874Z</time>
      </trkpt>
      <trkpt lat="63.27593" lon="8.5032">
        <ele>55.583887</ele>
        <time>2020-08-04T11:13:16.854Z</time>
      </trkpt>
      <trkpt lat="63.27599" lon="8.5034">
        <ele>55.193394</ele>
        <time>2020-08-04T11:13:17.845Z</time>
      </trkpt>
      <trkpt lat="63.27605" lon="8.50359">
        <ele>54.823341</ele>
        <time>2020-08-04T11:13:18.874Z</time>
      </trkpt>
      <trkpt lat="63.2761" lon="8.50379">
        <ele>54.457004</ele>
        <time>2020-08-04T11:13:19.879Z</time>
      </trkpt>
      <trkpt lat="63.27614" lon="8.504">
        <ele>54.0904</ele>
        <time>2020-08-04T11:13:20.889Z</time>
      </trkpt>
      <trkpt lat="63.27619" lon="8.5042">
        <ele>53.738853</ele>
        <time>2020-08-04T11:13:21.883Z</time>
      </trkpt>
      <trkpt lat="63.27622" lon="8.5044">
        <ele>53.395609</ele>
        <time>2020-08-04T11:13:22.862Z</time>
      </trkpt>
      <trkpt lat="63.27625" lon="8.50459">
        <ele>53.062955</ele>
        <time>2020-08-04T11:13:23.890Z</time>
      </trkpt>
      <trkpt lat="63.2763" lon="8.50497">
        <ele>52.44187</ele>
        <time>2020-08-04T11:13:25.951Z</time>
      </trkpt>
      <trkpt lat="63.27633" lon="8.50532">
        <ele>51.869916</ele>
        <time>2020-08-04T11:13:27.859Z</time>
      </trkpt>
      <trkpt lat="63.27635" lon="8.50564">
        <ele>51.599304</ele>
        <time>2020-08-04T11:13:29.895Z</time>
      </trkpt>
      <trkpt lat="63.27637" lon="8.50595">
        <ele>52.100136</ele>
        <time>2020-08-04T11:13:31.864Z</time>
      </trkpt>
      <trkpt lat="63.2764" lon="8.50624">
        <ele>52.570217</ele>
        <time>2020-08-04T11:13:33.907Z</time>
      </trkpt>
      <trkpt lat="63.27642" lon="8.50649">
        <ele>53.000218</ele>
        <time>2020-08-04T11:13:35.871Z</time>
      </trkpt>
      <trkpt lat="63.27645" lon="8.50674">
        <ele>53.397886</ele>
        <time>2020-08-04T11:13:37.882Z</time>
      </trkpt>
      <trkpt lat="63.27646" lon="8.50696">
        <ele>53.763283</ele>
        <time>2020-08-04T11:13:39.875Z</time>
      </trkpt>
      <trkpt lat="63.27649" lon="8.50716">
        <ele>54.098867</ele>
        <time>2020-08-04T11:13:41.890Z</time>
      </trkpt>
      <trkpt lat="63.27652" lon="8.50745">
        <ele>54.57211</ele>
        <time>2020-08-04T11:13:44.900Z</time>
      </trkpt>
      <trkpt lat="63.27654" lon="8.50771">
        <ele>55.005144</ele>
        <time>2020-08-04T11:13:47.864Z</time>
      </trkpt>
      <trkpt lat="63.27657" lon="8.50795">
        <ele>55.403709</ele>
        <time>2020-08-04T11:13:50.856Z</time>
      </trkpt>
      <trkpt lat="63.2766" lon="8.50816">
        <ele>55.749011</ele>
        <time>2020-08-04T11:13:53.872Z</time>
      </trkpt>
      <trkpt lat="63.27661" lon="8.50838">
        <ele>56.116072</ele>
        <time>2020-08-04T11:13:57.888Z</time>
      </trkpt>
      <trkpt lat="63.27662" lon="8.5086">
        <ele>56.462868</ele>
        <time>2020-08-04T11:14:01.872Z</time>
      </trkpt>
      <trkpt lat="63.27665" lon="8.5088">
        <ele>56.802404</ele>
        <time>2020-08-04T11:14:05.873Z</time>
      </trkpt>
      <trkpt lat="63.27667" lon="8.50899">
        <ele>57.124428</ele>
        <time>2020-08-04T11:14:09.855Z</time>
      </trkpt>
      <trkpt lat="63.2767" lon="8.50922">
        <ele>57.510807</ele>
        <time>2020-08-04T11:14:14.860Z</time>
      </trkpt>
      <trkpt lat="63.27673" lon="8.50946">
        <ele>57.906504</ele>
        <time>2020-08-04T11:14:19.925Z</time>
      </trkpt>
      <trkpt lat="63.27676" lon="8.5097">
        <ele>58.306141</ele>
        <time>2020-08-04T11:14:24.876Z</time>
      </trkpt>
      <trkpt lat="63.27679" lon="8.50989">
        <ele>58.641763</ele>
        <time>2020-08-04T11:14:28.857Z</time>
      </trkpt>
      <trkpt lat="63.27684" lon="8.5101">
        <ele>59.018747</ele>
        <time>2020-08-04T11:14:32.893Z</time>
      </trkpt>
      <trkpt lat="63.27689" lon="8.51032">
        <ele>59.410905</ele>
        <time>2020-08-04T11:14:36.887Z</time>
      </trkpt>
      <trkpt lat="63.27693" lon="8.51051">
        <ele>59.761294</ele>
        <time>2020-08-04T11:14:40.870Z</time>
      </trkpt>
      <trkpt lat="63.27697" lon="8.5107">
        <ele>60.104838</ele>
        <time>2020-08-04T11:14:44.853Z</time>
      </trkpt>
      <trkpt lat="63.27701" lon="8.5109">
        <ele>60.453795</ele>
        <time>2020-08-04T11:14:48.891Z</time>
      </trkpt>
      <trkpt lat="63.27705" lon="8.5111">
        <ele>60.808643</ele>
        <time>2020-08-04T11:14:52.856Z</time>
      </trkpt>
      <trkpt lat="63.27709" lon="8.5113">
        <ele>61.163507</ele>
        <time>2020-08-04T11:14:56.888Z</time>
      </trkpt>
      <trkpt lat="63.27713" lon="8.51149">
        <ele>61.505612</ele>
        <time>2020-08-04T11:15:00.875Z</time>
      </trkpt>
      <trkpt lat="63.27717" lon="8.51167">
        <ele>61.838476</ele>
        <time>2020-08-04T11:15:04.865Z</time>
      </trkpt>
      <trkpt lat="63.27722" lon="8.51187">
        <ele>62.203396</ele>
        <time>2020-08-04T11:15:08.876Z</time>
      </trkpt>
      <trkpt lat="63.27728" lon="8.51206">
        <ele>62.564996</ele>
        <time>2020-08-04T11:15:12.854Z</time>
      </trkpt>
      <trkpt lat="63.27732" lon="8.51225">
        <ele>62.922994</ele>
        <time>2020-08-04T11:15:16.857Z</time>
      </trkpt>
      <trkpt lat="63.27737" lon="8.51244">
        <ele>63.286794</ele>
        <time>2020-08-04T11:15:20.872Z</time>
      </trkpt>
      <trkpt lat="63.27742" lon="8.51264">
        <ele>63.647839</ele>
        <time>2020-08-04T11:15:24.861Z</time>
      </trkpt>
      <trkpt lat="63.27747" lon="8.51283">
        <ele>64.002505</ele>
        <time>2020-08-04T11:15:28.855Z</time>
      </trkpt>
      <trkpt lat="63.27753" lon="8.51302">
        <ele>64.373716</ele>
        <time>2020-08-04T11:15:32.878Z</time>
      </trkpt>
      <trkpt lat="63.27759" lon="8.51323">
        <ele>64.367084</ele>
        <time>2020-08-04T11:15:36.899Z</time>
      </trkpt>
      <trkpt lat="63.27765" lon="8.51342">
        <ele>64.332049</ele>
        <time>2020-08-04T11:15:40.882Z</time>
      </trkpt>
      <trkpt lat="63.27772" lon="8.51361">
        <ele>64.29549</ele>
        <time>2020-08-04T11:15:44.884Z</time>
      </trkpt>
      <trkpt lat="63.27779" lon="8.51382">
        <ele>64.257096</ele>
        <time>2020-08-04T11:15:48.878Z</time>
      </trkpt>
      <trkpt lat="63.27784" lon="8.51398">
        <ele>64.227389</ele>
        <time>2020-08-04T11:15:51.879Z</time>
      </trkpt>
      <trkpt lat="63.2779" lon="8.51413">
        <ele>64.197475</ele>
        <time>2020-08-04T11:15:54.886Z</time>
      </trkpt>
      <trkpt lat="63.27797" lon="8.5143">
        <ele>64.164703</ele>
        <time>2020-08-04T11:15:57.890Z</time>
      </trkpt>
      <trkpt lat="63.27803" lon="8.51447">
        <ele>64.132558</ele>
        <time>2020-08-04T11:16:00.861Z</time>
      </trkpt>
      <trkpt lat="63.2781" lon="8.51465">
        <ele>64.098112</ele>
        <time>2020-08-04T11:16:03.859Z</time>
      </trkpt>
      <trkpt lat="63.27817" lon="8.51483">
        <ele>64.061162</ele>
        <time>2020-08-04T11:16:06.878Z</time>
      </trkpt>
      <trkpt lat="63.27826" lon="8.51503">
        <ele>64.01973</ele>
        <time>2020-08-04T11:16:09.865Z</time>
      </trkpt>
      <trkpt lat="63.27835" lon="8.51523">
        <ele>63.977125</ele>
        <time>2020-08-04T11:16:12.869Z</time>
      </trkpt>
      <trkpt lat="63.27844" lon="8.51545">
        <ele>63.932696</ele>
        <time>2020-08-04T11:16:15.862Z</time>
      </trkpt>
      <trkpt lat="63.2785" lon="8.51561">
        <ele>63.902852</ele>
        <time>2020-08-04T11:16:17.869Z</time>
      </trkpt>
      <trkpt lat="63.27856" lon="8.51577">
        <ele>63.872276</ele>
        <time>2020-08-04T11:16:19.852Z</time>
      </trkpt>
      <trkpt lat="63.27862" lon="8.51593">
        <ele>63.841038</ele>
        <time>2020-08-04T11:16:21.860Z</time>
      </trkpt>
      <trkpt lat="63.27869" lon="8.51608">
        <ele>63.809916</ele>
        <time>2020-08-04T11:16:23.878Z</time>
      </trkpt>
      <trkpt lat="63.27875" lon="8.51624">
        <ele>64.036313</ele>
        <time>2020-08-04T11:16:25.900Z</time>
      </trkpt>
      <trkpt lat="63.27881" lon="8.51639">
        <ele>64.262418</ele>
        <time>2020-08-04T11:16:27.905Z</time>
      </trkpt>
      <trkpt lat="63.2789" lon="8.51661">
        <ele>64.591307</ele>
        <time>2020-08-04T11:16:30.882Z</time>
      </trkpt>
      <trkpt lat="63.27898" lon="8.5168">
        <ele>64.885333</ele>
        <time>2020-08-04T11:16:33.856Z</time>
      </trkpt>
      <trkpt lat="63.27905" lon="8.51697">
        <ele>65.145562</ele>
        <time>2020-08-04T11:16:36.858Z</time>
      </trkpt>
      <trkpt lat="63.27913" lon="8.51713">
        <ele>65.410602</ele>
        <time>2020-08-04T11:16:40.906Z</time>
      </trkpt>
      <trkpt lat="63.27919" lon="8.5173">
        <ele>65.651125</ele>
        <time>2020-08-04T11:16:44.880Z</time>
      </trkpt>
      <trkpt lat="63.27927" lon="8.51748">
        <ele>65.92374</ele>
        <time>2020-08-04T11:16:48.863Z</time>
      </trkpt>
      <trkpt lat="63.27934" lon="8.51765">
        <ele>66.178043</ele>
        <time>2020-08-04T11:16:52.877Z</time>
      </trkpt>
      <trkpt lat="63.2794" lon="8.5178">
        <ele>66.408483</ele>
        <time>2020-08-04T11:16:56.856Z</time>
      </trkpt>
      <trkpt lat="63.27946" lon="8.51797">
        <ele>66.658185</ele>
        <time>2020-08-04T11:17:00.865Z</time>
      </trkpt>
      <trkpt lat="63.27952" lon="8.51814">
        <ele>66.900443</ele>
        <time>2020-08-04T11:17:04.857Z</time>
      </trkpt>
      <trkpt lat="63.27959" lon="8.51835">
        <ele>67.171473</ele>
        <time>2020-08-04T11:17:09.890Z</time>
      </trkpt>
      <trkpt lat="63.27965" lon="8.51855">
        <ele>67.444897</ele>
        <time>2020-08-04T11:17:14.866Z</time>
      </trkpt>
      <trkpt lat="63.27971" lon="8.51874">
        <ele>67.700691</ele>
        <time>2020-08-04T11:17:19.878Z</time>
      </trkpt>
      <trkpt lat="63.27977" lon="8.51892">
        <ele>67.961566</ele>
        <time>2020-08-04T11:17:24.870Z</time>
      </trkpt>
      <trkpt lat="63.27982" lon="8.51913">
        <ele>68.22643</ele>
        <time>2020-08-04T11:17:30.860Z</time>
      </trkpt>
      <trkpt lat="63.27988" lon="8.51934">
        <ele>68.866466</ele>
        <time>2020-08-04T11:17:36.865Z</time>
      </trkpt>
      <trkpt lat="63.27993" lon="8.51954">
        <ele>69.521811</ele>
        <time>2020-08-04T11:17:42.890Z</time>
      </trkpt>
      <trkpt lat="63.27998" lon="8.51975">
        <ele>70.191036</ele>
        <time>2020-08-04T11:17:48.885Z</time>
      </trkpt>
      <trkpt lat="63.28001" lon="8.51996">
        <ele>70.833372</ele>
        <time>2020-08-04T11:17:54.884Z</time>
      </trkpt>
      <trkpt lat="63.28004" lon="8.52017">
        <ele>71.470803</ele>
        <time>2020-08-04T11:18:01.857Z</time>
      </trkpt>
      <trkpt lat="63.28008" lon="8.52037">
        <ele>72.10736</ele>
        <time>2020-08-04T11:18:08.900Z</time>
      </trkpt>
      <trkpt lat="63.28012" lon="8.52057">
        <ele>72.731679</ele>
        <time>2020-08-04T11:18:15.884Z</time>
      </trkpt>
      <trkpt lat="63.28015" lon="8.52079">
        <ele>73.380857</ele>
        <time>2020-08-04T11:18:23.910Z</time>
      </trkpt>
      <trkpt lat="63.28018" lon="8.521">
        <ele>73.996092</ele>
        <time>2020-08-04T11:18:30.864Z</time>
      </trkpt>
      <trkpt lat="63.2802" lon="8.52121">
        <ele>74.639109</ele>
        <time>2020-08-04T11:18:37.891Z</time>
      </trkpt>
      <trkpt lat="63.28022" lon="8.52144">
        <ele>75.298439</ele>
        <time>2020-08-04T11:18:44.912Z</time>
      </trkpt>
      <trkpt lat="63.28026" lon="8.52164">
        <ele>75.916791</ele>
        <time>2020-08-04T11:18:51.864Z</time>
      </trkpt>
      <trkpt lat="63.28027" lon="8.52187">
        <ele>76.582272</ele>
        <time>2020-08-04T11:18:58.893Z</time>
      </trkpt>
      <trkpt lat="63.28026" lon="8.52209">
        <ele>77.207003</ele>
        <time>2020-08-04T11:19:05.886Z</time>
      </trkpt>
      <trkpt lat="63.28027" lon="8.52232">
        <ele>77.874704</ele>
        <time>2020-08-04T11:19:12.896Z</time>
      </trkpt>
      <trkpt lat="63.28028" lon="8.52253">
        <ele>78.486881</ele>
        <time>2020-08-04T11:19:19.876Z</time>
      </trkpt>
      <trkpt lat="63.28028" lon="8.52273">
        <ele>79.058893</ele>
        <time>2020-08-04T11:19:26.882Z</time>
      </trkpt>
      <trkpt lat="63.2803" lon="8.52295">
        <ele>79.703836</ele>
        <time>2020-08-04T11:19:33.876Z</time>
      </trkpt>
      <trkpt lat="63.2803" lon="8.52315">
        <ele>80.333304</ele>
        <time>2020-08-04T11:19:39.894Z</time>
      </trkpt>
      <trkpt lat="63.28033" lon="8.52336">
        <ele>81.011206</ele>
        <time>2020-08-04T11:19:47.872Z</time>
      </trkpt>
      <trkpt lat="63.28033" lon="8.52356">
        <ele>81.663407</ele>
        <time>2020-08-04T11:19:55.862Z</time>
      </trkpt>
      <trkpt lat="63.28032" lon="8.52379">
        <ele>82.36181</ele>
        <time>2020-08-04T11:20:02.863Z</time>
      </trkpt>
      <trkpt lat="63.28031" lon="8.52399">
        <ele>83.023425</ele>
        <time>2020-08-04T11:20:09.869Z</time>
      </trkpt>
      <trkpt lat="63.28029" lon="8.5242">
        <ele>83.705713</ele>
        <time>2020-08-04T11:20:16.876Z</time>
      </trkpt>
      <trkpt lat="63.2803" lon="8.52443">
        <ele>84.424188</ele>
        <time>2020-08-04T11:20:23.868Z</time>
      </trkpt>
      <trkpt lat="63.2803" lon="8.52465">
        <ele>85.102743</ele>
        <time>2020-08-04T11:20:29.911Z</time>
      </trkpt>
      <trkpt lat="63.28029" lon="8.52487">
        <ele>85.807861</ele>
        <time>2020-08-04T11:20:35.867Z</time>
      </trkpt>
      <trkpt lat="63.28026" lon="8.52508">
        <ele>86.523987</ele>
        <time>2020-08-04T11:20:42.862Z</time>
      </trkpt>
      <trkpt lat="63.28024" lon="8.52528">
        <ele>87.152771</ele>
        <time>2020-08-04T11:20:48.909Z</time>
      </trkpt>
      <trkpt lat="63.28022" lon="8.5255">
        <ele>87.871934</ele>
        <time>2020-08-04T11:20:55.873Z</time>
      </trkpt>
      <trkpt lat="63.28019" lon="8.52571">
        <ele>88.536825</ele>
        <time>2020-08-04T11:21:02.881Z</time>
      </trkpt>
      <trkpt lat="63.28017" lon="8.52591">
        <ele>89.188594</ele>
        <time>2020-08-04T11:21:09.884Z</time>
      </trkpt>
      <trkpt lat="63.28015" lon="8.5261">
        <ele>89.825445</ele>
        <time>2020-08-04T11:21:15.880Z</time>
      </trkpt>
      <trkpt lat="63.28012" lon="8.52632">
        <ele>90.53446</ele>
        <time>2020-08-04T11:21:22.868Z</time>
      </trkpt>
      <trkpt lat="63.28008" lon="8.5265">
        <ele>91.178087</ele>
        <time>2020-08-04T11:21:28.882Z</time>
      </trkpt>
      <trkpt lat="63.28004" lon="8.5267">
        <ele>91.85904</ele>
        <time>2020-08-04T11:21:34.900Z</time>
      </trkpt>
      <trkpt lat="63.28" lon="8.52689">
        <ele>92.495322</ele>
        <time>2020-08-04T11:21:40.857Z</time>
      </trkpt>
      <trkpt lat="63.27997" lon="8.52708">
        <ele>93.140675</ele>
        <time>2020-08-04T11:21:47.863Z</time>
      </trkpt>
      <trkpt lat="63.27993" lon="8.5273">
        <ele>93.840186</ele>
        <time>2020-08-04T11:21:54.872Z</time>
      </trkpt>
      <trkpt lat="63.27988" lon="8.5275">
        <ele>94.538617</ele>
        <time>2020-08-04T11:22:01.867Z</time>
      </trkpt>
      <trkpt lat="63.27984" lon="8.5277">
        <ele>95.195403</ele>
        <time>2020-08-04T11:22:08.871Z</time>
      </trkpt>
      <trkpt lat="63.2798" lon="8.52791">
        <ele>95.893542</ele>
        <time>2020-08-04T11:22:15.858Z</time>
      </trkpt>
      <trkpt lat="63.27976" lon="8.5281">
        <ele>96.553716</ele>
        <time>2020-08-04T11:22:22.861Z</time>
      </trkpt>
      <trkpt lat="63.27971" lon="8.52831">
        <ele>97.237799</ele>
        <time>2020-08-04T11:22:29.858Z</time>
      </trkpt>
      <trkpt lat="63.27968" lon="8.52852">
        <ele>97.916528</ele>
        <time>2020-08-04T11:22:35.870Z</time>
      </trkpt>
      <trkpt lat="63.27963" lon="8.52871">
        <ele>98.60549</ele>
        <time>2020-08-04T11:22:42.894Z</time>
      </trkpt>
      <trkpt lat="63.27958" lon="8.5289">
        <ele>99.248698</ele>
        <time>2020-08-04T11:22:49.873Z</time>
      </trkpt>
      <trkpt lat="63.27953" lon="8.52909">
        <ele>99.914588</ele>
        <time>2020-08-04T11:22:56.897Z</time>
      </trkpt>
      <trkpt lat="63.27949" lon="8.52928">
        <ele>100.568451</ele>
        <time>2020-08-04T11:23:02.861Z</time>
      </trkpt>
      <trkpt lat="63.27944" lon="8.52947">
        <ele>101.203546</ele>
        <time>2020-08-04T11:23:09.870Z</time>
      </trkpt>
      <trkpt lat="63.2794" lon="8.52966">
        <ele>101.875398</ele>
        <time>2020-08-04T11:23:16.859Z</time>
      </trkpt>
      <trkpt lat="63.27935" lon="8.52985">
        <ele>102.534544</ele>
        <time>2020-08-04T11:23:22.887Z</time>
      </trkpt>
      <trkpt lat="63.27929" lon="8.53002">
        <ele>103.182903</ele>
        <time>2020-08-04T11:23:28.886Z</time>
      </trkpt>
      <trkpt lat="63.27925" lon="8.53022">
        <ele>103.842057</ele>
        <time>2020-08-04T11:23:34.907Z</time>
      </trkpt>
      <trkpt lat="63.27921" lon="8.53041">
        <ele>104.476298</ele>
        <time>2020-08-04T11:23:40.877Z</time>
      </trkpt>
      <trkpt lat="63.27916" lon="8.53061">
        <ele>104.335206</ele>
        <time>2020-08-04T11:23:46.869Z</time>
      </trkpt>
      <trkpt lat="63.27911" lon="8.53078">
        <ele>104.181786</ele>
        <time>2020-08-04T11:23:51.892Z</time>
      </trkpt>
      <trkpt lat="63.27905" lon="8.53094">
        <ele>104.022157</ele>
        <time>2020-08-04T11:23:56.870Z</time>
      </trkpt>
      <trkpt lat="63.27899" lon="8.53113">
        <ele>103.854744</ele>
        <time>2020-08-04T11:24:01.875Z</time>
      </trkpt>
      <trkpt lat="63.27898" lon="8.53134">
        <ele>103.695338</ele>
        <time>2020-08-04T11:24:06.917Z</time>
      </trkpt>
      <trkpt lat="63.27905" lon="8.53147">
        <ele>103.543756</ele>
        <time>2020-08-04T11:24:10.860Z</time>
      </trkpt>
      <trkpt lat="63.27914" lon="8.53158">
        <ele>103.363789</ele>
        <time>2020-08-04T11:24:14.913Z</time>
      </trkpt>
      <trkpt lat="63.27924" lon="8.53172">
        <ele>103.167503</ele>
        <time>2020-08-04T11:24:18.904Z</time>
      </trkpt>
      <trkpt lat="63.27934" lon="8.53187">
        <ele>102.970034</ele>
        <time>2020-08-04T11:24:22.894Z</time>
      </trkpt>
      <trkpt lat="63.27941" lon="8.532">
        <ele>102.815162</ele>
        <time>2020-08-04T11:24:25.873Z</time>
      </trkpt>
      <trkpt lat="63.27949" lon="8.53214">
        <ele>102.646495</ele>
        <time>2020-08-04T11:24:28.890Z</time>
      </trkpt>
      <trkpt lat="63.27958" lon="8.53228">
        <ele>102.466778</ele>
        <time>2020-08-04T11:24:31.864Z</time>
      </trkpt>
      <trkpt lat="63.27968" lon="8.53246">
        <ele>102.262522</ele>
        <time>2020-08-04T11:24:34.913Z</time>
      </trkpt>
      <trkpt lat="63.27976" lon="8.53259">
        <ele>102.097017</ele>
        <time>2020-08-04T11:24:36.918Z</time>
      </trkpt>
      <trkpt lat="63.27985" lon="8.53274">
        <ele>101.90535</ele>
        <time>2020-08-04T11:24:38.863Z</time>
      </trkpt>
      <trkpt lat="63.27995" lon="8.53292">
        <ele>101.696175</ele>
        <time>2020-08-04T11:24:40.876Z</time>
      </trkpt>
      <trkpt lat="63.28006" lon="8.53312">
        <ele>101.38102</ele>
        <time>2020-08-04T11:24:42.888Z</time>
      </trkpt>
      <trkpt lat="63.28018" lon="8.53334">
        <ele>100.759187</ele>
        <time>2020-08-04T11:24:44.897Z</time>
      </trkpt>
      <trkpt lat="63.28031" lon="8.53358">
        <ele>100.091063</ele>
        <time>2020-08-04T11:24:46.875Z</time>
      </trkpt>
      <trkpt lat="63.28044" lon="8.53383">
        <ele>99.385075</ele>
        <time>2020-08-04T11:24:48.883Z</time>
      </trkpt>
      <trkpt lat="63.28051" lon="8.53396">
        <ele>99.016743</ele>
        <time>2020-08-04T11:24:49.881Z</time>
      </trkpt>
      <trkpt lat="63.28059" lon="8.53409">
        <ele>98.641575</ele>
        <time>2020-08-04T11:24:50.909Z</time>
      </trkpt>
      <trkpt lat="63.28066" lon="8.53423">
        <ele>98.263353</ele>
        <time>2020-08-04T11:24:51.890Z</time>
      </trkpt>
      <trkpt lat="63.28074" lon="8.53437">
        <ele>97.870215</ele>
        <time>2020-08-04T11:24:52.894Z</time>
      </trkpt>
      <trkpt lat="63.28081" lon="8.53451">
        <ele>97.476259</ele>
        <time>2020-08-04T11:24:53.879Z</time>
      </trkpt>
      <trkpt lat="63.28089" lon="8.53465">
        <ele>97.068496</ele>
        <time>2020-08-04T11:24:54.869Z</time>
      </trkpt>
      <trkpt lat="63.28098" lon="8.5348">
        <ele>96.636226</ele>
        <time>2020-08-04T11:24:55.890Z</time>
      </trkpt>
      <trkpt lat="63.28106" lon="8.53495">
        <ele>96.199871</ele>
        <time>2020-08-04T11:24:56.872Z</time>
      </trkpt>
      <trkpt lat="63.28115" lon="8.53509">
        <ele>95.767769</ele>
        <time>2020-08-04T11:24:57.895Z</time>
      </trkpt>
      <trkpt lat="63.28124" lon="8.53525">
        <ele>95.316481</ele>
        <time>2020-08-04T11:24:58.871Z</time>
      </trkpt>
      <trkpt lat="63.28134" lon="8.5354">
        <ele>94.83209</ele>
        <time>2020-08-04T11:24:59.868Z</time>
      </trkpt>
      <trkpt lat="63.28144" lon="8.53556">
        <ele>94.329579</ele>
        <time>2020-08-04T11:25:00.875Z</time>
      </trkpt>
      <trkpt lat="63.28154" lon="8.53574">
        <ele>93.514923</ele>
        <time>2020-08-04T11:25:01.882Z</time>
      </trkpt>
      <trkpt lat="63.28163" lon="8.53591">
        <ele>92.692845</ele>
        <time>2020-08-04T11:25:02.902Z</time>
      </trkpt>
      <trkpt lat="63.28173" lon="8.5361">
        <ele>91.878206</ele>
        <time>2020-08-04T11:25:03.862Z</time>
      </trkpt>
      <trkpt lat="63.28182" lon="8.53628">
        <ele>91.033267</ele>
        <time>2020-08-04T11:25:04.907Z</time>
      </trkpt>
      <trkpt lat="63.28191" lon="8.53649">
        <ele>90.191316</ele>
        <time>2020-08-04T11:25:05.868Z</time>
      </trkpt>
      <trkpt lat="63.282" lon="8.5367">
        <ele>89.352093</ele>
        <time>2020-08-04T11:25:06.911Z</time>
      </trkpt>
      <trkpt lat="63.28209" lon="8.5369">
        <ele>88.495024</ele>
        <time>2020-08-04T11:25:07.874Z</time>
      </trkpt>
      <trkpt lat="63.28219" lon="8.53711">
        <ele>87.635488</ele>
        <time>2020-08-04T11:25:08.858Z</time>
      </trkpt>
      <trkpt lat="63.28228" lon="8.53731">
        <ele>86.767083</ele>
        <time>2020-08-04T11:25:09.865Z</time>
      </trkpt>
      <trkpt lat="63.28239" lon="8.53748">
        <ele>85.891424</ele>
        <time>2020-08-04T11:25:10.895Z</time>
      </trkpt>
      <trkpt lat="63.28252" lon="8.53763">
        <ele>84.940708</ele>
        <time>2020-08-04T11:25:11.883Z</time>
      </trkpt>
      <trkpt lat="63.28265" lon="8.53777">
        <ele>84.005344</ele>
        <time>2020-08-04T11:25:12.894Z</time>
      </trkpt>
      <trkpt lat="63.28278" lon="8.53789">
        <ele>83.107361</ele>
        <time>2020-08-04T11:25:13.880Z</time>
      </trkpt>
      <trkpt lat="63.2829" lon="8.53802">
        <ele>82.160333</ele>
        <time>2020-08-04T11:25:14.898Z</time>
      </trkpt>
      <trkpt lat="63.28301" lon="8.53815">
        <ele>81.170655</ele>
        <time>2020-08-04T11:25:15.881Z</time>
      </trkpt>
      <trkpt lat="63.28312" lon="8.5383">
        <ele>80.225482</ele>
        <time>2020-08-04T11:25:16.873Z</time>
      </trkpt>
      <trkpt lat="63.28321" lon="8.53846">
        <ele>79.309789</ele>
        <time>2020-08-04T11:25:17.898Z</time>
      </trkpt>
      <trkpt lat="63.2833" lon="8.53863">
        <ele>78.399623</ele>
        <time>2020-08-04T11:25:18.860Z</time>
      </trkpt>
      <trkpt lat="63.28338" lon="8.53882">
        <ele>77.500943</ele>
        <time>2020-08-04T11:25:19.895Z</time>
      </trkpt>
      <trkpt lat="63.28345" lon="8.53904">
        <ele>76.583614</ele>
        <time>2020-08-04T11:25:20.892Z</time>
      </trkpt>
      <trkpt lat="63.28351" lon="8.53927">
        <ele>75.651023</ele>
        <time>2020-08-04T11:25:21.888Z</time>
      </trkpt>
      <trkpt lat="63.28356" lon="8.53952">
        <ele>74.694293</ele>
        <time>2020-08-04T11:25:22.890Z</time>
      </trkpt>
      <trkpt lat="63.28361" lon="8.53978">
        <ele>73.734362</ele>
        <time>2020-08-04T11:25:23.862Z</time>
      </trkpt>
      <trkpt lat="63.28367" lon="8.54003">
        <ele>72.742534</ele>
        <time>2020-08-04T11:25:24.872Z</time>
      </trkpt>
      <trkpt lat="63.28373" lon="8.54029">
        <ele>71.72847</ele>
        <time>2020-08-04T11:25:25.882Z</time>
      </trkpt>
      <trkpt lat="63.28381" lon="8.54053">
        <ele>70.697989</ele>
        <time>2020-08-04T11:25:26.874Z</time>
      </trkpt>
      <trkpt lat="63.2839" lon="8.54076">
        <ele>69.65538</ele>
        <time>2020-08-04T11:25:27.867Z</time>
      </trkpt>
      <trkpt lat="63.284" lon="8.54095">
        <ele>68.5982</ele>
        <time>2020-08-04T11:25:28.885Z</time>
      </trkpt>
      <trkpt lat="63.28412" lon="8.54111">
        <ele>67.488737</ele>
        <time>2020-08-04T11:25:29.877Z</time>
      </trkpt>
      <trkpt lat="63.28425" lon="8.54124">
        <ele>66.374649</ele>
        <time>2020-08-04T11:25:30.878Z</time>
      </trkpt>
      <trkpt lat="63.28438" lon="8.54133">
        <ele>65.264613</ele>
        <time>2020-08-04T11:25:31.884Z</time>
      </trkpt>
      <trkpt lat="63.28452" lon="8.5414">
        <ele>64.153861</ele>
        <time>2020-08-04T11:25:32.870Z</time>
      </trkpt>
      <trkpt lat="63.28465" lon="8.54143">
        <ele>63.052068</ele>
        <time>2020-08-04T11:25:33.866Z</time>
      </trkpt>
      <trkpt lat="63.28479" lon="8.54142">
        <ele>61.923906</ele>
        <time>2020-08-04T11:25:34.876Z</time>
      </trkpt>
      <trkpt lat="63.28494" lon="8.54139">
        <ele>60.723948</ele>
        <time>2020-08-04T11:25:35.902Z</time>
      </trkpt>
      <trkpt lat="63.28509" lon="8.54132">
        <ele>59.531204</ele>
        <time>2020-08-04T11:25:36.872Z</time>
      </trkpt>
      <trkpt lat="63.28523" lon="8.54123">
        <ele>58.372911</ele>
        <time>2020-08-04T11:25:37.916Z</time>
      </trkpt>
      <trkpt lat="63.28536" lon="8.54112">
        <ele>57.258816</ele>
        <time>2020-08-04T11:25:38.877Z</time>
      </trkpt>
      <trkpt lat="63.28549" lon="8.54102">
        <ele>56.163492</ele>
        <time>2020-08-04T11:25:39.888Z</time>
      </trkpt>
      <trkpt lat="63.28561" lon="8.5409">
        <ele>55.085285</ele>
        <time>2020-08-04T11:25:40.870Z</time>
      </trkpt>
      <trkpt lat="63.28573" lon="8.54079">
        <ele>54.149295</ele>
        <time>2020-08-04T11:25:41.902Z</time>
      </trkpt>
      <trkpt lat="63.28586" lon="8.54069">
        <ele>53.541156</ele>
        <time>2020-08-04T11:25:42.891Z</time>
      </trkpt>
      <trkpt lat="63.28598" lon="8.54058">
        <ele>52.926593</ele>
        <time>2020-08-04T11:25:43.873Z</time>
      </trkpt>
      <trkpt lat="63.2861" lon="8.54048">
        <ele>52.310575</ele>
        <time>2020-08-04T11:25:44.863Z</time>
      </trkpt>
      <trkpt lat="63.28623" lon="8.54038">
        <ele>51.687272</ele>
        <time>2020-08-04T11:25:45.873Z</time>
      </trkpt>
      <trkpt lat="63.28635" lon="8.54027">
        <ele>51.068902</ele>
        <time>2020-08-04T11:25:46.888Z</time>
      </trkpt>
      <trkpt lat="63.28647" lon="8.54016">
        <ele>50.458704</ele>
        <time>2020-08-04T11:25:47.878Z</time>
      </trkpt>
      <trkpt lat="63.28659" lon="8.54006">
        <ele>49.849996</ele>
        <time>2020-08-04T11:25:48.882Z</time>
      </trkpt>
      <trkpt lat="63.28672" lon="8.53996">
        <ele>49.244157</ele>
        <time>2020-08-04T11:25:49.898Z</time>
      </trkpt>
      <trkpt lat="63.28684" lon="8.53985">
        <ele>48.642673</ele>
        <time>2020-08-04T11:25:50.888Z</time>
      </trkpt>
      <trkpt lat="63.28695" lon="8.53975">
        <ele>48.049883</ele>
        <time>2020-08-04T11:25:51.871Z</time>
      </trkpt>
      <trkpt lat="63.28707" lon="8.53965">
        <ele>47.474722</ele>
        <time>2020-08-04T11:25:52.902Z</time>
      </trkpt>
      <trkpt lat="63.28718" lon="8.53956">
        <ele>46.905354</ele>
        <time>2020-08-04T11:25:53.854Z</time>
      </trkpt>
      <trkpt lat="63.28729" lon="8.53948">
        <ele>46.380515</ele>
        <time>2020-08-04T11:25:54.891Z</time>
      </trkpt>
      <trkpt lat="63.28739" lon="8.5394">
        <ele>45.948584</ele>
        <time>2020-08-04T11:25:55.909Z</time>
      </trkpt>
      <trkpt lat="63.28748" lon="8.53932">
        <ele>46.17348</ele>
        <time>2020-08-04T11:25:56.873Z</time>
      </trkpt>
      <trkpt lat="63.28758" lon="8.53925">
        <ele>46.392778</ele>
        <time>2020-08-04T11:25:57.877Z</time>
      </trkpt>
      <trkpt lat="63.28766" lon="8.53918">
        <ele>46.602615</ele>
        <time>2020-08-04T11:25:58.867Z</time>
      </trkpt>
      <trkpt lat="63.28775" lon="8.5391">
        <ele>46.810051</ele>
        <time>2020-08-04T11:25:59.871Z</time>
      </trkpt>
      <trkpt lat="63.28789" lon="8.53898">
        <ele>47.157917</ele>
        <time>2020-08-04T11:26:01.925Z</time>
      </trkpt>
      <trkpt lat="63.288" lon="8.5389">
        <ele>47.414586</ele>
        <time>2020-08-04T11:26:03.855Z</time>
      </trkpt>
      <trkpt lat="63.28811" lon="8.53881">
        <ele>47.67942</ele>
        <time>2020-08-04T11:26:06.902Z</time>
      </trkpt>
      <trkpt lat="63.28822" lon="8.53873">
        <ele>47.92431</ele>
        <time>2020-08-04T11:26:10.874Z</time>
      </trkpt>
      <trkpt lat="63.28832" lon="8.53867">
        <ele>48.156484</ele>
        <time>2020-08-04T11:26:15.880Z</time>
      </trkpt>
      <trkpt lat="63.2884" lon="8.53857">
        <ele>48.368821</ele>
        <time>2020-08-04T11:26:19.858Z</time>
      </trkpt>
      <trkpt lat="63.2885" lon="8.53848">
        <ele>48.61631</ele>
        <time>2020-08-04T11:26:23.883Z</time>
      </trkpt>
      <trkpt lat="63.28861" lon="8.53841">
        <ele>48.855295</ele>
        <time>2020-08-04T11:26:26.872Z</time>
      </trkpt>
      <trkpt lat="63.28874" lon="8.53831">
        <ele>49.165431</ele>
        <time>2020-08-04T11:26:29.873Z</time>
      </trkpt>
      <trkpt lat="63.28884" lon="8.53824">
        <ele>49.409007</ele>
        <time>2020-08-04T11:26:31.868Z</time>
      </trkpt>
      <trkpt lat="63.28895" lon="8.53815">
        <ele>49.671508</ele>
        <time>2020-08-04T11:26:33.885Z</time>
      </trkpt>
      <trkpt lat="63.28907" lon="8.53806">
        <ele>49.945119</ele>
        <time>2020-08-04T11:26:35.869Z</time>
      </trkpt>
      <trkpt lat="63.28919" lon="8.53796">
        <ele>50.247671</ele>
        <time>2020-08-04T11:26:37.890Z</time>
      </trkpt>
      <trkpt lat="63.28931" lon="8.53788">
        <ele>50.551105</ele>
        <time>2020-08-04T11:26:39.873Z</time>
      </trkpt>
      <trkpt lat="63.28942" lon="8.53779">
        <ele>50.839002</ele>
        <time>2020-08-04T11:26:41.867Z</time>
      </trkpt>
      <trkpt lat="63.28953" lon="8.5377">
        <ele>51.115267</ele>
        <time>2020-08-04T11:26:43.857Z</time>
      </trkpt>
      <trkpt lat="63.28963" lon="8.53762">
        <ele>51.380682</ele>
        <time>2020-08-04T11:26:45.902Z</time>
      </trkpt>
      <trkpt lat="63.28973" lon="8.53753">
        <ele>51.637174</ele>
        <time>2020-08-04T11:26:47.902Z</time>
      </trkpt>
      <trkpt lat="63.28983" lon="8.53745">
        <ele>51.884738</ele>
        <time>2020-08-04T11:26:49.883Z</time>
      </trkpt>
      <trkpt lat="63.28993" lon="8.53738">
        <ele>52.124826</ele>
        <time>2020-08-04T11:26:51.876Z</time>
      </trkpt>
      <trkpt lat="63.29002" lon="8.53731">
        <ele>52.354781</ele>
        <time>2020-08-04T11:26:53.882Z</time>
      </trkpt>
      <trkpt lat="63.2901" lon="8.53723">
        <ele>52.579248</ele>
        <time>2020-08-04T11:26:55.886Z</time>
      </trkpt>
      <trkpt lat="63.29022" lon="8.53713">
        <ele>52.877136</ele>
        <time>2020-08-04T11:26:58.875Z</time>
      </trkpt>
      <trkpt lat="63.29033" lon="8.53704">
        <ele>53.14964</ele>
        <time>2020-08-04T11:27:01.875Z</time>
      </trkpt>
      <trkpt lat="63.29042" lon="8.53696">
        <ele>53.390053</ele>
        <time>2020-08-04T11:27:04.862Z</time>
      </trkpt>
      <trkpt lat="63.29051" lon="8.53689">
        <ele>53.615161</ele>
        <time>2020-08-04T11:27:07.930Z</time>
      </trkpt>
      <trkpt lat="63.29061" lon="8.53682">
        <ele>53.872428</ele>
        <time>2020-08-04T11:27:11.862Z</time>
      </trkpt>
      <trkpt lat="63.29071" lon="8.53675">
        <ele>54.110817</ele>
        <time>2020-08-04T11:27:15.873Z</time>
      </trkpt>
      <trkpt lat="63.2908" lon="8.53667">
        <ele>54.428427</ele>
        <time>2020-08-04T11:27:19.871Z</time>
      </trkpt>
      <trkpt lat="63.29089" lon="8.5366">
        <ele>54.906487</ele>
        <time>2020-08-04T11:27:23.882Z</time>
      </trkpt>
      <trkpt lat="63.29097" lon="8.53653">
        <ele>55.359047</ele>
        <time>2020-08-04T11:27:27.871Z</time>
      </trkpt>
      <trkpt lat="63.29107" lon="8.53644">
        <ele>55.890125</ele>
        <time>2020-08-04T11:27:32.900Z</time>
      </trkpt>
      <trkpt lat="63.29118" lon="8.53637">
        <ele>56.427095</ele>
        <time>2020-08-04T11:27:37.897Z</time>
      </trkpt>
      <trkpt lat="63.29128" lon="8.53628">
        <ele>56.953789</ele>
        <time>2020-08-04T11:27:42.858Z</time>
      </trkpt>
      <trkpt lat="63.29137" lon="8.53621">
        <ele>57.438982</ele>
        <time>2020-08-04T11:27:47.872Z</time>
      </trkpt>
      <trkpt lat="63.29146" lon="8.53614">
        <ele>57.906299</ele>
        <time>2020-08-04T11:27:52.882Z</time>
      </trkpt>
      <trkpt lat="63.29154" lon="8.53606">
        <ele>58.358194</ele>
        <time>2020-08-04T11:27:57.889Z</time>
      </trkpt>
      <trkpt lat="63.29163" lon="8.53598">
        <ele>58.833406</ele>
        <time>2020-08-04T11:28:02.871Z</time>
      </trkpt>
      <trkpt lat="63.29172" lon="8.53589">
        <ele>59.335493</ele>
        <time>2020-08-04T11:28:07.879Z</time>
      </trkpt>
      <trkpt lat="63.29182" lon="8.53583">
        <ele>59.81186</ele>
        <time>2020-08-04T11:28:11.860Z</time>
      </trkpt>
      <trkpt lat="63.29193" lon="8.53576">
        <ele>60.377276</ele>
        <time>2020-08-04T11:28:15.911Z</time>
      </trkpt>
      <trkpt lat="63.29202" lon="8.53568">
        <ele>60.873975</ele>
        <time>2020-08-04T11:28:18.871Z</time>
      </trkpt>
      <trkpt lat="63.29215" lon="8.53565">
        <ele>61.495549</ele>
        <time>2020-08-04T11:28:21.871Z</time>
      </trkpt>
      <trkpt lat="63.29225" lon="8.53562">
        <ele>62.005257</ele>
        <time>2020-08-04T11:28:23.893Z</time>
      </trkpt>
      <trkpt lat="63.29236" lon="8.53557">
        <ele>62.557987</ele>
        <time>2020-08-04T11:28:25.894Z</time>
      </trkpt>
      <trkpt lat="63.29247" lon="8.53554">
        <ele>63.132227</ele>
        <time>2020-08-04T11:28:27.870Z</time>
      </trkpt>
      <trkpt lat="63.29259" lon="8.5355">
        <ele>63.190243</ele>
        <time>2020-08-04T11:28:29.861Z</time>
      </trkpt>
      <trkpt lat="63.29269" lon="8.53546">
        <ele>63.232594</ele>
        <time>2020-08-04T11:28:31.884Z</time>
      </trkpt>
      <trkpt lat="63.29279" lon="8.53542">
        <ele>63.272065</ele>
        <time>2020-08-04T11:28:33.868Z</time>
      </trkpt>
      <trkpt lat="63.29292" lon="8.53537">
        <ele>63.324921</ele>
        <time>2020-08-04T11:28:36.872Z</time>
      </trkpt>
      <trkpt lat="63.29302" lon="8.53533">
        <ele>63.36831</ele>
        <time>2020-08-04T11:28:39.860Z</time>
      </trkpt>
      <trkpt lat="63.29311" lon="8.53528">
        <ele>63.40598</ele>
        <time>2020-08-04T11:28:42.855Z</time>
      </trkpt>
      <trkpt lat="63.29323" lon="8.53526">
        <ele>63.453866</ele>
        <time>2020-08-04T11:28:46.864Z</time>
      </trkpt>
      <trkpt lat="63.29332" lon="8.53521">
        <ele>63.490874</ele>
        <time>2020-08-04T11:28:50.881Z</time>
      </trkpt>
      <trkpt lat="63.29343" lon="8.53519">
        <ele>63.536611</ele>
        <time>2020-08-04T11:28:54.886Z</time>
      </trkpt>
      <trkpt lat="63.29353" lon="8.53516">
        <ele>63.575984</ele>
        <time>2020-08-04T11:28:57.887Z</time>
      </trkpt>
      <trkpt lat="63.29364" lon="8.5351">
        <ele>63.622582</ele>
        <time>2020-08-04T11:29:00.882Z</time>
      </trkpt>
      <trkpt lat="63.29377" lon="8.53504">
        <ele>63.677154</ele>
        <time>2020-08-04T11:29:03.863Z</time>
      </trkpt>
      <trkpt lat="63.29387" lon="8.535">
        <ele>63.717452</ele>
        <time>2020-08-04T11:29:05.887Z</time>
      </trkpt>
      <trkpt lat="63.29399" lon="8.53496">
        <ele>63.765289</ele>
        <time>2020-08-04T11:29:07.915Z</time>
      </trkpt>
      <trkpt lat="63.29413" lon="8.53492">
        <ele>63.825255</ele>
        <time>2020-08-04T11:29:09.877Z</time>
      </trkpt>
      <trkpt lat="63.29429" lon="8.53487">
        <ele>63.646416</ele>
        <time>2020-08-04T11:29:11.865Z</time>
      </trkpt>
      <trkpt lat="63.29446" lon="8.53481">
        <ele>62.755001</ele>
        <time>2020-08-04T11:29:13.883Z</time>
      </trkpt>
      <trkpt lat="63.29456" lon="8.53478">
        <ele>62.258284</ele>
        <time>2020-08-04T11:29:14.898Z</time>
      </trkpt>
      <trkpt lat="63.29465" lon="8.53476">
        <ele>61.7479</ele>
        <time>2020-08-04T11:29:15.869Z</time>
      </trkpt>
      <trkpt lat="63.29476" lon="8.53473">
        <ele>61.212018</ele>
        <time>2020-08-04T11:29:16.921Z</time>
      </trkpt>
      <trkpt lat="63.29487" lon="8.53471">
        <ele>60.649413</ele>
        <time>2020-08-04T11:29:17.888Z</time>
      </trkpt>
      <trkpt lat="63.29497" lon="8.53467">
        <ele>60.07995</ele>
        <time>2020-08-04T11:29:18.911Z</time>
      </trkpt>
      <trkpt lat="63.29508" lon="8.53464">
        <ele>59.525544</ele>
        <time>2020-08-04T11:29:19.861Z</time>
      </trkpt>
      <trkpt lat="63.29518" lon="8.5346">
        <ele>58.990547</ele>
        <time>2020-08-04T11:29:20.875Z</time>
      </trkpt>
      <trkpt lat="63.29528" lon="8.53457">
        <ele>58.482212</ele>
        <time>2020-08-04T11:29:21.867Z</time>
      </trkpt>
      <trkpt lat="63.29538" lon="8.53453">
        <ele>57.973877</ele>
        <time>2020-08-04T11:29:22.899Z</time>
      </trkpt>
      <trkpt lat="63.29547" lon="8.5345">
        <ele>57.482609</ele>
        <time>2020-08-04T11:29:23.881Z</time>
      </trkpt>
      <trkpt lat="63.29565" lon="8.53445">
        <ele>56.561904</ele>
        <time>2020-08-04T11:29:25.876Z</time>
      </trkpt>
      <trkpt lat="63.29574" lon="8.53442">
        <ele>56.0908</ele>
        <time>2020-08-04T11:29:26.869Z</time>
      </trkpt>
      <trkpt lat="63.29583" lon="8.53439">
        <ele>55.620679</ele>
        <time>2020-08-04T11:29:27.901Z</time>
      </trkpt>
      <trkpt lat="63.296" lon="8.53433">
        <ele>54.719406</ele>
        <time>2020-08-04T11:29:29.859Z</time>
      </trkpt>
      <trkpt lat="63.29616" lon="8.53427">
        <ele>54.623652</ele>
        <time>2020-08-04T11:29:31.872Z</time>
      </trkpt>
      <trkpt lat="63.2963" lon="8.53425">
        <ele>54.692093</ele>
        <time>2020-08-04T11:29:33.850Z</time>
      </trkpt>
      <trkpt lat="63.29642" lon="8.53421">
        <ele>54.754129</ele>
        <time>2020-08-04T11:29:35.865Z</time>
      </trkpt>
      <trkpt lat="63.29652" lon="8.53415">
        <ele>54.80426</ele>
        <time>2020-08-04T11:29:37.868Z</time>
      </trkpt>
      <trkpt lat="63.29665" lon="8.53411">
        <ele>54.865503</ele>
        <time>2020-08-04T11:29:40.926Z</time>
      </trkpt>
      <trkpt lat="63.29675" lon="8.53408">
        <ele>54.915036</ele>
        <time>2020-08-04T11:29:43.852Z</time>
      </trkpt>
      <trkpt lat="63.29686" lon="8.53405">
        <ele>54.96941</ele>
        <time>2020-08-04T11:29:47.888Z</time>
      </trkpt>
      <trkpt lat="63.29696" lon="8.53406">
        <ele>55.019126</ele>
        <time>2020-08-04T11:29:51.852Z</time>
      </trkpt>
      <trkpt lat="63.29707" lon="8.53404">
        <ele>55.074773</ele>
        <time>2020-08-04T11:29:56.858Z</time>
      </trkpt>
      <trkpt lat="63.29717" lon="8.53404">
        <ele>55.119637</ele>
        <time>2020-08-04T11:29:59.856Z</time>
      </trkpt>
      <trkpt lat="63.29727" lon="8.53405">
        <ele>55.168496</ele>
        <time>2020-08-04T11:30:02.880Z</time>
      </trkpt>
      <trkpt lat="63.29737" lon="8.53409">
        <ele>55.218843</ele>
        <time>2020-08-04T11:30:05.858Z</time>
      </trkpt>
      <trkpt lat="63.29748" lon="8.53413">
        <ele>55.271701</ele>
        <time>2020-08-04T11:30:08.857Z</time>
      </trkpt>
      <trkpt lat="63.29758" lon="8.53418">
        <ele>55.323203</ele>
        <time>2020-08-04T11:30:11.876Z</time>
      </trkpt>
      <trkpt lat="63.29769" lon="8.53424">
        <ele>55.37754</ele>
        <time>2020-08-04T11:30:14.856Z</time>
      </trkpt>
      <trkpt lat="63.29779" lon="8.53431">
        <ele>55.43228</ele>
        <time>2020-08-04T11:30:17.860Z</time>
      </trkpt>
      <trkpt lat="63.2979" lon="8.53439">
        <ele>55.387037</ele>
        <time>2020-08-04T11:30:20.859Z</time>
      </trkpt>
      <trkpt lat="63.29801" lon="8.53448">
        <ele>55.32961</ele>
        <time>2020-08-04T11:30:23.911Z</time>
      </trkpt>
      <trkpt lat="63.29813" lon="8.53456">
        <ele>55.268766</ele>
        <time>2020-08-04T11:30:26.882Z</time>
      </trkpt>
      <trkpt lat="63.29821" lon="8.53465">
        <ele>55.224158</ele>
        <time>2020-08-04T11:30:28.871Z</time>
      </trkpt>
      <trkpt lat="63.29829" lon="8.53476">
        <ele>55.174747</ele>
        <time>2020-08-04T11:30:30.865Z</time>
      </trkpt>
      <trkpt lat="63.29839" lon="8.53487">
        <ele>55.122635</ele>
        <time>2020-08-04T11:30:32.886Z</time>
      </trkpt>
      <trkpt lat="63.29848" lon="8.53501">
        <ele>55.065424</ele>
        <time>2020-08-04T11:30:34.890Z</time>
      </trkpt>
      <trkpt lat="63.29858" lon="8.53518">
        <ele>55.003812</ele>
        <time>2020-08-04T11:30:36.896Z</time>
      </trkpt>
      <trkpt lat="63.29868" lon="8.53539">
        <ele>54.937692</ele>
        <time>2020-08-04T11:30:38.879Z</time>
      </trkpt>
      <trkpt lat="63.29879" lon="8.53563">
        <ele>54.86158</ele>
        <time>2020-08-04T11:30:40.879Z</time>
      </trkpt>
      <trkpt lat="63.29893" lon="8.53585">
        <ele>54.777366</ele>
        <time>2020-08-04T11:30:42.863Z</time>
      </trkpt>
      <trkpt lat="63.29909" lon="8.53601">
        <ele>54.688312</ele>
        <time>2020-08-04T11:30:44.893Z</time>
      </trkpt>
      <trkpt lat="63.29919" lon="8.53607">
        <ele>54.638715</ele>
        <time>2020-08-04T11:30:45.890Z</time>
      </trkpt>
      <trkpt lat="63.29929" lon="8.53612">
        <ele>54.588634</ele>
        <time>2020-08-04T11:30:46.866Z</time>
      </trkpt>
      <trkpt lat="63.29939" lon="8.53616">
        <ele>54.534748</ele>
        <time>2020-08-04T11:30:47.856Z</time>
      </trkpt>
      <trkpt lat="63.29948" lon="8.5362">
        <ele>54.461997</ele>
        <time>2020-08-04T11:30:48.863Z</time>
      </trkpt>
      <trkpt lat="63.29958" lon="8.53624">
        <ele>54.390872</ele>
        <time>2020-08-04T11:30:49.856Z</time>
      </trkpt>
      <trkpt lat="63.29967" lon="8.53627">
        <ele>54.320473</ele>
        <time>2020-08-04T11:30:50.873Z</time>
      </trkpt>
      <trkpt lat="63.29976" lon="8.53632">
        <ele>54.253905</ele>
        <time>2020-08-04T11:30:51.866Z</time>
      </trkpt>
      <trkpt lat="63.29992" lon="8.53642">
        <ele>54.132666</ele>
        <time>2020-08-04T11:30:53.891Z</time>
      </trkpt>
      <trkpt lat="63.30006" lon="8.5365">
        <ele>54.023962</ele>
        <time>2020-08-04T11:30:55.874Z</time>
      </trkpt>
      <trkpt lat="63.30017" lon="8.53659">
        <ele>53.936298</ele>
        <time>2020-08-04T11:30:57.923Z</time>
      </trkpt>
      <trkpt lat="63.30027" lon="8.53668">
        <ele>53.861287</ele>
        <time>2020-08-04T11:30:59.858Z</time>
      </trkpt>
      <trkpt lat="63.30035" lon="8.53676">
        <ele>53.794128</ele>
        <time>2020-08-04T11:31:01.911Z</time>
      </trkpt>
      <trkpt lat="63.30045" lon="8.53691">
        <ele>53.707139</ele>
        <time>2020-08-04T11:31:04.883Z</time>
      </trkpt>
      <trkpt lat="63.30053" lon="8.53708">
        <ele>53.623436</ele>
        <time>2020-08-04T11:31:07.874Z</time>
      </trkpt>
      <trkpt lat="63.3006" lon="8.53728">
        <ele>53.538791</ele>
        <time>2020-08-04T11:31:10.882Z</time>
      </trkpt>
      <trkpt lat="63.30068" lon="8.53753">
        <ele>53.439081</ele>
        <time>2020-08-04T11:31:13.873Z</time>
      </trkpt>
      <trkpt lat="63.30073" lon="8.53772">
        <ele>53.366432</ele>
        <time>2020-08-04T11:31:15.869Z</time>
      </trkpt>
      <trkpt lat="63.30078" lon="8.53793">
        <ele>53.287252</ele>
        <time>2020-08-04T11:31:17.907Z</time>
      </trkpt>
      <trkpt lat="63.30084" lon="8.53814">
        <ele>53.232855</ele>
        <time>2020-08-04T11:31:19.878Z</time>
      </trkpt>
      <trkpt lat="63.3009" lon="8.53838">
        <ele>53.296326</ele>
        <time>2020-08-04T11:31:21.863Z</time>
      </trkpt>
      <trkpt lat="63.30096" lon="8.53863">
        <ele>53.361961</ele>
        <time>2020-08-04T11:31:23.908Z</time>
      </trkpt>
      <trkpt lat="63.30102" lon="8.53889">
        <ele>53.430673</ele>
        <time>2020-08-04T11:31:25.881Z</time>
      </trkpt>
      <trkpt lat="63.30109" lon="8.53916">
        <ele>53.500596</ele>
        <time>2020-08-04T11:31:27.858Z</time>
      </trkpt>
      <trkpt lat="63.30116" lon="8.53943">
        <ele>53.573172</ele>
        <time>2020-08-04T11:31:29.899Z</time>
      </trkpt>
      <trkpt lat="63.30122" lon="8.53971">
        <ele>53.645945</ele>
        <time>2020-08-04T11:31:31.880Z</time>
      </trkpt>
      <trkpt lat="63.30128" lon="8.53998">
        <ele>53.713817</ele>
        <time>2020-08-04T11:31:33.895Z</time>
      </trkpt>
      <trkpt lat="63.30134" lon="8.54021">
        <ele>53.7746</ele>
        <time>2020-08-04T11:31:35.876Z</time>
      </trkpt>
      <trkpt lat="63.30139" lon="8.54043">
        <ele>53.831192</ele>
        <time>2020-08-04T11:31:37.871Z</time>
      </trkpt>
      <trkpt lat="63.30145" lon="8.54063">
        <ele>53.884458</ele>
        <time>2020-08-04T11:31:39.879Z</time>
      </trkpt>
      <trkpt lat="63.30149" lon="8.54082">
        <ele>53.93602</ele>
        <time>2020-08-04T11:31:41.875Z</time>
      </trkpt>
      <trkpt lat="63.30153" lon="8.54102">
        <ele>53.985377</ele>
        <time>2020-08-04T11:31:43.873Z</time>
      </trkpt>
      <trkpt lat="63.30158" lon="8.5412">
        <ele>54.03256</ele>
        <time>2020-08-04T11:31:45.938Z</time>
      </trkpt>
      <trkpt lat="63.30163" lon="8.54143">
        <ele>54.092552</ele>
        <time>2020-08-04T11:31:48.903Z</time>
      </trkpt>
      <trkpt lat="63.30168" lon="8.54161">
        <ele>54.139579</ele>
        <time>2020-08-04T11:31:51.858Z</time>
      </trkpt>
      <trkpt lat="63.30172" lon="8.54179">
        <ele>54.959117</ele>
        <time>2020-08-04T11:31:55.873Z</time>
      </trkpt>
      <trkpt lat="63.30178" lon="8.54198">
        <ele>55.899647</ele>
        <time>2020-08-04T11:32:00.913Z</time>
      </trkpt>
      <trkpt lat="63.30181" lon="8.54218">
        <ele>56.779088</ele>
        <time>2020-08-04T11:32:06.873Z</time>
      </trkpt>
      <trkpt lat="63.30185" lon="8.54237">
        <ele>57.63871</ele>
        <time>2020-08-04T11:32:12.897Z</time>
      </trkpt>
      <trkpt lat="63.30189" lon="8.54257">
        <ele>58.494874</ele>
        <time>2020-08-04T11:32:18.891Z</time>
      </trkpt>
      <trkpt lat="63.30194" lon="8.54274">
        <ele>59.341201</ele>
        <time>2020-08-04T11:32:24.896Z</time>
      </trkpt>
      <trkpt lat="63.30199" lon="8.54293">
        <ele>60.279075</ele>
        <time>2020-08-04T11:32:31.869Z</time>
      </trkpt>
      <trkpt lat="63.30204" lon="8.54311">
        <ele>61.146515</ele>
        <time>2020-08-04T11:32:37.881Z</time>
      </trkpt>
      <trkpt lat="63.30209" lon="8.54331">
        <ele>62.061521</ele>
        <time>2020-08-04T11:32:44.897Z</time>
      </trkpt>
      <trkpt lat="63.30212" lon="8.54351">
        <ele>62.936704</ele>
        <time>2020-08-04T11:32:50.862Z</time>
      </trkpt>
      <trkpt lat="63.30217" lon="8.54369">
        <ele>63.821263</ele>
        <time>2020-08-04T11:32:56.864Z</time>
      </trkpt>
      <trkpt lat="63.30222" lon="8.5439">
        <ele>64.771286</ele>
        <time>2020-08-04T11:33:02.873Z</time>
      </trkpt>
      <trkpt lat="63.30226" lon="8.5441">
        <ele>65.701518</ele>
        <time>2020-08-04T11:33:08.854Z</time>
      </trkpt>
      <trkpt lat="63.30232" lon="8.54429">
        <ele>66.618347</ele>
        <time>2020-08-04T11:33:13.895Z</time>
      </trkpt>
      <trkpt lat="63.30237" lon="8.54448">
        <ele>67.550016</ele>
        <time>2020-08-04T11:33:18.863Z</time>
      </trkpt>
      <trkpt lat="63.30242" lon="8.54466">
        <ele>68.38894</ele>
        <time>2020-08-04T11:33:23.856Z</time>
      </trkpt>
      <trkpt lat="63.30245" lon="8.54484">
        <ele>69.226025</ele>
        <time>2020-08-04T11:33:28.869Z</time>
      </trkpt>
      <trkpt lat="63.3025" lon="8.54504">
        <ele>70.15712</ele>
        <time>2020-08-04T11:33:32.887Z</time>
      </trkpt>
      <trkpt lat="63.30255" lon="8.54524">
        <ele>70.748076</ele>
        <time>2020-08-04T11:33:36.871Z</time>
      </trkpt>
      <trkpt lat="63.3026" lon="8.54543">
        <ele>71.002037</ele>
        <time>2020-08-04T11:33:40.855Z</time>
      </trkpt>
      <trkpt lat="63.30264" lon="8.54563">
        <ele>71.256973</ele>
        <time>2020-08-04T11:33:44.879Z</time>
      </trkpt>
      <trkpt lat="63.30268" lon="8.54582">
        <ele>71.508837</ele>
        <time>2020-08-04T11:33:48.869Z</time>
      </trkpt>
      <trkpt lat="63.30273" lon="8.54602">
        <ele>71.770648</ele>
        <time>2020-08-04T11:33:52.883Z</time>
      </trkpt>
      <trkpt lat="63.30277" lon="8.5462">
        <ele>72.014168</ele>
        <time>2020-08-04T11:33:56.871Z</time>
      </trkpt>
      <trkpt lat="63.30283" lon="8.5464">
        <ele>72.281794</ele>
        <time>2020-08-04T11:34:00.909Z</time>
      </trkpt>
      <trkpt lat="63.30288" lon="8.54659">
        <ele>72.55533</ele>
        <time>2020-08-04T11:34:04.868Z</time>
      </trkpt>
      <trkpt lat="63.30293" lon="8.54678">
        <ele>72.800928</ele>
        <time>2020-08-04T11:34:08.896Z</time>
      </trkpt>
      <trkpt lat="63.30297" lon="8.54698">
        <ele>73.060147</ele>
        <time>2020-08-04T11:34:12.870Z</time>
      </trkpt>
      <trkpt lat="63.30301" lon="8.54717">
        <ele>73.303417</ele>
        <time>2020-08-04T11:34:16.876Z</time>
      </trkpt>
      <trkpt lat="63.30306" lon="8.54737">
        <ele>73.56506</ele>
        <time>2020-08-04T11:34:20.868Z</time>
      </trkpt>
      <trkpt lat="63.30311" lon="8.54757">
        <ele>73.840576</ele>
        <time>2020-08-04T11:34:24.920Z</time>
      </trkpt>
      <trkpt lat="63.30317" lon="8.54776">
        <ele>74.106394</ele>
        <time>2020-08-04T11:34:28.891Z</time>
      </trkpt>
      <trkpt lat="63.30322" lon="8.54794">
        <ele>74.35605</ele>
        <time>2020-08-04T11:34:32.867Z</time>
      </trkpt>
      <trkpt lat="63.30328" lon="8.54812">
        <ele>74.614069</ele>
        <time>2020-08-04T11:34:36.856Z</time>
      </trkpt>
      <trkpt lat="63.30333" lon="8.5483">
        <ele>74.867477</ele>
        <time>2020-08-04T11:34:40.865Z</time>
      </trkpt>
      <trkpt lat="63.30338" lon="8.54849">
        <ele>75.125633</ele>
        <time>2020-08-04T11:34:44.884Z</time>
      </trkpt>
      <trkpt lat="63.30343" lon="8.54869">
        <ele>75.421633</ele>
        <time>2020-08-04T11:34:48.872Z</time>
      </trkpt>
      <trkpt lat="63.30347" lon="8.5489">
        <ele>75.803462</ele>
        <time>2020-08-04T11:34:52.867Z</time>
      </trkpt>
      <trkpt lat="63.30352" lon="8.54909">
        <ele>76.1656</ele>
        <time>2020-08-04T11:34:56.915Z</time>
      </trkpt>
      <trkpt lat="63.30356" lon="8.54929">
        <ele>76.530248</ele>
        <time>2020-08-04T11:35:00.880Z</time>
      </trkpt>
      <trkpt lat="63.30361" lon="8.54947">
        <ele>76.874143</ele>
        <time>2020-08-04T11:35:04.875Z</time>
      </trkpt>
      <trkpt lat="63.30366" lon="8.54966">
        <ele>77.231283</ele>
        <time>2020-08-04T11:35:08.857Z</time>
      </trkpt>
      <trkpt lat="63.3037" lon="8.54985">
        <ele>77.578433</ele>
        <time>2020-08-04T11:35:12.870Z</time>
      </trkpt>
      <trkpt lat="63.30375" lon="8.55004">
        <ele>77.941031</ele>
        <time>2020-08-04T11:35:16.873Z</time>
      </trkpt>
      <trkpt lat="63.30379" lon="8.55023">
        <ele>78.281165</ele>
        <time>2020-08-04T11:35:20.877Z</time>
      </trkpt>
      <trkpt lat="63.30385" lon="8.55042">
        <ele>78.666066</ele>
        <time>2020-08-04T11:35:24.875Z</time>
      </trkpt>
      <trkpt lat="63.30391" lon="8.55062">
        <ele>79.047326</ele>
        <time>2020-08-04T11:35:28.875Z</time>
      </trkpt>
      <trkpt lat="63.30396" lon="8.5508">
        <ele>79.392478</ele>
        <time>2020-08-04T11:35:32.887Z</time>
      </trkpt>
      <trkpt lat="63.30401" lon="8.551">
        <ele>79.766068</ele>
        <time>2020-08-04T11:35:36.862Z</time>
      </trkpt>
      <trkpt lat="63.30406" lon="8.55118">
        <ele>80.129245</ele>
        <time>2020-08-04T11:35:40.869Z</time>
      </trkpt>
      <trkpt lat="63.30412" lon="8.55139">
        <ele>80.522226</ele>
        <time>2020-08-04T11:35:45.871Z</time>
      </trkpt>
      <trkpt lat="63.30417" lon="8.55157">
        <ele>80.88534</ele>
        <time>2020-08-04T11:35:49.893Z</time>
      </trkpt>
      <trkpt lat="63.30424" lon="8.55177">
        <ele>81.295359</ele>
        <time>2020-08-04T11:35:54.888Z</time>
      </trkpt>
      <trkpt lat="63.3043" lon="8.55196">
        <ele>81.661187</ele>
        <time>2020-08-04T11:35:58.878Z</time>
      </trkpt>
      <trkpt lat="63.30435" lon="8.55213">
        <ele>82.001314</ele>
        <time>2020-08-04T11:36:02.896Z</time>
      </trkpt>
      <trkpt lat="63.3044" lon="8.55229">
        <ele>82.322467</ele>
        <time>2020-08-04T11:36:06.872Z</time>
      </trkpt>
      <trkpt lat="63.30447" lon="8.55248">
        <ele>82.710181</ele>
        <time>2020-08-04T11:36:11.874Z</time>
      </trkpt>
      <trkpt lat="63.30453" lon="8.55266">
        <ele>83.08428</ele>
        <time>2020-08-04T11:36:16.878Z</time>
      </trkpt>
      <trkpt lat="63.30458" lon="8.55285">
        <ele>83.435386</ele>
        <time>2020-08-04T11:36:21.896Z</time>
      </trkpt>
      <trkpt lat="63.30464" lon="8.55304">
        <ele>83.803664</ele>
        <time>2020-08-04T11:36:26.891Z</time>
      </trkpt>
      <trkpt lat="63.3047" lon="8.55323">
        <ele>84.175295</ele>
        <time>2020-08-04T11:36:31.858Z</time>
      </trkpt>
      <trkpt lat="63.30476" lon="8.5534">
        <ele>84.52734</ele>
        <time>2020-08-04T11:36:36.873Z</time>
      </trkpt>
      <trkpt lat="63.30482" lon="8.55357">
        <ele>84.86868</ele>
        <time>2020-08-04T11:36:41.878Z</time>
      </trkpt>
      <trkpt lat="63.30489" lon="8.55373">
        <ele>85.236299</ele>
        <time>2020-08-04T11:36:47.894Z</time>
      </trkpt>
      <trkpt lat="63.30494" lon="8.55391">
        <ele>85.581983</ele>
        <time>2020-08-04T11:36:53.866Z</time>
      </trkpt>
      <trkpt lat="63.30499" lon="8.55408">
        <ele>85.904888</ele>
        <time>2020-08-04T11:36:59.878Z</time>
      </trkpt>
      <trkpt lat="63.30504" lon="8.55426">
        <ele>86.239484</ele>
        <time>2020-08-04T11:37:05.859Z</time>
      </trkpt>
      <trkpt lat="63.3051" lon="8.55444">
        <ele>86.604086</ele>
        <time>2020-08-04T11:37:11.891Z</time>
      </trkpt>
      <trkpt lat="63.30515" lon="8.55462">
        <ele>86.955207</ele>
        <time>2020-08-04T11:37:17.868Z</time>
      </trkpt>
      <trkpt lat="63.30521" lon="8.55481">
        <ele>87.327567</ele>
        <time>2020-08-04T11:37:23.859Z</time>
      </trkpt>
      <trkpt lat="63.30526" lon="8.55499">
        <ele>87.66861</ele>
        <time>2020-08-04T11:37:28.872Z</time>
      </trkpt>
      <trkpt lat="63.30531" lon="8.55516">
        <ele>87.994195</ele>
        <time>2020-08-04T11:37:33.868Z</time>
      </trkpt>
      <trkpt lat="63.30538" lon="8.55534">
        <ele>88.288514</ele>
        <time>2020-08-04T11:37:38.857Z</time>
      </trkpt>
      <trkpt lat="63.30544" lon="8.55553">
        <ele>88.166754</ele>
        <time>2020-08-04T11:37:43.879Z</time>
      </trkpt>
      <trkpt lat="63.3055" lon="8.55572">
        <ele>88.036079</ele>
        <time>2020-08-04T11:37:48.879Z</time>
      </trkpt>
      <trkpt lat="63.30557" lon="8.55593">
        <ele>87.90197</ele>
        <time>2020-08-04T11:37:53.858Z</time>
      </trkpt>
      <trkpt lat="63.30563" lon="8.55613">
        <ele>87.773198</ele>
        <time>2020-08-04T11:37:57.872Z</time>
      </trkpt>
      <trkpt lat="63.30568" lon="8.55635">
        <ele>87.639893</ele>
        <time>2020-08-04T11:38:01.886Z</time>
      </trkpt>
      <trkpt lat="63.30573" lon="8.55653">
        <ele>87.529647</ele>
        <time>2020-08-04T11:38:04.876Z</time>
      </trkpt>
      <trkpt lat="63.30577" lon="8.55671">
        <ele>87.418479</ele>
        <time>2020-08-04T11:38:07.891Z</time>
      </trkpt>
      <trkpt lat="63.30582" lon="8.5569">
        <ele>87.308193</ele>
        <time>2020-08-04T11:38:10.911Z</time>
      </trkpt>
      <trkpt lat="63.30586" lon="8.5571">
        <ele>87.183854</ele>
        <time>2020-08-04T11:38:13.861Z</time>
      </trkpt>
      <trkpt lat="63.30591" lon="8.55733">
        <ele>87.054833</ele>
        <time>2020-08-04T11:38:16.877Z</time>
      </trkpt>
      <trkpt lat="63.30595" lon="8.55758">
        <ele>86.908918</ele>
        <time>2020-08-04T11:38:19.940Z</time>
      </trkpt>
      <trkpt lat="63.306" lon="8.55787">
        <ele>86.748789</ele>
        <time>2020-08-04T11:38:22.868Z</time>
      </trkpt>
      <trkpt lat="63.30603" lon="8.55806">
        <ele>86.639302</ele>
        <time>2020-08-04T11:38:24.866Z</time>
      </trkpt>
      <trkpt lat="63.30606" lon="8.55826">
        <ele>86.526176</ele>
        <time>2020-08-04T11:38:26.880Z</time>
      </trkpt>
      <trkpt lat="63.30609" lon="8.55847">
        <ele>86.405737</ele>
        <time>2020-08-04T11:38:28.871Z</time>
      </trkpt>
      <trkpt lat="63.30613" lon="8.55869">
        <ele>86.285304</ele>
        <time>2020-08-04T11:38:30.904Z</time>
      </trkpt>
      <trkpt lat="63.30616" lon="8.55889">
        <ele>86.195521</ele>
        <time>2020-08-04T11:38:32.875Z</time>
      </trkpt>
      <trkpt lat="63.3062" lon="8.55908">
        <ele>86.488413</ele>
        <time>2020-08-04T11:38:34.867Z</time>
      </trkpt>
      <trkpt lat="63.30623" lon="8.55928">
        <ele>86.786799</ele>
        <time>2020-08-04T11:38:36.852Z</time>
      </trkpt>
      <trkpt lat="63.30626" lon="8.55947">
        <ele>87.080095</ele>
        <time>2020-08-04T11:38:38.895Z</time>
      </trkpt>
      <trkpt lat="63.30631" lon="8.55976">
        <ele>87.502732</ele>
        <time>2020-08-04T11:38:41.892Z</time>
      </trkpt>
      <trkpt lat="63.30634" lon="8.56004">
        <ele>87.919201</ele>
        <time>2020-08-04T11:38:44.877Z</time>
      </trkpt>
      <trkpt lat="63.30638" lon="8.5603">
        <ele>88.312563</ele>
        <time>2020-08-04T11:38:47.873Z</time>
      </trkpt>
      <trkpt lat="63.30641" lon="8.56055">
        <ele>88.680127</ele>
        <time>2020-08-04T11:38:50.858Z</time>
      </trkpt>
      <trkpt lat="63.30645" lon="8.5608">
        <ele>89.050824</ele>
        <time>2020-08-04T11:38:53.883Z</time>
      </trkpt>
      <trkpt lat="63.30648" lon="8.56102">
        <ele>89.384408</ele>
        <time>2020-08-04T11:38:56.876Z</time>
      </trkpt>
      <trkpt lat="63.30651" lon="8.56124">
        <ele>89.704948</ele>
        <time>2020-08-04T11:38:59.891Z</time>
      </trkpt>
      <trkpt lat="63.30655" lon="8.56145">
        <ele>90.029248</ele>
        <time>2020-08-04T11:39:02.895Z</time>
      </trkpt>
      <trkpt lat="63.30658" lon="8.56166">
        <ele>90.349005</ele>
        <time>2020-08-04T11:39:05.882Z</time>
      </trkpt>
      <trkpt lat="63.30662" lon="8.56187">
        <ele>90.664739</ele>
        <time>2020-08-04T11:39:08.860Z</time>
      </trkpt>
      <trkpt lat="63.30665" lon="8.56207">
        <ele>90.966459</ele>
        <time>2020-08-04T11:39:11.860Z</time>
      </trkpt>
      <trkpt lat="63.3067" lon="8.5623">
        <ele>91.321233</ele>
        <time>2020-08-04T11:39:15.873Z</time>
      </trkpt>
      <trkpt lat="63.30673" lon="8.56253">
        <ele>91.656158</ele>
        <time>2020-08-04T11:39:19.874Z</time>
      </trkpt>
      <trkpt lat="63.30675" lon="8.56277">
        <ele>91.868301</ele>
        <time>2020-08-04T11:39:23.884Z</time>
      </trkpt>
      <trkpt lat="63.30678" lon="8.563">
        <ele>91.890564</ele>
        <time>2020-08-04T11:39:27.886Z</time>
      </trkpt>
      <trkpt lat="63.3068" lon="8.56323">
        <ele>91.913262</ele>
        <time>2020-08-04T11:39:31.878Z</time>
      </trkpt>
      <trkpt lat="63.30682" lon="8.56347">
        <ele>91.935506</ele>
        <time>2020-08-04T11:39:35.875Z</time>
      </trkpt>
      <trkpt lat="63.30685" lon="8.56369">
        <ele>91.957385</ele>
        <time>2020-08-04T11:39:39.866Z</time>
      </trkpt>
      <trkpt lat="63.30688" lon="8.56393">
        <ele>91.980659</ele>
        <time>2020-08-04T11:39:43.885Z</time>
      </trkpt>
      <trkpt lat="63.3069" lon="8.56417">
        <ele>92.003136</ele>
        <time>2020-08-04T11:39:47.915Z</time>
      </trkpt>
      <trkpt lat="63.30691" lon="8.56437">
        <ele>92.021803</ele>
        <time>2020-08-04T11:39:50.895Z</time>
      </trkpt>
      <trkpt lat="63.30692" lon="8.56457">
        <ele>92.041197</ele>
        <time>2020-08-04T11:39:53.891Z</time>
      </trkpt>
      <trkpt lat="63.30693" lon="8.56478">
        <ele>92.060534</ele>
        <time>2020-08-04T11:39:56.878Z</time>
      </trkpt>
      <trkpt lat="63.30695" lon="8.56498">
        <ele>92.079865</ele>
        <time>2020-08-04T11:39:59.851Z</time>
      </trkpt>
      <trkpt lat="63.30696" lon="8.56519">
        <ele>92.099016</ele>
        <time>2020-08-04T11:40:02.898Z</time>
      </trkpt>
      <trkpt lat="63.30696" lon="8.5654">
        <ele>92.119036</ele>
        <time>2020-08-04T11:40:05.881Z</time>
      </trkpt>
      <trkpt lat="63.30697" lon="8.56562">
        <ele>92.139253</ele>
        <time>2020-08-04T11:40:08.877Z</time>
      </trkpt>
      <trkpt lat="63.30698" lon="8.56584">
        <ele>92.160603</ele>
        <time>2020-08-04T11:40:11.878Z</time>
      </trkpt>
      <trkpt lat="63.30699" lon="8.56609">
        <ele>92.183612</ele>
        <time>2020-08-04T11:40:14.868Z</time>
      </trkpt>
      <trkpt lat="63.307" lon="8.56632">
        <ele>92.205572</ele>
        <time>2020-08-04T11:40:17.894Z</time>
      </trkpt>
      <trkpt lat="63.30701" lon="8.56657">
        <ele>92.228321</ele>
        <time>2020-08-04T11:40:20.897Z</time>
      </trkpt>
      <trkpt lat="63.30702" lon="8.56682">
        <ele>92.359616</ele>
        <time>2020-08-04T11:40:23.891Z</time>
      </trkpt>
      <trkpt lat="63.30703" lon="8.56708">
        <ele>92.522067</ele>
        <time>2020-08-04T11:40:26.889Z</time>
      </trkpt>
      <trkpt lat="63.30705" lon="8.56736">
        <ele>92.697721</ele>
        <time>2020-08-04T11:40:29.899Z</time>
      </trkpt>
      <trkpt lat="63.30707" lon="8.56766">
        <ele>92.882229</ele>
        <time>2020-08-04T11:40:32.893Z</time>
      </trkpt>
      <trkpt lat="63.30708" lon="8.56787">
        <ele>93.013904</ele>
        <time>2020-08-04T11:40:34.900Z</time>
      </trkpt>
      <trkpt lat="63.30709" lon="8.56808">
        <ele>93.147042</ele>
        <time>2020-08-04T11:40:36.910Z</time>
      </trkpt>
      <trkpt lat="63.3071" lon="8.5683">
        <ele>93.284167</ele>
        <time>2020-08-04T11:40:38.870Z</time>
      </trkpt>
      <trkpt lat="63.30712" lon="8.56854">
        <ele>93.429728</ele>
        <time>2020-08-04T11:40:40.870Z</time>
      </trkpt>
      <trkpt lat="63.30712" lon="8.56879">
        <ele>93.583749</ele>
        <time>2020-08-04T11:40:42.905Z</time>
      </trkpt>
      <trkpt lat="63.30713" lon="8.56905">
        <ele>93.745704</ele>
        <time>2020-08-04T11:40:44.876Z</time>
      </trkpt>
      <trkpt lat="63.30714" lon="8.56932">
        <ele>93.912751</ele>
        <time>2020-08-04T11:40:46.860Z</time>
      </trkpt>
      <trkpt lat="63.30714" lon="8.56956">
        <ele>94.062554</ele>
        <time>2020-08-04T11:40:48.912Z</time>
      </trkpt>
      <trkpt lat="63.30715" lon="8.5698">
        <ele>94.213079</ele>
        <time>2020-08-04T11:40:50.865Z</time>
      </trkpt>
      <trkpt lat="63.30716" lon="8.57005">
        <ele>94.365449</ele>
        <time>2020-08-04T11:40:52.875Z</time>
      </trkpt>
      <trkpt lat="63.30717" lon="8.57029">
        <ele>94.516983</ele>
        <time>2020-08-04T11:40:54.911Z</time>
      </trkpt>
      <trkpt lat="63.30718" lon="8.57054">
        <ele>94.670387</ele>
        <time>2020-08-04T11:40:56.857Z</time>
      </trkpt>
      <trkpt lat="63.30719" lon="8.57078">
        <ele>94.51066</ele>
        <time>2020-08-04T11:40:58.876Z</time>
      </trkpt>
      <trkpt lat="63.30719" lon="8.57102">
        <ele>94.258608</ele>
        <time>2020-08-04T11:41:00.872Z</time>
      </trkpt>
      <trkpt lat="63.30721" lon="8.57126">
        <ele>94.013729</ele>
        <time>2020-08-04T11:41:02.865Z</time>
      </trkpt>
      <trkpt lat="63.30722" lon="8.57148">
        <ele>93.778829</ele>
        <time>2020-08-04T11:41:04.874Z</time>
      </trkpt>
      <trkpt lat="63.30724" lon="8.57169">
        <ele>93.559389</ele>
        <time>2020-08-04T11:41:06.872Z</time>
      </trkpt>
      <trkpt lat="63.30726" lon="8.5719">
        <ele>93.334562</ele>
        <time>2020-08-04T11:41:08.880Z</time>
      </trkpt>
      <trkpt lat="63.30728" lon="8.57211">
        <ele>93.101527</ele>
        <time>2020-08-04T11:41:10.862Z</time>
      </trkpt>
      <trkpt lat="63.30731" lon="8.57233">
        <ele>92.867033</ele>
        <time>2020-08-04T11:41:12.888Z</time>
      </trkpt>
      <trkpt lat="63.30734" lon="8.57255">
        <ele>92.630829</ele>
        <time>2020-08-04T11:41:14.861Z</time>
      </trkpt>
      <trkpt lat="63.30736" lon="8.57276">
        <ele>92.404444</ele>
        <time>2020-08-04T11:41:16.863Z</time>
      </trkpt>
      <trkpt lat="63.30739" lon="8.57297">
        <ele>92.177047</ele>
        <time>2020-08-04T11:41:18.863Z</time>
      </trkpt>
      <trkpt lat="63.30741" lon="8.57317">
        <ele>91.955721</ele>
        <time>2020-08-04T11:41:20.889Z</time>
      </trkpt>
      <trkpt lat="63.30744" lon="8.57338">
        <ele>91.731181</ele>
        <time>2020-08-04T11:41:22.871Z</time>
      </trkpt>
      <trkpt lat="63.30746" lon="8.57357">
        <ele>91.521698</ele>
        <time>2020-08-04T11:41:24.891Z</time>
      </trkpt>
      <trkpt lat="63.30749" lon="8.57386">
        <ele>91.210167</ele>
        <time>2020-08-04T11:41:27.862Z</time>
      </trkpt>
      <trkpt lat="63.30751" lon="8.57406">
        <ele>90.997517</ele>
        <time>2020-08-04T11:41:29.861Z</time>
      </trkpt>
      <trkpt lat="63.30754" lon="8.57426">
        <ele>90.779223</ele>
        <time>2020-08-04T11:41:31.872Z</time>
      </trkpt>
      <trkpt lat="63.30756" lon="8.57446">
        <ele>90.565043</ele>
        <time>2020-08-04T11:41:33.879Z</time>
      </trkpt>
      <trkpt lat="63.30759" lon="8.57465">
        <ele>90.72753</ele>
        <time>2020-08-04T11:41:35.868Z</time>
      </trkpt>
      <trkpt lat="63.30762" lon="8.57485">
        <ele>90.986796</ele>
        <time>2020-08-04T11:41:37.890Z</time>
      </trkpt>
      <trkpt lat="63.30764" lon="8.57504">
        <ele>91.24125</ele>
        <time>2020-08-04T11:41:39.872Z</time>
      </trkpt>
      <trkpt lat="63.30768" lon="8.57532">
        <ele>91.603202</ele>
        <time>2020-08-04T11:41:42.892Z</time>
      </trkpt>
      <trkpt lat="63.30771" lon="8.57558">
        <ele>91.943761</ele>
        <time>2020-08-04T11:41:45.957Z</time>
      </trkpt>
      <trkpt lat="63.30774" lon="8.57584">
        <ele>92.277318</ele>
        <time>2020-08-04T11:41:48.864Z</time>
      </trkpt>
      <trkpt lat="63.30777" lon="8.57609">
        <ele>92.601831</ele>
        <time>2020-08-04T11:41:51.915Z</time>
      </trkpt>
      <trkpt lat="63.3078" lon="8.57632">
        <ele>92.907388</ele>
        <time>2020-08-04T11:41:54.865Z</time>
      </trkpt>
      <trkpt lat="63.30782" lon="8.57658">
        <ele>93.238397</ele>
        <time>2020-08-04T11:41:57.876Z</time>
      </trkpt>
      <trkpt lat="63.30785" lon="8.57682">
        <ele>93.54607</ele>
        <time>2020-08-04T11:42:00.860Z</time>
      </trkpt>
      <trkpt lat="63.30786" lon="8.57706">
        <ele>93.847864</ele>
        <time>2020-08-04T11:42:03.866Z</time>
      </trkpt>
      <trkpt lat="63.30788" lon="8.57729">
        <ele>94.147486</ele>
        <time>2020-08-04T11:42:06.859Z</time>
      </trkpt>
      <trkpt lat="63.3079" lon="8.57755">
        <ele>94.477386</ele>
        <time>2020-08-04T11:42:09.857Z</time>
      </trkpt>
      <trkpt lat="63.30792" lon="8.57781">
        <ele>94.815204</ele>
        <time>2020-08-04T11:42:12.864Z</time>
      </trkpt>
      <trkpt lat="63.30793" lon="8.57807">
        <ele>95.144207</ele>
        <time>2020-08-04T11:42:15.892Z</time>
      </trkpt>
      <trkpt lat="63.30795" lon="8.57833">
        <ele>95.465437</ele>
        <time>2020-08-04T11:42:18.874Z</time>
      </trkpt>
      <trkpt lat="63.30795" lon="8.57859">
        <ele>95.493885</ele>
        <time>2020-08-04T11:42:21.884Z</time>
      </trkpt>
      <trkpt lat="63.30796" lon="8.57885">
        <ele>95.397743</ele>
        <time>2020-08-04T11:42:24.855Z</time>
      </trkpt>
      <trkpt lat="63.30797" lon="8.57913">
        <ele>95.295255</ele>
        <time>2020-08-04T11:42:27.877Z</time>
      </trkpt>
      <trkpt lat="63.30797" lon="8.57942">
        <ele>95.19206</ele>
        <time>2020-08-04T11:42:30.894Z</time>
      </trkpt>
      <trkpt lat="63.30797" lon="8.57962">
        <ele>95.11826</ele>
        <time>2020-08-04T11:42:32.893Z</time>
      </trkpt>
      <trkpt lat="63.30797" lon="8.57983">
        <ele>95.042303</ele>
        <time>2020-08-04T11:42:34.894Z</time>
      </trkpt>
      <trkpt lat="63.30797" lon="8.58005">
        <ele>94.963456</ele>
        <time>2020-08-04T11:42:36.890Z</time>
      </trkpt>
      <trkpt lat="63.30796" lon="8.58026">
        <ele>94.885661</ele>
        <time>2020-08-04T11:42:38.879Z</time>
      </trkpt>
      <trkpt lat="63.30796" lon="8.58048">
        <ele>94.804799</ele>
        <time>2020-08-04T11:42:40.877Z</time>
      </trkpt>
      <trkpt lat="63.30795" lon="8.58072">
        <ele>94.718442</ele>
        <time>2020-08-04T11:42:42.889Z</time>
      </trkpt>
      <trkpt lat="63.30794" lon="8.58096">
        <ele>94.63014</ele>
        <time>2020-08-04T11:42:44.873Z</time>
      </trkpt>
      <trkpt lat="63.30793" lon="8.58121">
        <ele>94.538764</ele>
        <time>2020-08-04T11:42:46.895Z</time>
      </trkpt>
      <trkpt lat="63.30792" lon="8.58148">
        <ele>94.443223</ele>
        <time>2020-08-04T11:42:48.867Z</time>
      </trkpt>
      <trkpt lat="63.30791" lon="8.58175">
        <ele>94.344124</ele>
        <time>2020-08-04T11:42:50.867Z</time>
      </trkpt>
      <trkpt lat="63.3079" lon="8.58203">
        <ele>94.240759</ele>
        <time>2020-08-04T11:42:52.872Z</time>
      </trkpt>
      <trkpt lat="63.30789" lon="8.58233">
        <ele>94.132599</ele>
        <time>2020-08-04T11:42:54.871Z</time>
      </trkpt>
      <trkpt lat="63.30788" lon="8.58263">
        <ele>93.711826</ele>
        <time>2020-08-04T11:42:56.902Z</time>
      </trkpt>
      <trkpt lat="63.30787" lon="8.58292">
        <ele>93.193521</ele>
        <time>2020-08-04T11:42:58.864Z</time>
      </trkpt>
      <trkpt lat="63.30787" lon="8.58324">
        <ele>92.646214</ele>
        <time>2020-08-04T11:43:00.905Z</time>
      </trkpt>
      <trkpt lat="63.30787" lon="8.58356">
        <ele>92.083745</ele>
        <time>2020-08-04T11:43:02.866Z</time>
      </trkpt>
      <trkpt lat="63.30788" lon="8.5839">
        <ele>91.497653</ele>
        <time>2020-08-04T11:43:04.877Z</time>
      </trkpt>
      <trkpt lat="63.3079" lon="8.58427">
        <ele>90.854329</ele>
        <time>2020-08-04T11:43:06.889Z</time>
      </trkpt>
      <trkpt lat="63.30792" lon="8.58465">
        <ele>90.196414</ele>
        <time>2020-08-04T11:43:08.916Z</time>
      </trkpt>
      <trkpt lat="63.30794" lon="8.58503">
        <ele>89.523617</ele>
        <time>2020-08-04T11:43:10.870Z</time>
      </trkpt>
      <trkpt lat="63.30797" lon="8.58542">
        <ele>88.840552</ele>
        <time>2020-08-04T11:43:12.911Z</time>
      </trkpt>
      <trkpt lat="63.30801" lon="8.5858">
        <ele>88.15397</ele>
        <time>2020-08-04T11:43:14.864Z</time>
      </trkpt>
      <trkpt lat="63.30805" lon="8.58618">
        <ele>87.47063</ele>
        <time>2020-08-04T11:43:16.868Z</time>
      </trkpt>
      <trkpt lat="63.30811" lon="8.58656">
        <ele>86.638172</ele>
        <time>2020-08-04T11:43:18.869Z</time>
      </trkpt>
      <trkpt lat="63.30813" lon="8.58675">
        <ele>86.155488</ele>
        <time>2020-08-04T11:43:19.902Z</time>
      </trkpt>
      <trkpt lat="63.30816" lon="8.58695">
        <ele>85.665995</ele>
        <time>2020-08-04T11:43:20.884Z</time>
      </trkpt>
      <trkpt lat="63.30819" lon="8.58714">
        <ele>85.175288</ele>
        <time>2020-08-04T11:43:21.892Z</time>
      </trkpt>
      <trkpt lat="63.30823" lon="8.58733">
        <ele>84.683126</ele>
        <time>2020-08-04T11:43:22.868Z</time>
      </trkpt>
      <trkpt lat="63.30826" lon="8.58753">
        <ele>84.187056</ele>
        <time>2020-08-04T11:43:23.937Z</time>
      </trkpt>
      <trkpt lat="63.3083" lon="8.58772">
        <ele>83.676017</ele>
        <time>2020-08-04T11:43:24.878Z</time>
      </trkpt>
      <trkpt lat="63.30834" lon="8.58791">
        <ele>83.17138</ele>
        <time>2020-08-04T11:43:25.860Z</time>
      </trkpt>
      <trkpt lat="63.30839" lon="8.58811">
        <ele>82.651486</ele>
        <time>2020-08-04T11:43:26.899Z</time>
      </trkpt>
      <trkpt lat="63.30843" lon="8.58829">
        <ele>82.136858</ele>
        <time>2020-08-04T11:43:27.859Z</time>
      </trkpt>
      <trkpt lat="63.30848" lon="8.58848">
        <ele>81.625942</ele>
        <time>2020-08-04T11:43:28.862Z</time>
      </trkpt>
      <trkpt lat="63.30852" lon="8.58867">
        <ele>81.118059</ele>
        <time>2020-08-04T11:43:29.897Z</time>
      </trkpt>
      <trkpt lat="63.30857" lon="8.58886">
        <ele>80.61299</ele>
        <time>2020-08-04T11:43:30.878Z</time>
      </trkpt>
      <trkpt lat="63.30861" lon="8.58905">
        <ele>80.106198</ele>
        <time>2020-08-04T11:43:31.891Z</time>
      </trkpt>
      <trkpt lat="63.30865" lon="8.58924">
        <ele>79.601381</ele>
        <time>2020-08-04T11:43:32.895Z</time>
      </trkpt>
      <trkpt lat="63.30869" lon="8.58942">
        <ele>79.093874</ele>
        <time>2020-08-04T11:43:33.904Z</time>
      </trkpt>
      <trkpt lat="63.30874" lon="8.58961">
        <ele>78.585553</ele>
        <time>2020-08-04T11:43:34.932Z</time>
      </trkpt>
      <trkpt lat="63.30879" lon="8.5898">
        <ele>78.074642</ele>
        <time>2020-08-04T11:43:35.879Z</time>
      </trkpt>
      <trkpt lat="63.30883" lon="8.58999">
        <ele>77.562081</ele>
        <time>2020-08-04T11:43:36.878Z</time>
      </trkpt>
      <trkpt lat="63.30888" lon="8.59018">
        <ele>77.243313</ele>
        <time>2020-08-04T11:43:37.887Z</time>
      </trkpt>
      <trkpt lat="63.30892" lon="8.59037">
        <ele>76.929031</ele>
        <time>2020-08-04T11:43:38.868Z</time>
      </trkpt>
      <trkpt lat="63.30896" lon="8.59057">
        <ele>76.608265</ele>
        <time>2020-08-04T11:43:39.891Z</time>
      </trkpt>
      <trkpt lat="63.309" lon="8.59077">
        <ele>76.291503</ele>
        <time>2020-08-04T11:43:40.877Z</time>
      </trkpt>
      <trkpt lat="63.30904" lon="8.59097">
        <ele>75.974515</ele>
        <time>2020-08-04T11:43:41.871Z</time>
      </trkpt>
      <trkpt lat="63.30907" lon="8.59117">
        <ele>75.658267</ele>
        <time>2020-08-04T11:43:42.874Z</time>
      </trkpt>
      <trkpt lat="63.3091" lon="8.59138">
        <ele>75.339641</ele>
        <time>2020-08-04T11:43:43.896Z</time>
      </trkpt>
      <trkpt lat="63.30913" lon="8.59159">
        <ele>75.019205</ele>
        <time>2020-08-04T11:43:44.863Z</time>
      </trkpt>
      <trkpt lat="63.30916" lon="8.5918">
        <ele>74.695745</ele>
        <time>2020-08-04T11:43:45.898Z</time>
      </trkpt>
      <trkpt lat="63.30919" lon="8.59201">
        <ele>74.372936</ele>
        <time>2020-08-04T11:43:46.877Z</time>
      </trkpt>
      <trkpt lat="63.30922" lon="8.59222">
        <ele>74.045495</ele>
        <time>2020-08-04T11:43:47.869Z</time>
      </trkpt>
      <trkpt lat="63.30925" lon="8.59244">
        <ele>73.716501</ele>
        <time>2020-08-04T11:43:48.902Z</time>
      </trkpt>
      <trkpt lat="63.30927" lon="8.59265">
        <ele>73.386651</ele>
        <time>2020-08-04T11:43:49.864Z</time>
      </trkpt>
      <trkpt lat="63.3093" lon="8.59287">
        <ele>73.06295</ele>
        <time>2020-08-04T11:43:50.873Z</time>
      </trkpt>
      <trkpt lat="63.30933" lon="8.59308">
        <ele>72.733101</ele>
        <time>2020-08-04T11:43:51.915Z</time>
      </trkpt>
      <trkpt lat="63.30935" lon="8.5933">
        <ele>72.401276</ele>
        <time>2020-08-04T11:43:52.862Z</time>
      </trkpt>
      <trkpt lat="63.30938" lon="8.59352">
        <ele>72.07195</ele>
        <time>2020-08-04T11:43:53.897Z</time>
      </trkpt>
      <trkpt lat="63.30941" lon="8.59373">
        <ele>71.743513</ele>
        <time>2020-08-04T11:43:54.893Z</time>
      </trkpt>
      <trkpt lat="63.30944" lon="8.59395">
        <ele>71.542867</ele>
        <time>2020-08-04T11:43:55.888Z</time>
      </trkpt>
      <trkpt lat="63.30946" lon="8.59416">
        <ele>71.361207</ele>
        <time>2020-08-04T11:43:56.877Z</time>
      </trkpt>
      <trkpt lat="63.30949" lon="8.59437">
        <ele>71.183502</ele>
        <time>2020-08-04T11:43:57.885Z</time>
      </trkpt>
      <trkpt lat="63.30952" lon="8.59457">
        <ele>71.007378</ele>
        <time>2020-08-04T11:43:58.888Z</time>
      </trkpt>
      <trkpt lat="63.30955" lon="8.59477">
        <ele>70.833854</ele>
        <time>2020-08-04T11:43:59.876Z</time>
      </trkpt>
      <trkpt lat="63.30958" lon="8.59497">
        <ele>70.664253</ele>
        <time>2020-08-04T11:44:00.873Z</time>
      </trkpt>
      <trkpt lat="63.30963" lon="8.59534">
        <ele>70.337534</ele>
        <time>2020-08-04T11:44:02.892Z</time>
      </trkpt>
      <trkpt lat="63.30969" lon="8.59569">
        <ele>70.032321</ele>
        <time>2020-08-04T11:44:04.861Z</time>
      </trkpt>
      <trkpt lat="63.30974" lon="8.596">
        <ele>69.758186</ele>
        <time>2020-08-04T11:44:06.863Z</time>
      </trkpt>
      <trkpt lat="63.30979" lon="8.59631">
        <ele>69.489959</ele>
        <time>2020-08-04T11:44:08.862Z</time>
      </trkpt>
      <trkpt lat="63.30984" lon="8.59659">
        <ele>69.239421</ele>
        <time>2020-08-04T11:44:10.885Z</time>
      </trkpt>
      <trkpt lat="63.30988" lon="8.59685">
        <ele>69.00911</ele>
        <time>2020-08-04T11:44:12.862Z</time>
      </trkpt>
      <trkpt lat="63.30992" lon="8.5971">
        <ele>68.797607</ele>
        <time>2020-08-04T11:44:14.896Z</time>
      </trkpt>
      <trkpt lat="63.30995" lon="8.59732">
        <ele>68.597885</ele>
        <time>2020-08-04T11:44:16.854Z</time>
      </trkpt>
      <trkpt lat="63.30999" lon="8.59755">
        <ele>68.400464</ele>
        <time>2020-08-04T11:44:18.881Z</time>
      </trkpt>
      <trkpt lat="63.31004" lon="8.59774">
        <ele>68.506631</ele>
        <time>2020-08-04T11:44:20.854Z</time>
      </trkpt>
      <trkpt lat="63.31007" lon="8.59792">
        <ele>68.606456</ele>
        <time>2020-08-04T11:44:22.866Z</time>
      </trkpt>
      <trkpt lat="63.31014" lon="8.59817">
        <ele>68.750023</ele>
        <time>2020-08-04T11:44:25.871Z</time>
      </trkpt>
      <trkpt lat="63.31019" lon="8.59843">
        <ele>68.891661</ele>
        <time>2020-08-04T11:44:28.909Z</time>
      </trkpt>
      <trkpt lat="63.31025" lon="8.59867">
        <ele>69.028979</ele>
        <time>2020-08-04T11:44:31.883Z</time>
      </trkpt>
      <trkpt lat="63.31031" lon="8.59892">
        <ele>69.164775</ele>
        <time>2020-08-04T11:44:34.922Z</time>
      </trkpt>
      <trkpt lat="63.31036" lon="8.59917">
        <ele>69.30418</ele>
        <time>2020-08-04T11:44:37.860Z</time>
      </trkpt>
      <trkpt lat="63.31043" lon="8.59942">
        <ele>69.446882</ele>
        <time>2020-08-04T11:44:40.864Z</time>
      </trkpt>
      <trkpt lat="63.31047" lon="8.59959">
        <ele>69.548169</ele>
        <time>2020-08-04T11:44:42.892Z</time>
      </trkpt>
      <trkpt lat="63.31052" lon="8.59977">
        <ele>69.652015</ele>
        <time>2020-08-04T11:44:44.870Z</time>
      </trkpt>
      <trkpt lat="63.31057" lon="8.59996">
        <ele>69.759297</ele>
        <time>2020-08-04T11:44:46.869Z</time>
      </trkpt>
      <trkpt lat="63.31061" lon="8.60017">
        <ele>69.87274</ele>
        <time>2020-08-04T11:44:48.870Z</time>
      </trkpt>
      <trkpt lat="63.31065" lon="8.60037">
        <ele>69.985305</ele>
        <time>2020-08-04T11:44:50.870Z</time>
      </trkpt>
      <trkpt lat="63.31071" lon="8.60058">
        <ele>70.102742</ele>
        <time>2020-08-04T11:44:52.872Z</time>
      </trkpt>
      <trkpt lat="63.31076" lon="8.60079">
        <ele>70.223862</ele>
        <time>2020-08-04T11:44:54.880Z</time>
      </trkpt>
      <trkpt lat="63.31081" lon="8.60102">
        <ele>70.350406</ele>
        <time>2020-08-04T11:44:56.906Z</time>
      </trkpt>
      <trkpt lat="63.31087" lon="8.60123">
        <ele>70.42823</ele>
        <time>2020-08-04T11:44:58.871Z</time>
      </trkpt>
      <trkpt lat="63.31093" lon="8.60144">
        <ele>70.479976</ele>
        <time>2020-08-04T11:45:00.893Z</time>
      </trkpt>
      <trkpt lat="63.31099" lon="8.60164">
        <ele>70.531106</ele>
        <time>2020-08-04T11:45:02.889Z</time>
      </trkpt>
      <trkpt lat="63.31104" lon="8.60184">
        <ele>70.580584</ele>
        <time>2020-08-04T11:45:04.887Z</time>
      </trkpt>
      <trkpt lat="63.31109" lon="8.60203">
        <ele>70.629392</ele>
        <time>2020-08-04T11:45:06.862Z</time>
      </trkpt>
      <trkpt lat="63.31115" lon="8.60221">
        <ele>70.675343</ele>
        <time>2020-08-04T11:45:08.911Z</time>
      </trkpt>
      <trkpt lat="63.31122" lon="8.60245">
        <ele>70.737822</ele>
        <time>2020-08-04T11:45:11.883Z</time>
      </trkpt>
      <trkpt lat="63.31128" lon="8.60267">
        <ele>70.791822</ele>
        <time>2020-08-04T11:45:14.870Z</time>
      </trkpt>
      <trkpt lat="63.31132" lon="8.60286">
        <ele>70.837519</ele>
        <time>2020-08-04T11:45:17.894Z</time>
      </trkpt>
      <trkpt lat="63.31139" lon="8.60304">
        <ele>70.88732</ele>
        <time>2020-08-04T11:45:21.872Z</time>
      </trkpt>
      <trkpt lat="63.3115" lon="8.60306">
        <ele>70.938232</ele>
        <time>2020-08-04T11:45:24.859Z</time>
      </trkpt>
      <trkpt lat="63.31164" lon="8.6031">
        <ele>71.00656</ele>
        <time>2020-08-04T11:45:27.878Z</time>
      </trkpt>
      <trkpt lat="63.31176" lon="8.60322">
        <ele>71.068636</ele>
        <time>2020-08-04T11:45:29.919Z</time>
      </trkpt>
      <trkpt lat="63.31188" lon="8.60341">
        <ele>71.13814</ele>
        <time>2020-08-04T11:45:31.862Z</time>
      </trkpt>
      <trkpt lat="63.312" lon="8.60363">
        <ele>71.213934</ele>
        <time>2020-08-04T11:45:33.876Z</time>
      </trkpt>
      <trkpt lat="63.31214" lon="8.60386">
        <ele>70.796875</ele>
        <time>2020-08-04T11:45:35.860Z</time>
      </trkpt>
      <trkpt lat="63.31229" lon="8.6041">
        <ele>69.960212</ele>
        <time>2020-08-04T11:45:37.897Z</time>
      </trkpt>
      <trkpt lat="63.31237" lon="8.60423">
        <ele>69.513771</ele>
        <time>2020-08-04T11:45:38.881Z</time>
      </trkpt>
      <trkpt lat="63.31245" lon="8.60436">
        <ele>69.054946</ele>
        <time>2020-08-04T11:45:39.872Z</time>
      </trkpt>
      <trkpt lat="63.31253" lon="8.6045">
        <ele>68.587609</ele>
        <time>2020-08-04T11:45:40.862Z</time>
      </trkpt>
      <trkpt lat="63.31261" lon="8.60464">
        <ele>68.109283</ele>
        <time>2020-08-04T11:45:41.875Z</time>
      </trkpt>
      <trkpt lat="63.31269" lon="8.60478">
        <ele>67.629733</ele>
        <time>2020-08-04T11:45:42.862Z</time>
      </trkpt>
      <trkpt lat="63.31278" lon="8.60492">
        <ele>67.155088</ele>
        <time>2020-08-04T11:45:43.863Z</time>
      </trkpt>
      <trkpt lat="63.31286" lon="8.60506">
        <ele>66.662986</ele>
        <time>2020-08-04T11:45:44.892Z</time>
      </trkpt>
      <trkpt lat="63.31295" lon="8.60522">
        <ele>66.156008</ele>
        <time>2020-08-04T11:45:45.878Z</time>
      </trkpt>
      <trkpt lat="63.31304" lon="8.60538">
        <ele>65.630858</ele>
        <time>2020-08-04T11:45:46.871Z</time>
      </trkpt>
      <trkpt lat="63.31313" lon="8.60554">
        <ele>65.097001</ele>
        <time>2020-08-04T11:45:47.922Z</time>
      </trkpt>
      <trkpt lat="63.31322" lon="8.6057">
        <ele>64.563144</ele>
        <time>2020-08-04T11:45:48.859Z</time>
      </trkpt>
      <trkpt lat="63.31331" lon="8.60586">
        <ele>64.024721</ele>
        <time>2020-08-04T11:45:49.856Z</time>
      </trkpt>
      <trkpt lat="63.31341" lon="8.606">
        <ele>63.475187</ele>
        <time>2020-08-04T11:45:50.873Z</time>
      </trkpt>
      <trkpt lat="63.31352" lon="8.60614">
        <ele>62.967145</ele>
        <time>2020-08-04T11:45:51.885Z</time>
      </trkpt>
      <trkpt lat="63.31363" lon="8.60625">
        <ele>62.702383</ele>
        <time>2020-08-04T11:45:52.880Z</time>
      </trkpt>
      <trkpt lat="63.31375" lon="8.60634">
        <ele>62.434648</ele>
        <time>2020-08-04T11:45:53.886Z</time>
      </trkpt>
      <trkpt lat="63.31386" lon="8.6064">
        <ele>62.168825</ele>
        <time>2020-08-04T11:45:54.876Z</time>
      </trkpt>
      <trkpt lat="63.31398" lon="8.60642">
        <ele>61.912605</ele>
        <time>2020-08-04T11:45:55.879Z</time>
      </trkpt>
      <trkpt lat="63.3141" lon="8.60641">
        <ele>61.663746</ele>
        <time>2020-08-04T11:45:56.869Z</time>
      </trkpt>
      <trkpt lat="63.3142" lon="8.60638">
        <ele>61.423432</ele>
        <time>2020-08-04T11:45:57.880Z</time>
      </trkpt>
      <trkpt lat="63.31431" lon="8.60633">
        <ele>61.196137</ele>
        <time>2020-08-04T11:45:58.860Z</time>
      </trkpt>
      <trkpt lat="63.3144" lon="8.60627">
        <ele>60.979828</ele>
        <time>2020-08-04T11:45:59.867Z</time>
      </trkpt>
      <trkpt lat="63.31449" lon="8.60622">
        <ele>60.773007</ele>
        <time>2020-08-04T11:46:00.858Z</time>
      </trkpt>
      <trkpt lat="63.31465" lon="8.6061">
        <ele>60.414422</ele>
        <time>2020-08-04T11:46:02.869Z</time>
      </trkpt>
      <trkpt lat="63.31477" lon="8.606">
        <ele>60.141645</ele>
        <time>2020-08-04T11:46:04.886Z</time>
      </trkpt>
      <trkpt lat="63.31486" lon="8.60593">
        <ele>59.925806</ele>
        <time>2020-08-04T11:46:07.875Z</time>
      </trkpt>
      <trkpt lat="63.31494" lon="8.60586">
        <ele>59.729371</ele>
        <time>2020-08-04T11:46:16.877Z</time>
      </trkpt>
      <trkpt lat="63.31503" lon="8.60576">
        <ele>59.522436</ele>
        <time>2020-08-04T11:46:21.854Z</time>
      </trkpt>
      <trkpt lat="63.31513" lon="8.60568">
        <ele>59.278303</ele>
        <time>2020-08-04T11:46:25.876Z</time>
      </trkpt>
      <trkpt lat="63.31523" lon="8.60558">
        <ele>59.145001</ele>
        <time>2020-08-04T11:46:29.862Z</time>
      </trkpt>
      <trkpt lat="63.31533" lon="8.60551">
        <ele>59.433039</ele>
        <time>2020-08-04T11:46:33.872Z</time>
      </trkpt>
      <trkpt lat="63.31542" lon="8.60544">
        <ele>59.72376</ele>
        <time>2020-08-04T11:46:37.874Z</time>
      </trkpt>
      <trkpt lat="63.31551" lon="8.60539">
        <ele>60.019748</ele>
        <time>2020-08-04T11:46:41.855Z</time>
      </trkpt>
      <trkpt lat="63.31562" lon="8.60531">
        <ele>60.337296</ele>
        <time>2020-08-04T11:46:45.872Z</time>
      </trkpt>
      <trkpt lat="63.31571" lon="8.60524">
        <ele>60.646696</ele>
        <time>2020-08-04T11:46:49.873Z</time>
      </trkpt>
      <trkpt lat="63.31581" lon="8.60518">
        <ele>60.93872</ele>
        <time>2020-08-04T11:46:53.872Z</time>
      </trkpt>
      <trkpt lat="63.31591" lon="8.6051">
        <ele>61.261708</ele>
        <time>2020-08-04T11:46:58.860Z</time>
      </trkpt>
      <trkpt lat="63.31601" lon="8.60503">
        <ele>61.568402</ele>
        <time>2020-08-04T11:47:03.898Z</time>
      </trkpt>
      <trkpt lat="63.3161" lon="8.60495">
        <ele>61.876454</ele>
        <time>2020-08-04T11:47:08.892Z</time>
      </trkpt>
      <trkpt lat="63.3162" lon="8.60487">
        <ele>62.168202</ele>
        <time>2020-08-04T11:47:13.867Z</time>
      </trkpt>
      <trkpt lat="63.31629" lon="8.60481">
        <ele>62.467864</ele>
        <time>2020-08-04T11:47:18.881Z</time>
      </trkpt>
      <trkpt lat="63.3164" lon="8.60474">
        <ele>62.797626</ele>
        <time>2020-08-04T11:47:23.863Z</time>
      </trkpt>
      <trkpt lat="63.3165" lon="8.60467">
        <ele>63.11843</ele>
        <time>2020-08-04T11:47:28.887Z</time>
      </trkpt>
      <trkpt lat="63.3166" lon="8.6046">
        <ele>63.434323</ele>
        <time>2020-08-04T11:47:33.859Z</time>
      </trkpt>
      <trkpt lat="63.31671" lon="8.60452">
        <ele>63.758805</ele>
        <time>2020-08-04T11:47:38.919Z</time>
      </trkpt>
      <trkpt lat="63.31681" lon="8.60444">
        <ele>64.088765</ele>
        <time>2020-08-04T11:47:43.870Z</time>
      </trkpt>
      <trkpt lat="63.31691" lon="8.60436">
        <ele>64.409564</ele>
        <time>2020-08-04T11:47:48.862Z</time>
      </trkpt>
      <trkpt lat="63.317" lon="8.60429">
        <ele>64.662036</ele>
        <time>2020-08-04T11:47:52.890Z</time>
      </trkpt>
      <trkpt lat="63.3171" lon="8.60422">
        <ele>64.934799</ele>
        <time>2020-08-04T11:47:57.870Z</time>
      </trkpt>
      <trkpt lat="63.3172" lon="8.60415">
        <ele>65.212859</ele>
        <time>2020-08-04T11:48:02.876Z</time>
      </trkpt>
      <trkpt lat="63.3173" lon="8.60408">
        <ele>65.491191</ele>
        <time>2020-08-04T11:48:07.877Z</time>
      </trkpt>
      <trkpt lat="63.3174" lon="8.60401">
        <ele>65.760875</ele>
        <time>2020-08-04T11:48:12.858Z</time>
      </trkpt>
      <trkpt lat="63.31749" lon="8.60394">
        <ele>66.032009</ele>
        <time>2020-08-04T11:48:17.861Z</time>
      </trkpt>
      <trkpt lat="63.31759" lon="8.60387">
        <ele>66.291649</ele>
        <time>2020-08-04T11:48:22.880Z</time>
      </trkpt>
      <trkpt lat="63.31768" lon="8.60381">
        <ele>66.545872</ele>
        <time>2020-08-04T11:48:27.935Z</time>
      </trkpt>
      <trkpt lat="63.31777" lon="8.60374">
        <ele>66.802626</ele>
        <time>2020-08-04T11:48:32.880Z</time>
      </trkpt>
      <trkpt lat="63.31786" lon="8.60367">
        <ele>67.051873</ele>
        <time>2020-08-04T11:48:37.867Z</time>
      </trkpt>
      <trkpt lat="63.31795" lon="8.60359">
        <ele>67.314293</ele>
        <time>2020-08-04T11:48:42.883Z</time>
      </trkpt>
      <trkpt lat="63.31805" lon="8.60353">
        <ele>67.578331</ele>
        <time>2020-08-04T11:48:47.863Z</time>
      </trkpt>
      <trkpt lat="63.31813" lon="8.60347">
        <ele>67.816415</ele>
        <time>2020-08-04T11:48:52.871Z</time>
      </trkpt>
      <trkpt lat="63.31822" lon="8.60339">
        <ele>68.061566</ele>
        <time>2020-08-04T11:48:57.895Z</time>
      </trkpt>
      <trkpt lat="63.31832" lon="8.60334">
        <ele>68.336286</ele>
        <time>2020-08-04T11:49:02.861Z</time>
      </trkpt>
      <trkpt lat="63.31841" lon="8.60325">
        <ele>68.599267</ele>
        <time>2020-08-04T11:49:07.872Z</time>
      </trkpt>
      <trkpt lat="63.31851" lon="8.60324">
        <ele>68.863967</ele>
        <time>2020-08-04T11:49:11.857Z</time>
      </trkpt>
      <trkpt lat="63.31861" lon="8.60334">
        <ele>69.136012</ele>
        <time>2020-08-04T11:49:15.869Z</time>
      </trkpt>
      <trkpt lat="63.31865" lon="8.60356">
        <ele>69.015094</ele>
        <time>2020-08-04T11:49:19.908Z</time>
      </trkpt>
      <trkpt lat="63.31866" lon="8.6038">
        <ele>68.774188</ele>
        <time>2020-08-04T11:49:22.880Z</time>
      </trkpt>
      <trkpt lat="63.31869" lon="8.60406">
        <ele>68.507449</ele>
        <time>2020-08-04T11:49:25.893Z</time>
      </trkpt>
      <trkpt lat="63.31872" lon="8.60433">
        <ele>68.219033</ele>
        <time>2020-08-04T11:49:28.841Z</time>
      </trkpt>
      <trkpt lat="63.31874" lon="8.60454">
        <ele>68.007787</ele>
        <time>2020-08-04T11:49:30.870Z</time>
      </trkpt>
      <trkpt lat="63.31877" lon="8.60474">
        <ele>67.793603</ele>
        <time>2020-08-04T11:49:32.850Z</time>
      </trkpt>
      <trkpt lat="63.31879" lon="8.60496">
        <ele>67.570591</ele>
        <time>2020-08-04T11:49:34.858Z</time>
      </trkpt>
      <trkpt lat="63.31881" lon="8.60518">
        <ele>67.341533</ele>
        <time>2020-08-04T11:49:36.867Z</time>
      </trkpt>
      <trkpt lat="63.31884" lon="8.6054">
        <ele>67.115395</ele>
        <time>2020-08-04T11:49:38.862Z</time>
      </trkpt>
      <trkpt lat="63.31887" lon="8.60562">
        <ele>66.887311</ele>
        <time>2020-08-04T11:49:40.899Z</time>
      </trkpt>
      <trkpt lat="63.31889" lon="8.60584">
        <ele>66.660316</ele>
        <time>2020-08-04T11:49:42.856Z</time>
      </trkpt>
      <trkpt lat="63.3189" lon="8.60607">
        <ele>66.426611</ele>
        <time>2020-08-04T11:49:44.874Z</time>
      </trkpt>
      <trkpt lat="63.31892" lon="8.60629">
        <ele>66.201841</ele>
        <time>2020-08-04T11:49:46.872Z</time>
      </trkpt>
      <trkpt lat="63.31894" lon="8.6065">
        <ele>65.980283</ele>
        <time>2020-08-04T11:49:48.859Z</time>
      </trkpt>
      <trkpt lat="63.31896" lon="8.6067">
        <ele>65.775939</ele>
        <time>2020-08-04T11:49:50.904Z</time>
      </trkpt>
      <trkpt lat="63.31899" lon="8.60689">
        <ele>65.571385</ele>
        <time>2020-08-04T11:49:52.860Z</time>
      </trkpt>
      <trkpt lat="63.319" lon="8.60709">
        <ele>65.3694</ele>
        <time>2020-08-04T11:49:54.862Z</time>
      </trkpt>
      <trkpt lat="63.31902" lon="8.60729">
        <ele>65.172836</ele>
        <time>2020-08-04T11:49:56.867Z</time>
      </trkpt>
      <trkpt lat="63.31904" lon="8.60749">
        <ele>65.211054</ele>
        <time>2020-08-04T11:49:58.847Z</time>
      </trkpt>
      <trkpt lat="63.31907" lon="8.60769">
        <ele>65.250922</ele>
        <time>2020-08-04T11:50:00.880Z</time>
      </trkpt>
      <trkpt lat="63.31909" lon="8.6079">
        <ele>65.291328</ele>
        <time>2020-08-04T11:50:02.921Z</time>
      </trkpt>
      <trkpt lat="63.31911" lon="8.60811">
        <ele>65.330651</ele>
        <time>2020-08-04T11:50:04.904Z</time>
      </trkpt>
      <trkpt lat="63.31913" lon="8.60831">
        <ele>65.369793</ele>
        <time>2020-08-04T11:50:06.876Z</time>
      </trkpt>
      <trkpt lat="63.31916" lon="8.60851">
        <ele>65.407487</ele>
        <time>2020-08-04T11:50:08.870Z</time>
      </trkpt>
      <trkpt lat="63.31918" lon="8.60877">
        <ele>65.45793</ele>
        <time>2020-08-04T11:50:11.862Z</time>
      </trkpt>
      <trkpt lat="63.31921" lon="8.60901">
        <ele>65.503899</ele>
        <time>2020-08-04T11:50:14.881Z</time>
      </trkpt>
      <trkpt lat="63.31923" lon="8.60924">
        <ele>65.548687</ele>
        <time>2020-08-04T11:50:17.890Z</time>
      </trkpt>
      <trkpt lat="63.31925" lon="8.60948">
        <ele>65.594178</ele>
        <time>2020-08-04T11:50:20.890Z</time>
      </trkpt>
      <trkpt lat="63.31927" lon="8.60971">
        <ele>65.637414</ele>
        <time>2020-08-04T11:50:23.871Z</time>
      </trkpt>
      <trkpt lat="63.31929" lon="8.60992">
        <ele>65.678487</ele>
        <time>2020-08-04T11:50:26.869Z</time>
      </trkpt>
      <trkpt lat="63.31931" lon="8.61017">
        <ele>65.725465</ele>
        <time>2020-08-04T11:50:29.856Z</time>
      </trkpt>
      <trkpt lat="63.31934" lon="8.61042">
        <ele>65.773175</ele>
        <time>2020-08-04T11:50:32.921Z</time>
      </trkpt>
      <trkpt lat="63.31937" lon="8.61067">
        <ele>65.822025</ele>
        <time>2020-08-04T11:50:35.871Z</time>
      </trkpt>
      <trkpt lat="63.31941" lon="8.61093">
        <ele>65.873231</ele>
        <time>2020-08-04T11:50:38.876Z</time>
      </trkpt>
      <trkpt lat="63.31944" lon="8.6112">
        <ele>65.882891</ele>
        <time>2020-08-04T11:50:41.883Z</time>
      </trkpt>
      <trkpt lat="63.31948" lon="8.61138">
        <ele>65.551812</ele>
        <time>2020-08-04T11:50:43.912Z</time>
      </trkpt>
      <trkpt lat="63.31952" lon="8.61159">
        <ele>65.182971</ele>
        <time>2020-08-04T11:50:45.867Z</time>
      </trkpt>
      <trkpt lat="63.31956" lon="8.61182">
        <ele>64.761785</ele>
        <time>2020-08-04T11:50:47.864Z</time>
      </trkpt>
      <trkpt lat="63.31962" lon="8.61207">
        <ele>64.302667</ele>
        <time>2020-08-04T11:50:49.867Z</time>
      </trkpt>
      <trkpt lat="63.31968" lon="8.61234">
        <ele>63.804535</ele>
        <time>2020-08-04T11:50:51.869Z</time>
      </trkpt>
      <trkpt lat="63.31975" lon="8.61264">
        <ele>63.245191</ele>
        <time>2020-08-04T11:50:53.882Z</time>
      </trkpt>
      <trkpt lat="63.31983" lon="8.61297">
        <ele>62.625474</ele>
        <time>2020-08-04T11:50:55.917Z</time>
      </trkpt>
      <trkpt lat="63.31988" lon="8.61315">
        <ele>62.290144</ele>
        <time>2020-08-04T11:50:56.867Z</time>
      </trkpt>
      <trkpt lat="63.31993" lon="8.61334">
        <ele>61.936469</ele>
        <time>2020-08-04T11:50:57.860Z</time>
      </trkpt>
      <trkpt lat="63.31997" lon="8.61354">
        <ele>61.562606</ele>
        <time>2020-08-04T11:50:58.887Z</time>
      </trkpt>
      <trkpt lat="63.32002" lon="8.61374">
        <ele>61.178884</ele>
        <time>2020-08-04T11:50:59.891Z</time>
      </trkpt>
      <trkpt lat="63.32006" lon="8.61396">
        <ele>60.789315</ele>
        <time>2020-08-04T11:51:00.862Z</time>
      </trkpt>
      <trkpt lat="63.32011" lon="8.61417">
        <ele>60.398056</ele>
        <time>2020-08-04T11:51:01.900Z</time>
      </trkpt>
      <trkpt lat="63.32016" lon="8.61438">
        <ele>60.01445</ele>
        <time>2020-08-04T11:51:02.877Z</time>
      </trkpt>
      <trkpt lat="63.3202" lon="8.61458">
        <ele>59.647127</ele>
        <time>2020-08-04T11:51:03.862Z</time>
      </trkpt>
      <trkpt lat="63.32024" lon="8.61477">
        <ele>59.291603</ele>
        <time>2020-08-04T11:51:04.859Z</time>
      </trkpt>
      <trkpt lat="63.32032" lon="8.61512">
        <ele>58.376971</ele>
        <time>2020-08-04T11:51:06.927Z</time>
      </trkpt>
      <trkpt lat="63.32039" lon="8.61543">
        <ele>57.55515</ele>
        <time>2020-08-04T11:51:08.864Z</time>
      </trkpt>
      <trkpt lat="63.32045" lon="8.61573">
        <ele>56.7874</ele>
        <time>2020-08-04T11:51:10.894Z</time>
      </trkpt>
      <trkpt lat="63.32051" lon="8.61603">
        <ele>56.015282</ele>
        <time>2020-08-04T11:51:12.873Z</time>
      </trkpt>
      <trkpt lat="63.32056" lon="8.61633">
        <ele>55.245085</ele>
        <time>2020-08-04T11:51:14.870Z</time>
      </trkpt>
      <trkpt lat="63.32063" lon="8.61662">
        <ele>54.466773</ele>
        <time>2020-08-04T11:51:16.872Z</time>
      </trkpt>
      <trkpt lat="63.32072" lon="8.61689">
        <ele>53.682489</ele>
        <time>2020-08-04T11:51:18.876Z</time>
      </trkpt>
      <trkpt lat="63.32082" lon="8.61714">
        <ele>52.883974</ele>
        <time>2020-08-04T11:51:20.896Z</time>
      </trkpt>
      <trkpt lat="63.32095" lon="8.61738">
        <ele>52.000546</ele>
        <time>2020-08-04T11:51:22.864Z</time>
      </trkpt>
      <trkpt lat="63.32102" lon="8.6175">
        <ele>51.512997</ele>
        <time>2020-08-04T11:51:23.880Z</time>
      </trkpt>
      <trkpt lat="63.3211" lon="8.61763">
        <ele>50.998662</ele>
        <time>2020-08-04T11:51:24.864Z</time>
      </trkpt>
      <trkpt lat="63.32118" lon="8.61776">
        <ele>50.455801</ele>
        <time>2020-08-04T11:51:25.862Z</time>
      </trkpt>
      <trkpt lat="63.32127" lon="8.61789">
        <ele>49.900583</ele>
        <time>2020-08-04T11:51:26.887Z</time>
      </trkpt>
      <trkpt lat="63.32136" lon="8.61802">
        <ele>49.621058</ele>
        <time>2020-08-04T11:51:27.862Z</time>
      </trkpt>
      <trkpt lat="63.32146" lon="8.61816">
        <ele>49.36502</ele>
        <time>2020-08-04T11:51:28.883Z</time>
      </trkpt>
      <trkpt lat="63.32155" lon="8.61831">
        <ele>49.100351</ele>
        <time>2020-08-04T11:51:29.886Z</time>
      </trkpt>
      <trkpt lat="63.32164" lon="8.61846">
        <ele>48.83823</ele>
        <time>2020-08-04T11:51:30.882Z</time>
      </trkpt>
      <trkpt lat="63.32173" lon="8.61861">
        <ele>48.577355</ele>
        <time>2020-08-04T11:51:31.872Z</time>
      </trkpt>
      <trkpt lat="63.32182" lon="8.61875">
        <ele>48.324497</ele>
        <time>2020-08-04T11:51:32.881Z</time>
      </trkpt>
      <trkpt lat="63.32191" lon="8.61889">
        <ele>48.079643</ele>
        <time>2020-08-04T11:51:33.892Z</time>
      </trkpt>
      <trkpt lat="63.32199" lon="8.61903">
        <ele>47.840949</ele>
        <time>2020-08-04T11:51:34.867Z</time>
      </trkpt>
      <trkpt lat="63.32207" lon="8.61916">
        <ele>47.610282</ele>
        <time>2020-08-04T11:51:35.852Z</time>
      </trkpt>
      <trkpt lat="63.32215" lon="8.61929">
        <ele>47.383944</ele>
        <time>2020-08-04T11:51:36.860Z</time>
      </trkpt>
      <trkpt lat="63.32223" lon="8.61942">
        <ele>47.164315</ele>
        <time>2020-08-04T11:51:37.867Z</time>
      </trkpt>
      <trkpt lat="63.3223" lon="8.61955">
        <ele>46.95627</ele>
        <time>2020-08-04T11:51:38.870Z</time>
      </trkpt>
      <trkpt lat="63.32243" lon="8.61977">
        <ele>46.562803</ele>
        <time>2020-08-04T11:51:40.880Z</time>
      </trkpt>
      <trkpt lat="63.32256" lon="8.61999">
        <ele>46.189059</ele>
        <time>2020-08-04T11:51:42.880Z</time>
      </trkpt>
      <trkpt lat="63.32268" lon="8.62019">
        <ele>45.840489</ele>
        <time>2020-08-04T11:51:44.876Z</time>
      </trkpt>
      <trkpt lat="63.3228" lon="8.6204">
        <ele>45.803409</ele>
        <time>2020-08-04T11:51:46.894Z</time>
      </trkpt>
      <trkpt lat="63.32291" lon="8.62059">
        <ele>45.965953</ele>
        <time>2020-08-04T11:51:48.880Z</time>
      </trkpt>
      <trkpt lat="63.32301" lon="8.6208">
        <ele>46.12797</ele>
        <time>2020-08-04T11:51:50.895Z</time>
      </trkpt>
      <trkpt lat="63.32311" lon="8.62102">
        <ele>46.286642</ele>
        <time>2020-08-04T11:51:52.868Z</time>
      </trkpt>
      <trkpt lat="63.3232" lon="8.62124">
        <ele>46.434838</ele>
        <time>2020-08-04T11:51:54.891Z</time>
      </trkpt>
      <trkpt lat="63.32327" lon="8.62144">
        <ele>46.566216</ele>
        <time>2020-08-04T11:51:56.872Z</time>
      </trkpt>
      <trkpt lat="63.32332" lon="8.62163">
        <ele>46.684788</ele>
        <time>2020-08-04T11:51:58.875Z</time>
      </trkpt>
      <trkpt lat="63.32337" lon="8.62181">
        <ele>46.790193</ele>
        <time>2020-08-04T11:52:00.867Z</time>
      </trkpt>
      <trkpt lat="63.32343" lon="8.62206">
        <ele>46.936897</ele>
        <time>2020-08-04T11:52:03.860Z</time>
      </trkpt>
      <trkpt lat="63.32349" lon="8.62229">
        <ele>47.078568</ele>
        <time>2020-08-04T11:52:06.864Z</time>
      </trkpt>
      <trkpt lat="63.32355" lon="8.62253">
        <ele>47.220206</ele>
        <time>2020-08-04T11:52:09.864Z</time>
      </trkpt>
      <trkpt lat="63.3236" lon="8.62277">
        <ele>47.352477</ele>
        <time>2020-08-04T11:52:12.883Z</time>
      </trkpt>
      <trkpt lat="63.32364" lon="8.62299">
        <ele>47.47957</ele>
        <time>2020-08-04T11:52:15.869Z</time>
      </trkpt>
      <trkpt lat="63.32369" lon="8.6232">
        <ele>47.600567</ele>
        <time>2020-08-04T11:52:18.884Z</time>
      </trkpt>
      <trkpt lat="63.32373" lon="8.62341">
        <ele>47.713135</ele>
        <time>2020-08-04T11:52:21.892Z</time>
      </trkpt>
      <trkpt lat="63.32375" lon="8.62363">
        <ele>47.815995</ele>
        <time>2020-08-04T11:52:24.852Z</time>
      </trkpt>
      <trkpt lat="63.32379" lon="8.62384">
        <ele>47.905881</ele>
        <time>2020-08-04T11:52:27.854Z</time>
      </trkpt>
      <trkpt lat="63.32383" lon="8.62405">
        <ele>47.994475</ele>
        <time>2020-08-04T11:52:30.874Z</time>
      </trkpt>
      <trkpt lat="63.32388" lon="8.62428">
        <ele>48.093798</ele>
        <time>2020-08-04T11:52:33.890Z</time>
      </trkpt>
      <trkpt lat="63.32393" lon="8.62453">
        <ele>48.202717</ele>
        <time>2020-08-04T11:52:36.867Z</time>
      </trkpt>
      <trkpt lat="63.32396" lon="8.62473">
        <ele>48.282882</ele>
        <time>2020-08-04T11:52:38.852Z</time>
      </trkpt>
      <trkpt lat="63.32399" lon="8.62493">
        <ele>48.365702</ele>
        <time>2020-08-04T11:52:40.878Z</time>
      </trkpt>
      <trkpt lat="63.32402" lon="8.62513">
        <ele>48.452052</ele>
        <time>2020-08-04T11:52:42.896Z</time>
      </trkpt>
      <trkpt lat="63.32406" lon="8.62535">
        <ele>48.541084</ele>
        <time>2020-08-04T11:52:44.852Z</time>
      </trkpt>
      <trkpt lat="63.32409" lon="8.62558">
        <ele>48.633465</ele>
        <time>2020-08-04T11:52:46.886Z</time>
      </trkpt>
      <trkpt lat="63.32411" lon="8.62581">
        <ele>48.726976</ele>
        <time>2020-08-04T11:52:48.910Z</time>
      </trkpt>
      <trkpt lat="63.32414" lon="8.62605">
        <ele>48.823882</ele>
        <time>2020-08-04T11:52:50.867Z</time>
      </trkpt>
      <trkpt lat="63.32417" lon="8.62629">
        <ele>48.922832</ele>
        <time>2020-08-04T11:52:52.862Z</time>
      </trkpt>
      <trkpt lat="63.32419" lon="8.62655">
        <ele>49.023385</ele>
        <time>2020-08-04T11:52:54.866Z</time>
      </trkpt>
      <trkpt lat="63.3242" lon="8.62681">
        <ele>49.126881</ele>
        <time>2020-08-04T11:52:56.872Z</time>
      </trkpt>
      <trkpt lat="63.32422" lon="8.62707">
        <ele>49.232436</ele>
        <time>2020-08-04T11:52:58.925Z</time>
      </trkpt>
      <trkpt lat="63.32424" lon="8.62735">
        <ele>49.336162</ele>
        <time>2020-08-04T11:53:00.882Z</time>
      </trkpt>
      <trkpt lat="63.32425" lon="8.62761">
        <ele>49.242436</ele>
        <time>2020-08-04T11:53:02.884Z</time>
      </trkpt>
      <trkpt lat="63.32427" lon="8.62787">
        <ele>49.152459</ele>
        <time>2020-08-04T11:53:04.864Z</time>
      </trkpt>
      <trkpt lat="63.32429" lon="8.62811">
        <ele>49.065127</ele>
        <time>2020-08-04T11:53:06.934Z</time>
      </trkpt>
      <trkpt lat="63.3243" lon="8.62834">
        <ele>48.98325</ele>
        <time>2020-08-04T11:53:08.881Z</time>
      </trkpt>
      <trkpt lat="63.32432" lon="8.62856">
        <ele>48.905438</ele>
        <time>2020-08-04T11:53:10.871Z</time>
      </trkpt>
      <trkpt lat="63.32435" lon="8.62877">
        <ele>48.830142</ele>
        <time>2020-08-04T11:53:12.898Z</time>
      </trkpt>
      <trkpt lat="63.32438" lon="8.62905">
        <ele>48.727486</ele>
        <time>2020-08-04T11:53:15.860Z</time>
      </trkpt>
      <trkpt lat="63.32441" lon="8.62933">
        <ele>48.627839</ele>
        <time>2020-08-04T11:53:18.855Z</time>
      </trkpt>
      <trkpt lat="63.32444" lon="8.62952">
        <ele>48.555488</ele>
        <time>2020-08-04T11:53:20.884Z</time>
      </trkpt>
      <trkpt lat="63.32447" lon="8.62972">
        <ele>48.482332</ele>
        <time>2020-08-04T11:53:22.867Z</time>
      </trkpt>
      <trkpt lat="63.3245" lon="8.62992">
        <ele>48.407015</ele>
        <time>2020-08-04T11:53:24.880Z</time>
      </trkpt>
      <trkpt lat="63.32454" lon="8.63013">
        <ele>48.324624</ele>
        <time>2020-08-04T11:53:26.866Z</time>
      </trkpt>
      <trkpt lat="63.32459" lon="8.63035">
        <ele>48.241916</ele>
        <time>2020-08-04T11:53:28.880Z</time>
      </trkpt>
      <trkpt lat="63.32464" lon="8.63056">
        <ele>48.158785</ele>
        <time>2020-08-04T11:53:30.855Z</time>
      </trkpt>
      <trkpt lat="63.32468" lon="8.63077">
        <ele>48.076678</ele>
        <time>2020-08-04T11:53:32.901Z</time>
      </trkpt>
      <trkpt lat="63.32474" lon="8.63099">
        <ele>47.988144</ele>
        <time>2020-08-04T11:53:34.880Z</time>
      </trkpt>
      <trkpt lat="63.32478" lon="8.63122">
        <ele>47.955538</ele>
        <time>2020-08-04T11:53:36.896Z</time>
      </trkpt>
      <trkpt lat="63.32484" lon="8.63144">
        <ele>48.025971</ele>
        <time>2020-08-04T11:53:38.892Z</time>
      </trkpt>
      <trkpt lat="63.32488" lon="8.63166">
        <ele>48.09403</ele>
        <time>2020-08-04T11:53:40.898Z</time>
      </trkpt>
      <trkpt lat="63.32492" lon="8.63188">
        <ele>48.161279</ele>
        <time>2020-08-04T11:53:42.923Z</time>
      </trkpt>
      <trkpt lat="63.32497" lon="8.63208">
        <ele>48.227122</ele>
        <time>2020-08-04T11:53:44.884Z</time>
      </trkpt>
      <trkpt lat="63.32502" lon="8.63229">
        <ele>48.29138</ele>
        <time>2020-08-04T11:53:46.861Z</time>
      </trkpt>
      <trkpt lat="63.32506" lon="8.63249">
        <ele>48.353733</ele>
        <time>2020-08-04T11:53:48.865Z</time>
      </trkpt>
      <trkpt lat="63.32509" lon="8.63269">
        <ele>48.416167</ele>
        <time>2020-08-04T11:53:50.858Z</time>
      </trkpt>
      <trkpt lat="63.32513" lon="8.63291">
        <ele>48.481163</ele>
        <time>2020-08-04T11:53:52.883Z</time>
      </trkpt>
      <trkpt lat="63.32517" lon="8.63312">
        <ele>48.547415</ele>
        <time>2020-08-04T11:53:54.865Z</time>
      </trkpt>
      <trkpt lat="63.32521" lon="8.63333">
        <ele>48.610283</ele>
        <time>2020-08-04T11:53:56.859Z</time>
      </trkpt>
      <trkpt lat="63.32525" lon="8.63356">
        <ele>48.681982</ele>
        <time>2020-08-04T11:53:58.852Z</time>
      </trkpt>
      <trkpt lat="63.3253" lon="8.63379">
        <ele>48.752399</ele>
        <time>2020-08-04T11:54:00.877Z</time>
      </trkpt>
      <trkpt lat="63.32534" lon="8.63401">
        <ele>48.819139</ele>
        <time>2020-08-04T11:54:02.873Z</time>
      </trkpt>
      <trkpt lat="63.32538" lon="8.63423">
        <ele>48.886915</ele>
        <time>2020-08-04T11:54:04.908Z</time>
      </trkpt>
      <trkpt lat="63.32543" lon="8.63444">
        <ele>48.952878</ele>
        <time>2020-08-04T11:54:06.866Z</time>
      </trkpt>
      <trkpt lat="63.32547" lon="8.63465">
        <ele>49.019108</ele>
        <time>2020-08-04T11:54:08.871Z</time>
      </trkpt>
      <trkpt lat="63.32551" lon="8.63487">
        <ele>49.025099</ele>
        <time>2020-08-04T11:54:10.866Z</time>
      </trkpt>
      <trkpt lat="63.32555" lon="8.63507">
        <ele>48.922809</ele>
        <time>2020-08-04T11:54:12.859Z</time>
      </trkpt>
      <trkpt lat="63.32559" lon="8.63526">
        <ele>48.823876</ele>
        <time>2020-08-04T11:54:14.880Z</time>
      </trkpt>
      <trkpt lat="63.32564" lon="8.63544">
        <ele>48.726901</ele>
        <time>2020-08-04T11:54:16.866Z</time>
      </trkpt>
      <trkpt lat="63.32568" lon="8.63563">
        <ele>48.629999</ele>
        <time>2020-08-04T11:54:18.881Z</time>
      </trkpt>
      <trkpt lat="63.32573" lon="8.63582">
        <ele>48.528465</ele>
        <time>2020-08-04T11:54:20.908Z</time>
      </trkpt>
      <trkpt lat="63.32576" lon="8.63602">
        <ele>48.425723</ele>
        <time>2020-08-04T11:54:22.891Z</time>
      </trkpt>
      <trkpt lat="63.3258" lon="8.63622">
        <ele>48.324722</ele>
        <time>2020-08-04T11:54:24.868Z</time>
      </trkpt>
      <trkpt lat="63.32585" lon="8.63642">
        <ele>48.221154</ele>
        <time>2020-08-04T11:54:26.874Z</time>
      </trkpt>
      <trkpt lat="63.32589" lon="8.63661">
        <ele>48.122175</ele>
        <time>2020-08-04T11:54:28.878Z</time>
      </trkpt>
      <trkpt lat="63.32592" lon="8.63679">
        <ele>48.028395</ele>
        <time>2020-08-04T11:54:30.864Z</time>
      </trkpt>
      <trkpt lat="63.32597" lon="8.63699">
        <ele>47.925557</ele>
        <time>2020-08-04T11:54:32.891Z</time>
      </trkpt>
      <trkpt lat="63.32602" lon="8.6372">
        <ele>47.815828</ele>
        <time>2020-08-04T11:54:34.873Z</time>
      </trkpt>
      <trkpt lat="63.32606" lon="8.63741">
        <ele>47.7063</ele>
        <time>2020-08-04T11:54:36.889Z</time>
      </trkpt>
      <trkpt lat="63.32611" lon="8.63763">
        <ele>47.593751</ele>
        <time>2020-08-04T11:54:38.875Z</time>
      </trkpt>
      <trkpt lat="63.32616" lon="8.63785">
        <ele>47.478672</ele>
        <time>2020-08-04T11:54:40.855Z</time>
      </trkpt>
      <trkpt lat="63.3262" lon="8.63808">
        <ele>47.362725</ele>
        <time>2020-08-04T11:54:42.927Z</time>
      </trkpt>
      <trkpt lat="63.32625" lon="8.6383">
        <ele>47.248003</ele>
        <time>2020-08-04T11:54:44.882Z</time>
      </trkpt>
      <trkpt lat="63.3263" lon="8.63852">
        <ele>47.239777</ele>
        <time>2020-08-04T11:54:46.882Z</time>
      </trkpt>
      <trkpt lat="63.32635" lon="8.63875">
        <ele>47.331585</ele>
        <time>2020-08-04T11:54:48.871Z</time>
      </trkpt>
      <trkpt lat="63.3264" lon="8.63897">
        <ele>47.422635</ele>
        <time>2020-08-04T11:54:50.861Z</time>
      </trkpt>
      <trkpt lat="63.32644" lon="8.6392">
        <ele>47.516096</ele>
        <time>2020-08-04T11:54:52.871Z</time>
      </trkpt>
      <trkpt lat="63.32648" lon="8.63943">
        <ele>47.607168</ele>
        <time>2020-08-04T11:54:54.896Z</time>
      </trkpt>
      <trkpt lat="63.32652" lon="8.63965">
        <ele>47.691934</ele>
        <time>2020-08-04T11:54:56.864Z</time>
      </trkpt>
      <trkpt lat="63.32656" lon="8.63985">
        <ele>47.773893</ele>
        <time>2020-08-04T11:54:58.861Z</time>
      </trkpt>
      <trkpt lat="63.32659" lon="8.64005">
        <ele>47.851331</ele>
        <time>2020-08-04T11:55:00.874Z</time>
      </trkpt>
      <trkpt lat="63.32662" lon="8.64024">
        <ele>47.926911</ele>
        <time>2020-08-04T11:55:02.899Z</time>
      </trkpt>
      <trkpt lat="63.32665" lon="8.64043">
        <ele>48.001637</ele>
        <time>2020-08-04T11:55:04.896Z</time>
      </trkpt>
      <trkpt lat="63.32669" lon="8.64063">
        <ele>48.079889</ele>
        <time>2020-08-04T11:55:06.910Z</time>
      </trkpt>
      <trkpt lat="63.32672" lon="8.64082">
        <ele>48.1549</ele>
        <time>2020-08-04T11:55:08.882Z</time>
      </trkpt>
      <trkpt lat="63.32675" lon="8.64101">
        <ele>48.231443</ele>
        <time>2020-08-04T11:55:10.907Z</time>
      </trkpt>
      <trkpt lat="63.32678" lon="8.64121">
        <ele>48.309037</ele>
        <time>2020-08-04T11:55:12.887Z</time>
      </trkpt>
      <trkpt lat="63.32681" lon="8.64141">
        <ele>48.385173</ele>
        <time>2020-08-04T11:55:14.914Z</time>
      </trkpt>
      <trkpt lat="63.32685" lon="8.64167">
        <ele>48.486945</ele>
        <time>2020-08-04T11:55:17.855Z</time>
      </trkpt>
      <trkpt lat="63.32687" lon="8.6419">
        <ele>48.575308</ele>
        <time>2020-08-04T11:55:20.884Z</time>
      </trkpt>
      <trkpt lat="63.32688" lon="8.64214">
        <ele>48.664032</ele>
        <time>2020-08-04T11:55:23.884Z</time>
      </trkpt>
      <trkpt lat="63.3269" lon="8.6424">
        <ele>49.013698</ele>
        <time>2020-08-04T11:55:26.865Z</time>
      </trkpt>
      <trkpt lat="63.32691" lon="8.64267">
        <ele>49.387121</ele>
        <time>2020-08-04T11:55:29.858Z</time>
      </trkpt>
      <trkpt lat="63.32693" lon="8.64292">
        <ele>49.756524</ele>
        <time>2020-08-04T11:55:32.885Z</time>
      </trkpt>
      <trkpt lat="63.32695" lon="8.64315">
        <ele>50.081091</ele>
        <time>2020-08-04T11:55:35.890Z</time>
      </trkpt>
      <trkpt lat="63.32697" lon="8.64335">
        <ele>50.372979</ele>
        <time>2020-08-04T11:55:38.900Z</time>
      </trkpt>
      <trkpt lat="63.32699" lon="8.6436">
        <ele>50.735401</ele>
        <time>2020-08-04T11:55:42.907Z</time>
      </trkpt>
      <trkpt lat="63.32702" lon="8.6438">
        <ele>51.022898</ele>
        <time>2020-08-04T11:55:45.893Z</time>
      </trkpt>
      <trkpt lat="63.32704" lon="8.644">
        <ele>51.311445</ele>
        <time>2020-08-04T11:55:48.868Z</time>
      </trkpt>
      <trkpt lat="63.32707" lon="8.64421">
        <ele>51.614144</ele>
        <time>2020-08-04T11:55:51.862Z</time>
      </trkpt>
      <trkpt lat="63.32708" lon="8.64443">
        <ele>51.932682</ele>
        <time>2020-08-04T11:55:54.886Z</time>
      </trkpt>
      <trkpt lat="63.3271" lon="8.64465">
        <ele>52.249835</ele>
        <time>2020-08-04T11:55:57.854Z</time>
      </trkpt>
      <trkpt lat="63.32712" lon="8.64485">
        <ele>52.536736</ele>
        <time>2020-08-04T11:56:00.882Z</time>
      </trkpt>
      <trkpt lat="63.32715" lon="8.64511">
        <ele>52.911509</ele>
        <time>2020-08-04T11:56:04.873Z</time>
      </trkpt>
      <trkpt lat="63.32716" lon="8.64536">
        <ele>53.263332</ele>
        <time>2020-08-04T11:56:08.862Z</time>
      </trkpt>
      <trkpt lat="63.32717" lon="8.64558">
        <ele>53.578644</ele>
        <time>2020-08-04T11:56:12.904Z</time>
      </trkpt>
      <trkpt lat="63.32719" lon="8.64579">
        <ele>53.876962</ele>
        <time>2020-08-04T11:56:16.867Z</time>
      </trkpt>
      <trkpt lat="63.3272" lon="8.64602">
        <ele>54.203615</ele>
        <time>2020-08-04T11:56:21.891Z</time>
      </trkpt>
      <trkpt lat="63.32722" lon="8.64622">
        <ele>54.360321</ele>
        <time>2020-08-04T11:56:25.862Z</time>
      </trkpt>
      <trkpt lat="63.32725" lon="8.64643">
        <ele>54.435082</ele>
        <time>2020-08-04T11:56:29.888Z</time>
      </trkpt>
      <trkpt lat="63.32727" lon="8.64665">
        <ele>54.512362</ele>
        <time>2020-08-04T11:56:33.869Z</time>
      </trkpt>
      <trkpt lat="63.32729" lon="8.64687">
        <ele>54.587349</ele>
        <time>2020-08-04T11:56:37.856Z</time>
      </trkpt>
      <trkpt lat="63.32732" lon="8.64711">
        <ele>54.670937</ele>
        <time>2020-08-04T11:56:41.878Z</time>
      </trkpt>
      <trkpt lat="63.32734" lon="8.64733">
        <ele>54.746476</ele>
        <time>2020-08-04T11:56:44.860Z</time>
      </trkpt>
      <trkpt lat="63.32736" lon="8.64757">
        <ele>54.828769</ele>
        <time>2020-08-04T11:56:47.889Z</time>
      </trkpt>
      <trkpt lat="63.32739" lon="8.64784">
        <ele>54.919503</ele>
        <time>2020-08-04T11:56:50.896Z</time>
      </trkpt>
      <trkpt lat="63.32741" lon="8.64812">
        <ele>55.017134</ele>
        <time>2020-08-04T11:56:53.886Z</time>
      </trkpt>
      <trkpt lat="63.32744" lon="8.64833">
        <ele>55.090148</ele>
        <time>2020-08-04T11:56:55.859Z</time>
      </trkpt>
      <trkpt lat="63.32746" lon="8.64856">
        <ele>55.167598</ele>
        <time>2020-08-04T11:56:57.920Z</time>
      </trkpt>
      <trkpt lat="63.32749" lon="8.6488">
        <ele>55.252442</ele>
        <time>2020-08-04T11:56:59.868Z</time>
      </trkpt>
      <trkpt lat="63.32751" lon="8.64906">
        <ele>55.339915</ele>
        <time>2020-08-04T11:57:01.883Z</time>
      </trkpt>
      <trkpt lat="63.32753" lon="8.64931">
        <ele>55.425509</ele>
        <time>2020-08-04T11:57:03.872Z</time>
      </trkpt>
      <trkpt lat="63.32754" lon="8.64956">
        <ele>55.510784</ele>
        <time>2020-08-04T11:57:05.863Z</time>
      </trkpt>
      <trkpt lat="63.32757" lon="8.6498">
        <ele>55.594305</ele>
        <time>2020-08-04T11:57:07.866Z</time>
      </trkpt>
      <trkpt lat="63.32759" lon="8.65003">
        <ele>55.684254</ele>
        <time>2020-08-04T11:57:09.867Z</time>
      </trkpt>
      <trkpt lat="63.32762" lon="8.65025">
        <ele>55.90154</ele>
        <time>2020-08-04T11:57:11.883Z</time>
      </trkpt>
      <trkpt lat="63.32764" lon="8.65047">
        <ele>56.108742</ele>
        <time>2020-08-04T11:57:13.884Z</time>
      </trkpt>
      <trkpt lat="63.32766" lon="8.65067">
        <ele>56.300757</ele>
        <time>2020-08-04T11:57:15.866Z</time>
      </trkpt>
      <trkpt lat="63.32768" lon="8.65096">
        <ele>56.585399</ele>
        <time>2020-08-04T11:57:18.858Z</time>
      </trkpt>
      <trkpt lat="63.3277" lon="8.65126">
        <ele>56.864122</ele>
        <time>2020-08-04T11:57:21.901Z</time>
      </trkpt>
      <trkpt lat="63.32773" lon="8.65153">
        <ele>57.124675</ele>
        <time>2020-08-04T11:57:24.868Z</time>
      </trkpt>
      <trkpt lat="63.32775" lon="8.65177">
        <ele>57.351686</ele>
        <time>2020-08-04T11:57:27.867Z</time>
      </trkpt>
      <trkpt lat="63.32776" lon="8.65197">
        <ele>57.545954</ele>
        <time>2020-08-04T11:57:30.863Z</time>
      </trkpt>
      <trkpt lat="63.32777" lon="8.6522">
        <ele>57.765541</ele>
        <time>2020-08-04T11:57:34.853Z</time>
      </trkpt>
      <trkpt lat="63.32777" lon="8.65244">
        <ele>57.989126</ele>
        <time>2020-08-04T11:57:38.870Z</time>
      </trkpt>
      <trkpt lat="63.32778" lon="8.65268">
        <ele>58.213209</ele>
        <time>2020-08-04T11:57:42.898Z</time>
      </trkpt>
      <trkpt lat="63.32778" lon="8.65291">
        <ele>58.432097</ele>
        <time>2020-08-04T11:57:46.893Z</time>
      </trkpt>
      <trkpt lat="63.32778" lon="8.65313">
        <ele>58.643996</ele>
        <time>2020-08-04T11:57:50.869Z</time>
      </trkpt>
      <trkpt lat="63.32778" lon="8.65334">
        <ele>58.839038</ele>
        <time>2020-08-04T11:57:54.882Z</time>
      </trkpt>
      <trkpt lat="63.32778" lon="8.65355">
        <ele>59.038606</ele>
        <time>2020-08-04T11:57:58.879Z</time>
      </trkpt>
      <trkpt lat="63.32778" lon="8.6538">
        <ele>59.26845</ele>
        <time>2020-08-04T11:58:03.885Z</time>
      </trkpt>
      <trkpt lat="63.32778" lon="8.65401">
        <ele>59.46179</ele>
        <time>2020-08-04T11:58:08.887Z</time>
      </trkpt>
      <trkpt lat="63.32778" lon="8.65421">
        <ele>59.612676</ele>
        <time>2020-08-04T11:58:13.880Z</time>
      </trkpt>
      <trkpt lat="63.32779" lon="8.65445">
        <ele>59.787165</ele>
        <time>2020-08-04T11:58:19.880Z</time>
      </trkpt>
      <trkpt lat="63.32779" lon="8.65468">
        <ele>59.959417</ele>
        <time>2020-08-04T11:58:25.870Z</time>
      </trkpt>
      <trkpt lat="63.32779" lon="8.65489">
        <ele>60.110017</ele>
        <time>2020-08-04T11:58:30.870Z</time>
      </trkpt>
      <trkpt lat="63.32778" lon="8.6551">
        <ele>60.268085</ele>
        <time>2020-08-04T11:58:35.880Z</time>
      </trkpt>
      <trkpt lat="63.32779" lon="8.65534">
        <ele>60.442003</ele>
        <time>2020-08-04T11:58:40.870Z</time>
      </trkpt>
      <trkpt lat="63.32781" lon="8.65553">
        <ele>60.591125</ele>
        <time>2020-08-04T11:58:45.884Z</time>
      </trkpt>
      <trkpt lat="63.32785" lon="8.65574">
        <ele>60.754987</ele>
        <time>2020-08-04T11:58:50.860Z</time>
      </trkpt>
      <trkpt lat="63.32788" lon="8.65595">
        <ele>60.923313</ele>
        <time>2020-08-04T11:58:54.879Z</time>
      </trkpt>
      <trkpt lat="63.32791" lon="8.65618">
        <ele>61.096171</ele>
        <time>2020-08-04T11:58:58.918Z</time>
      </trkpt>
      <trkpt lat="63.32793" lon="8.65639">
        <ele>61.251693</ele>
        <time>2020-08-04T11:59:02.892Z</time>
      </trkpt>
      <trkpt lat="63.32796" lon="8.65661">
        <ele>61.420723</ele>
        <time>2020-08-04T11:59:06.872Z</time>
      </trkpt>
      <trkpt lat="63.32799" lon="8.65686">
        <ele>61.610188</ele>
        <time>2020-08-04T11:59:10.887Z</time>
      </trkpt>
      <trkpt lat="63.32803" lon="8.65706">
        <ele>61.768986</ele>
        <time>2020-08-04T11:59:13.879Z</time>
      </trkpt>
      <trkpt lat="63.32806" lon="8.65727">
        <ele>61.932605</ele>
        <time>2020-08-04T11:59:16.874Z</time>
      </trkpt>
      <trkpt lat="63.32811" lon="8.6575">
        <ele>62.125533</ele>
        <time>2020-08-04T11:59:19.879Z</time>
      </trkpt>
      <trkpt lat="63.32814" lon="8.65769">
        <ele>62.276775</ele>
        <time>2020-08-04T11:59:21.873Z</time>
      </trkpt>
      <trkpt lat="63.32817" lon="8.65793">
        <ele>62.333281</ele>
        <time>2020-08-04T11:59:23.888Z</time>
      </trkpt>
      <trkpt lat="63.32821" lon="8.65818">
        <ele>62.170518</ele>
        <time>2020-08-04T11:59:25.885Z</time>
      </trkpt>
      <trkpt lat="63.32825" lon="8.65846">
        <ele>61.992878</ele>
        <time>2020-08-04T11:59:27.857Z</time>
      </trkpt>
      <trkpt lat="63.3283" lon="8.65873">
        <ele>61.821385</ele>
        <time>2020-08-04T11:59:29.867Z</time>
      </trkpt>
      <trkpt lat="63.32833" lon="8.65898">
        <ele>61.662882</ele>
        <time>2020-08-04T11:59:31.918Z</time>
      </trkpt>
      <trkpt lat="63.32836" lon="8.65922">
        <ele>61.511309</ele>
        <time>2020-08-04T11:59:33.890Z</time>
      </trkpt>
      <trkpt lat="63.32839" lon="8.65946">
        <ele>61.362564</ele>
        <time>2020-08-04T11:59:35.861Z</time>
      </trkpt>
      <trkpt lat="63.32842" lon="8.65968">
        <ele>61.223162</ele>
        <time>2020-08-04T11:59:37.883Z</time>
      </trkpt>
      <trkpt lat="63.32845" lon="8.65989">
        <ele>61.085074</ele>
        <time>2020-08-04T11:59:39.898Z</time>
      </trkpt>
      <trkpt lat="63.3285" lon="8.66013">
        <ele>60.926751</ele>
        <time>2020-08-04T11:59:41.865Z</time>
      </trkpt>
      <trkpt lat="63.32854" lon="8.66039">
        <ele>60.762305</ele>
        <time>2020-08-04T11:59:43.866Z</time>
      </trkpt>
      <trkpt lat="63.32858" lon="8.66068">
        <ele>60.578084</ele>
        <time>2020-08-04T11:59:45.878Z</time>
      </trkpt>
      <trkpt lat="63.32862" lon="8.66099">
        <ele>60.384159</ele>
        <time>2020-08-04T11:59:47.868Z</time>
      </trkpt>
      <trkpt lat="63.32866" lon="8.6613">
        <ele>60.188718</ele>
        <time>2020-08-04T11:59:49.876Z</time>
      </trkpt>
      <trkpt lat="63.32869" lon="8.6616">
        <ele>60.00289</ele>
        <time>2020-08-04T11:59:51.864Z</time>
      </trkpt>
      <trkpt lat="63.32872" lon="8.66188">
        <ele>60.121538</ele>
        <time>2020-08-04T11:59:53.942Z</time>
      </trkpt>
      <trkpt lat="63.32874" lon="8.66213">
        <ele>60.301501</ele>
        <time>2020-08-04T11:59:55.882Z</time>
      </trkpt>
      <trkpt lat="63.32876" lon="8.66235">
        <ele>60.459293</ele>
        <time>2020-08-04T11:59:57.873Z</time>
      </trkpt>
      <trkpt lat="63.32878" lon="8.66255">
        <ele>60.601063</ele>
        <time>2020-08-04T11:59:59.865Z</time>
      </trkpt>
      <trkpt lat="63.32879" lon="8.6628">
        <ele>60.779324</ele>
        <time>2020-08-04T12:00:02.863Z</time>
      </trkpt>
      <trkpt lat="63.3288" lon="8.66302">
        <ele>60.93543</ele>
        <time>2020-08-04T12:00:05.880Z</time>
      </trkpt>
      <trkpt lat="63.32882" lon="8.66327">
        <ele>61.112048</ele>
        <time>2020-08-04T12:00:09.883Z</time>
      </trkpt>
      <trkpt lat="63.32883" lon="8.66349">
        <ele>61.268109</ele>
        <time>2020-08-04T12:00:13.883Z</time>
      </trkpt>
      <trkpt lat="63.32885" lon="8.66372">
        <ele>61.429346</ele>
        <time>2020-08-04T12:00:17.898Z</time>
      </trkpt>
      <trkpt lat="63.32887" lon="8.66394">
        <ele>61.591208</ele>
        <time>2020-08-04T12:00:21.852Z</time>
      </trkpt>
      <trkpt lat="63.3289" lon="8.66416">
        <ele>61.750651</ele>
        <time>2020-08-04T12:00:25.868Z</time>
      </trkpt>
      <trkpt lat="63.32893" lon="8.66438">
        <ele>61.906118</ele>
        <time>2020-08-04T12:00:29.873Z</time>
      </trkpt>
      <trkpt lat="63.32896" lon="8.6646">
        <ele>62.069134</ele>
        <time>2020-08-04T12:00:33.882Z</time>
      </trkpt>
      <trkpt lat="63.32899" lon="8.66486">
        <ele>62.259135</ele>
        <time>2020-08-04T12:00:37.890Z</time>
      </trkpt>
      <trkpt lat="63.32901" lon="8.66508">
        <ele>62.422322</ele>
        <time>2020-08-04T12:00:40.869Z</time>
      </trkpt>
      <trkpt lat="63.32905" lon="8.66532">
        <ele>62.595201</ele>
        <time>2020-08-04T12:00:43.898Z</time>
      </trkpt>
      <trkpt lat="63.32908" lon="8.66556">
        <ele>62.772159</ele>
        <time>2020-08-04T12:00:46.879Z</time>
      </trkpt>
      <trkpt lat="63.32912" lon="8.66581">
        <ele>62.888784</ele>
        <time>2020-08-04T12:00:49.861Z</time>
      </trkpt>
      <trkpt lat="63.32916" lon="8.66607">
        <ele>63.010808</ele>
        <time>2020-08-04T12:00:52.866Z</time>
      </trkpt>
      <trkpt lat="63.32921" lon="8.66635">
        <ele>63.141145</ele>
        <time>2020-08-04T12:00:55.883Z</time>
      </trkpt>
      <trkpt lat="63.32925" lon="8.66662">
        <ele>63.266569</ele>
        <time>2020-08-04T12:00:58.882Z</time>
      </trkpt>
      <trkpt lat="63.3293" lon="8.66688">
        <ele>63.389812</ele>
        <time>2020-08-04T12:01:01.911Z</time>
      </trkpt>
      <trkpt lat="63.32935" lon="8.66707">
        <ele>63.482754</ele>
        <time>2020-08-04T12:01:03.866Z</time>
      </trkpt>
      <trkpt lat="63.32939" lon="8.66728">
        <ele>63.58246</ele>
        <time>2020-08-04T12:01:05.861Z</time>
      </trkpt>
      <trkpt lat="63.32943" lon="8.6675">
        <ele>63.687367</ele>
        <time>2020-08-04T12:01:07.862Z</time>
      </trkpt>
      <trkpt lat="63.32947" lon="8.66772">
        <ele>63.788905</ele>
        <time>2020-08-04T12:01:09.864Z</time>
      </trkpt>
      <trkpt lat="63.32949" lon="8.66793">
        <ele>63.887338</ele>
        <time>2020-08-04T12:01:11.868Z</time>
      </trkpt>
      <trkpt lat="63.32952" lon="8.66814">
        <ele>63.982261</ele>
        <time>2020-08-04T12:01:13.872Z</time>
      </trkpt>
      <trkpt lat="63.32955" lon="8.66834">
        <ele>64.07384</ele>
        <time>2020-08-04T12:01:15.886Z</time>
      </trkpt>
      <trkpt lat="63.32958" lon="8.6686">
        <ele>64.1901</ele>
        <time>2020-08-04T12:01:18.856Z</time>
      </trkpt>
      <trkpt lat="63.3296" lon="8.66884">
        <ele>64.297175</ele>
        <time>2020-08-04T12:01:22.871Z</time>
      </trkpt>
      <trkpt lat="63.32962" lon="8.66906">
        <ele>64.395065</ele>
        <time>2020-08-04T12:01:26.901Z</time>
      </trkpt>
      <trkpt lat="63.32965" lon="8.66929">
        <ele>64.496579</ele>
        <time>2020-08-04T12:01:30.881Z</time>
      </trkpt>
      <trkpt lat="63.32966" lon="8.66949">
        <ele>64.557021</ele>
        <time>2020-08-04T12:01:34.880Z</time>
      </trkpt>
      <trkpt lat="63.3297" lon="8.66969">
        <ele>64.602646</ele>
        <time>2020-08-04T12:01:38.868Z</time>
      </trkpt>
      <trkpt lat="63.32973" lon="8.6699">
        <ele>64.649376</ele>
        <time>2020-08-04T12:01:42.878Z</time>
      </trkpt>
      <trkpt lat="63.32976" lon="8.67014">
        <ele>64.70184</ele>
        <time>2020-08-04T12:01:47.902Z</time>
      </trkpt>
      <trkpt lat="63.32978" lon="8.67033">
        <ele>64.745106</ele>
        <time>2020-08-04T12:01:51.852Z</time>
      </trkpt>
      <trkpt lat="63.3298" lon="8.67054">
        <ele>64.790954</ele>
        <time>2020-08-04T12:01:55.891Z</time>
      </trkpt>
      <trkpt lat="63.32983" lon="8.67074">
        <ele>64.836598</ele>
        <time>2020-08-04T12:01:59.872Z</time>
      </trkpt>
      <trkpt lat="63.32987" lon="8.67097">
        <ele>64.887373</ele>
        <time>2020-08-04T12:02:03.889Z</time>
      </trkpt>
      <trkpt lat="63.32991" lon="8.67115">
        <ele>64.930446</ele>
        <time>2020-08-04T12:02:06.902Z</time>
      </trkpt>
      <trkpt lat="63.32997" lon="8.67137">
        <ele>64.98579</ele>
        <time>2020-08-04T12:02:10.873Z</time>
      </trkpt>
      <trkpt lat="63.33004" lon="8.67159">
        <ele>65.043459</ele>
        <time>2020-08-04T12:02:14.891Z</time>
      </trkpt>
      <trkpt lat="63.3301" lon="8.67178">
        <ele>65.094939</ele>
        <time>2020-08-04T12:02:17.892Z</time>
      </trkpt>
      <trkpt lat="63.33019" lon="8.67201">
        <ele>65.158997</ele>
        <time>2020-08-04T12:02:20.865Z</time>
      </trkpt>
      <trkpt lat="63.33026" lon="8.67217">
        <ele>65.208361</ele>
        <time>2020-08-04T12:02:22.887Z</time>
      </trkpt>
      <trkpt lat="63.33034" lon="8.67234">
        <ele>65.259152</ele>
        <time>2020-08-04T12:02:24.886Z</time>
      </trkpt>
      <trkpt lat="63.33042" lon="8.67251">
        <ele>65.310477</ele>
        <time>2020-08-04T12:02:26.880Z</time>
      </trkpt>
      <trkpt lat="63.33051" lon="8.67268">
        <ele>65.366536</ele>
        <time>2020-08-04T12:02:28.884Z</time>
      </trkpt>
      <trkpt lat="63.33059" lon="8.67287">
        <ele>65.119607</ele>
        <time>2020-08-04T12:02:30.929Z</time>
      </trkpt>
      <trkpt lat="63.33068" lon="8.67307">
        <ele>64.740924</ele>
        <time>2020-08-04T12:02:32.865Z</time>
      </trkpt>
      <trkpt lat="63.33077" lon="8.67329">
        <ele>64.353342</ele>
        <time>2020-08-04T12:02:34.895Z</time>
      </trkpt>
      <trkpt lat="63.33084" lon="8.67353">
        <ele>63.96711</ele>
        <time>2020-08-04T12:02:36.884Z</time>
      </trkpt>
      <trkpt lat="63.3309" lon="8.67379">
        <ele>63.5695</ele>
        <time>2020-08-04T12:02:38.887Z</time>
      </trkpt>
      <trkpt lat="63.33096" lon="8.67407">
        <ele>63.15331</ele>
        <time>2020-08-04T12:02:40.878Z</time>
      </trkpt>
      <trkpt lat="63.331" lon="8.67436">
        <ele>62.739125</ele>
        <time>2020-08-04T12:02:42.883Z</time>
      </trkpt>
      <trkpt lat="63.33104" lon="8.67466">
        <ele>62.319273</ele>
        <time>2020-08-04T12:02:44.872Z</time>
      </trkpt>
      <trkpt lat="63.33108" lon="8.67497">
        <ele>61.889115</ele>
        <time>2020-08-04T12:02:46.865Z</time>
      </trkpt>
      <trkpt lat="63.33111" lon="8.67528">
        <ele>61.467628</ele>
        <time>2020-08-04T12:02:48.868Z</time>
      </trkpt>
      <trkpt lat="63.33113" lon="8.67559">
        <ele>61.041296</ele>
        <time>2020-08-04T12:02:50.860Z</time>
      </trkpt>
      <trkpt lat="63.33115" lon="8.67592">
        <ele>60.587857</ele>
        <time>2020-08-04T12:02:52.891Z</time>
      </trkpt>
      <trkpt lat="63.33118" lon="8.67626">
        <ele>60.128746</ele>
        <time>2020-08-04T12:02:54.892Z</time>
      </trkpt>
      <trkpt lat="63.33121" lon="8.67663">
        <ele>59.590078</ele>
        <time>2020-08-04T12:02:56.865Z</time>
      </trkpt>
      <trkpt lat="63.33123" lon="8.67703">
        <ele>59.00983</ele>
        <time>2020-08-04T12:02:58.877Z</time>
      </trkpt>
      <trkpt lat="63.33125" lon="8.67724">
        <ele>58.69935</ele>
        <time>2020-08-04T12:02:59.883Z</time>
      </trkpt>
      <trkpt lat="63.33127" lon="8.67746">
        <ele>58.376849</ele>
        <time>2020-08-04T12:03:00.907Z</time>
      </trkpt>
      <trkpt lat="63.33129" lon="8.67768">
        <ele>58.043151</ele>
        <time>2020-08-04T12:03:01.880Z</time>
      </trkpt>
      <trkpt lat="63.3313" lon="8.67792">
        <ele>57.697444</ele>
        <time>2020-08-04T12:03:02.879Z</time>
      </trkpt>
      <trkpt lat="63.33131" lon="8.67816">
        <ele>57.346983</ele>
        <time>2020-08-04T12:03:03.885Z</time>
      </trkpt>
      <trkpt lat="63.33133" lon="8.6784">
        <ele>56.998397</ele>
        <time>2020-08-04T12:03:04.858Z</time>
      </trkpt>
      <trkpt lat="63.33134" lon="8.67863">
        <ele>56.661326</ele>
        <time>2020-08-04T12:03:05.877Z</time>
      </trkpt>
      <trkpt lat="63.33135" lon="8.67885">
        <ele>56.330085</ele>
        <time>2020-08-04T12:03:06.870Z</time>
      </trkpt>
      <trkpt lat="63.33137" lon="8.67907">
        <ele>56.010717</ele>
        <time>2020-08-04T12:03:07.893Z</time>
      </trkpt>
      <trkpt lat="63.33138" lon="8.67928">
        <ele>55.709584</ele>
        <time>2020-08-04T12:03:08.864Z</time>
      </trkpt>
      <trkpt lat="63.3314" lon="8.67948">
        <ele>55.413131</ele>
        <time>2020-08-04T12:03:09.871Z</time>
      </trkpt>
      <trkpt lat="63.33142" lon="8.67985">
        <ele>54.867675</ele>
        <time>2020-08-04T12:03:11.874Z</time>
      </trkpt>
      <trkpt lat="63.33144" lon="8.68019">
        <ele>54.361458</ele>
        <time>2020-08-04T12:03:13.868Z</time>
      </trkpt>
      <trkpt lat="63.33146" lon="8.68055">
        <ele>53.935519</ele>
        <time>2020-08-04T12:03:15.868Z</time>
      </trkpt>
      <trkpt lat="63.33148" lon="8.68091">
        <ele>53.555836</ele>
        <time>2020-08-04T12:03:17.881Z</time>
      </trkpt>
      <trkpt lat="63.33151" lon="8.68128">
        <ele>53.159999</ele>
        <time>2020-08-04T12:03:19.903Z</time>
      </trkpt>
      <trkpt lat="63.33154" lon="8.68166">
        <ele>52.759045</ele>
        <time>2020-08-04T12:03:21.913Z</time>
      </trkpt>
      <trkpt lat="63.33156" lon="8.68205">
        <ele>52.347045</ele>
        <time>2020-08-04T12:03:23.863Z</time>
      </trkpt>
      <trkpt lat="63.3316" lon="8.68243">
        <ele>51.932891</ele>
        <time>2020-08-04T12:03:25.897Z</time>
      </trkpt>
      <trkpt lat="63.33162" lon="8.68263">
        <ele>51.721988</ele>
        <time>2020-08-04T12:03:26.865Z</time>
      </trkpt>
      <trkpt lat="63.33164" lon="8.68283">
        <ele>51.503405</ele>
        <time>2020-08-04T12:03:27.889Z</time>
      </trkpt>
      <trkpt lat="63.33167" lon="8.68304">
        <ele>51.285278</ele>
        <time>2020-08-04T12:03:28.898Z</time>
      </trkpt>
      <trkpt lat="63.33169" lon="8.68324">
        <ele>51.064949</ele>
        <time>2020-08-04T12:03:29.889Z</time>
      </trkpt>
      <trkpt lat="63.33171" lon="8.68345">
        <ele>50.842821</ele>
        <time>2020-08-04T12:03:30.887Z</time>
      </trkpt>
      <trkpt lat="63.33173" lon="8.68366">
        <ele>50.617629</ele>
        <time>2020-08-04T12:03:31.872Z</time>
      </trkpt>
      <trkpt lat="63.33175" lon="8.68387">
        <ele>50.392379</ele>
        <time>2020-08-04T12:03:32.889Z</time>
      </trkpt>
      <trkpt lat="63.33177" lon="8.68408">
        <ele>50.166659</ele>
        <time>2020-08-04T12:03:33.868Z</time>
      </trkpt>
      <trkpt lat="63.33179" lon="8.68429">
        <ele>49.946766</ele>
        <time>2020-08-04T12:03:34.899Z</time>
      </trkpt>
      <trkpt lat="63.33181" lon="8.68449">
        <ele>49.751159</ele>
        <time>2020-08-04T12:03:35.861Z</time>
      </trkpt>
      <trkpt lat="63.33183" lon="8.6847">
        <ele>49.553737</ele>
        <time>2020-08-04T12:03:36.891Z</time>
      </trkpt>
      <trkpt lat="63.33185" lon="8.68491">
        <ele>49.358131</ele>
        <time>2020-08-04T12:03:37.884Z</time>
      </trkpt>
      <trkpt lat="63.33187" lon="8.68512">
        <ele>49.160445</ele>
        <time>2020-08-04T12:03:38.878Z</time>
      </trkpt>
      <trkpt lat="63.33188" lon="8.68533">
        <ele>48.962179</ele>
        <time>2020-08-04T12:03:39.873Z</time>
      </trkpt>
      <trkpt lat="63.3319" lon="8.68554">
        <ele>48.764829</ele>
        <time>2020-08-04T12:03:40.861Z</time>
      </trkpt>
      <trkpt lat="63.33191" lon="8.68574">
        <ele>48.570229</ele>
        <time>2020-08-04T12:03:41.871Z</time>
      </trkpt>
      <trkpt lat="63.33192" lon="8.68595">
        <ele>48.379281</ele>
        <time>2020-08-04T12:03:42.879Z</time>
      </trkpt>
      <trkpt lat="63.33194" lon="8.68615">
        <ele>48.191092</ele>
        <time>2020-08-04T12:03:43.864Z</time>
      </trkpt>
      <trkpt lat="63.33198" lon="8.68653">
        <ele>47.828852</ele>
        <time>2020-08-04T12:03:45.869Z</time>
      </trkpt>
      <trkpt lat="63.33204" lon="8.68689">
        <ele>47.46897</ele>
        <time>2020-08-04T12:03:47.902Z</time>
      </trkpt>
      <trkpt lat="63.33211" lon="8.68722">
        <ele>47.131681</ele>
        <time>2020-08-04T12:03:49.882Z</time>
      </trkpt>
      <trkpt lat="63.33219" lon="8.68752">
        <ele>46.811357</ele>
        <time>2020-08-04T12:03:51.866Z</time>
      </trkpt>
      <trkpt lat="63.33226" lon="8.68782">
        <ele>46.494277</ele>
        <time>2020-08-04T12:03:53.899Z</time>
      </trkpt>
      <trkpt lat="63.33233" lon="8.68812">
        <ele>46.274842</ele>
        <time>2020-08-04T12:03:55.863Z</time>
      </trkpt>
      <trkpt lat="63.33241" lon="8.6884">
        <ele>46.344094</ele>
        <time>2020-08-04T12:03:57.871Z</time>
      </trkpt>
      <trkpt lat="63.33248" lon="8.68867">
        <ele>46.410257</ele>
        <time>2020-08-04T12:03:59.869Z</time>
      </trkpt>
      <trkpt lat="63.33254" lon="8.68893">
        <ele>46.471866</ele>
        <time>2020-08-04T12:04:01.867Z</time>
      </trkpt>
      <trkpt lat="63.33259" lon="8.68918">
        <ele>46.531153</ele>
        <time>2020-08-04T12:04:03.899Z</time>
      </trkpt>
      <trkpt lat="63.33265" lon="8.68942">
        <ele>46.590935</ele>
        <time>2020-08-04T12:04:05.886Z</time>
      </trkpt>
      <trkpt lat="63.33271" lon="8.68966">
        <ele>46.648143</ele>
        <time>2020-08-04T12:04:07.871Z</time>
      </trkpt>
      <trkpt lat="63.33276" lon="8.68988">
        <ele>46.701312</ele>
        <time>2020-08-04T12:04:09.872Z</time>
      </trkpt>
      <trkpt lat="63.33281" lon="8.69009">
        <ele>46.749735</ele>
        <time>2020-08-04T12:04:11.862Z</time>
      </trkpt>
      <trkpt lat="63.33285" lon="8.6903">
        <ele>46.798547</ele>
        <time>2020-08-04T12:04:13.897Z</time>
      </trkpt>
      <trkpt lat="63.33288" lon="8.69051">
        <ele>46.845203</ele>
        <time>2020-08-04T12:04:15.864Z</time>
      </trkpt>
      <trkpt lat="63.33292" lon="8.69073">
        <ele>46.895651</ele>
        <time>2020-08-04T12:04:17.883Z</time>
      </trkpt>
      <trkpt lat="63.33296" lon="8.69095">
        <ele>46.945842</ele>
        <time>2020-08-04T12:04:19.871Z</time>
      </trkpt>
      <trkpt lat="63.333" lon="8.69117">
        <ele>46.995791</ele>
        <time>2020-08-04T12:04:21.877Z</time>
      </trkpt>
      <trkpt lat="63.33304" lon="8.69137">
        <ele>47.043997</ele>
        <time>2020-08-04T12:04:23.882Z</time>
      </trkpt>
      <trkpt lat="63.33308" lon="8.69157">
        <ele>47.089881</ele>
        <time>2020-08-04T12:04:25.894Z</time>
      </trkpt>
      <trkpt lat="63.33314" lon="8.69183">
        <ele>47.620869</ele>
        <time>2020-08-04T12:04:28.868Z</time>
      </trkpt>
      <trkpt lat="63.33319" lon="8.69204">
        <ele>48.242217</ele>
        <time>2020-08-04T12:04:31.877Z</time>
      </trkpt>
      <trkpt lat="63.33324" lon="8.69223">
        <ele>48.797868</ele>
        <time>2020-08-04T12:04:34.883Z</time>
      </trkpt>
      <trkpt lat="63.3333" lon="8.69239">
        <ele>49.302765</ele>
        <time>2020-08-04T12:04:37.863Z</time>
      </trkpt>
      <trkpt lat="63.33337" lon="8.69258">
        <ele>49.929951</ele>
        <time>2020-08-04T12:04:41.907Z</time>
      </trkpt>
      <trkpt lat="63.33343" lon="8.69279">
        <ele>50.550462</ele>
        <time>2020-08-04T12:04:46.893Z</time>
      </trkpt>
      <trkpt lat="63.33348" lon="8.69297">
        <ele>51.087631</ele>
        <time>2020-08-04T12:04:50.896Z</time>
      </trkpt>
      <trkpt lat="63.33354" lon="8.69314">
        <ele>51.629694</ele>
        <time>2020-08-04T12:04:54.873Z</time>
      </trkpt>
      <trkpt lat="63.33359" lon="8.69335">
        <ele>52.238413</ele>
        <time>2020-08-04T12:05:00.862Z</time>
      </trkpt>
      <trkpt lat="63.33364" lon="8.69353">
        <ele>52.773158</ele>
        <time>2020-08-04T12:05:05.873Z</time>
      </trkpt>
      <trkpt lat="63.3337" lon="8.69371">
        <ele>53.320006</ele>
        <time>2020-08-04T12:05:10.887Z</time>
      </trkpt>
      <trkpt lat="63.33376" lon="8.69386">
        <ele>53.826294</ele>
        <time>2020-08-04T12:05:15.872Z</time>
      </trkpt>
      <trkpt lat="63.33383" lon="8.694">
        <ele>54.353579</ele>
        <time>2020-08-04T12:05:20.880Z</time>
      </trkpt>
      <trkpt lat="63.3339" lon="8.69413">
        <ele>54.898037</ele>
        <time>2020-08-04T12:05:24.879Z</time>
      </trkpt>
      <trkpt lat="63.33399" lon="8.69425">
        <ele>55.458217</ele>
        <time>2020-08-04T12:05:28.868Z</time>
      </trkpt>
      <trkpt lat="63.33409" lon="8.69434">
        <ele>56.05754</ele>
        <time>2020-08-04T12:05:32.890Z</time>
      </trkpt>
      <trkpt lat="63.33418" lon="8.69438">
        <ele>56.570883</ele>
        <time>2020-08-04T12:05:35.868Z</time>
      </trkpt>
      <trkpt lat="63.33427" lon="8.69437">
        <ele>57.121431</ele>
        <time>2020-08-04T12:05:38.903Z</time>
      </trkpt>
      <trkpt lat="63.33437" lon="8.6943">
        <ele>57.748408</ele>
        <time>2020-08-04T12:05:41.901Z</time>
      </trkpt>
      <trkpt lat="63.33447" lon="8.69422">
        <ele>58.434556</ele>
        <time>2020-08-04T12:05:44.870Z</time>
      </trkpt>
      <trkpt lat="63.33457" lon="8.69414">
        <ele>59.120703</ele>
        <time>2020-08-04T12:05:47.882Z</time>
      </trkpt>
      <trkpt lat="63.33468" lon="8.69404">
        <ele>59.898989</ele>
        <time>2020-08-04T12:05:50.906Z</time>
      </trkpt>
      <trkpt lat="63.3348" lon="8.69396">
        <ele>60.688512</ele>
        <time>2020-08-04T12:05:53.915Z</time>
      </trkpt>
      <trkpt lat="63.33491" lon="8.69393">
        <ele>61.406117</ele>
        <time>2020-08-04T12:05:56.870Z</time>
      </trkpt>
      <trkpt lat="63.33501" lon="8.6939">
        <ele>62.044559</ele>
        <time>2020-08-04T12:05:59.862Z</time>
      </trkpt>
      <trkpt lat="63.33511" lon="8.69389">
        <ele>62.647424</ele>
        <time>2020-08-04T12:06:02.876Z</time>
      </trkpt>
      <trkpt lat="63.33522" lon="8.69388">
        <ele>63.364928</ele>
        <time>2020-08-04T12:06:06.864Z</time>
      </trkpt>
      <trkpt lat="63.33532" lon="8.69386">
        <ele>63.993186</ele>
        <time>2020-08-04T12:06:12.898Z</time>
      </trkpt>
      <trkpt lat="63.33542" lon="8.69383">
        <ele>64.648853</ele>
        <time>2020-08-04T12:06:18.921Z</time>
      </trkpt>
      <trkpt lat="63.3355" lon="8.69373">
        <ele>65.257124</ele>
        <time>2020-08-04T12:06:24.882Z</time>
      </trkpt>
      <trkpt lat="63.33558" lon="8.69362">
        <ele>65.858417</ele>
        <time>2020-08-04T12:06:30.894Z</time>
      </trkpt>
      <trkpt lat="63.33566" lon="8.69346">
        <ele>66.521793</ele>
        <time>2020-08-04T12:06:37.867Z</time>
      </trkpt>
      <trkpt lat="63.33573" lon="8.69333">
        <ele>67.127838</ele>
        <time>2020-08-04T12:06:43.902Z</time>
      </trkpt>
      <trkpt lat="63.3358" lon="8.6932">
        <ele>67.712974</ele>
        <time>2020-08-04T12:06:49.892Z</time>
      </trkpt>
      <trkpt lat="63.33587" lon="8.69306">
        <ele>68.32881</ele>
        <time>2020-08-04T12:06:56.875Z</time>
      </trkpt>
      <trkpt lat="63.33595" lon="8.69292">
        <ele>69.05677</ele>
        <time>2020-08-04T12:07:02.881Z</time>
      </trkpt>
      <trkpt lat="63.33603" lon="8.69277">
        <ele>69.915838</ele>
        <time>2020-08-04T12:07:08.868Z</time>
      </trkpt>
      <trkpt lat="63.33611" lon="8.69265">
        <ele>70.765437</ele>
        <time>2020-08-04T12:07:15.880Z</time>
      </trkpt>
      <trkpt lat="63.3362" lon="8.69254">
        <ele>71.668349</ele>
        <time>2020-08-04T12:07:22.911Z</time>
      </trkpt>
      <trkpt lat="63.33629" lon="8.69242">
        <ele>72.571792</ele>
        <time>2020-08-04T12:07:29.907Z</time>
      </trkpt>
      <trkpt lat="63.33638" lon="8.69234">
        <ele>73.39521</ele>
        <time>2020-08-04T12:07:35.877Z</time>
      </trkpt>
      <trkpt lat="63.33646" lon="8.6922">
        <ele>74.276153</ele>
        <time>2020-08-04T12:07:42.880Z</time>
      </trkpt>
      <trkpt lat="63.33655" lon="8.69211">
        <ele>75.121043</ele>
        <time>2020-08-04T12:07:49.882Z</time>
      </trkpt>
      <trkpt lat="63.33666" lon="8.69207">
        <ele>76.00991</ele>
        <time>2020-08-04T12:07:57.868Z</time>
      </trkpt>
      <trkpt lat="63.33675" lon="8.69205">
        <ele>76.824049</ele>
        <time>2020-08-04T12:08:03.904Z</time>
      </trkpt>
      <trkpt lat="63.33684" lon="8.692">
        <ele>77.611098</ele>
        <time>2020-08-04T12:08:11.907Z</time>
      </trkpt>
      <trkpt lat="63.33693" lon="8.69197">
        <ele>78.418774</ele>
        <time>2020-08-04T12:08:19.870Z</time>
      </trkpt>
      <trkpt lat="63.33703" lon="8.69197">
        <ele>79.226796</ele>
        <time>2020-08-04T12:08:27.881Z</time>
      </trkpt>
      <trkpt lat="63.33712" lon="8.69196">
        <ele>80.052826</ele>
        <time>2020-08-04T12:08:36.863Z</time>
      </trkpt>
      <trkpt lat="63.33722" lon="8.69195">
        <ele>80.921146</ele>
        <time>2020-08-04T12:08:44.889Z</time>
      </trkpt>
      <trkpt lat="63.33732" lon="8.69197">
        <ele>81.756875</ele>
        <time>2020-08-04T12:08:52.866Z</time>
      </trkpt>
      <trkpt lat="63.33741" lon="8.69204">
        <ele>82.56681</ele>
        <time>2020-08-04T12:08:58.912Z</time>
      </trkpt>
      <trkpt lat="63.33751" lon="8.69206">
        <ele>83.447243</ele>
        <time>2020-08-04T12:09:04.900Z</time>
      </trkpt>
      <trkpt lat="63.33761" lon="8.6921">
        <ele>84.147651</ele>
        <time>2020-08-04T12:09:09.879Z</time>
      </trkpt>
      <trkpt lat="63.33771" lon="8.69212">
        <ele>84.008288</ele>
        <time>2020-08-04T12:09:14.868Z</time>
      </trkpt>
      <trkpt lat="63.3378" lon="8.69212">
        <ele>83.866602</ele>
        <time>2020-08-04T12:09:19.888Z</time>
      </trkpt>
      <trkpt lat="63.33793" lon="8.69213">
        <ele>83.683323</ele>
        <time>2020-08-04T12:09:23.904Z</time>
      </trkpt>
      <trkpt lat="63.33805" lon="8.69211">
        <ele>83.502506</ele>
        <time>2020-08-04T12:09:26.887Z</time>
      </trkpt>
      <trkpt lat="63.33815" lon="8.69207">
        <ele>83.359939</ele>
        <time>2020-08-04T12:09:28.888Z</time>
      </trkpt>
      <trkpt lat="63.33825" lon="8.69202">
        <ele>83.201473</ele>
        <time>2020-08-04T12:09:30.884Z</time>
      </trkpt>
      <trkpt lat="63.33836" lon="8.69196">
        <ele>83.037359</ele>
        <time>2020-08-04T12:09:32.868Z</time>
      </trkpt>
      <trkpt lat="63.33847" lon="8.6919">
        <ele>82.867505</ele>
        <time>2020-08-04T12:09:34.879Z</time>
      </trkpt>
      <trkpt lat="63.33858" lon="8.69182">
        <ele>82.695732</ele>
        <time>2020-08-04T12:09:36.879Z</time>
      </trkpt>
      <trkpt lat="63.33868" lon="8.69171">
        <ele>82.529234</ele>
        <time>2020-08-04T12:09:38.892Z</time>
      </trkpt>
      <trkpt lat="63.33877" lon="8.69154">
        <ele>82.358466</ele>
        <time>2020-08-04T12:09:40.880Z</time>
      </trkpt>
      <trkpt lat="63.33885" lon="8.69133">
        <ele>82.175603</ele>
        <time>2020-08-04T12:09:42.893Z</time>
      </trkpt>
      <trkpt lat="63.33893" lon="8.69112">
        <ele>81.989613</ele>
        <time>2020-08-04T12:09:44.890Z</time>
      </trkpt>
      <trkpt lat="63.33902" lon="8.6909">
        <ele>81.793921</ele>
        <time>2020-08-04T12:09:46.893Z</time>
      </trkpt>
      <trkpt lat="63.33914" lon="8.69069">
        <ele>81.572094</ele>
        <time>2020-08-04T12:09:48.880Z</time>
      </trkpt>
      <trkpt lat="63.33927" lon="8.69048">
        <ele>80.860916</ele>
        <time>2020-08-04T12:09:50.887Z</time>
      </trkpt>
      <trkpt lat="63.33939" lon="8.69026">
        <ele>80.052099</ele>
        <time>2020-08-04T12:09:52.885Z</time>
      </trkpt>
      <trkpt lat="63.3395" lon="8.69003">
        <ele>79.278275</ele>
        <time>2020-08-04T12:09:54.870Z</time>
      </trkpt>
      <trkpt lat="63.33961" lon="8.68979">
        <ele>78.488218</ele>
        <time>2020-08-04T12:09:56.878Z</time>
      </trkpt>
      <trkpt lat="63.33971" lon="8.68955">
        <ele>77.718261</ele>
        <time>2020-08-04T12:09:58.886Z</time>
      </trkpt>
      <trkpt lat="63.3398" lon="8.68932">
        <ele>76.998773</ele>
        <time>2020-08-04T12:10:00.888Z</time>
      </trkpt>
      <trkpt lat="63.33988" lon="8.68908">
        <ele>76.293487</ele>
        <time>2020-08-04T12:10:02.869Z</time>
      </trkpt>
      <trkpt lat="63.33996" lon="8.68883">
        <ele>75.596797</ele>
        <time>2020-08-04T12:10:04.910Z</time>
      </trkpt>
      <trkpt lat="63.34003" lon="8.68858">
        <ele>74.909193</ele>
        <time>2020-08-04T12:10:06.879Z</time>
      </trkpt>
      <trkpt lat="63.34009" lon="8.68833">
        <ele>74.246872</ele>
        <time>2020-08-04T12:10:08.875Z</time>
      </trkpt>
      <trkpt lat="63.34015" lon="8.68809">
        <ele>73.612338</ele>
        <time>2020-08-04T12:10:10.901Z</time>
      </trkpt>
      <trkpt lat="63.34022" lon="8.68789">
        <ele>73.013649</ele>
        <time>2020-08-04T12:10:12.885Z</time>
      </trkpt>
      <trkpt lat="63.34031" lon="8.68771">
        <ele>72.385686</ele>
        <time>2020-08-04T12:10:14.885Z</time>
      </trkpt>
      <trkpt lat="63.3404" lon="8.68754">
        <ele>71.904245</ele>
        <time>2020-08-04T12:10:16.884Z</time>
      </trkpt>
      <trkpt lat="63.3405" lon="8.68738">
        <ele>71.469249</ele>
        <time>2020-08-04T12:10:18.868Z</time>
      </trkpt>
      <trkpt lat="63.3406" lon="8.68724">
        <ele>71.033075</ele>
        <time>2020-08-04T12:10:20.863Z</time>
      </trkpt>
      <trkpt lat="63.34071" lon="8.6871">
        <ele>70.585089</ele>
        <time>2020-08-04T12:10:22.886Z</time>
      </trkpt>
      <trkpt lat="63.34082" lon="8.68699">
        <ele>70.158644</ele>
        <time>2020-08-04T12:10:24.880Z</time>
      </trkpt>
      <trkpt lat="63.34093" lon="8.68691">
        <ele>69.74643</ele>
        <time>2020-08-04T12:10:26.888Z</time>
      </trkpt>
      <trkpt lat="63.34104" lon="8.68687">
        <ele>69.354376</ele>
        <time>2020-08-04T12:10:28.864Z</time>
      </trkpt>
      <trkpt lat="63.34116" lon="8.68685">
        <ele>68.949603</ele>
        <time>2020-08-04T12:10:30.857Z</time>
      </trkpt>
      <trkpt lat="63.34127" lon="8.68685">
        <ele>68.53873</ele>
        <time>2020-08-04T12:10:32.888Z</time>
      </trkpt>
      <trkpt lat="63.34139" lon="8.68686">
        <ele>68.120029</ele>
        <time>2020-08-04T12:10:34.868Z</time>
      </trkpt>
      <trkpt lat="63.34151" lon="8.68692">
        <ele>67.69306</ele>
        <time>2020-08-04T12:10:36.867Z</time>
      </trkpt>
      <trkpt lat="63.34163" lon="8.68703">
        <ele>67.229018</ele>
        <time>2020-08-04T12:10:38.906Z</time>
      </trkpt>
      <trkpt lat="63.34174" lon="8.68718">
        <ele>66.76761</ele>
        <time>2020-08-04T12:10:40.887Z</time>
      </trkpt>
      <trkpt lat="63.34185" lon="8.68735">
        <ele>66.3135</ele>
        <time>2020-08-04T12:10:42.873Z</time>
      </trkpt>
      <trkpt lat="63.34195" lon="8.68748">
        <ele>65.876486</ele>
        <time>2020-08-04T12:10:44.863Z</time>
      </trkpt>
      <trkpt lat="63.34207" lon="8.68761">
        <ele>65.887191</ele>
        <time>2020-08-04T12:10:46.883Z</time>
      </trkpt>
      <trkpt lat="63.34216" lon="8.68771">
        <ele>65.955979</ele>
        <time>2020-08-04T12:10:48.870Z</time>
      </trkpt>
      <trkpt lat="63.34229" lon="8.68776">
        <ele>66.038478</ele>
        <time>2020-08-04T12:10:50.884Z</time>
      </trkpt>
      <trkpt lat="63.34242" lon="8.68779">
        <ele>66.125253</ele>
        <time>2020-08-04T12:10:52.900Z</time>
      </trkpt>
      <trkpt lat="63.34255" lon="8.68781">
        <ele>66.206362</ele>
        <time>2020-08-04T12:10:54.878Z</time>
      </trkpt>
      <trkpt lat="63.34267" lon="8.68777">
        <ele>66.285663</ele>
        <time>2020-08-04T12:10:56.875Z</time>
      </trkpt>
      <trkpt lat="63.34279" lon="8.68771">
        <ele>66.367308</ele>
        <time>2020-08-04T12:10:58.876Z</time>
      </trkpt>
      <trkpt lat="63.34291" lon="8.68766">
        <ele>66.445771</ele>
        <time>2020-08-04T12:11:00.887Z</time>
      </trkpt>
      <trkpt lat="63.34302" lon="8.68762">
        <ele>66.516707</ele>
        <time>2020-08-04T12:11:02.921Z</time>
      </trkpt>
      <trkpt lat="63.34312" lon="8.68757">
        <ele>66.585407</ele>
        <time>2020-08-04T12:11:04.885Z</time>
      </trkpt>
      <trkpt lat="63.34323" lon="8.68752">
        <ele>66.655549</ele>
        <time>2020-08-04T12:11:06.873Z</time>
      </trkpt>
      <trkpt lat="63.34333" lon="8.68749">
        <ele>66.724938</ele>
        <time>2020-08-04T12:11:08.876Z</time>
      </trkpt>
      <trkpt lat="63.34344" lon="8.68746">
        <ele>66.792746</ele>
        <time>2020-08-04T12:11:10.864Z</time>
      </trkpt>
      <trkpt lat="63.34353" lon="8.68745">
        <ele>66.85565</ele>
        <time>2020-08-04T12:11:12.874Z</time>
      </trkpt>
      <trkpt lat="63.34363" lon="8.68747">
        <ele>66.914844</ele>
        <time>2020-08-04T12:11:14.900Z</time>
      </trkpt>
      <trkpt lat="63.34374" lon="8.68754">
        <ele>66.982794</ele>
        <time>2020-08-04T12:11:17.872Z</time>
      </trkpt>
      <trkpt lat="63.34385" lon="8.68764">
        <ele>66.98874</ele>
        <time>2020-08-04T12:11:20.887Z</time>
      </trkpt>
      <trkpt lat="63.34396" lon="8.68778">
        <ele>66.995018</ele>
        <time>2020-08-04T12:11:24.864Z</time>
      </trkpt>
      <trkpt lat="63.34406" lon="8.68789">
        <ele>67.000477</ele>
        <time>2020-08-04T12:11:27.910Z</time>
      </trkpt>
      <trkpt lat="63.34415" lon="8.68803">
        <ele>67.006256</ele>
        <time>2020-08-04T12:11:30.870Z</time>
      </trkpt>
      <trkpt lat="63.34426" lon="8.68819">
        <ele>67.01297</ele>
        <time>2020-08-04T12:11:33.867Z</time>
      </trkpt>
      <trkpt lat="63.34437" lon="8.68835">
        <ele>67.019434</ele>
        <time>2020-08-04T12:11:36.906Z</time>
      </trkpt>
      <trkpt lat="63.34448" lon="8.68849">
        <ele>67.026067</ele>
        <time>2020-08-04T12:11:39.894Z</time>
      </trkpt>
      <trkpt lat="63.34459" lon="8.68864">
        <ele>67.032713</ele>
        <time>2020-08-04T12:11:42.874Z</time>
      </trkpt>
      <trkpt lat="63.34467" lon="8.68874">
        <ele>67.037364</ele>
        <time>2020-08-04T12:11:44.860Z</time>
      </trkpt>
      <trkpt lat="63.34476" lon="8.68884">
        <ele>67.042195</ele>
        <time>2020-08-04T12:11:46.873Z</time>
      </trkpt>
      <trkpt lat="63.34484" lon="8.68893">
        <ele>67.046825</ele>
        <time>2020-08-04T12:11:48.864Z</time>
      </trkpt>
      <trkpt lat="63.34492" lon="8.68902">
        <ele>67.051534</ele>
        <time>2020-08-04T12:11:50.863Z</time>
      </trkpt>
      <trkpt lat="63.34501" lon="8.68911">
        <ele>67.056269</ele>
        <time>2020-08-04T12:11:52.918Z</time>
      </trkpt>
      <trkpt lat="63.34509" lon="8.6892">
        <ele>67.060872</ele>
        <time>2020-08-04T12:11:54.884Z</time>
      </trkpt>
      <trkpt lat="63.34521" lon="8.68927">
        <ele>67.067362</ele>
        <time>2020-08-04T12:11:57.863Z</time>
      </trkpt>
      <trkpt lat="63.3453" lon="8.68926">
        <ele>67.071929</ele>
        <time>2020-08-04T12:11:59.874Z</time>
      </trkpt>
      <trkpt lat="63.34539" lon="8.68922">
        <ele>67.055066</ele>
        <time>2020-08-04T12:12:01.907Z</time>
      </trkpt>
      <trkpt lat="63.34551" lon="8.68909">
        <ele>67.021087</ele>
        <time>2020-08-04T12:12:04.885Z</time>
      </trkpt>
      <trkpt lat="63.34559" lon="8.68899">
        <ele>66.997501</ele>
        <time>2020-08-04T12:12:06.877Z</time>
      </trkpt>
      <trkpt lat="63.34568" lon="8.68888">
        <ele>66.972481</ele>
        <time>2020-08-04T12:12:08.925Z</time>
      </trkpt>
      <trkpt lat="63.34577" lon="8.68877">
        <ele>66.946455</ele>
        <time>2020-08-04T12:12:10.902Z</time>
      </trkpt>
      <trkpt lat="63.34586" lon="8.68866">
        <ele>66.92049</ele>
        <time>2020-08-04T12:12:12.887Z</time>
      </trkpt>
      <trkpt lat="63.34595" lon="8.68856">
        <ele>66.893222</ele>
        <time>2020-08-04T12:12:14.870Z</time>
      </trkpt>
      <trkpt lat="63.34606" lon="8.68847">
        <ele>66.864757</ele>
        <time>2020-08-04T12:12:16.923Z</time>
      </trkpt>
      <trkpt lat="63.34617" lon="8.6884">
        <ele>66.834984</ele>
        <time>2020-08-04T12:12:18.863Z</time>
      </trkpt>
      <trkpt lat="63.34629" lon="8.68836">
        <ele>66.805321</ele>
        <time>2020-08-04T12:12:20.922Z</time>
      </trkpt>
      <trkpt lat="63.3464" lon="8.68835">
        <ele>66.77546</ele>
        <time>2020-08-04T12:12:22.890Z</time>
      </trkpt>
      <trkpt lat="63.34651" lon="8.68836">
        <ele>66.746861</ele>
        <time>2020-08-04T12:12:24.862Z</time>
      </trkpt>
      <trkpt lat="63.34662" lon="8.68838">
        <ele>66.719228</ele>
        <time>2020-08-04T12:12:26.910Z</time>
      </trkpt>
      <trkpt lat="63.34673" lon="8.68838">
        <ele>66.692182</ele>
        <time>2020-08-04T12:12:28.883Z</time>
      </trkpt>
      <trkpt lat="63.34682" lon="8.68835">
        <ele>66.668693</ele>
        <time>2020-08-04T12:12:30.885Z</time>
      </trkpt>
      <trkpt lat="63.34693" lon="8.68822">
        <ele>66.637267</ele>
        <time>2020-08-04T12:12:33.865Z</time>
      </trkpt>
      <trkpt lat="63.347" lon="8.688">
        <ele>66.642557</ele>
        <time>2020-08-04T12:12:36.884Z</time>
      </trkpt>
      <trkpt lat="63.34704" lon="8.68776">
        <ele>66.746244</ele>
        <time>2020-08-04T12:12:39.911Z</time>
      </trkpt>
      <trkpt lat="63.34705" lon="8.6875">
        <ele>66.85147</ele>
        <time>2020-08-04T12:12:42.888Z</time>
      </trkpt>
      <trkpt lat="63.34705" lon="8.68725">
        <ele>66.954034</ele>
        <time>2020-08-04T12:12:45.887Z</time>
      </trkpt>
      <trkpt lat="63.34706" lon="8.68701">
        <ele>67.054187</ele>
        <time>2020-08-04T12:12:48.911Z</time>
      </trkpt>
      <trkpt lat="63.34706" lon="8.68678">
        <ele>67.147062</ele>
        <time>2020-08-04T12:12:51.872Z</time>
      </trkpt>
      <trkpt lat="63.34708" lon="8.68656">
        <ele>67.237065</ele>
        <time>2020-08-04T12:12:54.860Z</time>
      </trkpt>
      <trkpt lat="63.3471" lon="8.68635">
        <ele>67.324052</ele>
        <time>2020-08-04T12:12:57.898Z</time>
      </trkpt>
      <trkpt lat="63.34715" lon="8.68614">
        <ele>67.418858</ele>
        <time>2020-08-04T12:13:00.901Z</time>
      </trkpt>
      <trkpt lat="63.34723" lon="8.68599">
        <ele>67.515584</ele>
        <time>2020-08-04T12:13:03.878Z</time>
      </trkpt>
      <trkpt lat="63.34732" lon="8.68591">
        <ele>67.604305</ele>
        <time>2020-08-04T12:13:06.880Z</time>
      </trkpt>
      <trkpt lat="63.34742" lon="8.68588">
        <ele>67.695095</ele>
        <time>2020-08-04T12:13:10.884Z</time>
      </trkpt>
      <trkpt lat="63.34752" lon="8.68577">
        <ele>67.794067</ele>
        <time>2020-08-04T12:13:14.868Z</time>
      </trkpt>
      <trkpt lat="63.34761" lon="8.68563">
        <ele>67.892359</ele>
        <time>2020-08-04T12:13:17.869Z</time>
      </trkpt>
      <trkpt lat="63.34771" lon="8.68546">
        <ele>68.011031</ele>
        <time>2020-08-04T12:13:20.877Z</time>
      </trkpt>
      <trkpt lat="63.34779" lon="8.68534">
        <ele>68.098714</ele>
        <time>2020-08-04T12:13:22.881Z</time>
      </trkpt>
      <trkpt lat="63.34788" lon="8.68521">
        <ele>68.192276</ele>
        <time>2020-08-04T12:13:24.857Z</time>
      </trkpt>
      <trkpt lat="63.34796" lon="8.68508">
        <ele>68.212977</ele>
        <time>2020-08-04T12:13:26.871Z</time>
      </trkpt>
      <trkpt lat="63.34804" lon="8.68494">
        <ele>68.12946</ele>
        <time>2020-08-04T12:13:28.907Z</time>
      </trkpt>
      <trkpt lat="63.34812" lon="8.68478">
        <ele>68.038956</ele>
        <time>2020-08-04T12:13:30.891Z</time>
      </trkpt>
      <trkpt lat="63.34822" lon="8.68461">
        <ele>67.939773</ele>
        <time>2020-08-04T12:13:32.873Z</time>
      </trkpt>
      <trkpt lat="63.34834" lon="8.68445">
        <ele>67.826648</ele>
        <time>2020-08-04T12:13:34.866Z</time>
      </trkpt>
      <trkpt lat="63.34847" lon="8.68431">
        <ele>67.705758</ele>
        <time>2020-08-04T12:13:36.871Z</time>
      </trkpt>
      <trkpt lat="63.34862" lon="8.68421">
        <ele>67.578312</ele>
        <time>2020-08-04T12:13:38.891Z</time>
      </trkpt>
      <trkpt lat="63.34879" lon="8.68419">
        <ele>67.440861</ele>
        <time>2020-08-04T12:13:40.900Z</time>
      </trkpt>
      <trkpt lat="63.34895" lon="8.68428">
        <ele>67.304735</ele>
        <time>2020-08-04T12:13:42.882Z</time>
      </trkpt>
      <trkpt lat="63.34908" lon="8.68441">
        <ele>67.190393</ele>
        <time>2020-08-04T12:13:44.885Z</time>
      </trkpt>
      <trkpt lat="63.34919" lon="8.68454">
        <ele>67.092963</ele>
        <time>2020-08-04T12:13:46.902Z</time>
      </trkpt>
      <trkpt lat="63.34929" lon="8.68462">
        <ele>67.00178</ele>
        <time>2020-08-04T12:13:48.888Z</time>
      </trkpt>
      <trkpt lat="63.3494" lon="8.68466">
        <ele>66.911319</ele>
        <time>2020-08-04T12:13:50.883Z</time>
      </trkpt>
      <trkpt lat="63.34951" lon="8.68464">
        <ele>66.823332</ele>
        <time>2020-08-04T12:13:52.889Z</time>
      </trkpt>
      <trkpt lat="63.34961" lon="8.68457">
        <ele>66.774923</ele>
        <time>2020-08-04T12:13:54.881Z</time>
      </trkpt>
      <trkpt lat="63.34971" lon="8.68448">
        <ele>66.759319</ele>
        <time>2020-08-04T12:13:56.931Z</time>
      </trkpt>
      <trkpt lat="63.34981" lon="8.68438">
        <ele>66.743006</ele>
        <time>2020-08-04T12:13:58.882Z</time>
      </trkpt>
      <trkpt lat="63.34992" lon="8.68431">
        <ele>66.725559</ele>
        <time>2020-08-04T12:14:00.905Z</time>
      </trkpt>
      <trkpt lat="63.35002" lon="8.68425">
        <ele>66.710057</ele>
        <time>2020-08-04T12:14:02.903Z</time>
      </trkpt>
      <trkpt lat="63.35012" lon="8.68419">
        <ele>66.695222</ele>
        <time>2020-08-04T12:14:04.885Z</time>
      </trkpt>
      <trkpt lat="63.3502" lon="8.68415">
        <ele>66.681752</ele>
        <time>2020-08-04T12:14:06.863Z</time>
      </trkpt>
      <trkpt lat="63.35032" lon="8.6841">
        <ele>66.664099</ele>
        <time>2020-08-04T12:14:09.884Z</time>
      </trkpt>
      <trkpt lat="63.35044" lon="8.68407">
        <ele>66.646393</ele>
        <time>2020-08-04T12:14:12.886Z</time>
      </trkpt>
      <trkpt lat="63.35056" lon="8.68404">
        <ele>66.627697</ele>
        <time>2020-08-04T12:14:15.858Z</time>
      </trkpt>
      <trkpt lat="63.35067" lon="8.68398">
        <ele>66.610453</ele>
        <time>2020-08-04T12:14:18.883Z</time>
      </trkpt>
      <trkpt lat="63.35077" lon="8.68389">
        <ele>66.594659</ele>
        <time>2020-08-04T12:14:21.882Z</time>
      </trkpt>
      <trkpt lat="63.35088" lon="8.68379">
        <ele>66.577032</ele>
        <time>2020-08-04T12:14:24.880Z</time>
      </trkpt>
      <trkpt lat="63.351" lon="8.68371">
        <ele>66.558146</ele>
        <time>2020-08-04T12:14:27.875Z</time>
      </trkpt>
      <trkpt lat="63.35113" lon="8.68371">
        <ele>66.538218</ele>
        <time>2020-08-04T12:14:30.869Z</time>
      </trkpt>
      <trkpt lat="63.35123" lon="8.68375">
        <ele>66.524063</ele>
        <time>2020-08-04T12:14:32.892Z</time>
      </trkpt>
      <trkpt lat="63.35132" lon="8.68379">
        <ele>66.532143</ele>
        <time>2020-08-04T12:14:34.880Z</time>
      </trkpt>
      <trkpt lat="63.35141" lon="8.68384">
        <ele>66.592591</ele>
        <time>2020-08-04T12:14:36.943Z</time>
      </trkpt>
      <trkpt lat="63.35149" lon="8.6839">
        <ele>66.650239</ele>
        <time>2020-08-04T12:14:38.867Z</time>
      </trkpt>
      <trkpt lat="63.35158" lon="8.68397">
        <ele>66.710722</ele>
        <time>2020-08-04T12:14:40.875Z</time>
      </trkpt>
      <trkpt lat="63.35167" lon="8.68402">
        <ele>66.769691</ele>
        <time>2020-08-04T12:14:42.866Z</time>
      </trkpt>
      <trkpt lat="63.3518" lon="8.68409">
        <ele>66.854332</ele>
        <time>2020-08-04T12:14:45.875Z</time>
      </trkpt>
      <trkpt lat="63.35192" lon="8.68413">
        <ele>66.932537</ele>
        <time>2020-08-04T12:14:48.910Z</time>
      </trkpt>
      <trkpt lat="63.35203" lon="8.68414">
        <ele>67.005634</ele>
        <time>2020-08-04T12:14:51.879Z</time>
      </trkpt>
      <trkpt lat="63.35214" lon="8.68415">
        <ele>67.075974</ele>
        <time>2020-08-04T12:14:54.878Z</time>
      </trkpt>
      <trkpt lat="63.35225" lon="8.68411">
        <ele>67.150944</ele>
        <time>2020-08-04T12:14:57.868Z</time>
      </trkpt>
      <trkpt lat="63.35237" lon="8.68409">
        <ele>67.228095</ele>
        <time>2020-08-04T12:15:00.902Z</time>
      </trkpt>
      <trkpt lat="63.35251" lon="8.68406">
        <ele>67.314962</ele>
        <time>2020-08-04T12:15:03.872Z</time>
      </trkpt>
      <trkpt lat="63.35261" lon="8.68402">
        <ele>67.382784</ele>
        <time>2020-08-04T12:15:05.879Z</time>
      </trkpt>
      <trkpt lat="63.35273" lon="8.68399">
        <ele>67.460634</ele>
        <time>2020-08-04T12:15:07.878Z</time>
      </trkpt>
      <trkpt lat="63.35286" lon="8.684">
        <ele>67.543256</ele>
        <time>2020-08-04T12:15:09.883Z</time>
      </trkpt>
      <trkpt lat="63.35299" lon="8.68403">
        <ele>67.62957</ele>
        <time>2020-08-04T12:15:11.912Z</time>
      </trkpt>
      <trkpt lat="63.35312" lon="8.6841">
        <ele>67.558107</ele>
        <time>2020-08-04T12:15:13.868Z</time>
      </trkpt>
      <trkpt lat="63.35325" lon="8.68418">
        <ele>67.31001</ele>
        <time>2020-08-04T12:15:15.859Z</time>
      </trkpt>
      <trkpt lat="63.35337" lon="8.68425">
        <ele>67.067198</ele>
        <time>2020-08-04T12:15:17.902Z</time>
      </trkpt>
      <trkpt lat="63.35349" lon="8.68433">
        <ele>66.828289</ele>
        <time>2020-08-04T12:15:19.880Z</time>
      </trkpt>
      <trkpt lat="63.35361" lon="8.68439">
        <ele>66.587367</ele>
        <time>2020-08-04T12:15:21.866Z</time>
      </trkpt>
      <trkpt lat="63.35374" lon="8.68446">
        <ele>66.338633</ele>
        <time>2020-08-04T12:15:23.881Z</time>
      </trkpt>
      <trkpt lat="63.35387" lon="8.68452">
        <ele>66.083034</ele>
        <time>2020-08-04T12:15:25.879Z</time>
      </trkpt>
      <trkpt lat="63.354" lon="8.68459">
        <ele>65.822776</ele>
        <time>2020-08-04T12:15:27.878Z</time>
      </trkpt>
      <trkpt lat="63.35414" lon="8.68466">
        <ele>65.564947</ele>
        <time>2020-08-04T12:15:29.871Z</time>
      </trkpt>
      <trkpt lat="63.35426" lon="8.68473">
        <ele>65.313136</ele>
        <time>2020-08-04T12:15:31.882Z</time>
      </trkpt>
      <trkpt lat="63.35439" lon="8.6848">
        <ele>65.073868</ele>
        <time>2020-08-04T12:15:33.930Z</time>
      </trkpt>
      <trkpt lat="63.35449" lon="8.68486">
        <ele>64.860884</ele>
        <time>2020-08-04T12:15:35.879Z</time>
      </trkpt>
      <trkpt lat="63.3546" lon="8.68492">
        <ele>64.657095</ele>
        <time>2020-08-04T12:15:37.880Z</time>
      </trkpt>
      <trkpt lat="63.35469" lon="8.68498">
        <ele>64.468909</ele>
        <time>2020-08-04T12:15:39.900Z</time>
      </trkpt>
      <trkpt lat="63.35478" lon="8.68504">
        <ele>64.288757</ele>
        <time>2020-08-04T12:15:41.886Z</time>
      </trkpt>
      <trkpt lat="63.35487" lon="8.68509">
        <ele>64.228845</ele>
        <time>2020-08-04T12:15:43.867Z</time>
      </trkpt>
      <trkpt lat="63.35498" lon="8.68514">
        <ele>64.198962</ele>
        <time>2020-08-04T12:15:46.868Z</time>
      </trkpt>
      <trkpt lat="63.35507" lon="8.68522">
        <ele>64.172832</ele>
        <time>2020-08-04T12:15:49.870Z</time>
      </trkpt>
      <trkpt lat="63.35516" lon="8.68529">
        <ele>64.147008</ele>
        <time>2020-08-04T12:15:52.918Z</time>
      </trkpt>
      <trkpt lat="63.35527" lon="8.68533">
        <ele>64.119821</ele>
        <time>2020-08-04T12:15:55.883Z</time>
      </trkpt>
      <trkpt lat="63.35537" lon="8.68539">
        <ele>64.091967</ele>
        <time>2020-08-04T12:15:58.886Z</time>
      </trkpt>
      <trkpt lat="63.35548" lon="8.68545">
        <ele>64.061688</ele>
        <time>2020-08-04T12:16:01.888Z</time>
      </trkpt>
      <trkpt lat="63.35559" lon="8.68552">
        <ele>64.03001</ele>
        <time>2020-08-04T12:16:04.875Z</time>
      </trkpt>
      <trkpt lat="63.35571" lon="8.68557">
        <ele>63.997828</ele>
        <time>2020-08-04T12:16:07.887Z</time>
      </trkpt>
      <trkpt lat="63.35583" lon="8.68561">
        <ele>63.966787</ele>
        <time>2020-08-04T12:16:10.867Z</time>
      </trkpt>
      <trkpt lat="63.35594" lon="8.68568">
        <ele>63.936133</ele>
        <time>2020-08-04T12:16:13.881Z</time>
      </trkpt>
      <trkpt lat="63.35606" lon="8.68575">
        <ele>63.904558</ele>
        <time>2020-08-04T12:16:16.869Z</time>
      </trkpt>
      <trkpt lat="63.35617" lon="8.68584">
        <ele>63.873346</ele>
        <time>2020-08-04T12:16:19.867Z</time>
      </trkpt>
      <trkpt lat="63.35627" lon="8.68592">
        <ele>63.84514</ele>
        <time>2020-08-04T12:16:22.893Z</time>
      </trkpt>
      <trkpt lat="63.35637" lon="8.68598">
        <ele>63.817257</ele>
        <time>2020-08-04T12:16:25.864Z</time>
      </trkpt>
      <trkpt lat="63.35647" lon="8.68605">
        <ele>63.789374</ele>
        <time>2020-08-04T12:16:28.859Z</time>
      </trkpt>
      <trkpt lat="63.3566" lon="8.68608">
        <ele>63.61551</ele>
        <time>2020-08-04T12:16:31.868Z</time>
      </trkpt>
      <trkpt lat="63.35669" lon="8.6861">
        <ele>63.335919</ele>
        <time>2020-08-04T12:16:33.916Z</time>
      </trkpt>
      <trkpt lat="63.35679" lon="8.68611">
        <ele>63.070556</ele>
        <time>2020-08-04T12:16:35.869Z</time>
      </trkpt>
      <trkpt lat="63.35689" lon="8.68614">
        <ele>62.792905</ele>
        <time>2020-08-04T12:16:37.864Z</time>
      </trkpt>
      <trkpt lat="63.35698" lon="8.68624">
        <ele>62.505077</ele>
        <time>2020-08-04T12:16:39.871Z</time>
      </trkpt>
      <trkpt lat="63.35703" lon="8.68647">
        <ele>62.173831</ele>
        <time>2020-08-04T12:16:41.862Z</time>
      </trkpt>
      <trkpt lat="63.35704" lon="8.68676">
        <ele>61.809912</ele>
        <time>2020-08-04T12:16:43.886Z</time>
      </trkpt>
      <trkpt lat="63.35702" lon="8.68704">
        <ele>61.449274</ele>
        <time>2020-08-04T12:16:45.892Z</time>
      </trkpt>
      <trkpt lat="63.35702" lon="8.68735">
        <ele>61.069171</ele>
        <time>2020-08-04T12:16:47.870Z</time>
      </trkpt>
      <trkpt lat="63.35704" lon="8.68769">
        <ele>60.626628</ele>
        <time>2020-08-04T12:16:49.876Z</time>
      </trkpt>
      <trkpt lat="63.35707" lon="8.68808">
        <ele>60.135044</ele>
        <time>2020-08-04T12:16:51.862Z</time>
      </trkpt>
      <trkpt lat="63.35709" lon="8.68828">
        <ele>59.867749</ele>
        <time>2020-08-04T12:16:52.896Z</time>
      </trkpt>
      <trkpt lat="63.35712" lon="8.68849">
        <ele>59.594424</ele>
        <time>2020-08-04T12:16:53.872Z</time>
      </trkpt>
      <trkpt lat="63.35715" lon="8.6887">
        <ele>59.318533</ele>
        <time>2020-08-04T12:16:54.868Z</time>
      </trkpt>
      <trkpt lat="63.35719" lon="8.6889">
        <ele>59.036356</ele>
        <time>2020-08-04T12:16:55.908Z</time>
      </trkpt>
      <trkpt lat="63.35724" lon="8.6891">
        <ele>58.75874</ele>
        <time>2020-08-04T12:16:56.867Z</time>
      </trkpt>
      <trkpt lat="63.35728" lon="8.6893">
        <ele>58.344072</ele>
        <time>2020-08-04T12:16:57.869Z</time>
      </trkpt>
      <trkpt lat="63.35732" lon="8.6895">
        <ele>57.896916</ele>
        <time>2020-08-04T12:16:58.888Z</time>
      </trkpt>
      <trkpt lat="63.35737" lon="8.68969">
        <ele>57.458041</ele>
        <time>2020-08-04T12:16:59.881Z</time>
      </trkpt>
      <trkpt lat="63.35742" lon="8.68987">
        <ele>57.033865</ele>
        <time>2020-08-04T12:17:00.866Z</time>
      </trkpt>
      <trkpt lat="63.35747" lon="8.69004">
        <ele>56.617185</ele>
        <time>2020-08-04T12:17:01.881Z</time>
      </trkpt>
      <trkpt lat="63.35756" lon="8.69038">
        <ele>55.828136</ele>
        <time>2020-08-04T12:17:03.880Z</time>
      </trkpt>
      <trkpt lat="63.35764" lon="8.69073">
        <ele>55.02988</ele>
        <time>2020-08-04T12:17:05.865Z</time>
      </trkpt>
      <trkpt lat="63.35772" lon="8.69109">
        <ele>54.229923</ele>
        <time>2020-08-04T12:17:07.864Z</time>
      </trkpt>
      <trkpt lat="63.35779" lon="8.69146">
        <ele>53.420703</ele>
        <time>2020-08-04T12:17:09.876Z</time>
      </trkpt>
      <trkpt lat="63.35781" lon="8.69166">
        <ele>53.013704</ele>
        <time>2020-08-04T12:17:10.884Z</time>
      </trkpt>
      <trkpt lat="63.35783" lon="8.69185">
        <ele>52.608717</ele>
        <time>2020-08-04T12:17:11.882Z</time>
      </trkpt>
      <trkpt lat="63.35784" lon="8.69205">
        <ele>52.202232</ele>
        <time>2020-08-04T12:17:12.874Z</time>
      </trkpt>
      <trkpt lat="63.35785" lon="8.69225">
        <ele>51.79714</ele>
        <time>2020-08-04T12:17:13.884Z</time>
      </trkpt>
      <trkpt lat="63.35786" lon="8.69245">
        <ele>51.39377</ele>
        <time>2020-08-04T12:17:14.897Z</time>
      </trkpt>
      <trkpt lat="63.35788" lon="8.69282">
        <ele>50.642076</ele>
        <time>2020-08-04T12:17:16.869Z</time>
      </trkpt>
      <trkpt lat="63.3579" lon="8.69315">
        <ele>50.800498</ele>
        <time>2020-08-04T12:17:18.919Z</time>
      </trkpt>
      <trkpt lat="63.35792" lon="8.69348">
        <ele>50.971966</ele>
        <time>2020-08-04T12:17:20.862Z</time>
      </trkpt>
      <trkpt lat="63.35794" lon="8.69379">
        <ele>51.136293</ele>
        <time>2020-08-04T12:17:22.899Z</time>
      </trkpt>
      <trkpt lat="63.35797" lon="8.69406">
        <ele>51.28847</ele>
        <time>2020-08-04T12:17:24.874Z</time>
      </trkpt>
      <trkpt lat="63.35801" lon="8.69429">
        <ele>51.415315</ele>
        <time>2020-08-04T12:17:26.880Z</time>
      </trkpt>
      <trkpt lat="63.35804" lon="8.6945">
        <ele>51.534564</ele>
        <time>2020-08-04T12:17:28.881Z</time>
      </trkpt>
      <trkpt lat="63.35808" lon="8.6947">
        <ele>51.646948</ele>
        <time>2020-08-04T12:17:30.859Z</time>
      </trkpt>
      <trkpt lat="63.35814" lon="8.69494">
        <ele>51.789985</ele>
        <time>2020-08-04T12:17:33.888Z</time>
      </trkpt>
      <trkpt lat="63.35821" lon="8.69512">
        <ele>51.914006</ele>
        <time>2020-08-04T12:17:36.867Z</time>
      </trkpt>
      <trkpt lat="63.35826" lon="8.69531">
        <ele>52.035649</ele>
        <time>2020-08-04T12:17:39.886Z</time>
      </trkpt>
      <trkpt lat="63.35833" lon="8.69549">
        <ele>52.157134</ele>
        <time>2020-08-04T12:17:42.891Z</time>
      </trkpt>
      <trkpt lat="63.3584" lon="8.69567">
        <ele>52.28488</ele>
        <time>2020-08-04T12:17:46.865Z</time>
      </trkpt>
      <trkpt lat="63.35847" lon="8.69579">
        <ele>52.389894</ele>
        <time>2020-08-04T12:17:50.861Z</time>
      </trkpt>
      <trkpt lat="63.35853" lon="8.69597">
        <ele>52.501944</ele>
        <time>2020-08-04T12:17:55.887Z</time>
      </trkpt>
      <trkpt lat="63.3586" lon="8.6961">
        <ele>52.610573</ele>
        <time>2020-08-04T12:18:01.885Z</time>
      </trkpt>
      <trkpt lat="63.35866" lon="8.69626">
        <ele>52.725</ele>
        <time>2020-08-04T12:18:07.875Z</time>
      </trkpt>
      <trkpt lat="63.35872" lon="8.69642">
        <ele>53.205775</ele>
        <time>2020-08-04T12:18:13.870Z</time>
      </trkpt>
      <trkpt lat="63.3588" lon="8.69655">
        <ele>53.77315</ele>
        <time>2020-08-04T12:18:19.875Z</time>
      </trkpt>
      <trkpt lat="63.35887" lon="8.69672">
        <ele>54.389303</ele>
        <time>2020-08-04T12:18:26.864Z</time>
      </trkpt>
      <trkpt lat="63.35894" lon="8.69689">
        <ele>55.017838</ele>
        <time>2020-08-04T12:18:33.860Z</time>
      </trkpt>
      <trkpt lat="63.35901" lon="8.69705">
        <ele>55.622832</ele>
        <time>2020-08-04T12:18:40.892Z</time>
      </trkpt>
      <trkpt lat="63.35908" lon="8.6972">
        <ele>56.187909</ele>
        <time>2020-08-04T12:18:47.896Z</time>
      </trkpt>
      <trkpt lat="63.35916" lon="8.69734">
        <ele>56.779239</ele>
        <time>2020-08-04T12:18:54.866Z</time>
      </trkpt>
      <trkpt lat="63.35922" lon="8.6975">
        <ele>57.351488</ele>
        <time>2020-08-04T12:19:00.883Z</time>
      </trkpt>
      <trkpt lat="63.3593" lon="8.69766">
        <ele>57.978555</ele>
        <time>2020-08-04T12:19:06.885Z</time>
      </trkpt>
      <trkpt lat="63.35936" lon="8.69782">
        <ele>58.553505</ele>
        <time>2020-08-04T12:19:12.870Z</time>
      </trkpt>
      <trkpt lat="63.35943" lon="8.69798">
        <ele>59.129731</ele>
        <time>2020-08-04T12:19:18.873Z</time>
      </trkpt>
      <trkpt lat="63.3595" lon="8.69812">
        <ele>59.677441</ele>
        <time>2020-08-04T12:19:24.861Z</time>
      </trkpt>
      <trkpt lat="63.35956" lon="8.69826">
        <ele>60.2123</ele>
        <time>2020-08-04T12:19:29.903Z</time>
      </trkpt>
      <trkpt lat="63.35962" lon="8.69843">
        <ele>60.790951</ele>
        <time>2020-08-04T12:19:34.868Z</time>
      </trkpt>
      <trkpt lat="63.35969" lon="8.69857">
        <ele>61.348034</ele>
        <time>2020-08-04T12:19:39.863Z</time>
      </trkpt>
      <trkpt lat="63.35976" lon="8.69872">
        <ele>61.949817</ele>
        <time>2020-08-04T12:19:44.899Z</time>
      </trkpt>
      <trkpt lat="63.35983" lon="8.69889">
        <ele>62.550027</ele>
        <time>2020-08-04T12:19:48.888Z</time>
      </trkpt>
      <trkpt lat="63.35991" lon="8.69907">
        <ele>63.209692</ele>
        <time>2020-08-04T12:19:52.866Z</time>
      </trkpt>
      <trkpt lat="63.35997" lon="8.69923">
        <ele>63.167583</ele>
        <time>2020-08-04T12:19:55.872Z</time>
      </trkpt>
      <trkpt lat="63.36005" lon="8.69941">
        <ele>62.627212</ele>
        <time>2020-08-04T12:19:58.867Z</time>
      </trkpt>
      <trkpt lat="63.36014" lon="8.69961">
        <ele>61.989673</ele>
        <time>2020-08-04T12:20:01.898Z</time>
      </trkpt>
      <trkpt lat="63.36021" lon="8.69977">
        <ele>61.486286</ele>
        <time>2020-08-04T12:20:03.881Z</time>
      </trkpt>
      <trkpt lat="63.36029" lon="8.69994">
        <ele>60.946915</ele>
        <time>2020-08-04T12:20:05.907Z</time>
      </trkpt>
      <trkpt lat="63.36038" lon="8.70013">
        <ele>60.347898</ele>
        <time>2020-08-04T12:20:07.881Z</time>
      </trkpt>
      <trkpt lat="63.36048" lon="8.70035">
        <ele>59.658742</ele>
        <time>2020-08-04T12:20:09.884Z</time>
      </trkpt>
      <trkpt lat="63.36059" lon="8.7006">
        <ele>58.88024</ele>
        <time>2020-08-04T12:20:11.885Z</time>
      </trkpt>
      <trkpt lat="63.36072" lon="8.70088">
        <ele>58.021612</ele>
        <time>2020-08-04T12:20:13.876Z</time>
      </trkpt>
      <trkpt lat="63.36078" lon="8.70102">
        <ele>57.565822</ele>
        <time>2020-08-04T12:20:14.903Z</time>
      </trkpt>
      <trkpt lat="63.36085" lon="8.70117">
        <ele>57.099957</ele>
        <time>2020-08-04T12:20:15.880Z</time>
      </trkpt>
      <trkpt lat="63.36092" lon="8.70133">
        <ele>56.619777</ele>
        <time>2020-08-04T12:20:16.909Z</time>
      </trkpt>
      <trkpt lat="63.36099" lon="8.70149">
        <ele>56.122974</ele>
        <time>2020-08-04T12:20:17.874Z</time>
      </trkpt>
      <trkpt lat="63.36107" lon="8.70165">
        <ele>55.610543</ele>
        <time>2020-08-04T12:20:18.889Z</time>
      </trkpt>
      <trkpt lat="63.36115" lon="8.7018">
        <ele>55.086603</ele>
        <time>2020-08-04T12:20:19.914Z</time>
      </trkpt>
      <trkpt lat="63.36122" lon="8.70197">
        <ele>54.569806</ele>
        <time>2020-08-04T12:20:20.870Z</time>
      </trkpt>
      <trkpt lat="63.36129" lon="8.70215">
        <ele>54.113132</ele>
        <time>2020-08-04T12:20:21.912Z</time>
      </trkpt>
      <trkpt lat="63.36136" lon="8.70233">
        <ele>53.654414</ele>
        <time>2020-08-04T12:20:22.885Z</time>
      </trkpt>
      <trkpt lat="63.36143" lon="8.70253">
        <ele>53.18881</ele>
        <time>2020-08-04T12:20:23.907Z</time>
      </trkpt>
      <trkpt lat="63.36149" lon="8.70273">
        <ele>52.70778</ele>
        <time>2020-08-04T12:20:24.859Z</time>
      </trkpt>
      <trkpt lat="63.36154" lon="8.70295">
        <ele>52.241267</ele>
        <time>2020-08-04T12:20:25.881Z</time>
      </trkpt>
      <trkpt lat="63.36158" lon="8.70315">
        <ele>51.803006</ele>
        <time>2020-08-04T12:20:26.868Z</time>
      </trkpt>
      <trkpt lat="63.36161" lon="8.70335">
        <ele>51.406092</ele>
        <time>2020-08-04T12:20:27.866Z</time>
      </trkpt>
      <trkpt lat="63.36166" lon="8.7037">
        <ele>50.701354</ele>
        <time>2020-08-04T12:20:29.865Z</time>
      </trkpt>
      <trkpt lat="63.3617" lon="8.70397">
        <ele>50.13949</ele>
        <time>2020-08-04T12:20:31.920Z</time>
      </trkpt>
      <trkpt lat="63.36176" lon="8.70419">
        <ele>49.645549</ele>
        <time>2020-08-04T12:20:33.880Z</time>
      </trkpt>
      <trkpt lat="63.36186" lon="8.70429">
        <ele>49.157348</ele>
        <time>2020-08-04T12:20:35.911Z</time>
      </trkpt>
      <trkpt lat="63.36198" lon="8.70426">
        <ele>48.667778</ele>
        <time>2020-08-04T12:20:37.899Z</time>
      </trkpt>
      <trkpt lat="63.36208" lon="8.70423">
        <ele>48.195966</ele>
        <time>2020-08-04T12:20:39.872Z</time>
      </trkpt>
      <trkpt lat="63.36219" lon="8.7042">
        <ele>47.731261</ele>
        <time>2020-08-04T12:20:41.869Z</time>
      </trkpt>
      <trkpt lat="63.36229" lon="8.70413">
        <ele>47.282072</ele>
        <time>2020-08-04T12:20:43.920Z</time>
      </trkpt>
      <trkpt lat="63.36238" lon="8.70405">
        <ele>46.907252</ele>
        <time>2020-08-04T12:20:45.875Z</time>
      </trkpt>
      <trkpt lat="63.36248" lon="8.70397">
        <ele>47.185507</ele>
        <time>2020-08-04T12:20:47.883Z</time>
      </trkpt>
      <trkpt lat="63.36256" lon="8.70388">
        <ele>47.44894</ele>
        <time>2020-08-04T12:20:49.882Z</time>
      </trkpt>
      <trkpt lat="63.36264" lon="8.70378">
        <ele>47.703555</ele>
        <time>2020-08-04T12:20:51.902Z</time>
      </trkpt>
      <trkpt lat="63.36274" lon="8.70362">
        <ele>48.055801</ele>
        <time>2020-08-04T12:20:54.898Z</time>
      </trkpt>
      <trkpt lat="63.36283" lon="8.70346">
        <ele>48.368459</ele>
        <time>2020-08-04T12:20:57.894Z</time>
      </trkpt>
      <trkpt lat="63.36292" lon="8.70327">
        <ele>48.708377</ele>
        <time>2020-08-04T12:21:00.866Z</time>
      </trkpt>
      <trkpt lat="63.36299" lon="8.70312">
        <ele>48.974487</ele>
        <time>2020-08-04T12:21:02.912Z</time>
      </trkpt>
      <trkpt lat="63.36306" lon="8.70297">
        <ele>49.254925</ele>
        <time>2020-08-04T12:21:04.903Z</time>
      </trkpt>
      <trkpt lat="63.36313" lon="8.70281">
        <ele>49.529185</ele>
        <time>2020-08-04T12:21:06.868Z</time>
      </trkpt>
      <trkpt lat="63.3632" lon="8.70266">
        <ele>49.797556</ele>
        <time>2020-08-04T12:21:08.923Z</time>
      </trkpt>
      <trkpt lat="63.36327" lon="8.70252">
        <ele>50.054231</ele>
        <time>2020-08-04T12:21:10.887Z</time>
      </trkpt>
      <trkpt lat="63.36336" lon="8.70232">
        <ele>50.405093</ele>
        <time>2020-08-04T12:21:13.864Z</time>
      </trkpt>
      <trkpt lat="63.36344" lon="8.70215">
        <ele>50.712854</ele>
        <time>2020-08-04T12:21:16.866Z</time>
      </trkpt>
      <trkpt lat="63.36351" lon="8.70199">
        <ele>51.002235</ele>
        <time>2020-08-04T12:21:19.899Z</time>
      </trkpt>
      <trkpt lat="63.36358" lon="8.70182">
        <ele>51.297614</ele>
        <time>2020-08-04T12:21:22.908Z</time>
      </trkpt>
      <trkpt lat="63.36365" lon="8.70166">
        <ele>51.565481</ele>
        <time>2020-08-04T12:21:25.867Z</time>
      </trkpt>
      <trkpt lat="63.36371" lon="8.70152">
        <ele>51.816341</ele>
        <time>2020-08-04T12:21:28.883Z</time>
      </trkpt>
      <trkpt lat="63.36378" lon="8.70137">
        <ele>51.96233</ele>
        <time>2020-08-04T12:21:32.880Z</time>
      </trkpt>
      <trkpt lat="63.36386" lon="8.70124">
        <ele>52.058742</ele>
        <time>2020-08-04T12:21:36.878Z</time>
      </trkpt>
      <trkpt lat="63.36392" lon="8.70109">
        <ele>52.153608</ele>
        <time>2020-08-04T12:21:40.886Z</time>
      </trkpt>
      <trkpt lat="63.36401" lon="8.70093">
        <ele>52.268711</ele>
        <time>2020-08-04T12:21:44.873Z</time>
      </trkpt>
      <trkpt lat="63.36408" lon="8.70081">
        <ele>52.364663</ele>
        <time>2020-08-04T12:21:47.864Z</time>
      </trkpt>
      <trkpt lat="63.36418" lon="8.70071">
        <ele>52.470888</ele>
        <time>2020-08-04T12:21:50.872Z</time>
      </trkpt>
      <trkpt lat="63.36429" lon="8.70065">
        <ele>52.585725</ele>
        <time>2020-08-04T12:21:53.860Z</time>
      </trkpt>
      <trkpt lat="63.3644" lon="8.70062">
        <ele>52.704151</ele>
        <time>2020-08-04T12:21:56.868Z</time>
      </trkpt>
      <trkpt lat="63.36453" lon="8.70062">
        <ele>52.833929</ele>
        <time>2020-08-04T12:21:59.927Z</time>
      </trkpt>
      <trkpt lat="63.36462" lon="8.70065">
        <ele>52.929377</ele>
        <time>2020-08-04T12:22:01.880Z</time>
      </trkpt>
      <trkpt lat="63.36471" lon="8.70072">
        <ele>53.025965</ele>
        <time>2020-08-04T12:22:03.882Z</time>
      </trkpt>
      <trkpt lat="63.3648" lon="8.70083">
        <ele>53.127486</ele>
        <time>2020-08-04T12:22:05.881Z</time>
      </trkpt>
      <trkpt lat="63.36489" lon="8.70096">
        <ele>53.241858</ele>
        <time>2020-08-04T12:22:07.859Z</time>
      </trkpt>
      <trkpt lat="63.36499" lon="8.70109">
        <ele>53.360789</ele>
        <time>2020-08-04T12:22:09.880Z</time>
      </trkpt>
      <trkpt lat="63.36511" lon="8.7012">
        <ele>53.484584</ele>
        <time>2020-08-04T12:22:11.919Z</time>
      </trkpt>
      <trkpt lat="63.36523" lon="8.70124">
        <ele>53.613113</ele>
        <time>2020-08-04T12:22:13.865Z</time>
      </trkpt>
      <trkpt lat="63.36536" lon="8.7012">
        <ele>53.675441</ele>
        <time>2020-08-04T12:22:15.885Z</time>
      </trkpt>
      <trkpt lat="63.36549" lon="8.7011">
        <ele>53.257283</ele>
        <time>2020-08-04T12:22:17.891Z</time>
      </trkpt>
      <trkpt lat="63.36561" lon="8.70095">
        <ele>52.844287</ele>
        <time>2020-08-04T12:22:19.886Z</time>
      </trkpt>
      <trkpt lat="63.3657" lon="8.70074">
        <ele>52.444169</ele>
        <time>2020-08-04T12:22:21.876Z</time>
      </trkpt>
      <trkpt lat="63.36577" lon="8.70048">
        <ele>52.037713</ele>
        <time>2020-08-04T12:22:23.885Z</time>
      </trkpt>
      <trkpt lat="63.36582" lon="8.70022">
        <ele>51.648178</ele>
        <time>2020-08-04T12:22:25.882Z</time>
      </trkpt>
      <trkpt lat="63.36589" lon="8.69998">
        <ele>51.256062</ele>
        <time>2020-08-04T12:22:27.900Z</time>
      </trkpt>
      <trkpt lat="63.36595" lon="8.69975">
        <ele>50.89487</ele>
        <time>2020-08-04T12:22:29.872Z</time>
      </trkpt>
      <trkpt lat="63.36601" lon="8.69953">
        <ele>50.54342</ele>
        <time>2020-08-04T12:22:31.905Z</time>
      </trkpt>
      <trkpt lat="63.36608" lon="8.69931">
        <ele>50.18017</ele>
        <time>2020-08-04T12:22:33.873Z</time>
      </trkpt>
      <trkpt lat="63.36614" lon="8.69908">
        <ele>49.822003</ele>
        <time>2020-08-04T12:22:35.876Z</time>
      </trkpt>
      <trkpt lat="63.3662" lon="8.69887">
        <ele>49.481847</ele>
        <time>2020-08-04T12:22:37.873Z</time>
      </trkpt>
      <trkpt lat="63.36625" lon="8.69867">
        <ele>49.161241</ele>
        <time>2020-08-04T12:22:39.899Z</time>
      </trkpt>
      <trkpt lat="63.3663" lon="8.69849">
        <ele>48.86986</ele>
        <time>2020-08-04T12:22:41.870Z</time>
      </trkpt>
      <trkpt lat="63.36636" lon="8.69824">
        <ele>48.485669</ele>
        <time>2020-08-04T12:22:44.863Z</time>
      </trkpt>
      <trkpt lat="63.36644" lon="8.69803">
        <ele>48.451408</ele>
        <time>2020-08-04T12:22:47.876Z</time>
      </trkpt>
      <trkpt lat="63.36652" lon="8.69782">
        <ele>48.895778</ele>
        <time>2020-08-04T12:22:50.860Z</time>
      </trkpt>
      <trkpt lat="63.36661" lon="8.69765">
        <ele>49.346402</ele>
        <time>2020-08-04T12:22:53.871Z</time>
      </trkpt>
      <trkpt lat="63.3667" lon="8.69748">
        <ele>49.813652</ele>
        <time>2020-08-04T12:22:56.889Z</time>
      </trkpt>
      <trkpt lat="63.36678" lon="8.69735">
        <ele>50.161451</ele>
        <time>2020-08-04T12:22:58.901Z</time>
      </trkpt>
      <trkpt lat="63.36686" lon="8.69722">
        <ele>50.541562</ele>
        <time>2020-08-04T12:23:00.866Z</time>
      </trkpt>
      <trkpt lat="63.36695" lon="8.69708">
        <ele>50.961503</ele>
        <time>2020-08-04T12:23:02.907Z</time>
      </trkpt>
      <trkpt lat="63.36704" lon="8.69695">
        <ele>51.358197</ele>
        <time>2020-08-04T12:23:04.870Z</time>
      </trkpt>
      <trkpt lat="63.36711" lon="8.69683">
        <ele>51.706032</ele>
        <time>2020-08-04T12:23:06.883Z</time>
      </trkpt>
      <trkpt lat="63.36721" lon="8.69667">
        <ele>52.160961</ele>
        <time>2020-08-04T12:23:09.870Z</time>
      </trkpt>
      <trkpt lat="63.36728" lon="8.69652">
        <ele>52.527008</ele>
        <time>2020-08-04T12:23:12.883Z</time>
      </trkpt>
      <trkpt lat="63.36735" lon="8.69638">
        <ele>52.884873</ele>
        <time>2020-08-04T12:23:15.888Z</time>
      </trkpt>
      <trkpt lat="63.36742" lon="8.69619">
        <ele>53.298915</ele>
        <time>2020-08-04T12:23:18.867Z</time>
      </trkpt>
      <trkpt lat="63.36748" lon="8.69598">
        <ele>53.727722</ele>
        <time>2020-08-04T12:23:21.895Z</time>
      </trkpt>
      <trkpt lat="63.36752" lon="8.69577">
        <ele>54.121943</ele>
        <time>2020-08-04T12:23:24.908Z</time>
      </trkpt>
      <trkpt lat="63.36753" lon="8.69555">
        <ele>54.494517</ele>
        <time>2020-08-04T12:23:27.911Z</time>
      </trkpt>
      <trkpt lat="63.36754" lon="8.69533">
        <ele>54.864323</ele>
        <time>2020-08-04T12:23:31.895Z</time>
      </trkpt>
      <trkpt lat="63.36751" lon="8.69499">
        <ele>55.950493</ele>
        <time>2020-08-04T12:24:32.910Z</time>
      </trkpt>
      <trkpt lat="63.3675" lon="8.69477">
        <ele>56.834608</ele>
        <time>2020-08-04T12:24:38.866Z</time>
      </trkpt>
      <trkpt lat="63.36752" lon="8.69458">
        <ele>57.642043</ele>
        <time>2020-08-04T12:24:44.877Z</time>
      </trkpt>
      <trkpt lat="63.36756" lon="8.69437">
        <ele>58.516609</ele>
        <time>2020-08-04T12:24:51.864Z</time>
      </trkpt>
      <trkpt lat="63.36762" lon="8.6942">
        <ele>59.367767</ele>
        <time>2020-08-04T12:24:58.871Z</time>
      </trkpt>
      <trkpt lat="63.3677" lon="8.69405">
        <ele>60.259374</ele>
        <time>2020-08-04T12:25:05.898Z</time>
      </trkpt>
      <trkpt lat="63.36779" lon="8.69394">
        <ele>61.175819</ele>
        <time>2020-08-04T12:25:11.888Z</time>
      </trkpt>
      <trkpt lat="63.36788" lon="8.69388">
        <ele>61.975794</ele>
        <time>2020-08-04T12:25:16.917Z</time>
      </trkpt>
      <trkpt lat="63.36798" lon="8.69384">
        <ele>62.869585</ele>
        <time>2020-08-04T12:25:22.885Z</time>
      </trkpt>
      <trkpt lat="63.36807" lon="8.69381">
        <ele>63.701372</ele>
        <time>2020-08-04T12:25:28.881Z</time>
      </trkpt>
      <trkpt lat="63.36816" lon="8.69378">
        <ele>64.509533</ele>
        <time>2020-08-04T12:25:35.868Z</time>
      </trkpt>
      <trkpt lat="63.36825" lon="8.69373">
        <ele>65.32096</ele>
        <time>2020-08-04T12:25:42.865Z</time>
      </trkpt>
      <trkpt lat="63.36834" lon="8.69371">
        <ele>66.152894</ele>
        <time>2020-08-04T12:25:50.884Z</time>
      </trkpt>
      <trkpt lat="63.36844" lon="8.6937">
        <ele>67.007172</ele>
        <time>2020-08-04T12:25:58.871Z</time>
      </trkpt>
      <trkpt lat="63.36854" lon="8.6937">
        <ele>67.834184</ele>
        <time>2020-08-04T12:26:04.906Z</time>
      </trkpt>
      <trkpt lat="63.36863" lon="8.69373">
        <ele>68.681276</ele>
        <time>2020-08-04T12:26:10.881Z</time>
      </trkpt>
      <trkpt lat="63.36872" lon="8.69374">
        <ele>69.508852</ele>
        <time>2020-08-04T12:26:16.888Z</time>
      </trkpt>
      <trkpt lat="63.36882" lon="8.69375">
        <ele>70.353754</ele>
        <time>2020-08-04T12:26:23.857Z</time>
      </trkpt>
      <trkpt lat="63.36891" lon="8.69374">
        <ele>71.174618</ele>
        <time>2020-08-04T12:26:29.880Z</time>
      </trkpt>
      <trkpt lat="63.36901" lon="8.69377">
        <ele>72.051703</ele>
        <time>2020-08-04T12:26:35.881Z</time>
      </trkpt>
      <trkpt lat="63.36911" lon="8.69379">
        <ele>72.952073</ele>
        <time>2020-08-04T12:26:42.892Z</time>
      </trkpt>
      <trkpt lat="63.3692" lon="8.69375">
        <ele>73.854212</ele>
        <time>2020-08-04T12:26:49.888Z</time>
      </trkpt>
      <trkpt lat="63.36929" lon="8.69372">
        <ele>74.688373</ele>
        <time>2020-08-04T12:26:55.860Z</time>
      </trkpt>
      <trkpt lat="63.36938" lon="8.69368">
        <ele>75.530817</ele>
        <time>2020-08-04T12:27:02.864Z</time>
      </trkpt>
      <trkpt lat="63.36947" lon="8.69358">
        <ele>76.46219</ele>
        <time>2020-08-04T12:27:08.859Z</time>
      </trkpt>
      <trkpt lat="63.36956" lon="8.69348">
        <ele>77.322337</ele>
        <time>2020-08-04T12:27:14.866Z</time>
      </trkpt>
      <trkpt lat="63.36964" lon="8.69337">
        <ele>78.168183</ele>
        <time>2020-08-04T12:27:21.876Z</time>
      </trkpt>
      <trkpt lat="63.36972" lon="8.69324">
        <ele>79.079091</ele>
        <time>2020-08-04T12:27:29.866Z</time>
      </trkpt>
      <trkpt lat="63.36979" lon="8.69312">
        <ele>79.935967</ele>
        <time>2020-08-04T12:27:36.882Z</time>
      </trkpt>
      <trkpt lat="63.36987" lon="8.69299">
        <ele>80.800193</ele>
        <time>2020-08-04T12:27:43.860Z</time>
      </trkpt>
      <trkpt lat="63.36996" lon="8.69291">
        <ele>81.716731</ele>
        <time>2020-08-04T12:27:50.895Z</time>
      </trkpt>
      <trkpt lat="63.37006" lon="8.69289">
        <ele>82.610471</ele>
        <time>2020-08-04T12:27:57.872Z</time>
      </trkpt>
      <trkpt lat="63.37016" lon="8.69284">
        <ele>83.527097</ele>
        <time>2020-08-04T12:28:04.878Z</time>
      </trkpt>
      <trkpt lat="63.37025" lon="8.69281">
        <ele>84.400058</ele>
        <time>2020-08-04T12:28:10.872Z</time>
      </trkpt>
      <trkpt lat="63.37035" lon="8.69282">
        <ele>85.326289</ele>
        <time>2020-08-04T12:28:17.898Z</time>
      </trkpt>
      <trkpt lat="63.37044" lon="8.69288">
        <ele>86.186044</ele>
        <time>2020-08-04T12:28:23.887Z</time>
      </trkpt>
      <trkpt lat="63.37053" lon="8.69294">
        <ele>87.064515</ele>
        <time>2020-08-04T12:28:30.880Z</time>
      </trkpt>
      <trkpt lat="63.37062" lon="8.69302">
        <ele>87.776063</ele>
        <time>2020-08-04T12:28:37.875Z</time>
      </trkpt>
      <trkpt lat="63.37071" lon="8.69312">
        <ele>88.418927</ele>
        <time>2020-08-04T12:28:44.888Z</time>
      </trkpt>
      <trkpt lat="63.3708" lon="8.69321">
        <ele>89.081485</ele>
        <time>2020-08-04T12:28:51.902Z</time>
      </trkpt>
      <trkpt lat="63.37089" lon="8.69329">
        <ele>89.706209</ele>
        <time>2020-08-04T12:28:58.867Z</time>
      </trkpt>
      <trkpt lat="63.37097" lon="8.69342">
        <ele>90.359125</ele>
        <time>2020-08-04T12:29:05.881Z</time>
      </trkpt>
      <trkpt lat="63.37105" lon="8.69351">
        <ele>90.97423</ele>
        <time>2020-08-04T12:29:11.880Z</time>
      </trkpt>
      <trkpt lat="63.37114" lon="8.6936">
        <ele>91.634091</ele>
        <time>2020-08-04T12:29:18.883Z</time>
      </trkpt>
      <trkpt lat="63.37123" lon="8.69371">
        <ele>92.269543</ele>
        <time>2020-08-04T12:29:25.924Z</time>
      </trkpt>
      <trkpt lat="63.3713" lon="8.69385">
        <ele>92.922965</ele>
        <time>2020-08-04T12:29:32.881Z</time>
      </trkpt>
      <trkpt lat="63.37137" lon="8.69397">
        <ele>93.524509</ele>
        <time>2020-08-04T12:29:39.913Z</time>
      </trkpt>
      <trkpt lat="63.37144" lon="8.69411">
        <ele>94.137735</ele>
        <time>2020-08-04T12:29:47.884Z</time>
      </trkpt>
      <trkpt lat="63.37152" lon="8.69425">
        <ele>94.789194</ele>
        <time>2020-08-04T12:29:55.874Z</time>
      </trkpt>
      <trkpt lat="63.37159" lon="8.69439">
        <ele>95.409048</ele>
        <time>2020-08-04T12:30:03.878Z</time>
      </trkpt>
      <trkpt lat="63.37166" lon="8.69454">
        <ele>96.044225</ele>
        <time>2020-08-04T12:30:11.902Z</time>
      </trkpt>
      <trkpt lat="63.37172" lon="8.69468">
        <ele>96.640815</ele>
        <time>2020-08-04T12:30:18.872Z</time>
      </trkpt>
      <trkpt lat="63.37179" lon="8.69482">
        <ele>97.252854</ele>
        <time>2020-08-04T12:30:25.863Z</time>
      </trkpt>
      <trkpt lat="63.37187" lon="8.69498">
        <ele>97.950686</ele>
        <time>2020-08-04T12:30:32.887Z</time>
      </trkpt>
      <trkpt lat="63.37195" lon="8.69512">
        <ele>98.620355</ele>
        <time>2020-08-04T12:30:38.871Z</time>
      </trkpt>
      <trkpt lat="63.37202" lon="8.69525">
        <ele>99.236096</ele>
        <time>2020-08-04T12:30:43.883Z</time>
      </trkpt>
      <trkpt lat="63.37209" lon="8.69538">
        <ele>99.890518</ele>
        <time>2020-08-04T12:30:48.879Z</time>
      </trkpt>
      <trkpt lat="63.37216" lon="8.69553">
        <ele>100.637652</ele>
        <time>2020-08-04T12:30:54.920Z</time>
      </trkpt>
      <trkpt lat="63.37225" lon="8.69568">
        <ele>101.418601</ele>
        <time>2020-08-04T12:31:00.906Z</time>
      </trkpt>
      <trkpt lat="63.37233" lon="8.69583">
        <ele>102.175635</ele>
        <time>2020-08-04T12:31:06.879Z</time>
      </trkpt>
      <trkpt lat="63.37241" lon="8.69598">
        <ele>102.938209</ele>
        <time>2020-08-04T12:31:12.887Z</time>
      </trkpt>
      <trkpt lat="63.37247" lon="8.69613">
        <ele>103.61228</ele>
        <time>2020-08-04T12:31:18.863Z</time>
      </trkpt>
      <trkpt lat="63.37254" lon="8.69629">
        <ele>104.342043</ele>
        <time>2020-08-04T12:31:25.884Z</time>
      </trkpt>
      <trkpt lat="63.37261" lon="8.69643">
        <ele>105.009284</ele>
        <time>2020-08-04T12:31:32.890Z</time>
      </trkpt>
      <trkpt lat="63.37268" lon="8.69658">
        <ele>105.72839</ele>
        <time>2020-08-04T12:31:40.886Z</time>
      </trkpt>
      <trkpt lat="63.37276" lon="8.6967">
        <ele>106.421375</ele>
        <time>2020-08-04T12:31:48.863Z</time>
      </trkpt>
      <trkpt lat="63.37282" lon="8.69687">
        <ele>107.111489</ele>
        <time>2020-08-04T12:31:56.910Z</time>
      </trkpt>
      <trkpt lat="63.37289" lon="8.69701">
        <ele>107.823927</ele>
        <time>2020-08-04T12:32:05.880Z</time>
      </trkpt>
      <trkpt lat="63.37296" lon="8.69716">
        <ele>108.495708</ele>
        <time>2020-08-04T12:32:12.886Z</time>
      </trkpt>
      <trkpt lat="63.37303" lon="8.69732">
        <ele>109.234736</ele>
        <time>2020-08-04T12:32:21.877Z</time>
      </trkpt>
      <trkpt lat="63.37309" lon="8.69746">
        <ele>109.903633</ele>
        <time>2020-08-04T12:32:28.877Z</time>
      </trkpt>
      <trkpt lat="63.37316" lon="8.69762">
        <ele>110.604113</ele>
        <time>2020-08-04T12:32:35.883Z</time>
      </trkpt>
      <trkpt lat="63.37324" lon="8.69775">
        <ele>111.332256</ele>
        <time>2020-08-04T12:32:42.868Z</time>
      </trkpt>
      <trkpt lat="63.37331" lon="8.69791">
        <ele>112.056874</ele>
        <time>2020-08-04T12:32:50.889Z</time>
      </trkpt>
      <trkpt lat="63.37339" lon="8.69807">
        <ele>112.669212</ele>
        <time>2020-08-04T12:32:57.867Z</time>
      </trkpt>
      <trkpt lat="63.37347" lon="8.69821">
        <ele>113.180741</ele>
        <time>2020-08-04T12:33:04.904Z</time>
      </trkpt>
      <trkpt lat="63.37355" lon="8.69834">
        <ele>113.681377</ele>
        <time>2020-08-04T12:33:10.881Z</time>
      </trkpt>
      <trkpt lat="63.37363" lon="8.69846">
        <ele>114.197379</ele>
        <time>2020-08-04T12:33:16.877Z</time>
      </trkpt>
      <trkpt lat="63.37372" lon="8.69856">
        <ele>114.706637</ele>
        <time>2020-08-04T12:33:22.890Z</time>
      </trkpt>
      <trkpt lat="63.37381" lon="8.69865">
        <ele>115.192409</ele>
        <time>2020-08-04T12:33:27.880Z</time>
      </trkpt>
      <trkpt lat="63.37391" lon="8.69868">
        <ele>115.668216</ele>
        <time>2020-08-04T12:33:31.869Z</time>
      </trkpt>
      <trkpt lat="63.374" lon="8.69872">
        <ele>116.12375</ele>
        <time>2020-08-04T12:33:35.875Z</time>
      </trkpt>
      <trkpt lat="63.37409" lon="8.69873">
        <ele>116.57906</ele>
        <time>2020-08-04T12:33:39.879Z</time>
      </trkpt>
      <trkpt lat="63.37418" lon="8.69877">
        <ele>117.066375</ele>
        <time>2020-08-04T12:33:43.881Z</time>
      </trkpt>
      <trkpt lat="63.37427" lon="8.69879">
        <ele>117.538428</ele>
        <time>2020-08-04T12:33:47.886Z</time>
      </trkpt>
      <trkpt lat="63.37437" lon="8.69879">
        <ele>118.00763</ele>
        <time>2020-08-04T12:33:51.893Z</time>
      </trkpt>
      <trkpt lat="63.37446" lon="8.69877">
        <ele>118.478985</ele>
        <time>2020-08-04T12:33:55.881Z</time>
      </trkpt>
      <trkpt lat="63.37457" lon="8.69874">
        <ele>119.028622</ele>
        <time>2020-08-04T12:34:00.874Z</time>
      </trkpt>
      <trkpt lat="63.37466" lon="8.69871">
        <ele>119.503348</ele>
        <time>2020-08-04T12:34:05.864Z</time>
      </trkpt>
      <trkpt lat="63.37475" lon="8.69865">
        <ele>119.990194</ele>
        <time>2020-08-04T12:34:11.863Z</time>
      </trkpt>
      <trkpt lat="63.37484" lon="8.69863">
        <ele>120.451289</ele>
        <time>2020-08-04T12:34:17.898Z</time>
      </trkpt>
      <trkpt lat="63.37493" lon="8.69856">
        <ele>120.934725</ele>
        <time>2020-08-04T12:34:24.887Z</time>
      </trkpt>
      <trkpt lat="63.37502" lon="8.69848">
        <ele>121.396378</ele>
        <time>2020-08-04T12:34:31.873Z</time>
      </trkpt>
      <trkpt lat="63.37512" lon="8.69845">
        <ele>122.346741</ele>
        <time>2020-08-04T12:34:39.864Z</time>
      </trkpt>
      <trkpt lat="63.37521" lon="8.69836">
        <ele>123.276055</ele>
        <time>2020-08-04T12:34:47.923Z</time>
      </trkpt>
      <trkpt lat="63.3753" lon="8.69833">
        <ele>124.1718</ele>
        <time>2020-08-04T12:34:55.882Z</time>
      </trkpt>
      <trkpt lat="63.37539" lon="8.69827">
        <ele>125.059102</ele>
        <time>2020-08-04T12:35:03.878Z</time>
      </trkpt>
      <trkpt lat="63.37549" lon="8.69824">
        <ele>125.934365</ele>
        <time>2020-08-04T12:35:10.894Z</time>
      </trkpt>
      <trkpt lat="63.37558" lon="8.6982">
        <ele>126.817322</ele>
        <time>2020-08-04T12:35:19.897Z</time>
      </trkpt>
      <trkpt lat="63.37567" lon="8.69818">
        <ele>127.724849</ele>
        <time>2020-08-04T12:35:27.884Z</time>
      </trkpt>
      <trkpt lat="63.37577" lon="8.69817">
        <ele>128.641103</ele>
        <time>2020-08-04T12:35:35.887Z</time>
      </trkpt>
      <trkpt lat="63.37586" lon="8.69817">
        <ele>129.517182</ele>
        <time>2020-08-04T12:35:43.918Z</time>
      </trkpt>
      <trkpt lat="63.37596" lon="8.69816">
        <ele>130.440604</ele>
        <time>2020-08-04T12:35:51.870Z</time>
      </trkpt>
      <trkpt lat="63.37606" lon="8.69817">
        <ele>131.354715</ele>
        <time>2020-08-04T12:35:59.872Z</time>
      </trkpt>
      <trkpt lat="63.37615" lon="8.69819">
        <ele>132.209078</ele>
        <time>2020-08-04T12:36:06.910Z</time>
      </trkpt>
      <trkpt lat="63.37625" lon="8.69824">
        <ele>133.170062</ele>
        <time>2020-08-04T12:36:15.879Z</time>
      </trkpt>
      <trkpt lat="63.37634" lon="8.69826">
        <ele>134.042623</ele>
        <time>2020-08-04T12:36:22.870Z</time>
      </trkpt>
      <trkpt lat="63.37644" lon="8.69833">
        <ele>134.9748</ele>
        <time>2020-08-04T12:36:30.885Z</time>
      </trkpt>
      <trkpt lat="63.37653" lon="8.6984">
        <ele>135.919926</ele>
        <time>2020-08-04T12:36:38.873Z</time>
      </trkpt>
      <trkpt lat="63.37662" lon="8.69848">
        <ele>136.854363</ele>
        <time>2020-08-04T12:36:45.915Z</time>
      </trkpt>
      <trkpt lat="63.37672" lon="8.69853">
        <ele>137.784964</ele>
        <time>2020-08-04T12:36:52.866Z</time>
      </trkpt>
      <trkpt lat="63.37682" lon="8.69861">
        <ele>138.459702</ele>
        <time>2020-08-04T12:36:58.902Z</time>
      </trkpt>
      <trkpt lat="63.37692" lon="8.69867">
        <ele>138.733668</ele>
        <time>2020-08-04T12:37:04.893Z</time>
      </trkpt>
      <trkpt lat="63.377" lon="8.69872">
        <ele>138.978693</ele>
        <time>2020-08-04T12:37:10.860Z</time>
      </trkpt>
      <trkpt lat="63.3771" lon="8.69879">
        <ele>139.238413</ele>
        <time>2020-08-04T12:37:16.867Z</time>
      </trkpt>
      <trkpt lat="63.37719" lon="8.69886">
        <ele>139.49606</ele>
        <time>2020-08-04T12:37:21.898Z</time>
      </trkpt>
      <trkpt lat="63.37728" lon="8.69893">
        <ele>139.7545</ele>
        <time>2020-08-04T12:37:26.877Z</time>
      </trkpt>
      <trkpt lat="63.37739" lon="8.699">
        <ele>140.038028</ele>
        <time>2020-08-04T12:37:31.876Z</time>
      </trkpt>
      <trkpt lat="63.37748" lon="8.69906">
        <ele>140.294196</ele>
        <time>2020-08-04T12:37:36.873Z</time>
      </trkpt>
      <trkpt lat="63.37758" lon="8.69911">
        <ele>140.578914</ele>
        <time>2020-08-04T12:37:41.879Z</time>
      </trkpt>
      <trkpt lat="63.37768" lon="8.69919">
        <ele>140.848302</ele>
        <time>2020-08-04T12:37:46.899Z</time>
      </trkpt>
      <trkpt lat="63.37778" lon="8.69926">
        <ele>141.118149</ele>
        <time>2020-08-04T12:37:51.887Z</time>
      </trkpt>
      <trkpt lat="63.37787" lon="8.69929">
        <ele>141.379892</ele>
        <time>2020-08-04T12:37:56.918Z</time>
      </trkpt>
      <trkpt lat="63.37797" lon="8.69931">
        <ele>141.6427</ele>
        <time>2020-08-04T12:38:01.911Z</time>
      </trkpt>
      <trkpt lat="63.37808" lon="8.69932">
        <ele>141.92841</ele>
        <time>2020-08-04T12:38:06.866Z</time>
      </trkpt>
      <trkpt lat="63.37819" lon="8.69933">
        <ele>142.206056</ele>
        <time>2020-08-04T12:38:11.864Z</time>
      </trkpt>
      <trkpt lat="63.37828" lon="8.69935">
        <ele>142.44475</ele>
        <time>2020-08-04T12:38:15.885Z</time>
      </trkpt>
      <trkpt lat="63.37837" lon="8.69933">
        <ele>142.691251</ele>
        <time>2020-08-04T12:38:19.869Z</time>
      </trkpt>
      <trkpt lat="63.37847" lon="8.69931">
        <ele>142.945749</ele>
        <time>2020-08-04T12:38:23.897Z</time>
      </trkpt>
      <trkpt lat="63.37857" lon="8.69927">
        <ele>143.15554</ele>
        <time>2020-08-04T12:38:27.893Z</time>
      </trkpt>
      <trkpt lat="63.37867" lon="8.69922">
        <ele>143.274251</ele>
        <time>2020-08-04T12:38:31.915Z</time>
      </trkpt>
      <trkpt lat="63.37879" lon="8.69919">
        <ele>143.412077</ele>
        <time>2020-08-04T12:38:35.872Z</time>
      </trkpt>
      <trkpt lat="63.3789" lon="8.69915">
        <ele>143.540701</ele>
        <time>2020-08-04T12:38:38.880Z</time>
      </trkpt>
      <trkpt lat="63.37901" lon="8.69911">
        <ele>143.669844</ele>
        <time>2020-08-04T12:38:41.879Z</time>
      </trkpt>
      <trkpt lat="63.37913" lon="8.69908">
        <ele>143.809637</ele>
        <time>2020-08-04T12:38:44.899Z</time>
      </trkpt>
      <trkpt lat="63.37922" lon="8.69905">
        <ele>143.916149</ele>
        <time>2020-08-04T12:38:46.868Z</time>
      </trkpt>
      <trkpt lat="63.37933" lon="8.69902">
        <ele>144.045212</ele>
        <time>2020-08-04T12:38:48.882Z</time>
      </trkpt>
      <trkpt lat="63.37944" lon="8.69898">
        <ele>144.173903</ele>
        <time>2020-08-04T12:38:50.868Z</time>
      </trkpt>
      <trkpt lat="63.37955" lon="8.69894">
        <ele>144.305586</ele>
        <time>2020-08-04T12:38:52.869Z</time>
      </trkpt>
      <trkpt lat="63.37966" lon="8.6989">
        <ele>144.435795</ele>
        <time>2020-08-04T12:38:54.853Z</time>
      </trkpt>
      <trkpt lat="63.37977" lon="8.69888">
        <ele>144.56526</ele>
        <time>2020-08-04T12:38:56.893Z</time>
      </trkpt>
      <trkpt lat="63.37987" lon="8.69884">
        <ele>144.686064</ele>
        <time>2020-08-04T12:38:58.861Z</time>
      </trkpt>
      <trkpt lat="63.37997" lon="8.69883">
        <ele>144.794142</ele>
        <time>2020-08-04T12:39:00.902Z</time>
      </trkpt>
      <trkpt lat="63.3801" lon="8.6988">
        <ele>144.945308</ele>
        <time>2020-08-04T12:39:03.875Z</time>
      </trkpt>
      <trkpt lat="63.38021" lon="8.69878">
        <ele>145.080386</ele>
        <time>2020-08-04T12:39:06.864Z</time>
      </trkpt>
      <trkpt lat="63.38032" lon="8.69877">
        <ele>145.150138</ele>
        <time>2020-08-04T12:39:09.862Z</time>
      </trkpt>
      <trkpt lat="63.38042" lon="8.69877">
        <ele>144.829027</ele>
        <time>2020-08-04T12:39:12.859Z</time>
      </trkpt>
      <trkpt lat="63.38052" lon="8.69877">
        <ele>144.504621</ele>
        <time>2020-08-04T12:39:15.859Z</time>
      </trkpt>
      <trkpt lat="63.38063" lon="8.69877">
        <ele>144.170893</ele>
        <time>2020-08-04T12:39:18.893Z</time>
      </trkpt>
      <trkpt lat="63.38074" lon="8.69877">
        <ele>143.827751</ele>
        <time>2020-08-04T12:39:21.865Z</time>
      </trkpt>
      <trkpt lat="63.38086" lon="8.69876">
        <ele>143.452797</ele>
        <time>2020-08-04T12:39:24.898Z</time>
      </trkpt>
      <trkpt lat="63.38099" lon="8.69875">
        <ele>143.037283</ele>
        <time>2020-08-04T12:39:27.890Z</time>
      </trkpt>
      <trkpt lat="63.38108" lon="8.69876">
        <ele>142.738172</ele>
        <time>2020-08-04T12:39:29.919Z</time>
      </trkpt>
      <trkpt lat="63.38119" lon="8.69876">
        <ele>142.404471</ele>
        <time>2020-08-04T12:39:31.875Z</time>
      </trkpt>
      <trkpt lat="63.38131" lon="8.69876">
        <ele>142.036191</ele>
        <time>2020-08-04T12:39:33.912Z</time>
      </trkpt>
      <trkpt lat="63.38144" lon="8.69876">
        <ele>141.630081</ele>
        <time>2020-08-04T12:39:35.880Z</time>
      </trkpt>
      <trkpt lat="63.38158" lon="8.69874">
        <ele>141.182612</ele>
        <time>2020-08-04T12:39:37.884Z</time>
      </trkpt>
      <trkpt lat="63.38173" lon="8.69873">
        <ele>140.691477</ele>
        <time>2020-08-04T12:39:39.879Z</time>
      </trkpt>
      <trkpt lat="63.38191" lon="8.69874">
        <ele>140.140619</ele>
        <time>2020-08-04T12:39:41.874Z</time>
      </trkpt>
      <trkpt lat="63.382" lon="8.69874">
        <ele>139.850947</ele>
        <time>2020-08-04T12:39:42.895Z</time>
      </trkpt>
      <trkpt lat="63.38209" lon="8.69874">
        <ele>139.561359</ele>
        <time>2020-08-04T12:39:43.888Z</time>
      </trkpt>
      <trkpt lat="63.38219" lon="8.69874">
        <ele>139.174951</ele>
        <time>2020-08-04T12:39:44.890Z</time>
      </trkpt>
      <trkpt lat="63.38229" lon="8.69874">
        <ele>138.764864</ele>
        <time>2020-08-04T12:39:45.902Z</time>
      </trkpt>
      <trkpt lat="63.38239" lon="8.69874">
        <ele>138.342186</ele>
        <time>2020-08-04T12:39:46.878Z</time>
      </trkpt>
      <trkpt lat="63.38249" lon="8.69875">
        <ele>137.915295</ele>
        <time>2020-08-04T12:39:47.894Z</time>
      </trkpt>
      <trkpt lat="63.38259" lon="8.69875">
        <ele>137.48427</ele>
        <time>2020-08-04T12:39:48.882Z</time>
      </trkpt>
      <trkpt lat="63.3827" lon="8.69876">
        <ele>137.053113</ele>
        <time>2020-08-04T12:39:49.879Z</time>
      </trkpt>
      <trkpt lat="63.3828" lon="8.69876">
        <ele>136.630136</ele>
        <time>2020-08-04T12:39:50.885Z</time>
      </trkpt>
      <trkpt lat="63.3829" lon="8.69877">
        <ele>136.20311</ele>
        <time>2020-08-04T12:39:51.889Z</time>
      </trkpt>
      <trkpt lat="63.383" lon="8.69877">
        <ele>135.780453</ele>
        <time>2020-08-04T12:39:52.889Z</time>
      </trkpt>
      <trkpt lat="63.3831" lon="8.69878">
        <ele>135.357796</ele>
        <time>2020-08-04T12:39:53.871Z</time>
      </trkpt>
      <trkpt lat="63.3832" lon="8.69878">
        <ele>134.935139</ele>
        <time>2020-08-04T12:39:54.868Z</time>
      </trkpt>
      <trkpt lat="63.3833" lon="8.69878">
        <ele>134.508277</ele>
        <time>2020-08-04T12:39:55.881Z</time>
      </trkpt>
      <trkpt lat="63.3834" lon="8.69878">
        <ele>134.085599</ele>
        <time>2020-08-04T12:39:56.872Z</time>
      </trkpt>
      <trkpt lat="63.38351" lon="8.69879">
        <ele>133.654573</ele>
        <time>2020-08-04T12:39:57.910Z</time>
      </trkpt>
      <trkpt lat="63.38361" lon="8.69878">
        <ele>133.227744</ele>
        <time>2020-08-04T12:39:58.884Z</time>
      </trkpt>
      <trkpt lat="63.38371" lon="8.69878">
        <ele>132.788349</ele>
        <time>2020-08-04T12:39:59.888Z</time>
      </trkpt>
      <trkpt lat="63.38382" lon="8.69878">
        <ele>132.332217</ele>
        <time>2020-08-04T12:40:00.887Z</time>
      </trkpt>
      <trkpt lat="63.38393" lon="8.69878">
        <ele>131.835561</ele>
        <time>2020-08-04T12:40:01.894Z</time>
      </trkpt>
      <trkpt lat="63.38405" lon="8.69878">
        <ele>131.248614</ele>
        <time>2020-08-04T12:40:02.890Z</time>
      </trkpt>
      <trkpt lat="63.38416" lon="8.69878">
        <ele>130.666875</ele>
        <time>2020-08-04T12:40:03.928Z</time>
      </trkpt>
      <trkpt lat="63.38428" lon="8.69879">
        <ele>130.059059</ele>
        <time>2020-08-04T12:40:04.905Z</time>
      </trkpt>
      <trkpt lat="63.3844" lon="8.69879">
        <ele>129.420037</ele>
        <time>2020-08-04T12:40:05.885Z</time>
      </trkpt>
      <trkpt lat="63.38453" lon="8.6988">
        <ele>128.76557</ele>
        <time>2020-08-04T12:40:06.905Z</time>
      </trkpt>
      <trkpt lat="63.38465" lon="8.6988">
        <ele>128.10592</ele>
        <time>2020-08-04T12:40:07.873Z</time>
      </trkpt>
      <trkpt lat="63.38478" lon="8.6988">
        <ele>127.441016</ele>
        <time>2020-08-04T12:40:08.901Z</time>
      </trkpt>
      <trkpt lat="63.38491" lon="8.69881">
        <ele>126.760451</ele>
        <time>2020-08-04T12:40:09.883Z</time>
      </trkpt>
      <trkpt lat="63.38504" lon="8.69881">
        <ele>126.07482</ele>
        <time>2020-08-04T12:40:10.872Z</time>
      </trkpt>
      <trkpt lat="63.38518" lon="8.69881">
        <ele>125.373622</ele>
        <time>2020-08-04T12:40:11.880Z</time>
      </trkpt>
      <trkpt lat="63.38532" lon="8.69881">
        <ele>124.662033</ele>
        <time>2020-08-04T12:40:12.904Z</time>
      </trkpt>
      <trkpt lat="63.38546" lon="8.69881">
        <ele>123.919268</ele>
        <time>2020-08-04T12:40:13.889Z</time>
      </trkpt>
      <trkpt lat="63.3856" lon="8.69881">
        <ele>123.181708</ele>
        <time>2020-08-04T12:40:14.887Z</time>
      </trkpt>
      <trkpt lat="63.38574" lon="8.6988">
        <ele>122.399096</ele>
        <time>2020-08-04T12:40:15.869Z</time>
      </trkpt>
      <trkpt lat="63.38588" lon="8.69878">
        <ele>121.491603</ele>
        <time>2020-08-04T12:40:16.882Z</time>
      </trkpt>
      <trkpt lat="63.38602" lon="8.69875">
        <ele>120.581592</ele>
        <time>2020-08-04T12:40:17.884Z</time>
      </trkpt>
      <trkpt lat="63.38617" lon="8.69871">
        <ele>119.663127</ele>
        <time>2020-08-04T12:40:18.887Z</time>
      </trkpt>
      <trkpt lat="63.38631" lon="8.69866">
        <ele>118.751011</ele>
        <time>2020-08-04T12:40:19.904Z</time>
      </trkpt>
      <trkpt lat="63.38645" lon="8.69859">
        <ele>117.784418</ele>
        <time>2020-08-04T12:40:20.883Z</time>
      </trkpt>
      <trkpt lat="63.3866" lon="8.6985">
        <ele>116.807063</ele>
        <time>2020-08-04T12:40:21.894Z</time>
      </trkpt>
      <trkpt lat="63.38674" lon="8.69838">
        <ele>115.84532</ele>
        <time>2020-08-04T12:40:22.880Z</time>
      </trkpt>
      <trkpt lat="63.38687" lon="8.69823">
        <ele>114.878728</ele>
        <time>2020-08-04T12:40:23.903Z</time>
      </trkpt>
      <trkpt lat="63.387" lon="8.69806">
        <ele>113.91479</ele>
        <time>2020-08-04T12:40:24.891Z</time>
      </trkpt>
      <trkpt lat="63.38713" lon="8.69788">
        <ele>112.940794</ele>
        <time>2020-08-04T12:40:25.921Z</time>
      </trkpt>
      <trkpt lat="63.38725" lon="8.69767">
        <ele>111.976627</ele>
        <time>2020-08-04T12:40:26.909Z</time>
      </trkpt>
      <trkpt lat="63.38736" lon="8.69746">
        <ele>111.092548</ele>
        <time>2020-08-04T12:40:27.893Z</time>
      </trkpt>
      <trkpt lat="63.38746" lon="8.69725">
        <ele>110.966311</ele>
        <time>2020-08-04T12:40:28.891Z</time>
      </trkpt>
      <trkpt lat="63.38755" lon="8.69701">
        <ele>110.842968</ele>
        <time>2020-08-04T12:40:29.903Z</time>
      </trkpt>
      <trkpt lat="63.38762" lon="8.69678">
        <ele>110.72418</ele>
        <time>2020-08-04T12:40:30.879Z</time>
      </trkpt>
      <trkpt lat="63.38769" lon="8.69654">
        <ele>110.612673</ele>
        <time>2020-08-04T12:40:31.938Z</time>
      </trkpt>
      <trkpt lat="63.38775" lon="8.69632">
        <ele>110.507351</ele>
        <time>2020-08-04T12:40:32.882Z</time>
      </trkpt>
      <trkpt lat="63.38781" lon="8.69611">
        <ele>110.406776</ele>
        <time>2020-08-04T12:40:33.875Z</time>
      </trkpt>
      <trkpt lat="63.38787" lon="8.69591">
        <ele>110.308401</ele>
        <time>2020-08-04T12:40:34.911Z</time>
      </trkpt>
      <trkpt lat="63.38792" lon="8.69571">
        <ele>110.212838</ele>
        <time>2020-08-04T12:40:35.888Z</time>
      </trkpt>
      <trkpt lat="63.38797" lon="8.69552">
        <ele>110.121807</ele>
        <time>2020-08-04T12:40:36.863Z</time>
      </trkpt>
      <trkpt lat="63.38802" lon="8.69534">
        <ele>110.038456</ele>
        <time>2020-08-04T12:40:37.907Z</time>
      </trkpt>
      <trkpt lat="63.38811" lon="8.69505">
        <ele>109.89429</ele>
        <time>2020-08-04T12:40:39.885Z</time>
      </trkpt>
      <trkpt lat="63.38818" lon="8.69479">
        <ele>109.775742</ele>
        <time>2020-08-04T12:40:41.862Z</time>
      </trkpt>
      <trkpt lat="63.38823" lon="8.6946">
        <ele>109.683895</ele>
        <time>2020-08-04T12:40:43.878Z</time>
      </trkpt>
      <trkpt lat="63.38829" lon="8.69437">
        <ele>109.574636</ele>
        <time>2020-08-04T12:40:46.870Z</time>
      </trkpt>
      <trkpt lat="63.38835" lon="8.69419">
        <ele>109.483385</ele>
        <time>2020-08-04T12:40:50.906Z</time>
      </trkpt>
      <trkpt lat="63.38841" lon="8.69401">
        <ele>110.123771</ele>
        <time>2020-08-04T12:40:56.889Z</time>
      </trkpt>
      <trkpt lat="63.38846" lon="8.69383">
        <ele>110.858448</ele>
        <time>2020-08-04T12:41:02.881Z</time>
      </trkpt>
      <trkpt lat="63.38851" lon="8.69365">
        <ele>111.58765</ele>
        <time>2020-08-04T12:41:08.869Z</time>
      </trkpt>
      <trkpt lat="63.38856" lon="8.69348">
        <ele>112.306439</ele>
        <time>2020-08-04T12:41:14.869Z</time>
      </trkpt>
      <trkpt lat="63.38863" lon="8.6933">
        <ele>113.105737</ele>
        <time>2020-08-04T12:41:21.885Z</time>
      </trkpt>
      <trkpt lat="63.38869" lon="8.69316">
        <ele>113.816857</ele>
        <time>2020-08-04T12:41:26.872Z</time>
      </trkpt>
      <trkpt lat="63.38875" lon="8.693">
        <ele>114.514906</ele>
        <time>2020-08-04T12:41:31.895Z</time>
      </trkpt>
      <trkpt lat="63.38883" lon="8.69284">
        <ele>115.321077</ele>
        <time>2020-08-04T12:41:37.874Z</time>
      </trkpt>
      <trkpt lat="63.38889" lon="8.69269">
        <ele>116.047909</ele>
        <time>2020-08-04T12:41:42.880Z</time>
      </trkpt>
      <trkpt lat="63.38897" lon="8.69254">
        <ele>116.838506</ele>
        <time>2020-08-04T12:41:47.884Z</time>
      </trkpt>
      <trkpt lat="63.38904" lon="8.69241">
        <ele>117.561705</ele>
        <time>2020-08-04T12:41:52.883Z</time>
      </trkpt>
      <trkpt lat="63.38912" lon="8.69227">
        <ele>118.361547</ele>
        <time>2020-08-04T12:41:57.877Z</time>
      </trkpt>
      <trkpt lat="63.3892" lon="8.69214">
        <ele>119.134488</ele>
        <time>2020-08-04T12:42:02.879Z</time>
      </trkpt>
      <trkpt lat="63.38929" lon="8.69202">
        <ele>119.92397</ele>
        <time>2020-08-04T12:42:07.906Z</time>
      </trkpt>
      <trkpt lat="63.38938" lon="8.69191">
        <ele>120.71899</ele>
        <time>2020-08-04T12:42:12.901Z</time>
      </trkpt>
      <trkpt lat="63.38946" lon="8.69182">
        <ele>121.426963</ele>
        <time>2020-08-04T12:42:17.884Z</time>
      </trkpt>
      <trkpt lat="63.38955" lon="8.69172">
        <ele>122.206795</ele>
        <time>2020-08-04T12:42:22.877Z</time>
      </trkpt>
      <trkpt lat="63.38964" lon="8.69166">
        <ele>122.930209</ele>
        <time>2020-08-04T12:42:26.881Z</time>
      </trkpt>
      <trkpt lat="63.38975" lon="8.69157">
        <ele>123.450115</ele>
        <time>2020-08-04T12:42:31.873Z</time>
      </trkpt>
      <trkpt lat="63.38984" lon="8.69149">
        <ele>123.540286</ele>
        <time>2020-08-04T12:42:36.919Z</time>
      </trkpt>
      <trkpt lat="63.38994" lon="8.69142">
        <ele>123.628606</ele>
        <time>2020-08-04T12:42:41.884Z</time>
      </trkpt>
      <trkpt lat="63.39005" lon="8.69134">
        <ele>123.723829</ele>
        <time>2020-08-04T12:42:45.899Z</time>
      </trkpt>
      <trkpt lat="63.39016" lon="8.69127">
        <ele>123.824765</ele>
        <time>2020-08-04T12:42:49.914Z</time>
      </trkpt>
      <trkpt lat="63.39025" lon="8.69121">
        <ele>123.90382</ele>
        <time>2020-08-04T12:42:52.886Z</time>
      </trkpt>
      <trkpt lat="63.39034" lon="8.69116">
        <ele>123.988005</ele>
        <time>2020-08-04T12:42:55.884Z</time>
      </trkpt>
      <trkpt lat="63.39045" lon="8.69111">
        <ele>124.080364</ele>
        <time>2020-08-04T12:42:58.868Z</time>
      </trkpt>
      <trkpt lat="63.39054" lon="8.69106">
        <ele>124.165298</ele>
        <time>2020-08-04T12:43:01.869Z</time>
      </trkpt>
      <trkpt lat="63.39064" lon="8.69102">
        <ele>124.254044</ele>
        <time>2020-08-04T12:43:04.865Z</time>
      </trkpt>
      <trkpt lat="63.39075" lon="8.69099">
        <ele>124.347058</ele>
        <time>2020-08-04T12:43:07.900Z</time>
      </trkpt>
      <trkpt lat="63.39087" lon="8.69095">
        <ele>124.446369</ele>
        <time>2020-08-04T12:43:10.868Z</time>
      </trkpt>
      <trkpt lat="63.39098" lon="8.69092">
        <ele>124.547929</ele>
        <time>2020-08-04T12:43:13.886Z</time>
      </trkpt>
      <trkpt lat="63.3911" lon="8.6909">
        <ele>124.653418</ele>
        <time>2020-08-04T12:43:16.890Z</time>
      </trkpt>
      <trkpt lat="63.39123" lon="8.69089">
        <ele>124.758634</ele>
        <time>2020-08-04T12:43:19.884Z</time>
      </trkpt>
      <trkpt lat="63.39135" lon="8.69086">
        <ele>124.862406</ele>
        <time>2020-08-04T12:43:22.867Z</time>
      </trkpt>
      <trkpt lat="63.39146" lon="8.69085">
        <ele>124.989064</ele>
        <time>2020-08-04T12:43:25.889Z</time>
      </trkpt>
      <trkpt lat="63.39157" lon="8.69085">
        <ele>125.4587</ele>
        <time>2020-08-04T12:43:28.906Z</time>
      </trkpt>
      <trkpt lat="63.39169" lon="8.69086">
        <ele>125.958528</ele>
        <time>2020-08-04T12:43:31.888Z</time>
      </trkpt>
      <trkpt lat="63.3918" lon="8.69086">
        <ele>126.423667</ele>
        <time>2020-08-04T12:43:34.886Z</time>
      </trkpt>
      <trkpt lat="63.39189" lon="8.69087">
        <ele>126.841966</ele>
        <time>2020-08-04T12:43:37.881Z</time>
      </trkpt>
      <trkpt lat="63.39199" lon="8.69089">
        <ele>127.252425</ele>
        <time>2020-08-04T12:43:40.893Z</time>
      </trkpt>
      <trkpt lat="63.39208" lon="8.69091">
        <ele>127.668681</ele>
        <time>2020-08-04T12:43:43.891Z</time>
      </trkpt>
      <trkpt lat="63.39217" lon="8.69093">
        <ele>128.06197</ele>
        <time>2020-08-04T12:43:46.883Z</time>
      </trkpt>
      <trkpt lat="63.39229" lon="8.69095">
        <ele>128.545723</ele>
        <time>2020-08-04T12:43:50.899Z</time>
      </trkpt>
      <trkpt lat="63.3924" lon="8.691">
        <ele>129.057041</ele>
        <time>2020-08-04T12:43:54.897Z</time>
      </trkpt>
      <trkpt lat="63.39252" lon="8.69104">
        <ele>129.547496</ele>
        <time>2020-08-04T12:43:58.894Z</time>
      </trkpt>
      <trkpt lat="63.39262" lon="8.6911">
        <ele>129.998117</ele>
        <time>2020-08-04T12:44:02.890Z</time>
      </trkpt>
      <trkpt lat="63.39271" lon="8.69118">
        <ele>130.421947</ele>
        <time>2020-08-04T12:44:06.901Z</time>
      </trkpt>
      <trkpt lat="63.3928" lon="8.69125">
        <ele>130.835006</ele>
        <time>2020-08-04T12:44:10.867Z</time>
      </trkpt>
      <trkpt lat="63.39289" lon="8.69133">
        <ele>131.242776</ele>
        <time>2020-08-04T12:44:14.883Z</time>
      </trkpt>
      <trkpt lat="63.39298" lon="8.69142">
        <ele>131.666868</ele>
        <time>2020-08-04T12:44:18.891Z</time>
      </trkpt>
      <trkpt lat="63.39306" lon="8.69149">
        <ele>132.058677</ele>
        <time>2020-08-04T12:44:22.865Z</time>
      </trkpt>
      <trkpt lat="63.39315" lon="8.69158">
        <ele>132.466139</ele>
        <time>2020-08-04T12:44:26.873Z</time>
      </trkpt>
      <trkpt lat="63.39325" lon="8.69167">
        <ele>132.778482</ele>
        <time>2020-08-04T12:44:31.866Z</time>
      </trkpt>
      <trkpt lat="63.39333" lon="8.69181">
        <ele>132.9303</ele>
        <time>2020-08-04T12:44:36.866Z</time>
      </trkpt>
      <trkpt lat="63.39342" lon="8.69198">
        <ele>133.088916</ele>
        <time>2020-08-04T12:44:41.939Z</time>
      </trkpt>
      <trkpt lat="63.3935" lon="8.69215">
        <ele>133.244863</ele>
        <time>2020-08-04T12:44:46.901Z</time>
      </trkpt>
      <trkpt lat="63.39358" lon="8.69231">
        <ele>133.39983</ele>
        <time>2020-08-04T12:44:51.862Z</time>
      </trkpt>
      <trkpt lat="63.39365" lon="8.6925">
        <ele>133.55463</ele>
        <time>2020-08-04T12:44:56.900Z</time>
      </trkpt>
      <trkpt lat="63.39371" lon="8.69269">
        <ele>133.697945</ele>
        <time>2020-08-04T12:45:00.893Z</time>
      </trkpt>
      <trkpt lat="63.39378" lon="8.69288">
        <ele>133.853625</ele>
        <time>2020-08-04T12:45:04.875Z</time>
      </trkpt>
      <trkpt lat="63.39384" lon="8.69307">
        <ele>134.003317</ele>
        <time>2020-08-04T12:45:08.882Z</time>
      </trkpt>
      <trkpt lat="63.3939" lon="8.69327">
        <ele>134.157432</ele>
        <time>2020-08-04T12:45:12.908Z</time>
      </trkpt>
      <trkpt lat="63.39396" lon="8.69345">
        <ele>134.293671</ele>
        <time>2020-08-04T12:45:15.891Z</time>
      </trkpt>
      <trkpt lat="63.39401" lon="8.69363">
        <ele>134.432262</ele>
        <time>2020-08-04T12:45:18.877Z</time>
      </trkpt>
      <trkpt lat="63.39407" lon="8.69383">
        <ele>134.582981</ele>
        <time>2020-08-04T12:45:21.920Z</time>
      </trkpt>
      <trkpt lat="63.39413" lon="8.69403">
        <ele>134.733967</ele>
        <time>2020-08-04T12:45:24.895Z</time>
      </trkpt>
      <trkpt lat="63.39419" lon="8.69425">
        <ele>134.898677</ele>
        <time>2020-08-04T12:45:27.872Z</time>
      </trkpt>
      <trkpt lat="63.39426" lon="8.69449">
        <ele>135.080047</ele>
        <time>2020-08-04T12:45:30.909Z</time>
      </trkpt>
      <trkpt lat="63.39432" lon="8.69473">
        <ele>135.232104</ele>
        <time>2020-08-04T12:45:33.880Z</time>
      </trkpt>
      <trkpt lat="63.39438" lon="8.69496">
        <ele>135.08441</ele>
        <time>2020-08-04T12:45:36.879Z</time>
      </trkpt>
      <trkpt lat="63.39444" lon="8.69519">
        <ele>134.940329</ele>
        <time>2020-08-04T12:45:39.919Z</time>
      </trkpt>
      <trkpt lat="63.3945" lon="8.69541">
        <ele>134.799692</ele>
        <time>2020-08-04T12:45:42.881Z</time>
      </trkpt>
      <trkpt lat="63.39456" lon="8.69564">
        <ele>134.651566</ele>
        <time>2020-08-04T12:45:45.870Z</time>
      </trkpt>
      <trkpt lat="63.39462" lon="8.69585">
        <ele>134.507943</ele>
        <time>2020-08-04T12:45:48.884Z</time>
      </trkpt>
      <trkpt lat="63.39468" lon="8.69607">
        <ele>134.36945</ele>
        <time>2020-08-04T12:45:51.906Z</time>
      </trkpt>
      <trkpt lat="63.39474" lon="8.69626">
        <ele>134.242095</ele>
        <time>2020-08-04T12:45:54.882Z</time>
      </trkpt>
      <trkpt lat="63.39479" lon="8.69646">
        <ele>134.115204</ele>
        <time>2020-08-04T12:45:57.872Z</time>
      </trkpt>
      <trkpt lat="63.39485" lon="8.69666">
        <ele>133.982339</ele>
        <time>2020-08-04T12:46:00.873Z</time>
      </trkpt>
      <trkpt lat="63.39491" lon="8.69688">
        <ele>133.837788</ele>
        <time>2020-08-04T12:46:03.872Z</time>
      </trkpt>
      <trkpt lat="63.39498" lon="8.69711">
        <ele>133.688656</ele>
        <time>2020-08-04T12:46:06.874Z</time>
      </trkpt>
      <trkpt lat="63.39505" lon="8.69735">
        <ele>133.526744</ele>
        <time>2020-08-04T12:46:09.902Z</time>
      </trkpt>
      <trkpt lat="63.39511" lon="8.69752">
        <ele>133.411472</ele>
        <time>2020-08-04T12:46:11.878Z</time>
      </trkpt>
      <trkpt lat="63.39516" lon="8.69771">
        <ele>133.288489</ele>
        <time>2020-08-04T12:46:13.899Z</time>
      </trkpt>
      <trkpt lat="63.39522" lon="8.6979">
        <ele>133.159784</ele>
        <time>2020-08-04T12:46:15.898Z</time>
      </trkpt>
      <trkpt lat="63.39527" lon="8.69811">
        <ele>133.027452</ele>
        <time>2020-08-04T12:46:17.893Z</time>
      </trkpt>
      <trkpt lat="63.39533" lon="8.69832">
        <ele>132.95501</ele>
        <time>2020-08-04T12:46:19.890Z</time>
      </trkpt>
      <trkpt lat="63.39538" lon="8.69853">
        <ele>132.885606</ele>
        <time>2020-08-04T12:46:21.865Z</time>
      </trkpt>
      <trkpt lat="63.39544" lon="8.69873">
        <ele>132.816115</ele>
        <time>2020-08-04T12:46:23.872Z</time>
      </trkpt>
      <trkpt lat="63.3955" lon="8.69893">
        <ele>132.74698</ele>
        <time>2020-08-04T12:46:25.891Z</time>
      </trkpt>
      <trkpt lat="63.39557" lon="8.69912">
        <ele>132.678269</ele>
        <time>2020-08-04T12:46:27.882Z</time>
      </trkpt>
      <trkpt lat="63.39563" lon="8.69929">
        <ele>132.613937</ele>
        <time>2020-08-04T12:46:29.883Z</time>
      </trkpt>
      <trkpt lat="63.39569" lon="8.69946">
        <ele>132.55136</ele>
        <time>2020-08-04T12:46:31.896Z</time>
      </trkpt>
      <trkpt lat="63.39576" lon="8.69961">
        <ele>132.488989</ele>
        <time>2020-08-04T12:46:33.883Z</time>
      </trkpt>
      <trkpt lat="63.39582" lon="8.69977">
        <ele>132.431141</ele>
        <time>2020-08-04T12:46:35.869Z</time>
      </trkpt>
      <trkpt lat="63.39588" lon="8.69993">
        <ele>132.372293</ele>
        <time>2020-08-04T12:46:37.886Z</time>
      </trkpt>
      <trkpt lat="63.39594" lon="8.70008">
        <ele>132.313804</ele>
        <time>2020-08-04T12:46:39.909Z</time>
      </trkpt>
      <trkpt lat="63.396" lon="8.70021">
        <ele>132.255632</ele>
        <time>2020-08-04T12:46:41.931Z</time>
      </trkpt>
      <trkpt lat="63.39608" lon="8.70033">
        <ele>132.196168</ele>
        <time>2020-08-04T12:46:43.877Z</time>
      </trkpt>
      <trkpt lat="63.39618" lon="8.70054">
        <ele>132.110003</ele>
        <time>2020-08-04T12:46:46.871Z</time>
      </trkpt>
      <trkpt lat="63.39627" lon="8.70073">
        <ele>132.02818</ele>
        <time>2020-08-04T12:46:49.883Z</time>
      </trkpt>
      <trkpt lat="63.39634" lon="8.70086">
        <ele>131.968663</ele>
        <time>2020-08-04T12:46:51.887Z</time>
      </trkpt>
      <trkpt lat="63.39641" lon="8.701">
        <ele>131.906331</ele>
        <time>2020-08-04T12:46:53.879Z</time>
      </trkpt>
      <trkpt lat="63.39649" lon="8.70115">
        <ele>131.771958</ele>
        <time>2020-08-04T12:46:55.863Z</time>
      </trkpt>
      <trkpt lat="63.39657" lon="8.7013">
        <ele>131.516545</ele>
        <time>2020-08-04T12:46:57.900Z</time>
      </trkpt>
      <trkpt lat="63.39667" lon="8.70147">
        <ele>131.231728</ele>
        <time>2020-08-04T12:46:59.899Z</time>
      </trkpt>
      <trkpt lat="63.39676" lon="8.70165">
        <ele>130.927283</ele>
        <time>2020-08-04T12:47:01.887Z</time>
      </trkpt>
      <trkpt lat="63.39688" lon="8.70185">
        <ele>130.586568</ele>
        <time>2020-08-04T12:47:03.881Z</time>
      </trkpt>
      <trkpt lat="63.39698" lon="8.70206">
        <ele>130.247218</ele>
        <time>2020-08-04T12:47:05.894Z</time>
      </trkpt>
      <trkpt lat="63.39709" lon="8.70228">
        <ele>129.908964</ele>
        <time>2020-08-04T12:47:07.889Z</time>
      </trkpt>
      <trkpt lat="63.39719" lon="8.70249">
        <ele>129.57428</ele>
        <time>2020-08-04T12:47:09.883Z</time>
      </trkpt>
      <trkpt lat="63.39729" lon="8.70269">
        <ele>129.251839</ele>
        <time>2020-08-04T12:47:11.921Z</time>
      </trkpt>
      <trkpt lat="63.39739" lon="8.7029">
        <ele>128.93527</ele>
        <time>2020-08-04T12:47:13.875Z</time>
      </trkpt>
      <trkpt lat="63.39748" lon="8.70312">
        <ele>128.617637</ele>
        <time>2020-08-04T12:47:15.886Z</time>
      </trkpt>
      <trkpt lat="63.39757" lon="8.70333">
        <ele>128.313512</ele>
        <time>2020-08-04T12:47:17.889Z</time>
      </trkpt>
      <trkpt lat="63.39766" lon="8.70354">
        <ele>127.999186</ele>
        <time>2020-08-04T12:47:19.889Z</time>
      </trkpt>
      <trkpt lat="63.39775" lon="8.70377">
        <ele>127.6646</ele>
        <time>2020-08-04T12:47:21.866Z</time>
      </trkpt>
      <trkpt lat="63.39786" lon="8.70398">
        <ele>127.074863</ele>
        <time>2020-08-04T12:47:23.893Z</time>
      </trkpt>
      <trkpt lat="63.39798" lon="8.70422">
        <ele>126.343107</ele>
        <time>2020-08-04T12:47:25.903Z</time>
      </trkpt>
      <trkpt lat="63.39811" lon="8.70448">
        <ele>125.566936</ele>
        <time>2020-08-04T12:47:27.890Z</time>
      </trkpt>
      <trkpt lat="63.39824" lon="8.70474">
        <ele>124.737494</ele>
        <time>2020-08-04T12:47:29.886Z</time>
      </trkpt>
      <trkpt lat="63.39832" lon="8.70487">
        <ele>124.315062</ele>
        <time>2020-08-04T12:47:30.889Z</time>
      </trkpt>
      <trkpt lat="63.39839" lon="8.705">
        <ele>123.893911</ele>
        <time>2020-08-04T12:47:31.912Z</time>
      </trkpt>
      <trkpt lat="63.39846" lon="8.70512">
        <ele>123.469298</ele>
        <time>2020-08-04T12:47:32.888Z</time>
      </trkpt>
      <trkpt lat="63.39853" lon="8.70524">
        <ele>123.058095</ele>
        <time>2020-08-04T12:47:33.893Z</time>
      </trkpt>
      <trkpt lat="63.39868" lon="8.70546">
        <ele>122.254995</ele>
        <time>2020-08-04T12:47:35.881Z</time>
      </trkpt>
      <trkpt lat="63.39882" lon="8.70569">
        <ele>121.475472</ele>
        <time>2020-08-04T12:47:37.891Z</time>
      </trkpt>
      <trkpt lat="63.39895" lon="8.7059">
        <ele>120.746135</ele>
        <time>2020-08-04T12:47:39.904Z</time>
      </trkpt>
      <trkpt lat="63.39907" lon="8.7061">
        <ele>120.036327</ele>
        <time>2020-08-04T12:47:41.886Z</time>
      </trkpt>
      <trkpt lat="63.39919" lon="8.70628">
        <ele>119.367861</ele>
        <time>2020-08-04T12:47:43.885Z</time>
      </trkpt>
      <trkpt lat="63.39931" lon="8.70646">
        <ele>118.999251</ele>
        <time>2020-08-04T12:47:45.902Z</time>
      </trkpt>
      <trkpt lat="63.39942" lon="8.70663">
        <ele>118.641667</ele>
        <time>2020-08-04T12:47:47.872Z</time>
      </trkpt>
      <trkpt lat="63.39953" lon="8.70681">
        <ele>118.282848</ele>
        <time>2020-08-04T12:47:49.892Z</time>
      </trkpt>
      <trkpt lat="63.39965" lon="8.70699">
        <ele>117.910405</ele>
        <time>2020-08-04T12:47:51.885Z</time>
      </trkpt>
      <trkpt lat="63.39977" lon="8.70717">
        <ele>117.538608</ele>
        <time>2020-08-04T12:47:53.871Z</time>
      </trkpt>
      <trkpt lat="63.39989" lon="8.70735">
        <ele>117.16916</ele>
        <time>2020-08-04T12:47:55.889Z</time>
      </trkpt>
      <trkpt lat="63.4" lon="8.70753">
        <ele>116.80185</ele>
        <time>2020-08-04T12:47:57.888Z</time>
      </trkpt>
      <trkpt lat="63.40012" lon="8.7077">
        <ele>116.441468</ele>
        <time>2020-08-04T12:47:59.891Z</time>
      </trkpt>
      <trkpt lat="63.40023" lon="8.70787">
        <ele>116.099051</ele>
        <time>2020-08-04T12:48:01.922Z</time>
      </trkpt>
      <trkpt lat="63.40033" lon="8.70804">
        <ele>115.772265</ele>
        <time>2020-08-04T12:48:03.883Z</time>
      </trkpt>
      <trkpt lat="63.40042" lon="8.70819">
        <ele>115.46905</ele>
        <time>2020-08-04T12:48:05.881Z</time>
      </trkpt>
      <trkpt lat="63.40051" lon="8.70833">
        <ele>115.182504</ele>
        <time>2020-08-04T12:48:07.880Z</time>
      </trkpt>
      <trkpt lat="63.4006" lon="8.70846">
        <ele>114.906357</ele>
        <time>2020-08-04T12:48:09.889Z</time>
      </trkpt>
      <trkpt lat="63.40069" lon="8.70859">
        <ele>114.672872</ele>
        <time>2020-08-04T12:48:11.886Z</time>
      </trkpt>
      <trkpt lat="63.40078" lon="8.70872">
        <ele>114.637031</ele>
        <time>2020-08-04T12:48:13.889Z</time>
      </trkpt>
      <trkpt lat="63.40088" lon="8.70886">
        <ele>114.599049</ele>
        <time>2020-08-04T12:48:15.886Z</time>
      </trkpt>
      <trkpt lat="63.40098" lon="8.709">
        <ele>114.558972</ele>
        <time>2020-08-04T12:48:17.910Z</time>
      </trkpt>
      <trkpt lat="63.40109" lon="8.70914">
        <ele>114.516952</ele>
        <time>2020-08-04T12:48:19.904Z</time>
      </trkpt>
      <trkpt lat="63.40121" lon="8.70929">
        <ele>114.472777</ele>
        <time>2020-08-04T12:48:21.918Z</time>
      </trkpt>
      <trkpt lat="63.40133" lon="8.70945">
        <ele>114.427312</ele>
        <time>2020-08-04T12:48:23.905Z</time>
      </trkpt>
      <trkpt lat="63.40145" lon="8.70959">
        <ele>114.382566</ele>
        <time>2020-08-04T12:48:25.886Z</time>
      </trkpt>
      <trkpt lat="63.40156" lon="8.70973">
        <ele>114.338309</ele>
        <time>2020-08-04T12:48:27.899Z</time>
      </trkpt>
      <trkpt lat="63.40168" lon="8.70986">
        <ele>114.295372</ele>
        <time>2020-08-04T12:48:29.885Z</time>
      </trkpt>
      <trkpt lat="63.4018" lon="8.70998">
        <ele>114.253839</ele>
        <time>2020-08-04T12:48:31.875Z</time>
      </trkpt>
      <trkpt lat="63.40191" lon="8.7101">
        <ele>114.212836</ele>
        <time>2020-08-04T12:48:33.869Z</time>
      </trkpt>
      <trkpt lat="63.40202" lon="8.71022">
        <ele>114.170878</ele>
        <time>2020-08-04T12:48:35.872Z</time>
      </trkpt>
      <trkpt lat="63.40214" lon="8.71034">
        <ele>114.129407</ele>
        <time>2020-08-04T12:48:37.887Z</time>
      </trkpt>
      <trkpt lat="63.40225" lon="8.71045">
        <ele>114.088724</ele>
        <time>2020-08-04T12:48:39.907Z</time>
      </trkpt>
      <trkpt lat="63.40236" lon="8.71058">
        <ele>114.265506</ele>
        <time>2020-08-04T12:48:41.887Z</time>
      </trkpt>
      <trkpt lat="63.40246" lon="8.71071">
        <ele>114.455084</ele>
        <time>2020-08-04T12:48:43.878Z</time>
      </trkpt>
      <trkpt lat="63.40257" lon="8.71082">
        <ele>114.649903</ele>
        <time>2020-08-04T12:48:45.892Z</time>
      </trkpt>
      <trkpt lat="63.40267" lon="8.71094">
        <ele>114.832483</ele>
        <time>2020-08-04T12:48:47.872Z</time>
      </trkpt>
      <trkpt lat="63.40277" lon="8.71106">
        <ele>115.009538</ele>
        <time>2020-08-04T12:48:49.880Z</time>
      </trkpt>
      <trkpt lat="63.40286" lon="8.71117">
        <ele>115.185942</ele>
        <time>2020-08-04T12:48:51.871Z</time>
      </trkpt>
      <trkpt lat="63.40296" lon="8.71127">
        <ele>115.358182</ele>
        <time>2020-08-04T12:48:53.887Z</time>
      </trkpt>
      <trkpt lat="63.40305" lon="8.71137">
        <ele>115.522743</ele>
        <time>2020-08-04T12:48:55.887Z</time>
      </trkpt>
      <trkpt lat="63.40315" lon="8.71146">
        <ele>115.686044</ele>
        <time>2020-08-04T12:48:57.873Z</time>
      </trkpt>
      <trkpt lat="63.40324" lon="8.71155">
        <ele>115.844643</ele>
        <time>2020-08-04T12:48:59.886Z</time>
      </trkpt>
      <trkpt lat="63.40332" lon="8.71164">
        <ele>115.993353</ele>
        <time>2020-08-04T12:49:01.921Z</time>
      </trkpt>
      <trkpt lat="63.40343" lon="8.71177">
        <ele>116.202414</ele>
        <time>2020-08-04T12:49:04.875Z</time>
      </trkpt>
      <trkpt lat="63.40353" lon="8.71189">
        <ele>116.377282</ele>
        <time>2020-08-04T12:49:07.879Z</time>
      </trkpt>
      <trkpt lat="63.40362" lon="8.71199">
        <ele>116.54392</ele>
        <time>2020-08-04T12:49:10.870Z</time>
      </trkpt>
      <trkpt lat="63.40371" lon="8.71207">
        <ele>116.698929</ele>
        <time>2020-08-04T12:49:13.875Z</time>
      </trkpt>
      <trkpt lat="63.40382" lon="8.71217">
        <ele>116.887191</ele>
        <time>2020-08-04T12:49:17.898Z</time>
      </trkpt>
      <trkpt lat="63.40393" lon="8.71229">
        <ele>117.055542</ele>
        <time>2020-08-04T12:49:21.872Z</time>
      </trkpt>
      <trkpt lat="63.40402" lon="8.71239">
        <ele>117.17351</ele>
        <time>2020-08-04T12:49:24.886Z</time>
      </trkpt>
      <trkpt lat="63.40411" lon="8.7125">
        <ele>117.30066</ele>
        <time>2020-08-04T12:49:27.883Z</time>
      </trkpt>
      <trkpt lat="63.40422" lon="8.71262">
        <ele>117.445291</ele>
        <time>2020-08-04T12:49:30.881Z</time>
      </trkpt>
      <trkpt lat="63.4043" lon="8.71271">
        <ele>117.554185</ele>
        <time>2020-08-04T12:49:32.925Z</time>
      </trkpt>
      <trkpt lat="63.40439" lon="8.71281">
        <ele>117.673508</ele>
        <time>2020-08-04T12:49:34.889Z</time>
      </trkpt>
      <trkpt lat="63.40448" lon="8.71291">
        <ele>117.802122</ele>
        <time>2020-08-04T12:49:36.905Z</time>
      </trkpt>
      <trkpt lat="63.40459" lon="8.71302">
        <ele>117.938973</ele>
        <time>2020-08-04T12:49:38.881Z</time>
      </trkpt>
      <trkpt lat="63.4047" lon="8.71311">
        <ele>118.079107</ele>
        <time>2020-08-04T12:49:40.892Z</time>
      </trkpt>
      <trkpt lat="63.40481" lon="8.71319">
        <ele>118.223607</ele>
        <time>2020-08-04T12:49:42.889Z</time>
      </trkpt>
      <trkpt lat="63.40493" lon="8.71325">
        <ele>118.370005</ele>
        <time>2020-08-04T12:49:44.861Z</time>
      </trkpt>
      <trkpt lat="63.40505" lon="8.71331">
        <ele>118.516062</ele>
        <time>2020-08-04T12:49:46.912Z</time>
      </trkpt>
      <trkpt lat="63.40516" lon="8.71333">
        <ele>118.651299</ele>
        <time>2020-08-04T12:49:48.895Z</time>
      </trkpt>
      <trkpt lat="63.40527" lon="8.71333">
        <ele>118.784621</ele>
        <time>2020-08-04T12:49:50.919Z</time>
      </trkpt>
      <trkpt lat="63.40539" lon="8.71332">
        <ele>118.922841</ele>
        <time>2020-08-04T12:49:52.911Z</time>
      </trkpt>
      <trkpt lat="63.4055" lon="8.71332">
        <ele>119.053821</ele>
        <time>2020-08-04T12:49:54.890Z</time>
      </trkpt>
      <trkpt lat="63.40561" lon="8.71329">
        <ele>119.0188</ele>
        <time>2020-08-04T12:49:56.909Z</time>
      </trkpt>
      <trkpt lat="63.40571" lon="8.71324">
        <ele>118.69095</ele>
        <time>2020-08-04T12:49:58.869Z</time>
      </trkpt>
      <trkpt lat="63.40582" lon="8.71319">
        <ele>118.358513</ele>
        <time>2020-08-04T12:50:00.878Z</time>
      </trkpt>
      <trkpt lat="63.40592" lon="8.71312">
        <ele>118.019554</ele>
        <time>2020-08-04T12:50:02.884Z</time>
      </trkpt>
      <trkpt lat="63.40605" lon="8.71304">
        <ele>117.606954</ele>
        <time>2020-08-04T12:50:04.887Z</time>
      </trkpt>
      <trkpt lat="63.40617" lon="8.71294">
        <ele>117.209403</ele>
        <time>2020-08-04T12:50:06.888Z</time>
      </trkpt>
      <trkpt lat="63.40632" lon="8.71282">
        <ele>116.74228</ele>
        <time>2020-08-04T12:50:08.879Z</time>
      </trkpt>
      <trkpt lat="63.40648" lon="8.71271">
        <ele>116.208916</ele>
        <time>2020-08-04T12:50:10.904Z</time>
      </trkpt>
      <trkpt lat="63.40658" lon="8.71267">
        <ele>115.916453</ele>
        <time>2020-08-04T12:50:11.883Z</time>
      </trkpt>
      <trkpt lat="63.40667" lon="8.71264">
        <ele>115.612968</ele>
        <time>2020-08-04T12:50:12.906Z</time>
      </trkpt>
      <trkpt lat="63.40679" lon="8.71262">
        <ele>115.267745</ele>
        <time>2020-08-04T12:50:13.891Z</time>
      </trkpt>
      <trkpt lat="63.4069" lon="8.71263">
        <ele>114.901873</ele>
        <time>2020-08-04T12:50:14.908Z</time>
      </trkpt>
      <trkpt lat="63.40702" lon="8.71266">
        <ele>114.530098</ele>
        <time>2020-08-04T12:50:15.916Z</time>
      </trkpt>
      <trkpt lat="63.40714" lon="8.71273">
        <ele>114.160794</ele>
        <time>2020-08-04T12:50:16.875Z</time>
      </trkpt>
      <trkpt lat="63.40726" lon="8.71282">
        <ele>113.779109</ele>
        <time>2020-08-04T12:50:17.899Z</time>
      </trkpt>
      <trkpt lat="63.40738" lon="8.71293">
        <ele>112.842219</ele>
        <time>2020-08-04T12:50:18.876Z</time>
      </trkpt>
      <trkpt lat="63.4075" lon="8.71304">
        <ele>111.4591</ele>
        <time>2020-08-04T12:50:19.877Z</time>
      </trkpt>
      <trkpt lat="63.40763" lon="8.71316">
        <ele>110.005865</ele>
        <time>2020-08-04T12:50:20.881Z</time>
      </trkpt>
      <trkpt lat="63.40777" lon="8.71328">
        <ele>108.536902</ele>
        <time>2020-08-04T12:50:21.883Z</time>
      </trkpt>
      <trkpt lat="63.4079" lon="8.71339">
        <ele>107.06794</ele>
        <time>2020-08-04T12:50:22.884Z</time>
      </trkpt>
      <trkpt lat="63.40803" lon="8.7135">
        <ele>105.597553</ele>
        <time>2020-08-04T12:50:23.887Z</time>
      </trkpt>
      <trkpt lat="63.40816" lon="8.71363">
        <ele>104.148602</ele>
        <time>2020-08-04T12:50:24.886Z</time>
      </trkpt>
      <trkpt lat="63.40829" lon="8.71375">
        <ele>102.686605</ele>
        <time>2020-08-04T12:50:25.892Z</time>
      </trkpt>
      <trkpt lat="63.40843" lon="8.71387">
        <ele>101.201302</ele>
        <time>2020-08-04T12:50:26.912Z</time>
      </trkpt>
      <trkpt lat="63.40856" lon="8.71399">
        <ele>99.693473</ele>
        <time>2020-08-04T12:50:27.876Z</time>
      </trkpt>
      <trkpt lat="63.4087" lon="8.71411">
        <ele>98.153568</ele>
        <time>2020-08-04T12:50:28.903Z</time>
      </trkpt>
      <trkpt lat="63.40884" lon="8.71424">
        <ele>96.602401</ele>
        <time>2020-08-04T12:50:29.912Z</time>
      </trkpt>
      <trkpt lat="63.40898" lon="8.71437">
        <ele>95.050427</ele>
        <time>2020-08-04T12:50:30.897Z</time>
      </trkpt>
      <trkpt lat="63.40912" lon="8.71451">
        <ele>93.512723</ele>
        <time>2020-08-04T12:50:31.877Z</time>
      </trkpt>
      <trkpt lat="63.40925" lon="8.71467">
        <ele>91.965123</ele>
        <time>2020-08-04T12:50:32.899Z</time>
      </trkpt>
      <trkpt lat="63.40938" lon="8.71484">
        <ele>90.42022</ele>
        <time>2020-08-04T12:50:33.885Z</time>
      </trkpt>
      <trkpt lat="63.40951" lon="8.71501">
        <ele>88.875319</ele>
        <time>2020-08-04T12:50:34.924Z</time>
      </trkpt>
      <trkpt lat="63.40965" lon="8.71517">
        <ele>87.310497</ele>
        <time>2020-08-04T12:50:35.898Z</time>
      </trkpt>
      <trkpt lat="63.40978" lon="8.71533">
        <ele>85.73623</ele>
        <time>2020-08-04T12:50:36.892Z</time>
      </trkpt>
      <trkpt lat="63.40991" lon="8.71551">
        <ele>84.173915</ele>
        <time>2020-08-04T12:50:37.881Z</time>
      </trkpt>
      <trkpt lat="63.41004" lon="8.7157">
        <ele>82.608877</ele>
        <time>2020-08-04T12:50:38.878Z</time>
      </trkpt>
      <trkpt lat="63.41016" lon="8.71589">
        <ele>81.063439</ele>
        <time>2020-08-04T12:50:39.877Z</time>
      </trkpt>
      <trkpt lat="63.41029" lon="8.71607">
        <ele>79.534191</ele>
        <time>2020-08-04T12:50:40.897Z</time>
      </trkpt>
      <trkpt lat="63.41041" lon="8.71625">
        <ele>78.018572</ele>
        <time>2020-08-04T12:50:41.881Z</time>
      </trkpt>
      <trkpt lat="63.41053" lon="8.71644">
        <ele>76.568157</ele>
        <time>2020-08-04T12:50:42.883Z</time>
      </trkpt>
      <trkpt lat="63.41064" lon="8.71663">
        <ele>75.578726</ele>
        <time>2020-08-04T12:50:43.864Z</time>
      </trkpt>
      <trkpt lat="63.41075" lon="8.71682">
        <ele>74.617914</ele>
        <time>2020-08-04T12:50:44.881Z</time>
      </trkpt>
      <trkpt lat="63.41086" lon="8.71703">
        <ele>73.63567</ele>
        <time>2020-08-04T12:50:45.903Z</time>
      </trkpt>
      <trkpt lat="63.41096" lon="8.71725">
        <ele>72.652853</ele>
        <time>2020-08-04T12:50:46.872Z</time>
      </trkpt>
      <trkpt lat="63.41105" lon="8.71748">
        <ele>71.660814</ele>
        <time>2020-08-04T12:50:47.888Z</time>
      </trkpt>
      <trkpt lat="63.41114" lon="8.71773">
        <ele>70.655075</ele>
        <time>2020-08-04T12:50:48.909Z</time>
      </trkpt>
      <trkpt lat="63.41123" lon="8.71801">
        <ele>69.6248</ele>
        <time>2020-08-04T12:50:49.876Z</time>
      </trkpt>
      <trkpt lat="63.41131" lon="8.71829">
        <ele>68.579717</ele>
        <time>2020-08-04T12:50:50.911Z</time>
      </trkpt>
      <trkpt lat="63.41138" lon="8.71858">
        <ele>67.535025</ele>
        <time>2020-08-04T12:50:51.891Z</time>
      </trkpt>
      <trkpt lat="63.41144" lon="8.71889">
        <ele>66.496548</ele>
        <time>2020-08-04T12:50:52.886Z</time>
      </trkpt>
      <trkpt lat="63.41149" lon="8.71919">
        <ele>65.468141</ele>
        <time>2020-08-04T12:50:53.870Z</time>
      </trkpt>
      <trkpt lat="63.41154" lon="8.71949">
        <ele>64.482249</ele>
        <time>2020-08-04T12:50:54.887Z</time>
      </trkpt>
      <trkpt lat="63.41159" lon="8.71978">
        <ele>63.799375</ele>
        <time>2020-08-04T12:50:55.869Z</time>
      </trkpt>
      <trkpt lat="63.41163" lon="8.72006">
        <ele>63.317975</ele>
        <time>2020-08-04T12:50:56.876Z</time>
      </trkpt>
      <trkpt lat="63.41168" lon="8.72033">
        <ele>62.846107</ele>
        <time>2020-08-04T12:50:57.929Z</time>
      </trkpt>
      <trkpt lat="63.41173" lon="8.7206">
        <ele>62.378702</ele>
        <time>2020-08-04T12:50:58.871Z</time>
      </trkpt>
      <trkpt lat="63.41178" lon="8.72086">
        <ele>61.921596</ele>
        <time>2020-08-04T12:50:59.880Z</time>
      </trkpt>
      <trkpt lat="63.41183" lon="8.72112">
        <ele>61.480344</ele>
        <time>2020-08-04T12:51:00.876Z</time>
      </trkpt>
      <trkpt lat="63.41187" lon="8.72137">
        <ele>61.046544</ele>
        <time>2020-08-04T12:51:01.907Z</time>
      </trkpt>
      <trkpt lat="63.4119" lon="8.72162">
        <ele>60.623319</ele>
        <time>2020-08-04T12:51:02.870Z</time>
      </trkpt>
      <trkpt lat="63.41192" lon="8.72188">
        <ele>60.205933</ele>
        <time>2020-08-04T12:51:03.898Z</time>
      </trkpt>
      <trkpt lat="63.41192" lon="8.72213">
        <ele>59.795186</ele>
        <time>2020-08-04T12:51:04.874Z</time>
      </trkpt>
      <trkpt lat="63.41191" lon="8.72237">
        <ele>59.409872</ele>
        <time>2020-08-04T12:51:05.879Z</time>
      </trkpt>
      <trkpt lat="63.41187" lon="8.72259">
        <ele>59.038243</ele>
        <time>2020-08-04T12:51:06.875Z</time>
      </trkpt>
      <trkpt lat="63.41183" lon="8.72279">
        <ele>58.682381</ele>
        <time>2020-08-04T12:51:07.873Z</time>
      </trkpt>
      <trkpt lat="63.41178" lon="8.72297">
        <ele>58.328181</ele>
        <time>2020-08-04T12:51:08.890Z</time>
      </trkpt>
      <trkpt lat="63.41171" lon="8.72314">
        <ele>57.969346</ele>
        <time>2020-08-04T12:51:09.876Z</time>
      </trkpt>
      <trkpt lat="63.41164" lon="8.72331">
        <ele>57.606076</ele>
        <time>2020-08-04T12:51:10.888Z</time>
      </trkpt>
      <trkpt lat="63.41157" lon="8.72347">
        <ele>57.401404</ele>
        <time>2020-08-04T12:51:11.893Z</time>
      </trkpt>
      <trkpt lat="63.4115" lon="8.72362">
        <ele>57.211422</ele>
        <time>2020-08-04T12:51:12.909Z</time>
      </trkpt>
      <trkpt lat="63.41144" lon="8.72377">
        <ele>57.024239</ele>
        <time>2020-08-04T12:51:13.880Z</time>
      </trkpt>
      <trkpt lat="63.41138" lon="8.72393">
        <ele>56.830744</ele>
        <time>2020-08-04T12:51:14.891Z</time>
      </trkpt>
      <trkpt lat="63.41133" lon="8.7241">
        <ele>56.632583</ele>
        <time>2020-08-04T12:51:15.877Z</time>
      </trkpt>
      <trkpt lat="63.41127" lon="8.72428">
        <ele>56.432052</ele>
        <time>2020-08-04T12:51:16.905Z</time>
      </trkpt>
      <trkpt lat="63.41122" lon="8.72447">
        <ele>56.227431</ele>
        <time>2020-08-04T12:51:17.933Z</time>
      </trkpt>
      <trkpt lat="63.41118" lon="8.72468">
        <ele>56.015735</ele>
        <time>2020-08-04T12:51:18.909Z</time>
      </trkpt>
      <trkpt lat="63.41115" lon="8.72491">
        <ele>55.800217</ele>
        <time>2020-08-04T12:51:19.889Z</time>
      </trkpt>
      <trkpt lat="63.41114" lon="8.72514">
        <ele>55.58635</ele>
        <time>2020-08-04T12:51:20.869Z</time>
      </trkpt>
      <trkpt lat="63.41114" lon="8.72537">
        <ele>55.368341</ele>
        <time>2020-08-04T12:51:21.885Z</time>
      </trkpt>
      <trkpt lat="63.41114" lon="8.72561">
        <ele>55.152984</ele>
        <time>2020-08-04T12:51:22.896Z</time>
      </trkpt>
      <trkpt lat="63.41115" lon="8.72583">
        <ele>54.948202</ele>
        <time>2020-08-04T12:51:23.900Z</time>
      </trkpt>
      <trkpt lat="63.41116" lon="8.72604">
        <ele>54.747842</ele>
        <time>2020-08-04T12:51:24.884Z</time>
      </trkpt>
      <trkpt lat="63.41117" lon="8.72625">
        <ele>54.554534</ele>
        <time>2020-08-04T12:51:25.874Z</time>
      </trkpt>
      <trkpt lat="63.41117" lon="8.72646">
        <ele>54.361491</ele>
        <time>2020-08-04T12:51:26.880Z</time>
      </trkpt>
      <trkpt lat="63.41117" lon="8.72667">
        <ele>54.172142</ele>
        <time>2020-08-04T12:51:27.901Z</time>
      </trkpt>
      <trkpt lat="63.41117" lon="8.72687">
        <ele>53.985563</ele>
        <time>2020-08-04T12:51:28.941Z</time>
      </trkpt>
      <trkpt lat="63.41115" lon="8.72726">
        <ele>53.8758</ele>
        <time>2020-08-04T12:51:30.880Z</time>
      </trkpt>
      <trkpt lat="63.41111" lon="8.72764">
        <ele>53.825369</ele>
        <time>2020-08-04T12:51:32.875Z</time>
      </trkpt>
      <trkpt lat="63.41106" lon="8.72801">
        <ele>53.775081</ele>
        <time>2020-08-04T12:51:34.901Z</time>
      </trkpt>
      <trkpt lat="63.411" lon="8.72837">
        <ele>53.72444</ele>
        <time>2020-08-04T12:51:36.883Z</time>
      </trkpt>
      <trkpt lat="63.41096" lon="8.72875">
        <ele>53.673236</ele>
        <time>2020-08-04T12:51:38.879Z</time>
      </trkpt>
      <trkpt lat="63.41096" lon="8.72912">
        <ele>53.625062</ele>
        <time>2020-08-04T12:51:40.900Z</time>
      </trkpt>
      <trkpt lat="63.41101" lon="8.72945">
        <ele>53.579835</ele>
        <time>2020-08-04T12:51:42.871Z</time>
      </trkpt>
      <trkpt lat="63.41107" lon="8.72972">
        <ele>53.540332</ele>
        <time>2020-08-04T12:51:44.882Z</time>
      </trkpt>
      <trkpt lat="63.41114" lon="8.72994">
        <ele>53.506039</ele>
        <time>2020-08-04T12:51:46.890Z</time>
      </trkpt>
      <trkpt lat="63.4112" lon="8.73012">
        <ele>53.475738</ele>
        <time>2020-08-04T12:51:48.898Z</time>
      </trkpt>
      <trkpt lat="63.41127" lon="8.73029">
        <ele>53.44587</ele>
        <time>2020-08-04T12:51:50.881Z</time>
      </trkpt>
      <trkpt lat="63.41134" lon="8.73044">
        <ele>53.418343</ele>
        <time>2020-08-04T12:51:52.888Z</time>
      </trkpt>
      <trkpt lat="63.41142" lon="8.73065">
        <ele>53.527632</ele>
        <time>2020-08-04T12:51:55.900Z</time>
      </trkpt>
      <trkpt lat="63.41149" lon="8.73082">
        <ele>53.89637</ele>
        <time>2020-08-04T12:51:58.891Z</time>
      </trkpt>
      <trkpt lat="63.41156" lon="8.731">
        <ele>54.247017</ele>
        <time>2020-08-04T12:52:01.903Z</time>
      </trkpt>
      <trkpt lat="63.41162" lon="8.73118">
        <ele>54.594536</ele>
        <time>2020-08-04T12:52:05.875Z</time>
      </trkpt>
      <trkpt lat="63.41169" lon="8.73138">
        <ele>54.9772</ele>
        <time>2020-08-04T12:52:10.908Z</time>
      </trkpt>
      <trkpt lat="63.41173" lon="8.73157">
        <ele>55.312783</ele>
        <time>2020-08-04T12:52:15.879Z</time>
      </trkpt>
      <trkpt lat="63.41175" lon="8.7318">
        <ele>55.665292</ele>
        <time>2020-08-04T12:52:20.879Z</time>
      </trkpt>
      <trkpt lat="63.41178" lon="8.73199">
        <ele>55.977251</ele>
        <time>2020-08-04T12:52:24.883Z</time>
      </trkpt>
      <trkpt lat="63.41182" lon="8.73219">
        <ele>56.310583</ele>
        <time>2020-08-04T12:52:28.907Z</time>
      </trkpt>
      <trkpt lat="63.41183" lon="8.73243">
        <ele>56.687015</ele>
        <time>2020-08-04T12:52:33.873Z</time>
      </trkpt>
      <trkpt lat="63.41183" lon="8.73269">
        <ele>57.077576</ele>
        <time>2020-08-04T12:52:38.887Z</time>
      </trkpt>
      <trkpt lat="63.41182" lon="8.73292">
        <ele>57.443387</ele>
        <time>2020-08-04T12:52:42.879Z</time>
      </trkpt>
      <trkpt lat="63.4118" lon="8.73316">
        <ele>57.813379</ele>
        <time>2020-08-04T12:52:46.899Z</time>
      </trkpt>
      <trkpt lat="63.41179" lon="8.73342">
        <ele>58.222768</ele>
        <time>2020-08-04T12:52:50.930Z</time>
      </trkpt>
      <trkpt lat="63.41179" lon="8.73366">
        <ele>58.590183</ele>
        <time>2020-08-04T12:52:53.882Z</time>
      </trkpt>
      <trkpt lat="63.41181" lon="8.73396">
        <ele>59.045725</ele>
        <time>2020-08-04T12:52:56.912Z</time>
      </trkpt>
      <trkpt lat="63.41182" lon="8.73417">
        <ele>59.384</ele>
        <time>2020-08-04T12:52:58.865Z</time>
      </trkpt>
      <trkpt lat="63.41185" lon="8.73439">
        <ele>59.610798</ele>
        <time>2020-08-04T12:53:00.898Z</time>
      </trkpt>
      <trkpt lat="63.41188" lon="8.73459">
        <ele>59.699633</ele>
        <time>2020-08-04T12:53:02.871Z</time>
      </trkpt>
      <trkpt lat="63.41191" lon="8.73487">
        <ele>59.818233</ele>
        <time>2020-08-04T12:53:05.923Z</time>
      </trkpt>
      <trkpt lat="63.41196" lon="8.73512">
        <ele>59.931724</ele>
        <time>2020-08-04T12:53:08.891Z</time>
      </trkpt>
      <trkpt lat="63.41201" lon="8.73538">
        <ele>60.048122</ele>
        <time>2020-08-04T12:53:11.910Z</time>
      </trkpt>
      <trkpt lat="63.41207" lon="8.73565">
        <ele>60.170291</ele>
        <time>2020-08-04T12:53:14.869Z</time>
      </trkpt>
      <trkpt lat="63.4121" lon="8.73591">
        <ele>60.285061</ele>
        <time>2020-08-04T12:53:17.912Z</time>
      </trkpt>
      <trkpt lat="63.41215" lon="8.73615">
        <ele>60.395745</ele>
        <time>2020-08-04T12:53:20.872Z</time>
      </trkpt>
      <trkpt lat="63.4122" lon="8.73639">
        <ele>60.503027</ele>
        <time>2020-08-04T12:53:23.869Z</time>
      </trkpt>
      <trkpt lat="63.41224" lon="8.73662">
        <ele>60.606164</ele>
        <time>2020-08-04T12:53:26.871Z</time>
      </trkpt>
      <trkpt lat="63.41229" lon="8.73685">
        <ele>60.710887</ele>
        <time>2020-08-04T12:53:29.879Z</time>
      </trkpt>
      <trkpt lat="63.41233" lon="8.73709">
        <ele>60.813838</ele>
        <time>2020-08-04T12:53:32.881Z</time>
      </trkpt>
      <trkpt lat="63.41236" lon="8.7373">
        <ele>60.907966</ele>
        <time>2020-08-04T12:53:35.905Z</time>
      </trkpt>
      <trkpt lat="63.4124" lon="8.73749">
        <ele>60.991981</ele>
        <time>2020-08-04T12:53:38.888Z</time>
      </trkpt>
      <trkpt lat="63.41243" lon="8.73773">
        <ele>61.096343</ele>
        <time>2020-08-04T12:53:42.879Z</time>
      </trkpt>
      <trkpt lat="63.41246" lon="8.73794">
        <ele>61.187423</ele>
        <time>2020-08-04T12:53:46.887Z</time>
      </trkpt>
      <trkpt lat="63.41247" lon="8.73818">
        <ele>61.526097</ele>
        <time>2020-08-04T12:53:51.877Z</time>
      </trkpt>
      <trkpt lat="63.4125" lon="8.73842">
        <ele>62.049853</ele>
        <time>2020-08-04T12:53:56.902Z</time>
      </trkpt>
      <trkpt lat="63.41252" lon="8.73867">
        <ele>62.575825</ele>
        <time>2020-08-04T12:54:01.888Z</time>
      </trkpt>
      <trkpt lat="63.41255" lon="8.73886">
        <ele>63.012163</ele>
        <time>2020-08-04T12:54:05.880Z</time>
      </trkpt>
      <trkpt lat="63.41257" lon="8.73909">
        <ele>63.502977</ele>
        <time>2020-08-04T12:54:10.869Z</time>
      </trkpt>
      <trkpt lat="63.41261" lon="8.7393">
        <ele>63.993863</ele>
        <time>2020-08-04T12:54:15.889Z</time>
      </trkpt>
      <trkpt lat="63.41266" lon="8.7395">
        <ele>64.468363</ele>
        <time>2020-08-04T12:54:20.888Z</time>
      </trkpt>
      <trkpt lat="63.41271" lon="8.73968">
        <ele>64.915713</ele>
        <time>2020-08-04T12:54:24.885Z</time>
      </trkpt>
      <trkpt lat="63.41277" lon="8.73988">
        <ele>65.437067</ele>
        <time>2020-08-04T12:54:29.884Z</time>
      </trkpt>
      <trkpt lat="63.41285" lon="8.74005">
        <ele>65.927986</ele>
        <time>2020-08-04T12:54:34.885Z</time>
      </trkpt>
      <trkpt lat="63.4129" lon="8.74022">
        <ele>66.376577</ele>
        <time>2020-08-04T12:54:39.883Z</time>
      </trkpt>
      <trkpt lat="63.41298" lon="8.74036">
        <ele>66.850927</ele>
        <time>2020-08-04T12:54:44.873Z</time>
      </trkpt>
      <trkpt lat="63.41307" lon="8.74049">
        <ele>67.352303</ele>
        <time>2020-08-04T12:54:49.913Z</time>
      </trkpt>
      <trkpt lat="63.41316" lon="8.74062">
        <ele>67.876358</ele>
        <time>2020-08-04T12:54:54.870Z</time>
      </trkpt>
      <trkpt lat="63.41324" lon="8.74072">
        <ele>68.315142</ele>
        <time>2020-08-04T12:54:58.880Z</time>
      </trkpt>
      <trkpt lat="63.41332" lon="8.74083">
        <ele>68.740688</ele>
        <time>2020-08-04T12:55:02.890Z</time>
      </trkpt>
      <trkpt lat="63.41341" lon="8.74095">
        <ele>69.249782</ele>
        <time>2020-08-04T12:55:07.882Z</time>
      </trkpt>
      <trkpt lat="63.4135" lon="8.74106">
        <ele>69.734173</ele>
        <time>2020-08-04T12:55:12.898Z</time>
      </trkpt>
      <trkpt lat="63.41358" lon="8.74118">
        <ele>70.331197</ele>
        <time>2020-08-04T12:55:17.903Z</time>
      </trkpt>
      <trkpt lat="63.41365" lon="8.7413">
        <ele>70.952679</ele>
        <time>2020-08-04T12:55:22.886Z</time>
      </trkpt>
      <trkpt lat="63.41374" lon="8.7414">
        <ele>71.608542</ele>
        <time>2020-08-04T12:55:27.892Z</time>
      </trkpt>
      <trkpt lat="63.41384" lon="8.7415">
        <ele>72.322818</ele>
        <time>2020-08-04T12:55:32.905Z</time>
      </trkpt>
      <trkpt lat="63.41392" lon="8.74162">
        <ele>72.939494</ele>
        <time>2020-08-04T12:55:37.877Z</time>
      </trkpt>
      <trkpt lat="63.414" lon="8.74173">
        <ele>73.583113</ele>
        <time>2020-08-04T12:55:42.870Z</time>
      </trkpt>
      <trkpt lat="63.41408" lon="8.74186">
        <ele>74.226969</ele>
        <time>2020-08-04T12:55:47.891Z</time>
      </trkpt>
      <trkpt lat="63.41416" lon="8.74198">
        <ele>74.826364</ele>
        <time>2020-08-04T12:55:52.879Z</time>
      </trkpt>
      <trkpt lat="63.41424" lon="8.7421">
        <ele>75.466929</ele>
        <time>2020-08-04T12:55:58.866Z</time>
      </trkpt>
      <trkpt lat="63.41432" lon="8.74222">
        <ele>76.129945</ele>
        <time>2020-08-04T12:56:05.883Z</time>
      </trkpt>
      <trkpt lat="63.41439" lon="8.74236">
        <ele>76.753581</ele>
        <time>2020-08-04T12:56:11.873Z</time>
      </trkpt>
      <trkpt lat="63.41446" lon="8.74252">
        <ele>77.387193</ele>
        <time>2020-08-04T12:56:17.885Z</time>
      </trkpt>
      <trkpt lat="63.41453" lon="8.74266">
        <ele>77.994035</ele>
        <time>2020-08-04T12:56:23.879Z</time>
      </trkpt>
      <trkpt lat="63.41459" lon="8.74285">
        <ele>78.668294</ele>
        <time>2020-08-04T12:56:30.864Z</time>
      </trkpt>
      <trkpt lat="63.41463" lon="8.74302">
        <ele>79.259699</ele>
        <time>2020-08-04T12:56:36.897Z</time>
      </trkpt>
      <trkpt lat="63.41468" lon="8.74321">
        <ele>79.90677</ele>
        <time>2020-08-04T12:56:43.883Z</time>
      </trkpt>
      <trkpt lat="63.41471" lon="8.74341">
        <ele>80.526727</ele>
        <time>2020-08-04T12:56:50.894Z</time>
      </trkpt>
      <trkpt lat="63.41476" lon="8.74359">
        <ele>81.150068</ele>
        <time>2020-08-04T12:56:57.898Z</time>
      </trkpt>
      <trkpt lat="63.41481" lon="8.7438">
        <ele>81.906539</ele>
        <time>2020-08-04T12:57:04.905Z</time>
      </trkpt>
      <trkpt lat="63.41485" lon="8.74399">
        <ele>82.757573</ele>
        <time>2020-08-04T12:57:11.870Z</time>
      </trkpt>
      <trkpt lat="63.41489" lon="8.74419">
        <ele>83.610947</ele>
        <time>2020-08-04T12:57:18.869Z</time>
      </trkpt>
      <trkpt lat="63.41494" lon="8.74438">
        <ele>84.408913</ele>
        <time>2020-08-04T12:57:25.880Z</time>
      </trkpt>
      <trkpt lat="63.41497" lon="8.74458">
        <ele>85.248895</ele>
        <time>2020-08-04T12:57:32.872Z</time>
      </trkpt>
      <trkpt lat="63.41502" lon="8.74476">
        <ele>86.063641</ele>
        <time>2020-08-04T12:57:39.941Z</time>
      </trkpt>
      <trkpt lat="63.41506" lon="8.74496">
        <ele>86.93194</ele>
        <time>2020-08-04T12:57:47.904Z</time>
      </trkpt>
      <trkpt lat="63.4151" lon="8.74515">
        <ele>87.72256</ele>
        <time>2020-08-04T12:57:54.897Z</time>
      </trkpt>
      <trkpt lat="63.41515" lon="8.74534">
        <ele>88.577563</ele>
        <time>2020-08-04T12:58:02.891Z</time>
      </trkpt>
      <trkpt lat="63.4152" lon="8.74553">
        <ele>89.424734</ele>
        <time>2020-08-04T12:58:11.902Z</time>
      </trkpt>
      <trkpt lat="63.41524" lon="8.74574">
        <ele>90.285285</ele>
        <time>2020-08-04T12:58:19.871Z</time>
      </trkpt>
      <trkpt lat="63.41529" lon="8.74591">
        <ele>91.064726</ele>
        <time>2020-08-04T12:58:26.872Z</time>
      </trkpt>
      <trkpt lat="63.41534" lon="8.74607">
        <ele>91.853364</ele>
        <time>2020-08-04T12:58:33.886Z</time>
      </trkpt>
      <trkpt lat="63.4154" lon="8.74623">
        <ele>92.671267</ele>
        <time>2020-08-04T12:58:40.907Z</time>
      </trkpt>
      <trkpt lat="63.41547" lon="8.74639">
        <ele>93.53805</ele>
        <time>2020-08-04T12:58:47.897Z</time>
      </trkpt>
      <trkpt lat="63.41554" lon="8.74654">
        <ele>94.332549</ele>
        <time>2020-08-04T12:58:54.878Z</time>
      </trkpt>
      <trkpt lat="63.41561" lon="8.74667">
        <ele>95.172681</ele>
        <time>2020-08-04T12:59:01.863Z</time>
      </trkpt>
      <trkpt lat="63.41569" lon="8.74679">
        <ele>95.994575</ele>
        <time>2020-08-04T12:59:09.903Z</time>
      </trkpt>
      <trkpt lat="63.41577" lon="8.74692">
        <ele>96.827695</ele>
        <time>2020-08-04T12:59:17.873Z</time>
      </trkpt>
      <trkpt lat="63.41585" lon="8.74702">
        <ele>97.457248</ele>
        <time>2020-08-04T12:59:25.896Z</time>
      </trkpt>
      <trkpt lat="63.41593" lon="8.74713">
        <ele>98.043835</ele>
        <time>2020-08-04T12:59:33.876Z</time>
      </trkpt>
      <trkpt lat="63.41601" lon="8.74726">
        <ele>98.679716</ele>
        <time>2020-08-04T12:59:41.924Z</time>
      </trkpt>
      <trkpt lat="63.41609" lon="8.7474">
        <ele>99.311972</ele>
        <time>2020-08-04T12:59:49.870Z</time>
      </trkpt>
      <trkpt lat="63.41617" lon="8.74752">
        <ele>99.880801</ele>
        <time>2020-08-04T12:59:56.883Z</time>
      </trkpt>
      <trkpt lat="63.41623" lon="8.74767">
        <ele>100.45317</ele>
        <time>2020-08-04T13:00:03.898Z</time>
      </trkpt>
      <trkpt lat="63.41629" lon="8.74782">
        <ele>101.027707</ele>
        <time>2020-08-04T13:00:10.888Z</time>
      </trkpt>
      <trkpt lat="63.41638" lon="8.7479">
        <ele>101.645458</ele>
        <time>2020-08-04T13:00:17.890Z</time>
      </trkpt>
      <trkpt lat="63.41648" lon="8.74797">
        <ele>102.261638</ele>
        <time>2020-08-04T13:00:23.900Z</time>
      </trkpt>
      <trkpt lat="63.41655" lon="8.74815">
        <ele>102.917014</ele>
        <time>2020-08-04T13:11:30.903Z</time>
      </trkpt>
      <trkpt lat="63.41659" lon="8.74835">
        <ele>103.557462</ele>
        <time>2020-08-04T13:11:36.877Z</time>
      </trkpt>
      <trkpt lat="63.4166" lon="8.74856">
        <ele>104.143108</ele>
        <time>2020-08-04T13:11:42.863Z</time>
      </trkpt>
      <trkpt lat="63.41665" lon="8.74877">
        <ele>104.783378</ele>
        <time>2020-08-04T13:11:48.882Z</time>
      </trkpt>
      <trkpt lat="63.41672" lon="8.74894">
        <ele>105.426223</ele>
        <time>2020-08-04T13:11:54.896Z</time>
      </trkpt>
      <trkpt lat="63.41691" lon="8.74952">
        <ele>107.444416</ele>
        <time>2020-08-04T13:12:12.883Z</time>
      </trkpt>
      <trkpt lat="63.41697" lon="8.74969">
        <ele>108.059545</ele>
        <time>2020-08-04T13:12:17.890Z</time>
      </trkpt>
      <trkpt lat="63.41704" lon="8.74986">
        <ele>108.493598</ele>
        <time>2020-08-04T13:12:22.895Z</time>
      </trkpt>
      <trkpt lat="63.41709" lon="8.75002">
        <ele>108.796471</ele>
        <time>2020-08-04T13:12:27.871Z</time>
      </trkpt>
      <trkpt lat="63.41715" lon="8.75021">
        <ele>109.131253</ele>
        <time>2020-08-04T13:12:32.880Z</time>
      </trkpt>
      <trkpt lat="63.41721" lon="8.7504">
        <ele>109.491552</ele>
        <time>2020-08-04T13:12:37.882Z</time>
      </trkpt>
      <trkpt lat="63.41728" lon="8.75057">
        <ele>109.826036</ele>
        <time>2020-08-04T13:12:42.871Z</time>
      </trkpt>
      <trkpt lat="63.41734" lon="8.75075">
        <ele>110.167733</ele>
        <time>2020-08-04T13:12:47.875Z</time>
      </trkpt>
      <trkpt lat="63.41741" lon="8.75093">
        <ele>110.509163</ele>
        <time>2020-08-04T13:12:52.913Z</time>
      </trkpt>
      <trkpt lat="63.41748" lon="8.75112">
        <ele>110.874859</ele>
        <time>2020-08-04T13:12:57.872Z</time>
      </trkpt>
      <trkpt lat="63.41754" lon="8.75131">
        <ele>111.232472</ele>
        <time>2020-08-04T13:13:02.899Z</time>
      </trkpt>
      <trkpt lat="63.41761" lon="8.75148">
        <ele>111.57008</ele>
        <time>2020-08-04T13:13:07.887Z</time>
      </trkpt>
      <trkpt lat="63.41766" lon="8.75166">
        <ele>111.905288</ele>
        <time>2020-08-04T13:13:12.888Z</time>
      </trkpt>
      <trkpt lat="63.41773" lon="8.75184">
        <ele>112.237642</ele>
        <time>2020-08-04T13:13:17.885Z</time>
      </trkpt>
      <trkpt lat="63.41781" lon="8.75198">
        <ele>112.580725</ele>
        <time>2020-08-04T13:13:22.872Z</time>
      </trkpt>
      <trkpt lat="63.41788" lon="8.75213">
        <ele>112.9172</ele>
        <time>2020-08-04T13:13:27.866Z</time>
      </trkpt>
      <trkpt lat="63.41796" lon="8.75228">
        <ele>113.275557</ele>
        <time>2020-08-04T13:13:32.871Z</time>
      </trkpt>
      <trkpt lat="63.41805" lon="8.7524">
        <ele>113.615934</ele>
        <time>2020-08-04T13:13:36.904Z</time>
      </trkpt>
      <trkpt lat="63.41815" lon="8.75253">
        <ele>114.006095</ele>
        <time>2020-08-04T13:13:40.884Z</time>
      </trkpt>
      <trkpt lat="63.41824" lon="8.75265">
        <ele>114.195681</ele>
        <time>2020-08-04T13:13:43.871Z</time>
      </trkpt>
      <trkpt lat="63.41834" lon="8.75277">
        <ele>113.613405</ele>
        <time>2020-08-04T13:13:46.891Z</time>
      </trkpt>
      <trkpt lat="63.41846" lon="8.7529">
        <ele>112.949141</ele>
        <time>2020-08-04T13:13:49.883Z</time>
      </trkpt>
      <trkpt lat="63.41855" lon="8.753">
        <ele>112.3992</ele>
        <time>2020-08-04T13:13:51.902Z</time>
      </trkpt>
      <trkpt lat="63.41866" lon="8.7531">
        <ele>111.787373</ele>
        <time>2020-08-04T13:13:53.884Z</time>
      </trkpt>
      <trkpt lat="63.41877" lon="8.75323">
        <ele>111.145554</ele>
        <time>2020-08-04T13:13:55.883Z</time>
      </trkpt>
      <trkpt lat="63.41888" lon="8.7534">
        <ele>110.477349</ele>
        <time>2020-08-04T13:13:57.871Z</time>
      </trkpt>
      <trkpt lat="63.41899" lon="8.75361">
        <ele>109.728307</ele>
        <time>2020-08-04T13:13:59.896Z</time>
      </trkpt>
      <trkpt lat="63.4191" lon="8.75388">
        <ele>108.907244</ele>
        <time>2020-08-04T13:14:01.920Z</time>
      </trkpt>
      <trkpt lat="63.41919" lon="8.7542">
        <ele>108.042368</ele>
        <time>2020-08-04T13:14:03.877Z</time>
      </trkpt>
      <trkpt lat="63.41922" lon="8.75439">
        <ele>107.570719</ele>
        <time>2020-08-04T13:14:04.879Z</time>
      </trkpt>
      <trkpt lat="63.41925" lon="8.7546">
        <ele>107.070563</ele>
        <time>2020-08-04T13:14:05.879Z</time>
      </trkpt>
      <trkpt lat="63.41926" lon="8.75483">
        <ele>106.540022</ele>
        <time>2020-08-04T13:14:06.884Z</time>
      </trkpt>
      <trkpt lat="63.41926" lon="8.75508">
        <ele>105.970543</ele>
        <time>2020-08-04T13:14:07.916Z</time>
      </trkpt>
      <trkpt lat="63.41926" lon="8.75533">
        <ele>105.380257</ele>
        <time>2020-08-04T13:14:08.907Z</time>
      </trkpt>
      <trkpt lat="63.41925" lon="8.75559">
        <ele>104.734811</ele>
        <time>2020-08-04T13:14:09.921Z</time>
      </trkpt>
      <trkpt lat="63.41924" lon="8.75586">
        <ele>104.004188</ele>
        <time>2020-08-04T13:14:10.891Z</time>
      </trkpt>
      <trkpt lat="63.41923" lon="8.75615">
        <ele>103.225439</ele>
        <time>2020-08-04T13:14:11.903Z</time>
      </trkpt>
      <trkpt lat="63.41921" lon="8.75644">
        <ele>102.414984</ele>
        <time>2020-08-04T13:14:12.881Z</time>
      </trkpt>
      <trkpt lat="63.4192" lon="8.75675">
        <ele>101.587144</ele>
        <time>2020-08-04T13:14:13.895Z</time>
      </trkpt>
      <trkpt lat="63.41919" lon="8.75706">
        <ele>100.744279</ele>
        <time>2020-08-04T13:14:14.896Z</time>
      </trkpt>
      <trkpt lat="63.41919" lon="8.75737">
        <ele>99.891116</ele>
        <time>2020-08-04T13:14:15.869Z</time>
      </trkpt>
      <trkpt lat="63.41921" lon="8.75769">
        <ele>99.034997</ele>
        <time>2020-08-04T13:14:16.881Z</time>
      </trkpt>
      <trkpt lat="63.41924" lon="8.758">
        <ele>98.183129</ele>
        <time>2020-08-04T13:14:17.872Z</time>
      </trkpt>
      <trkpt lat="63.41928" lon="8.7583">
        <ele>97.335821</ele>
        <time>2020-08-04T13:14:18.899Z</time>
      </trkpt>
      <trkpt lat="63.41933" lon="8.75859">
        <ele>96.506321</ele>
        <time>2020-08-04T13:14:19.891Z</time>
      </trkpt>
      <trkpt lat="63.41937" lon="8.75887">
        <ele>95.695935</ele>
        <time>2020-08-04T13:14:20.887Z</time>
      </trkpt>
      <trkpt lat="63.41941" lon="8.75914">
        <ele>94.913069</ele>
        <time>2020-08-04T13:14:21.881Z</time>
      </trkpt>
      <trkpt lat="63.41946" lon="8.7594">
        <ele>94.168133</ele>
        <time>2020-08-04T13:14:22.883Z</time>
      </trkpt>
      <trkpt lat="63.41949" lon="8.75966">
        <ele>93.742364</ele>
        <time>2020-08-04T13:14:23.905Z</time>
      </trkpt>
      <trkpt lat="63.41952" lon="8.75991">
        <ele>93.340565</ele>
        <time>2020-08-04T13:14:24.911Z</time>
      </trkpt>
      <trkpt lat="63.41955" lon="8.76014">
        <ele>92.970814</ele>
        <time>2020-08-04T13:14:25.912Z</time>
      </trkpt>
      <trkpt lat="63.41958" lon="8.76036">
        <ele>92.61106</ele>
        <time>2020-08-04T13:14:26.874Z</time>
      </trkpt>
      <trkpt lat="63.4196" lon="8.76057">
        <ele>92.268834</ele>
        <time>2020-08-04T13:14:27.867Z</time>
      </trkpt>
      <trkpt lat="63.41963" lon="8.76077">
        <ele>91.940606</ele>
        <time>2020-08-04T13:14:28.905Z</time>
      </trkpt>
      <trkpt lat="63.41969" lon="8.76114">
        <ele>91.329946</ele>
        <time>2020-08-04T13:14:30.867Z</time>
      </trkpt>
      <trkpt lat="63.41974" lon="8.76148">
        <ele>90.766806</ele>
        <time>2020-08-04T13:14:32.910Z</time>
      </trkpt>
      <trkpt lat="63.41978" lon="8.7618">
        <ele>90.250495</ele>
        <time>2020-08-04T13:14:34.869Z</time>
      </trkpt>
      <trkpt lat="63.41982" lon="8.7621">
        <ele>89.75859</ele>
        <time>2020-08-04T13:14:36.927Z</time>
      </trkpt>
      <trkpt lat="63.41987" lon="8.76238">
        <ele>89.279288</ele>
        <time>2020-08-04T13:14:38.882Z</time>
      </trkpt>
      <trkpt lat="63.41993" lon="8.76265">
        <ele>88.811752</ele>
        <time>2020-08-04T13:14:40.884Z</time>
      </trkpt>
      <trkpt lat="63.41998" lon="8.76292">
        <ele>88.361405</ele>
        <time>2020-08-04T13:14:42.892Z</time>
      </trkpt>
      <trkpt lat="63.42003" lon="8.76316">
        <ele>87.930687</ele>
        <time>2020-08-04T13:14:44.887Z</time>
      </trkpt>
      <trkpt lat="63.4201" lon="8.76339">
        <ele>88.459113</ele>
        <time>2020-08-04T13:14:46.886Z</time>
      </trkpt>
      <trkpt lat="63.42016" lon="8.76361">
        <ele>89.085435</ele>
        <time>2020-08-04T13:14:48.918Z</time>
      </trkpt>
      <trkpt lat="63.42023" lon="8.76382">
        <ele>89.709775</ele>
        <time>2020-08-04T13:14:50.887Z</time>
      </trkpt>
      <trkpt lat="63.42029" lon="8.76402">
        <ele>90.305505</ele>
        <time>2020-08-04T13:14:52.888Z</time>
      </trkpt>
      <trkpt lat="63.42035" lon="8.76422">
        <ele>90.87795</ele>
        <time>2020-08-04T13:14:54.885Z</time>
      </trkpt>
      <trkpt lat="63.42042" lon="8.7644">
        <ele>91.435451</ele>
        <time>2020-08-04T13:14:56.886Z</time>
      </trkpt>
      <trkpt lat="63.42048" lon="8.76457">
        <ele>91.950358</ele>
        <time>2020-08-04T13:14:58.901Z</time>
      </trkpt>
      <trkpt lat="63.42055" lon="8.76479">
        <ele>92.600031</ele>
        <time>2020-08-04T13:15:01.885Z</time>
      </trkpt>
      <trkpt lat="63.42062" lon="8.76495">
        <ele>93.140619</ele>
        <time>2020-08-04T13:15:04.883Z</time>
      </trkpt>
      <trkpt lat="63.4207" lon="8.76514">
        <ele>93.763655</ele>
        <time>2020-08-04T13:15:08.880Z</time>
      </trkpt>
      <trkpt lat="63.42076" lon="8.76532">
        <ele>94.324048</ele>
        <time>2020-08-04T13:15:12.902Z</time>
      </trkpt>
      <trkpt lat="63.42082" lon="8.76549">
        <ele>94.835172</ele>
        <time>2020-08-04T13:15:16.881Z</time>
      </trkpt>
      <trkpt lat="63.42089" lon="8.76567">
        <ele>95.410279</ele>
        <time>2020-08-04T13:15:22.883Z</time>
      </trkpt>
      <trkpt lat="63.42096" lon="8.76582">
        <ele>95.926615</ele>
        <time>2020-08-04T13:15:27.885Z</time>
      </trkpt>
      <trkpt lat="63.42102" lon="8.76597">
        <ele>96.426027</ele>
        <time>2020-08-04T13:15:32.880Z</time>
      </trkpt>
      <trkpt lat="63.42109" lon="8.76614">
        <ele>96.96683</ele>
        <time>2020-08-04T13:15:38.870Z</time>
      </trkpt>
      <trkpt lat="63.42116" lon="8.76631">
        <ele>97.498461</ele>
        <time>2020-08-04T13:15:44.876Z</time>
      </trkpt>
      <trkpt lat="63.42121" lon="8.76649">
        <ele>97.931205</ele>
        <time>2020-08-04T13:15:50.869Z</time>
      </trkpt>
      <trkpt lat="63.42128" lon="8.76665">
        <ele>98.381969</ele>
        <time>2020-08-04T13:15:56.920Z</time>
      </trkpt>
      <trkpt lat="63.42136" lon="8.76682">
        <ele>98.851476</ele>
        <time>2020-08-04T13:16:02.883Z</time>
      </trkpt>
      <trkpt lat="63.42142" lon="8.76698">
        <ele>99.271256</ele>
        <time>2020-08-04T13:16:07.882Z</time>
      </trkpt>
      <trkpt lat="63.42148" lon="8.76714">
        <ele>99.667421</ele>
        <time>2020-08-04T13:16:12.887Z</time>
      </trkpt>
      <trkpt lat="63.42154" lon="8.76734">
        <ele>100.144063</ele>
        <time>2020-08-04T13:16:18.882Z</time>
      </trkpt>
      <trkpt lat="63.42161" lon="8.76751">
        <ele>100.578439</ele>
        <time>2020-08-04T13:16:23.916Z</time>
      </trkpt>
      <trkpt lat="63.42167" lon="8.76768">
        <ele>101.004987</ele>
        <time>2020-08-04T13:16:29.883Z</time>
      </trkpt>
      <trkpt lat="63.42173" lon="8.76786">
        <ele>101.434677</ele>
        <time>2020-08-04T13:16:35.890Z</time>
      </trkpt>
      <trkpt lat="63.42177" lon="8.76804">
        <ele>101.840197</ele>
        <time>2020-08-04T13:16:41.900Z</time>
      </trkpt>
      <trkpt lat="63.4218" lon="8.76824">
        <ele>102.244573</ele>
        <time>2020-08-04T13:16:47.944Z</time>
      </trkpt>
      <trkpt lat="63.42184" lon="8.76842">
        <ele>102.637367</ele>
        <time>2020-08-04T13:16:53.894Z</time>
      </trkpt>
      <trkpt lat="63.42188" lon="8.76862">
        <ele>103.080438</ele>
        <time>2020-08-04T13:16:59.896Z</time>
      </trkpt>
      <trkpt lat="63.42193" lon="8.76883">
        <ele>103.525108</ele>
        <time>2020-08-04T13:17:05.943Z</time>
      </trkpt>
      <trkpt lat="63.42196" lon="8.76903">
        <ele>103.9538</ele>
        <time>2020-08-04T13:17:10.922Z</time>
      </trkpt>
      <trkpt lat="63.422" lon="8.76922">
        <ele>104.36455</ele>
        <time>2020-08-04T13:17:14.883Z</time>
      </trkpt>
      <trkpt lat="63.42203" lon="8.76943">
        <ele>104.791846</ele>
        <time>2020-08-04T13:17:18.895Z</time>
      </trkpt>
      <trkpt lat="63.42207" lon="8.76963">
        <ele>105.205407</ele>
        <time>2020-08-04T13:17:22.899Z</time>
      </trkpt>
      <trkpt lat="63.42209" lon="8.76983">
        <ele>105.245438</ele>
        <time>2020-08-04T13:17:26.867Z</time>
      </trkpt>
      <trkpt lat="63.42211" lon="8.77004">
        <ele>104.925713</ele>
        <time>2020-08-04T13:17:30.869Z</time>
      </trkpt>
      <trkpt lat="63.42214" lon="8.77028">
        <ele>104.575923</ele>
        <time>2020-08-04T13:17:34.876Z</time>
      </trkpt>
      <trkpt lat="63.42217" lon="8.77049">
        <ele>104.254792</ele>
        <time>2020-08-04T13:17:37.901Z</time>
      </trkpt>
      <trkpt lat="63.4222" lon="8.77077">
        <ele>103.846025</ele>
        <time>2020-08-04T13:17:40.921Z</time>
      </trkpt>
      <trkpt lat="63.42221" lon="8.77098">
        <ele>103.533222</ele>
        <time>2020-08-04T13:17:42.890Z</time>
      </trkpt>
      <trkpt lat="63.42223" lon="8.77121">
        <ele>103.202638</ele>
        <time>2020-08-04T13:17:44.910Z</time>
      </trkpt>
      <trkpt lat="63.42226" lon="8.77147">
        <ele>102.81519</ele>
        <time>2020-08-04T13:17:46.876Z</time>
      </trkpt>
      <trkpt lat="63.42228" lon="8.77176">
        <ele>102.383275</ele>
        <time>2020-08-04T13:17:48.892Z</time>
      </trkpt>
      <trkpt lat="63.42231" lon="8.77208">
        <ele>101.913091</ele>
        <time>2020-08-04T13:17:50.877Z</time>
      </trkpt>
      <trkpt lat="63.42234" lon="8.77244">
        <ele>101.380334</ele>
        <time>2020-08-04T13:17:52.873Z</time>
      </trkpt>
      <trkpt lat="63.42237" lon="8.77284">
        <ele>100.789429</ele>
        <time>2020-08-04T13:17:54.880Z</time>
      </trkpt>
      <trkpt lat="63.42239" lon="8.77306">
        <ele>100.472464</ele>
        <time>2020-08-04T13:17:55.885Z</time>
      </trkpt>
      <trkpt lat="63.42241" lon="8.77329">
        <ele>100.137034</ele>
        <time>2020-08-04T13:17:56.912Z</time>
      </trkpt>
      <trkpt lat="63.42243" lon="8.77352">
        <ele>99.791646</ele>
        <time>2020-08-04T13:17:57.880Z</time>
      </trkpt>
      <trkpt lat="63.42245" lon="8.77377">
        <ele>99.219181</ele>
        <time>2020-08-04T13:17:58.882Z</time>
      </trkpt>
      <trkpt lat="63.42247" lon="8.77403">
        <ele>98.342812</ele>
        <time>2020-08-04T13:17:59.888Z</time>
      </trkpt>
      <trkpt lat="63.42249" lon="8.77429">
        <ele>97.460261</ele>
        <time>2020-08-04T13:18:00.869Z</time>
      </trkpt>
      <trkpt lat="63.4225" lon="8.77456">
        <ele>96.540097</ele>
        <time>2020-08-04T13:18:01.880Z</time>
      </trkpt>
      <trkpt lat="63.42252" lon="8.77484">
        <ele>95.593412</ele>
        <time>2020-08-04T13:18:02.912Z</time>
      </trkpt>
      <trkpt lat="63.42255" lon="8.77512">
        <ele>94.628554</ele>
        <time>2020-08-04T13:18:03.877Z</time>
      </trkpt>
      <trkpt lat="63.42257" lon="8.77541">
        <ele>93.650491</ele>
        <time>2020-08-04T13:18:04.887Z</time>
      </trkpt>
      <trkpt lat="63.42259" lon="8.7757">
        <ele>92.647989</ele>
        <time>2020-08-04T13:18:05.916Z</time>
      </trkpt>
      <trkpt lat="63.42262" lon="8.776">
        <ele>91.638886</ele>
        <time>2020-08-04T13:18:06.921Z</time>
      </trkpt>
      <trkpt lat="63.42264" lon="8.7763">
        <ele>90.61054</ele>
        <time>2020-08-04T13:18:07.881Z</time>
      </trkpt>
      <trkpt lat="63.42267" lon="8.7766">
        <ele>89.564573</ele>
        <time>2020-08-04T13:18:08.878Z</time>
      </trkpt>
      <trkpt lat="63.4227" lon="8.7769">
        <ele>88.536565</ele>
        <time>2020-08-04T13:18:09.910Z</time>
      </trkpt>
      <trkpt lat="63.42274" lon="8.7772">
        <ele>87.493324</ele>
        <time>2020-08-04T13:18:10.882Z</time>
      </trkpt>
      <trkpt lat="63.42278" lon="8.77751">
        <ele>86.430379</ele>
        <time>2020-08-04T13:18:11.932Z</time>
      </trkpt>
      <trkpt lat="63.42282" lon="8.77782">
        <ele>85.374906</ele>
        <time>2020-08-04T13:18:12.886Z</time>
      </trkpt>
      <trkpt lat="63.42287" lon="8.77813">
        <ele>84.32072</ele>
        <time>2020-08-04T13:18:13.896Z</time>
      </trkpt>
      <trkpt lat="63.42292" lon="8.77846">
        <ele>83.239213</ele>
        <time>2020-08-04T13:18:14.883Z</time>
      </trkpt>
      <trkpt lat="63.42297" lon="8.77878">
        <ele>82.153252</ele>
        <time>2020-08-04T13:18:15.884Z</time>
      </trkpt>
      <trkpt lat="63.42304" lon="8.77909">
        <ele>81.051514</ele>
        <time>2020-08-04T13:18:16.910Z</time>
      </trkpt>
      <trkpt lat="63.4231" lon="8.77941">
        <ele>79.935254</ele>
        <time>2020-08-04T13:18:17.887Z</time>
      </trkpt>
      <trkpt lat="63.42317" lon="8.77973">
        <ele>78.839269</ele>
        <time>2020-08-04T13:18:18.882Z</time>
      </trkpt>
      <trkpt lat="63.42323" lon="8.78005">
        <ele>77.725844</ele>
        <time>2020-08-04T13:18:19.885Z</time>
      </trkpt>
      <trkpt lat="63.42329" lon="8.78037">
        <ele>76.641122</ele>
        <time>2020-08-04T13:18:20.895Z</time>
      </trkpt>
      <trkpt lat="63.42334" lon="8.78068">
        <ele>75.583423</ele>
        <time>2020-08-04T13:18:21.869Z</time>
      </trkpt>
      <trkpt lat="63.42338" lon="8.78099">
        <ele>74.55617</ele>
        <time>2020-08-04T13:18:22.880Z</time>
      </trkpt>
      <trkpt lat="63.42341" lon="8.78129">
        <ele>73.569928</ele>
        <time>2020-08-04T13:18:23.909Z</time>
      </trkpt>
      <trkpt lat="63.42344" lon="8.78159">
        <ele>72.742806</ele>
        <time>2020-08-04T13:18:24.908Z</time>
      </trkpt>
      <trkpt lat="63.42346" lon="8.7819">
        <ele>71.948756</ele>
        <time>2020-08-04T13:18:25.881Z</time>
      </trkpt>
      <trkpt lat="63.42348" lon="8.7822">
        <ele>71.163318</ele>
        <time>2020-08-04T13:18:26.893Z</time>
      </trkpt>
      <trkpt lat="63.42348" lon="8.7825">
        <ele>70.381695</ele>
        <time>2020-08-04T13:18:27.897Z</time>
      </trkpt>
      <trkpt lat="63.42348" lon="8.7828">
        <ele>69.613306</ele>
        <time>2020-08-04T13:18:28.873Z</time>
      </trkpt>
      <trkpt lat="63.42348" lon="8.7831">
        <ele>68.83718</ele>
        <time>2020-08-04T13:18:29.879Z</time>
      </trkpt>
      <trkpt lat="63.42348" lon="8.7834">
        <ele>68.061034</ele>
        <time>2020-08-04T13:18:30.883Z</time>
      </trkpt>
      <trkpt lat="63.42348" lon="8.78371">
        <ele>67.271826</ele>
        <time>2020-08-04T13:18:31.888Z</time>
      </trkpt>
      <trkpt lat="63.42349" lon="8.78402">
        <ele>66.479895</ele>
        <time>2020-08-04T13:18:32.880Z</time>
      </trkpt>
      <trkpt lat="63.42349" lon="8.78433">
        <ele>65.675221</ele>
        <time>2020-08-04T13:18:33.910Z</time>
      </trkpt>
      <trkpt lat="63.42349" lon="8.78464">
        <ele>64.870732</ele>
        <time>2020-08-04T13:18:34.889Z</time>
      </trkpt>
      <trkpt lat="63.42349" lon="8.78496">
        <ele>64.061066</ele>
        <time>2020-08-04T13:18:35.892Z</time>
      </trkpt>
      <trkpt lat="63.42349" lon="8.78527">
        <ele>63.243686</ele>
        <time>2020-08-04T13:18:36.917Z</time>
      </trkpt>
      <trkpt lat="63.42349" lon="8.78558">
        <ele>62.642394</ele>
        <time>2020-08-04T13:18:37.879Z</time>
      </trkpt>
      <trkpt lat="63.42349" lon="8.78589">
        <ele>62.128299</ele>
        <time>2020-08-04T13:18:38.911Z</time>
      </trkpt>
      <trkpt lat="63.42349" lon="8.7862">
        <ele>61.62247</ele>
        <time>2020-08-04T13:18:39.919Z</time>
      </trkpt>
      <trkpt lat="63.42348" lon="8.7865">
        <ele>61.131405</ele>
        <time>2020-08-04T13:18:40.871Z</time>
      </trkpt>
      <trkpt lat="63.42348" lon="8.78678">
        <ele>60.658519</ele>
        <time>2020-08-04T13:18:41.918Z</time>
      </trkpt>
      <trkpt lat="63.42348" lon="8.78705">
        <ele>60.211966</ele>
        <time>2020-08-04T13:18:42.880Z</time>
      </trkpt>
      <trkpt lat="63.42347" lon="8.78731">
        <ele>59.780139</ele>
        <time>2020-08-04T13:18:43.885Z</time>
      </trkpt>
      <trkpt lat="63.42346" lon="8.78758">
        <ele>59.344397</ele>
        <time>2020-08-04T13:18:44.880Z</time>
      </trkpt>
      <trkpt lat="63.42345" lon="8.78783">
        <ele>58.91727</ele>
        <time>2020-08-04T13:18:45.895Z</time>
      </trkpt>
      <trkpt lat="63.42344" lon="8.78809">
        <ele>58.491786</ele>
        <time>2020-08-04T13:18:46.923Z</time>
      </trkpt>
      <trkpt lat="63.42343" lon="8.78835">
        <ele>58.064259</ele>
        <time>2020-08-04T13:18:47.887Z</time>
      </trkpt>
      <trkpt lat="63.42341" lon="8.7886">
        <ele>57.63753</ele>
        <time>2020-08-04T13:18:48.872Z</time>
      </trkpt>
      <trkpt lat="63.42339" lon="8.78886">
        <ele>57.204702</ele>
        <time>2020-08-04T13:18:49.873Z</time>
      </trkpt>
      <trkpt lat="63.42337" lon="8.78912">
        <ele>56.768616</ele>
        <time>2020-08-04T13:18:50.911Z</time>
      </trkpt>
      <trkpt lat="63.42335" lon="8.78939">
        <ele>56.335707</ele>
        <time>2020-08-04T13:18:51.900Z</time>
      </trkpt>
      <trkpt lat="63.42333" lon="8.78966">
        <ele>56.067652</ele>
        <time>2020-08-04T13:18:52.879Z</time>
      </trkpt>
      <trkpt lat="63.42331" lon="8.78994">
        <ele>55.7942</ele>
        <time>2020-08-04T13:18:53.894Z</time>
      </trkpt>
      <trkpt lat="63.42329" lon="8.79023">
        <ele>55.510382</ele>
        <time>2020-08-04T13:18:54.894Z</time>
      </trkpt>
      <trkpt lat="63.42326" lon="8.79053">
        <ele>55.214778</ele>
        <time>2020-08-04T13:18:55.890Z</time>
      </trkpt>
      <trkpt lat="63.42324" lon="8.79083">
        <ele>54.919561</ele>
        <time>2020-08-04T13:18:56.877Z</time>
      </trkpt>
      <trkpt lat="63.42322" lon="8.79113">
        <ele>54.624714</ele>
        <time>2020-08-04T13:18:57.943Z</time>
      </trkpt>
      <trkpt lat="63.4232" lon="8.79144">
        <ele>54.325791</ele>
        <time>2020-08-04T13:18:58.900Z</time>
      </trkpt>
      <trkpt lat="63.42319" lon="8.79174">
        <ele>54.03985</ele>
        <time>2020-08-04T13:18:59.929Z</time>
      </trkpt>
      <trkpt lat="63.4232" lon="8.79202">
        <ele>53.767486</ele>
        <time>2020-08-04T13:19:00.902Z</time>
      </trkpt>
      <trkpt lat="63.42322" lon="8.79229">
        <ele>53.504773</ele>
        <time>2020-08-04T13:19:01.882Z</time>
      </trkpt>
      <trkpt lat="63.42325" lon="8.79253">
        <ele>53.257266</ele>
        <time>2020-08-04T13:19:02.871Z</time>
      </trkpt>
      <trkpt lat="63.42329" lon="8.79277">
        <ele>53.019441</ele>
        <time>2020-08-04T13:19:03.888Z</time>
      </trkpt>
      <trkpt lat="63.42332" lon="8.79299">
        <ele>52.79607</ele>
        <time>2020-08-04T13:19:04.883Z</time>
      </trkpt>
      <trkpt lat="63.42335" lon="8.79319">
        <ele>52.589642</ele>
        <time>2020-08-04T13:19:05.883Z</time>
      </trkpt>
      <trkpt lat="63.4234" lon="8.79355">
        <ele>53.204063</ele>
        <time>2020-08-04T13:19:07.886Z</time>
      </trkpt>
      <trkpt lat="63.42346" lon="8.79384">
        <ele>54.115062</ele>
        <time>2020-08-04T13:19:09.877Z</time>
      </trkpt>
      <trkpt lat="63.4235" lon="8.79409">
        <ele>54.875543</ele>
        <time>2020-08-04T13:19:11.896Z</time>
      </trkpt>
      <trkpt lat="63.42354" lon="8.79436">
        <ele>55.675666</ele>
        <time>2020-08-04T13:19:14.868Z</time>
      </trkpt>
      <trkpt lat="63.42357" lon="8.79456">
        <ele>56.277469</ele>
        <time>2020-08-04T13:19:17.893Z</time>
      </trkpt>
      <trkpt lat="63.42361" lon="8.79478">
        <ele>56.94268</ele>
        <time>2020-08-04T13:19:21.918Z</time>
      </trkpt>
      <trkpt lat="63.42363" lon="8.79499">
        <ele>57.561132</ele>
        <time>2020-08-04T13:19:26.887Z</time>
      </trkpt>
      <trkpt lat="63.42365" lon="8.79521">
        <ele>58.187857</ele>
        <time>2020-08-04T13:19:31.873Z</time>
      </trkpt>
      <trkpt lat="63.42367" lon="8.79541">
        <ele>58.791643</ele>
        <time>2020-08-04T13:19:36.901Z</time>
      </trkpt>
      <trkpt lat="63.42371" lon="8.79564">
        <ele>59.478002</ele>
        <time>2020-08-04T13:19:42.884Z</time>
      </trkpt>
      <trkpt lat="63.42374" lon="8.79584">
        <ele>60.066059</ele>
        <time>2020-08-04T13:19:47.898Z</time>
      </trkpt>
      <trkpt lat="63.42376" lon="8.79603">
        <ele>60.642476</ele>
        <time>2020-08-04T13:19:52.906Z</time>
      </trkpt>
      <trkpt lat="63.42379" lon="8.79623">
        <ele>61.216161</ele>
        <time>2020-08-04T13:19:57.909Z</time>
      </trkpt>
      <trkpt lat="63.42382" lon="8.79644">
        <ele>61.839876</ele>
        <time>2020-08-04T13:20:02.891Z</time>
      </trkpt>
      <trkpt lat="63.42385" lon="8.79665">
        <ele>62.469003</ele>
        <time>2020-08-04T13:20:07.886Z</time>
      </trkpt>
      <trkpt lat="63.42388" lon="8.79688">
        <ele>63.13983</ele>
        <time>2020-08-04T13:20:12.868Z</time>
      </trkpt>
      <trkpt lat="63.4239" lon="8.79709">
        <ele>63.76345</ele>
        <time>2020-08-04T13:20:17.889Z</time>
      </trkpt>
      <trkpt lat="63.42393" lon="8.79733">
        <ele>64.259446</ele>
        <time>2020-08-04T13:20:22.892Z</time>
      </trkpt>
      <trkpt lat="63.42397" lon="8.79756">
        <ele>64.697471</ele>
        <time>2020-08-04T13:20:27.898Z</time>
      </trkpt>
      <trkpt lat="63.42401" lon="8.79775">
        <ele>65.064186</ele>
        <time>2020-08-04T13:20:31.883Z</time>
      </trkpt>
      <trkpt lat="63.42404" lon="8.79795">
        <ele>65.442707</ele>
        <time>2020-08-04T13:20:35.895Z</time>
      </trkpt>
      <trkpt lat="63.42407" lon="8.79815">
        <ele>65.815125</ele>
        <time>2020-08-04T13:20:39.881Z</time>
      </trkpt>
      <trkpt lat="63.42411" lon="8.79834">
        <ele>66.181774</ele>
        <time>2020-08-04T13:20:43.881Z</time>
      </trkpt>
      <trkpt lat="63.42415" lon="8.79852">
        <ele>66.535446</ele>
        <time>2020-08-04T13:20:47.881Z</time>
      </trkpt>
      <trkpt lat="63.42418" lon="8.79874">
        <ele>66.962559</ele>
        <time>2020-08-04T13:20:52.867Z</time>
      </trkpt>
      <trkpt lat="63.42424" lon="8.79895">
        <ele>67.38906</ele>
        <time>2020-08-04T13:20:57.870Z</time>
      </trkpt>
      <trkpt lat="63.42428" lon="8.79914">
        <ele>67.776406</ele>
        <time>2020-08-04T13:21:01.907Z</time>
      </trkpt>
      <trkpt lat="63.42433" lon="8.79932">
        <ele>68.135567</ele>
        <time>2020-08-04T13:21:05.875Z</time>
      </trkpt>
      <trkpt lat="63.42438" lon="8.79951">
        <ele>68.541567</ele>
        <time>2020-08-04T13:21:10.894Z</time>
      </trkpt>
      <trkpt lat="63.42443" lon="8.79972">
        <ele>68.965369</ele>
        <time>2020-08-04T13:21:15.885Z</time>
      </trkpt>
      <trkpt lat="63.42449" lon="8.79993">
        <ele>69.401497</ele>
        <time>2020-08-04T13:21:20.863Z</time>
      </trkpt>
      <trkpt lat="63.42454" lon="8.80012">
        <ele>69.793189</ele>
        <time>2020-08-04T13:21:24.912Z</time>
      </trkpt>
      <trkpt lat="63.42459" lon="8.80033">
        <ele>70.229383</ele>
        <time>2020-08-04T13:21:28.892Z</time>
      </trkpt>
      <trkpt lat="63.42465" lon="8.80055">
        <ele>70.676051</ele>
        <time>2020-08-04T13:21:32.909Z</time>
      </trkpt>
      <trkpt lat="63.4247" lon="8.80074">
        <ele>71.043723</ele>
        <time>2020-08-04T13:21:35.883Z</time>
      </trkpt>
      <trkpt lat="63.42476" lon="8.80093">
        <ele>71.07055</ele>
        <time>2020-08-04T13:21:38.892Z</time>
      </trkpt>
      <trkpt lat="63.4248" lon="8.80111">
        <ele>71.096314</ele>
        <time>2020-08-04T13:21:41.938Z</time>
      </trkpt>
      <trkpt lat="63.42485" lon="8.80131">
        <ele>71.122867</ele>
        <time>2020-08-04T13:21:44.872Z</time>
      </trkpt>
      <trkpt lat="63.4249" lon="8.80149">
        <ele>71.14941</ele>
        <time>2020-08-04T13:21:47.885Z</time>
      </trkpt>
      <trkpt lat="63.42495" lon="8.80169">
        <ele>71.17581</ele>
        <time>2020-08-04T13:21:50.877Z</time>
      </trkpt>
      <trkpt lat="63.425" lon="8.80188">
        <ele>71.202215</ele>
        <time>2020-08-04T13:21:53.900Z</time>
      </trkpt>
      <trkpt lat="63.42505" lon="8.80209">
        <ele>71.231721</ele>
        <time>2020-08-04T13:21:56.913Z</time>
      </trkpt>
      <trkpt lat="63.42511" lon="8.80232">
        <ele>71.26445</ele>
        <time>2020-08-04T13:21:59.899Z</time>
      </trkpt>
      <trkpt lat="63.42517" lon="8.80258">
        <ele>71.298894</ele>
        <time>2020-08-04T13:22:02.879Z</time>
      </trkpt>
      <trkpt lat="63.42523" lon="8.80282">
        <ele>71.332125</ele>
        <time>2020-08-04T13:22:05.947Z</time>
      </trkpt>
      <trkpt lat="63.42528" lon="8.80306">
        <ele>71.36491</ele>
        <time>2020-08-04T13:22:08.887Z</time>
      </trkpt>
      <trkpt lat="63.42534" lon="8.8033">
        <ele>71.397113</ele>
        <time>2020-08-04T13:22:11.889Z</time>
      </trkpt>
      <trkpt lat="63.42539" lon="8.80355">
        <ele>71.430178</ele>
        <time>2020-08-04T13:22:14.903Z</time>
      </trkpt>
      <trkpt lat="63.42544" lon="8.80381">
        <ele>71.465015</ele>
        <time>2020-08-04T13:22:17.888Z</time>
      </trkpt>
      <trkpt lat="63.42548" lon="8.804">
        <ele>71.49003</ele>
        <time>2020-08-04T13:22:19.886Z</time>
      </trkpt>
      <trkpt lat="63.42553" lon="8.80419">
        <ele>71.515843</ele>
        <time>2020-08-04T13:22:21.899Z</time>
      </trkpt>
      <trkpt lat="63.42557" lon="8.80438">
        <ele>71.338862</ele>
        <time>2020-08-04T13:22:23.915Z</time>
      </trkpt>
      <trkpt lat="63.42562" lon="8.80458">
        <ele>71.004676</ele>
        <time>2020-08-04T13:22:25.899Z</time>
      </trkpt>
      <trkpt lat="63.42567" lon="8.8048">
        <ele>70.647139</ele>
        <time>2020-08-04T13:22:27.904Z</time>
      </trkpt>
      <trkpt lat="63.42571" lon="8.80502">
        <ele>70.284653</ele>
        <time>2020-08-04T13:22:29.902Z</time>
      </trkpt>
      <trkpt lat="63.42577" lon="8.80526">
        <ele>69.892265</ele>
        <time>2020-08-04T13:22:31.883Z</time>
      </trkpt>
      <trkpt lat="63.42582" lon="8.8055">
        <ele>69.49335</ele>
        <time>2020-08-04T13:22:33.898Z</time>
      </trkpt>
      <trkpt lat="63.42587" lon="8.80574">
        <ele>69.095853</ele>
        <time>2020-08-04T13:22:35.900Z</time>
      </trkpt>
      <trkpt lat="63.42593" lon="8.80601">
        <ele>68.660545</ele>
        <time>2020-08-04T13:22:37.887Z</time>
      </trkpt>
      <trkpt lat="63.42598" lon="8.80629">
        <ele>68.200924</ele>
        <time>2020-08-04T13:22:39.901Z</time>
      </trkpt>
      <trkpt lat="63.42604" lon="8.80658">
        <ele>67.730496</ele>
        <time>2020-08-04T13:22:41.910Z</time>
      </trkpt>
      <trkpt lat="63.4261" lon="8.80688">
        <ele>67.241107</ele>
        <time>2020-08-04T13:22:43.895Z</time>
      </trkpt>
      <trkpt lat="63.42616" lon="8.80719">
        <ele>66.748955</ele>
        <time>2020-08-04T13:22:45.883Z</time>
      </trkpt>
      <trkpt lat="63.42623" lon="8.80749">
        <ele>66.244433</ele>
        <time>2020-08-04T13:22:47.894Z</time>
      </trkpt>
      <trkpt lat="63.4263" lon="8.80781">
        <ele>65.715463</ele>
        <time>2020-08-04T13:22:49.893Z</time>
      </trkpt>
      <trkpt lat="63.42637" lon="8.80814">
        <ele>65.005393</ele>
        <time>2020-08-04T13:22:51.884Z</time>
      </trkpt>
      <trkpt lat="63.42644" lon="8.80848">
        <ele>64.223866</ele>
        <time>2020-08-04T13:22:53.892Z</time>
      </trkpt>
      <trkpt lat="63.4265" lon="8.80882">
        <ele>63.424775</ele>
        <time>2020-08-04T13:22:55.876Z</time>
      </trkpt>
      <trkpt lat="63.42657" lon="8.80918">
        <ele>62.602175</ele>
        <time>2020-08-04T13:22:57.872Z</time>
      </trkpt>
      <trkpt lat="63.42664" lon="8.80954">
        <ele>61.770145</ele>
        <time>2020-08-04T13:22:59.887Z</time>
      </trkpt>
      <trkpt lat="63.42672" lon="8.80989">
        <ele>60.927812</ele>
        <time>2020-08-04T13:23:01.892Z</time>
      </trkpt>
      <trkpt lat="63.42679" lon="8.81026">
        <ele>60.076482</ele>
        <time>2020-08-04T13:23:03.903Z</time>
      </trkpt>
      <trkpt lat="63.42683" lon="8.81045">
        <ele>59.632092</ele>
        <time>2020-08-04T13:23:04.885Z</time>
      </trkpt>
      <trkpt lat="63.42687" lon="8.81064">
        <ele>59.180253</ele>
        <time>2020-08-04T13:23:05.887Z</time>
      </trkpt>
      <trkpt lat="63.42691" lon="8.81085">
        <ele>58.714722</ele>
        <time>2020-08-04T13:23:06.886Z</time>
      </trkpt>
      <trkpt lat="63.42694" lon="8.81105">
        <ele>58.247077</ele>
        <time>2020-08-04T13:23:07.883Z</time>
      </trkpt>
      <trkpt lat="63.42698" lon="8.81126">
        <ele>57.771949</ele>
        <time>2020-08-04T13:23:08.870Z</time>
      </trkpt>
      <trkpt lat="63.42702" lon="8.81146">
        <ele>57.300713</ele>
        <time>2020-08-04T13:23:09.881Z</time>
      </trkpt>
      <trkpt lat="63.42706" lon="8.81166">
        <ele>56.967315</ele>
        <time>2020-08-04T13:23:10.900Z</time>
      </trkpt>
      <trkpt lat="63.4271" lon="8.81186">
        <ele>56.819237</ele>
        <time>2020-08-04T13:23:11.876Z</time>
      </trkpt>
      <trkpt lat="63.42714" lon="8.81206">
        <ele>56.669915</ele>
        <time>2020-08-04T13:23:12.895Z</time>
      </trkpt>
      <trkpt lat="63.42718" lon="8.81227">
        <ele>56.514398</ele>
        <time>2020-08-04T13:23:13.887Z</time>
      </trkpt>
      <trkpt lat="63.42723" lon="8.81248">
        <ele>56.359509</ele>
        <time>2020-08-04T13:23:14.943Z</time>
      </trkpt>
      <trkpt lat="63.42727" lon="8.81269">
        <ele>56.202765</ele>
        <time>2020-08-04T13:23:15.923Z</time>
      </trkpt>
      <trkpt lat="63.42731" lon="8.8129">
        <ele>56.046021</ele>
        <time>2020-08-04T13:23:16.880Z</time>
      </trkpt>
      <trkpt lat="63.42735" lon="8.81311">
        <ele>55.889897</ele>
        <time>2020-08-04T13:23:17.906Z</time>
      </trkpt>
      <trkpt lat="63.42739" lon="8.81332">
        <ele>55.733773</ele>
        <time>2020-08-04T13:23:18.878Z</time>
      </trkpt>
      <trkpt lat="63.42743" lon="8.81352">
        <ele>55.583844</ele>
        <time>2020-08-04T13:23:19.895Z</time>
      </trkpt>
      <trkpt lat="63.42747" lon="8.81372">
        <ele>55.435775</ele>
        <time>2020-08-04T13:23:20.878Z</time>
      </trkpt>
      <trkpt lat="63.42751" lon="8.81391">
        <ele>55.291379</ele>
        <time>2020-08-04T13:23:21.881Z</time>
      </trkpt>
      <trkpt lat="63.42759" lon="8.81427">
        <ele>55.026837</ele>
        <time>2020-08-04T13:23:23.873Z</time>
      </trkpt>
      <trkpt lat="63.42765" lon="8.8146">
        <ele>54.781502</ele>
        <time>2020-08-04T13:23:25.904Z</time>
      </trkpt>
      <trkpt lat="63.42771" lon="8.81489">
        <ele>54.562181</ele>
        <time>2020-08-04T13:23:27.880Z</time>
      </trkpt>
      <trkpt lat="63.42777" lon="8.81515">
        <ele>54.36886</ele>
        <time>2020-08-04T13:23:29.873Z</time>
      </trkpt>
      <trkpt lat="63.42781" lon="8.81539">
        <ele>54.492382</ele>
        <time>2020-08-04T13:23:31.879Z</time>
      </trkpt>
      <trkpt lat="63.42785" lon="8.81561">
        <ele>54.770357</ele>
        <time>2020-08-04T13:23:33.877Z</time>
      </trkpt>
      <trkpt lat="63.42789" lon="8.8158">
        <ele>55.020204</ele>
        <time>2020-08-04T13:23:35.907Z</time>
      </trkpt>
      <trkpt lat="63.42792" lon="8.81599">
        <ele>55.260384</ele>
        <time>2020-08-04T13:23:37.881Z</time>
      </trkpt>
      <trkpt lat="63.42796" lon="8.81625">
        <ele>55.583997</ele>
        <time>2020-08-04T13:23:40.876Z</time>
      </trkpt>
      <trkpt lat="63.42799" lon="8.8165">
        <ele>55.895109</ele>
        <time>2020-08-04T13:23:43.904Z</time>
      </trkpt>
      <trkpt lat="63.42802" lon="8.81676">
        <ele>56.209347</ele>
        <time>2020-08-04T13:23:46.901Z</time>
      </trkpt>
      <trkpt lat="63.42805" lon="8.817">
        <ele>56.511023</ele>
        <time>2020-08-04T13:23:49.906Z</time>
      </trkpt>
      <trkpt lat="63.42808" lon="8.81724">
        <ele>56.79688</ele>
        <time>2020-08-04T13:23:52.877Z</time>
      </trkpt>
      <trkpt lat="63.4281" lon="8.81747">
        <ele>57.08019</ele>
        <time>2020-08-04T13:23:55.927Z</time>
      </trkpt>
      <trkpt lat="63.42813" lon="8.81771">
        <ele>57.372163</ele>
        <time>2020-08-04T13:23:58.899Z</time>
      </trkpt>
      <trkpt lat="63.42814" lon="8.81795">
        <ele>57.653807</ele>
        <time>2020-08-04T13:24:01.899Z</time>
      </trkpt>
      <trkpt lat="63.42815" lon="8.81818">
        <ele>57.931679</ele>
        <time>2020-08-04T13:24:04.895Z</time>
      </trkpt>
      <trkpt lat="63.42816" lon="8.81845">
        <ele>58.250196</ele>
        <time>2020-08-04T13:24:07.875Z</time>
      </trkpt>
      <trkpt lat="63.42816" lon="8.81872">
        <ele>58.573928</ele>
        <time>2020-08-04T13:24:10.887Z</time>
      </trkpt>
      <trkpt lat="63.42815" lon="8.81899">
        <ele>58.892799</ele>
        <time>2020-08-04T13:24:13.875Z</time>
      </trkpt>
      <trkpt lat="63.42814" lon="8.81924">
        <ele>59.066923</ele>
        <time>2020-08-04T13:24:16.905Z</time>
      </trkpt>
      <trkpt lat="63.42813" lon="8.8195">
        <ele>59.068437</ele>
        <time>2020-08-04T13:24:19.880Z</time>
      </trkpt>
      <trkpt lat="63.42811" lon="8.81978">
        <ele>59.070087</ele>
        <time>2020-08-04T13:24:22.901Z</time>
      </trkpt>
      <trkpt lat="63.42809" lon="8.81999">
        <ele>59.071292</ele>
        <time>2020-08-04T13:24:24.880Z</time>
      </trkpt>
      <trkpt lat="63.42807" lon="8.82021">
        <ele>59.07261</ele>
        <time>2020-08-04T13:24:26.881Z</time>
      </trkpt>
      <trkpt lat="63.42805" lon="8.82044">
        <ele>59.073978</ele>
        <time>2020-08-04T13:24:28.887Z</time>
      </trkpt>
      <trkpt lat="63.42803" lon="8.82067">
        <ele>59.075349</ele>
        <time>2020-08-04T13:24:30.898Z</time>
      </trkpt>
      <trkpt lat="63.428" lon="8.82093">
        <ele>59.07687</ele>
        <time>2020-08-04T13:24:32.920Z</time>
      </trkpt>
      <trkpt lat="63.42796" lon="8.8212">
        <ele>59.078516</ele>
        <time>2020-08-04T13:24:34.879Z</time>
      </trkpt>
      <trkpt lat="63.42793" lon="8.82147">
        <ele>59.080092</ele>
        <time>2020-08-04T13:24:36.902Z</time>
      </trkpt>
      <trkpt lat="63.4279" lon="8.82173">
        <ele>59.081666</ele>
        <time>2020-08-04T13:24:38.888Z</time>
      </trkpt>
      <trkpt lat="63.42786" lon="8.82201">
        <ele>59.083347</ele>
        <time>2020-08-04T13:24:40.882Z</time>
      </trkpt>
      <trkpt lat="63.42783" lon="8.82229">
        <ele>59.084998</ele>
        <time>2020-08-04T13:24:42.887Z</time>
      </trkpt>
      <trkpt lat="63.4278" lon="8.82259">
        <ele>59.086753</ele>
        <time>2020-08-04T13:24:44.899Z</time>
      </trkpt>
      <trkpt lat="63.42777" lon="8.8229">
        <ele>59.088555</ele>
        <time>2020-08-04T13:24:46.937Z</time>
      </trkpt>
      <trkpt lat="63.42775" lon="8.8232">
        <ele>58.889096</ele>
        <time>2020-08-04T13:24:48.888Z</time>
      </trkpt>
      <trkpt lat="63.42774" lon="8.82351">
        <ele>58.464614</ele>
        <time>2020-08-04T13:24:50.885Z</time>
      </trkpt>
      <trkpt lat="63.42773" lon="8.82381">
        <ele>58.042123</ele>
        <time>2020-08-04T13:24:52.900Z</time>
      </trkpt>
      <trkpt lat="63.42771" lon="8.82411">
        <ele>57.624121</ele>
        <time>2020-08-04T13:24:54.880Z</time>
      </trkpt>
      <trkpt lat="63.4277" lon="8.82442">
        <ele>57.202998</ele>
        <time>2020-08-04T13:24:56.907Z</time>
      </trkpt>
      <trkpt lat="63.42768" lon="8.82471">
        <ele>56.801027</ele>
        <time>2020-08-04T13:24:58.876Z</time>
      </trkpt>
      <trkpt lat="63.42767" lon="8.82499">
        <ele>56.409912</ele>
        <time>2020-08-04T13:25:00.885Z</time>
      </trkpt>
      <trkpt lat="63.42765" lon="8.82526">
        <ele>56.03358</ele>
        <time>2020-08-04T13:25:02.878Z</time>
      </trkpt>
      <trkpt lat="63.42764" lon="8.82552">
        <ele>55.67788</ele>
        <time>2020-08-04T13:25:04.914Z</time>
      </trkpt>
      <trkpt lat="63.42764" lon="8.82578">
        <ele>55.324921</ele>
        <time>2020-08-04T13:25:06.896Z</time>
      </trkpt>
      <trkpt lat="63.42763" lon="8.82604">
        <ele>54.966704</ele>
        <time>2020-08-04T13:25:08.897Z</time>
      </trkpt>
      <trkpt lat="63.42762" lon="8.82629">
        <ele>54.615637</ele>
        <time>2020-08-04T13:25:10.922Z</time>
      </trkpt>
      <trkpt lat="63.4276" lon="8.82655">
        <ele>54.25626</ele>
        <time>2020-08-04T13:25:12.892Z</time>
      </trkpt>
      <trkpt lat="63.42759" lon="8.82683">
        <ele>53.876475</ele>
        <time>2020-08-04T13:25:14.890Z</time>
      </trkpt>
      <trkpt lat="63.42757" lon="8.82712">
        <ele>53.619815</ele>
        <time>2020-08-04T13:25:16.896Z</time>
      </trkpt>
      <trkpt lat="63.42756" lon="8.82745">
        <ele>53.880731</ele>
        <time>2020-08-04T13:25:18.875Z</time>
      </trkpt>
      <trkpt lat="63.42756" lon="8.82778">
        <ele>54.144353</ele>
        <time>2020-08-04T13:25:20.884Z</time>
      </trkpt>
      <trkpt lat="63.42758" lon="8.82811">
        <ele>54.405353</ele>
        <time>2020-08-04T13:25:22.870Z</time>
      </trkpt>
      <trkpt lat="63.4276" lon="8.82842">
        <ele>54.657667</ele>
        <time>2020-08-04T13:25:24.899Z</time>
      </trkpt>
      <trkpt lat="63.42763" lon="8.82871">
        <ele>54.897406</ele>
        <time>2020-08-04T13:25:26.884Z</time>
      </trkpt>
      <trkpt lat="63.42766" lon="8.82899">
        <ele>55.12896</ele>
        <time>2020-08-04T13:25:28.878Z</time>
      </trkpt>
      <trkpt lat="63.42768" lon="8.82925">
        <ele>55.335702</ele>
        <time>2020-08-04T13:25:30.925Z</time>
      </trkpt>
      <trkpt lat="63.4277" lon="8.82949">
        <ele>55.52915</ele>
        <time>2020-08-04T13:25:32.885Z</time>
      </trkpt>
      <trkpt lat="63.42771" lon="8.8297">
        <ele>55.699638</ele>
        <time>2020-08-04T13:25:34.887Z</time>
      </trkpt>
      <trkpt lat="63.42772" lon="8.82998">
        <ele>55.922769</ele>
        <time>2020-08-04T13:25:37.898Z</time>
      </trkpt>
      <trkpt lat="63.42772" lon="8.83022">
        <ele>56.116161</ele>
        <time>2020-08-04T13:25:40.877Z</time>
      </trkpt>
      <trkpt lat="63.42768" lon="8.83047">
        <ele>56.328473</ele>
        <time>2020-08-04T13:25:43.887Z</time>
      </trkpt>
      <trkpt lat="63.42765" lon="8.83068">
        <ele>56.503876</ele>
        <time>2020-08-04T13:25:46.904Z</time>
      </trkpt>
      <trkpt lat="63.42761" lon="8.83087">
        <ele>56.673974</ele>
        <time>2020-08-04T13:25:49.952Z</time>
      </trkpt>
      <trkpt lat="63.42757" lon="8.83106">
        <ele>56.911556</ele>
        <time>2020-08-04T13:25:52.882Z</time>
      </trkpt>
      <trkpt lat="63.42752" lon="8.83127">
        <ele>57.322552</ele>
        <time>2020-08-04T13:25:56.883Z</time>
      </trkpt>
      <trkpt lat="63.42746" lon="8.83149">
        <ele>57.740984</ele>
        <time>2020-08-04T13:26:00.900Z</time>
      </trkpt>
      <trkpt lat="63.42742" lon="8.83172">
        <ele>58.172341</ele>
        <time>2020-08-04T13:26:04.886Z</time>
      </trkpt>
      <trkpt lat="63.42738" lon="8.83192">
        <ele>58.535909</ele>
        <time>2020-08-04T13:26:08.882Z</time>
      </trkpt>
      <trkpt lat="63.42735" lon="8.83212">
        <ele>58.885515</ele>
        <time>2020-08-04T13:26:12.885Z</time>
      </trkpt>
      <trkpt lat="63.42731" lon="8.8323">
        <ele>59.23214</ele>
        <time>2020-08-04T13:26:16.903Z</time>
      </trkpt>
      <trkpt lat="63.42727" lon="8.83254">
        <ele>59.653121</ele>
        <time>2020-08-04T13:26:21.878Z</time>
      </trkpt>
      <trkpt lat="63.42724" lon="8.83274">
        <ele>60.013773</ele>
        <time>2020-08-04T13:26:25.898Z</time>
      </trkpt>
      <trkpt lat="63.42723" lon="8.83295">
        <ele>60.379337</ele>
        <time>2020-08-04T13:26:29.915Z</time>
      </trkpt>
      <trkpt lat="63.42722" lon="8.83318">
        <ele>60.75385</ele>
        <time>2020-08-04T13:26:33.901Z</time>
      </trkpt>
      <trkpt lat="63.42722" lon="8.8334">
        <ele>61.133591</ele>
        <time>2020-08-04T13:26:37.876Z</time>
      </trkpt>
      <trkpt lat="63.42723" lon="8.83362">
        <ele>61.50249</ele>
        <time>2020-08-04T13:26:41.922Z</time>
      </trkpt>
      <trkpt lat="63.42725" lon="8.83385">
        <ele>61.896258</ele>
        <time>2020-08-04T13:26:45.885Z</time>
      </trkpt>
      <trkpt lat="63.42726" lon="8.83406">
        <ele>62.25333</ele>
        <time>2020-08-04T13:26:49.871Z</time>
      </trkpt>
      <trkpt lat="63.42726" lon="8.83426">
        <ele>62.599812</ele>
        <time>2020-08-04T13:26:53.896Z</time>
      </trkpt>
      <trkpt lat="63.42728" lon="8.83448">
        <ele>62.964284</ele>
        <time>2020-08-04T13:26:57.910Z</time>
      </trkpt>
      <trkpt lat="63.42728" lon="8.83471">
        <ele>63.357795</ele>
        <time>2020-08-04T13:27:01.882Z</time>
      </trkpt>
      <trkpt lat="63.42728" lon="8.83494">
        <ele>63.529222</ele>
        <time>2020-08-04T13:27:05.919Z</time>
      </trkpt>
      <trkpt lat="63.42726" lon="8.83516">
        <ele>63.463297</ele>
        <time>2020-08-04T13:27:09.882Z</time>
      </trkpt>
      <trkpt lat="63.42724" lon="8.83536">
        <ele>63.402696</ele>
        <time>2020-08-04T13:27:13.882Z</time>
      </trkpt>
      <trkpt lat="63.4272" lon="8.83558">
        <ele>63.333548</ele>
        <time>2020-08-04T13:27:17.920Z</time>
      </trkpt>
      <trkpt lat="63.42716" lon="8.83578">
        <ele>63.267871</ele>
        <time>2020-08-04T13:27:21.885Z</time>
      </trkpt>
      <trkpt lat="63.4271" lon="8.83599">
        <ele>63.196642</ele>
        <time>2020-08-04T13:27:25.880Z</time>
      </trkpt>
      <trkpt lat="63.42703" lon="8.83617">
        <ele>63.127994</ele>
        <time>2020-08-04T13:27:29.887Z</time>
      </trkpt>
      <trkpt lat="63.42696" lon="8.83637">
        <ele>63.051315</ele>
        <time>2020-08-04T13:27:33.893Z</time>
      </trkpt>
      <trkpt lat="63.42688" lon="8.83652">
        <ele>62.98626</ele>
        <time>2020-08-04T13:27:36.886Z</time>
      </trkpt>
      <trkpt lat="63.42679" lon="8.83665">
        <ele>62.916874</ele>
        <time>2020-08-04T13:27:39.872Z</time>
      </trkpt>
      <trkpt lat="63.42669" lon="8.83677">
        <ele>62.839304</ele>
        <time>2020-08-04T13:27:42.895Z</time>
      </trkpt>
      <trkpt lat="63.42657" lon="8.8369">
        <ele>62.75295</ele>
        <time>2020-08-04T13:27:45.896Z</time>
      </trkpt>
      <trkpt lat="63.42647" lon="8.83699">
        <ele>62.686039</ele>
        <time>2020-08-04T13:27:47.879Z</time>
      </trkpt>
      <trkpt lat="63.42637" lon="8.83707">
        <ele>62.614219</ele>
        <time>2020-08-04T13:27:49.870Z</time>
      </trkpt>
      <trkpt lat="63.42626" lon="8.83716">
        <ele>62.539745</ele>
        <time>2020-08-04T13:27:51.881Z</time>
      </trkpt>
      <trkpt lat="63.42615" lon="8.83725">
        <ele>62.460187</ele>
        <time>2020-08-04T13:27:53.909Z</time>
      </trkpt>
      <trkpt lat="63.42603" lon="8.83733">
        <ele>62.361964</ele>
        <time>2020-08-04T13:27:55.901Z</time>
      </trkpt>
      <trkpt lat="63.42591" lon="8.83742">
        <ele>61.91003</ele>
        <time>2020-08-04T13:27:57.892Z</time>
      </trkpt>
      <trkpt lat="63.42579" lon="8.83756">
        <ele>61.419147</ele>
        <time>2020-08-04T13:27:59.875Z</time>
      </trkpt>
      <trkpt lat="63.42566" lon="8.83772">
        <ele>60.890557</ele>
        <time>2020-08-04T13:28:01.883Z</time>
      </trkpt>
      <trkpt lat="63.42554" lon="8.83793">
        <ele>60.342736</ele>
        <time>2020-08-04T13:28:03.885Z</time>
      </trkpt>
      <trkpt lat="63.42543" lon="8.83818">
        <ele>59.786493</ele>
        <time>2020-08-04T13:28:05.887Z</time>
      </trkpt>
      <trkpt lat="63.42533" lon="8.83847">
        <ele>59.219692</ele>
        <time>2020-08-04T13:28:07.891Z</time>
      </trkpt>
      <trkpt lat="63.42527" lon="8.8388">
        <ele>58.639033</ele>
        <time>2020-08-04T13:28:09.886Z</time>
      </trkpt>
      <trkpt lat="63.42522" lon="8.83917">
        <ele>58.045136</ele>
        <time>2020-08-04T13:28:11.881Z</time>
      </trkpt>
      <trkpt lat="63.42521" lon="8.83954">
        <ele>57.447573</ele>
        <time>2020-08-04T13:28:13.881Z</time>
      </trkpt>
      <trkpt lat="63.42522" lon="8.83991">
        <ele>56.855671</ele>
        <time>2020-08-04T13:28:15.887Z</time>
      </trkpt>
      <trkpt lat="63.42527" lon="8.84028">
        <ele>56.262143</ele>
        <time>2020-08-04T13:28:17.907Z</time>
      </trkpt>
      <trkpt lat="63.42534" lon="8.84062">
        <ele>55.891924</ele>
        <time>2020-08-04T13:28:19.874Z</time>
      </trkpt>
      <trkpt lat="63.4254" lon="8.84099">
        <ele>55.693013</ele>
        <time>2020-08-04T13:28:21.914Z</time>
      </trkpt>
      <trkpt lat="63.42544" lon="8.84135">
        <ele>55.502012</ele>
        <time>2020-08-04T13:28:23.885Z</time>
      </trkpt>
      <trkpt lat="63.42547" lon="8.84169">
        <ele>55.321509</ele>
        <time>2020-08-04T13:28:25.891Z</time>
      </trkpt>
      <trkpt lat="63.42547" lon="8.84201">
        <ele>55.154542</ele>
        <time>2020-08-04T13:28:27.893Z</time>
      </trkpt>
      <trkpt lat="63.42547" lon="8.84234">
        <ele>54.988174</ele>
        <time>2020-08-04T13:28:29.890Z</time>
      </trkpt>
      <trkpt lat="63.42547" lon="8.84264">
        <ele>54.830577</ele>
        <time>2020-08-04T13:28:31.875Z</time>
      </trkpt>
      <trkpt lat="63.42547" lon="8.84293">
        <ele>54.682653</ele>
        <time>2020-08-04T13:28:33.898Z</time>
      </trkpt>
      <trkpt lat="63.42545" lon="8.84322">
        <ele>54.533061</ele>
        <time>2020-08-04T13:28:35.880Z</time>
      </trkpt>
      <trkpt lat="63.42544" lon="8.84349">
        <ele>54.391989</ele>
        <time>2020-08-04T13:28:37.894Z</time>
      </trkpt>
      <trkpt lat="63.42543" lon="8.84375">
        <ele>54.26025</ele>
        <time>2020-08-04T13:28:39.887Z</time>
      </trkpt>
      <trkpt lat="63.42543" lon="8.84399">
        <ele>54.133219</ele>
        <time>2020-08-04T13:28:41.881Z</time>
      </trkpt>
      <trkpt lat="63.42542" lon="8.84422">
        <ele>54.018861</ele>
        <time>2020-08-04T13:28:43.888Z</time>
      </trkpt>
      <trkpt lat="63.42542" lon="8.84442">
        <ele>54.024123</ele>
        <time>2020-08-04T13:28:45.899Z</time>
      </trkpt>
      <trkpt lat="63.42541" lon="8.84469">
        <ele>54.546389</ele>
        <time>2020-08-04T13:28:48.907Z</time>
      </trkpt>
      <trkpt lat="63.4254" lon="8.84493">
        <ele>54.991789</ele>
        <time>2020-08-04T13:28:51.895Z</time>
      </trkpt>
      <trkpt lat="63.42539" lon="8.84518">
        <ele>55.484126</ele>
        <time>2020-08-04T13:28:55.899Z</time>
      </trkpt>
      <trkpt lat="63.42538" lon="8.84543">
        <ele>55.958357</ele>
        <time>2020-08-04T13:28:59.926Z</time>
      </trkpt>
      <trkpt lat="63.42536" lon="8.84566">
        <ele>56.399138</ele>
        <time>2020-08-04T13:29:03.896Z</time>
      </trkpt>
      <trkpt lat="63.42534" lon="8.84588">
        <ele>56.822126</ele>
        <time>2020-08-04T13:29:07.870Z</time>
      </trkpt>
      <trkpt lat="63.42533" lon="8.84609">
        <ele>57.23214</ele>
        <time>2020-08-04T13:29:11.874Z</time>
      </trkpt>
      <trkpt lat="63.42532" lon="8.84631">
        <ele>57.650983</ele>
        <time>2020-08-04T13:29:15.919Z</time>
      </trkpt>
      <trkpt lat="63.4253" lon="8.84653">
        <ele>58.074192</ele>
        <time>2020-08-04T13:29:19.903Z</time>
      </trkpt>
      <trkpt lat="63.42528" lon="8.84674">
        <ele>58.48125</ele>
        <time>2020-08-04T13:29:23.918Z</time>
      </trkpt>
      <trkpt lat="63.42524" lon="8.84694">
        <ele>58.909147</ele>
        <time>2020-08-04T13:29:27.904Z</time>
      </trkpt>
      <trkpt lat="63.42521" lon="8.84716">
        <ele>59.344299</ele>
        <time>2020-08-04T13:29:31.884Z</time>
      </trkpt>
      <trkpt lat="63.42519" lon="8.84739">
        <ele>59.783906</ele>
        <time>2020-08-04T13:29:35.889Z</time>
      </trkpt>
      <trkpt lat="63.42517" lon="8.84763">
        <ele>60.251359</ele>
        <time>2020-08-04T13:29:39.916Z</time>
      </trkpt>
      <trkpt lat="63.42514" lon="8.84789">
        <ele>60.768273</ele>
        <time>2020-08-04T13:29:43.875Z</time>
      </trkpt>
      <trkpt lat="63.42512" lon="8.8481">
        <ele>61.173626</ele>
        <time>2020-08-04T13:29:46.887Z</time>
      </trkpt>
      <trkpt lat="63.4251" lon="8.8483">
        <ele>61.575129</ele>
        <time>2020-08-04T13:29:49.882Z</time>
      </trkpt>
      <trkpt lat="63.42508" lon="8.84854">
        <ele>61.173727</ele>
        <time>2020-08-04T13:29:52.870Z</time>
      </trkpt>
      <trkpt lat="63.42505" lon="8.84878">
        <ele>60.700967</ele>
        <time>2020-08-04T13:29:55.896Z</time>
      </trkpt>
      <trkpt lat="63.42502" lon="8.84903">
        <ele>60.223038</ele>
        <time>2020-08-04T13:29:58.907Z</time>
      </trkpt>
      <trkpt lat="63.42499" lon="8.84929">
        <ele>59.731858</ele>
        <time>2020-08-04T13:30:01.885Z</time>
      </trkpt>
      <trkpt lat="63.42496" lon="8.84957">
        <ele>59.194047</ele>
        <time>2020-08-04T13:30:04.871Z</time>
      </trkpt>
      <trkpt lat="63.42493" lon="8.84976">
        <ele>58.817548</ele>
        <time>2020-08-04T13:30:06.896Z</time>
      </trkpt>
      <trkpt lat="63.4249" lon="8.84997">
        <ele>58.413126</ele>
        <time>2020-08-04T13:30:08.889Z</time>
      </trkpt>
      <trkpt lat="63.42488" lon="8.85019">
        <ele>58.000815</ele>
        <time>2020-08-04T13:30:10.897Z</time>
      </trkpt>
      <trkpt lat="63.42485" lon="8.85041">
        <ele>57.566911</ele>
        <time>2020-08-04T13:30:12.897Z</time>
      </trkpt>
      <trkpt lat="63.42483" lon="8.85065">
        <ele>57.109541</ele>
        <time>2020-08-04T13:30:14.880Z</time>
      </trkpt>
      <trkpt lat="63.4248" lon="8.8509">
        <ele>56.639871</ele>
        <time>2020-08-04T13:30:16.909Z</time>
      </trkpt>
      <trkpt lat="63.42477" lon="8.85116">
        <ele>56.135316</ele>
        <time>2020-08-04T13:30:18.886Z</time>
      </trkpt>
      <trkpt lat="63.42474" lon="8.85144">
        <ele>55.608139</ele>
        <time>2020-08-04T13:30:20.898Z</time>
      </trkpt>
      <trkpt lat="63.4247" lon="8.85174">
        <ele>55.029843</ele>
        <time>2020-08-04T13:30:22.885Z</time>
      </trkpt>
      <trkpt lat="63.42467" lon="8.85205">
        <ele>54.433254</ele>
        <time>2020-08-04T13:30:24.883Z</time>
      </trkpt>
      <trkpt lat="63.42463" lon="8.85238">
        <ele>54.18252</ele>
        <time>2020-08-04T13:30:26.891Z</time>
      </trkpt>
      <trkpt lat="63.42458" lon="8.85272">
        <ele>54.27924</ele>
        <time>2020-08-04T13:30:28.876Z</time>
      </trkpt>
      <trkpt lat="63.42454" lon="8.85305">
        <ele>54.374722</ele>
        <time>2020-08-04T13:30:30.883Z</time>
      </trkpt>
      <trkpt lat="63.4245" lon="8.85336">
        <ele>54.467059</ele>
        <time>2020-08-04T13:30:32.903Z</time>
      </trkpt>
      <trkpt lat="63.42447" lon="8.85367">
        <ele>54.55614</ele>
        <time>2020-08-04T13:30:34.888Z</time>
      </trkpt>
      <trkpt lat="63.42443" lon="8.85397">
        <ele>54.640489</ele>
        <time>2020-08-04T13:30:36.874Z</time>
      </trkpt>
      <trkpt lat="63.42439" lon="8.85423">
        <ele>54.718862</ele>
        <time>2020-08-04T13:30:38.878Z</time>
      </trkpt>
      <trkpt lat="63.42436" lon="8.85448">
        <ele>54.788363</ele>
        <time>2020-08-04T13:30:40.878Z</time>
      </trkpt>
      <trkpt lat="63.42434" lon="8.85469">
        <ele>54.849655</ele>
        <time>2020-08-04T13:30:42.879Z</time>
      </trkpt>
      <trkpt lat="63.42431" lon="8.85498">
        <ele>54.931877</ele>
        <time>2020-08-04T13:30:45.876Z</time>
      </trkpt>
      <trkpt lat="63.42429" lon="8.85523">
        <ele>55.004747</ele>
        <time>2020-08-04T13:30:48.910Z</time>
      </trkpt>
      <trkpt lat="63.42426" lon="8.85549">
        <ele>55.077588</ele>
        <time>2020-08-04T13:30:51.879Z</time>
      </trkpt>
      <trkpt lat="63.42425" lon="8.85574">
        <ele>55.148661</ele>
        <time>2020-08-04T13:30:54.902Z</time>
      </trkpt>
      <trkpt lat="63.42424" lon="8.85596">
        <ele>55.210659</ele>
        <time>2020-08-04T13:30:57.887Z</time>
      </trkpt>
      <trkpt lat="63.42424" lon="8.85618">
        <ele>55.337553</ele>
        <time>2020-08-04T13:31:00.880Z</time>
      </trkpt>
      <trkpt lat="63.42424" lon="8.85639">
        <ele>55.617762</ele>
        <time>2020-08-04T13:31:03.892Z</time>
      </trkpt>
      <trkpt lat="63.42423" lon="8.8566">
        <ele>55.899378</ele>
        <time>2020-08-04T13:31:06.888Z</time>
      </trkpt>
      <trkpt lat="63.42423" lon="8.8568">
        <ele>56.170295</ele>
        <time>2020-08-04T13:31:09.894Z</time>
      </trkpt>
      <trkpt lat="63.42424" lon="8.85701">
        <ele>56.448563</ele>
        <time>2020-08-04T13:31:12.880Z</time>
      </trkpt>
      <trkpt lat="63.42426" lon="8.85722">
        <ele>56.731033</ele>
        <time>2020-08-04T13:31:15.878Z</time>
      </trkpt>
      <trkpt lat="63.42429" lon="8.85744">
        <ele>57.042055</ele>
        <time>2020-08-04T13:31:18.898Z</time>
      </trkpt>
      <trkpt lat="63.42433" lon="8.85765">
        <ele>57.344365</ele>
        <time>2020-08-04T13:31:21.900Z</time>
      </trkpt>
      <trkpt lat="63.42437" lon="8.85788">
        <ele>57.670762</ele>
        <time>2020-08-04T13:31:24.900Z</time>
      </trkpt>
      <trkpt lat="63.42441" lon="8.8581">
        <ele>57.978692</ele>
        <time>2020-08-04T13:31:27.931Z</time>
      </trkpt>
      <trkpt lat="63.42445" lon="8.8583">
        <ele>58.275641</ele>
        <time>2020-08-04T13:31:30.887Z</time>
      </trkpt>
      <trkpt lat="63.4245" lon="8.8585">
        <ele>58.575587</ele>
        <time>2020-08-04T13:31:33.894Z</time>
      </trkpt>
      <trkpt lat="63.42455" lon="8.85869">
        <ele>58.87091</ele>
        <time>2020-08-04T13:31:36.881Z</time>
      </trkpt>
      <trkpt lat="63.4246" lon="8.85889">
        <ele>59.174599</ele>
        <time>2020-08-04T13:31:39.878Z</time>
      </trkpt>
      <trkpt lat="63.42466" lon="8.85907">
        <ele>59.465659</ele>
        <time>2020-08-04T13:31:42.879Z</time>
      </trkpt>
      <trkpt lat="63.42471" lon="8.85924">
        <ele>59.746358</ele>
        <time>2020-08-04T13:31:45.901Z</time>
      </trkpt>
      <trkpt lat="63.42477" lon="8.8594">
        <ele>60.016876</ele>
        <time>2020-08-04T13:31:48.877Z</time>
      </trkpt>
      <trkpt lat="63.42484" lon="8.85959">
        <ele>60.344441</ele>
        <time>2020-08-04T13:31:52.927Z</time>
      </trkpt>
      <trkpt lat="63.42491" lon="8.85977">
        <ele>60.674718</ele>
        <time>2020-08-04T13:31:56.881Z</time>
      </trkpt>
      <trkpt lat="63.42497" lon="8.85996">
        <ele>61.008126</ele>
        <time>2020-08-04T13:32:00.868Z</time>
      </trkpt>
      <trkpt lat="63.42504" lon="8.86013">
        <ele>61.357453</ele>
        <time>2020-08-04T13:32:04.883Z</time>
      </trkpt>
      <trkpt lat="63.42511" lon="8.86032">
        <ele>61.713827</ele>
        <time>2020-08-04T13:32:08.881Z</time>
      </trkpt>
      <trkpt lat="63.42517" lon="8.86052">
        <ele>62.058151</ele>
        <time>2020-08-04T13:32:12.873Z</time>
      </trkpt>
      <trkpt lat="63.42524" lon="8.8607">
        <ele>62.398421</ele>
        <time>2020-08-04T13:32:16.879Z</time>
      </trkpt>
      <trkpt lat="63.42529" lon="8.8609">
        <ele>62.740941</ele>
        <time>2020-08-04T13:32:20.897Z</time>
      </trkpt>
      <trkpt lat="63.42535" lon="8.86111">
        <ele>63.100375</ele>
        <time>2020-08-04T13:32:25.891Z</time>
      </trkpt>
      <trkpt lat="63.4254" lon="8.86128">
        <ele>63.402886</ele>
        <time>2020-08-04T13:32:29.894Z</time>
      </trkpt>
      <trkpt lat="63.42544" lon="8.86147">
        <ele>63.705496</ele>
        <time>2020-08-04T13:32:33.872Z</time>
      </trkpt>
      <trkpt lat="63.42549" lon="8.86165">
        <ele>64.013561</ele>
        <time>2020-08-04T13:32:37.909Z</time>
      </trkpt>
      <trkpt lat="63.42552" lon="8.86184">
        <ele>64.316245</ele>
        <time>2020-08-04T13:32:41.939Z</time>
      </trkpt>
      <trkpt lat="63.42556" lon="8.86204">
        <ele>64.628169</ele>
        <time>2020-08-04T13:32:45.884Z</time>
      </trkpt>
      <trkpt lat="63.4256" lon="8.86223">
        <ele>64.932099</ele>
        <time>2020-08-04T13:32:49.878Z</time>
      </trkpt>
      <trkpt lat="63.42562" lon="8.86244">
        <ele>65.245484</ele>
        <time>2020-08-04T13:32:53.936Z</time>
      </trkpt>
      <trkpt lat="63.42565" lon="8.86265">
        <ele>65.576121</ele>
        <time>2020-08-04T13:32:57.902Z</time>
      </trkpt>
      <trkpt lat="63.42569" lon="8.86286">
        <ele>65.89805</ele>
        <time>2020-08-04T13:33:01.899Z</time>
      </trkpt>
      <trkpt lat="63.42572" lon="8.86309">
        <ele>66.245945</ele>
        <time>2020-08-04T13:33:05.875Z</time>
      </trkpt>
      <trkpt lat="63.42575" lon="8.86331">
        <ele>66.670609</ele>
        <time>2020-08-04T13:33:09.871Z</time>
      </trkpt>
      <trkpt lat="63.42578" lon="8.86353">
        <ele>67.243463</ele>
        <time>2020-08-04T13:33:13.889Z</time>
      </trkpt>
      <trkpt lat="63.42581" lon="8.86375">
        <ele>67.797281</ele>
        <time>2020-08-04T13:33:17.879Z</time>
      </trkpt>
      <trkpt lat="63.42583" lon="8.86395">
        <ele>68.293884</ele>
        <time>2020-08-04T13:33:21.875Z</time>
      </trkpt>
      <trkpt lat="63.42583" lon="8.86415">
        <ele>68.783318</ele>
        <time>2020-08-04T13:33:25.904Z</time>
      </trkpt>
      <trkpt lat="63.42585" lon="8.86438">
        <ele>69.33967</ele>
        <time>2020-08-04T13:33:29.878Z</time>
      </trkpt>
      <trkpt lat="63.42586" lon="8.86459">
        <ele>69.849943</ele>
        <time>2020-08-04T13:33:33.876Z</time>
      </trkpt>
      <trkpt lat="63.42586" lon="8.86483">
        <ele>70.435107</ele>
        <time>2020-08-04T13:33:38.885Z</time>
      </trkpt>
      <trkpt lat="63.42584" lon="8.86505">
        <ele>70.965143</ele>
        <time>2020-08-04T13:33:43.942Z</time>
      </trkpt>
      <trkpt lat="63.42581" lon="8.86527">
        <ele>71.52845</ele>
        <time>2020-08-04T13:33:48.874Z</time>
      </trkpt>
      <trkpt lat="63.42578" lon="8.8655">
        <ele>72.117139</ele>
        <time>2020-08-04T13:33:53.892Z</time>
      </trkpt>
      <trkpt lat="63.42574" lon="8.8657">
        <ele>72.668937</ele>
        <time>2020-08-04T13:33:58.955Z</time>
      </trkpt>
      <trkpt lat="63.42569" lon="8.86591">
        <ele>73.221369</ele>
        <time>2020-08-04T13:34:03.879Z</time>
      </trkpt>
      <trkpt lat="63.42563" lon="8.86611">
        <ele>73.796223</ele>
        <time>2020-08-04T13:34:08.882Z</time>
      </trkpt>
      <trkpt lat="63.42557" lon="8.8663">
        <ele>74.362809</ele>
        <time>2020-08-04T13:34:13.884Z</time>
      </trkpt>
      <trkpt lat="63.4255" lon="8.86647">
        <ele>74.934549</ele>
        <time>2020-08-04T13:34:18.890Z</time>
      </trkpt>
      <trkpt lat="63.42543" lon="8.86665">
        <ele>75.510127</ele>
        <time>2020-08-04T13:34:23.881Z</time>
      </trkpt>
      <trkpt lat="63.42535" lon="8.8668">
        <ele>76.083056</ele>
        <time>2020-08-04T13:34:28.876Z</time>
      </trkpt>
      <trkpt lat="63.42526" lon="8.86694">
        <ele>76.319877</ele>
        <time>2020-08-04T13:34:33.886Z</time>
      </trkpt>
      <trkpt lat="63.42518" lon="8.86705">
        <ele>76.429848</ele>
        <time>2020-08-04T13:34:37.906Z</time>
      </trkpt>
      <trkpt lat="63.42509" lon="8.86712">
        <ele>76.538495</ele>
        <time>2020-08-04T13:34:41.896Z</time>
      </trkpt>
      <trkpt lat="63.425" lon="8.86719">
        <ele>76.645324</ele>
        <time>2020-08-04T13:34:45.876Z</time>
      </trkpt>
      <trkpt lat="63.4249" lon="8.86727">
        <ele>76.772471</ele>
        <time>2020-08-04T13:34:50.888Z</time>
      </trkpt>
      <trkpt lat="63.42481" lon="8.86731">
        <ele>76.882925</ele>
        <time>2020-08-04T13:34:54.893Z</time>
      </trkpt>
      <trkpt lat="63.42471" lon="8.86734">
        <ele>77.00157</ele>
        <time>2020-08-04T13:34:58.922Z</time>
      </trkpt>
      <trkpt lat="63.42461" lon="8.86737">
        <ele>77.122067</ele>
        <time>2020-08-04T13:35:02.889Z</time>
      </trkpt>
      <trkpt lat="63.4245" lon="8.86736">
        <ele>77.247195</ele>
        <time>2020-08-04T13:35:06.879Z</time>
      </trkpt>
      <trkpt lat="63.4244" lon="8.86731">
        <ele>77.367116</ele>
        <time>2020-08-04T13:35:10.879Z</time>
      </trkpt>
      <trkpt lat="63.4243" lon="8.86727">
        <ele>77.482535</ele>
        <time>2020-08-04T13:35:13.885Z</time>
      </trkpt>
      <trkpt lat="63.4242" lon="8.86722">
        <ele>77.610784</ele>
        <time>2020-08-04T13:35:16.905Z</time>
      </trkpt>
      <trkpt lat="63.42409" lon="8.86716">
        <ele>77.74002</ele>
        <time>2020-08-04T13:35:19.883Z</time>
      </trkpt>
      <trkpt lat="63.42397" lon="8.86709">
        <ele>77.886776</ele>
        <time>2020-08-04T13:35:22.883Z</time>
      </trkpt>
      <trkpt lat="63.42387" lon="8.86705">
        <ele>77.99781</ele>
        <time>2020-08-04T13:35:24.895Z</time>
      </trkpt>
      <trkpt lat="63.42376" lon="8.86704">
        <ele>78.125287</ele>
        <time>2020-08-04T13:35:26.886Z</time>
      </trkpt>
      <trkpt lat="63.42364" lon="8.86706">
        <ele>78.267223</ele>
        <time>2020-08-04T13:35:28.880Z</time>
      </trkpt>
      <trkpt lat="63.42352" lon="8.8671">
        <ele>78.63969</ele>
        <time>2020-08-04T13:35:30.911Z</time>
      </trkpt>
      <trkpt lat="63.42342" lon="8.86715">
        <ele>79.075282</ele>
        <time>2020-08-04T13:35:32.888Z</time>
      </trkpt>
      <trkpt lat="63.42332" lon="8.86723">
        <ele>79.537249</ele>
        <time>2020-08-04T13:35:34.883Z</time>
      </trkpt>
      <trkpt lat="63.42323" lon="8.86733">
        <ele>79.965198</ele>
        <time>2020-08-04T13:35:36.941Z</time>
      </trkpt>
      <trkpt lat="63.42315" lon="8.86743">
        <ele>80.354925</ele>
        <time>2020-08-04T13:35:38.884Z</time>
      </trkpt>
      <trkpt lat="63.42306" lon="8.86758">
        <ele>80.829497</ele>
        <time>2020-08-04T13:35:41.903Z</time>
      </trkpt>
      <trkpt lat="63.42298" lon="8.86774">
        <ele>81.29884</ele>
        <time>2020-08-04T13:35:44.896Z</time>
      </trkpt>
      <trkpt lat="63.42291" lon="8.86791">
        <ele>81.725735</ele>
        <time>2020-08-04T13:35:47.903Z</time>
      </trkpt>
      <trkpt lat="63.42285" lon="8.86807">
        <ele>82.113232</ele>
        <time>2020-08-04T13:35:50.897Z</time>
      </trkpt>
      <trkpt lat="63.42278" lon="8.86825">
        <ele>82.586512</ele>
        <time>2020-08-04T13:35:54.910Z</time>
      </trkpt>
      <trkpt lat="63.42271" lon="8.86838">
        <ele>82.965199</ele>
        <time>2020-08-04T13:35:57.880Z</time>
      </trkpt>
      <trkpt lat="63.42265" lon="8.86861">
        <ele>83.457543</ele>
        <time>2020-08-04T13:36:01.881Z</time>
      </trkpt>
      <trkpt lat="63.42261" lon="8.86881">
        <ele>83.860703</ele>
        <time>2020-08-04T13:36:04.885Z</time>
      </trkpt>
      <trkpt lat="63.42258" lon="8.86899">
        <ele>84.239626</ele>
        <time>2020-08-04T13:36:07.905Z</time>
      </trkpt>
      <trkpt lat="63.42254" lon="8.86918">
        <ele>84.646245</ele>
        <time>2020-08-04T13:36:10.885Z</time>
      </trkpt>
      <trkpt lat="63.4225" lon="8.86938">
        <ele>85.048247</ele>
        <time>2020-08-04T13:36:13.894Z</time>
      </trkpt>
      <trkpt lat="63.42247" lon="8.86959">
        <ele>85.471521</ele>
        <time>2020-08-04T13:36:16.880Z</time>
      </trkpt>
      <trkpt lat="63.42245" lon="8.86984">
        <ele>85.942503</ele>
        <time>2020-08-04T13:36:19.900Z</time>
      </trkpt>
      <trkpt lat="63.42242" lon="8.87011">
        <ele>85.285251</ele>
        <time>2020-08-04T13:36:22.876Z</time>
      </trkpt>
      <trkpt lat="63.42239" lon="8.87033">
        <ele>84.763253</ele>
        <time>2020-08-04T13:36:24.881Z</time>
      </trkpt>
      <trkpt lat="63.42235" lon="8.87057">
        <ele>84.163464</ele>
        <time>2020-08-04T13:36:26.872Z</time>
      </trkpt>
      <trkpt lat="63.42232" lon="8.87084">
        <ele>83.525696</ele>
        <time>2020-08-04T13:36:28.889Z</time>
      </trkpt>
      <trkpt lat="63.4223" lon="8.87113">
        <ele>82.84699</ele>
        <time>2020-08-04T13:36:30.881Z</time>
      </trkpt>
      <trkpt lat="63.4223" lon="8.87145">
        <ele>82.124655</ele>
        <time>2020-08-04T13:36:32.880Z</time>
      </trkpt>
      <trkpt lat="63.4223" lon="8.87177">
        <ele>81.375543</ele>
        <time>2020-08-04T13:36:34.877Z</time>
      </trkpt>
      <trkpt lat="63.42232" lon="8.8721">
        <ele>80.609293</ele>
        <time>2020-08-04T13:36:36.914Z</time>
      </trkpt>
      <trkpt lat="63.42233" lon="8.87242">
        <ele>79.870985</ele>
        <time>2020-08-04T13:36:38.888Z</time>
      </trkpt>
      <trkpt lat="63.42234" lon="8.87275">
        <ele>79.104661</ele>
        <time>2020-08-04T13:36:40.891Z</time>
      </trkpt>
      <trkpt lat="63.42236" lon="8.87309">
        <ele>78.31056</ele>
        <time>2020-08-04T13:36:42.886Z</time>
      </trkpt>
      <trkpt lat="63.42239" lon="8.87344">
        <ele>77.491438</ele>
        <time>2020-08-04T13:36:44.880Z</time>
      </trkpt>
      <trkpt lat="63.42243" lon="8.87379">
        <ele>76.667662</ele>
        <time>2020-08-04T13:36:46.880Z</time>
      </trkpt>
      <trkpt lat="63.42248" lon="8.87414">
        <ele>76.020132</ele>
        <time>2020-08-04T13:36:48.930Z</time>
      </trkpt>
      <trkpt lat="63.42253" lon="8.8745">
        <ele>75.369258</ele>
        <time>2020-08-04T13:36:50.879Z</time>
      </trkpt>
      <trkpt lat="63.42256" lon="8.87487">
        <ele>74.703301</ele>
        <time>2020-08-04T13:36:52.899Z</time>
      </trkpt>
      <trkpt lat="63.42257" lon="8.87523">
        <ele>74.065198</ele>
        <time>2020-08-04T13:36:54.881Z</time>
      </trkpt>
      <trkpt lat="63.42255" lon="8.87559">
        <ele>73.429838</ele>
        <time>2020-08-04T13:36:56.882Z</time>
      </trkpt>
      <trkpt lat="63.42251" lon="8.87591">
        <ele>72.8268</ele>
        <time>2020-08-04T13:36:58.890Z</time>
      </trkpt>
      <trkpt lat="63.42245" lon="8.87622">
        <ele>72.238381</ele>
        <time>2020-08-04T13:37:00.895Z</time>
      </trkpt>
      <trkpt lat="63.42238" lon="8.8765">
        <ele>71.674651</ele>
        <time>2020-08-04T13:37:02.903Z</time>
      </trkpt>
      <trkpt lat="63.42229" lon="8.87675">
        <ele>71.107868</ele>
        <time>2020-08-04T13:37:04.880Z</time>
      </trkpt>
      <trkpt lat="63.42219" lon="8.87698">
        <ele>70.549047</ele>
        <time>2020-08-04T13:37:06.883Z</time>
      </trkpt>
      <trkpt lat="63.42208" lon="8.87717">
        <ele>69.997283</ele>
        <time>2020-08-04T13:37:08.926Z</time>
      </trkpt>
      <trkpt lat="63.42196" lon="8.87734">
        <ele>69.505605</ele>
        <time>2020-08-04T13:37:10.918Z</time>
      </trkpt>
      <trkpt lat="63.42183" lon="8.8775">
        <ele>69.144314</ele>
        <time>2020-08-04T13:37:12.932Z</time>
      </trkpt>
      <trkpt lat="63.4217" lon="8.87762">
        <ele>68.787149</ele>
        <time>2020-08-04T13:37:14.902Z</time>
      </trkpt>
      <trkpt lat="63.42156" lon="8.87769">
        <ele>68.454514</ele>
        <time>2020-08-04T13:37:16.900Z</time>
      </trkpt>
      <trkpt lat="63.42144" lon="8.87772">
        <ele>68.140681</ele>
        <time>2020-08-04T13:37:18.896Z</time>
      </trkpt>
      <trkpt lat="63.42132" lon="8.87768">
        <ele>67.855683</ele>
        <time>2020-08-04T13:37:20.869Z</time>
      </trkpt>
      <trkpt lat="63.42119" lon="8.87764">
        <ele>67.527798</ele>
        <time>2020-08-04T13:37:22.883Z</time>
      </trkpt>
      <trkpt lat="63.42106" lon="8.87757">
        <ele>67.201301</ele>
        <time>2020-08-04T13:37:24.867Z</time>
      </trkpt>
      <trkpt lat="63.42094" lon="8.87749">
        <ele>66.885276</ele>
        <time>2020-08-04T13:37:26.881Z</time>
      </trkpt>
      <trkpt lat="63.42082" lon="8.87741">
        <ele>66.584029</ele>
        <time>2020-08-04T13:37:28.879Z</time>
      </trkpt>
      <trkpt lat="63.4207" lon="8.87733">
        <ele>66.278911</ele>
        <time>2020-08-04T13:37:30.893Z</time>
      </trkpt>
      <trkpt lat="63.42058" lon="8.87726">
        <ele>65.974091</ele>
        <time>2020-08-04T13:37:32.883Z</time>
      </trkpt>
      <trkpt lat="63.42046" lon="8.87718">
        <ele>65.668988</ele>
        <time>2020-08-04T13:37:34.874Z</time>
      </trkpt>
      <trkpt lat="63.42035" lon="8.87711">
        <ele>65.382933</ele>
        <time>2020-08-04T13:37:36.889Z</time>
      </trkpt>
      <trkpt lat="63.42023" lon="8.87704">
        <ele>65.061121</ele>
        <time>2020-08-04T13:37:38.882Z</time>
      </trkpt>
      <trkpt lat="63.42011" lon="8.87697">
        <ele>64.677498</ele>
        <time>2020-08-04T13:37:40.879Z</time>
      </trkpt>
      <trkpt lat="63.41998" lon="8.87693">
        <ele>64.286712</ele>
        <time>2020-08-04T13:37:42.887Z</time>
      </trkpt>
      <trkpt lat="63.41986" lon="8.8769">
        <ele>63.912192</ele>
        <time>2020-08-04T13:37:44.893Z</time>
      </trkpt>
      <trkpt lat="63.41973" lon="8.87688">
        <ele>63.531495</ele>
        <time>2020-08-04T13:37:46.885Z</time>
      </trkpt>
      <trkpt lat="63.4196" lon="8.87687">
        <ele>63.120675</ele>
        <time>2020-08-04T13:37:48.892Z</time>
      </trkpt>
      <trkpt lat="63.41945" lon="8.87688">
        <ele>62.679835</ele>
        <time>2020-08-04T13:37:50.905Z</time>
      </trkpt>
      <trkpt lat="63.4193" lon="8.87689">
        <ele>62.232549</ele>
        <time>2020-08-04T13:37:52.911Z</time>
      </trkpt>
      <trkpt lat="63.41916" lon="8.87691">
        <ele>61.791463</ele>
        <time>2020-08-04T13:37:54.874Z</time>
      </trkpt>
      <trkpt lat="63.41901" lon="8.87692">
        <ele>61.350144</ele>
        <time>2020-08-04T13:37:56.912Z</time>
      </trkpt>
      <trkpt lat="63.41886" lon="8.87695">
        <ele>60.910376</ele>
        <time>2020-08-04T13:37:58.904Z</time>
      </trkpt>
      <trkpt lat="63.41872" lon="8.877">
        <ele>60.464236</ele>
        <time>2020-08-04T13:38:00.892Z</time>
      </trkpt>
      <trkpt lat="63.41857" lon="8.87706">
        <ele>60.022239</ele>
        <time>2020-08-04T13:38:02.908Z</time>
      </trkpt>
      <trkpt lat="63.41843" lon="8.87714">
        <ele>59.764392</ele>
        <time>2020-08-04T13:38:04.883Z</time>
      </trkpt>
      <trkpt lat="63.41828" lon="8.87723">
        <ele>59.80205</ele>
        <time>2020-08-04T13:38:06.898Z</time>
      </trkpt>
      <trkpt lat="63.41813" lon="8.87733">
        <ele>59.8383</ele>
        <time>2020-08-04T13:38:08.927Z</time>
      </trkpt>
      <trkpt lat="63.41798" lon="8.87743">
        <ele>59.875182</ele>
        <time>2020-08-04T13:38:10.917Z</time>
      </trkpt>
      <trkpt lat="63.41784" lon="8.87754">
        <ele>59.912424</ele>
        <time>2020-08-04T13:38:12.885Z</time>
      </trkpt>
      <trkpt lat="63.4177" lon="8.87766">
        <ele>59.947331</ele>
        <time>2020-08-04T13:38:14.903Z</time>
      </trkpt>
      <trkpt lat="63.41757" lon="8.87777">
        <ele>59.98146</ele>
        <time>2020-08-04T13:38:16.909Z</time>
      </trkpt>
      <trkpt lat="63.41743" lon="8.87789">
        <ele>60.015328</ele>
        <time>2020-08-04T13:38:18.881Z</time>
      </trkpt>
      <trkpt lat="63.41731" lon="8.87797">
        <ele>60.045598</ele>
        <time>2020-08-04T13:38:20.905Z</time>
      </trkpt>
      <trkpt lat="63.4172" lon="8.87803">
        <ele>60.072455</ele>
        <time>2020-08-04T13:38:22.905Z</time>
      </trkpt>
      <trkpt lat="63.4171" lon="8.87809">
        <ele>60.097302</ele>
        <time>2020-08-04T13:38:24.903Z</time>
      </trkpt>
      <trkpt lat="63.41701" lon="8.87814">
        <ele>60.119241</ele>
        <time>2020-08-04T13:38:26.907Z</time>
      </trkpt>
      <trkpt lat="63.41692" lon="8.87817">
        <ele>60.142653</ele>
        <time>2020-08-04T13:38:29.885Z</time>
      </trkpt>
      <trkpt lat="63.41681" lon="8.8782">
        <ele>60.168653</ele>
        <time>2020-08-04T13:38:33.880Z</time>
      </trkpt>
      <trkpt lat="63.41671" lon="8.87823">
        <ele>60.677989</ele>
        <time>2020-08-04T13:38:37.887Z</time>
      </trkpt>
      <trkpt lat="63.41661" lon="8.87827">
        <ele>61.585281</ele>
        <time>2020-08-04T13:38:41.937Z</time>
      </trkpt>
      <trkpt lat="63.4165" lon="8.87825">
        <ele>62.517297</ele>
        <time>2020-08-04T13:38:46.899Z</time>
      </trkpt>
      <trkpt lat="63.4164" lon="8.87823">
        <ele>63.401419</ele>
        <time>2020-08-04T13:38:51.918Z</time>
      </trkpt>
      <trkpt lat="63.4163" lon="8.87819">
        <ele>64.33435</ele>
        <time>2020-08-04T13:38:56.897Z</time>
      </trkpt>
      <trkpt lat="63.41621" lon="8.87814">
        <ele>65.178589</ele>
        <time>2020-08-04T13:39:01.890Z</time>
      </trkpt>
      <trkpt lat="63.41611" lon="8.87807">
        <ele>66.043588</ele>
        <time>2020-08-04T13:39:06.910Z</time>
      </trkpt>
      <trkpt lat="63.41601" lon="8.87798">
        <ele>66.988084</ele>
        <time>2020-08-04T13:39:11.903Z</time>
      </trkpt>
      <trkpt lat="63.41592" lon="8.87789">
        <ele>67.876786</ele>
        <time>2020-08-04T13:39:15.872Z</time>
      </trkpt>
      <trkpt lat="63.41583" lon="8.87781">
        <ele>68.743663</ele>
        <time>2020-08-04T13:39:19.881Z</time>
      </trkpt>
      <trkpt lat="63.41573" lon="8.87772">
        <ele>69.689061</ele>
        <time>2020-08-04T13:39:23.879Z</time>
      </trkpt>
      <trkpt lat="63.41564" lon="8.8776">
        <ele>70.622214</ele>
        <time>2020-08-04T13:39:27.922Z</time>
      </trkpt>
      <trkpt lat="63.41557" lon="8.87746">
        <ele>71.475946</ele>
        <time>2020-08-04T13:39:31.901Z</time>
      </trkpt>
      <trkpt lat="63.4155" lon="8.8773">
        <ele>72.327374</ele>
        <time>2020-08-04T13:39:35.900Z</time>
      </trkpt>
      <trkpt lat="63.41544" lon="8.87714">
        <ele>73.182285</ele>
        <time>2020-08-04T13:39:39.917Z</time>
      </trkpt>
      <trkpt lat="63.41537" lon="8.87699">
        <ele>74.041211</ele>
        <time>2020-08-04T13:39:43.914Z</time>
      </trkpt>
      <trkpt lat="63.41529" lon="8.87684">
        <ele>74.964436</ele>
        <time>2020-08-04T13:39:47.884Z</time>
      </trkpt>
      <trkpt lat="63.41523" lon="8.87668">
        <ele>75.778216</ele>
        <time>2020-08-04T13:39:51.903Z</time>
      </trkpt>
      <trkpt lat="63.41516" lon="8.87649">
        <ele>76.377751</ele>
        <time>2020-08-04T13:39:55.905Z</time>
      </trkpt>
      <trkpt lat="63.41512" lon="8.87632">
        <ele>76.699947</ele>
        <time>2020-08-04T13:39:58.907Z</time>
      </trkpt>
      <trkpt lat="63.41507" lon="8.87615">
        <ele>77.024372</ele>
        <time>2020-08-04T13:40:01.942Z</time>
      </trkpt>
      <trkpt lat="63.415" lon="8.87594">
        <ele>77.441993</ele>
        <time>2020-08-04T13:40:05.895Z</time>
      </trkpt>
      <trkpt lat="63.41494" lon="8.87576">
        <ele>77.795251</ele>
        <time>2020-08-04T13:40:08.901Z</time>
      </trkpt>
      <trkpt lat="63.41488" lon="8.87561">
        <ele>78.137989</ele>
        <time>2020-08-04T13:40:11.889Z</time>
      </trkpt>
      <trkpt lat="63.41481" lon="8.87544">
        <ele>78.499876</ele>
        <time>2020-08-04T13:40:14.891Z</time>
      </trkpt>
      <trkpt lat="63.41474" lon="8.87523">
        <ele>78.922693</ele>
        <time>2020-08-04T13:40:18.888Z</time>
      </trkpt>
      <trkpt lat="63.41469" lon="8.87505">
        <ele>79.262473</ele>
        <time>2020-08-04T13:40:21.899Z</time>
      </trkpt>
      <trkpt lat="63.41462" lon="8.87488">
        <ele>79.614796</ele>
        <time>2020-08-04T13:40:24.870Z</time>
      </trkpt>
      <trkpt lat="63.41457" lon="8.87472">
        <ele>79.939611</ele>
        <time>2020-08-04T13:40:27.871Z</time>
      </trkpt>
      <trkpt lat="63.41448" lon="8.87455">
        <ele>80.365799</ele>
        <time>2020-08-04T13:40:31.899Z</time>
      </trkpt>
      <trkpt lat="63.4144" lon="8.87439">
        <ele>80.744307</ele>
        <time>2020-08-04T13:40:34.876Z</time>
      </trkpt>
      <trkpt lat="63.41435" lon="8.87419">
        <ele>81.121776</ele>
        <time>2020-08-04T13:40:37.878Z</time>
      </trkpt>
      <trkpt lat="63.41428" lon="8.87402">
        <ele>81.494407</ele>
        <time>2020-08-04T13:40:40.896Z</time>
      </trkpt>
      <trkpt lat="63.41422" lon="8.87382">
        <ele>81.870249</ele>
        <time>2020-08-04T13:40:43.871Z</time>
      </trkpt>
      <trkpt lat="63.41413" lon="8.87364">
        <ele>82.305318</ele>
        <time>2020-08-04T13:40:46.913Z</time>
      </trkpt>
      <trkpt lat="63.41405" lon="8.87344">
        <ele>82.434708</ele>
        <time>2020-08-04T13:40:49.905Z</time>
      </trkpt>
      <trkpt lat="63.41397" lon="8.87323">
        <ele>81.98325</ele>
        <time>2020-08-04T13:40:52.882Z</time>
      </trkpt>
      <trkpt lat="63.41389" lon="8.87303">
        <ele>81.527043</ele>
        <time>2020-08-04T13:40:55.888Z</time>
      </trkpt>
      <trkpt lat="63.4138" lon="8.87284">
        <ele>81.062238</ele>
        <time>2020-08-04T13:40:58.896Z</time>
      </trkpt>
      <trkpt lat="63.4137" lon="8.87268">
        <ele>80.620436</ele>
        <time>2020-08-04T13:41:01.885Z</time>
      </trkpt>
      <trkpt lat="63.41361" lon="8.87253">
        <ele>80.184562</ele>
        <time>2020-08-04T13:41:04.878Z</time>
      </trkpt>
      <trkpt lat="63.41351" lon="8.87237">
        <ele>79.730808</ele>
        <time>2020-08-04T13:41:07.871Z</time>
      </trkpt>
      <trkpt lat="63.41342" lon="8.8722">
        <ele>79.286675</ele>
        <time>2020-08-04T13:41:10.912Z</time>
      </trkpt>
      <trkpt lat="63.41332" lon="8.87203">
        <ele>78.835708</ele>
        <time>2020-08-04T13:41:13.884Z</time>
      </trkpt>
      <trkpt lat="63.41322" lon="8.87186">
        <ele>78.368961</ele>
        <time>2020-08-04T13:41:16.900Z</time>
      </trkpt>
      <trkpt lat="63.41312" lon="8.8717">
        <ele>77.905616</ele>
        <time>2020-08-04T13:41:19.879Z</time>
      </trkpt>
      <trkpt lat="63.41302" lon="8.87154">
        <ele>77.455874</ele>
        <time>2020-08-04T13:41:22.920Z</time>
      </trkpt>
      <trkpt lat="63.41292" lon="8.87137">
        <ele>76.993646</ele>
        <time>2020-08-04T13:41:25.871Z</time>
      </trkpt>
      <trkpt lat="63.41282" lon="8.87122">
        <ele>76.528568</ele>
        <time>2020-08-04T13:41:28.896Z</time>
      </trkpt>
      <trkpt lat="63.4127" lon="8.8711">
        <ele>76.056504</ele>
        <time>2020-08-04T13:41:31.884Z</time>
      </trkpt>
      <trkpt lat="63.41259" lon="8.87099">
        <ele>75.719444</ele>
        <time>2020-08-04T13:41:34.899Z</time>
      </trkpt>
      <trkpt lat="63.41247" lon="8.87089">
        <ele>75.435279</ele>
        <time>2020-08-04T13:41:37.881Z</time>
      </trkpt>
      <trkpt lat="63.41234" lon="8.8708">
        <ele>75.141641</ele>
        <time>2020-08-04T13:41:40.908Z</time>
      </trkpt>
      <trkpt lat="63.41221" lon="8.87071">
        <ele>74.839824</ele>
        <time>2020-08-04T13:41:43.917Z</time>
      </trkpt>
      <trkpt lat="63.41211" lon="8.87067">
        <ele>74.614529</ele>
        <time>2020-08-04T13:41:45.904Z</time>
      </trkpt>
      <trkpt lat="63.412" lon="8.87062">
        <ele>74.378195</ele>
        <time>2020-08-04T13:41:47.897Z</time>
      </trkpt>
      <trkpt lat="63.41189" lon="8.87058">
        <ele>74.129659</ele>
        <time>2020-08-04T13:41:49.879Z</time>
      </trkpt>
      <trkpt lat="63.41178" lon="8.87057">
        <ele>73.872867</ele>
        <time>2020-08-04T13:41:51.896Z</time>
      </trkpt>
      <trkpt lat="63.41167" lon="8.87057">
        <ele>73.629712</ele>
        <time>2020-08-04T13:41:53.900Z</time>
      </trkpt>
      <trkpt lat="63.41156" lon="8.87056">
        <ele>73.401816</ele>
        <time>2020-08-04T13:41:55.879Z</time>
      </trkpt>
      <trkpt lat="63.41147" lon="8.87056">
        <ele>73.187388</ele>
        <time>2020-08-04T13:41:57.891Z</time>
      </trkpt>
      <trkpt lat="63.41137" lon="8.87054">
        <ele>72.965772</ele>
        <time>2020-08-04T13:41:59.886Z</time>
      </trkpt>
      <trkpt lat="63.41127" lon="8.87053">
        <ele>72.742142</ele>
        <time>2020-08-04T13:42:01.877Z</time>
      </trkpt>
      <trkpt lat="63.41116" lon="8.87055">
        <ele>72.509431</ele>
        <time>2020-08-04T13:42:03.917Z</time>
      </trkpt>
      <trkpt lat="63.41106" lon="8.87056">
        <ele>72.290368</ele>
        <time>2020-08-04T13:42:05.870Z</time>
      </trkpt>
      <trkpt lat="63.41097" lon="8.87057">
        <ele>72.075564</ele>
        <time>2020-08-04T13:42:07.890Z</time>
      </trkpt>
      <trkpt lat="63.41087" lon="8.87058">
        <ele>71.925852</ele>
        <time>2020-08-04T13:42:09.899Z</time>
      </trkpt>
      <trkpt lat="63.41078" lon="8.8706">
        <ele>71.906396</ele>
        <time>2020-08-04T13:42:11.924Z</time>
      </trkpt>
      <trkpt lat="63.41065" lon="8.87062">
        <ele>71.878595</ele>
        <time>2020-08-04T13:42:14.884Z</time>
      </trkpt>
      <trkpt lat="63.41052" lon="8.87064">
        <ele>71.850375</ele>
        <time>2020-08-04T13:42:17.874Z</time>
      </trkpt>
      <trkpt lat="63.41043" lon="8.87066">
        <ele>71.830427</ele>
        <time>2020-08-04T13:42:19.893Z</time>
      </trkpt>
      <trkpt lat="63.41033" lon="8.87068">
        <ele>71.809879</ele>
        <time>2020-08-04T13:42:21.887Z</time>
      </trkpt>
      <trkpt lat="63.41024" lon="8.87068">
        <ele>71.790468</ele>
        <time>2020-08-04T13:42:23.930Z</time>
      </trkpt>
      <trkpt lat="63.41014" lon="8.87068">
        <ele>71.768706</ele>
        <time>2020-08-04T13:42:25.881Z</time>
      </trkpt>
      <trkpt lat="63.41004" lon="8.87068">
        <ele>71.747576</ele>
        <time>2020-08-04T13:42:27.937Z</time>
      </trkpt>
      <trkpt lat="63.40994" lon="8.87065">
        <ele>71.726926</ele>
        <time>2020-08-04T13:42:29.906Z</time>
      </trkpt>
      <trkpt lat="63.40985" lon="8.87062">
        <ele>71.705786</ele>
        <time>2020-08-04T13:42:31.871Z</time>
      </trkpt>
      <trkpt lat="63.40975" lon="8.87058">
        <ele>71.685265</ele>
        <time>2020-08-04T13:42:33.896Z</time>
      </trkpt>
      <trkpt lat="63.40966" lon="8.87054">
        <ele>71.665634</ele>
        <time>2020-08-04T13:42:35.881Z</time>
      </trkpt>
      <trkpt lat="63.40957" lon="8.87048">
        <ele>71.644653</ele>
        <time>2020-08-04T13:42:37.908Z</time>
      </trkpt>
      <trkpt lat="63.40947" lon="8.87042">
        <ele>71.623839</ele>
        <time>2020-08-04T13:42:39.883Z</time>
      </trkpt>
      <trkpt lat="63.40938" lon="8.87035">
        <ele>71.60337</ele>
        <time>2020-08-04T13:42:41.924Z</time>
      </trkpt>
      <trkpt lat="63.40929" lon="8.87028">
        <ele>71.583043</ele>
        <time>2020-08-04T13:42:43.879Z</time>
      </trkpt>
      <trkpt lat="63.4092" lon="8.87022">
        <ele>71.563274</ele>
        <time>2020-08-04T13:42:45.887Z</time>
      </trkpt>
      <trkpt lat="63.40912" lon="8.87015">
        <ele>71.527438</ele>
        <time>2020-08-04T13:42:47.879Z</time>
      </trkpt>
      <trkpt lat="63.40903" lon="8.87008">
        <ele>71.434057</ele>
        <time>2020-08-04T13:42:49.926Z</time>
      </trkpt>
      <trkpt lat="63.40893" lon="8.87002">
        <ele>71.337203</ele>
        <time>2020-08-04T13:42:51.920Z</time>
      </trkpt>
      <trkpt lat="63.40883" lon="8.86997">
        <ele>71.239608</ele>
        <time>2020-08-04T13:42:53.879Z</time>
      </trkpt>
      <trkpt lat="63.40873" lon="8.86993">
        <ele>71.137011</ele>
        <time>2020-08-04T13:42:55.879Z</time>
      </trkpt>
      <trkpt lat="63.40863" lon="8.86988">
        <ele>71.036418</ele>
        <time>2020-08-04T13:42:57.912Z</time>
      </trkpt>
      <trkpt lat="63.40852" lon="8.86986">
        <ele>70.933012</ele>
        <time>2020-08-04T13:42:59.891Z</time>
      </trkpt>
      <trkpt lat="63.40842" lon="8.86984">
        <ele>70.831051</ele>
        <time>2020-08-04T13:43:01.935Z</time>
      </trkpt>
      <trkpt lat="63.40832" lon="8.86983">
        <ele>70.73214</ele>
        <time>2020-08-04T13:43:03.880Z</time>
      </trkpt>
      <trkpt lat="63.40821" lon="8.86983">
        <ele>70.630387</ele>
        <time>2020-08-04T13:43:05.873Z</time>
      </trkpt>
      <trkpt lat="63.40812" lon="8.86984">
        <ele>70.533386</ele>
        <time>2020-08-04T13:43:07.890Z</time>
      </trkpt>
      <trkpt lat="63.40802" lon="8.86986">
        <ele>70.44112</ele>
        <time>2020-08-04T13:43:09.878Z</time>
      </trkpt>
      <trkpt lat="63.40793" lon="8.86989">
        <ele>70.348452</ele>
        <time>2020-08-04T13:43:11.910Z</time>
      </trkpt>
      <trkpt lat="63.40783" lon="8.86991">
        <ele>70.255784</ele>
        <time>2020-08-04T13:43:13.885Z</time>
      </trkpt>
      <trkpt lat="63.40774" lon="8.86994">
        <ele>70.166135</ele>
        <time>2020-08-04T13:43:15.888Z</time>
      </trkpt>
      <trkpt lat="63.40765" lon="8.86997">
        <ele>70.073638</ele>
        <time>2020-08-04T13:43:17.927Z</time>
      </trkpt>
      <trkpt lat="63.40755" lon="8.87002">
        <ele>69.978047</ele>
        <time>2020-08-04T13:43:19.889Z</time>
      </trkpt>
      <trkpt lat="63.40746" lon="8.87008">
        <ele>69.886525</ele>
        <time>2020-08-04T13:43:21.882Z</time>
      </trkpt>
      <trkpt lat="63.40734" lon="8.87017">
        <ele>69.740421</ele>
        <time>2020-08-04T13:43:24.886Z</time>
      </trkpt>
      <trkpt lat="63.40725" lon="8.87024">
        <ele>69.604758</ele>
        <time>2020-08-04T13:43:26.871Z</time>
      </trkpt>
      <trkpt lat="63.40712" lon="8.87036">
        <ele>69.40972</ele>
        <time>2020-08-04T13:43:29.871Z</time>
      </trkpt>
      <trkpt lat="63.40704" lon="8.87043">
        <ele>69.277821</ele>
        <time>2020-08-04T13:43:31.864Z</time>
      </trkpt>
      <trkpt lat="63.40692" lon="8.87056">
        <ele>69.088351</ele>
        <time>2020-08-04T13:43:34.883Z</time>
      </trkpt>
      <trkpt lat="63.40681" lon="8.8707">
        <ele>68.904786</ele>
        <time>2020-08-04T13:43:37.872Z</time>
      </trkpt>
      <trkpt lat="63.40671" lon="8.87085">
        <ele>68.730136</ele>
        <time>2020-08-04T13:43:40.888Z</time>
      </trkpt>
      <trkpt lat="63.40662" lon="8.87101">
        <ele>68.556072</ele>
        <time>2020-08-04T13:43:43.896Z</time>
      </trkpt>
      <trkpt lat="63.40651" lon="8.87118">
        <ele>68.367663</ele>
        <time>2020-08-04T13:43:46.880Z</time>
      </trkpt>
      <trkpt lat="63.40641" lon="8.87135">
        <ele>68.183527</ele>
        <time>2020-08-04T13:43:49.888Z</time>
      </trkpt>
      <trkpt lat="63.40632" lon="8.87153">
        <ele>68.005343</ele>
        <time>2020-08-04T13:43:52.884Z</time>
      </trkpt>
      <trkpt lat="63.40622" lon="8.87171">
        <ele>67.824148</ele>
        <time>2020-08-04T13:43:55.915Z</time>
      </trkpt>
      <trkpt lat="63.40612" lon="8.87188">
        <ele>67.645427</ele>
        <time>2020-08-04T13:43:58.892Z</time>
      </trkpt>
      <trkpt lat="63.40605" lon="8.872">
        <ele>67.514786</ele>
        <time>2020-08-04T13:44:00.875Z</time>
      </trkpt>
      <trkpt lat="63.40594" lon="8.87218">
        <ele>67.320177</ele>
        <time>2020-08-04T13:44:03.884Z</time>
      </trkpt>
      <trkpt lat="63.40587" lon="8.8723">
        <ele>67.186822</ele>
        <time>2020-08-04T13:44:05.883Z</time>
      </trkpt>
      <trkpt lat="63.40579" lon="8.87242">
        <ele>67.343783</ele>
        <time>2020-08-04T13:44:07.889Z</time>
      </trkpt>
      <trkpt lat="63.40568" lon="8.87256">
        <ele>67.587965</ele>
        <time>2020-08-04T13:44:10.888Z</time>
      </trkpt>
      <trkpt lat="63.4056" lon="8.87265">
        <ele>67.762323</ele>
        <time>2020-08-04T13:44:12.909Z</time>
      </trkpt>
      <trkpt lat="63.40547" lon="8.87275">
        <ele>68.006217</ele>
        <time>2020-08-04T13:44:15.873Z</time>
      </trkpt>
      <trkpt lat="63.40535" lon="8.87286">
        <ele>68.250697</ele>
        <time>2020-08-04T13:44:18.924Z</time>
      </trkpt>
      <trkpt lat="63.40523" lon="8.87294">
        <ele>68.483035</ele>
        <time>2020-08-04T13:44:21.908Z</time>
      </trkpt>
      <trkpt lat="63.40512" lon="8.87301">
        <ele>68.700244</ele>
        <time>2020-08-04T13:44:24.891Z</time>
      </trkpt>
      <trkpt lat="63.40501" lon="8.87307">
        <ele>68.918171</ele>
        <time>2020-08-04T13:44:27.881Z</time>
      </trkpt>
      <trkpt lat="63.40492" lon="8.87312">
        <ele>69.085145</ele>
        <time>2020-08-04T13:44:29.912Z</time>
      </trkpt>
      <trkpt lat="63.40479" lon="8.87318">
        <ele>69.330489</ele>
        <time>2020-08-04T13:44:32.878Z</time>
      </trkpt>
      <trkpt lat="63.40467" lon="8.87325">
        <ele>69.56799</ele>
        <time>2020-08-04T13:44:35.907Z</time>
      </trkpt>
      <trkpt lat="63.40454" lon="8.87333">
        <ele>69.815124</ele>
        <time>2020-08-04T13:44:38.900Z</time>
      </trkpt>
      <trkpt lat="63.40443" lon="8.87341">
        <ele>70.039829</ele>
        <time>2020-08-04T13:44:41.908Z</time>
      </trkpt>
      <trkpt lat="63.4043" lon="8.87349">
        <ele>70.279324</ele>
        <time>2020-08-04T13:44:44.896Z</time>
      </trkpt>
      <trkpt lat="63.40419" lon="8.87359">
        <ele>70.511846</ele>
        <time>2020-08-04T13:44:47.865Z</time>
      </trkpt>
      <trkpt lat="63.40408" lon="8.87372">
        <ele>70.635788</ele>
        <time>2020-08-04T13:44:50.886Z</time>
      </trkpt>
      <trkpt lat="63.40396" lon="8.87386">
        <ele>70.753288</ele>
        <time>2020-08-04T13:44:53.892Z</time>
      </trkpt>
      <trkpt lat="63.40388" lon="8.87398">
        <ele>70.832261</ele>
        <time>2020-08-04T13:44:55.898Z</time>
      </trkpt>
      <trkpt lat="63.40378" lon="8.87417">
        <ele>70.950538</ele>
        <time>2020-08-04T13:44:58.887Z</time>
      </trkpt>
      <trkpt lat="63.40368" lon="8.87436">
        <ele>71.064708</ele>
        <time>2020-08-04T13:45:01.902Z</time>
      </trkpt>
      <trkpt lat="63.40359" lon="8.87458">
        <ele>71.178693</ele>
        <time>2020-08-04T13:45:04.923Z</time>
      </trkpt>
      <trkpt lat="63.4035" lon="8.8748">
        <ele>71.296739</ele>
        <time>2020-08-04T13:45:07.889Z</time>
      </trkpt>
      <trkpt lat="63.40345" lon="8.87497">
        <ele>71.378163</ele>
        <time>2020-08-04T13:45:09.917Z</time>
      </trkpt>
      <trkpt lat="63.40339" lon="8.87515">
        <ele>71.461832</ele>
        <time>2020-08-04T13:45:11.901Z</time>
      </trkpt>
      <trkpt lat="63.40335" lon="8.87533">
        <ele>71.545146</ele>
        <time>2020-08-04T13:45:13.885Z</time>
      </trkpt>
      <trkpt lat="63.4033" lon="8.87552">
        <ele>71.626297</ele>
        <time>2020-08-04T13:45:15.892Z</time>
      </trkpt>
      <trkpt lat="63.40327" lon="8.8757">
        <ele>71.705573</ele>
        <time>2020-08-04T13:45:17.859Z</time>
      </trkpt>
      <trkpt lat="63.4032" lon="8.87596">
        <ele>71.820469</ele>
        <time>2020-08-04T13:45:20.911Z</time>
      </trkpt>
      <trkpt lat="63.40313" lon="8.87622">
        <ele>71.940306</ele>
        <time>2020-08-04T13:45:23.922Z</time>
      </trkpt>
      <trkpt lat="63.40309" lon="8.87641">
        <ele>72.023648</ele>
        <time>2020-08-04T13:45:25.899Z</time>
      </trkpt>
      <trkpt lat="63.40304" lon="8.8766">
        <ele>72.109313</ele>
        <time>2020-08-04T13:45:27.925Z</time>
      </trkpt>
      <trkpt lat="63.40298" lon="8.87681">
        <ele>72.060456</ele>
        <time>2020-08-04T13:45:29.889Z</time>
      </trkpt>
      <trkpt lat="63.40293" lon="8.87698">
        <ele>72.014091</ele>
        <time>2020-08-04T13:45:31.880Z</time>
      </trkpt>
      <trkpt lat="63.40287" lon="8.87715">
        <ele>71.967588</ele>
        <time>2020-08-04T13:45:33.899Z</time>
      </trkpt>
      <trkpt lat="63.4028" lon="8.87732">
        <ele>71.921116</ele>
        <time>2020-08-04T13:45:35.900Z</time>
      </trkpt>
      <trkpt lat="63.40274" lon="8.87749">
        <ele>71.874044</ele>
        <time>2020-08-04T13:45:37.877Z</time>
      </trkpt>
      <trkpt lat="63.40267" lon="8.87764">
        <ele>71.828712</ele>
        <time>2020-08-04T13:45:39.890Z</time>
      </trkpt>
      <trkpt lat="63.4026" lon="8.87778">
        <ele>71.784697</ele>
        <time>2020-08-04T13:45:41.879Z</time>
      </trkpt>
      <trkpt lat="63.40253" lon="8.87792">
        <ele>71.738097</ele>
        <time>2020-08-04T13:45:43.872Z</time>
      </trkpt>
      <trkpt lat="63.40245" lon="8.87805">
        <ele>71.693097</ele>
        <time>2020-08-04T13:45:45.896Z</time>
      </trkpt>
      <trkpt lat="63.40238" lon="8.87817">
        <ele>71.647328</ele>
        <time>2020-08-04T13:45:47.884Z</time>
      </trkpt>
      <trkpt lat="63.4023" lon="8.8783">
        <ele>71.601559</ele>
        <time>2020-08-04T13:45:49.878Z</time>
      </trkpt>
      <trkpt lat="63.40222" lon="8.87841">
        <ele>71.556948</ele>
        <time>2020-08-04T13:45:51.894Z</time>
      </trkpt>
      <trkpt lat="63.40211" lon="8.87856">
        <ele>71.495054</ele>
        <time>2020-08-04T13:45:54.912Z</time>
      </trkpt>
      <trkpt lat="63.40203" lon="8.87868">
        <ele>71.450097</ele>
        <time>2020-08-04T13:45:56.882Z</time>
      </trkpt>
      <trkpt lat="63.40195" lon="8.87878">
        <ele>71.40566</ele>
        <time>2020-08-04T13:45:58.880Z</time>
      </trkpt>
      <trkpt lat="63.40187" lon="8.87887">
        <ele>71.361056</ele>
        <time>2020-08-04T13:46:00.907Z</time>
      </trkpt>
      <trkpt lat="63.40178" lon="8.87896">
        <ele>71.316209</ele>
        <time>2020-08-04T13:46:02.907Z</time>
      </trkpt>
      <trkpt lat="63.4017" lon="8.87906">
        <ele>71.272291</ele>
        <time>2020-08-04T13:46:04.872Z</time>
      </trkpt>
      <trkpt lat="63.40162" lon="8.87915">
        <ele>71.303454</ele>
        <time>2020-08-04T13:46:06.900Z</time>
      </trkpt>
      <trkpt lat="63.4015" lon="8.87927">
        <ele>71.425052</ele>
        <time>2020-08-04T13:46:09.883Z</time>
      </trkpt>
      <trkpt lat="63.40139" lon="8.87942">
        <ele>71.549378</ele>
        <time>2020-08-04T13:46:12.887Z</time>
      </trkpt>
      <trkpt lat="63.40128" lon="8.87957">
        <ele>71.672573</ele>
        <time>2020-08-04T13:46:15.915Z</time>
      </trkpt>
      <trkpt lat="63.4012" lon="8.87968">
        <ele>71.758225</ele>
        <time>2020-08-04T13:46:17.887Z</time>
      </trkpt>
      <trkpt lat="63.40112" lon="8.8798">
        <ele>71.844845</ele>
        <time>2020-08-04T13:46:19.883Z</time>
      </trkpt>
      <trkpt lat="63.40101" lon="8.87997">
        <ele>71.971333</ele>
        <time>2020-08-04T13:46:22.908Z</time>
      </trkpt>
      <trkpt lat="63.40094" lon="8.88009">
        <ele>72.05847</ele>
        <time>2020-08-04T13:46:24.900Z</time>
      </trkpt>
      <trkpt lat="63.40083" lon="8.88025">
        <ele>72.180216</ele>
        <time>2020-08-04T13:46:27.895Z</time>
      </trkpt>
      <trkpt lat="63.40073" lon="8.88044">
        <ele>72.306008</ele>
        <time>2020-08-04T13:46:30.880Z</time>
      </trkpt>
      <trkpt lat="63.40063" lon="8.88062">
        <ele>72.429579</ele>
        <time>2020-08-04T13:46:33.925Z</time>
      </trkpt>
      <trkpt lat="63.40053" lon="8.88078">
        <ele>72.539226</ele>
        <time>2020-08-04T13:46:36.893Z</time>
      </trkpt>
      <trkpt lat="63.40045" lon="8.88095">
        <ele>72.647417</ele>
        <time>2020-08-04T13:46:39.895Z</time>
      </trkpt>
      <trkpt lat="63.40036" lon="8.8811">
        <ele>72.752724</ele>
        <time>2020-08-04T13:46:42.909Z</time>
      </trkpt>
      <trkpt lat="63.40028" lon="8.88123">
        <ele>72.849488</ele>
        <time>2020-08-04T13:46:45.882Z</time>
      </trkpt>
      <trkpt lat="63.40019" lon="8.88133">
        <ele>72.936294</ele>
        <time>2020-08-04T13:46:48.880Z</time>
      </trkpt>
      <trkpt lat="63.4001" lon="8.88144">
        <ele>73.498866</ele>
        <time>2020-08-04T13:46:52.873Z</time>
      </trkpt>
      <trkpt lat="63.40001" lon="8.88155">
        <ele>74.154844</ele>
        <time>2020-08-04T13:46:57.885Z</time>
      </trkpt>
      <trkpt lat="63.39992" lon="8.88164">
        <ele>74.751403</ele>
        <time>2020-08-04T13:47:02.903Z</time>
      </trkpt>
      <trkpt lat="63.39985" lon="8.88176">
        <ele>75.328909</ele>
        <time>2020-08-04T13:47:07.909Z</time>
      </trkpt>
      <trkpt lat="63.39977" lon="8.88187">
        <ele>75.914904</ele>
        <time>2020-08-04T13:47:12.903Z</time>
      </trkpt>
      <trkpt lat="63.39968" lon="8.88199">
        <ele>76.55466</ele>
        <time>2020-08-04T13:47:18.887Z</time>
      </trkpt>
      <trkpt lat="63.39959" lon="8.88211">
        <ele>77.205416</ele>
        <time>2020-08-04T13:47:24.879Z</time>
      </trkpt>
      <trkpt lat="63.39951" lon="8.88222">
        <ele>77.787625</ele>
        <time>2020-08-04T13:47:30.883Z</time>
      </trkpt>
      <trkpt lat="63.39943" lon="8.88231">
        <ele>78.352471</ele>
        <time>2020-08-04T13:47:35.891Z</time>
      </trkpt>
      <trkpt lat="63.39934" lon="8.8824">
        <ele>78.930244</ele>
        <time>2020-08-04T13:47:41.879Z</time>
      </trkpt>
      <trkpt lat="63.39927" lon="8.88251">
        <ele>79.495982</ele>
        <time>2020-08-04T13:47:48.879Z</time>
      </trkpt>
      <trkpt lat="63.39917" lon="8.88259">
        <ele>80.156912</ele>
        <time>2020-08-04T13:47:55.905Z</time>
      </trkpt>
      <trkpt lat="63.39908" lon="8.88267">
        <ele>80.751777</ele>
        <time>2020-08-04T13:48:01.890Z</time>
      </trkpt>
      <trkpt lat="63.39899" lon="8.88274">
        <ele>81.326207</ele>
        <time>2020-08-04T13:48:08.920Z</time>
      </trkpt>
      <trkpt lat="63.39891" lon="8.88281">
        <ele>81.899711</ele>
        <time>2020-08-04T13:48:14.890Z</time>
      </trkpt>
      <trkpt lat="63.39881" lon="8.88288">
        <ele>82.498553</ele>
        <time>2020-08-04T13:48:20.909Z</time>
      </trkpt>
      <trkpt lat="63.39872" lon="8.88295">
        <ele>83.123522</ele>
        <time>2020-08-04T13:48:26.899Z</time>
      </trkpt>
      <trkpt lat="63.39863" lon="8.88299">
        <ele>83.697359</ele>
        <time>2020-08-04T13:48:31.890Z</time>
      </trkpt>
      <trkpt lat="63.39853" lon="8.88306">
        <ele>84.255832</ele>
        <time>2020-08-04T13:48:37.877Z</time>
      </trkpt>
      <trkpt lat="63.39843" lon="8.88313">
        <ele>84.605701</ele>
        <time>2020-08-04T13:48:43.907Z</time>
      </trkpt>
      <trkpt lat="63.39833" lon="8.88319">
        <ele>84.954868</ele>
        <time>2020-08-04T13:48:49.883Z</time>
      </trkpt>
      <trkpt lat="63.39824" lon="8.88323">
        <ele>85.263361</ele>
        <time>2020-08-04T13:48:54.889Z</time>
      </trkpt>
      <trkpt lat="63.39814" lon="8.8833">
        <ele>85.620959</ele>
        <time>2020-08-04T13:48:59.907Z</time>
      </trkpt>
      <trkpt lat="63.39804" lon="8.88333">
        <ele>85.958257</ele>
        <time>2020-08-04T13:49:04.880Z</time>
      </trkpt>
      <trkpt lat="63.39794" lon="8.88335">
        <ele>86.292377</ele>
        <time>2020-08-04T13:49:09.890Z</time>
      </trkpt>
      <trkpt lat="63.39784" lon="8.8834">
        <ele>86.63916</ele>
        <time>2020-08-04T13:49:15.899Z</time>
      </trkpt>
      <trkpt lat="63.39774" lon="8.88343">
        <ele>86.980457</ele>
        <time>2020-08-04T13:49:19.891Z</time>
      </trkpt>
      <trkpt lat="63.39762" lon="8.88344">
        <ele>87.359959</ele>
        <time>2020-08-04T13:49:23.890Z</time>
      </trkpt>
      <trkpt lat="63.39752" lon="8.88348">
        <ele>87.720408</ele>
        <time>2020-08-04T13:49:27.910Z</time>
      </trkpt>
      <trkpt lat="63.3974" lon="8.8835">
        <ele>88.11506</ele>
        <time>2020-08-04T13:49:31.887Z</time>
      </trkpt>
      <trkpt lat="63.39731" lon="8.88354">
        <ele>88.429254</ele>
        <time>2020-08-04T13:49:34.888Z</time>
      </trkpt>
      <trkpt lat="63.39721" lon="8.88356">
        <ele>88.765865</ele>
        <time>2020-08-04T13:49:37.895Z</time>
      </trkpt>
      <trkpt lat="63.3971" lon="8.88353">
        <ele>89.123659</ele>
        <time>2020-08-04T13:49:40.893Z</time>
      </trkpt>
      <trkpt lat="63.39699" lon="8.88345">
        <ele>89.527391</ele>
        <time>2020-08-04T13:49:43.888Z</time>
      </trkpt>
      <trkpt lat="63.39689" lon="8.8834">
        <ele>89.856825</ele>
        <time>2020-08-04T13:49:45.889Z</time>
      </trkpt>
      <trkpt lat="63.39678" lon="8.88342">
        <ele>90.125792</ele>
        <time>2020-08-04T13:49:47.871Z</time>
      </trkpt>
      <trkpt lat="63.39668" lon="8.88341">
        <ele>89.646585</ele>
        <time>2020-08-04T13:49:49.899Z</time>
      </trkpt>
      <trkpt lat="63.39659" lon="8.88339">
        <ele>89.229276</ele>
        <time>2020-08-04T13:49:51.907Z</time>
      </trkpt>
      <trkpt lat="63.39648" lon="8.88334">
        <ele>88.73222</ele>
        <time>2020-08-04T13:49:53.911Z</time>
      </trkpt>
      <trkpt lat="63.39636" lon="8.88331">
        <ele>88.158077</ele>
        <time>2020-08-04T13:49:55.928Z</time>
      </trkpt>
      <trkpt lat="63.39623" lon="8.88327">
        <ele>87.555278</ele>
        <time>2020-08-04T13:49:57.877Z</time>
      </trkpt>
      <trkpt lat="63.3961" lon="8.8832">
        <ele>86.925284</ele>
        <time>2020-08-04T13:49:59.880Z</time>
      </trkpt>
      <trkpt lat="63.39595" lon="8.88315">
        <ele>86.215262</ele>
        <time>2020-08-04T13:50:01.882Z</time>
      </trkpt>
      <trkpt lat="63.39579" lon="8.88308">
        <ele>85.492883</ele>
        <time>2020-08-04T13:50:03.911Z</time>
      </trkpt>
      <trkpt lat="63.39563" lon="8.88302">
        <ele>84.759116</ele>
        <time>2020-08-04T13:50:05.900Z</time>
      </trkpt>
      <trkpt lat="63.39547" lon="8.88298">
        <ele>83.9847</ele>
        <time>2020-08-04T13:50:07.888Z</time>
      </trkpt>
      <trkpt lat="63.39529" lon="8.88295">
        <ele>83.176157</ele>
        <time>2020-08-04T13:50:09.898Z</time>
      </trkpt>
      <trkpt lat="63.3952" lon="8.88295">
        <ele>82.761508</ele>
        <time>2020-08-04T13:50:10.898Z</time>
      </trkpt>
      <trkpt lat="63.39511" lon="8.88294">
        <ele>82.342172</ele>
        <time>2020-08-04T13:50:11.913Z</time>
      </trkpt>
      <trkpt lat="63.39502" lon="8.88294">
        <ele>81.927523</ele>
        <time>2020-08-04T13:50:12.876Z</time>
      </trkpt>
      <trkpt lat="63.39493" lon="8.88295">
        <ele>81.418419</ele>
        <time>2020-08-04T13:50:13.879Z</time>
      </trkpt>
      <trkpt lat="63.39483" lon="8.88298">
        <ele>80.890292</ele>
        <time>2020-08-04T13:50:14.888Z</time>
      </trkpt>
      <trkpt lat="63.39473" lon="8.88301">
        <ele>80.319847</ele>
        <time>2020-08-04T13:50:15.880Z</time>
      </trkpt>
      <trkpt lat="63.39462" lon="8.88306">
        <ele>79.746484</ele>
        <time>2020-08-04T13:50:16.895Z</time>
      </trkpt>
      <trkpt lat="63.39452" lon="8.88311">
        <ele>79.164427</ele>
        <time>2020-08-04T13:50:17.897Z</time>
      </trkpt>
      <trkpt lat="63.39441" lon="8.88317">
        <ele>78.553932</ele>
        <time>2020-08-04T13:50:18.897Z</time>
      </trkpt>
      <trkpt lat="63.3943" lon="8.88326">
        <ele>77.919083</ele>
        <time>2020-08-04T13:50:19.882Z</time>
      </trkpt>
      <trkpt lat="63.39418" lon="8.88336">
        <ele>77.241984</ele>
        <time>2020-08-04T13:50:20.920Z</time>
      </trkpt>
      <trkpt lat="63.39407" lon="8.88347">
        <ele>76.565378</ele>
        <time>2020-08-04T13:50:21.905Z</time>
      </trkpt>
      <trkpt lat="63.39395" lon="8.8836">
        <ele>75.880123</ele>
        <time>2020-08-04T13:50:22.893Z</time>
      </trkpt>
      <trkpt lat="63.39385" lon="8.88374">
        <ele>75.211785</ele>
        <time>2020-08-04T13:50:23.889Z</time>
      </trkpt>
      <trkpt lat="63.39375" lon="8.8839">
        <ele>74.546559</ele>
        <time>2020-08-04T13:50:24.931Z</time>
      </trkpt>
      <trkpt lat="63.39365" lon="8.88407">
        <ele>73.88362</ele>
        <time>2020-08-04T13:50:25.908Z</time>
      </trkpt>
      <trkpt lat="63.39357" lon="8.88426">
        <ele>73.236762</ele>
        <time>2020-08-04T13:50:26.891Z</time>
      </trkpt>
      <trkpt lat="63.39349" lon="8.88444">
        <ele>72.634989</ele>
        <time>2020-08-04T13:50:27.886Z</time>
      </trkpt>
      <trkpt lat="63.39342" lon="8.88463">
        <ele>72.163822</ele>
        <time>2020-08-04T13:50:28.895Z</time>
      </trkpt>
      <trkpt lat="63.39336" lon="8.88481">
        <ele>72.244062</ele>
        <time>2020-08-04T13:50:29.924Z</time>
      </trkpt>
      <trkpt lat="63.3933" lon="8.88499">
        <ele>72.319987</ele>
        <time>2020-08-04T13:50:30.895Z</time>
      </trkpt>
      <trkpt lat="63.39325" lon="8.88516">
        <ele>72.390627</ele>
        <time>2020-08-04T13:50:31.897Z</time>
      </trkpt>
      <trkpt lat="63.39315" lon="8.88546">
        <ele>72.515968</ele>
        <time>2020-08-04T13:50:33.904Z</time>
      </trkpt>
      <trkpt lat="63.39308" lon="8.88572">
        <ele>72.619566</ele>
        <time>2020-08-04T13:50:35.890Z</time>
      </trkpt>
      <trkpt lat="63.39301" lon="8.88591">
        <ele>72.705614</ele>
        <time>2020-08-04T13:50:37.905Z</time>
      </trkpt>
      <trkpt lat="63.39294" lon="8.88608">
        <ele>72.782647</ele>
        <time>2020-08-04T13:50:39.890Z</time>
      </trkpt>
      <trkpt lat="63.39286" lon="8.88627">
        <ele>72.873239</ele>
        <time>2020-08-04T13:50:42.892Z</time>
      </trkpt>
      <trkpt lat="63.3928" lon="8.88644">
        <ele>72.947739</ele>
        <time>2020-08-04T13:50:45.883Z</time>
      </trkpt>
      <trkpt lat="63.39272" lon="8.88661">
        <ele>73.029202</ele>
        <time>2020-08-04T13:50:49.918Z</time>
      </trkpt>
      <trkpt lat="63.39266" lon="8.8868">
        <ele>73.112003</ele>
        <time>2020-08-04T13:50:54.900Z</time>
      </trkpt>
      <trkpt lat="63.39257" lon="8.88695">
        <ele>73.19392</ele>
        <time>2020-08-04T13:51:00.880Z</time>
      </trkpt>
      <trkpt lat="63.39249" lon="8.88709">
        <ele>73.275546</ele>
        <time>2020-08-04T13:51:06.895Z</time>
      </trkpt>
      <trkpt lat="63.39239" lon="8.8872">
        <ele>73.359557</ele>
        <time>2020-08-04T13:51:11.887Z</time>
      </trkpt>
      <trkpt lat="63.39229" lon="8.88732">
        <ele>73.44754</ele>
        <time>2020-08-04T13:51:15.886Z</time>
      </trkpt>
      <trkpt lat="63.39219" lon="8.8874">
        <ele>73.497044</ele>
        <time>2020-08-04T13:51:18.883Z</time>
      </trkpt>
      <trkpt lat="63.39206" lon="8.88752">
        <ele>72.935238</ele>
        <time>2020-08-04T13:51:21.903Z</time>
      </trkpt>
      <trkpt lat="63.39196" lon="8.88763">
        <ele>72.463806</ele>
        <time>2020-08-04T13:51:23.897Z</time>
      </trkpt>
      <trkpt lat="63.39184" lon="8.88775">
        <ele>71.947267</ele>
        <time>2020-08-04T13:51:25.891Z</time>
      </trkpt>
      <trkpt lat="63.39171" lon="8.88788">
        <ele>71.346423</ele>
        <time>2020-08-04T13:51:27.889Z</time>
      </trkpt>
      <trkpt lat="63.39157" lon="8.88806">
        <ele>70.693951</ele>
        <time>2020-08-04T13:51:29.898Z</time>
      </trkpt>
      <trkpt lat="63.39143" lon="8.88828">
        <ele>70.002413</ele>
        <time>2020-08-04T13:51:31.901Z</time>
      </trkpt>
      <trkpt lat="63.39131" lon="8.88852">
        <ele>69.309668</ele>
        <time>2020-08-04T13:51:33.960Z</time>
      </trkpt>
      <trkpt lat="63.3912" lon="8.88882">
        <ele>68.5967</ele>
        <time>2020-08-04T13:51:35.901Z</time>
      </trkpt>
      <trkpt lat="63.39109" lon="8.88913">
        <ele>67.887407</ele>
        <time>2020-08-04T13:51:37.901Z</time>
      </trkpt>
      <trkpt lat="63.391" lon="8.88943">
        <ele>67.206908</ele>
        <time>2020-08-04T13:51:39.926Z</time>
      </trkpt>
      <trkpt lat="63.3909" lon="8.88973">
        <ele>66.515854</ele>
        <time>2020-08-04T13:51:41.890Z</time>
      </trkpt>
      <trkpt lat="63.39079" lon="8.89001">
        <ele>66.039239</ele>
        <time>2020-08-04T13:51:43.904Z</time>
      </trkpt>
      <trkpt lat="63.39067" lon="8.89024">
        <ele>65.857046</ele>
        <time>2020-08-04T13:51:45.870Z</time>
      </trkpt>
      <trkpt lat="63.39055" lon="8.89043">
        <ele>65.683369</ele>
        <time>2020-08-04T13:51:47.920Z</time>
      </trkpt>
      <trkpt lat="63.39042" lon="8.89057">
        <ele>65.516602</ele>
        <time>2020-08-04T13:51:49.885Z</time>
      </trkpt>
      <trkpt lat="63.39029" lon="8.89066">
        <ele>65.354336</ele>
        <time>2020-08-04T13:51:51.880Z</time>
      </trkpt>
      <trkpt lat="63.39015" lon="8.8907">
        <ele>65.199175</ele>
        <time>2020-08-04T13:51:53.888Z</time>
      </trkpt>
      <trkpt lat="63.39003" lon="8.89071">
        <ele>65.05016</ele>
        <time>2020-08-04T13:51:55.919Z</time>
      </trkpt>
      <trkpt lat="63.3899" lon="8.89072">
        <ele>64.907091</ele>
        <time>2020-08-04T13:51:57.895Z</time>
      </trkpt>
      <trkpt lat="63.38979" lon="8.89071">
        <ele>64.777965</ele>
        <time>2020-08-04T13:51:59.920Z</time>
      </trkpt>
      <trkpt lat="63.3897" lon="8.89069">
        <ele>64.669071</ele>
        <time>2020-08-04T13:52:01.899Z</time>
      </trkpt>
      <trkpt lat="63.38956" lon="8.89067">
        <ele>64.51069</ele>
        <time>2020-08-04T13:52:04.887Z</time>
      </trkpt>
      <trkpt lat="63.38947" lon="8.89069">
        <ele>64.403173</ele>
        <time>2020-08-04T13:52:06.906Z</time>
      </trkpt>
      <trkpt lat="63.38935" lon="8.89074">
        <ele>64.256879</ele>
        <time>2020-08-04T13:52:09.914Z</time>
      </trkpt>
      <trkpt lat="63.38924" lon="8.8908">
        <ele>64.129018</ele>
        <time>2020-08-04T13:52:12.885Z</time>
      </trkpt>
      <trkpt lat="63.38915" lon="8.89086">
        <ele>64.055362</ele>
        <time>2020-08-04T13:52:15.883Z</time>
      </trkpt>
      <trkpt lat="63.38907" lon="8.89093">
        <ele>64.783038</ele>
        <time>2020-08-04T13:52:18.892Z</time>
      </trkpt>
      <trkpt lat="63.38896" lon="8.89103">
        <ele>65.687669</ele>
        <time>2020-08-04T13:52:22.911Z</time>
      </trkpt>
      <trkpt lat="63.38887" lon="8.89115">
        <ele>66.549409</ele>
        <time>2020-08-04T13:52:26.887Z</time>
      </trkpt>
      <trkpt lat="63.38878" lon="8.89127">
        <ele>67.374534</ele>
        <time>2020-08-04T13:52:31.895Z</time>
      </trkpt>
      <trkpt lat="63.38871" lon="8.89142">
        <ele>68.193304</ele>
        <time>2020-08-04T13:52:36.886Z</time>
      </trkpt>
      <trkpt lat="63.38864" lon="8.89157">
        <ele>68.952951</ele>
        <time>2020-08-04T13:52:41.910Z</time>
      </trkpt>
      <trkpt lat="63.38858" lon="8.89174">
        <ele>69.728572</ele>
        <time>2020-08-04T13:52:47.871Z</time>
      </trkpt>
      <trkpt lat="63.38852" lon="8.8919">
        <ele>70.487604</ele>
        <time>2020-08-04T13:52:54.912Z</time>
      </trkpt>
      <trkpt lat="63.38846" lon="8.89205">
        <ele>71.212748</ele>
        <time>2020-08-04T13:53:01.929Z</time>
      </trkpt>
      <trkpt lat="63.38841" lon="8.89223">
        <ele>71.944173</ele>
        <time>2020-08-04T13:53:08.907Z</time>
      </trkpt>
      <trkpt lat="63.38837" lon="8.89243">
        <ele>72.761474</ele>
        <time>2020-08-04T13:53:14.901Z</time>
      </trkpt>
      <trkpt lat="63.38833" lon="8.89262">
        <ele>73.506133</ele>
        <time>2020-08-04T13:53:19.884Z</time>
      </trkpt>
      <trkpt lat="63.38831" lon="8.89285">
        <ele>74.322681</ele>
        <time>2020-08-04T13:53:26.894Z</time>
      </trkpt>
      <trkpt lat="63.38827" lon="8.89306">
        <ele>75.15231</ele>
        <time>2020-08-04T13:53:33.912Z</time>
      </trkpt>
      <trkpt lat="63.38824" lon="8.89327">
        <ele>75.952399</ele>
        <time>2020-08-04T13:53:39.906Z</time>
      </trkpt>
      <trkpt lat="63.38819" lon="8.89345">
        <ele>76.686724</ele>
        <time>2020-08-04T13:53:44.947Z</time>
      </trkpt>
      <trkpt lat="63.38815" lon="8.89366">
        <ele>77.490344</ele>
        <time>2020-08-04T13:53:50.899Z</time>
      </trkpt>
      <trkpt lat="63.3881" lon="8.89383">
        <ele>78.218118</ele>
        <time>2020-08-04T13:53:57.884Z</time>
      </trkpt>
      <trkpt lat="63.38803" lon="8.89397">
        <ele>79.120313</ele>
        <time>2020-08-04T13:54:04.883Z</time>
      </trkpt>
      <trkpt lat="63.38795" lon="8.89411">
        <ele>80.050697</ele>
        <time>2020-08-04T13:54:11.900Z</time>
      </trkpt>
      <trkpt lat="63.38788" lon="8.89427">
        <ele>81.0192</ele>
        <time>2020-08-04T13:54:19.936Z</time>
      </trkpt>
      <trkpt lat="63.38778" lon="8.89436">
        <ele>81.990649</ele>
        <time>2020-08-04T13:54:26.887Z</time>
      </trkpt>
      <trkpt lat="63.3877" lon="8.8945">
        <ele>82.947387</ele>
        <time>2020-08-04T13:54:34.896Z</time>
      </trkpt>
      <trkpt lat="63.38762" lon="8.89462">
        <ele>83.880922</ele>
        <time>2020-08-04T13:54:41.901Z</time>
      </trkpt>
      <trkpt lat="63.38754" lon="8.89473">
        <ele>84.801915</ele>
        <time>2020-08-04T13:54:48.877Z</time>
      </trkpt>
      <trkpt lat="63.38745" lon="8.89484">
        <ele>85.72141</ele>
        <time>2020-08-04T13:54:56.916Z</time>
      </trkpt>
      <trkpt lat="63.38737" lon="8.89497">
        <ele>86.650422</ele>
        <time>2020-08-04T13:55:03.885Z</time>
      </trkpt>
      <trkpt lat="63.3873" lon="8.89511">
        <ele>87.538561</ele>
        <time>2020-08-04T13:55:10.873Z</time>
      </trkpt>
      <trkpt lat="63.38722" lon="8.89525">
        <ele>88.525625</ele>
        <time>2020-08-04T13:55:17.896Z</time>
      </trkpt>
      <trkpt lat="63.38714" lon="8.89537">
        <ele>89.478736</ele>
        <time>2020-08-04T13:55:24.884Z</time>
      </trkpt>
      <trkpt lat="63.38706" lon="8.89549">
        <ele>90.402864</ele>
        <time>2020-08-04T13:55:31.901Z</time>
      </trkpt>
      <trkpt lat="63.38699" lon="8.89564">
        <ele>91.255726</ele>
        <time>2020-08-04T13:55:38.910Z</time>
      </trkpt>
      <trkpt lat="63.38692" lon="8.89577">
        <ele>92.122075</ele>
        <time>2020-08-04T13:55:45.902Z</time>
      </trkpt>
      <trkpt lat="63.38686" lon="8.89594">
        <ele>93.059963</ele>
        <time>2020-08-04T13:55:53.933Z</time>
      </trkpt>
      <trkpt lat="63.38679" lon="8.89609">
        <ele>93.966278</ele>
        <time>2020-08-04T13:56:00.894Z</time>
      </trkpt>
      <trkpt lat="63.38672" lon="8.89623">
        <ele>94.854425</ele>
        <time>2020-08-04T13:56:07.893Z</time>
      </trkpt>
      <trkpt lat="63.38665" lon="8.89638">
        <ele>95.731077</ele>
        <time>2020-08-04T13:56:14.911Z</time>
      </trkpt>
      <trkpt lat="63.38656" lon="8.8965">
        <ele>96.542908</ele>
        <time>2020-08-04T13:56:22.892Z</time>
      </trkpt>
      <trkpt lat="63.38648" lon="8.89663">
        <ele>97.329671</ele>
        <time>2020-08-04T13:56:28.898Z</time>
      </trkpt>
      <trkpt lat="63.38641" lon="8.89676">
        <ele>98.092879</ele>
        <time>2020-08-04T13:56:34.902Z</time>
      </trkpt>
      <trkpt lat="63.38632" lon="8.89687">
        <ele>98.851455</ele>
        <time>2020-08-04T13:56:41.879Z</time>
      </trkpt>
      <trkpt lat="63.38626" lon="8.89704">
        <ele>99.629249</ele>
        <time>2020-08-04T13:56:48.884Z</time>
      </trkpt>
      <trkpt lat="63.3862" lon="8.8972">
        <ele>100.401211</ele>
        <time>2020-08-04T13:56:56.878Z</time>
      </trkpt>
      <trkpt lat="63.38613" lon="8.89736">
        <ele>101.187414</ele>
        <time>2020-08-04T13:57:04.900Z</time>
      </trkpt>
      <trkpt lat="63.38607" lon="8.89752">
        <ele>101.903562</ele>
        <time>2020-08-04T13:57:10.903Z</time>
      </trkpt>
      <trkpt lat="63.38603" lon="8.89771">
        <ele>102.670975</ele>
        <time>2020-08-04T13:57:18.904Z</time>
      </trkpt>
      <trkpt lat="63.38598" lon="8.89791">
        <ele>103.498327</ele>
        <time>2020-08-04T13:57:25.901Z</time>
      </trkpt>
      <trkpt lat="63.38594" lon="8.89812">
        <ele>104.295635</ele>
        <time>2020-08-04T13:57:32.900Z</time>
      </trkpt>
      <trkpt lat="63.38589" lon="8.8983">
        <ele>105.043653</ele>
        <time>2020-08-04T13:57:38.893Z</time>
      </trkpt>
      <trkpt lat="63.38586" lon="8.8985">
        <ele>105.804273</ele>
        <time>2020-08-04T13:57:44.888Z</time>
      </trkpt>
      <trkpt lat="63.38582" lon="8.8987">
        <ele>106.561856</ele>
        <time>2020-08-04T13:57:51.910Z</time>
      </trkpt>
      <trkpt lat="63.38581" lon="8.89891">
        <ele>107.335461</ele>
        <time>2020-08-04T13:57:59.891Z</time>
      </trkpt>
      <trkpt lat="63.38579" lon="8.89913">
        <ele>108.120806</ele>
        <time>2020-08-04T13:58:06.905Z</time>
      </trkpt>
      <trkpt lat="63.38579" lon="8.89935">
        <ele>108.916799</ele>
        <time>2020-08-04T13:58:13.877Z</time>
      </trkpt>
      <trkpt lat="63.38578" lon="8.89956">
        <ele>109.668788</ele>
        <time>2020-08-04T13:58:20.877Z</time>
      </trkpt>
      <trkpt lat="63.38579" lon="8.8998">
        <ele>110.257666</ele>
        <time>2020-08-04T13:58:28.876Z</time>
      </trkpt>
      <trkpt lat="63.3858" lon="8.9">
        <ele>110.746119</ele>
        <time>2020-08-04T13:58:35.884Z</time>
      </trkpt>
      <trkpt lat="63.3858" lon="8.90022">
        <ele>111.273686</ele>
        <time>2020-08-04T13:58:42.904Z</time>
      </trkpt>
      <trkpt lat="63.38581" lon="8.90044">
        <ele>111.828397</ele>
        <time>2020-08-04T13:58:49.908Z</time>
      </trkpt>
      <trkpt lat="63.38582" lon="8.90064">
        <ele>112.321898</ele>
        <time>2020-08-04T13:58:57.888Z</time>
      </trkpt>
      <trkpt lat="63.38584" lon="8.90086">
        <ele>112.848251</ele>
        <time>2020-08-04T13:59:04.887Z</time>
      </trkpt>
      <trkpt lat="63.38583" lon="8.90109">
        <ele>113.421391</ele>
        <time>2020-08-04T13:59:11.923Z</time>
      </trkpt>
      <trkpt lat="63.38581" lon="8.90131">
        <ele>113.942943</ele>
        <time>2020-08-04T13:59:17.892Z</time>
      </trkpt>
      <trkpt lat="63.38579" lon="8.90151">
        <ele>114.452776</ele>
        <time>2020-08-04T13:59:23.896Z</time>
      </trkpt>
      <trkpt lat="63.38578" lon="8.90172">
        <ele>114.959396</ele>
        <time>2020-08-04T13:59:29.874Z</time>
      </trkpt>
      <trkpt lat="63.38574" lon="8.90192">
        <ele>115.49608</ele>
        <time>2020-08-04T13:59:35.877Z</time>
      </trkpt>
      <trkpt lat="63.38569" lon="8.90212">
        <ele>116.062491</ele>
        <time>2020-08-04T13:59:42.911Z</time>
      </trkpt>
      <trkpt lat="63.38563" lon="8.90232">
        <ele>116.640825</ele>
        <time>2020-08-04T13:59:48.877Z</time>
      </trkpt>
      <trkpt lat="63.38554" lon="8.90244">
        <ele>117.206035</ele>
        <time>2020-08-04T13:59:53.899Z</time>
      </trkpt>
      <trkpt lat="63.38546" lon="8.90259">
        <ele>117.73793</ele>
        <time>2020-08-04T13:59:58.903Z</time>
      </trkpt>
      <trkpt lat="63.38538" lon="8.90271">
        <ele>118.282097</ele>
        <time>2020-08-04T14:00:03.878Z</time>
      </trkpt>
      <trkpt lat="63.3853" lon="8.90285">
        <ele>118.832015</ele>
        <time>2020-08-04T14:00:08.880Z</time>
      </trkpt>
      <trkpt lat="63.38522" lon="8.90294">
        <ele>119.324505</ele>
        <time>2020-08-04T14:00:13.905Z</time>
      </trkpt>
      <trkpt lat="63.38512" lon="8.90302">
        <ele>119.836502</ele>
        <time>2020-08-04T14:00:18.899Z</time>
      </trkpt>
      <trkpt lat="63.38503" lon="8.90306">
        <ele>120.241913</ele>
        <time>2020-08-04T14:00:22.890Z</time>
      </trkpt>
      <trkpt lat="63.38493" lon="8.90312">
        <ele>120.685067</ele>
        <time>2020-08-04T14:00:26.871Z</time>
      </trkpt>
      <trkpt lat="63.38482" lon="8.90317">
        <ele>121.178745</ele>
        <time>2020-08-04T14:00:30.890Z</time>
      </trkpt>
      <trkpt lat="63.38471" lon="8.90322">
        <ele>121.662936</ele>
        <time>2020-08-04T14:00:34.888Z</time>
      </trkpt>
      <trkpt lat="63.38461" lon="8.90328">
        <ele>122.135313</ele>
        <time>2020-08-04T14:00:38.903Z</time>
      </trkpt>
      <trkpt lat="63.38452" lon="8.90337">
        <ele>122.569255</ele>
        <time>2020-08-04T14:00:42.875Z</time>
      </trkpt>
      <trkpt lat="63.38443" lon="8.90345">
        <ele>122.987113</ele>
        <time>2020-08-04T14:00:46.881Z</time>
      </trkpt>
      <trkpt lat="63.38435" lon="8.90358">
        <ele>123.439086</ele>
        <time>2020-08-04T14:00:51.904Z</time>
      </trkpt>
      <trkpt lat="63.38426" lon="8.90371">
        <ele>123.903607</ele>
        <time>2020-08-04T14:00:56.915Z</time>
      </trkpt>
      <trkpt lat="63.38419" lon="8.90383">
        <ele>124.306666</ele>
        <time>2020-08-04T14:01:01.879Z</time>
      </trkpt>
      <trkpt lat="63.38411" lon="8.90397">
        <ele>124.746498</ele>
        <time>2020-08-04T14:01:06.903Z</time>
      </trkpt>
      <trkpt lat="63.38405" lon="8.90414">
        <ele>125.200575</ele>
        <time>2020-08-04T14:01:12.878Z</time>
      </trkpt>
      <trkpt lat="63.38398" lon="8.90433">
        <ele>125.684518</ele>
        <time>2020-08-04T14:01:18.882Z</time>
      </trkpt>
      <trkpt lat="63.38391" lon="8.90448">
        <ele>126.110832</ele>
        <time>2020-08-04T14:01:27.878Z</time>
      </trkpt>
      <trkpt lat="63.38384" lon="8.90466">
        <ele>126.56799</ele>
        <time>2020-08-04T14:01:34.892Z</time>
      </trkpt>
      <trkpt lat="63.38379" lon="8.90485">
        <ele>126.999935</ele>
        <time>2020-08-04T14:01:41.882Z</time>
      </trkpt>
      <trkpt lat="63.38373" lon="8.905">
        <ele>127.402257</ele>
        <time>2020-08-04T14:01:47.908Z</time>
      </trkpt>
      <trkpt lat="63.38366" lon="8.90516">
        <ele>128.112514</ele>
        <time>2020-08-04T14:01:54.887Z</time>
      </trkpt>
      <trkpt lat="63.3836" lon="8.90533">
        <ele>128.81194</ele>
        <time>2020-08-04T14:02:00.924Z</time>
      </trkpt>
      <trkpt lat="63.38354" lon="8.90548">
        <ele>129.492862</ele>
        <time>2020-08-04T14:02:07.904Z</time>
      </trkpt>
      <trkpt lat="63.38348" lon="8.90567">
        <ele>130.235391</ele>
        <time>2020-08-04T14:02:13.883Z</time>
      </trkpt>
      <trkpt lat="63.38343" lon="8.90583">
        <ele>130.904677</ele>
        <time>2020-08-04T14:02:19.877Z</time>
      </trkpt>
      <trkpt lat="63.38337" lon="8.90601">
        <ele>131.617344</ele>
        <time>2020-08-04T14:02:27.906Z</time>
      </trkpt>
      <trkpt lat="63.38332" lon="8.9062">
        <ele>132.344071</ele>
        <time>2020-08-04T14:02:34.898Z</time>
      </trkpt>
      <trkpt lat="63.38326" lon="8.90635">
        <ele>133.022723</ele>
        <time>2020-08-04T14:02:41.890Z</time>
      </trkpt>
      <trkpt lat="63.38322" lon="8.90656">
        <ele>133.743598</ele>
        <time>2020-08-04T14:02:48.906Z</time>
      </trkpt>
      <trkpt lat="63.38318" lon="8.90674">
        <ele>134.413415</ele>
        <time>2020-08-04T14:02:55.899Z</time>
      </trkpt>
      <trkpt lat="63.38315" lon="8.90693">
        <ele>135.077282</ele>
        <time>2020-08-04T14:03:02.877Z</time>
      </trkpt>
      <trkpt lat="63.38311" lon="8.90711">
        <ele>135.741112</ele>
        <time>2020-08-04T14:03:08.878Z</time>
      </trkpt>
      <trkpt lat="63.38309" lon="8.90731">
        <ele>136.401823</ele>
        <time>2020-08-04T14:03:14.890Z</time>
      </trkpt>
      <trkpt lat="63.38306" lon="8.90752">
        <ele>137.127833</ele>
        <time>2020-08-04T14:03:21.897Z</time>
      </trkpt>
      <trkpt lat="63.38304" lon="8.90775">
        <ele>137.878054</ele>
        <time>2020-08-04T14:03:28.889Z</time>
      </trkpt>
      <trkpt lat="63.38301" lon="8.90795">
        <ele>138.580089</ele>
        <time>2020-08-04T14:03:34.882Z</time>
      </trkpt>
      <trkpt lat="63.383" lon="8.90818">
        <ele>139.335551</ele>
        <time>2020-08-04T14:03:40.917Z</time>
      </trkpt>
      <trkpt lat="63.383" lon="8.90841">
        <ele>140.089211</ele>
        <time>2020-08-04T14:03:46.874Z</time>
      </trkpt>
      <trkpt lat="63.38299" lon="8.90862">
        <ele>140.599807</ele>
        <time>2020-08-04T14:03:52.879Z</time>
      </trkpt>
      <trkpt lat="63.38299" lon="8.90882">
        <ele>140.602156</ele>
        <time>2020-08-04T14:03:57.879Z</time>
      </trkpt>
      <trkpt lat="63.383" lon="8.90906">
        <ele>140.604989</ele>
        <time>2020-08-04T14:04:03.881Z</time>
      </trkpt>
      <trkpt lat="63.38302" lon="8.9093">
        <ele>140.607815</ele>
        <time>2020-08-04T14:04:08.920Z</time>
      </trkpt>
      <trkpt lat="63.38305" lon="8.90954">
        <ele>140.610767</ele>
        <time>2020-08-04T14:04:13.926Z</time>
      </trkpt>
      <trkpt lat="63.38308" lon="8.90979">
        <ele>140.613739</ele>
        <time>2020-08-04T14:04:17.873Z</time>
      </trkpt>
      <trkpt lat="63.38312" lon="8.90999">
        <ele>140.61623</ele>
        <time>2020-08-04T14:04:20.913Z</time>
      </trkpt>
      <trkpt lat="63.38316" lon="8.9102">
        <ele>140.61896</ele>
        <time>2020-08-04T14:04:23.880Z</time>
      </trkpt>
      <trkpt lat="63.38322" lon="8.91041">
        <ele>140.621793</ele>
        <time>2020-08-04T14:04:26.899Z</time>
      </trkpt>
      <trkpt lat="63.38329" lon="8.91061">
        <ele>140.624815</ele>
        <time>2020-08-04T14:04:29.889Z</time>
      </trkpt>
      <trkpt lat="63.38337" lon="8.91083">
        <ele>140.628061</ele>
        <time>2020-08-04T14:04:32.919Z</time>
      </trkpt>
      <trkpt lat="63.38346" lon="8.91105">
        <ele>140.631603</ele>
        <time>2020-08-04T14:04:35.893Z</time>
      </trkpt>
      <trkpt lat="63.38353" lon="8.91118">
        <ele>140.63396</ele>
        <time>2020-08-04T14:04:37.904Z</time>
      </trkpt>
      <trkpt lat="63.3836" lon="8.91131">
        <ele>140.636373</ele>
        <time>2020-08-04T14:04:39.894Z</time>
      </trkpt>
      <trkpt lat="63.38368" lon="8.91145">
        <ele>140.638889</ele>
        <time>2020-08-04T14:04:41.936Z</time>
      </trkpt>
      <trkpt lat="63.38376" lon="8.91156">
        <ele>140.641407</ele>
        <time>2020-08-04T14:04:43.885Z</time>
      </trkpt>
      <trkpt lat="63.38385" lon="8.91166">
        <ele>140.644102</ele>
        <time>2020-08-04T14:04:45.904Z</time>
      </trkpt>
      <trkpt lat="63.38394" lon="8.91175">
        <ele>140.710528</ele>
        <time>2020-08-04T14:04:47.885Z</time>
      </trkpt>
      <trkpt lat="63.38403" lon="8.9118">
        <ele>140.939274</ele>
        <time>2020-08-04T14:04:49.884Z</time>
      </trkpt>
      <trkpt lat="63.38414" lon="8.91185">
        <ele>141.229231</ele>
        <time>2020-08-04T14:04:52.885Z</time>
      </trkpt>
      <trkpt lat="63.38424" lon="8.91188">
        <ele>141.488512</ele>
        <time>2020-08-04T14:04:55.925Z</time>
      </trkpt>
      <trkpt lat="63.38435" lon="8.91187">
        <ele>141.761037</ele>
        <time>2020-08-04T14:04:58.891Z</time>
      </trkpt>
      <trkpt lat="63.38445" lon="8.91184">
        <ele>142.03421</ele>
        <time>2020-08-04T14:05:01.885Z</time>
      </trkpt>
      <trkpt lat="63.38455" lon="8.9118">
        <ele>142.279007</ele>
        <time>2020-08-04T14:05:04.870Z</time>
      </trkpt>
      <trkpt lat="63.38464" lon="8.91173">
        <ele>142.530955</ele>
        <time>2020-08-04T14:05:07.924Z</time>
      </trkpt>
      <trkpt lat="63.38474" lon="8.91167">
        <ele>142.79192</ele>
        <time>2020-08-04T14:05:11.883Z</time>
      </trkpt>
      <trkpt lat="63.38484" lon="8.91158">
        <ele>143.066453</ele>
        <time>2020-08-04T14:05:16.898Z</time>
      </trkpt>
      <trkpt lat="63.38494" lon="8.9115">
        <ele>143.327828</ele>
        <time>2020-08-04T14:05:21.902Z</time>
      </trkpt>
      <trkpt lat="63.38503" lon="8.91144">
        <ele>143.578388</ele>
        <time>2020-08-04T14:05:26.910Z</time>
      </trkpt>
      <trkpt lat="63.38513" lon="8.91138">
        <ele>143.830082</ele>
        <time>2020-08-04T14:05:31.904Z</time>
      </trkpt>
      <trkpt lat="63.38523" lon="8.91133">
        <ele>144.089597</ele>
        <time>2020-08-04T14:05:37.895Z</time>
      </trkpt>
      <trkpt lat="63.38533" lon="8.91131">
        <ele>144.363524</ele>
        <time>2020-08-04T14:05:43.891Z</time>
      </trkpt>
      <trkpt lat="63.38543" lon="8.91132">
        <ele>144.618449</ele>
        <time>2020-08-04T14:05:48.882Z</time>
      </trkpt>
      <trkpt lat="63.38552" lon="8.91136">
        <ele>144.854169</ele>
        <time>2020-08-04T14:05:53.883Z</time>
      </trkpt>
      <trkpt lat="63.38562" lon="8.91137">
        <ele>145.097023</ele>
        <time>2020-08-04T14:05:58.902Z</time>
      </trkpt>
      <trkpt lat="63.38571" lon="8.9114">
        <ele>145.066627</ele>
        <time>2020-08-04T14:06:03.879Z</time>
      </trkpt>
      <trkpt lat="63.38581" lon="8.91151">
        <ele>144.629896</ele>
        <time>2020-08-04T14:06:08.874Z</time>
      </trkpt>
      <trkpt lat="63.38591" lon="8.91159">
        <ele>144.218723</ele>
        <time>2020-08-04T14:06:12.884Z</time>
      </trkpt>
      <trkpt lat="63.38599" lon="8.91168">
        <ele>143.856035</ele>
        <time>2020-08-04T14:06:15.887Z</time>
      </trkpt>
      <trkpt lat="63.38607" lon="8.91183">
        <ele>143.447668</ele>
        <time>2020-08-04T14:06:18.899Z</time>
      </trkpt>
      <trkpt lat="63.38615" lon="8.91201">
        <ele>142.997232</ele>
        <time>2020-08-04T14:06:21.902Z</time>
      </trkpt>
      <trkpt lat="63.38623" lon="8.91224">
        <ele>142.475742</ele>
        <time>2020-08-04T14:06:24.900Z</time>
      </trkpt>
      <trkpt lat="63.38629" lon="8.91243">
        <ele>142.070786</ele>
        <time>2020-08-04T14:06:26.878Z</time>
      </trkpt>
      <trkpt lat="63.38634" lon="8.91265">
        <ele>141.627283</ele>
        <time>2020-08-04T14:06:28.887Z</time>
      </trkpt>
      <trkpt lat="63.38638" lon="8.9129">
        <ele>141.155225</ele>
        <time>2020-08-04T14:06:30.925Z</time>
      </trkpt>
      <trkpt lat="63.38643" lon="8.91317">
        <ele>140.642123</ele>
        <time>2020-08-04T14:06:32.908Z</time>
      </trkpt>
      <trkpt lat="63.38646" lon="8.91346">
        <ele>140.106995</ele>
        <time>2020-08-04T14:06:34.884Z</time>
      </trkpt>
      <trkpt lat="63.3865" lon="8.91379">
        <ele>139.516021</ele>
        <time>2020-08-04T14:06:36.890Z</time>
      </trkpt>
      <trkpt lat="63.38654" lon="8.91412">
        <ele>138.902492</ele>
        <time>2020-08-04T14:06:38.921Z</time>
      </trkpt>
      <trkpt lat="63.38659" lon="8.91447">
        <ele>138.254721</ele>
        <time>2020-08-04T14:06:40.885Z</time>
      </trkpt>
      <trkpt lat="63.38665" lon="8.91482">
        <ele>138.109539</ele>
        <time>2020-08-04T14:06:42.891Z</time>
      </trkpt>
      <trkpt lat="63.38671" lon="8.91516">
        <ele>138.099814</ele>
        <time>2020-08-04T14:06:44.902Z</time>
      </trkpt>
      <trkpt lat="63.38678" lon="8.91547">
        <ele>138.090636</ele>
        <time>2020-08-04T14:06:46.919Z</time>
      </trkpt>
      <trkpt lat="63.38685" lon="8.91577">
        <ele>138.081437</ele>
        <time>2020-08-04T14:06:48.892Z</time>
      </trkpt>
      <trkpt lat="63.38692" lon="8.91606">
        <ele>138.072623</ele>
        <time>2020-08-04T14:06:50.880Z</time>
      </trkpt>
      <trkpt lat="63.38698" lon="8.91632">
        <ele>138.064641</ele>
        <time>2020-08-04T14:06:52.929Z</time>
      </trkpt>
      <trkpt lat="63.38705" lon="8.91655">
        <ele>138.057192</ele>
        <time>2020-08-04T14:06:54.928Z</time>
      </trkpt>
      <trkpt lat="63.38712" lon="8.91676">
        <ele>138.050514</ele>
        <time>2020-08-04T14:06:56.885Z</time>
      </trkpt>
      <trkpt lat="63.38718" lon="8.91694">
        <ele>138.044286</ele>
        <time>2020-08-04T14:06:58.944Z</time>
      </trkpt>
      <trkpt lat="63.38724" lon="8.91712">
        <ele>138.038443</ele>
        <time>2020-08-04T14:07:00.927Z</time>
      </trkpt>
      <trkpt lat="63.38731" lon="8.91728">
        <ele>138.032611</ele>
        <time>2020-08-04T14:07:02.881Z</time>
      </trkpt>
      <trkpt lat="63.38737" lon="8.91743">
        <ele>138.02728</ele>
        <time>2020-08-04T14:07:04.935Z</time>
      </trkpt>
      <trkpt lat="63.38745" lon="8.91764">
        <ele>138.019799</ele>
        <time>2020-08-04T14:07:07.935Z</time>
      </trkpt>
      <trkpt lat="63.38753" lon="8.91783">
        <ele>138.012733</ele>
        <time>2020-08-04T14:07:10.887Z</time>
      </trkpt>
      <trkpt lat="63.3876" lon="8.91801">
        <ele>137.898115</ele>
        <time>2020-08-04T14:07:13.878Z</time>
      </trkpt>
      <trkpt lat="63.38766" lon="8.91817">
        <ele>137.750523</ele>
        <time>2020-08-04T14:07:16.887Z</time>
      </trkpt>
      <trkpt lat="63.38773" lon="8.91835">
        <ele>137.580392</ele>
        <time>2020-08-04T14:07:20.878Z</time>
      </trkpt>
      <trkpt lat="63.38779" lon="8.91853">
        <ele>137.409274</ele>
        <time>2020-08-04T14:07:24.901Z</time>
      </trkpt>
      <trkpt lat="63.38785" lon="8.91874">
        <ele>137.229229</ele>
        <time>2020-08-04T14:07:28.872Z</time>
      </trkpt>
      <trkpt lat="63.38791" lon="8.91898">
        <ele>137.032798</ele>
        <time>2020-08-04T14:07:32.882Z</time>
      </trkpt>
      <trkpt lat="63.38794" lon="8.91919">
        <ele>136.867204</ele>
        <time>2020-08-04T14:07:35.880Z</time>
      </trkpt>
      <trkpt lat="63.38797" lon="8.91942">
        <ele>136.686964</ele>
        <time>2020-08-04T14:07:38.942Z</time>
      </trkpt>
      <trkpt lat="63.388" lon="8.91969">
        <ele>136.484643</ele>
        <time>2020-08-04T14:07:41.906Z</time>
      </trkpt>
      <trkpt lat="63.38803" lon="8.91997">
        <ele>136.277289</ele>
        <time>2020-08-04T14:07:44.881Z</time>
      </trkpt>
      <trkpt lat="63.38804" lon="8.92017">
        <ele>136.123867</ele>
        <time>2020-08-04T14:07:46.883Z</time>
      </trkpt>
      <trkpt lat="63.38805" lon="8.92041">
        <ele>135.949912</ele>
        <time>2020-08-04T14:07:48.907Z</time>
      </trkpt>
      <trkpt lat="63.38806" lon="8.9207">
        <ele>135.73533</ele>
        <time>2020-08-04T14:07:50.873Z</time>
      </trkpt>
      <trkpt lat="63.38806" lon="8.92103">
        <ele>135.491702</ele>
        <time>2020-08-04T14:07:52.890Z</time>
      </trkpt>
      <trkpt lat="63.38805" lon="8.9214">
        <ele>135.218746</ele>
        <time>2020-08-04T14:07:54.897Z</time>
      </trkpt>
      <trkpt lat="63.38802" lon="8.92181">
        <ele>134.787086</ele>
        <time>2020-08-04T14:07:56.887Z</time>
      </trkpt>
      <trkpt lat="63.388" lon="8.92202">
        <ele>134.486127</ele>
        <time>2020-08-04T14:07:57.893Z</time>
      </trkpt>
      <trkpt lat="63.38797" lon="8.92222">
        <ele>134.181839</ele>
        <time>2020-08-04T14:07:58.894Z</time>
      </trkpt>
      <trkpt lat="63.38793" lon="8.92243">
        <ele>133.872343</ele>
        <time>2020-08-04T14:07:59.886Z</time>
      </trkpt>
      <trkpt lat="63.38789" lon="8.92263">
        <ele>133.567213</ele>
        <time>2020-08-04T14:08:00.903Z</time>
      </trkpt>
      <trkpt lat="63.38785" lon="8.92281">
        <ele>133.269018</ele>
        <time>2020-08-04T14:08:01.889Z</time>
      </trkpt>
      <trkpt lat="63.3878" lon="8.92299">
        <ele>132.966956</ele>
        <time>2020-08-04T14:08:02.893Z</time>
      </trkpt>
      <trkpt lat="63.38773" lon="8.92317">
        <ele>132.649378</ele>
        <time>2020-08-04T14:08:03.897Z</time>
      </trkpt>
      <trkpt lat="63.38767" lon="8.92334">
        <ele>132.331305</ele>
        <time>2020-08-04T14:08:04.902Z</time>
      </trkpt>
      <trkpt lat="63.38759" lon="8.92349">
        <ele>132.018604</ele>
        <time>2020-08-04T14:08:05.886Z</time>
      </trkpt>
      <trkpt lat="63.38752" lon="8.92364">
        <ele>131.705085</ele>
        <time>2020-08-04T14:08:06.911Z</time>
      </trkpt>
      <trkpt lat="63.38744" lon="8.92377">
        <ele>131.398984</ele>
        <time>2020-08-04T14:08:07.879Z</time>
      </trkpt>
      <trkpt lat="63.38736" lon="8.92389">
        <ele>131.09256</ele>
        <time>2020-08-04T14:08:08.891Z</time>
      </trkpt>
      <trkpt lat="63.38728" lon="8.924">
        <ele>130.787687</ele>
        <time>2020-08-04T14:08:09.920Z</time>
      </trkpt>
      <trkpt lat="63.38719" lon="8.92411">
        <ele>130.476865</ele>
        <time>2020-08-04T14:08:10.882Z</time>
      </trkpt>
      <trkpt lat="63.38711" lon="8.92421">
        <ele>130.183716</ele>
        <time>2020-08-04T14:08:11.924Z</time>
      </trkpt>
      <trkpt lat="63.38702" lon="8.92429">
        <ele>129.896759</ele>
        <time>2020-08-04T14:08:12.897Z</time>
      </trkpt>
      <trkpt lat="63.38686" lon="8.92445">
        <ele>129.355012</ele>
        <time>2020-08-04T14:08:14.888Z</time>
      </trkpt>
      <trkpt lat="63.38671" lon="8.9246">
        <ele>128.873473</ele>
        <time>2020-08-04T14:08:16.888Z</time>
      </trkpt>
      <trkpt lat="63.38656" lon="8.92475">
        <ele>128.402937</ele>
        <time>2020-08-04T14:08:18.893Z</time>
      </trkpt>
      <trkpt lat="63.38641" lon="8.92491">
        <ele>127.92651</ele>
        <time>2020-08-04T14:08:20.892Z</time>
      </trkpt>
      <trkpt lat="63.38626" lon="8.92506">
        <ele>127.455947</ele>
        <time>2020-08-04T14:08:22.921Z</time>
      </trkpt>
      <trkpt lat="63.38611" lon="8.92523">
        <ele>126.980146</ele>
        <time>2020-08-04T14:08:24.889Z</time>
      </trkpt>
      <trkpt lat="63.38597" lon="8.92541">
        <ele>126.516645</ele>
        <time>2020-08-04T14:08:26.878Z</time>
      </trkpt>
      <trkpt lat="63.38583" lon="8.92557">
        <ele>126.067483</ele>
        <time>2020-08-04T14:08:28.883Z</time>
      </trkpt>
      <trkpt lat="63.3857" lon="8.92573">
        <ele>125.642813</ele>
        <time>2020-08-04T14:08:30.878Z</time>
      </trkpt>
      <trkpt lat="63.38558" lon="8.92589">
        <ele>125.241112</ele>
        <time>2020-08-04T14:08:32.884Z</time>
      </trkpt>
      <trkpt lat="63.38547" lon="8.92606">
        <ele>124.850856</ele>
        <time>2020-08-04T14:08:34.907Z</time>
      </trkpt>
      <trkpt lat="63.38537" lon="8.92622">
        <ele>124.494195</ele>
        <time>2020-08-04T14:08:36.916Z</time>
      </trkpt>
      <trkpt lat="63.38527" lon="8.92636">
        <ele>124.246021</ele>
        <time>2020-08-04T14:08:38.886Z</time>
      </trkpt>
      <trkpt lat="63.38517" lon="8.92649">
        <ele>124.197803</ele>
        <time>2020-08-04T14:08:40.896Z</time>
      </trkpt>
      <trkpt lat="63.38508" lon="8.92661">
        <ele>124.149755</ele>
        <time>2020-08-04T14:08:42.914Z</time>
      </trkpt>
      <trkpt lat="63.38498" lon="8.92673">
        <ele>124.104257</ele>
        <time>2020-08-04T14:08:44.920Z</time>
      </trkpt>
      <trkpt lat="63.38489" lon="8.92686">
        <ele>124.056716</ele>
        <time>2020-08-04T14:08:46.887Z</time>
      </trkpt>
      <trkpt lat="63.38481" lon="8.92699">
        <ele>124.011742</ele>
        <time>2020-08-04T14:08:48.907Z</time>
      </trkpt>
      <trkpt lat="63.38472" lon="8.92712">
        <ele>123.966898</ele>
        <time>2020-08-04T14:08:50.888Z</time>
      </trkpt>
      <trkpt lat="63.38464" lon="8.92726">
        <ele>123.923555</ele>
        <time>2020-08-04T14:08:52.890Z</time>
      </trkpt>
      <trkpt lat="63.38456" lon="8.9274">
        <ele>123.878945</ele>
        <time>2020-08-04T14:08:54.883Z</time>
      </trkpt>
      <trkpt lat="63.38448" lon="8.92754">
        <ele>123.835141</ele>
        <time>2020-08-04T14:08:56.888Z</time>
      </trkpt>
      <trkpt lat="63.3844" lon="8.92769">
        <ele>123.790735</ele>
        <time>2020-08-04T14:08:58.891Z</time>
      </trkpt>
      <trkpt lat="63.38433" lon="8.92784">
        <ele>123.746963</ele>
        <time>2020-08-04T14:09:00.902Z</time>
      </trkpt>
      <trkpt lat="63.38426" lon="8.92797">
        <ele>123.706371</ele>
        <time>2020-08-04T14:09:02.880Z</time>
      </trkpt>
      <trkpt lat="63.38416" lon="8.92817">
        <ele>123.648328</ele>
        <time>2020-08-04T14:09:05.887Z</time>
      </trkpt>
      <trkpt lat="63.38406" lon="8.92837">
        <ele>123.591883</ele>
        <time>2020-08-04T14:09:08.887Z</time>
      </trkpt>
      <trkpt lat="63.38398" lon="8.92858">
        <ele>123.537512</ele>
        <time>2020-08-04T14:09:11.890Z</time>
      </trkpt>
      <trkpt lat="63.38389" lon="8.92878">
        <ele>123.483007</ele>
        <time>2020-08-04T14:09:14.881Z</time>
      </trkpt>
      <trkpt lat="63.38381" lon="8.92898">
        <ele>123.401467</ele>
        <time>2020-08-04T14:09:17.927Z</time>
      </trkpt>
      <trkpt lat="63.38374" lon="8.92917">
        <ele>123.320833</ele>
        <time>2020-08-04T14:09:20.900Z</time>
      </trkpt>
      <trkpt lat="63.38367" lon="8.92938">
        <ele>123.238774</ele>
        <time>2020-08-04T14:09:23.909Z</time>
      </trkpt>
      <trkpt lat="63.38358" lon="8.92962">
        <ele>123.144027</ele>
        <time>2020-08-04T14:09:26.900Z</time>
      </trkpt>
      <trkpt lat="63.38352" lon="8.9298">
        <ele>123.074289</ele>
        <time>2020-08-04T14:09:28.892Z</time>
      </trkpt>
      <trkpt lat="63.38345" lon="8.92999">
        <ele>122.9993</ele>
        <time>2020-08-04T14:09:30.907Z</time>
      </trkpt>
      <trkpt lat="63.38339" lon="8.93018">
        <ele>122.923321</ele>
        <time>2020-08-04T14:09:32.908Z</time>
      </trkpt>
      <trkpt lat="63.38332" lon="8.93038">
        <ele>122.843239</ele>
        <time>2020-08-04T14:09:34.899Z</time>
      </trkpt>
      <trkpt lat="63.38324" lon="8.93059">
        <ele>122.75726</ele>
        <time>2020-08-04T14:09:36.887Z</time>
      </trkpt>
      <trkpt lat="63.38314" lon="8.93082">
        <ele>122.658754</ele>
        <time>2020-08-04T14:09:38.882Z</time>
      </trkpt>
      <trkpt lat="63.38302" lon="8.93106">
        <ele>122.547497</ele>
        <time>2020-08-04T14:09:40.903Z</time>
      </trkpt>
      <trkpt lat="63.38288" lon="8.93127">
        <ele>122.426535</ele>
        <time>2020-08-04T14:09:42.903Z</time>
      </trkpt>
      <trkpt lat="63.38271" lon="8.93145">
        <ele>122.299084</ele>
        <time>2020-08-04T14:09:44.912Z</time>
      </trkpt>
      <trkpt lat="63.38262" lon="8.93151">
        <ele>122.225251</ele>
        <time>2020-08-04T14:09:45.888Z</time>
      </trkpt>
      <trkpt lat="63.38251" lon="8.93157">
        <ele>121.865724</ele>
        <time>2020-08-04T14:09:46.908Z</time>
      </trkpt>
      <trkpt lat="63.38241" lon="8.9316">
        <ele>121.508239</ele>
        <time>2020-08-04T14:09:47.881Z</time>
      </trkpt>
      <trkpt lat="63.38231" lon="8.93162">
        <ele>121.147253</ele>
        <time>2020-08-04T14:09:48.888Z</time>
      </trkpt>
      <trkpt lat="63.38221" lon="8.93163">
        <ele>120.79407</ele>
        <time>2020-08-04T14:09:49.890Z</time>
      </trkpt>
      <trkpt lat="63.3821" lon="8.93163">
        <ele>120.440973</ele>
        <time>2020-08-04T14:09:50.904Z</time>
      </trkpt>
      <trkpt lat="63.382" lon="8.93163">
        <ele>120.091337</ele>
        <time>2020-08-04T14:09:51.882Z</time>
      </trkpt>
      <trkpt lat="63.3819" lon="8.93162">
        <ele>119.745149</ele>
        <time>2020-08-04T14:09:52.879Z</time>
      </trkpt>
      <trkpt lat="63.3818" lon="8.93162">
        <ele>119.395345</ele>
        <time>2020-08-04T14:09:53.888Z</time>
      </trkpt>
      <trkpt lat="63.3817" lon="8.93161">
        <ele>119.049</ele>
        <time>2020-08-04T14:09:54.891Z</time>
      </trkpt>
      <trkpt lat="63.3816" lon="8.9316">
        <ele>118.695736</ele>
        <time>2020-08-04T14:09:55.902Z</time>
      </trkpt>
      <trkpt lat="63.3815" lon="8.9316">
        <ele>118.339055</ele>
        <time>2020-08-04T14:09:56.887Z</time>
      </trkpt>
      <trkpt lat="63.3814" lon="8.93159">
        <ele>117.985835</ele>
        <time>2020-08-04T14:09:57.879Z</time>
      </trkpt>
      <trkpt lat="63.38129" lon="8.93159">
        <ele>117.6258</ele>
        <time>2020-08-04T14:09:58.901Z</time>
      </trkpt>
      <trkpt lat="63.38119" lon="8.93161">
        <ele>117.258214</ele>
        <time>2020-08-04T14:09:59.903Z</time>
      </trkpt>
      <trkpt lat="63.38108" lon="8.93164">
        <ele>116.884896</ele>
        <time>2020-08-04T14:10:00.897Z</time>
      </trkpt>
      <trkpt lat="63.38097" lon="8.93168">
        <ele>116.507384</ele>
        <time>2020-08-04T14:10:01.886Z</time>
      </trkpt>
      <trkpt lat="63.38087" lon="8.93175">
        <ele>116.125582</ele>
        <time>2020-08-04T14:10:02.899Z</time>
      </trkpt>
      <trkpt lat="63.38076" lon="8.93184">
        <ele>115.275542</ele>
        <time>2020-08-04T14:10:03.876Z</time>
      </trkpt>
      <trkpt lat="63.38065" lon="8.93194">
        <ele>114.168261</ele>
        <time>2020-08-04T14:10:04.879Z</time>
      </trkpt>
      <trkpt lat="63.38055" lon="8.93208">
        <ele>113.039506</ele>
        <time>2020-08-04T14:10:05.910Z</time>
      </trkpt>
      <trkpt lat="63.38045" lon="8.93223">
        <ele>111.877749</ele>
        <time>2020-08-04T14:10:06.904Z</time>
      </trkpt>
      <trkpt lat="63.38035" lon="8.93242">
        <ele>110.722183</ele>
        <time>2020-08-04T14:10:07.894Z</time>
      </trkpt>
      <trkpt lat="63.38027" lon="8.93262">
        <ele>109.542146</ele>
        <time>2020-08-04T14:10:08.902Z</time>
      </trkpt>
      <trkpt lat="63.38019" lon="8.93283">
        <ele>108.392785</ele>
        <time>2020-08-04T14:10:09.923Z</time>
      </trkpt>
      <trkpt lat="63.38013" lon="8.93305">
        <ele>107.307319</ele>
        <time>2020-08-04T14:10:10.909Z</time>
      </trkpt>
      <trkpt lat="63.38008" lon="8.93328">
        <ele>106.200019</ele>
        <time>2020-08-04T14:10:11.887Z</time>
      </trkpt>
      <trkpt lat="63.38003" lon="8.93352">
        <ele>105.12271</ele>
        <time>2020-08-04T14:10:12.911Z</time>
      </trkpt>
      <trkpt lat="63.38" lon="8.93377">
        <ele>104.012752</ele>
        <time>2020-08-04T14:10:13.911Z</time>
      </trkpt>
      <trkpt lat="63.37997" lon="8.93403">
        <ele>102.87384</ele>
        <time>2020-08-04T14:10:14.878Z</time>
      </trkpt>
      <trkpt lat="63.37995" lon="8.9343">
        <ele>101.741143</ele>
        <time>2020-08-04T14:10:15.897Z</time>
      </trkpt>
      <trkpt lat="63.37992" lon="8.93455">
        <ele>100.630769</ele>
        <time>2020-08-04T14:10:16.905Z</time>
      </trkpt>
      <trkpt lat="63.37987" lon="8.93478">
        <ele>99.592155</ele>
        <time>2020-08-04T14:10:17.922Z</time>
      </trkpt>
      <trkpt lat="63.37982" lon="8.93497">
        <ele>98.881427</ele>
        <time>2020-08-04T14:10:18.894Z</time>
      </trkpt>
      <trkpt lat="63.37975" lon="8.9351">
        <ele>98.43524</ele>
        <time>2020-08-04T14:10:19.915Z</time>
      </trkpt>
      <trkpt lat="63.37961" lon="8.93516">
        <ele>97.712441</ele>
        <time>2020-08-04T14:10:21.898Z</time>
      </trkpt>
      <trkpt lat="63.37947" lon="8.93502">
        <ele>96.989482</ele>
        <time>2020-08-04T14:10:23.935Z</time>
      </trkpt>
      <trkpt lat="63.37936" lon="8.93489">
        <ele>96.377823</ele>
        <time>2020-08-04T14:10:25.900Z</time>
      </trkpt>
      <trkpt lat="63.37926" lon="8.93487">
        <ele>95.898484</ele>
        <time>2020-08-04T14:10:27.887Z</time>
      </trkpt>
      <trkpt lat="63.37918" lon="8.93499">
        <ele>95.440907</ele>
        <time>2020-08-04T14:10:29.898Z</time>
      </trkpt>
      <trkpt lat="63.37914" lon="8.93526">
        <ele>94.824644</ele>
        <time>2020-08-04T14:10:32.891Z</time>
      </trkpt>
      <trkpt lat="63.37909" lon="8.93549">
        <ele>94.253574</ele>
        <time>2020-08-04T14:10:35.895Z</time>
      </trkpt>
      <trkpt lat="63.37904" lon="8.93577">
        <ele>93.593416</ele>
        <time>2020-08-04T14:10:38.908Z</time>
      </trkpt>
      <trkpt lat="63.37901" lon="8.93603">
        <ele>93.004618</ele>
        <time>2020-08-04T14:10:41.901Z</time>
      </trkpt>
      <trkpt lat="63.37898" lon="8.93627">
        <ele>92.465675</ele>
        <time>2020-08-04T14:10:44.876Z</time>
      </trkpt>
      <trkpt lat="63.37896" lon="8.9365">
        <ele>91.94075</ele>
        <time>2020-08-04T14:10:47.899Z</time>
      </trkpt>
      <trkpt lat="63.37894" lon="8.93671">
        <ele>91.473356</ele>
        <time>2020-08-04T14:10:50.914Z</time>
      </trkpt>
      <trkpt lat="63.37893" lon="8.93693">
        <ele>90.99574</ele>
        <time>2020-08-04T14:10:53.895Z</time>
      </trkpt>
      <trkpt lat="63.37892" lon="8.93718">
        <ele>90.460436</ele>
        <time>2020-08-04T14:10:56.881Z</time>
      </trkpt>
      <trkpt lat="63.37893" lon="8.9374">
        <ele>90.384314</ele>
        <time>2020-08-04T14:10:59.884Z</time>
      </trkpt>
      <trkpt lat="63.37894" lon="8.93762">
        <ele>90.442273</ele>
        <time>2020-08-04T14:11:02.882Z</time>
      </trkpt>
      <trkpt lat="63.37895" lon="8.93785">
        <ele>90.503966</ele>
        <time>2020-08-04T14:11:05.889Z</time>
      </trkpt>
      <trkpt lat="63.37898" lon="8.93811">
        <ele>90.574384</ele>
        <time>2020-08-04T14:11:08.891Z</time>
      </trkpt>
      <trkpt lat="63.37901" lon="8.93839">
        <ele>90.648096</ele>
        <time>2020-08-04T14:11:11.882Z</time>
      </trkpt>
      <trkpt lat="63.37904" lon="8.93865">
        <ele>90.720114</ele>
        <time>2020-08-04T14:11:14.903Z</time>
      </trkpt>
      <trkpt lat="63.37908" lon="8.93892">
        <ele>90.792465</ele>
        <time>2020-08-04T14:11:17.914Z</time>
      </trkpt>
      <trkpt lat="63.37913" lon="8.9392">
        <ele>90.870202</ele>
        <time>2020-08-04T14:11:20.926Z</time>
      </trkpt>
      <trkpt lat="63.37919" lon="8.93946">
        <ele>90.946014</ele>
        <time>2020-08-04T14:11:23.941Z</time>
      </trkpt>
      <trkpt lat="63.37922" lon="8.93965">
        <ele>91.000098</ele>
        <time>2020-08-04T14:11:25.911Z</time>
      </trkpt>
      <trkpt lat="63.37928" lon="8.93991">
        <ele>91.076533</ele>
        <time>2020-08-04T14:11:28.880Z</time>
      </trkpt>
      <trkpt lat="63.37934" lon="8.94016">
        <ele>91.149156</ele>
        <time>2020-08-04T14:11:31.884Z</time>
      </trkpt>
      <trkpt lat="63.37938" lon="8.94043">
        <ele>91.225991</ele>
        <time>2020-08-04T14:11:34.883Z</time>
      </trkpt>
      <trkpt lat="63.37943" lon="8.9407">
        <ele>91.300295</ele>
        <time>2020-08-04T14:11:37.885Z</time>
      </trkpt>
      <trkpt lat="63.37949" lon="8.94095">
        <ele>91.375178</ele>
        <time>2020-08-04T14:11:40.892Z</time>
      </trkpt>
      <trkpt lat="63.37954" lon="8.94112">
        <ele>91.374255</ele>
        <time>2020-08-04T14:11:42.883Z</time>
      </trkpt>
      <trkpt lat="63.3796" lon="8.94128">
        <ele>91.354675</ele>
        <time>2020-08-04T14:11:44.920Z</time>
      </trkpt>
      <trkpt lat="63.37965" lon="8.94146">
        <ele>91.334133</ele>
        <time>2020-08-04T14:11:46.932Z</time>
      </trkpt>
      <trkpt lat="63.37972" lon="8.94163">
        <ele>91.313427</ele>
        <time>2020-08-04T14:11:48.882Z</time>
      </trkpt>
      <trkpt lat="63.37977" lon="8.94181">
        <ele>91.292635</ele>
        <time>2020-08-04T14:11:50.912Z</time>
      </trkpt>
      <trkpt lat="63.37982" lon="8.942">
        <ele>91.271414</ele>
        <time>2020-08-04T14:11:52.883Z</time>
      </trkpt>
      <trkpt lat="63.37987" lon="8.94219">
        <ele>91.250882</ele>
        <time>2020-08-04T14:11:54.895Z</time>
      </trkpt>
      <trkpt lat="63.37992" lon="8.94238">
        <ele>91.230231</ele>
        <time>2020-08-04T14:11:56.897Z</time>
      </trkpt>
      <trkpt lat="63.37997" lon="8.94258">
        <ele>91.207958</ele>
        <time>2020-08-04T14:11:58.925Z</time>
      </trkpt>
      <trkpt lat="63.38002" lon="8.94278">
        <ele>91.185934</ele>
        <time>2020-08-04T14:12:00.899Z</time>
      </trkpt>
      <trkpt lat="63.38007" lon="8.94299">
        <ele>91.163206</ele>
        <time>2020-08-04T14:12:02.916Z</time>
      </trkpt>
      <trkpt lat="63.38012" lon="8.94319">
        <ele>91.141387</ele>
        <time>2020-08-04T14:12:04.911Z</time>
      </trkpt>
      <trkpt lat="63.38017" lon="8.94339">
        <ele>91.119921</ele>
        <time>2020-08-04T14:12:06.894Z</time>
      </trkpt>
      <trkpt lat="63.38022" lon="8.94358">
        <ele>91.098313</ele>
        <time>2020-08-04T14:12:08.879Z</time>
      </trkpt>
      <trkpt lat="63.38028" lon="8.94379">
        <ele>91.075399</ele>
        <time>2020-08-04T14:12:10.914Z</time>
      </trkpt>
      <trkpt lat="63.38032" lon="8.94401">
        <ele>91.05258</ele>
        <time>2020-08-04T14:12:12.894Z</time>
      </trkpt>
      <trkpt lat="63.38036" lon="8.94426">
        <ele>91.02783</ele>
        <time>2020-08-04T14:12:14.896Z</time>
      </trkpt>
      <trkpt lat="63.38042" lon="8.94446">
        <ele>91.023713</ele>
        <time>2020-08-04T14:12:16.900Z</time>
      </trkpt>
      <trkpt lat="63.38046" lon="8.94466">
        <ele>91.315052</ele>
        <time>2020-08-04T14:12:18.885Z</time>
      </trkpt>
      <trkpt lat="63.38051" lon="8.94487">
        <ele>91.60153</ele>
        <time>2020-08-04T14:12:20.885Z</time>
      </trkpt>
      <trkpt lat="63.38057" lon="8.94514">
        <ele>91.999071</ele>
        <time>2020-08-04T14:12:23.925Z</time>
      </trkpt>
      <trkpt lat="63.38061" lon="8.94536">
        <ele>92.302078</ele>
        <time>2020-08-04T14:12:25.916Z</time>
      </trkpt>
      <trkpt lat="63.38065" lon="8.94557">
        <ele>92.581867</ele>
        <time>2020-08-04T14:12:27.926Z</time>
      </trkpt>
      <trkpt lat="63.38068" lon="8.94578">
        <ele>92.86301</ele>
        <time>2020-08-04T14:12:29.893Z</time>
      </trkpt>
      <trkpt lat="63.38071" lon="8.94599">
        <ele>93.155407</ele>
        <time>2020-08-04T14:12:31.897Z</time>
      </trkpt>
      <trkpt lat="63.38074" lon="8.94621">
        <ele>93.438194</ele>
        <time>2020-08-04T14:12:33.885Z</time>
      </trkpt>
      <trkpt lat="63.38078" lon="8.94642">
        <ele>93.725983</ele>
        <time>2020-08-04T14:12:35.909Z</time>
      </trkpt>
      <trkpt lat="63.38081" lon="8.94663">
        <ele>94.008767</ele>
        <time>2020-08-04T14:12:37.888Z</time>
      </trkpt>
      <trkpt lat="63.38084" lon="8.94685">
        <ele>94.299684</ele>
        <time>2020-08-04T14:12:39.906Z</time>
      </trkpt>
      <trkpt lat="63.38088" lon="8.94706">
        <ele>94.58896</ele>
        <time>2020-08-04T14:12:41.893Z</time>
      </trkpt>
      <trkpt lat="63.38092" lon="8.94727">
        <ele>94.883508</ele>
        <time>2020-08-04T14:12:43.903Z</time>
      </trkpt>
      <trkpt lat="63.38097" lon="8.94749">
        <ele>95.193133</ele>
        <time>2020-08-04T14:12:45.919Z</time>
      </trkpt>
      <trkpt lat="63.38101" lon="8.94771">
        <ele>95.501595</ele>
        <time>2020-08-04T14:12:47.878Z</time>
      </trkpt>
      <trkpt lat="63.38105" lon="8.94793">
        <ele>95.798467</ele>
        <time>2020-08-04T14:12:49.912Z</time>
      </trkpt>
      <trkpt lat="63.38109" lon="8.94814">
        <ele>96.088502</ele>
        <time>2020-08-04T14:12:51.906Z</time>
      </trkpt>
      <trkpt lat="63.38113" lon="8.94835">
        <ele>96.059672</ele>
        <time>2020-08-04T14:12:53.910Z</time>
      </trkpt>
      <trkpt lat="63.38117" lon="8.94855">
        <ele>96.01173</ele>
        <time>2020-08-04T14:12:55.885Z</time>
      </trkpt>
      <trkpt lat="63.38121" lon="8.94875">
        <ele>95.962352</ele>
        <time>2020-08-04T14:12:57.881Z</time>
      </trkpt>
      <trkpt lat="63.38126" lon="8.94893">
        <ele>95.913381</ele>
        <time>2020-08-04T14:12:59.891Z</time>
      </trkpt>
      <trkpt lat="63.38132" lon="8.9491">
        <ele>95.865556</ele>
        <time>2020-08-04T14:13:01.890Z</time>
      </trkpt>
      <trkpt lat="63.38137" lon="8.9493">
        <ele>95.814119</ele>
        <time>2020-08-04T14:13:03.919Z</time>
      </trkpt>
      <trkpt lat="63.38142" lon="8.94949">
        <ele>95.763222</ele>
        <time>2020-08-04T14:13:05.913Z</time>
      </trkpt>
      <trkpt lat="63.38148" lon="8.94968">
        <ele>95.710474</ele>
        <time>2020-08-04T14:13:07.901Z</time>
      </trkpt>
      <trkpt lat="63.38155" lon="8.94986">
        <ele>95.655883</ele>
        <time>2020-08-04T14:13:09.920Z</time>
      </trkpt>
      <trkpt lat="63.38162" lon="8.95006">
        <ele>95.599726</ele>
        <time>2020-08-04T14:13:11.927Z</time>
      </trkpt>
      <trkpt lat="63.3817" lon="8.95024">
        <ele>95.542799</ele>
        <time>2020-08-04T14:13:13.907Z</time>
      </trkpt>
      <trkpt lat="63.38178" lon="8.95043">
        <ele>95.483671</ele>
        <time>2020-08-04T14:13:15.883Z</time>
      </trkpt>
      <trkpt lat="63.38186" lon="8.95064">
        <ele>95.421355</ele>
        <time>2020-08-04T14:13:17.889Z</time>
      </trkpt>
      <trkpt lat="63.38194" lon="8.95085">
        <ele>95.359225</ele>
        <time>2020-08-04T14:13:19.915Z</time>
      </trkpt>
      <trkpt lat="63.38202" lon="8.95105">
        <ele>95.300855</ele>
        <time>2020-08-04T14:13:21.902Z</time>
      </trkpt>
      <trkpt lat="63.38209" lon="8.95123">
        <ele>95.24679</ele>
        <time>2020-08-04T14:13:23.881Z</time>
      </trkpt>
      <trkpt lat="63.38217" lon="8.95144">
        <ele>95.341968</ele>
        <time>2020-08-04T14:13:25.895Z</time>
      </trkpt>
      <trkpt lat="63.38228" lon="8.95167">
        <ele>95.850802</ele>
        <time>2020-08-04T14:13:27.898Z</time>
      </trkpt>
      <trkpt lat="63.38238" lon="8.9519">
        <ele>96.364974</ele>
        <time>2020-08-04T14:13:29.888Z</time>
      </trkpt>
      <trkpt lat="63.38247" lon="8.95212">
        <ele>96.847245</ele>
        <time>2020-08-04T14:13:31.881Z</time>
      </trkpt>
      <trkpt lat="63.38256" lon="8.95233">
        <ele>97.29398</ele>
        <time>2020-08-04T14:13:33.924Z</time>
      </trkpt>
      <trkpt lat="63.38263" lon="8.95253">
        <ele>97.696737</ele>
        <time>2020-08-04T14:13:35.880Z</time>
      </trkpt>
      <trkpt lat="63.3827" lon="8.95271">
        <ele>98.079103</ele>
        <time>2020-08-04T14:13:37.901Z</time>
      </trkpt>
      <trkpt lat="63.38276" lon="8.95288">
        <ele>98.412611</ele>
        <time>2020-08-04T14:13:39.882Z</time>
      </trkpt>
      <trkpt lat="63.3828" lon="8.95306">
        <ele>98.735972</ele>
        <time>2020-08-04T14:13:41.885Z</time>
      </trkpt>
      <trkpt lat="63.38286" lon="8.95331">
        <ele>99.178402</ele>
        <time>2020-08-04T14:13:44.892Z</time>
      </trkpt>
      <trkpt lat="63.38289" lon="8.95355">
        <ele>99.573944</ele>
        <time>2020-08-04T14:13:47.910Z</time>
      </trkpt>
      <trkpt lat="63.38294" lon="8.95376">
        <ele>99.949924</ele>
        <time>2020-08-04T14:13:51.920Z</time>
      </trkpt>
      <trkpt lat="63.38298" lon="8.95397">
        <ele>100.307267</ele>
        <time>2020-08-04T14:13:56.900Z</time>
      </trkpt>
      <trkpt lat="63.38305" lon="8.95418">
        <ele>100.709048</ele>
        <time>2020-08-04T14:14:01.882Z</time>
      </trkpt>
      <trkpt lat="63.3831" lon="8.95434">
        <ele>101.02821</ele>
        <time>2020-08-04T14:14:05.914Z</time>
      </trkpt>
      <trkpt lat="63.38317" lon="8.95451">
        <ele>101.386731</ele>
        <time>2020-08-04T14:14:10.880Z</time>
      </trkpt>
      <trkpt lat="63.38322" lon="8.95468">
        <ele>101.640815</ele>
        <time>2020-08-04T14:14:14.903Z</time>
      </trkpt>
      <trkpt lat="63.38326" lon="8.95488">
        <ele>101.854922</ele>
        <time>2020-08-04T14:14:18.913Z</time>
      </trkpt>
      <trkpt lat="63.3833" lon="8.95508">
        <ele>102.059991</ele>
        <time>2020-08-04T14:14:21.924Z</time>
      </trkpt>
      <trkpt lat="63.38335" lon="8.95529">
        <ele>102.284212</ele>
        <time>2020-08-04T14:14:25.906Z</time>
      </trkpt>
      <trkpt lat="63.38342" lon="8.95545">
        <ele>102.495282</ele>
        <time>2020-08-04T14:14:29.885Z</time>
      </trkpt>
      <trkpt lat="63.38347" lon="8.95564">
        <ele>102.70298</ele>
        <time>2020-08-04T14:14:32.905Z</time>
      </trkpt>
      <trkpt lat="63.38354" lon="8.9558">
        <ele>102.907717</ele>
        <time>2020-08-04T14:14:35.923Z</time>
      </trkpt>
      <trkpt lat="63.3836" lon="8.956">
        <ele>103.145054</ele>
        <time>2020-08-04T14:14:38.893Z</time>
      </trkpt>
      <trkpt lat="63.3837" lon="8.9562">
        <ele>103.431511</ele>
        <time>2020-08-04T14:14:41.893Z</time>
      </trkpt>
      <trkpt lat="63.38377" lon="8.95637">
        <ele>103.641769</ele>
        <time>2020-08-04T14:14:43.889Z</time>
      </trkpt>
      <trkpt lat="63.38386" lon="8.95656">
        <ele>103.912226</ele>
        <time>2020-08-04T14:14:46.882Z</time>
      </trkpt>
      <trkpt lat="63.38394" lon="8.95677">
        <ele>104.167228</ele>
        <time>2020-08-04T14:14:48.893Z</time>
      </trkpt>
      <trkpt lat="63.38404" lon="8.95698">
        <ele>104.45495</ele>
        <time>2020-08-04T14:14:50.895Z</time>
      </trkpt>
      <trkpt lat="63.38413" lon="8.95723">
        <ele>104.760703</ele>
        <time>2020-08-04T14:14:52.908Z</time>
      </trkpt>
      <trkpt lat="63.38422" lon="8.95746">
        <ele>105.045138</ele>
        <time>2020-08-04T14:14:54.899Z</time>
      </trkpt>
      <trkpt lat="63.3843" lon="8.95769">
        <ele>105.319687</ele>
        <time>2020-08-04T14:14:56.901Z</time>
      </trkpt>
      <trkpt lat="63.38438" lon="8.95792">
        <ele>104.98283</ele>
        <time>2020-08-04T14:14:58.881Z</time>
      </trkpt>
      <trkpt lat="63.38446" lon="8.95815">
        <ele>104.599536</ele>
        <time>2020-08-04T14:15:00.885Z</time>
      </trkpt>
      <trkpt lat="63.38454" lon="8.95839">
        <ele>104.21414</ele>
        <time>2020-08-04T14:15:02.893Z</time>
      </trkpt>
      <trkpt lat="63.38462" lon="8.95866">
        <ele>103.78055</ele>
        <time>2020-08-04T14:15:04.899Z</time>
      </trkpt>
      <trkpt lat="63.38469" lon="8.95887">
        <ele>103.431408</ele>
        <time>2020-08-04T14:15:06.885Z</time>
      </trkpt>
      <trkpt lat="63.38475" lon="8.95907">
        <ele>103.116869</ele>
        <time>2020-08-04T14:15:08.886Z</time>
      </trkpt>
      <trkpt lat="63.38482" lon="8.95924">
        <ele>102.81251</ele>
        <time>2020-08-04T14:15:10.902Z</time>
      </trkpt>
      <trkpt lat="63.38489" lon="8.9594">
        <ele>102.511656</ele>
        <time>2020-08-04T14:15:12.911Z</time>
      </trkpt>
      <trkpt lat="63.38495" lon="8.95955">
        <ele>102.236418</ele>
        <time>2020-08-04T14:15:14.885Z</time>
      </trkpt>
      <trkpt lat="63.38502" lon="8.95971">
        <ele>101.949704</ele>
        <time>2020-08-04T14:15:16.892Z</time>
      </trkpt>
      <trkpt lat="63.38508" lon="8.95988">
        <ele>101.656905</ele>
        <time>2020-08-04T14:15:18.901Z</time>
      </trkpt>
      <trkpt lat="63.38514" lon="8.96005">
        <ele>101.375003</ele>
        <time>2020-08-04T14:15:20.881Z</time>
      </trkpt>
      <trkpt lat="63.3852" lon="8.96022">
        <ele>101.090296</ele>
        <time>2020-08-04T14:15:22.898Z</time>
      </trkpt>
      <trkpt lat="63.38526" lon="8.96038">
        <ele>100.804651</ele>
        <time>2020-08-04T14:15:24.912Z</time>
      </trkpt>
      <trkpt lat="63.38533" lon="8.96053">
        <ele>100.523358</ele>
        <time>2020-08-04T14:15:26.908Z</time>
      </trkpt>
      <trkpt lat="63.3854" lon="8.96069">
        <ele>100.227399</ele>
        <time>2020-08-04T14:15:28.887Z</time>
      </trkpt>
      <trkpt lat="63.38547" lon="8.96085">
        <ele>99.912577</ele>
        <time>2020-08-04T14:15:30.945Z</time>
      </trkpt>
      <trkpt lat="63.38552" lon="8.96102">
        <ele>99.539896</ele>
        <time>2020-08-04T14:15:32.895Z</time>
      </trkpt>
      <trkpt lat="63.38558" lon="8.9612">
        <ele>99.150039</ele>
        <time>2020-08-04T14:15:34.896Z</time>
      </trkpt>
      <trkpt lat="63.38564" lon="8.96139">
        <ele>98.752194</ele>
        <time>2020-08-04T14:15:36.921Z</time>
      </trkpt>
      <trkpt lat="63.3857" lon="8.96156">
        <ele>98.376679</ele>
        <time>2020-08-04T14:15:38.878Z</time>
      </trkpt>
      <trkpt lat="63.38576" lon="8.96173">
        <ele>97.996617</ele>
        <time>2020-08-04T14:15:40.893Z</time>
      </trkpt>
      <trkpt lat="63.38583" lon="8.9619">
        <ele>97.607692</ele>
        <time>2020-08-04T14:15:42.902Z</time>
      </trkpt>
      <trkpt lat="63.38589" lon="8.96208">
        <ele>97.202894</ele>
        <time>2020-08-04T14:15:44.901Z</time>
      </trkpt>
      <trkpt lat="63.38596" lon="8.96225">
        <ele>96.803464</ele>
        <time>2020-08-04T14:15:46.912Z</time>
      </trkpt>
      <trkpt lat="63.38603" lon="8.96242">
        <ele>96.395081</ele>
        <time>2020-08-04T14:15:48.906Z</time>
      </trkpt>
      <trkpt lat="63.38611" lon="8.9626">
        <ele>95.960053</ele>
        <time>2020-08-04T14:15:50.890Z</time>
      </trkpt>
      <trkpt lat="63.38618" lon="8.96278">
        <ele>95.530507</ele>
        <time>2020-08-04T14:15:52.903Z</time>
      </trkpt>
      <trkpt lat="63.38627" lon="8.96296">
        <ele>95.077576</ele>
        <time>2020-08-04T14:15:54.912Z</time>
      </trkpt>
      <trkpt lat="63.38634" lon="8.96316">
        <ele>94.631174</ele>
        <time>2020-08-04T14:15:56.877Z</time>
      </trkpt>
      <trkpt lat="63.3864" lon="8.96339">
        <ele>94.163436</ele>
        <time>2020-08-04T14:15:58.915Z</time>
      </trkpt>
      <trkpt lat="63.38645" lon="8.96362">
        <ele>93.709262</ele>
        <time>2020-08-04T14:16:00.917Z</time>
      </trkpt>
      <trkpt lat="63.38648" lon="8.96387">
        <ele>93.265113</ele>
        <time>2020-08-04T14:16:02.871Z</time>
      </trkpt>
      <trkpt lat="63.3865" lon="8.96411">
        <ele>92.983383</ele>
        <time>2020-08-04T14:16:04.910Z</time>
      </trkpt>
      <trkpt lat="63.38652" lon="8.96437">
        <ele>92.892357</ele>
        <time>2020-08-04T14:16:06.893Z</time>
      </trkpt>
      <trkpt lat="63.38651" lon="8.9646">
        <ele>92.810615</ele>
        <time>2020-08-04T14:16:08.887Z</time>
      </trkpt>
      <trkpt lat="63.3865" lon="8.96483">
        <ele>92.726217</ele>
        <time>2020-08-04T14:16:10.924Z</time>
      </trkpt>
      <trkpt lat="63.38647" lon="8.96505">
        <ele>92.645861</ele>
        <time>2020-08-04T14:16:12.882Z</time>
      </trkpt>
      <trkpt lat="63.38644" lon="8.96525">
        <ele>92.570397</ele>
        <time>2020-08-04T14:16:14.884Z</time>
      </trkpt>
      <trkpt lat="63.3864" lon="8.96545">
        <ele>92.494466</ele>
        <time>2020-08-04T14:16:16.943Z</time>
      </trkpt>
      <trkpt lat="63.38636" lon="8.96563">
        <ele>92.42235</ele>
        <time>2020-08-04T14:16:18.901Z</time>
      </trkpt>
      <trkpt lat="63.38632" lon="8.96581">
        <ele>92.349918</ele>
        <time>2020-08-04T14:16:20.902Z</time>
      </trkpt>
      <trkpt lat="63.38627" lon="8.96598">
        <ele>92.276586</ele>
        <time>2020-08-04T14:16:22.889Z</time>
      </trkpt>
      <trkpt lat="63.38621" lon="8.96624">
        <ele>92.171665</ele>
        <time>2020-08-04T14:16:25.918Z</time>
      </trkpt>
      <trkpt lat="63.38616" lon="8.96651">
        <ele>92.070451</ele>
        <time>2020-08-04T14:16:28.896Z</time>
      </trkpt>
      <trkpt lat="63.38613" lon="8.96677">
        <ele>91.971938</ele>
        <time>2020-08-04T14:16:31.894Z</time>
      </trkpt>
      <trkpt lat="63.38611" lon="8.96706">
        <ele>91.868729</ele>
        <time>2020-08-04T14:16:34.907Z</time>
      </trkpt>
      <trkpt lat="63.38609" lon="8.96733">
        <ele>91.771441</ele>
        <time>2020-08-04T14:16:37.920Z</time>
      </trkpt>
      <trkpt lat="63.3861" lon="8.96761">
        <ele>91.670981</ele>
        <time>2020-08-04T14:16:40.899Z</time>
      </trkpt>
      <trkpt lat="63.38612" lon="8.96782">
        <ele>91.595755</ele>
        <time>2020-08-04T14:16:42.925Z</time>
      </trkpt>
      <trkpt lat="63.38616" lon="8.96802">
        <ele>91.637939</ele>
        <time>2020-08-04T14:16:44.891Z</time>
      </trkpt>
      <trkpt lat="63.38622" lon="8.96828">
        <ele>91.697727</ele>
        <time>2020-08-04T14:16:47.907Z</time>
      </trkpt>
      <trkpt lat="63.38627" lon="8.96846">
        <ele>91.738255</ele>
        <time>2020-08-04T14:16:49.903Z</time>
      </trkpt>
      <trkpt lat="63.38632" lon="8.96862">
        <ele>91.778013</ele>
        <time>2020-08-04T14:16:51.876Z</time>
      </trkpt>
      <trkpt lat="63.38638" lon="8.96878">
        <ele>91.819682</ele>
        <time>2020-08-04T14:16:53.898Z</time>
      </trkpt>
      <trkpt lat="63.38645" lon="8.96893">
        <ele>91.861344</ele>
        <time>2020-08-04T14:16:55.918Z</time>
      </trkpt>
      <trkpt lat="63.38651" lon="8.96908">
        <ele>91.901823</ele>
        <time>2020-08-04T14:16:57.918Z</time>
      </trkpt>
      <trkpt lat="63.3866" lon="8.96929">
        <ele>91.960388</ele>
        <time>2020-08-04T14:17:00.913Z</time>
      </trkpt>
      <trkpt lat="63.38667" lon="8.96943">
        <ele>92.000424</ele>
        <time>2020-08-04T14:17:02.891Z</time>
      </trkpt>
      <trkpt lat="63.38674" lon="8.96956">
        <ele>92.042238</ele>
        <time>2020-08-04T14:17:04.919Z</time>
      </trkpt>
      <trkpt lat="63.38682" lon="8.96969">
        <ele>92.083322</ele>
        <time>2020-08-04T14:17:06.897Z</time>
      </trkpt>
      <trkpt lat="63.38689" lon="8.96982">
        <ele>92.12348</ele>
        <time>2020-08-04T14:17:08.925Z</time>
      </trkpt>
      <trkpt lat="63.38696" lon="8.96996">
        <ele>92.164305</ele>
        <time>2020-08-04T14:17:10.886Z</time>
      </trkpt>
      <trkpt lat="63.38706" lon="8.97014">
        <ele>92.221679</ele>
        <time>2020-08-04T14:17:13.888Z</time>
      </trkpt>
      <trkpt lat="63.38715" lon="8.97034">
        <ele>92.27895</ele>
        <time>2020-08-04T14:17:16.881Z</time>
      </trkpt>
      <trkpt lat="63.38723" lon="8.97047">
        <ele>92.322642</ele>
        <time>2020-08-04T14:17:18.903Z</time>
      </trkpt>
      <trkpt lat="63.38731" lon="8.97059">
        <ele>92.366492</ele>
        <time>2020-08-04T14:17:20.885Z</time>
      </trkpt>
      <trkpt lat="63.38739" lon="8.9707">
        <ele>92.363791</ele>
        <time>2020-08-04T14:17:22.891Z</time>
      </trkpt>
      <trkpt lat="63.3875" lon="8.97086">
        <ele>92.264521</ele>
        <time>2020-08-04T14:17:25.906Z</time>
      </trkpt>
      <trkpt lat="63.38759" lon="8.97106">
        <ele>92.167725</ele>
        <time>2020-08-04T14:17:28.890Z</time>
      </trkpt>
      <trkpt lat="63.38767" lon="8.97118">
        <ele>92.097705</ele>
        <time>2020-08-04T14:17:30.916Z</time>
      </trkpt>
      <trkpt lat="63.38775" lon="8.97131">
        <ele>92.026131</ele>
        <time>2020-08-04T14:17:32.891Z</time>
      </trkpt>
      <trkpt lat="63.38783" lon="8.97143">
        <ele>91.948327</ele>
        <time>2020-08-04T14:17:34.907Z</time>
      </trkpt>
      <trkpt lat="63.38792" lon="8.97158">
        <ele>91.867691</ele>
        <time>2020-08-04T14:17:36.920Z</time>
      </trkpt>
      <trkpt lat="63.38801" lon="8.9717">
        <ele>91.787153</ele>
        <time>2020-08-04T14:17:38.914Z</time>
      </trkpt>
      <trkpt lat="63.38809" lon="8.97185">
        <ele>91.707934</ele>
        <time>2020-08-04T14:17:40.879Z</time>
      </trkpt>
      <trkpt lat="63.38818" lon="8.97199">
        <ele>91.628662</ele>
        <time>2020-08-04T14:17:42.924Z</time>
      </trkpt>
      <trkpt lat="63.38826" lon="8.97213">
        <ele>91.550249</ele>
        <time>2020-08-04T14:17:44.889Z</time>
      </trkpt>
      <trkpt lat="63.38834" lon="8.97226">
        <ele>91.474855</ele>
        <time>2020-08-04T14:17:46.889Z</time>
      </trkpt>
      <trkpt lat="63.38841" lon="8.97244">
        <ele>91.396122</ele>
        <time>2020-08-04T14:17:48.890Z</time>
      </trkpt>
      <trkpt lat="63.38847" lon="8.97262">
        <ele>91.321251</ele>
        <time>2020-08-04T14:17:50.892Z</time>
      </trkpt>
      <trkpt lat="63.38853" lon="8.97279">
        <ele>91.249011</ele>
        <time>2020-08-04T14:17:52.942Z</time>
      </trkpt>
      <trkpt lat="63.38857" lon="8.97298">
        <ele>91.176021</ele>
        <time>2020-08-04T14:17:54.887Z</time>
      </trkpt>
      <trkpt lat="63.38862" lon="8.97317">
        <ele>91.102257</ele>
        <time>2020-08-04T14:17:56.908Z</time>
      </trkpt>
      <trkpt lat="63.38866" lon="8.97337">
        <ele>91.002279</ele>
        <time>2020-08-04T14:17:58.912Z</time>
      </trkpt>
      <trkpt lat="63.3887" lon="8.97364">
        <ele>90.635857</ele>
        <time>2020-08-04T14:18:01.906Z</time>
      </trkpt>
      <trkpt lat="63.38872" lon="8.97384">
        <ele>90.371481</ele>
        <time>2020-08-04T14:18:03.902Z</time>
      </trkpt>
      <trkpt lat="63.38874" lon="8.97413">
        <ele>89.985097</ele>
        <time>2020-08-04T14:18:06.909Z</time>
      </trkpt>
      <trkpt lat="63.38876" lon="8.97433">
        <ele>89.716909</ele>
        <time>2020-08-04T14:18:08.914Z</time>
      </trkpt>
      <trkpt lat="63.38878" lon="8.97453">
        <ele>89.45702</ele>
        <time>2020-08-04T14:18:10.922Z</time>
      </trkpt>
      <trkpt lat="63.38881" lon="8.97473">
        <ele>89.181141</ele>
        <time>2020-08-04T14:18:12.885Z</time>
      </trkpt>
      <trkpt lat="63.38884" lon="8.97494">
        <ele>88.889587</ele>
        <time>2020-08-04T14:18:14.879Z</time>
      </trkpt>
      <trkpt lat="63.38887" lon="8.97516">
        <ele>88.587479</ele>
        <time>2020-08-04T14:18:16.879Z</time>
      </trkpt>
      <trkpt lat="63.38892" lon="8.97538">
        <ele>88.275683</ele>
        <time>2020-08-04T14:18:18.895Z</time>
      </trkpt>
      <trkpt lat="63.38897" lon="8.97559">
        <ele>87.96068</ele>
        <time>2020-08-04T14:18:20.897Z</time>
      </trkpt>
      <trkpt lat="63.38902" lon="8.97581">
        <ele>87.639274</ele>
        <time>2020-08-04T14:18:22.900Z</time>
      </trkpt>
      <trkpt lat="63.38908" lon="8.97602">
        <ele>87.31655</ele>
        <time>2020-08-04T14:18:24.935Z</time>
      </trkpt>
      <trkpt lat="63.38914" lon="8.97624">
        <ele>86.988623</ele>
        <time>2020-08-04T14:18:26.902Z</time>
      </trkpt>
      <trkpt lat="63.3892" lon="8.97646">
        <ele>86.644644</ele>
        <time>2020-08-04T14:18:28.919Z</time>
      </trkpt>
      <trkpt lat="63.38926" lon="8.97669">
        <ele>86.292869</ele>
        <time>2020-08-04T14:18:30.940Z</time>
      </trkpt>
      <trkpt lat="63.38931" lon="8.97691">
        <ele>85.971603</ele>
        <time>2020-08-04T14:18:32.901Z</time>
      </trkpt>
      <trkpt lat="63.38937" lon="8.97713">
        <ele>85.685341</ele>
        <time>2020-08-04T14:18:34.911Z</time>
      </trkpt>
      <trkpt lat="63.38942" lon="8.97734">
        <ele>85.447133</ele>
        <time>2020-08-04T14:18:36.885Z</time>
      </trkpt>
      <trkpt lat="63.38947" lon="8.97754">
        <ele>85.215587</ele>
        <time>2020-08-04T14:18:38.893Z</time>
      </trkpt>
      <trkpt lat="63.38953" lon="8.97774">
        <ele>84.98662</ele>
        <time>2020-08-04T14:18:40.930Z</time>
      </trkpt>
      <trkpt lat="63.38958" lon="8.97795">
        <ele>84.753771</ele>
        <time>2020-08-04T14:18:42.913Z</time>
      </trkpt>
      <trkpt lat="63.38963" lon="8.97816">
        <ele>84.517721</ele>
        <time>2020-08-04T14:18:44.892Z</time>
      </trkpt>
      <trkpt lat="63.38969" lon="8.97838">
        <ele>84.269871</ele>
        <time>2020-08-04T14:18:46.890Z</time>
      </trkpt>
      <trkpt lat="63.38974" lon="8.97861">
        <ele>84.013867</ele>
        <time>2020-08-04T14:18:48.927Z</time>
      </trkpt>
      <trkpt lat="63.3898" lon="8.97884">
        <ele>83.750272</ele>
        <time>2020-08-04T14:18:50.909Z</time>
      </trkpt>
      <trkpt lat="63.38985" lon="8.97909">
        <ele>83.481441</ele>
        <time>2020-08-04T14:18:52.893Z</time>
      </trkpt>
      <trkpt lat="63.38991" lon="8.97933">
        <ele>83.212018</ele>
        <time>2020-08-04T14:18:54.895Z</time>
      </trkpt>
      <trkpt lat="63.38996" lon="8.97957">
        <ele>82.95794</ele>
        <time>2020-08-04T14:18:56.898Z</time>
      </trkpt>
      <trkpt lat="63.38999" lon="8.97981">
        <ele>82.705674</ele>
        <time>2020-08-04T14:18:58.876Z</time>
      </trkpt>
      <trkpt lat="63.39003" lon="8.98005">
        <ele>82.456176</ele>
        <time>2020-08-04T14:19:00.897Z</time>
      </trkpt>
      <trkpt lat="63.39005" lon="8.9803">
        <ele>82.210906</ele>
        <time>2020-08-04T14:19:02.884Z</time>
      </trkpt>
      <trkpt lat="63.39007" lon="8.98053">
        <ele>81.978899</ele>
        <time>2020-08-04T14:19:04.880Z</time>
      </trkpt>
      <trkpt lat="63.39009" lon="8.98074">
        <ele>82.003964</ele>
        <time>2020-08-04T14:19:06.881Z</time>
      </trkpt>
      <trkpt lat="63.39009" lon="8.98096">
        <ele>82.329003</ele>
        <time>2020-08-04T14:19:08.891Z</time>
      </trkpt>
      <trkpt lat="63.39009" lon="8.98118">
        <ele>82.671731</ele>
        <time>2020-08-04T14:19:10.880Z</time>
      </trkpt>
      <trkpt lat="63.39007" lon="8.98139">
        <ele>82.999146</ele>
        <time>2020-08-04T14:19:12.958Z</time>
      </trkpt>
      <trkpt lat="63.39006" lon="8.9816">
        <ele>83.321312</ele>
        <time>2020-08-04T14:19:14.905Z</time>
      </trkpt>
      <trkpt lat="63.39002" lon="8.98188">
        <ele>83.774648</ele>
        <time>2020-08-04T14:19:17.899Z</time>
      </trkpt>
      <trkpt lat="63.38998" lon="8.98214">
        <ele>84.193924</ele>
        <time>2020-08-04T14:19:20.911Z</time>
      </trkpt>
      <trkpt lat="63.38993" lon="8.98236">
        <ele>84.576412</ele>
        <time>2020-08-04T14:19:23.888Z</time>
      </trkpt>
      <trkpt lat="63.38989" lon="8.98259">
        <ele>84.963205</ele>
        <time>2020-08-04T14:19:26.903Z</time>
      </trkpt>
      <trkpt lat="63.38984" lon="8.98281">
        <ele>85.335058</ele>
        <time>2020-08-04T14:19:29.876Z</time>
      </trkpt>
      <trkpt lat="63.38978" lon="8.98299">
        <ele>85.677797</ele>
        <time>2020-08-04T14:19:32.886Z</time>
      </trkpt>
      <trkpt lat="63.38971" lon="8.98316">
        <ele>86.016244</ele>
        <time>2020-08-04T14:19:35.888Z</time>
      </trkpt>
      <trkpt lat="63.38965" lon="8.98332">
        <ele>86.351255</ele>
        <time>2020-08-04T14:19:38.873Z</time>
      </trkpt>
      <trkpt lat="63.38958" lon="8.98348">
        <ele>86.69108</ele>
        <time>2020-08-04T14:19:41.913Z</time>
      </trkpt>
      <trkpt lat="63.3895" lon="8.98361">
        <ele>87.027428</ele>
        <time>2020-08-04T14:19:44.892Z</time>
      </trkpt>
      <trkpt lat="63.38942" lon="8.98375">
        <ele>87.372951</ele>
        <time>2020-08-04T14:19:47.916Z</time>
      </trkpt>
      <trkpt lat="63.38933" lon="8.98388">
        <ele>87.733722</ele>
        <time>2020-08-04T14:19:50.892Z</time>
      </trkpt>
      <trkpt lat="63.38924" lon="8.98401">
        <ele>88.041888</ele>
        <time>2020-08-04T14:19:53.928Z</time>
      </trkpt>
      <trkpt lat="63.38915" lon="8.98414">
        <ele>88.138613</ele>
        <time>2020-08-04T14:19:56.930Z</time>
      </trkpt>
      <trkpt lat="63.38905" lon="8.98424">
        <ele>88.231577</ele>
        <time>2020-08-04T14:19:59.888Z</time>
      </trkpt>
      <trkpt lat="63.38895" lon="8.98437">
        <ele>88.331707</ele>
        <time>2020-08-04T14:20:02.914Z</time>
      </trkpt>
      <trkpt lat="63.38888" lon="8.98448">
        <ele>88.410909</ele>
        <time>2020-08-04T14:20:04.883Z</time>
      </trkpt>
      <trkpt lat="63.3888" lon="8.9846">
        <ele>88.496002</ele>
        <time>2020-08-04T14:20:06.902Z</time>
      </trkpt>
      <trkpt lat="63.38872" lon="8.98472">
        <ele>88.577534</ele>
        <time>2020-08-04T14:20:08.903Z</time>
      </trkpt>
      <trkpt lat="63.38864" lon="8.98485">
        <ele>88.661802</ele>
        <time>2020-08-04T14:20:10.892Z</time>
      </trkpt>
      <trkpt lat="63.38857" lon="8.98499">
        <ele>88.748301</ele>
        <time>2020-08-04T14:20:12.904Z</time>
      </trkpt>
      <trkpt lat="63.38849" lon="8.98516">
        <ele>88.84462</ele>
        <time>2020-08-04T14:20:14.974Z</time>
      </trkpt>
      <trkpt lat="63.38843" lon="8.98537">
        <ele>88.941153</ele>
        <time>2020-08-04T14:20:16.890Z</time>
      </trkpt>
      <trkpt lat="63.38844" lon="8.98557">
        <ele>89.020593</ele>
        <time>2020-08-04T14:20:18.912Z</time>
      </trkpt>
      <trkpt lat="63.38853" lon="8.98567">
        <ele>89.107568</ele>
        <time>2020-08-04T14:20:20.932Z</time>
      </trkpt>
      <trkpt lat="63.38863" lon="8.98561">
        <ele>89.20225</ele>
        <time>2020-08-04T14:20:22.927Z</time>
      </trkpt>
      <trkpt lat="63.38873" lon="8.98547">
        <ele>89.303356</ele>
        <time>2020-08-04T14:20:24.877Z</time>
      </trkpt>
      <trkpt lat="63.38883" lon="8.98529">
        <ele>89.415864</ele>
        <time>2020-08-04T14:20:26.920Z</time>
      </trkpt>
      <trkpt lat="63.38894" lon="8.98508">
        <ele>89.543182</ele>
        <time>2020-08-04T14:20:28.899Z</time>
      </trkpt>
      <trkpt lat="63.38906" lon="8.98486">
        <ele>89.018975</ele>
        <time>2020-08-04T14:20:30.942Z</time>
      </trkpt>
      <trkpt lat="63.38923" lon="8.98471">
        <ele>87.976796</ele>
        <time>2020-08-04T14:20:32.903Z</time>
      </trkpt>
      <trkpt lat="63.38933" lon="8.98471">
        <ele>87.420942</ele>
        <time>2020-08-04T14:20:33.909Z</time>
      </trkpt>
      <trkpt lat="63.38943" lon="8.98477">
        <ele>86.824944</ele>
        <time>2020-08-04T14:20:34.922Z</time>
      </trkpt>
      <trkpt lat="63.38951" lon="8.98488">
        <ele>86.238473</ele>
        <time>2020-08-04T14:20:35.904Z</time>
      </trkpt>
      <trkpt lat="63.38959" lon="8.98501">
        <ele>85.668734</ele>
        <time>2020-08-04T14:20:36.884Z</time>
      </trkpt>
      <trkpt lat="63.38967" lon="8.98517">
        <ele>85.087257</ele>
        <time>2020-08-04T14:20:37.887Z</time>
      </trkpt>
      <trkpt lat="63.38973" lon="8.98533">
        <ele>84.525173</ele>
        <time>2020-08-04T14:20:38.935Z</time>
      </trkpt>
      <trkpt lat="63.3898" lon="8.98548">
        <ele>83.975357</ele>
        <time>2020-08-04T14:20:39.906Z</time>
      </trkpt>
      <trkpt lat="63.38987" lon="8.98562">
        <ele>83.435547</ele>
        <time>2020-08-04T14:20:40.898Z</time>
      </trkpt>
      <trkpt lat="63.38994" lon="8.98576">
        <ele>82.871568</ele>
        <time>2020-08-04T14:20:41.882Z</time>
      </trkpt>
      <trkpt lat="63.39002" lon="8.9859">
        <ele>82.298861</ele>
        <time>2020-08-04T14:20:42.910Z</time>
      </trkpt>
      <trkpt lat="63.39009" lon="8.98605">
        <ele>81.723428</ele>
        <time>2020-08-04T14:20:43.883Z</time>
      </trkpt>
      <trkpt lat="63.39017" lon="8.98619">
        <ele>81.143999</ele>
        <time>2020-08-04T14:20:44.891Z</time>
      </trkpt>
      <trkpt lat="63.39025" lon="8.98632">
        <ele>80.563258</ele>
        <time>2020-08-04T14:20:45.883Z</time>
      </trkpt>
      <trkpt lat="63.39033" lon="8.98646">
        <ele>79.997728</ele>
        <time>2020-08-04T14:20:46.922Z</time>
      </trkpt>
      <trkpt lat="63.3904" lon="8.9866">
        <ele>79.442812</ele>
        <time>2020-08-04T14:20:47.886Z</time>
      </trkpt>
      <trkpt lat="63.39047" lon="8.98673">
        <ele>79.075511</ele>
        <time>2020-08-04T14:20:48.919Z</time>
      </trkpt>
      <trkpt lat="63.39054" lon="8.98685">
        <ele>78.871982</ele>
        <time>2020-08-04T14:20:49.913Z</time>
      </trkpt>
      <trkpt lat="63.39068" lon="8.98708">
        <ele>78.493972</ele>
        <time>2020-08-04T14:20:51.893Z</time>
      </trkpt>
      <trkpt lat="63.3908" lon="8.98734">
        <ele>78.114046</ele>
        <time>2020-08-04T14:20:53.886Z</time>
      </trkpt>
      <trkpt lat="63.39086" lon="8.9875">
        <ele>77.910497</ele>
        <time>2020-08-04T14:20:54.891Z</time>
      </trkpt>
      <trkpt lat="63.39091" lon="8.98766">
        <ele>77.699613</ele>
        <time>2020-08-04T14:20:55.889Z</time>
      </trkpt>
      <trkpt lat="63.39097" lon="8.98783">
        <ele>77.489814</ele>
        <time>2020-08-04T14:20:56.923Z</time>
      </trkpt>
      <trkpt lat="63.39102" lon="8.988">
        <ele>77.286353</ele>
        <time>2020-08-04T14:20:57.875Z</time>
      </trkpt>
      <trkpt lat="63.39109" lon="8.98835">
        <ele>76.902621</ele>
        <time>2020-08-04T14:20:59.889Z</time>
      </trkpt>
      <trkpt lat="63.39113" lon="8.98871">
        <ele>76.520943</ele>
        <time>2020-08-04T14:21:01.890Z</time>
      </trkpt>
      <trkpt lat="63.39114" lon="8.98904">
        <ele>76.184086</ele>
        <time>2020-08-04T14:21:03.927Z</time>
      </trkpt>
      <trkpt lat="63.39113" lon="8.98938">
        <ele>75.846221</ele>
        <time>2020-08-04T14:21:05.920Z</time>
      </trkpt>
      <trkpt lat="63.39112" lon="8.98972">
        <ele>75.50485</ele>
        <time>2020-08-04T14:21:07.900Z</time>
      </trkpt>
      <trkpt lat="63.39111" lon="8.99004">
        <ele>75.180586</ele>
        <time>2020-08-04T14:21:09.903Z</time>
      </trkpt>
      <trkpt lat="63.3911" lon="8.99037">
        <ele>74.449425</ele>
        <time>2020-08-04T14:21:11.883Z</time>
      </trkpt>
      <trkpt lat="63.39111" lon="8.99074">
        <ele>73.598322</ele>
        <time>2020-08-04T14:21:13.912Z</time>
      </trkpt>
      <trkpt lat="63.39112" lon="8.99107">
        <ele>72.806943</ele>
        <time>2020-08-04T14:21:15.885Z</time>
      </trkpt>
      <trkpt lat="63.39114" lon="8.9914">
        <ele>72.022433</ele>
        <time>2020-08-04T14:21:17.900Z</time>
      </trkpt>
      <trkpt lat="63.39118" lon="8.99175">
        <ele>71.187868</ele>
        <time>2020-08-04T14:21:19.908Z</time>
      </trkpt>
      <trkpt lat="63.39122" lon="8.99208">
        <ele>70.366003</ele>
        <time>2020-08-04T14:21:21.890Z</time>
      </trkpt>
      <trkpt lat="63.39127" lon="8.99239">
        <ele>69.60038</ele>
        <time>2020-08-04T14:21:23.899Z</time>
      </trkpt>
      <trkpt lat="63.39133" lon="8.99269">
        <ele>68.808481</ele>
        <time>2020-08-04T14:21:25.932Z</time>
      </trkpt>
      <trkpt lat="63.3914" lon="8.99298">
        <ele>68.05565</ele>
        <time>2020-08-04T14:21:27.895Z</time>
      </trkpt>
      <trkpt lat="63.39146" lon="8.99326">
        <ele>67.307065</ele>
        <time>2020-08-04T14:21:29.922Z</time>
      </trkpt>
      <trkpt lat="63.39152" lon="8.99354">
        <ele>66.57902</ele>
        <time>2020-08-04T14:21:31.906Z</time>
      </trkpt>
      <trkpt lat="63.39158" lon="8.99379">
        <ele>65.898305</ele>
        <time>2020-08-04T14:21:33.892Z</time>
      </trkpt>
      <trkpt lat="63.39164" lon="8.99405">
        <ele>65.347207</ele>
        <time>2020-08-04T14:21:35.889Z</time>
      </trkpt>
      <trkpt lat="63.3917" lon="8.99429">
        <ele>64.868981</ele>
        <time>2020-08-04T14:21:37.882Z</time>
      </trkpt>
      <trkpt lat="63.39176" lon="8.99452">
        <ele>64.411585</ele>
        <time>2020-08-04T14:21:39.891Z</time>
      </trkpt>
      <trkpt lat="63.39182" lon="8.99474">
        <ele>63.970757</ele>
        <time>2020-08-04T14:21:41.912Z</time>
      </trkpt>
      <trkpt lat="63.39189" lon="8.99495">
        <ele>63.538716</ele>
        <time>2020-08-04T14:21:43.921Z</time>
      </trkpt>
      <trkpt lat="63.39195" lon="8.99515">
        <ele>63.117714</ele>
        <time>2020-08-04T14:21:45.881Z</time>
      </trkpt>
      <trkpt lat="63.39201" lon="8.99534">
        <ele>62.720898</ele>
        <time>2020-08-04T14:21:47.890Z</time>
      </trkpt>
      <trkpt lat="63.39207" lon="8.99552">
        <ele>62.338248</ele>
        <time>2020-08-04T14:21:49.878Z</time>
      </trkpt>
      <trkpt lat="63.39213" lon="8.99571">
        <ele>61.945574</ele>
        <time>2020-08-04T14:21:51.885Z</time>
      </trkpt>
      <trkpt lat="63.39219" lon="8.99588">
        <ele>61.56706</ele>
        <time>2020-08-04T14:21:53.890Z</time>
      </trkpt>
      <trkpt lat="63.39225" lon="8.99606">
        <ele>61.189364</ele>
        <time>2020-08-04T14:21:55.871Z</time>
      </trkpt>
      <trkpt lat="63.39231" lon="8.99623">
        <ele>60.818616</ele>
        <time>2020-08-04T14:21:57.912Z</time>
      </trkpt>
      <trkpt lat="63.39237" lon="8.9964">
        <ele>60.455329</ele>
        <time>2020-08-04T14:21:59.920Z</time>
      </trkpt>
      <trkpt lat="63.39243" lon="8.99656">
        <ele>60.078438</ele>
        <time>2020-08-04T14:22:01.900Z</time>
      </trkpt>
      <trkpt lat="63.3925" lon="8.99674">
        <ele>59.695336</ele>
        <time>2020-08-04T14:22:03.921Z</time>
      </trkpt>
      <trkpt lat="63.39256" lon="8.99692">
        <ele>59.3072</ele>
        <time>2020-08-04T14:22:05.891Z</time>
      </trkpt>
      <trkpt lat="63.39262" lon="8.9971">
        <ele>58.917278</ele>
        <time>2020-08-04T14:22:07.882Z</time>
      </trkpt>
      <trkpt lat="63.39268" lon="8.9973">
        <ele>58.682293</ele>
        <time>2020-08-04T14:22:09.923Z</time>
      </trkpt>
      <trkpt lat="63.39274" lon="8.99748">
        <ele>58.513467</ele>
        <time>2020-08-04T14:22:11.906Z</time>
      </trkpt>
      <trkpt lat="63.39281" lon="8.99766">
        <ele>58.341017</ele>
        <time>2020-08-04T14:22:13.893Z</time>
      </trkpt>
      <trkpt lat="63.39288" lon="8.99784">
        <ele>58.170256</ele>
        <time>2020-08-04T14:22:15.916Z</time>
      </trkpt>
      <trkpt lat="63.39294" lon="8.99803">
        <ele>57.99309</ele>
        <time>2020-08-04T14:22:17.880Z</time>
      </trkpt>
      <trkpt lat="63.39301" lon="8.99823">
        <ele>57.810867</ele>
        <time>2020-08-04T14:22:19.943Z</time>
      </trkpt>
      <trkpt lat="63.39308" lon="8.99844">
        <ele>57.621044</ele>
        <time>2020-08-04T14:22:21.878Z</time>
      </trkpt>
      <trkpt lat="63.39315" lon="8.99863">
        <ele>57.439989</ele>
        <time>2020-08-04T14:22:23.897Z</time>
      </trkpt>
      <trkpt lat="63.39322" lon="8.99884">
        <ele>57.256973</ele>
        <time>2020-08-04T14:22:25.893Z</time>
      </trkpt>
      <trkpt lat="63.39329" lon="8.99902">
        <ele>57.079638</ele>
        <time>2020-08-04T14:22:27.895Z</time>
      </trkpt>
      <trkpt lat="63.39335" lon="8.99922">
        <ele>56.899746</ele>
        <time>2020-08-04T14:22:29.889Z</time>
      </trkpt>
      <trkpt lat="63.39342" lon="8.99942">
        <ele>56.716394</ele>
        <time>2020-08-04T14:22:31.882Z</time>
      </trkpt>
      <trkpt lat="63.3935" lon="8.99961">
        <ele>56.532088</ele>
        <time>2020-08-04T14:22:33.903Z</time>
      </trkpt>
      <trkpt lat="63.39357" lon="8.99981">
        <ele>56.34101</ele>
        <time>2020-08-04T14:22:35.890Z</time>
      </trkpt>
      <trkpt lat="63.39364" lon="9.00002">
        <ele>56.156565</ele>
        <time>2020-08-04T14:22:37.885Z</time>
      </trkpt>
      <trkpt lat="63.3937" lon="9.00023">
        <ele>55.973314</ele>
        <time>2020-08-04T14:22:39.895Z</time>
      </trkpt>
      <trkpt lat="63.39377" lon="9.00043">
        <ele>55.87281</ele>
        <time>2020-08-04T14:22:41.888Z</time>
      </trkpt>
      <trkpt lat="63.39383" lon="9.00063">
        <ele>55.862531</ele>
        <time>2020-08-04T14:22:43.880Z</time>
      </trkpt>
      <trkpt lat="63.3939" lon="9.00083">
        <ele>55.852028</ele>
        <time>2020-08-04T14:22:45.907Z</time>
      </trkpt>
      <trkpt lat="63.39397" lon="9.00102">
        <ele>55.841625</ele>
        <time>2020-08-04T14:22:47.906Z</time>
      </trkpt>
      <trkpt lat="63.39404" lon="9.00121">
        <ele>55.831099</ele>
        <time>2020-08-04T14:22:49.899Z</time>
      </trkpt>
      <trkpt lat="63.39412" lon="9.0014">
        <ele>55.820291</ele>
        <time>2020-08-04T14:22:51.900Z</time>
      </trkpt>
      <trkpt lat="63.3942" lon="9.0016">
        <ele>55.809169</ele>
        <time>2020-08-04T14:22:53.905Z</time>
      </trkpt>
      <trkpt lat="63.39427" lon="9.0018">
        <ele>55.798221</ele>
        <time>2020-08-04T14:22:55.923Z</time>
      </trkpt>
      <trkpt lat="63.39434" lon="9.00201">
        <ele>55.787024</ele>
        <time>2020-08-04T14:22:57.909Z</time>
      </trkpt>
      <trkpt lat="63.39442" lon="9.00222">
        <ele>55.775835</ele>
        <time>2020-08-04T14:22:59.904Z</time>
      </trkpt>
      <trkpt lat="63.39449" lon="9.00245">
        <ele>55.763802</ele>
        <time>2020-08-04T14:23:01.912Z</time>
      </trkpt>
      <trkpt lat="63.39457" lon="9.00268">
        <ele>55.751655</ele>
        <time>2020-08-04T14:23:03.901Z</time>
      </trkpt>
      <trkpt lat="63.39466" lon="9.0029">
        <ele>55.73959</ele>
        <time>2020-08-04T14:23:05.882Z</time>
      </trkpt>
      <trkpt lat="63.39474" lon="9.00313">
        <ele>55.726985</ele>
        <time>2020-08-04T14:23:07.898Z</time>
      </trkpt>
      <trkpt lat="63.39483" lon="9.00337">
        <ele>55.714124</ele>
        <time>2020-08-04T14:23:09.896Z</time>
      </trkpt>
      <trkpt lat="63.39492" lon="9.00361">
        <ele>55.457271</ele>
        <time>2020-08-04T14:23:11.901Z</time>
      </trkpt>
      <trkpt lat="63.39502" lon="9.00385">
        <ele>55.05051</ele>
        <time>2020-08-04T14:23:13.927Z</time>
      </trkpt>
      <trkpt lat="63.39512" lon="9.00408">
        <ele>54.632536</ele>
        <time>2020-08-04T14:23:15.897Z</time>
      </trkpt>
      <trkpt lat="63.39523" lon="9.00431">
        <ele>54.216595</ele>
        <time>2020-08-04T14:23:17.888Z</time>
      </trkpt>
      <trkpt lat="63.39534" lon="9.00453">
        <ele>53.791504</ele>
        <time>2020-08-04T14:23:19.891Z</time>
      </trkpt>
      <trkpt lat="63.39546" lon="9.00475">
        <ele>53.366706</ele>
        <time>2020-08-04T14:23:21.912Z</time>
      </trkpt>
      <trkpt lat="63.39557" lon="9.00496">
        <ele>52.946766</ele>
        <time>2020-08-04T14:23:23.896Z</time>
      </trkpt>
      <trkpt lat="63.39569" lon="9.00516">
        <ele>52.528096</ele>
        <time>2020-08-04T14:23:25.901Z</time>
      </trkpt>
      <trkpt lat="63.39581" lon="9.00535">
        <ele>52.114711</ele>
        <time>2020-08-04T14:23:27.883Z</time>
      </trkpt>
      <trkpt lat="63.39593" lon="9.00554">
        <ele>51.701044</ele>
        <time>2020-08-04T14:23:29.922Z</time>
      </trkpt>
      <trkpt lat="63.39606" lon="9.00571">
        <ele>51.282776</ele>
        <time>2020-08-04T14:23:31.902Z</time>
      </trkpt>
      <trkpt lat="63.39618" lon="9.00588">
        <ele>50.878181</ele>
        <time>2020-08-04T14:23:33.898Z</time>
      </trkpt>
      <trkpt lat="63.3963" lon="9.00605">
        <ele>50.626315</ele>
        <time>2020-08-04T14:23:35.877Z</time>
      </trkpt>
      <trkpt lat="63.39641" lon="9.00621">
        <ele>50.58343</ele>
        <time>2020-08-04T14:23:37.886Z</time>
      </trkpt>
      <trkpt lat="63.39652" lon="9.00636">
        <ele>50.540858</ele>
        <time>2020-08-04T14:23:39.901Z</time>
      </trkpt>
      <trkpt lat="63.39663" lon="9.00652">
        <ele>50.498754</ele>
        <time>2020-08-04T14:23:41.895Z</time>
      </trkpt>
      <trkpt lat="63.39673" lon="9.00667">
        <ele>50.458289</ele>
        <time>2020-08-04T14:23:43.899Z</time>
      </trkpt>
      <trkpt lat="63.39683" lon="9.00683">
        <ele>50.41928</ele>
        <time>2020-08-04T14:23:45.886Z</time>
      </trkpt>
      <trkpt lat="63.39693" lon="9.00697">
        <ele>50.381664</ele>
        <time>2020-08-04T14:23:47.896Z</time>
      </trkpt>
      <trkpt lat="63.39703" lon="9.00709">
        <ele>50.344882</ele>
        <time>2020-08-04T14:23:49.897Z</time>
      </trkpt>
      <trkpt lat="63.39712" lon="9.00721">
        <ele>50.310465</ele>
        <time>2020-08-04T14:23:51.923Z</time>
      </trkpt>
      <trkpt lat="63.39721" lon="9.00733">
        <ele>50.27718</ele>
        <time>2020-08-04T14:23:53.884Z</time>
      </trkpt>
      <trkpt lat="63.3973" lon="9.00745">
        <ele>50.243373</ele>
        <time>2020-08-04T14:23:55.891Z</time>
      </trkpt>
      <trkpt lat="63.39738" lon="9.00757">
        <ele>50.210828</ele>
        <time>2020-08-04T14:23:57.887Z</time>
      </trkpt>
      <trkpt lat="63.39746" lon="9.0077">
        <ele>50.178424</ele>
        <time>2020-08-04T14:23:59.882Z</time>
      </trkpt>
      <trkpt lat="63.39755" lon="9.00782">
        <ele>50.146699</ele>
        <time>2020-08-04T14:24:01.904Z</time>
      </trkpt>
      <trkpt lat="63.39763" lon="9.00793">
        <ele>50.115522</ele>
        <time>2020-08-04T14:24:03.885Z</time>
      </trkpt>
      <trkpt lat="63.39771" lon="9.00805">
        <ele>50.084538</ele>
        <time>2020-08-04T14:24:05.903Z</time>
      </trkpt>
      <trkpt lat="63.39778" lon="9.00816">
        <ele>50.060855</ele>
        <time>2020-08-04T14:24:07.957Z</time>
      </trkpt>
      <trkpt lat="63.39786" lon="9.00827">
        <ele>50.058675</ele>
        <time>2020-08-04T14:24:09.891Z</time>
      </trkpt>
      <trkpt lat="63.39794" lon="9.00839">
        <ele>50.056306</ele>
        <time>2020-08-04T14:24:11.919Z</time>
      </trkpt>
      <trkpt lat="63.39804" lon="9.00852">
        <ele>50.05377</ele>
        <time>2020-08-04T14:24:13.891Z</time>
      </trkpt>
      <trkpt lat="63.39813" lon="9.00865">
        <ele>50.051271</ele>
        <time>2020-08-04T14:24:15.931Z</time>
      </trkpt>
      <trkpt lat="63.39822" lon="9.00878">
        <ele>50.048638</ele>
        <time>2020-08-04T14:24:17.892Z</time>
      </trkpt>
      <trkpt lat="63.39832" lon="9.00892">
        <ele>50.045823</ele>
        <time>2020-08-04T14:24:19.885Z</time>
      </trkpt>
      <trkpt lat="63.39842" lon="9.00905">
        <ele>50.043087</ele>
        <time>2020-08-04T14:24:21.901Z</time>
      </trkpt>
      <trkpt lat="63.39852" lon="9.00917">
        <ele>50.040301</ele>
        <time>2020-08-04T14:24:23.900Z</time>
      </trkpt>
      <trkpt lat="63.39863" lon="9.00929">
        <ele>50.037468</ele>
        <time>2020-08-04T14:24:25.894Z</time>
      </trkpt>
      <trkpt lat="63.39874" lon="9.0094">
        <ele>50.034689</ele>
        <time>2020-08-04T14:24:27.898Z</time>
      </trkpt>
      <trkpt lat="63.39885" lon="9.00949">
        <ele>50.031905</ele>
        <time>2020-08-04T14:24:29.913Z</time>
      </trkpt>
      <trkpt lat="63.39896" lon="9.00956">
        <ele>50.029131</ele>
        <time>2020-08-04T14:24:31.902Z</time>
      </trkpt>
      <trkpt lat="63.39908" lon="9.0096">
        <ele>50.02631</ele>
        <time>2020-08-04T14:24:33.925Z</time>
      </trkpt>
      <trkpt lat="63.3992" lon="9.00963">
        <ele>50.023458</ele>
        <time>2020-08-04T14:24:35.923Z</time>
      </trkpt>
      <trkpt lat="63.39932" lon="9.00965">
        <ele>50.020707</ele>
        <time>2020-08-04T14:24:37.919Z</time>
      </trkpt>
      <trkpt lat="63.39943" lon="9.00966">
        <ele>50.227167</ele>
        <time>2020-08-04T14:24:39.884Z</time>
      </trkpt>
      <trkpt lat="63.39954" lon="9.00965">
        <ele>50.991122</ele>
        <time>2020-08-04T14:24:41.893Z</time>
      </trkpt>
      <trkpt lat="63.39965" lon="9.00962">
        <ele>51.772508</ele>
        <time>2020-08-04T14:24:43.879Z</time>
      </trkpt>
      <trkpt lat="63.39977" lon="9.00958">
        <ele>52.558739</ele>
        <time>2020-08-04T14:24:45.898Z</time>
      </trkpt>
      <trkpt lat="63.39988" lon="9.00951">
        <ele>53.346399</ele>
        <time>2020-08-04T14:24:47.886Z</time>
      </trkpt>
      <trkpt lat="63.39999" lon="9.00943">
        <ele>54.119137</ele>
        <time>2020-08-04T14:24:49.883Z</time>
      </trkpt>
      <trkpt lat="63.40009" lon="9.00935">
        <ele>54.844928</ele>
        <time>2020-08-04T14:24:51.944Z</time>
      </trkpt>
      <trkpt lat="63.40018" lon="9.00926">
        <ele>55.541739</ele>
        <time>2020-08-04T14:24:53.883Z</time>
      </trkpt>
      <trkpt lat="63.40026" lon="9.00915">
        <ele>56.181369</ele>
        <time>2020-08-04T14:24:55.932Z</time>
      </trkpt>
      <trkpt lat="63.40037" lon="9.00901">
        <ele>57.007668</ele>
        <time>2020-08-04T14:24:58.891Z</time>
      </trkpt>
      <trkpt lat="63.40045" lon="9.00887">
        <ele>57.73271</ele>
        <time>2020-08-04T14:25:01.887Z</time>
      </trkpt>
      <trkpt lat="63.40052" lon="9.00874">
        <ele>58.342562</ele>
        <time>2020-08-04T14:25:04.901Z</time>
      </trkpt>
      <trkpt lat="63.4006" lon="9.00861">
        <ele>59.009519</ele>
        <time>2020-08-04T14:25:09.881Z</time>
      </trkpt>
      <trkpt lat="63.40067" lon="9.00845">
        <ele>59.712815</ele>
        <time>2020-08-04T14:25:15.946Z</time>
      </trkpt>
      <trkpt lat="63.40074" lon="9.00826">
        <ele>60.426002</ele>
        <time>2020-08-04T14:25:21.893Z</time>
      </trkpt>
      <trkpt lat="63.40079" lon="9.00808">
        <ele>61.093588</ele>
        <time>2020-08-04T14:25:28.891Z</time>
      </trkpt>
      <trkpt lat="63.40085" lon="9.00792">
        <ele>61.740135</ele>
        <time>2020-08-04T14:25:34.930Z</time>
      </trkpt>
      <trkpt lat="63.40091" lon="9.00773">
        <ele>62.297941</ele>
        <time>2020-08-04T14:25:40.913Z</time>
      </trkpt>
      <trkpt lat="63.40098" lon="9.00755">
        <ele>62.400743</ele>
        <time>2020-08-04T14:25:45.900Z</time>
      </trkpt>
      <trkpt lat="63.40106" lon="9.0074">
        <ele>62.50525</ele>
        <time>2020-08-04T14:25:50.924Z</time>
      </trkpt>
      <trkpt lat="63.40113" lon="9.00726">
        <ele>62.59418</ele>
        <time>2020-08-04T14:25:54.917Z</time>
      </trkpt>
      <trkpt lat="63.40119" lon="9.00711">
        <ele>62.685595</ele>
        <time>2020-08-04T14:25:58.908Z</time>
      </trkpt>
      <trkpt lat="63.40128" lon="9.00694">
        <ele>62.800237</ele>
        <time>2020-08-04T14:26:02.924Z</time>
      </trkpt>
      <trkpt lat="63.40137" lon="9.00682">
        <ele>62.899695</ele>
        <time>2020-08-04T14:26:05.923Z</time>
      </trkpt>
      <trkpt lat="63.40147" lon="9.0067">
        <ele>63.008238</ele>
        <time>2020-08-04T14:26:08.885Z</time>
      </trkpt>
      <trkpt lat="63.40158" lon="9.00662">
        <ele>63.126853</ele>
        <time>2020-08-04T14:26:11.904Z</time>
      </trkpt>
      <trkpt lat="63.40171" lon="9.00653">
        <ele>63.257462</ele>
        <time>2020-08-04T14:26:14.897Z</time>
      </trkpt>
      <trkpt lat="63.4018" lon="9.0065">
        <ele>63.347777</ele>
        <time>2020-08-04T14:26:16.932Z</time>
      </trkpt>
      <trkpt lat="63.4019" lon="9.00646">
        <ele>63.44671</ele>
        <time>2020-08-04T14:26:18.900Z</time>
      </trkpt>
      <trkpt lat="63.40201" lon="9.00643">
        <ele>63.55823</ele>
        <time>2020-08-04T14:26:20.891Z</time>
      </trkpt>
      <trkpt lat="63.40213" lon="9.00639">
        <ele>63.670965</ele>
        <time>2020-08-04T14:26:22.886Z</time>
      </trkpt>
      <trkpt lat="63.40224" lon="9.00635">
        <ele>63.784604</ele>
        <time>2020-08-04T14:26:24.879Z</time>
      </trkpt>
      <trkpt lat="63.40236" lon="9.00632">
        <ele>63.900242</ele>
        <time>2020-08-04T14:26:26.884Z</time>
      </trkpt>
      <trkpt lat="63.40248" lon="9.00627">
        <ele>64.015628</ele>
        <time>2020-08-04T14:26:28.884Z</time>
      </trkpt>
      <trkpt lat="63.4026" lon="9.00624">
        <ele>63.945341</ele>
        <time>2020-08-04T14:26:30.887Z</time>
      </trkpt>
      <trkpt lat="63.40273" lon="9.0062">
        <ele>63.844242</ele>
        <time>2020-08-04T14:26:32.889Z</time>
      </trkpt>
      <trkpt lat="63.40286" lon="9.00615">
        <ele>63.741028</ele>
        <time>2020-08-04T14:26:34.928Z</time>
      </trkpt>
      <trkpt lat="63.40299" lon="9.00611">
        <ele>63.635944</ele>
        <time>2020-08-04T14:26:36.898Z</time>
      </trkpt>
      <trkpt lat="63.40312" lon="9.00607">
        <ele>63.531648</ele>
        <time>2020-08-04T14:26:38.915Z</time>
      </trkpt>
      <trkpt lat="63.40325" lon="9.00602">
        <ele>63.42524</ele>
        <time>2020-08-04T14:26:40.894Z</time>
      </trkpt>
      <trkpt lat="63.40338" lon="9.00598">
        <ele>63.317266</ele>
        <time>2020-08-04T14:26:42.903Z</time>
      </trkpt>
      <trkpt lat="63.40352" lon="9.00593">
        <ele>63.210675</ele>
        <time>2020-08-04T14:26:44.887Z</time>
      </trkpt>
      <trkpt lat="63.40365" lon="9.00588">
        <ele>63.101073</ele>
        <time>2020-08-04T14:26:46.882Z</time>
      </trkpt>
      <trkpt lat="63.40378" lon="9.00581">
        <ele>62.999924</ele>
        <time>2020-08-04T14:26:48.886Z</time>
      </trkpt>
      <trkpt lat="63.40388" lon="9.00572">
        <ele>62.91253</ele>
        <time>2020-08-04T14:26:50.905Z</time>
      </trkpt>
      <trkpt lat="63.40397" lon="9.00562">
        <ele>62.833108</ele>
        <time>2020-08-04T14:26:52.917Z</time>
      </trkpt>
      <trkpt lat="63.40405" lon="9.00552">
        <ele>62.757472</ele>
        <time>2020-08-04T14:26:54.893Z</time>
      </trkpt>
      <trkpt lat="63.40416" lon="9.00539">
        <ele>62.658352</ele>
        <time>2020-08-04T14:26:57.890Z</time>
      </trkpt>
      <trkpt lat="63.40426" lon="9.00527">
        <ele>62.551307</ele>
        <time>2020-08-04T14:27:00.892Z</time>
      </trkpt>
      <trkpt lat="63.40433" lon="9.00514">
        <ele>62.428327</ele>
        <time>2020-08-04T14:27:03.888Z</time>
      </trkpt>
      <trkpt lat="63.40441" lon="9.00499">
        <ele>62.28835</ele>
        <time>2020-08-04T14:27:07.924Z</time>
      </trkpt>
      <trkpt lat="63.40449" lon="9.00489">
        <ele>62.167415</ele>
        <time>2020-08-04T14:27:10.904Z</time>
      </trkpt>
      <trkpt lat="63.40458" lon="9.00472">
        <ele>62.008624</ele>
        <time>2020-08-04T14:27:14.883Z</time>
      </trkpt>
      <trkpt lat="63.40466" lon="9.00461">
        <ele>61.884201</ele>
        <time>2020-08-04T14:27:17.889Z</time>
      </trkpt>
      <trkpt lat="63.40474" lon="9.00451">
        <ele>61.763301</ele>
        <time>2020-08-04T14:27:20.868Z</time>
      </trkpt>
      <trkpt lat="63.40482" lon="9.00442">
        <ele>61.639141</ele>
        <time>2020-08-04T14:27:23.882Z</time>
      </trkpt>
      <trkpt lat="63.40492" lon="9.00428">
        <ele>61.484912</ele>
        <time>2020-08-04T14:27:27.895Z</time>
      </trkpt>
      <trkpt lat="63.405" lon="9.00418">
        <ele>61.364318</ele>
        <time>2020-08-04T14:27:30.921Z</time>
      </trkpt>
      <trkpt lat="63.40509" lon="9.00406">
        <ele>61.225386</ele>
        <time>2020-08-04T14:27:33.919Z</time>
      </trkpt>
      <trkpt lat="63.4052" lon="9.00398">
        <ele>61.072074</ele>
        <time>2020-08-04T14:27:36.901Z</time>
      </trkpt>
      <trkpt lat="63.40531" lon="9.00386">
        <ele>60.912276</ele>
        <time>2020-08-04T14:27:39.886Z</time>
      </trkpt>
      <trkpt lat="63.40542" lon="9.00374">
        <ele>60.738413</ele>
        <time>2020-08-04T14:27:42.903Z</time>
      </trkpt>
      <trkpt lat="63.40555" lon="9.00361">
        <ele>60.560429</ele>
        <time>2020-08-04T14:27:45.896Z</time>
      </trkpt>
      <trkpt lat="63.40563" lon="9.00352">
        <ele>60.432537</ele>
        <time>2020-08-04T14:27:47.887Z</time>
      </trkpt>
      <trkpt lat="63.40573" lon="9.00342">
        <ele>60.285216</ele>
        <time>2020-08-04T14:27:49.908Z</time>
      </trkpt>
      <trkpt lat="63.40583" lon="9.0033">
        <ele>60.165665</ele>
        <time>2020-08-04T14:27:51.889Z</time>
      </trkpt>
      <trkpt lat="63.40592" lon="9.00319">
        <ele>60.090593</ele>
        <time>2020-08-04T14:27:53.916Z</time>
      </trkpt>
      <trkpt lat="63.406" lon="9.00308">
        <ele>60.012114</ele>
        <time>2020-08-04T14:27:55.884Z</time>
      </trkpt>
      <trkpt lat="63.4061" lon="9.00297">
        <ele>59.928911</ele>
        <time>2020-08-04T14:27:57.895Z</time>
      </trkpt>
      <trkpt lat="63.4062" lon="9.00285">
        <ele>59.840302</ele>
        <time>2020-08-04T14:27:59.911Z</time>
      </trkpt>
      <trkpt lat="63.4063" lon="9.00275">
        <ele>59.75925</ele>
        <time>2020-08-04T14:28:01.904Z</time>
      </trkpt>
      <trkpt lat="63.40641" lon="9.00262">
        <ele>59.659419</ele>
        <time>2020-08-04T14:28:04.955Z</time>
      </trkpt>
      <trkpt lat="63.4065" lon="9.00249">
        <ele>59.579036</ele>
        <time>2020-08-04T14:28:06.893Z</time>
      </trkpt>
      <trkpt lat="63.4066" lon="9.00233">
        <ele>59.481743</ele>
        <time>2020-08-04T14:28:08.909Z</time>
      </trkpt>
      <trkpt lat="63.40671" lon="9.0022">
        <ele>59.382759</ele>
        <time>2020-08-04T14:28:10.888Z</time>
      </trkpt>
      <trkpt lat="63.40682" lon="9.00208">
        <ele>59.288861</ele>
        <time>2020-08-04T14:28:12.891Z</time>
      </trkpt>
      <trkpt lat="63.40693" lon="9.00199">
        <ele>59.203067</ele>
        <time>2020-08-04T14:28:14.891Z</time>
      </trkpt>
      <trkpt lat="63.40703" lon="9.0019">
        <ele>59.115705</ele>
        <time>2020-08-04T14:28:16.883Z</time>
      </trkpt>
      <trkpt lat="63.40713" lon="9.00183">
        <ele>59.035273</ele>
        <time>2020-08-04T14:28:18.887Z</time>
      </trkpt>
      <trkpt lat="63.40723" lon="9.00179">
        <ele>58.955287</ele>
        <time>2020-08-04T14:28:20.892Z</time>
      </trkpt>
      <trkpt lat="63.40733" lon="9.00176">
        <ele>58.880156</ele>
        <time>2020-08-04T14:28:22.891Z</time>
      </trkpt>
      <trkpt lat="63.40745" lon="9.00174">
        <ele>58.937416</ele>
        <time>2020-08-04T14:28:25.884Z</time>
      </trkpt>
      <trkpt lat="63.40755" lon="9.00173">
        <ele>59.204847</ele>
        <time>2020-08-04T14:28:28.911Z</time>
      </trkpt>
      <trkpt lat="63.40764" lon="9.00173">
        <ele>59.472055</ele>
        <time>2020-08-04T14:28:32.900Z</time>
      </trkpt>
      <trkpt lat="63.40774" lon="9.00173">
        <ele>59.759357</ele>
        <time>2020-08-04T14:28:37.922Z</time>
      </trkpt>
      <trkpt lat="63.40785" lon="9.00173">
        <ele>60.069847</ele>
        <time>2020-08-04T14:28:42.881Z</time>
      </trkpt>
      <trkpt lat="63.40795" lon="9.00176">
        <ele>60.361647</ele>
        <time>2020-08-04T14:28:47.881Z</time>
      </trkpt>
      <trkpt lat="63.40805" lon="9.0018">
        <ele>60.648326</ele>
        <time>2020-08-04T14:28:52.891Z</time>
      </trkpt>
      <trkpt lat="63.40814" lon="9.00185">
        <ele>60.93552</ele>
        <time>2020-08-04T14:28:57.891Z</time>
      </trkpt>
      <trkpt lat="63.40824" lon="9.00191">
        <ele>61.219616</ele>
        <time>2020-08-04T14:29:02.889Z</time>
      </trkpt>
      <trkpt lat="63.40834" lon="9.00198">
        <ele>61.523044</ele>
        <time>2020-08-04T14:29:07.951Z</time>
      </trkpt>
      <trkpt lat="63.40843" lon="9.00207">
        <ele>61.794392</ele>
        <time>2020-08-04T14:29:11.876Z</time>
      </trkpt>
      <trkpt lat="63.40851" lon="9.00219">
        <ele>62.088453</ele>
        <time>2020-08-04T14:29:15.896Z</time>
      </trkpt>
      <trkpt lat="63.40859" lon="9.00235">
        <ele>62.393525</ele>
        <time>2020-08-04T14:29:19.883Z</time>
      </trkpt>
      <trkpt lat="63.40866" lon="9.00252">
        <ele>62.693557</ele>
        <time>2020-08-04T14:29:22.902Z</time>
      </trkpt>
      <trkpt lat="63.40873" lon="9.00272">
        <ele>63.013334</ele>
        <time>2020-08-04T14:29:25.882Z</time>
      </trkpt>
      <trkpt lat="63.40878" lon="9.00296">
        <ele>63.359317</ele>
        <time>2020-08-04T14:29:28.889Z</time>
      </trkpt>
      <trkpt lat="63.40883" lon="9.00318">
        <ele>63.678682</ele>
        <time>2020-08-04T14:29:31.917Z</time>
      </trkpt>
      <trkpt lat="63.40886" lon="9.00342">
        <ele>64.014157</ele>
        <time>2020-08-04T14:29:34.901Z</time>
      </trkpt>
      <trkpt lat="63.40888" lon="9.00366">
        <ele>64.904681</ele>
        <time>2020-08-04T14:29:37.910Z</time>
      </trkpt>
      <trkpt lat="63.40889" lon="9.00389">
        <ele>65.75104</ele>
        <time>2020-08-04T14:29:40.895Z</time>
      </trkpt>
      <trkpt lat="63.40888" lon="9.00415">
        <ele>66.697261</ele>
        <time>2020-08-04T14:29:44.896Z</time>
      </trkpt>
      <trkpt lat="63.40885" lon="9.00438">
        <ele>67.573208</ele>
        <time>2020-08-04T14:29:48.892Z</time>
      </trkpt>
      <trkpt lat="63.40881" lon="9.0046">
        <ele>68.449068</ele>
        <time>2020-08-04T14:29:52.885Z</time>
      </trkpt>
      <trkpt lat="63.40876" lon="9.00481">
        <ele>69.31702</ele>
        <time>2020-08-04T14:29:56.892Z</time>
      </trkpt>
      <trkpt lat="63.4087" lon="9.00501">
        <ele>70.202044</ele>
        <time>2020-08-04T14:30:00.888Z</time>
      </trkpt>
      <trkpt lat="63.40863" lon="9.00519">
        <ele>71.046858</ele>
        <time>2020-08-04T14:30:04.901Z</time>
      </trkpt>
      <trkpt lat="63.40857" lon="9.00536">
        <ele>71.874118</ele>
        <time>2020-08-04T14:30:08.922Z</time>
      </trkpt>
      <trkpt lat="63.4085" lon="9.00552">
        <ele>72.702498</ele>
        <time>2020-08-04T14:30:12.892Z</time>
      </trkpt>
      <trkpt lat="63.40842" lon="9.00565">
        <ele>73.463811</ele>
        <time>2020-08-04T14:30:16.894Z</time>
      </trkpt>
      <trkpt lat="63.40835" lon="9.00576">
        <ele>74.213636</ele>
        <time>2020-08-04T14:30:20.921Z</time>
      </trkpt>
      <trkpt lat="63.40826" lon="9.00586">
        <ele>75.012064</ele>
        <time>2020-08-04T14:30:24.928Z</time>
      </trkpt>
      <trkpt lat="63.40816" lon="9.00597">
        <ele>75.900504</ele>
        <time>2020-08-04T14:30:29.910Z</time>
      </trkpt>
      <trkpt lat="63.40808" lon="9.00606">
        <ele>76.691255</ele>
        <time>2020-08-04T14:30:33.898Z</time>
      </trkpt>
      <trkpt lat="63.40798" lon="9.00619">
        <ele>77.613066</ele>
        <time>2020-08-04T14:30:37.890Z</time>
      </trkpt>
      <trkpt lat="63.40788" lon="9.00632">
        <ele>78.584679</ele>
        <time>2020-08-04T14:30:41.881Z</time>
      </trkpt>
      <trkpt lat="63.40778" lon="9.00644">
        <ele>79.176009</ele>
        <time>2020-08-04T14:30:44.941Z</time>
      </trkpt>
      <trkpt lat="63.40767" lon="9.00661">
        <ele>79.828443</ele>
        <time>2020-08-04T14:30:47.883Z</time>
      </trkpt>
      <trkpt lat="63.40759" lon="9.00673">
        <ele>80.290956</ele>
        <time>2020-08-04T14:30:49.892Z</time>
      </trkpt>
      <trkpt lat="63.40752" lon="9.00688">
        <ele>80.778374</ele>
        <time>2020-08-04T14:30:51.891Z</time>
      </trkpt>
      <trkpt lat="63.40744" lon="9.00702">
        <ele>81.278507</ele>
        <time>2020-08-04T14:30:53.919Z</time>
      </trkpt>
      <trkpt lat="63.40736" lon="9.00717">
        <ele>81.794258</ele>
        <time>2020-08-04T14:30:55.912Z</time>
      </trkpt>
      <trkpt lat="63.40727" lon="9.00733">
        <ele>82.35731</ele>
        <time>2020-08-04T14:30:57.909Z</time>
      </trkpt>
      <trkpt lat="63.40717" lon="9.00751">
        <ele>82.985044</ele>
        <time>2020-08-04T14:30:59.904Z</time>
      </trkpt>
      <trkpt lat="63.40707" lon="9.00771">
        <ele>83.651724</ele>
        <time>2020-08-04T14:31:01.911Z</time>
      </trkpt>
      <trkpt lat="63.40698" lon="9.00792">
        <ele>84.307805</ele>
        <time>2020-08-04T14:31:03.890Z</time>
      </trkpt>
      <trkpt lat="63.4069" lon="9.00815">
        <ele>84.945675</ele>
        <time>2020-08-04T14:31:05.912Z</time>
      </trkpt>
      <trkpt lat="63.40683" lon="9.00845">
        <ele>85.691116</ele>
        <time>2020-08-04T14:31:07.901Z</time>
      </trkpt>
      <trkpt lat="63.40677" lon="9.00881">
        <ele>86.525733</ele>
        <time>2020-08-04T14:31:09.894Z</time>
      </trkpt>
      <trkpt lat="63.40675" lon="9.00917">
        <ele>87.330283</ele>
        <time>2020-08-04T14:31:11.904Z</time>
      </trkpt>
      <trkpt lat="63.40677" lon="9.00949">
        <ele>86.499481</ele>
        <time>2020-08-04T14:31:13.895Z</time>
      </trkpt>
      <trkpt lat="63.40682" lon="9.00982">
        <ele>84.837089</ele>
        <time>2020-08-04T14:31:15.918Z</time>
      </trkpt>
      <trkpt lat="63.4069" lon="9.01009">
        <ele>83.285397</ele>
        <time>2020-08-04T14:31:17.889Z</time>
      </trkpt>
      <trkpt lat="63.407" lon="9.01031">
        <ele>81.77103</ele>
        <time>2020-08-04T14:31:19.912Z</time>
      </trkpt>
      <trkpt lat="63.40709" lon="9.01047">
        <ele>80.575383</ele>
        <time>2020-08-04T14:31:21.891Z</time>
      </trkpt>
      <trkpt lat="63.40717" lon="9.01054">
        <ele>79.592341</ele>
        <time>2020-08-04T14:31:23.916Z</time>
      </trkpt>
      <trkpt lat="63.40727" lon="9.01059">
        <ele>78.533647</ele>
        <time>2020-08-04T14:31:25.892Z</time>
      </trkpt>
      <trkpt lat="63.40736" lon="9.01061">
        <ele>77.491881</ele>
        <time>2020-08-04T14:31:27.900Z</time>
      </trkpt>
      <trkpt lat="63.40747" lon="9.01056">
        <ele>76.290675</ele>
        <time>2020-08-04T14:31:29.920Z</time>
      </trkpt>
      <trkpt lat="63.40759" lon="9.01049">
        <ele>74.983401</ele>
        <time>2020-08-04T14:31:31.888Z</time>
      </trkpt>
      <trkpt lat="63.40771" lon="9.01041">
        <ele>73.70417</ele>
        <time>2020-08-04T14:31:33.887Z</time>
      </trkpt>
      <trkpt lat="63.40784" lon="9.01034">
        <ele>72.188562</ele>
        <time>2020-08-04T14:31:35.894Z</time>
      </trkpt>
      <trkpt lat="63.40799" lon="9.01027">
        <ele>70.541161</ele>
        <time>2020-08-04T14:31:37.909Z</time>
      </trkpt>
      <trkpt lat="63.40815" lon="9.01015">
        <ele>68.738317</ele>
        <time>2020-08-04T14:31:39.895Z</time>
      </trkpt>
      <trkpt lat="63.40832" lon="9.01">
        <ele>67.921444</ele>
        <time>2020-08-04T14:31:41.886Z</time>
      </trkpt>
      <trkpt lat="63.4084" lon="9.00991">
        <ele>67.675049</ele>
        <time>2020-08-04T14:31:42.932Z</time>
      </trkpt>
      <trkpt lat="63.40849" lon="9.00982">
        <ele>67.419893</ele>
        <time>2020-08-04T14:31:43.906Z</time>
      </trkpt>
      <trkpt lat="63.40858" lon="9.00972">
        <ele>67.157654</ele>
        <time>2020-08-04T14:31:44.894Z</time>
      </trkpt>
      <trkpt lat="63.40867" lon="9.00963">
        <ele>66.89992</ele>
        <time>2020-08-04T14:31:45.890Z</time>
      </trkpt>
      <trkpt lat="63.40876" lon="9.00954">
        <ele>66.639944</ele>
        <time>2020-08-04T14:31:46.884Z</time>
      </trkpt>
      <trkpt lat="63.40884" lon="9.00944">
        <ele>66.397502</ele>
        <time>2020-08-04T14:31:47.886Z</time>
      </trkpt>
      <trkpt lat="63.40898" lon="9.00925">
        <ele>65.950857</ele>
        <time>2020-08-04T14:31:49.927Z</time>
      </trkpt>
      <trkpt lat="63.4091" lon="9.0091">
        <ele>65.578078</ele>
        <time>2020-08-04T14:31:51.887Z</time>
      </trkpt>
      <trkpt lat="63.4092" lon="9.009">
        <ele>65.293376</ele>
        <time>2020-08-04T14:31:53.912Z</time>
      </trkpt>
      <trkpt lat="63.40931" lon="9.00891">
        <ele>64.986335</ele>
        <time>2020-08-04T14:31:56.891Z</time>
      </trkpt>
      <trkpt lat="63.40941" lon="9.00883">
        <ele>64.716673</ele>
        <time>2020-08-04T14:32:00.890Z</time>
      </trkpt>
      <trkpt lat="63.40948" lon="9.00871">
        <ele>64.458162</ele>
        <time>2020-08-04T14:32:05.912Z</time>
      </trkpt>
      <trkpt lat="63.40958" lon="9.00862">
        <ele>64.19281</ele>
        <time>2020-08-04T14:32:11.941Z</time>
      </trkpt>
      <trkpt lat="63.40966" lon="9.00855">
        <ele>63.9501</ele>
        <time>2020-08-04T14:32:16.890Z</time>
      </trkpt>
      <trkpt lat="63.40975" lon="9.00846">
        <ele>63.703469</ele>
        <time>2020-08-04T14:32:22.894Z</time>
      </trkpt>
      <trkpt lat="63.40981" lon="9.00828">
        <ele>63.54439</ele>
        <time>2020-08-04T14:32:29.911Z</time>
      </trkpt>
      <trkpt lat="63.4099" lon="9.00819">
        <ele>63.666093</ele>
        <time>2020-08-04T14:32:35.887Z</time>
      </trkpt>
      <trkpt lat="63.40999" lon="9.00816">
        <ele>63.773809</ele>
        <time>2020-08-04T14:32:41.888Z</time>
      </trkpt>
      <trkpt lat="63.41009" lon="9.00813">
        <ele>63.891267</ele>
        <time>2020-08-04T14:32:47.904Z</time>
      </trkpt>
      <trkpt lat="63.41018" lon="9.00816">
        <ele>64.000729</ele>
        <time>2020-08-04T14:32:52.905Z</time>
      </trkpt>
      <trkpt lat="63.41027" lon="9.00826">
        <ele>64.129463</ele>
        <time>2020-08-04T14:32:57.895Z</time>
      </trkpt>
      <trkpt lat="63.41036" lon="9.00837">
        <ele>64.248156</ele>
        <time>2020-08-04T14:33:01.911Z</time>
      </trkpt>
      <trkpt lat="63.41042" lon="9.00852">
        <ele>64.358076</ele>
        <time>2020-08-04T14:33:04.892Z</time>
      </trkpt>
      <trkpt lat="63.41049" lon="9.00877">
        <ele>64.516394</ele>
        <time>2020-08-04T14:33:07.891Z</time>
      </trkpt>
      <trkpt lat="63.41054" lon="9.00896">
        <ele>64.63392</ele>
        <time>2020-08-04T14:33:09.898Z</time>
      </trkpt>
      <trkpt lat="63.41058" lon="9.00917">
        <ele>64.758308</ele>
        <time>2020-08-04T14:33:11.910Z</time>
      </trkpt>
      <trkpt lat="63.41062" lon="9.00938">
        <ele>64.880678</ele>
        <time>2020-08-04T14:33:13.928Z</time>
      </trkpt>
      <trkpt lat="63.41066" lon="9.00959">
        <ele>65.003093</ele>
        <time>2020-08-04T14:33:15.885Z</time>
      </trkpt>
      <trkpt lat="63.4107" lon="9.00979">
        <ele>65.124483</ele>
        <time>2020-08-04T14:33:17.922Z</time>
      </trkpt>
      <trkpt lat="63.41074" lon="9.00998">
        <ele>65.238051</ele>
        <time>2020-08-04T14:33:19.886Z</time>
      </trkpt>
      <trkpt lat="63.41079" lon="9.01025">
        <ele>65.395376</ele>
        <time>2020-08-04T14:33:22.925Z</time>
      </trkpt>
      <trkpt lat="63.41085" lon="9.0105">
        <ele>65.542829</ele>
        <time>2020-08-04T14:33:25.896Z</time>
      </trkpt>
      <trkpt lat="63.41089" lon="9.01074">
        <ele>65.695217</ele>
        <time>2020-08-04T14:33:28.907Z</time>
      </trkpt>
      <trkpt lat="63.41093" lon="9.01095">
        <ele>65.981094</ele>
        <time>2020-08-04T14:33:31.898Z</time>
      </trkpt>
      <trkpt lat="63.41096" lon="9.01114">
        <ele>66.238481</ele>
        <time>2020-08-04T14:33:34.919Z</time>
      </trkpt>
      <trkpt lat="63.41101" lon="9.01137">
        <ele>66.554403</ele>
        <time>2020-08-04T14:33:38.932Z</time>
      </trkpt>
      <trkpt lat="63.41106" lon="9.01161">
        <ele>66.881859</ele>
        <time>2020-08-04T14:33:42.909Z</time>
      </trkpt>
      <trkpt lat="63.41109" lon="9.01183">
        <ele>67.180059</ele>
        <time>2020-08-04T14:33:46.883Z</time>
      </trkpt>
      <trkpt lat="63.41114" lon="9.01203">
        <ele>67.463641</ele>
        <time>2020-08-04T14:33:50.888Z</time>
      </trkpt>
      <trkpt lat="63.41118" lon="9.01223">
        <ele>67.738077</ele>
        <time>2020-08-04T14:33:54.883Z</time>
      </trkpt>
      <trkpt lat="63.4112" lon="9.01244">
        <ele>68.018871</ele>
        <time>2020-08-04T14:33:58.912Z</time>
      </trkpt>
      <trkpt lat="63.41126" lon="9.01264">
        <ele>68.315669</ele>
        <time>2020-08-04T14:34:02.923Z</time>
      </trkpt>
      <trkpt lat="63.41131" lon="9.01285">
        <ele>68.612152</ele>
        <time>2020-08-04T14:34:06.884Z</time>
      </trkpt>
      <trkpt lat="63.41135" lon="9.01303">
        <ele>68.86595</ele>
        <time>2020-08-04T14:34:10.883Z</time>
      </trkpt>
      <trkpt lat="63.41138" lon="9.01322">
        <ele>69.123095</ele>
        <time>2020-08-04T14:34:14.924Z</time>
      </trkpt>
      <trkpt lat="63.41142" lon="9.01341">
        <ele>69.38302</ele>
        <time>2020-08-04T14:34:18.897Z</time>
      </trkpt>
      <trkpt lat="63.41145" lon="9.01361">
        <ele>69.65058</ele>
        <time>2020-08-04T14:34:22.889Z</time>
      </trkpt>
      <trkpt lat="63.41148" lon="9.01381">
        <ele>69.92296</ele>
        <time>2020-08-04T14:34:27.898Z</time>
      </trkpt>
      <trkpt lat="63.41152" lon="9.01404">
        <ele>70.230215</ele>
        <time>2020-08-04T14:34:32.903Z</time>
      </trkpt>
      <trkpt lat="63.41155" lon="9.01427">
        <ele>70.531633</ele>
        <time>2020-08-04T14:34:36.901Z</time>
      </trkpt>
      <trkpt lat="63.41159" lon="9.01449">
        <ele>70.746191</ele>
        <time>2020-08-04T14:34:40.929Z</time>
      </trkpt>
      <trkpt lat="63.41162" lon="9.01474">
        <ele>70.735106</ele>
        <time>2020-08-04T14:34:44.883Z</time>
      </trkpt>
      <trkpt lat="63.41164" lon="9.01495">
        <ele>70.72593</ele>
        <time>2020-08-04T14:34:47.888Z</time>
      </trkpt>
      <trkpt lat="63.41164" lon="9.01519">
        <ele>70.715975</ele>
        <time>2020-08-04T14:34:50.888Z</time>
      </trkpt>
      <trkpt lat="63.41164" lon="9.01546">
        <ele>70.704239</ele>
        <time>2020-08-04T14:34:53.921Z</time>
      </trkpt>
      <trkpt lat="63.41164" lon="9.01567">
        <ele>70.695681</ele>
        <time>2020-08-04T14:34:55.905Z</time>
      </trkpt>
      <trkpt lat="63.41163" lon="9.01589">
        <ele>70.68628</ele>
        <time>2020-08-04T14:34:57.902Z</time>
      </trkpt>
      <trkpt lat="63.41162" lon="9.01614">
        <ele>70.675523</ele>
        <time>2020-08-04T14:34:59.900Z</time>
      </trkpt>
      <trkpt lat="63.41159" lon="9.01641">
        <ele>70.664081</ele>
        <time>2020-08-04T14:35:01.896Z</time>
      </trkpt>
      <trkpt lat="63.41157" lon="9.01669">
        <ele>70.651637</ele>
        <time>2020-08-04T14:35:03.923Z</time>
      </trkpt>
      <trkpt lat="63.41152" lon="9.01697">
        <ele>70.638986</ele>
        <time>2020-08-04T14:35:05.906Z</time>
      </trkpt>
      <trkpt lat="63.41148" lon="9.01728">
        <ele>70.625209</ele>
        <time>2020-08-04T14:35:07.897Z</time>
      </trkpt>
      <trkpt lat="63.41143" lon="9.0176">
        <ele>70.611323</ele>
        <time>2020-08-04T14:35:09.904Z</time>
      </trkpt>
      <trkpt lat="63.41138" lon="9.0179">
        <ele>70.597555</ele>
        <time>2020-08-04T14:35:11.908Z</time>
      </trkpt>
      <trkpt lat="63.41134" lon="9.01817">
        <ele>70.585356</ele>
        <time>2020-08-04T14:35:13.887Z</time>
      </trkpt>
      <trkpt lat="63.4113" lon="9.01841">
        <ele>70.757662</ele>
        <time>2020-08-04T14:35:15.903Z</time>
      </trkpt>
      <trkpt lat="63.41127" lon="9.01861">
        <ele>71.180955</ele>
        <time>2020-08-04T14:35:17.919Z</time>
      </trkpt>
      <trkpt lat="63.41125" lon="9.01883">
        <ele>71.606827</ele>
        <time>2020-08-04T14:35:19.894Z</time>
      </trkpt>
      <trkpt lat="63.41124" lon="9.01906">
        <ele>72.03966</ele>
        <time>2020-08-04T14:35:21.928Z</time>
      </trkpt>
      <trkpt lat="63.41125" lon="9.01927">
        <ele>72.445277</ele>
        <time>2020-08-04T14:35:23.880Z</time>
      </trkpt>
      <trkpt lat="63.41126" lon="9.01955">
        <ele>72.989378</ele>
        <time>2020-08-04T14:35:26.891Z</time>
      </trkpt>
      <trkpt lat="63.41127" lon="9.0198">
        <ele>73.486243</ele>
        <time>2020-08-04T14:35:29.943Z</time>
      </trkpt>
      <trkpt lat="63.41128" lon="9.02004">
        <ele>73.947194</ele>
        <time>2020-08-04T14:35:32.924Z</time>
      </trkpt>
      <trkpt lat="63.41128" lon="9.02028">
        <ele>74.398543</ele>
        <time>2020-08-04T14:35:35.887Z</time>
      </trkpt>
      <trkpt lat="63.4113" lon="9.02054">
        <ele>74.905551</ele>
        <time>2020-08-04T14:35:38.923Z</time>
      </trkpt>
      <trkpt lat="63.41132" lon="9.0208">
        <ele>75.407435</ele>
        <time>2020-08-04T14:35:41.898Z</time>
      </trkpt>
      <trkpt lat="63.41134" lon="9.02104">
        <ele>75.889057</ele>
        <time>2020-08-04T14:35:44.925Z</time>
      </trkpt>
      <trkpt lat="63.41136" lon="9.02132">
        <ele>76.443174</ele>
        <time>2020-08-04T14:35:47.907Z</time>
      </trkpt>
      <trkpt lat="63.41139" lon="9.02158">
        <ele>76.939928</ele>
        <time>2020-08-04T14:35:50.901Z</time>
      </trkpt>
      <trkpt lat="63.4114" lon="9.02185">
        <ele>77.470388</ele>
        <time>2020-08-04T14:35:53.898Z</time>
      </trkpt>
      <trkpt lat="63.41141" lon="9.02211">
        <ele>77.973594</ele>
        <time>2020-08-04T14:35:56.927Z</time>
      </trkpt>
      <trkpt lat="63.41141" lon="9.02239">
        <ele>78.414154</ele>
        <time>2020-08-04T14:35:59.905Z</time>
      </trkpt>
      <trkpt lat="63.4114" lon="9.02267">
        <ele>78.671755</ele>
        <time>2020-08-04T14:36:02.905Z</time>
      </trkpt>
      <trkpt lat="63.41141" lon="9.02296">
        <ele>78.943517</ele>
        <time>2020-08-04T14:36:05.919Z</time>
      </trkpt>
      <trkpt lat="63.41141" lon="9.02322">
        <ele>79.194543</ele>
        <time>2020-08-04T14:36:08.888Z</time>
      </trkpt>
      <trkpt lat="63.41141" lon="9.02346">
        <ele>79.419472</ele>
        <time>2020-08-04T14:36:11.900Z</time>
      </trkpt>
      <trkpt lat="63.4114" lon="9.02369">
        <ele>79.633433</ele>
        <time>2020-08-04T14:36:14.889Z</time>
      </trkpt>
      <trkpt lat="63.41138" lon="9.02392">
        <ele>79.852473</ele>
        <time>2020-08-04T14:36:17.911Z</time>
      </trkpt>
      <trkpt lat="63.41137" lon="9.02415">
        <ele>80.069377</ele>
        <time>2020-08-04T14:36:20.908Z</time>
      </trkpt>
      <trkpt lat="63.41137" lon="9.02438">
        <ele>80.281904</ele>
        <time>2020-08-04T14:36:23.911Z</time>
      </trkpt>
      <trkpt lat="63.41138" lon="9.0246">
        <ele>80.49196</ele>
        <time>2020-08-04T14:36:26.900Z</time>
      </trkpt>
      <trkpt lat="63.41139" lon="9.02485">
        <ele>80.732159</ele>
        <time>2020-08-04T14:36:30.890Z</time>
      </trkpt>
      <trkpt lat="63.4114" lon="9.02508">
        <ele>80.941278</ele>
        <time>2020-08-04T14:36:34.892Z</time>
      </trkpt>
      <trkpt lat="63.41141" lon="9.0253">
        <ele>81.155663</ele>
        <time>2020-08-04T14:36:39.908Z</time>
      </trkpt>
      <trkpt lat="63.41142" lon="9.02553">
        <ele>81.369469</ele>
        <time>2020-08-04T14:36:44.941Z</time>
      </trkpt>
      <trkpt lat="63.41144" lon="9.02573">
        <ele>81.560666</ele>
        <time>2020-08-04T14:36:49.883Z</time>
      </trkpt>
      <trkpt lat="63.41146" lon="9.02593">
        <ele>81.752512</ele>
        <time>2020-08-04T14:36:54.899Z</time>
      </trkpt>
      <trkpt lat="63.41148" lon="9.02614">
        <ele>81.954529</ele>
        <time>2020-08-04T14:36:59.899Z</time>
      </trkpt>
      <trkpt lat="63.41149" lon="9.02637">
        <ele>81.872998</ele>
        <time>2020-08-04T14:37:05.909Z</time>
      </trkpt>
      <trkpt lat="63.4115" lon="9.02658">
        <ele>81.373264</ele>
        <time>2020-08-04T14:37:11.905Z</time>
      </trkpt>
      <trkpt lat="63.41153" lon="9.02678">
        <ele>80.897479</ele>
        <time>2020-08-04T14:37:15.904Z</time>
      </trkpt>
      <trkpt lat="63.41157" lon="9.02701">
        <ele>80.326004</ele>
        <time>2020-08-04T14:37:18.892Z</time>
      </trkpt>
      <trkpt lat="63.41161" lon="9.02722">
        <ele>79.795296</ele>
        <time>2020-08-04T14:37:20.882Z</time>
      </trkpt>
      <trkpt lat="63.41164" lon="9.02743">
        <ele>79.266405</ele>
        <time>2020-08-04T14:37:22.882Z</time>
      </trkpt>
      <trkpt lat="63.41168" lon="9.02763">
        <ele>78.759882</ele>
        <time>2020-08-04T14:37:24.891Z</time>
      </trkpt>
      <trkpt lat="63.41173" lon="9.02783">
        <ele>78.241583</ele>
        <time>2020-08-04T14:37:26.883Z</time>
      </trkpt>
      <trkpt lat="63.41176" lon="9.02805">
        <ele>77.695152</ele>
        <time>2020-08-04T14:37:28.896Z</time>
      </trkpt>
      <trkpt lat="63.4118" lon="9.02823">
        <ele>77.216445</ele>
        <time>2020-08-04T14:37:30.924Z</time>
      </trkpt>
      <trkpt lat="63.41184" lon="9.02842">
        <ele>76.748206</ele>
        <time>2020-08-04T14:37:32.893Z</time>
      </trkpt>
      <trkpt lat="63.41189" lon="9.02861">
        <ele>76.223588</ele>
        <time>2020-08-04T14:37:34.924Z</time>
      </trkpt>
      <trkpt lat="63.41196" lon="9.02879">
        <ele>75.684493</ele>
        <time>2020-08-04T14:37:36.915Z</time>
      </trkpt>
      <trkpt lat="63.41204" lon="9.02896">
        <ele>75.10915</ele>
        <time>2020-08-04T14:37:38.928Z</time>
      </trkpt>
      <trkpt lat="63.41213" lon="9.0291">
        <ele>74.51841</ele>
        <time>2020-08-04T14:37:40.904Z</time>
      </trkpt>
      <trkpt lat="63.41224" lon="9.02921">
        <ele>73.904737</ele>
        <time>2020-08-04T14:37:42.882Z</time>
      </trkpt>
      <trkpt lat="63.41234" lon="9.0293">
        <ele>73.328018</ele>
        <time>2020-08-04T14:37:44.918Z</time>
      </trkpt>
      <trkpt lat="63.41244" lon="9.02933">
        <ele>72.806732</ele>
        <time>2020-08-04T14:37:46.930Z</time>
      </trkpt>
      <trkpt lat="63.41256" lon="9.02936">
        <ele>72.033697</ele>
        <time>2020-08-04T14:37:49.899Z</time>
      </trkpt>
      <trkpt lat="63.41266" lon="9.02934">
        <ele>71.41559</ele>
        <time>2020-08-04T14:37:52.900Z</time>
      </trkpt>
      <trkpt lat="63.41275" lon="9.02926">
        <ele>70.783761</ele>
        <time>2020-08-04T14:37:55.905Z</time>
      </trkpt>
      <trkpt lat="63.41285" lon="9.02912">
        <ele>70.001364</ele>
        <time>2020-08-04T14:37:58.918Z</time>
      </trkpt>
      <trkpt lat="63.41293" lon="9.02895">
        <ele>69.306222</ele>
        <time>2020-08-04T14:38:00.889Z</time>
      </trkpt>
      <trkpt lat="63.41303" lon="9.02876">
        <ele>68.431288</ele>
        <time>2020-08-04T14:38:02.900Z</time>
      </trkpt>
      <trkpt lat="63.41317" lon="9.02859">
        <ele>67.395914</ele>
        <time>2020-08-04T14:38:04.900Z</time>
      </trkpt>
      <trkpt lat="63.41334" lon="9.02846">
        <ele>66.288999</ele>
        <time>2020-08-04T14:38:06.895Z</time>
      </trkpt>
      <trkpt lat="63.4135" lon="9.02835">
        <ele>65.154386</ele>
        <time>2020-08-04T14:38:08.929Z</time>
      </trkpt>
      <trkpt lat="63.41367" lon="9.02821">
        <ele>64.007977</ele>
        <time>2020-08-04T14:38:10.913Z</time>
      </trkpt>
      <trkpt lat="63.41376" lon="9.02815">
        <ele>63.416993</ele>
        <time>2020-08-04T14:38:11.908Z</time>
      </trkpt>
      <trkpt lat="63.41393" lon="9.02803">
        <ele>62.270249</ele>
        <time>2020-08-04T14:38:13.928Z</time>
      </trkpt>
      <trkpt lat="63.41401" lon="9.02797">
        <ele>61.67986</ele>
        <time>2020-08-04T14:38:14.886Z</time>
      </trkpt>
      <trkpt lat="63.41417" lon="9.0278">
        <ele>61.287393</ele>
        <time>2020-08-04T14:38:16.897Z</time>
      </trkpt>
      <trkpt lat="63.41432" lon="9.0276">
        <ele>61.696875</ele>
        <time>2020-08-04T14:38:18.906Z</time>
      </trkpt>
      <trkpt lat="63.41443" lon="9.02741">
        <ele>62.045928</ele>
        <time>2020-08-04T14:38:20.890Z</time>
      </trkpt>
      <trkpt lat="63.41451" lon="9.02724">
        <ele>62.319823</ele>
        <time>2020-08-04T14:38:22.896Z</time>
      </trkpt>
      <trkpt lat="63.41459" lon="9.02705">
        <ele>62.591997</ele>
        <time>2020-08-04T14:38:25.899Z</time>
      </trkpt>
      <trkpt lat="63.41467" lon="9.02687">
        <ele>62.870681</ele>
        <time>2020-08-04T14:38:29.915Z</time>
      </trkpt>
      <trkpt lat="63.41473" lon="9.02672">
        <ele>63.096619</ele>
        <time>2020-08-04T14:38:32.900Z</time>
      </trkpt>
      <trkpt lat="63.4148" lon="9.02657">
        <ele>63.334643</ele>
        <time>2020-08-04T14:38:35.888Z</time>
      </trkpt>
      <trkpt lat="63.41489" lon="9.02638">
        <ele>63.623937</ele>
        <time>2020-08-04T14:38:39.888Z</time>
      </trkpt>
      <trkpt lat="63.41495" lon="9.02624">
        <ele>63.842877</ele>
        <time>2020-08-04T14:38:42.908Z</time>
      </trkpt>
      <trkpt lat="63.41503" lon="9.02606">
        <ele>64.117506</ele>
        <time>2020-08-04T14:38:46.913Z</time>
      </trkpt>
      <trkpt lat="63.41508" lon="9.0259">
        <ele>64.340453</ele>
        <time>2020-08-04T14:38:50.943Z</time>
      </trkpt>
      <trkpt lat="63.41515" lon="9.02574">
        <ele>64.576167</ele>
        <time>2020-08-04T14:38:55.889Z</time>
      </trkpt>
      <trkpt lat="63.41524" lon="9.02559">
        <ele>64.842239</ele>
        <time>2020-08-04T14:39:01.909Z</time>
      </trkpt>
      <trkpt lat="63.41528" lon="9.0254">
        <ele>65.070829</ele>
        <time>2020-08-04T14:39:09.893Z</time>
      </trkpt>
      <trkpt lat="63.41537" lon="9.02535">
        <ele>65.307813</ele>
        <time>2020-08-04T14:39:19.881Z</time>
      </trkpt>
      <trkpt lat="63.41547" lon="9.02529">
        <ele>65.462759</ele>
        <time>2020-08-04T14:39:25.889Z</time>
      </trkpt>
      <trkpt lat="63.41557" lon="9.02531">
        <ele>65.462759</ele>
        <time>2020-08-04T14:39:32.911Z</time>
      </trkpt>
      <trkpt lat="63.4156" lon="9.02551">
        <ele>65.462759</ele>
        <time>2020-08-04T14:39:39.903Z</time>
      </trkpt>
      <trkpt lat="63.41556" lon="9.02569">
        <ele>65.462759</ele>
        <time>2020-08-04T14:39:44.911Z</time>
      </trkpt>
      <trkpt lat="63.41545" lon="9.0261">
        <ele>65.462759</ele>
        <time>2020-08-04T14:40:28.882Z</time>
      </trkpt>
      <trkpt lat="63.41543" lon="9.02633">
        <ele>65.462759</ele>
        <time>2020-08-04T14:40:33.913Z</time>
      </trkpt>
      <trkpt lat="63.41541" lon="9.02654">
        <ele>65.462759</ele>
        <time>2020-08-04T14:40:39.896Z</time>
      </trkpt>
      <trkpt lat="63.41541" lon="9.02675">
        <ele>65.462759</ele>
        <time>2020-08-04T14:40:44.923Z</time>
      </trkpt>
      <trkpt lat="63.41549" lon="9.02656">
        <ele>65.462759</ele>
        <time>2020-08-04T14:42:33.926Z</time>
      </trkpt>
      <trkpt lat="63.4155" lon="9.02651">
        <ele>65.462759</ele>
        <time>2020-08-04T14:52:55.030Z</time>
      </trkpt>
    </trkseg>
  </trk>
</gpx>